<?xml version="1.0" encoding="UTF-8" standalone="no" ?>
<gpx xmlns="http://www.topografix.com/GPX/1/1" xmlns:xsi="http://www.w3.org/2001/XMLSchema-instance" xsi:schemaLocation="http://www.topografix.com/GPX/1/1 http://www.topografix.com/GPX/1/1/gpx.xsd" version="1.1" creator="VisuGPX - https://www.visugpx.com">
  <metadata>
    <name>Vers Lacroix </name>
  </metadata>
  <trk>
    <name><![CDATA[Enregistré le 30 oct. 2022 14:06:19]]></name>
    <trkseg>
      <trkpt lat="45.83325" lon="4.70941">
        <ele>357.39209</ele>
        <time>2022-10-30T13:06:36.419Z</time>
      </trkpt>
      <trkpt lat="45.83324" lon="4.70944">
        <ele>357.36285</ele>
        <time>2022-10-30T13:06:38.000Z</time>
      </trkpt>
      <trkpt lat="45.83324" lon="4.70947">
        <ele>357.21387</ele>
        <time>2022-10-30T13:06:40.000Z</time>
      </trkpt>
      <trkpt lat="45.83323" lon="4.70951">
        <ele>357.02771</ele>
        <time>2022-10-30T13:06:42.000Z</time>
      </trkpt>
      <trkpt lat="45.83323" lon="4.70954">
        <ele>356.80408</ele>
        <time>2022-10-30T13:06:43.000Z</time>
      </trkpt>
      <trkpt lat="45.83322" lon="4.70957">
        <ele>356.57947</ele>
        <time>2022-10-30T13:06:44.000Z</time>
      </trkpt>
      <trkpt lat="45.83321" lon="4.7096">
        <ele>356.37497</ele>
        <time>2022-10-30T13:06:45.000Z</time>
      </trkpt>
      <trkpt lat="45.83321" lon="4.70963">
        <ele>356.24512</ele>
        <time>2022-10-30T13:06:46.000Z</time>
      </trkpt>
      <trkpt lat="45.8332" lon="4.70966">
        <ele>356.05994</ele>
        <time>2022-10-30T13:06:47.000Z</time>
      </trkpt>
      <trkpt lat="45.83319" lon="4.70969">
        <ele>355.89642</ele>
        <time>2022-10-30T13:06:48.000Z</time>
      </trkpt>
      <trkpt lat="45.83318" lon="4.70972">
        <ele>355.80954</ele>
        <time>2022-10-30T13:06:49.000Z</time>
      </trkpt>
      <trkpt lat="45.83316" lon="4.70975">
        <ele>355.69583</ele>
        <time>2022-10-30T13:06:50.000Z</time>
      </trkpt>
      <trkpt lat="45.83315" lon="4.70978">
        <ele>355.5401</ele>
        <time>2022-10-30T13:06:51.000Z</time>
      </trkpt>
      <trkpt lat="45.83314" lon="4.70981">
        <ele>355.30786</ele>
        <time>2022-10-30T13:06:52.000Z</time>
      </trkpt>
      <trkpt lat="45.83313" lon="4.70985">
        <ele>355.11969</ele>
        <time>2022-10-30T13:06:53.000Z</time>
      </trkpt>
      <trkpt lat="45.83311" lon="4.70989">
        <ele>354.98056</ele>
        <time>2022-10-30T13:06:54.000Z</time>
      </trkpt>
      <trkpt lat="45.83309" lon="4.70994">
        <ele>354.87299</ele>
        <time>2022-10-30T13:06:55.000Z</time>
      </trkpt>
      <trkpt lat="45.83308" lon="4.70998">
        <ele>354.77454</ele>
        <time>2022-10-30T13:06:56.000Z</time>
      </trkpt>
      <trkpt lat="45.83307" lon="4.71003">
        <ele>354.68137</ele>
        <time>2022-10-30T13:06:57.000Z</time>
      </trkpt>
      <trkpt lat="45.83306" lon="4.71007">
        <ele>354.5997</ele>
        <time>2022-10-30T13:06:58.000Z</time>
      </trkpt>
      <trkpt lat="45.83305" lon="4.71011">
        <ele>354.38342</ele>
        <time>2022-10-30T13:06:59.000Z</time>
      </trkpt>
      <trkpt lat="45.83303" lon="4.71015">
        <ele>354.15924</ele>
        <time>2022-10-30T13:07:00.000Z</time>
      </trkpt>
      <trkpt lat="45.83302" lon="4.71019">
        <ele>353.91605</ele>
        <time>2022-10-30T13:07:01.000Z</time>
      </trkpt>
      <trkpt lat="45.833" lon="4.71023">
        <ele>353.71286</ele>
        <time>2022-10-30T13:07:02.000Z</time>
      </trkpt>
      <trkpt lat="45.83299" lon="4.71026">
        <ele>353.50787</ele>
        <time>2022-10-30T13:07:03.000Z</time>
      </trkpt>
      <trkpt lat="45.83298" lon="4.71029">
        <ele>353.29324</ele>
        <time>2022-10-30T13:07:04.000Z</time>
      </trkpt>
      <trkpt lat="45.83298" lon="4.71033">
        <ele>353.12067</ele>
        <time>2022-10-30T13:07:05.000Z</time>
      </trkpt>
      <trkpt lat="45.83297" lon="4.71037">
        <ele>352.9657</ele>
        <time>2022-10-30T13:07:06.000Z</time>
      </trkpt>
      <trkpt lat="45.83295" lon="4.7104">
        <ele>352.8501</ele>
        <time>2022-10-30T13:07:07.000Z</time>
      </trkpt>
      <trkpt lat="45.83294" lon="4.71043">
        <ele>352.78104</ele>
        <time>2022-10-30T13:07:08.000Z</time>
      </trkpt>
      <trkpt lat="45.83293" lon="4.71046">
        <ele>352.69897</ele>
        <time>2022-10-30T13:07:09.000Z</time>
      </trkpt>
      <trkpt lat="45.83291" lon="4.71049">
        <ele>352.63922</ele>
        <time>2022-10-30T13:07:11.000Z</time>
      </trkpt>
      <trkpt lat="45.83288" lon="4.71053">
        <ele>352.65933</ele>
        <time>2022-10-30T13:07:28.000Z</time>
      </trkpt>
      <trkpt lat="45.83286" lon="4.71057">
        <ele>352.78653</ele>
        <time>2022-10-30T13:07:29.000Z</time>
      </trkpt>
      <trkpt lat="45.83283" lon="4.7106">
        <ele>352.94769</ele>
        <time>2022-10-30T13:07:30.000Z</time>
      </trkpt>
      <trkpt lat="45.8328" lon="4.71063">
        <ele>353.07318</ele>
        <time>2022-10-30T13:07:31.000Z</time>
      </trkpt>
      <trkpt lat="45.83277" lon="4.71066">
        <ele>353.22339</ele>
        <time>2022-10-30T13:07:32.000Z</time>
      </trkpt>
      <trkpt lat="45.83274" lon="4.71069">
        <ele>353.46402</ele>
        <time>2022-10-30T13:07:33.000Z</time>
      </trkpt>
      <trkpt lat="45.83272" lon="4.71073">
        <ele>353.69418</ele>
        <time>2022-10-30T13:07:34.000Z</time>
      </trkpt>
      <trkpt lat="45.8327" lon="4.71077">
        <ele>353.82721</ele>
        <time>2022-10-30T13:07:35.000Z</time>
      </trkpt>
      <trkpt lat="45.83268" lon="4.7108">
        <ele>353.97345</ele>
        <time>2022-10-30T13:07:36.000Z</time>
      </trkpt>
      <trkpt lat="45.83266" lon="4.71081">
        <ele>354.18335</ele>
        <time>2022-10-30T13:07:37.000Z</time>
      </trkpt>
      <trkpt lat="45.83264" lon="4.71082">
        <ele>354.46286</ele>
        <time>2022-10-30T13:07:39.000Z</time>
      </trkpt>
      <trkpt lat="45.83263" lon="4.71084">
        <ele>354.65552</ele>
        <time>2022-10-30T13:08:02.000Z</time>
      </trkpt>
      <trkpt lat="45.83259" lon="4.71086">
        <ele>354.98822</ele>
        <time>2022-10-30T13:09:22.000Z</time>
      </trkpt>
      <trkpt lat="45.83257" lon="4.71086">
        <ele>355.43839</ele>
        <time>2022-10-30T13:09:24.000Z</time>
      </trkpt>
      <trkpt lat="45.83255" lon="4.71088">
        <ele>355.88336</ele>
        <time>2022-10-30T13:09:32.000Z</time>
      </trkpt>
      <trkpt lat="45.83252" lon="4.71089">
        <ele>356.36938</ele>
        <time>2022-10-30T13:09:42.000Z</time>
      </trkpt>
      <trkpt lat="45.8325" lon="4.71091">
        <ele>356.82883</ele>
        <time>2022-10-30T13:09:43.000Z</time>
      </trkpt>
      <trkpt lat="45.83247" lon="4.71092">
        <ele>357.32471</ele>
        <time>2022-10-30T13:09:44.000Z</time>
      </trkpt>
      <trkpt lat="45.83244" lon="4.71094">
        <ele>357.79272</ele>
        <time>2022-10-30T13:09:45.000Z</time>
      </trkpt>
      <trkpt lat="45.83241" lon="4.71095">
        <ele>358.29822</ele>
        <time>2022-10-30T13:09:46.000Z</time>
      </trkpt>
      <trkpt lat="45.83239" lon="4.71096">
        <ele>358.71561</ele>
        <time>2022-10-30T13:09:47.000Z</time>
      </trkpt>
      <trkpt lat="45.83236" lon="4.71098">
        <ele>359.06897</ele>
        <time>2022-10-30T13:09:48.000Z</time>
      </trkpt>
      <trkpt lat="45.83233" lon="4.71099">
        <ele>359.31528</ele>
        <time>2022-10-30T13:09:49.000Z</time>
      </trkpt>
      <trkpt lat="45.83231" lon="4.71101">
        <ele>359.50421</ele>
        <time>2022-10-30T13:09:50.000Z</time>
      </trkpt>
      <trkpt lat="45.83228" lon="4.71102">
        <ele>359.64789</ele>
        <time>2022-10-30T13:09:51.000Z</time>
      </trkpt>
      <trkpt lat="45.83225" lon="4.71104">
        <ele>359.66901</ele>
        <time>2022-10-30T13:09:52.000Z</time>
      </trkpt>
      <trkpt lat="45.83222" lon="4.71106">
        <ele>359.71054</ele>
        <time>2022-10-30T13:09:53.000Z</time>
      </trkpt>
      <trkpt lat="45.83219" lon="4.71109">
        <ele>359.84006</ele>
        <time>2022-10-30T13:09:54.000Z</time>
      </trkpt>
      <trkpt lat="45.83216" lon="4.71112">
        <ele>359.97614</ele>
        <time>2022-10-30T13:09:55.000Z</time>
      </trkpt>
      <trkpt lat="45.83213" lon="4.71114">
        <ele>360.11554</ele>
        <time>2022-10-30T13:09:56.000Z</time>
      </trkpt>
      <trkpt lat="45.83209" lon="4.71116">
        <ele>360.22131</ele>
        <time>2022-10-30T13:09:57.000Z</time>
      </trkpt>
      <trkpt lat="45.83205" lon="4.71118">
        <ele>360.41501</ele>
        <time>2022-10-30T13:09:58.000Z</time>
      </trkpt>
      <trkpt lat="45.83201" lon="4.71119">
        <ele>360.49725</ele>
        <time>2022-10-30T13:09:59.000Z</time>
      </trkpt>
      <trkpt lat="45.83197" lon="4.71121">
        <ele>360.50177</ele>
        <time>2022-10-30T13:10:00.000Z</time>
      </trkpt>
      <trkpt lat="45.83194" lon="4.71122">
        <ele>360.47809</ele>
        <time>2022-10-30T13:10:01.000Z</time>
      </trkpt>
      <trkpt lat="45.8319" lon="4.71123">
        <ele>360.25104</ele>
        <time>2022-10-30T13:10:02.000Z</time>
      </trkpt>
      <trkpt lat="45.83187" lon="4.71125">
        <ele>359.95734</ele>
        <time>2022-10-30T13:10:03.000Z</time>
      </trkpt>
      <trkpt lat="45.83183" lon="4.71127">
        <ele>359.60245</ele>
        <time>2022-10-30T13:10:04.000Z</time>
      </trkpt>
      <trkpt lat="45.8318" lon="4.71129">
        <ele>359.21713</ele>
        <time>2022-10-30T13:10:05.000Z</time>
      </trkpt>
      <trkpt lat="45.83176" lon="4.7113">
        <ele>358.78879</ele>
        <time>2022-10-30T13:10:06.000Z</time>
      </trkpt>
      <trkpt lat="45.83174" lon="4.71133">
        <ele>358.40067</ele>
        <time>2022-10-30T13:10:07.000Z</time>
      </trkpt>
      <trkpt lat="45.83173" lon="4.71136">
        <ele>358.03171</ele>
        <time>2022-10-30T13:10:08.000Z</time>
      </trkpt>
      <trkpt lat="45.83172" lon="4.71138">
        <ele>357.78107</ele>
        <time>2022-10-30T13:10:09.000Z</time>
      </trkpt>
      <trkpt lat="45.83171" lon="4.71141">
        <ele>357.61432</ele>
        <time>2022-10-30T13:10:10.000Z</time>
      </trkpt>
      <trkpt lat="45.83171" lon="4.71145">
        <ele>357.38947</ele>
        <time>2022-10-30T13:10:11.000Z</time>
      </trkpt>
      <trkpt lat="45.83171" lon="4.71148">
        <ele>357.17105</ele>
        <time>2022-10-30T13:10:12.000Z</time>
      </trkpt>
      <trkpt lat="45.83172" lon="4.71152">
        <ele>356.92377</ele>
        <time>2022-10-30T13:10:13.000Z</time>
      </trkpt>
      <trkpt lat="45.83173" lon="4.71155">
        <ele>356.72263</ele>
        <time>2022-10-30T13:10:14.000Z</time>
      </trkpt>
      <trkpt lat="45.83175" lon="4.71157">
        <ele>356.51129</ele>
        <time>2022-10-30T13:10:16.000Z</time>
      </trkpt>
      <trkpt lat="45.83176" lon="4.71159">
        <ele>356.30255</ele>
        <time>2022-10-30T13:10:37.000Z</time>
      </trkpt>
      <trkpt lat="45.83177" lon="4.71162">
        <ele>356.11349</ele>
        <time>2022-10-30T13:11:14.000Z</time>
      </trkpt>
      <trkpt lat="45.83179" lon="4.71167">
        <ele>355.92651</ele>
        <time>2022-10-30T13:11:15.000Z</time>
      </trkpt>
      <trkpt lat="45.8318" lon="4.71172">
        <ele>355.6662</ele>
        <time>2022-10-30T13:11:16.000Z</time>
      </trkpt>
      <trkpt lat="45.83181" lon="4.71177">
        <ele>355.30609</ele>
        <time>2022-10-30T13:11:17.000Z</time>
      </trkpt>
      <trkpt lat="45.83182" lon="4.71182">
        <ele>354.91049</ele>
        <time>2022-10-30T13:11:18.000Z</time>
      </trkpt>
      <trkpt lat="45.83183" lon="4.71188">
        <ele>354.59247</ele>
        <time>2022-10-30T13:11:19.000Z</time>
      </trkpt>
      <trkpt lat="45.83186" lon="4.71193">
        <ele>354.33551</ele>
        <time>2022-10-30T13:11:20.000Z</time>
      </trkpt>
      <trkpt lat="45.83188" lon="4.71198">
        <ele>354.03754</ele>
        <time>2022-10-30T13:11:21.000Z</time>
      </trkpt>
      <trkpt lat="45.83191" lon="4.71201">
        <ele>353.83676</ele>
        <time>2022-10-30T13:11:22.000Z</time>
      </trkpt>
      <trkpt lat="45.83193" lon="4.71207">
        <ele>353.63803</ele>
        <time>2022-10-30T13:11:23.000Z</time>
      </trkpt>
      <trkpt lat="45.83198" lon="4.7121">
        <ele>353.40152</ele>
        <time>2022-10-30T13:11:24.000Z</time>
      </trkpt>
      <trkpt lat="45.83201" lon="4.71214">
        <ele>353.17529</ele>
        <time>2022-10-30T13:11:25.000Z</time>
      </trkpt>
      <trkpt lat="45.83204" lon="4.71218">
        <ele>352.86072</ele>
        <time>2022-10-30T13:11:26.000Z</time>
      </trkpt>
      <trkpt lat="45.83209" lon="4.71223">
        <ele>352.52411</ele>
        <time>2022-10-30T13:11:27.000Z</time>
      </trkpt>
      <trkpt lat="45.83211" lon="4.71227">
        <ele>352.08734</ele>
        <time>2022-10-30T13:11:28.000Z</time>
      </trkpt>
      <trkpt lat="45.83214" lon="4.71233">
        <ele>351.69171</ele>
        <time>2022-10-30T13:11:29.000Z</time>
      </trkpt>
      <trkpt lat="45.83217" lon="4.7124">
        <ele>351.28482</ele>
        <time>2022-10-30T13:11:30.000Z</time>
      </trkpt>
      <trkpt lat="45.83218" lon="4.71246">
        <ele>350.84515</ele>
        <time>2022-10-30T13:11:31.000Z</time>
      </trkpt>
      <trkpt lat="45.8322" lon="4.71251">
        <ele>350.37299</ele>
        <time>2022-10-30T13:11:32.000Z</time>
      </trkpt>
      <trkpt lat="45.83218" lon="4.71258">
        <ele>349.77972</ele>
        <time>2022-10-30T13:11:33.000Z</time>
      </trkpt>
      <trkpt lat="45.83218" lon="4.71264">
        <ele>349.1788</ele>
        <time>2022-10-30T13:11:34.000Z</time>
      </trkpt>
      <trkpt lat="45.83217" lon="4.7127">
        <ele>348.53729</ele>
        <time>2022-10-30T13:11:35.000Z</time>
      </trkpt>
      <trkpt lat="45.83218" lon="4.71275">
        <ele>347.85767</ele>
        <time>2022-10-30T13:11:36.000Z</time>
      </trkpt>
      <trkpt lat="45.83218" lon="4.71281">
        <ele>347.32635</ele>
        <time>2022-10-30T13:11:37.000Z</time>
      </trkpt>
      <trkpt lat="45.83218" lon="4.71287">
        <ele>346.79224</ele>
        <time>2022-10-30T13:11:38.000Z</time>
      </trkpt>
      <trkpt lat="45.83218" lon="4.71292">
        <ele>346.36929</ele>
        <time>2022-10-30T13:11:39.000Z</time>
      </trkpt>
      <trkpt lat="45.83217" lon="4.71297">
        <ele>345.90558</ele>
        <time>2022-10-30T13:11:40.000Z</time>
      </trkpt>
      <trkpt lat="45.83217" lon="4.71302">
        <ele>345.42325</ele>
        <time>2022-10-30T13:11:41.000Z</time>
      </trkpt>
      <trkpt lat="45.83216" lon="4.71309">
        <ele>344.92773</ele>
        <time>2022-10-30T13:11:42.000Z</time>
      </trkpt>
      <trkpt lat="45.83217" lon="4.71315">
        <ele>344.39273</ele>
        <time>2022-10-30T13:11:43.000Z</time>
      </trkpt>
      <trkpt lat="45.83217" lon="4.71322">
        <ele>343.86542</ele>
        <time>2022-10-30T13:11:44.000Z</time>
      </trkpt>
      <trkpt lat="45.83217" lon="4.71328">
        <ele>343.43329</ele>
        <time>2022-10-30T13:11:45.000Z</time>
      </trkpt>
      <trkpt lat="45.83216" lon="4.71334">
        <ele>343.09</ele>
        <time>2022-10-30T13:11:46.000Z</time>
      </trkpt>
      <trkpt lat="45.83216" lon="4.71341">
        <ele>342.76187</ele>
        <time>2022-10-30T13:11:47.000Z</time>
      </trkpt>
      <trkpt lat="45.83217" lon="4.71347">
        <ele>342.56152</ele>
        <time>2022-10-30T13:11:48.000Z</time>
      </trkpt>
      <trkpt lat="45.83218" lon="4.71353">
        <ele>342.37177</ele>
        <time>2022-10-30T13:11:49.000Z</time>
      </trkpt>
      <trkpt lat="45.8322" lon="4.71358">
        <ele>342.1911</ele>
        <time>2022-10-30T13:11:50.000Z</time>
      </trkpt>
      <trkpt lat="45.83222" lon="4.71361">
        <ele>342.00687</ele>
        <time>2022-10-30T13:11:51.000Z</time>
      </trkpt>
      <trkpt lat="45.83223" lon="4.71363">
        <ele>341.79126</ele>
        <time>2022-10-30T13:11:52.000Z</time>
      </trkpt>
      <trkpt lat="45.83225" lon="4.71367">
        <ele>341.59695</ele>
        <time>2022-10-30T13:11:54.000Z</time>
      </trkpt>
      <trkpt lat="45.83226" lon="4.7137">
        <ele>341.42679</ele>
        <time>2022-10-30T13:11:55.000Z</time>
      </trkpt>
      <trkpt lat="45.83227" lon="4.71372">
        <ele>341.26849</ele>
        <time>2022-10-30T13:11:56.000Z</time>
      </trkpt>
      <trkpt lat="45.8323" lon="4.71375">
        <ele>341.21384</ele>
        <time>2022-10-30T13:11:57.000Z</time>
      </trkpt>
      <trkpt lat="45.83233" lon="4.71376">
        <ele>341.16794</ele>
        <time>2022-10-30T13:11:58.000Z</time>
      </trkpt>
      <trkpt lat="45.83237" lon="4.71377">
        <ele>341.1506</ele>
        <time>2022-10-30T13:11:59.000Z</time>
      </trkpt>
      <trkpt lat="45.83241" lon="4.71378">
        <ele>341.15875</ele>
        <time>2022-10-30T13:12:00.000Z</time>
      </trkpt>
      <trkpt lat="45.83245" lon="4.71379">
        <ele>341.16022</ele>
        <time>2022-10-30T13:12:01.000Z</time>
      </trkpt>
      <trkpt lat="45.83249" lon="4.71379">
        <ele>341.24551</ele>
        <time>2022-10-30T13:12:02.000Z</time>
      </trkpt>
      <trkpt lat="45.83256" lon="4.71381">
        <ele>341.26346</ele>
        <time>2022-10-30T13:12:03.000Z</time>
      </trkpt>
      <trkpt lat="45.8326" lon="4.71381">
        <ele>341.32773</ele>
        <time>2022-10-30T13:12:04.000Z</time>
      </trkpt>
      <trkpt lat="45.83265" lon="4.71382">
        <ele>341.39005</ele>
        <time>2022-10-30T13:12:05.000Z</time>
      </trkpt>
      <trkpt lat="45.83269" lon="4.71384">
        <ele>341.34793</ele>
        <time>2022-10-30T13:12:06.000Z</time>
      </trkpt>
      <trkpt lat="45.83273" lon="4.71385">
        <ele>341.29239</ele>
        <time>2022-10-30T13:12:07.000Z</time>
      </trkpt>
      <trkpt lat="45.83275" lon="4.71387">
        <ele>341.27484</ele>
        <time>2022-10-30T13:12:08.000Z</time>
      </trkpt>
      <trkpt lat="45.83274" lon="4.71389">
        <ele>341.30609</ele>
        <time>2022-10-30T13:12:09.000Z</time>
      </trkpt>
      <trkpt lat="45.83274" lon="4.71393">
        <ele>341.31699</ele>
        <time>2022-10-30T13:12:10.000Z</time>
      </trkpt>
      <trkpt lat="45.83273" lon="4.71395">
        <ele>341.30548</ele>
        <time>2022-10-30T13:12:11.000Z</time>
      </trkpt>
      <trkpt lat="45.83271" lon="4.71398">
        <ele>341.25769</ele>
        <time>2022-10-30T13:12:12.000Z</time>
      </trkpt>
      <trkpt lat="45.83272" lon="4.71404">
        <ele>341.26181</ele>
        <time>2022-10-30T13:12:28.000Z</time>
      </trkpt>
      <trkpt lat="45.8327" lon="4.71407">
        <ele>341.194</ele>
        <time>2022-10-30T13:12:29.000Z</time>
      </trkpt>
      <trkpt lat="45.8327" lon="4.71411">
        <ele>341.07022</ele>
        <time>2022-10-30T13:12:30.000Z</time>
      </trkpt>
      <trkpt lat="45.83269" lon="4.71416">
        <ele>340.93402</ele>
        <time>2022-10-30T13:12:31.000Z</time>
      </trkpt>
      <trkpt lat="45.83268" lon="4.7142">
        <ele>340.79568</ele>
        <time>2022-10-30T13:12:32.000Z</time>
      </trkpt>
      <trkpt lat="45.83267" lon="4.71425">
        <ele>340.52133</ele>
        <time>2022-10-30T13:12:33.000Z</time>
      </trkpt>
      <trkpt lat="45.83266" lon="4.71431">
        <ele>340.20337</ele>
        <time>2022-10-30T13:12:34.000Z</time>
      </trkpt>
      <trkpt lat="45.83265" lon="4.71437">
        <ele>339.86996</ele>
        <time>2022-10-30T13:12:35.000Z</time>
      </trkpt>
      <trkpt lat="45.83265" lon="4.71443">
        <ele>339.61169</ele>
        <time>2022-10-30T13:12:36.000Z</time>
      </trkpt>
      <trkpt lat="45.83265" lon="4.71449">
        <ele>339.36896</ele>
        <time>2022-10-30T13:12:37.000Z</time>
      </trkpt>
      <trkpt lat="45.83264" lon="4.71454">
        <ele>339.14639</ele>
        <time>2022-10-30T13:12:38.000Z</time>
      </trkpt>
      <trkpt lat="45.83264" lon="4.7146">
        <ele>338.87271</ele>
        <time>2022-10-30T13:12:39.000Z</time>
      </trkpt>
      <trkpt lat="45.83263" lon="4.71466">
        <ele>338.64032</ele>
        <time>2022-10-30T13:12:40.000Z</time>
      </trkpt>
      <trkpt lat="45.83261" lon="4.71471">
        <ele>338.52194</ele>
        <time>2022-10-30T13:12:41.000Z</time>
      </trkpt>
      <trkpt lat="45.8326" lon="4.71477">
        <ele>338.38223</ele>
        <time>2022-10-30T13:12:42.000Z</time>
      </trkpt>
      <trkpt lat="45.83258" lon="4.71483">
        <ele>338.25153</ele>
        <time>2022-10-30T13:12:43.000Z</time>
      </trkpt>
      <trkpt lat="45.83259" lon="4.71489">
        <ele>338.14166</ele>
        <time>2022-10-30T13:12:44.000Z</time>
      </trkpt>
      <trkpt lat="45.83258" lon="4.71495">
        <ele>338.07184</ele>
        <time>2022-10-30T13:12:45.000Z</time>
      </trkpt>
      <trkpt lat="45.83258" lon="4.715">
        <ele>338.035</ele>
        <time>2022-10-30T13:12:46.000Z</time>
      </trkpt>
      <trkpt lat="45.83258" lon="4.71505">
        <ele>338.02264</ele>
        <time>2022-10-30T13:12:47.000Z</time>
      </trkpt>
      <trkpt lat="45.83259" lon="4.71511">
        <ele>338.0213</ele>
        <time>2022-10-30T13:12:48.000Z</time>
      </trkpt>
      <trkpt lat="45.8326" lon="4.71517">
        <ele>338.08844</ele>
        <time>2022-10-30T13:12:49.000Z</time>
      </trkpt>
      <trkpt lat="45.83261" lon="4.71524">
        <ele>338.18378</ele>
        <time>2022-10-30T13:12:50.000Z</time>
      </trkpt>
      <trkpt lat="45.83262" lon="4.71531">
        <ele>338.29819</ele>
        <time>2022-10-30T13:12:51.000Z</time>
      </trkpt>
      <trkpt lat="45.83262" lon="4.71539">
        <ele>338.4288</ele>
        <time>2022-10-30T13:12:52.000Z</time>
      </trkpt>
      <trkpt lat="45.83261" lon="4.71546">
        <ele>338.63916</ele>
        <time>2022-10-30T13:12:53.000Z</time>
      </trkpt>
      <trkpt lat="45.83259" lon="4.71552">
        <ele>338.91199</ele>
        <time>2022-10-30T13:12:54.000Z</time>
      </trkpt>
      <trkpt lat="45.83252" lon="4.71558">
        <ele>339.08447</ele>
        <time>2022-10-30T13:12:55.000Z</time>
      </trkpt>
      <trkpt lat="45.83245" lon="4.7156">
        <ele>339.15659</ele>
        <time>2022-10-30T13:12:56.000Z</time>
      </trkpt>
      <trkpt lat="45.8324" lon="4.71562">
        <ele>339.17896</ele>
        <time>2022-10-30T13:12:57.000Z</time>
      </trkpt>
      <trkpt lat="45.83235" lon="4.71564">
        <ele>339.20602</ele>
        <time>2022-10-30T13:12:58.000Z</time>
      </trkpt>
      <trkpt lat="45.8323" lon="4.71564">
        <ele>339.26724</ele>
        <time>2022-10-30T13:12:59.000Z</time>
      </trkpt>
      <trkpt lat="45.83224" lon="4.71563">
        <ele>339.31189</ele>
        <time>2022-10-30T13:13:00.000Z</time>
      </trkpt>
      <trkpt lat="45.8322" lon="4.71562">
        <ele>339.26007</ele>
        <time>2022-10-30T13:13:01.000Z</time>
      </trkpt>
      <trkpt lat="45.83215" lon="4.7156">
        <ele>339.18774</ele>
        <time>2022-10-30T13:13:02.000Z</time>
      </trkpt>
      <trkpt lat="45.8321" lon="4.71558">
        <ele>339.03561</ele>
        <time>2022-10-30T13:13:03.000Z</time>
      </trkpt>
      <trkpt lat="45.83204" lon="4.71556">
        <ele>338.87027</ele>
        <time>2022-10-30T13:13:04.000Z</time>
      </trkpt>
      <trkpt lat="45.83198" lon="4.71554">
        <ele>338.64291</ele>
        <time>2022-10-30T13:13:05.000Z</time>
      </trkpt>
      <trkpt lat="45.83191" lon="4.71552">
        <ele>338.37433</ele>
        <time>2022-10-30T13:13:06.000Z</time>
      </trkpt>
      <trkpt lat="45.83185" lon="4.71551">
        <ele>338.14084</ele>
        <time>2022-10-30T13:13:07.000Z</time>
      </trkpt>
      <trkpt lat="45.83179" lon="4.71549">
        <ele>337.84125</ele>
        <time>2022-10-30T13:13:08.000Z</time>
      </trkpt>
      <trkpt lat="45.83173" lon="4.71546">
        <ele>337.58597</ele>
        <time>2022-10-30T13:13:09.000Z</time>
      </trkpt>
      <trkpt lat="45.83166" lon="4.71544">
        <ele>337.27167</ele>
        <time>2022-10-30T13:13:10.000Z</time>
      </trkpt>
      <trkpt lat="45.83162" lon="4.71538">
        <ele>336.77997</ele>
        <time>2022-10-30T13:13:11.000Z</time>
      </trkpt>
      <trkpt lat="45.83154" lon="4.71537">
        <ele>336.23776</ele>
        <time>2022-10-30T13:13:12.000Z</time>
      </trkpt>
      <trkpt lat="45.83147" lon="4.71534">
        <ele>335.66943</ele>
        <time>2022-10-30T13:13:13.000Z</time>
      </trkpt>
      <trkpt lat="45.8314" lon="4.7153">
        <ele>335.01788</ele>
        <time>2022-10-30T13:13:14.000Z</time>
      </trkpt>
      <trkpt lat="45.83133" lon="4.71527">
        <ele>334.39215</ele>
        <time>2022-10-30T13:13:15.000Z</time>
      </trkpt>
      <trkpt lat="45.83127" lon="4.71525">
        <ele>333.83936</ele>
        <time>2022-10-30T13:13:16.000Z</time>
      </trkpt>
      <trkpt lat="45.83119" lon="4.71522">
        <ele>333.29813</ele>
        <time>2022-10-30T13:13:17.000Z</time>
      </trkpt>
      <trkpt lat="45.83111" lon="4.71519">
        <ele>332.76886</ele>
        <time>2022-10-30T13:13:18.000Z</time>
      </trkpt>
      <trkpt lat="45.83102" lon="4.71515">
        <ele>332.26773</ele>
        <time>2022-10-30T13:13:19.000Z</time>
      </trkpt>
      <trkpt lat="45.83094" lon="4.7151">
        <ele>331.70181</ele>
        <time>2022-10-30T13:13:20.000Z</time>
      </trkpt>
      <trkpt lat="45.83086" lon="4.71506">
        <ele>331.06561</ele>
        <time>2022-10-30T13:13:21.000Z</time>
      </trkpt>
      <trkpt lat="45.83078" lon="4.715">
        <ele>330.4343</ele>
        <time>2022-10-30T13:13:22.000Z</time>
      </trkpt>
      <trkpt lat="45.83071" lon="4.71495">
        <ele>329.83081</ele>
        <time>2022-10-30T13:13:23.000Z</time>
      </trkpt>
      <trkpt lat="45.83065" lon="4.7149">
        <ele>329.17453</ele>
        <time>2022-10-30T13:13:24.000Z</time>
      </trkpt>
      <trkpt lat="45.8306" lon="4.71487">
        <ele>328.52866</ele>
        <time>2022-10-30T13:13:25.000Z</time>
      </trkpt>
      <trkpt lat="45.83055" lon="4.71484">
        <ele>327.90192</ele>
        <time>2022-10-30T13:13:26.000Z</time>
      </trkpt>
      <trkpt lat="45.83051" lon="4.71484">
        <ele>327.20078</ele>
        <time>2022-10-30T13:13:27.000Z</time>
      </trkpt>
      <trkpt lat="45.83047" lon="4.71483">
        <ele>326.56024</ele>
        <time>2022-10-30T13:13:28.000Z</time>
      </trkpt>
      <trkpt lat="45.83044" lon="4.71485">
        <ele>325.87827</ele>
        <time>2022-10-30T13:13:29.000Z</time>
      </trkpt>
      <trkpt lat="45.83045" lon="4.71489">
        <ele>325.18097</ele>
        <time>2022-10-30T13:13:31.000Z</time>
      </trkpt>
      <trkpt lat="45.83047" lon="4.7149">
        <ele>324.68304</ele>
        <time>2022-10-30T13:13:32.000Z</time>
      </trkpt>
      <trkpt lat="45.8305" lon="4.71492">
        <ele>324.23743</ele>
        <time>2022-10-30T13:13:33.000Z</time>
      </trkpt>
      <trkpt lat="45.83054" lon="4.71496">
        <ele>323.82538</ele>
        <time>2022-10-30T13:13:34.000Z</time>
      </trkpt>
      <trkpt lat="45.83058" lon="4.71498">
        <ele>323.48712</ele>
        <time>2022-10-30T13:13:35.000Z</time>
      </trkpt>
      <trkpt lat="45.83061" lon="4.71501">
        <ele>323.14722</ele>
        <time>2022-10-30T13:13:36.000Z</time>
      </trkpt>
      <trkpt lat="45.83065" lon="4.71504">
        <ele>322.82349</ele>
        <time>2022-10-30T13:13:37.000Z</time>
      </trkpt>
      <trkpt lat="45.83067" lon="4.71507">
        <ele>322.4632</ele>
        <time>2022-10-30T13:13:38.000Z</time>
      </trkpt>
      <trkpt lat="45.83069" lon="4.71511">
        <ele>322.09399</ele>
        <time>2022-10-30T13:13:39.000Z</time>
      </trkpt>
      <trkpt lat="45.83072" lon="4.71514">
        <ele>321.77698</ele>
        <time>2022-10-30T13:13:40.000Z</time>
      </trkpt>
      <trkpt lat="45.83074" lon="4.71516">
        <ele>321.54007</ele>
        <time>2022-10-30T13:13:41.000Z</time>
      </trkpt>
      <trkpt lat="45.83077" lon="4.71518">
        <ele>321.37656</ele>
        <time>2022-10-30T13:13:42.000Z</time>
      </trkpt>
      <trkpt lat="45.8308" lon="4.71519">
        <ele>321.25629</ele>
        <time>2022-10-30T13:13:43.000Z</time>
      </trkpt>
      <trkpt lat="45.83083" lon="4.71521">
        <ele>321.12476</ele>
        <time>2022-10-30T13:13:44.000Z</time>
      </trkpt>
      <trkpt lat="45.83086" lon="4.71524">
        <ele>321.03961</ele>
        <time>2022-10-30T13:13:45.000Z</time>
      </trkpt>
      <trkpt lat="45.83088" lon="4.71525">
        <ele>320.93057</ele>
        <time>2022-10-30T13:13:46.000Z</time>
      </trkpt>
      <trkpt lat="45.8309" lon="4.71527">
        <ele>320.8847</ele>
        <time>2022-10-30T13:13:47.000Z</time>
      </trkpt>
      <trkpt lat="45.83091" lon="4.71528">
        <ele>320.92297</ele>
        <time>2022-10-30T13:13:50.000Z</time>
      </trkpt>
      <trkpt lat="45.83093" lon="4.71532">
        <ele>321.12396</ele>
        <time>2022-10-30T13:14:04.000Z</time>
      </trkpt>
      <trkpt lat="45.83094" lon="4.71537">
        <ele>321.34979</ele>
        <time>2022-10-30T13:14:06.000Z</time>
      </trkpt>
      <trkpt lat="45.83095" lon="4.7154">
        <ele>321.67728</ele>
        <time>2022-10-30T13:14:07.000Z</time>
      </trkpt>
      <trkpt lat="45.83096" lon="4.71542">
        <ele>321.96222</ele>
        <time>2022-10-30T13:14:08.000Z</time>
      </trkpt>
      <trkpt lat="45.83097" lon="4.71545">
        <ele>322.25427</ele>
        <time>2022-10-30T13:14:09.000Z</time>
      </trkpt>
      <trkpt lat="45.831" lon="4.71548">
        <ele>322.58414</ele>
        <time>2022-10-30T13:14:10.000Z</time>
      </trkpt>
      <trkpt lat="45.83104" lon="4.71549">
        <ele>322.98364</ele>
        <time>2022-10-30T13:14:11.000Z</time>
      </trkpt>
      <trkpt lat="45.83107" lon="4.71551">
        <ele>323.40134</ele>
        <time>2022-10-30T13:14:12.000Z</time>
      </trkpt>
      <trkpt lat="45.83119" lon="4.71551">
        <ele>323.83502</ele>
        <time>2022-10-30T13:14:13.000Z</time>
      </trkpt>
      <trkpt lat="45.83124" lon="4.71556">
        <ele>324.24164</ele>
        <time>2022-10-30T13:14:14.000Z</time>
      </trkpt>
      <trkpt lat="45.83128" lon="4.71561">
        <ele>324.64642</ele>
        <time>2022-10-30T13:14:15.000Z</time>
      </trkpt>
      <trkpt lat="45.83133" lon="4.71564">
        <ele>325.02344</ele>
        <time>2022-10-30T13:14:16.000Z</time>
      </trkpt>
      <trkpt lat="45.83137" lon="4.71568">
        <ele>325.35074</ele>
        <time>2022-10-30T13:14:17.000Z</time>
      </trkpt>
      <trkpt lat="45.8314" lon="4.71574">
        <ele>325.71967</ele>
        <time>2022-10-30T13:14:18.000Z</time>
      </trkpt>
      <trkpt lat="45.83142" lon="4.7158">
        <ele>326.07477</ele>
        <time>2022-10-30T13:14:19.000Z</time>
      </trkpt>
      <trkpt lat="45.83142" lon="4.71587">
        <ele>326.27512</ele>
        <time>2022-10-30T13:14:20.000Z</time>
      </trkpt>
      <trkpt lat="45.83141" lon="4.71592">
        <ele>326.31488</ele>
        <time>2022-10-30T13:14:21.000Z</time>
      </trkpt>
      <trkpt lat="45.8314" lon="4.71595">
        <ele>326.34689</ele>
        <time>2022-10-30T13:14:22.000Z</time>
      </trkpt>
      <trkpt lat="45.83137" lon="4.71597">
        <ele>326.32623</ele>
        <time>2022-10-30T13:14:23.000Z</time>
      </trkpt>
      <trkpt lat="45.83133" lon="4.71599">
        <ele>326.32349</ele>
        <time>2022-10-30T13:14:24.000Z</time>
      </trkpt>
      <trkpt lat="45.83129" lon="4.71602">
        <ele>326.11615</ele>
        <time>2022-10-30T13:14:25.000Z</time>
      </trkpt>
      <trkpt lat="45.83127" lon="4.71604">
        <ele>325.89709</ele>
        <time>2022-10-30T13:14:26.000Z</time>
      </trkpt>
      <trkpt lat="45.83123" lon="4.71608">
        <ele>325.5798</ele>
        <time>2022-10-30T13:14:27.000Z</time>
      </trkpt>
      <trkpt lat="45.83122" lon="4.7161">
        <ele>325.2724</ele>
        <time>2022-10-30T13:14:28.000Z</time>
      </trkpt>
      <trkpt lat="45.8312" lon="4.71614">
        <ele>324.9368</ele>
        <time>2022-10-30T13:14:29.000Z</time>
      </trkpt>
      <trkpt lat="45.83119" lon="4.71618">
        <ele>324.51172</ele>
        <time>2022-10-30T13:14:30.000Z</time>
      </trkpt>
      <trkpt lat="45.8312" lon="4.71623">
        <ele>324.05112</ele>
        <time>2022-10-30T13:14:31.000Z</time>
      </trkpt>
      <trkpt lat="45.83121" lon="4.71627">
        <ele>323.60468</ele>
        <time>2022-10-30T13:14:32.000Z</time>
      </trkpt>
      <trkpt lat="45.83123" lon="4.7163">
        <ele>323.15613</ele>
        <time>2022-10-30T13:14:33.000Z</time>
      </trkpt>
      <trkpt lat="45.83125" lon="4.71632">
        <ele>322.74469</ele>
        <time>2022-10-30T13:14:34.000Z</time>
      </trkpt>
      <trkpt lat="45.83128" lon="4.71635">
        <ele>322.34555</ele>
        <time>2022-10-30T13:14:35.000Z</time>
      </trkpt>
      <trkpt lat="45.83129" lon="4.71638">
        <ele>321.93829</ele>
        <time>2022-10-30T13:14:36.000Z</time>
      </trkpt>
      <trkpt lat="45.83131" lon="4.71641">
        <ele>321.59912</ele>
        <time>2022-10-30T13:14:37.000Z</time>
      </trkpt>
      <trkpt lat="45.83132" lon="4.71643">
        <ele>321.19464</ele>
        <time>2022-10-30T13:14:38.000Z</time>
      </trkpt>
      <trkpt lat="45.83134" lon="4.71646">
        <ele>320.71591</ele>
        <time>2022-10-30T13:14:39.000Z</time>
      </trkpt>
      <trkpt lat="45.83136" lon="4.71649">
        <ele>320.36334</ele>
        <time>2022-10-30T13:14:40.000Z</time>
      </trkpt>
      <trkpt lat="45.83138" lon="4.71652">
        <ele>320.23566</ele>
        <time>2022-10-30T13:14:41.000Z</time>
      </trkpt>
      <trkpt lat="45.83141" lon="4.71654">
        <ele>320.16968</ele>
        <time>2022-10-30T13:14:42.000Z</time>
      </trkpt>
      <trkpt lat="45.83142" lon="4.71657">
        <ele>320.04294</ele>
        <time>2022-10-30T13:14:43.000Z</time>
      </trkpt>
      <trkpt lat="45.83144" lon="4.71659">
        <ele>319.91718</ele>
        <time>2022-10-30T13:14:44.000Z</time>
      </trkpt>
      <trkpt lat="45.83146" lon="4.71662">
        <ele>319.82944</ele>
        <time>2022-10-30T13:14:45.000Z</time>
      </trkpt>
      <trkpt lat="45.83148" lon="4.71665">
        <ele>319.76038</ele>
        <time>2022-10-30T13:14:46.000Z</time>
      </trkpt>
      <trkpt lat="45.83149" lon="4.71668">
        <ele>319.78238</ele>
        <time>2022-10-30T13:14:47.000Z</time>
      </trkpt>
      <trkpt lat="45.83151" lon="4.7167">
        <ele>319.82941</ele>
        <time>2022-10-30T13:14:48.000Z</time>
      </trkpt>
      <trkpt lat="45.83153" lon="4.71673">
        <ele>319.87686</ele>
        <time>2022-10-30T13:14:49.000Z</time>
      </trkpt>
      <trkpt lat="45.83155" lon="4.71675">
        <ele>319.97769</ele>
        <time>2022-10-30T13:14:50.000Z</time>
      </trkpt>
      <trkpt lat="45.83157" lon="4.71677">
        <ele>320.07782</ele>
        <time>2022-10-30T13:14:51.000Z</time>
      </trkpt>
      <trkpt lat="45.8316" lon="4.71679">
        <ele>320.2001</ele>
        <time>2022-10-30T13:14:52.000Z</time>
      </trkpt>
      <trkpt lat="45.83162" lon="4.71681">
        <ele>320.31247</ele>
        <time>2022-10-30T13:14:53.000Z</time>
      </trkpt>
      <trkpt lat="45.83164" lon="4.71684">
        <ele>320.43399</ele>
        <time>2022-10-30T13:14:54.000Z</time>
      </trkpt>
      <trkpt lat="45.83165" lon="4.71687">
        <ele>320.54263</ele>
        <time>2022-10-30T13:14:55.000Z</time>
      </trkpt>
      <trkpt lat="45.83167" lon="4.71689">
        <ele>320.62003</ele>
        <time>2022-10-30T13:14:56.000Z</time>
      </trkpt>
      <trkpt lat="45.83169" lon="4.71693">
        <ele>320.60886</ele>
        <time>2022-10-30T13:14:57.000Z</time>
      </trkpt>
      <trkpt lat="45.8317" lon="4.71696">
        <ele>320.63501</ele>
        <time>2022-10-30T13:14:58.000Z</time>
      </trkpt>
      <trkpt lat="45.83171" lon="4.71699">
        <ele>320.65076</ele>
        <time>2022-10-30T13:14:59.000Z</time>
      </trkpt>
      <trkpt lat="45.83171" lon="4.71701">
        <ele>320.69952</ele>
        <time>2022-10-30T13:15:00.000Z</time>
      </trkpt>
      <trkpt lat="45.83173" lon="4.71705">
        <ele>320.75864</ele>
        <time>2022-10-30T13:15:01.000Z</time>
      </trkpt>
      <trkpt lat="45.83173" lon="4.71708">
        <ele>320.80823</ele>
        <time>2022-10-30T13:15:02.000Z</time>
      </trkpt>
      <trkpt lat="45.83174" lon="4.71711">
        <ele>321.01981</ele>
        <time>2022-10-30T13:15:03.000Z</time>
      </trkpt>
      <trkpt lat="45.83174" lon="4.71714">
        <ele>321.18451</ele>
        <time>2022-10-30T13:15:04.000Z</time>
      </trkpt>
      <trkpt lat="45.83174" lon="4.71717">
        <ele>321.40546</ele>
        <time>2022-10-30T13:15:05.000Z</time>
      </trkpt>
      <trkpt lat="45.83175" lon="4.71719">
        <ele>321.66141</ele>
        <time>2022-10-30T13:15:06.000Z</time>
      </trkpt>
      <trkpt lat="45.83176" lon="4.71722">
        <ele>321.91022</ele>
        <time>2022-10-30T13:15:08.000Z</time>
      </trkpt>
      <trkpt lat="45.83177" lon="4.71723">
        <ele>322.20279</ele>
        <time>2022-10-30T13:15:10.000Z</time>
      </trkpt>
      <trkpt lat="45.83179" lon="4.71725">
        <ele>322.48151</ele>
        <time>2022-10-30T13:15:17.000Z</time>
      </trkpt>
      <trkpt lat="45.83181" lon="4.71722">
        <ele>322.87006</ele>
        <time>2022-10-30T13:15:21.000Z</time>
      </trkpt>
      <trkpt lat="45.83183" lon="4.71723">
        <ele>323.2431</ele>
        <time>2022-10-30T13:15:23.000Z</time>
      </trkpt>
      <trkpt lat="45.83186" lon="4.71725">
        <ele>323.57733</ele>
        <time>2022-10-30T13:15:25.000Z</time>
      </trkpt>
      <trkpt lat="45.83188" lon="4.71725">
        <ele>323.95807</ele>
        <time>2022-10-30T13:15:26.000Z</time>
      </trkpt>
      <trkpt lat="45.8319" lon="4.71726">
        <ele>324.30817</ele>
        <time>2022-10-30T13:15:27.000Z</time>
      </trkpt>
      <trkpt lat="45.83192" lon="4.71726">
        <ele>324.65125</ele>
        <time>2022-10-30T13:15:28.000Z</time>
      </trkpt>
      <trkpt lat="45.83194" lon="4.71726">
        <ele>325.00848</ele>
        <time>2022-10-30T13:15:29.000Z</time>
      </trkpt>
      <trkpt lat="45.83196" lon="4.71727">
        <ele>325.44611</ele>
        <time>2022-10-30T13:15:30.000Z</time>
      </trkpt>
      <trkpt lat="45.83198" lon="4.71728">
        <ele>325.87408</ele>
        <time>2022-10-30T13:15:31.000Z</time>
      </trkpt>
      <trkpt lat="45.83201" lon="4.7173">
        <ele>326.3815</ele>
        <time>2022-10-30T13:15:32.000Z</time>
      </trkpt>
      <trkpt lat="45.83203" lon="4.71731">
        <ele>326.85608</ele>
        <time>2022-10-30T13:15:33.000Z</time>
      </trkpt>
      <trkpt lat="45.83206" lon="4.71731">
        <ele>327.2912</ele>
        <time>2022-10-30T13:15:34.000Z</time>
      </trkpt>
      <trkpt lat="45.8321" lon="4.71731">
        <ele>327.7244</ele>
        <time>2022-10-30T13:15:35.000Z</time>
      </trkpt>
      <trkpt lat="45.83213" lon="4.71732">
        <ele>328.04797</ele>
        <time>2022-10-30T13:15:36.000Z</time>
      </trkpt>
      <trkpt lat="45.83217" lon="4.71732">
        <ele>328.26352</ele>
        <time>2022-10-30T13:15:37.000Z</time>
      </trkpt>
      <trkpt lat="45.8322" lon="4.71733">
        <ele>328.36316</ele>
        <time>2022-10-30T13:15:38.000Z</time>
      </trkpt>
      <trkpt lat="45.83223" lon="4.71734">
        <ele>328.45602</ele>
        <time>2022-10-30T13:15:39.000Z</time>
      </trkpt>
      <trkpt lat="45.83225" lon="4.71735">
        <ele>328.49969</ele>
        <time>2022-10-30T13:15:40.000Z</time>
      </trkpt>
      <trkpt lat="45.83228" lon="4.71736">
        <ele>328.46231</ele>
        <time>2022-10-30T13:15:41.000Z</time>
      </trkpt>
      <trkpt lat="45.83231" lon="4.71737">
        <ele>328.48993</ele>
        <time>2022-10-30T13:15:42.000Z</time>
      </trkpt>
      <trkpt lat="45.83233" lon="4.71737">
        <ele>328.37564</ele>
        <time>2022-10-30T13:15:43.000Z</time>
      </trkpt>
      <trkpt lat="45.83236" lon="4.71739">
        <ele>328.26218</ele>
        <time>2022-10-30T13:15:44.000Z</time>
      </trkpt>
      <trkpt lat="45.83238" lon="4.71739">
        <ele>328.20499</ele>
        <time>2022-10-30T13:15:45.000Z</time>
      </trkpt>
      <trkpt lat="45.8324" lon="4.7174">
        <ele>328.0625</ele>
        <time>2022-10-30T13:15:46.000Z</time>
      </trkpt>
      <trkpt lat="45.83242" lon="4.71742">
        <ele>327.93979</ele>
        <time>2022-10-30T13:15:47.000Z</time>
      </trkpt>
      <trkpt lat="45.83244" lon="4.71745">
        <ele>327.83575</ele>
        <time>2022-10-30T13:15:48.000Z</time>
      </trkpt>
      <trkpt lat="45.83246" lon="4.71747">
        <ele>327.68951</ele>
        <time>2022-10-30T13:15:49.000Z</time>
      </trkpt>
      <trkpt lat="45.83247" lon="4.71751">
        <ele>327.52484</ele>
        <time>2022-10-30T13:15:51.000Z</time>
      </trkpt>
      <trkpt lat="45.83249" lon="4.71754">
        <ele>327.2684</ele>
        <time>2022-10-30T13:15:53.000Z</time>
      </trkpt>
      <trkpt lat="45.83251" lon="4.71754">
        <ele>326.98831</ele>
        <time>2022-10-30T13:15:55.000Z</time>
      </trkpt>
      <trkpt lat="45.83253" lon="4.71753">
        <ele>326.70602</ele>
        <time>2022-10-30T13:16:05.000Z</time>
      </trkpt>
      <trkpt lat="45.83254" lon="4.71749">
        <ele>326.4505</ele>
        <time>2022-10-30T13:16:28.000Z</time>
      </trkpt>
      <trkpt lat="45.83256" lon="4.71748">
        <ele>326.0748</ele>
        <time>2022-10-30T13:16:29.000Z</time>
      </trkpt>
      <trkpt lat="45.83258" lon="4.71748">
        <ele>325.76437</ele>
        <time>2022-10-30T13:16:30.000Z</time>
      </trkpt>
      <trkpt lat="45.8326" lon="4.71749">
        <ele>325.60773</ele>
        <time>2022-10-30T13:16:31.000Z</time>
      </trkpt>
      <trkpt lat="45.83262" lon="4.71749">
        <ele>325.4295</ele>
        <time>2022-10-30T13:16:32.000Z</time>
      </trkpt>
      <trkpt lat="45.83264" lon="4.71748">
        <ele>325.30023</ele>
        <time>2022-10-30T13:16:33.000Z</time>
      </trkpt>
      <trkpt lat="45.83266" lon="4.71748">
        <ele>325.2326</ele>
        <time>2022-10-30T13:16:34.000Z</time>
      </trkpt>
      <trkpt lat="45.83268" lon="4.71747">
        <ele>325.24762</ele>
        <time>2022-10-30T13:16:35.000Z</time>
      </trkpt>
      <trkpt lat="45.8327" lon="4.71746">
        <ele>325.2272</ele>
        <time>2022-10-30T13:16:36.000Z</time>
      </trkpt>
      <trkpt lat="45.83272" lon="4.71745">
        <ele>325.25485</ele>
        <time>2022-10-30T13:16:37.000Z</time>
      </trkpt>
      <trkpt lat="45.83274" lon="4.71745">
        <ele>325.22556</ele>
        <time>2022-10-30T13:16:38.000Z</time>
      </trkpt>
      <trkpt lat="45.83277" lon="4.71745">
        <ele>325.12247</ele>
        <time>2022-10-30T13:16:39.000Z</time>
      </trkpt>
      <trkpt lat="45.8328" lon="4.71745">
        <ele>325.02432</ele>
        <time>2022-10-30T13:16:40.000Z</time>
      </trkpt>
      <trkpt lat="45.83282" lon="4.71746">
        <ele>324.94232</ele>
        <time>2022-10-30T13:16:41.000Z</time>
      </trkpt>
      <trkpt lat="45.83285" lon="4.71747">
        <ele>324.86676</ele>
        <time>2022-10-30T13:16:42.000Z</time>
      </trkpt>
      <trkpt lat="45.83288" lon="4.71747">
        <ele>324.77756</ele>
        <time>2022-10-30T13:16:43.000Z</time>
      </trkpt>
      <trkpt lat="45.83292" lon="4.71748">
        <ele>324.69598</ele>
        <time>2022-10-30T13:16:44.000Z</time>
      </trkpt>
      <trkpt lat="45.83295" lon="4.71749">
        <ele>324.70578</ele>
        <time>2022-10-30T13:16:45.000Z</time>
      </trkpt>
      <trkpt lat="45.83298" lon="4.7175">
        <ele>324.66824</ele>
        <time>2022-10-30T13:16:46.000Z</time>
      </trkpt>
      <trkpt lat="45.83301" lon="4.71751">
        <ele>324.63135</ele>
        <time>2022-10-30T13:16:47.000Z</time>
      </trkpt>
      <trkpt lat="45.83304" lon="4.71751">
        <ele>324.51019</ele>
        <time>2022-10-30T13:16:48.000Z</time>
      </trkpt>
      <trkpt lat="45.83306" lon="4.71752">
        <ele>324.48862</ele>
        <time>2022-10-30T13:16:49.000Z</time>
      </trkpt>
      <trkpt lat="45.83308" lon="4.71752">
        <ele>324.43246</ele>
        <time>2022-10-30T13:16:50.000Z</time>
      </trkpt>
      <trkpt lat="45.83311" lon="4.71754">
        <ele>324.38086</ele>
        <time>2022-10-30T13:16:52.000Z</time>
      </trkpt>
      <trkpt lat="45.83314" lon="4.71755">
        <ele>324.36499</ele>
        <time>2022-10-30T13:16:54.000Z</time>
      </trkpt>
      <trkpt lat="45.83317" lon="4.71756">
        <ele>324.16953</ele>
        <time>2022-10-30T13:16:56.000Z</time>
      </trkpt>
      <trkpt lat="45.83319" lon="4.71756">
        <ele>324.01178</ele>
        <time>2022-10-30T13:16:57.000Z</time>
      </trkpt>
      <trkpt lat="45.83322" lon="4.71757">
        <ele>323.71689</ele>
        <time>2022-10-30T13:16:59.000Z</time>
      </trkpt>
      <trkpt lat="45.83324" lon="4.71758">
        <ele>323.41031</ele>
        <time>2022-10-30T13:17:00.000Z</time>
      </trkpt>
      <trkpt lat="45.83326" lon="4.71758">
        <ele>323.05215</ele>
        <time>2022-10-30T13:17:01.000Z</time>
      </trkpt>
      <trkpt lat="45.8333" lon="4.71758">
        <ele>322.79416</ele>
        <time>2022-10-30T13:17:02.000Z</time>
      </trkpt>
      <trkpt lat="45.83333" lon="4.71758">
        <ele>322.55206</ele>
        <time>2022-10-30T13:17:03.000Z</time>
      </trkpt>
      <trkpt lat="45.83337" lon="4.71758">
        <ele>322.41382</ele>
        <time>2022-10-30T13:17:04.000Z</time>
      </trkpt>
      <trkpt lat="45.83339" lon="4.71759">
        <ele>322.22729</ele>
        <time>2022-10-30T13:17:05.000Z</time>
      </trkpt>
      <trkpt lat="45.83341" lon="4.71758">
        <ele>321.98123</ele>
        <time>2022-10-30T13:17:07.000Z</time>
      </trkpt>
      <trkpt lat="45.83342" lon="4.71761">
        <ele>321.79462</ele>
        <time>2022-10-30T13:17:09.000Z</time>
      </trkpt>
      <trkpt lat="45.83343" lon="4.71764">
        <ele>321.58978</ele>
        <time>2022-10-30T13:17:10.000Z</time>
      </trkpt>
      <trkpt lat="45.83345" lon="4.71766">
        <ele>321.41605</ele>
        <time>2022-10-30T13:17:11.000Z</time>
      </trkpt>
      <trkpt lat="45.83346" lon="4.71768">
        <ele>321.297</ele>
        <time>2022-10-30T13:17:12.000Z</time>
      </trkpt>
      <trkpt lat="45.83347" lon="4.71771">
        <ele>321.24567</ele>
        <time>2022-10-30T13:17:13.000Z</time>
      </trkpt>
      <trkpt lat="45.83346" lon="4.71775">
        <ele>321.19464</ele>
        <time>2022-10-30T13:17:14.000Z</time>
      </trkpt>
      <trkpt lat="45.83346" lon="4.71779">
        <ele>321.1557</ele>
        <time>2022-10-30T13:17:15.000Z</time>
      </trkpt>
      <trkpt lat="45.83345" lon="4.71782">
        <ele>321.14865</ele>
        <time>2022-10-30T13:17:16.000Z</time>
      </trkpt>
      <trkpt lat="45.83344" lon="4.71786">
        <ele>321.08624</ele>
        <time>2022-10-30T13:17:17.000Z</time>
      </trkpt>
      <trkpt lat="45.83343" lon="4.71789">
        <ele>321.06149</ele>
        <time>2022-10-30T13:17:18.000Z</time>
      </trkpt>
      <trkpt lat="45.83341" lon="4.71793">
        <ele>321.14432</ele>
        <time>2022-10-30T13:17:19.000Z</time>
      </trkpt>
      <trkpt lat="45.83341" lon="4.71796">
        <ele>321.16757</ele>
        <time>2022-10-30T13:17:20.000Z</time>
      </trkpt>
      <trkpt lat="45.8334" lon="4.71799">
        <ele>321.25671</ele>
        <time>2022-10-30T13:17:21.000Z</time>
      </trkpt>
      <trkpt lat="45.83339" lon="4.71801">
        <ele>321.36969</ele>
        <time>2022-10-30T13:17:22.000Z</time>
      </trkpt>
      <trkpt lat="45.83338" lon="4.71806">
        <ele>321.54742</ele>
        <time>2022-10-30T13:17:24.000Z</time>
      </trkpt>
      <trkpt lat="45.83336" lon="4.71808">
        <ele>321.70154</ele>
        <time>2022-10-30T13:17:25.000Z</time>
      </trkpt>
      <trkpt lat="45.83334" lon="4.71811">
        <ele>321.89813</ele>
        <time>2022-10-30T13:17:27.000Z</time>
      </trkpt>
      <trkpt lat="45.83333" lon="4.71813">
        <ele>322.01138</ele>
        <time>2022-10-30T13:17:57.000Z</time>
      </trkpt>
      <trkpt lat="45.83329" lon="4.71815">
        <ele>322.22113</ele>
        <time>2022-10-30T13:18:00.000Z</time>
      </trkpt>
      <trkpt lat="45.83328" lon="4.71818">
        <ele>322.47122</ele>
        <time>2022-10-30T13:18:01.000Z</time>
      </trkpt>
      <trkpt lat="45.83327" lon="4.7182">
        <ele>322.73773</ele>
        <time>2022-10-30T13:18:02.000Z</time>
      </trkpt>
      <trkpt lat="45.83327" lon="4.71823">
        <ele>323.07367</ele>
        <time>2022-10-30T13:18:05.000Z</time>
      </trkpt>
      <trkpt lat="45.83326" lon="4.71826">
        <ele>323.28662</ele>
        <time>2022-10-30T13:18:18.000Z</time>
      </trkpt>
      <trkpt lat="45.83324" lon="4.71828">
        <ele>323.46259</ele>
        <time>2022-10-30T13:18:19.000Z</time>
      </trkpt>
      <trkpt lat="45.83323" lon="4.7183">
        <ele>323.6106</ele>
        <time>2022-10-30T13:18:20.000Z</time>
      </trkpt>
      <trkpt lat="45.83321" lon="4.71833">
        <ele>323.76627</ele>
        <time>2022-10-30T13:18:21.000Z</time>
      </trkpt>
      <trkpt lat="45.83319" lon="4.71836">
        <ele>323.92111</ele>
        <time>2022-10-30T13:18:22.000Z</time>
      </trkpt>
      <trkpt lat="45.83317" lon="4.71839">
        <ele>324.06088</ele>
        <time>2022-10-30T13:18:23.000Z</time>
      </trkpt>
      <trkpt lat="45.83315" lon="4.71842">
        <ele>324.18433</ele>
        <time>2022-10-30T13:18:24.000Z</time>
      </trkpt>
      <trkpt lat="45.83312" lon="4.71845">
        <ele>324.33249</ele>
        <time>2022-10-30T13:18:25.000Z</time>
      </trkpt>
      <trkpt lat="45.8331" lon="4.71847">
        <ele>324.48499</ele>
        <time>2022-10-30T13:18:26.000Z</time>
      </trkpt>
      <trkpt lat="45.83307" lon="4.71849">
        <ele>324.63568</ele>
        <time>2022-10-30T13:18:27.000Z</time>
      </trkpt>
      <trkpt lat="45.83303" lon="4.7185">
        <ele>324.78314</ele>
        <time>2022-10-30T13:18:28.000Z</time>
      </trkpt>
      <trkpt lat="45.833" lon="4.71852">
        <ele>324.88812</ele>
        <time>2022-10-30T13:18:29.000Z</time>
      </trkpt>
      <trkpt lat="45.83297" lon="4.71852">
        <ele>324.94781</ele>
        <time>2022-10-30T13:18:30.000Z</time>
      </trkpt>
      <trkpt lat="45.83294" lon="4.71853">
        <ele>324.94202</ele>
        <time>2022-10-30T13:18:31.000Z</time>
      </trkpt>
      <trkpt lat="45.83292" lon="4.71853">
        <ele>324.89462</ele>
        <time>2022-10-30T13:18:32.000Z</time>
      </trkpt>
      <trkpt lat="45.83289" lon="4.71852">
        <ele>324.90582</ele>
        <time>2022-10-30T13:18:33.000Z</time>
      </trkpt>
      <trkpt lat="45.83287" lon="4.71851">
        <ele>324.81183</ele>
        <time>2022-10-30T13:18:34.000Z</time>
      </trkpt>
      <trkpt lat="45.83284" lon="4.71849">
        <ele>324.72098</ele>
        <time>2022-10-30T13:18:35.000Z</time>
      </trkpt>
      <trkpt lat="45.83282" lon="4.71847">
        <ele>324.60031</ele>
        <time>2022-10-30T13:18:36.000Z</time>
      </trkpt>
      <trkpt lat="45.83279" lon="4.71846">
        <ele>324.43665</ele>
        <time>2022-10-30T13:18:37.000Z</time>
      </trkpt>
      <trkpt lat="45.83276" lon="4.71845">
        <ele>324.4241</ele>
        <time>2022-10-30T13:18:38.000Z</time>
      </trkpt>
      <trkpt lat="45.83273" lon="4.71844">
        <ele>324.47488</ele>
        <time>2022-10-30T13:18:39.000Z</time>
      </trkpt>
      <trkpt lat="45.83271" lon="4.71842">
        <ele>324.54059</ele>
        <time>2022-10-30T13:18:40.000Z</time>
      </trkpt>
      <trkpt lat="45.83268" lon="4.71841">
        <ele>324.60938</ele>
        <time>2022-10-30T13:18:41.000Z</time>
      </trkpt>
      <trkpt lat="45.83265" lon="4.71839">
        <ele>324.66724</ele>
        <time>2022-10-30T13:18:42.000Z</time>
      </trkpt>
      <trkpt lat="45.83262" lon="4.71838">
        <ele>324.73889</ele>
        <time>2022-10-30T13:18:43.000Z</time>
      </trkpt>
      <trkpt lat="45.83259" lon="4.71837">
        <ele>324.83847</ele>
        <time>2022-10-30T13:18:44.000Z</time>
      </trkpt>
      <trkpt lat="45.83255" lon="4.71836">
        <ele>324.98575</ele>
        <time>2022-10-30T13:18:45.000Z</time>
      </trkpt>
      <trkpt lat="45.83252" lon="4.71835">
        <ele>325.15387</ele>
        <time>2022-10-30T13:18:46.000Z</time>
      </trkpt>
      <trkpt lat="45.83248" lon="4.71834">
        <ele>325.31793</ele>
        <time>2022-10-30T13:18:47.000Z</time>
      </trkpt>
      <trkpt lat="45.83244" lon="4.71833">
        <ele>325.49384</ele>
        <time>2022-10-30T13:18:48.000Z</time>
      </trkpt>
      <trkpt lat="45.8324" lon="4.71831">
        <ele>325.69623</ele>
        <time>2022-10-30T13:18:49.000Z</time>
      </trkpt>
      <trkpt lat="45.83235" lon="4.7183">
        <ele>325.79437</ele>
        <time>2022-10-30T13:18:50.000Z</time>
      </trkpt>
      <trkpt lat="45.83231" lon="4.71829">
        <ele>325.92984</ele>
        <time>2022-10-30T13:18:51.000Z</time>
      </trkpt>
      <trkpt lat="45.83226" lon="4.71829">
        <ele>326.02896</ele>
        <time>2022-10-30T13:18:52.000Z</time>
      </trkpt>
      <trkpt lat="45.83221" lon="4.71827">
        <ele>326.11603</ele>
        <time>2022-10-30T13:18:53.000Z</time>
      </trkpt>
      <trkpt lat="45.83217" lon="4.71826">
        <ele>326.2724</ele>
        <time>2022-10-30T13:18:54.000Z</time>
      </trkpt>
      <trkpt lat="45.83212" lon="4.71824">
        <ele>326.42755</ele>
        <time>2022-10-30T13:18:55.000Z</time>
      </trkpt>
      <trkpt lat="45.83208" lon="4.71824">
        <ele>326.59079</ele>
        <time>2022-10-30T13:18:56.000Z</time>
      </trkpt>
      <trkpt lat="45.83204" lon="4.71822">
        <ele>326.72443</ele>
        <time>2022-10-30T13:18:57.000Z</time>
      </trkpt>
      <trkpt lat="45.83199" lon="4.7182">
        <ele>326.78052</ele>
        <time>2022-10-30T13:18:58.000Z</time>
      </trkpt>
      <trkpt lat="45.83195" lon="4.71818">
        <ele>326.80695</ele>
        <time>2022-10-30T13:18:59.000Z</time>
      </trkpt>
      <trkpt lat="45.8319" lon="4.71818">
        <ele>326.8277</ele>
        <time>2022-10-30T13:19:00.000Z</time>
      </trkpt>
      <trkpt lat="45.83186" lon="4.71816">
        <ele>326.79718</ele>
        <time>2022-10-30T13:19:01.000Z</time>
      </trkpt>
      <trkpt lat="45.83181" lon="4.71815">
        <ele>326.8046</ele>
        <time>2022-10-30T13:19:02.000Z</time>
      </trkpt>
      <trkpt lat="45.83178" lon="4.71812">
        <ele>326.81073</ele>
        <time>2022-10-30T13:19:03.000Z</time>
      </trkpt>
      <trkpt lat="45.83174" lon="4.7181">
        <ele>326.83438</ele>
        <time>2022-10-30T13:19:04.000Z</time>
      </trkpt>
      <trkpt lat="45.8317" lon="4.7181">
        <ele>326.78882</ele>
        <time>2022-10-30T13:19:05.000Z</time>
      </trkpt>
      <trkpt lat="45.83166" lon="4.71808">
        <ele>326.78336</ele>
        <time>2022-10-30T13:19:06.000Z</time>
      </trkpt>
      <trkpt lat="45.83161" lon="4.71808">
        <ele>326.75134</ele>
        <time>2022-10-30T13:19:07.000Z</time>
      </trkpt>
      <trkpt lat="45.83157" lon="4.71807">
        <ele>326.71954</ele>
        <time>2022-10-30T13:19:08.000Z</time>
      </trkpt>
      <trkpt lat="45.83153" lon="4.71807">
        <ele>326.72498</ele>
        <time>2022-10-30T13:19:09.000Z</time>
      </trkpt>
      <trkpt lat="45.83149" lon="4.7181">
        <ele>326.84216</ele>
        <time>2022-10-30T13:19:10.000Z</time>
      </trkpt>
      <trkpt lat="45.83145" lon="4.71812">
        <ele>326.96255</ele>
        <time>2022-10-30T13:19:11.000Z</time>
      </trkpt>
      <trkpt lat="45.83142" lon="4.71816">
        <ele>327.11041</ele>
        <time>2022-10-30T13:19:12.000Z</time>
      </trkpt>
      <trkpt lat="45.83139" lon="4.7182">
        <ele>327.23557</ele>
        <time>2022-10-30T13:19:13.000Z</time>
      </trkpt>
      <trkpt lat="45.83135" lon="4.71822">
        <ele>327.31354</ele>
        <time>2022-10-30T13:19:14.000Z</time>
      </trkpt>
      <trkpt lat="45.8313" lon="4.71822">
        <ele>327.40561</ele>
        <time>2022-10-30T13:19:15.000Z</time>
      </trkpt>
      <trkpt lat="45.83127" lon="4.71821">
        <ele>327.51431</ele>
        <time>2022-10-30T13:19:16.000Z</time>
      </trkpt>
      <trkpt lat="45.83122" lon="4.7182">
        <ele>327.6145</ele>
        <time>2022-10-30T13:19:17.000Z</time>
      </trkpt>
      <trkpt lat="45.83118" lon="4.7182">
        <ele>327.7041</ele>
        <time>2022-10-30T13:19:18.000Z</time>
      </trkpt>
      <trkpt lat="45.83114" lon="4.71819">
        <ele>327.74435</ele>
        <time>2022-10-30T13:19:19.000Z</time>
      </trkpt>
      <trkpt lat="45.8311" lon="4.71817">
        <ele>327.78741</ele>
        <time>2022-10-30T13:19:20.000Z</time>
      </trkpt>
      <trkpt lat="45.83106" lon="4.71816">
        <ele>327.89349</ele>
        <time>2022-10-30T13:19:21.000Z</time>
      </trkpt>
      <trkpt lat="45.83103" lon="4.71813">
        <ele>327.98062</ele>
        <time>2022-10-30T13:19:22.000Z</time>
      </trkpt>
      <trkpt lat="45.831" lon="4.7181">
        <ele>328.08246</ele>
        <time>2022-10-30T13:19:23.000Z</time>
      </trkpt>
      <trkpt lat="45.83096" lon="4.71808">
        <ele>328.19519</ele>
        <time>2022-10-30T13:19:24.000Z</time>
      </trkpt>
      <trkpt lat="45.83092" lon="4.71806">
        <ele>328.31879</ele>
        <time>2022-10-30T13:19:25.000Z</time>
      </trkpt>
      <trkpt lat="45.83088" lon="4.71805">
        <ele>328.42316</ele>
        <time>2022-10-30T13:19:26.000Z</time>
      </trkpt>
      <trkpt lat="45.83084" lon="4.71804">
        <ele>328.53046</ele>
        <time>2022-10-30T13:19:27.000Z</time>
      </trkpt>
      <trkpt lat="45.8308" lon="4.71803">
        <ele>328.65021</ele>
        <time>2022-10-30T13:19:28.000Z</time>
      </trkpt>
      <trkpt lat="45.83076" lon="4.71801">
        <ele>328.80801</ele>
        <time>2022-10-30T13:19:29.000Z</time>
      </trkpt>
      <trkpt lat="45.83073" lon="4.71799">
        <ele>328.96616</ele>
        <time>2022-10-30T13:19:30.000Z</time>
      </trkpt>
      <trkpt lat="45.83069" lon="4.71797">
        <ele>329.11139</ele>
        <time>2022-10-30T13:19:31.000Z</time>
      </trkpt>
      <trkpt lat="45.83065" lon="4.71795">
        <ele>329.29913</ele>
        <time>2022-10-30T13:19:32.000Z</time>
      </trkpt>
      <trkpt lat="45.83061" lon="4.71793">
        <ele>329.55383</ele>
        <time>2022-10-30T13:19:33.000Z</time>
      </trkpt>
      <trkpt lat="45.83057" lon="4.71791">
        <ele>329.87396</ele>
        <time>2022-10-30T13:19:34.000Z</time>
      </trkpt>
      <trkpt lat="45.83053" lon="4.71789">
        <ele>330.16418</ele>
        <time>2022-10-30T13:19:35.000Z</time>
      </trkpt>
      <trkpt lat="45.83049" lon="4.71787">
        <ele>330.48956</ele>
        <time>2022-10-30T13:19:36.000Z</time>
      </trkpt>
      <trkpt lat="45.83045" lon="4.71785">
        <ele>330.86139</ele>
        <time>2022-10-30T13:19:37.000Z</time>
      </trkpt>
      <trkpt lat="45.83041" lon="4.71784">
        <ele>331.20813</ele>
        <time>2022-10-30T13:19:38.000Z</time>
      </trkpt>
      <trkpt lat="45.83037" lon="4.71782">
        <ele>331.61957</ele>
        <time>2022-10-30T13:19:39.000Z</time>
      </trkpt>
      <trkpt lat="45.83032" lon="4.71782">
        <ele>332.00244</ele>
        <time>2022-10-30T13:19:40.000Z</time>
      </trkpt>
      <trkpt lat="45.83028" lon="4.71781">
        <ele>332.36874</ele>
        <time>2022-10-30T13:19:41.000Z</time>
      </trkpt>
      <trkpt lat="45.83025" lon="4.7178">
        <ele>332.70346</ele>
        <time>2022-10-30T13:19:42.000Z</time>
      </trkpt>
      <trkpt lat="45.8302" lon="4.71778">
        <ele>333.02393</ele>
        <time>2022-10-30T13:19:43.000Z</time>
      </trkpt>
      <trkpt lat="45.83016" lon="4.71777">
        <ele>333.29376</ele>
        <time>2022-10-30T13:19:44.000Z</time>
      </trkpt>
      <trkpt lat="45.83012" lon="4.71775">
        <ele>333.55942</ele>
        <time>2022-10-30T13:19:45.000Z</time>
      </trkpt>
      <trkpt lat="45.83008" lon="4.71773">
        <ele>333.77078</ele>
        <time>2022-10-30T13:19:46.000Z</time>
      </trkpt>
      <trkpt lat="45.83004" lon="4.7177">
        <ele>334.00089</ele>
        <time>2022-10-30T13:19:47.000Z</time>
      </trkpt>
      <trkpt lat="45.82999" lon="4.71768">
        <ele>334.22794</ele>
        <time>2022-10-30T13:19:48.000Z</time>
      </trkpt>
      <trkpt lat="45.82995" lon="4.71767">
        <ele>334.3725</ele>
        <time>2022-10-30T13:19:49.000Z</time>
      </trkpt>
      <trkpt lat="45.82991" lon="4.71765">
        <ele>334.51755</ele>
        <time>2022-10-30T13:19:50.000Z</time>
      </trkpt>
      <trkpt lat="45.82986" lon="4.71763">
        <ele>334.68698</ele>
        <time>2022-10-30T13:19:51.000Z</time>
      </trkpt>
      <trkpt lat="45.82982" lon="4.71763">
        <ele>334.84619</ele>
        <time>2022-10-30T13:19:52.000Z</time>
      </trkpt>
      <trkpt lat="45.82977" lon="4.71763">
        <ele>334.91714</ele>
        <time>2022-10-30T13:19:53.000Z</time>
      </trkpt>
      <trkpt lat="45.82973" lon="4.71764">
        <ele>334.92792</ele>
        <time>2022-10-30T13:19:54.000Z</time>
      </trkpt>
      <trkpt lat="45.82968" lon="4.71767">
        <ele>335.00616</ele>
        <time>2022-10-30T13:19:55.000Z</time>
      </trkpt>
      <trkpt lat="45.82964" lon="4.7177">
        <ele>335.09479</ele>
        <time>2022-10-30T13:19:56.000Z</time>
      </trkpt>
      <trkpt lat="45.82961" lon="4.71773">
        <ele>335.24506</ele>
        <time>2022-10-30T13:19:57.000Z</time>
      </trkpt>
      <trkpt lat="45.82957" lon="4.71777">
        <ele>335.38882</ele>
        <time>2022-10-30T13:19:58.000Z</time>
      </trkpt>
      <trkpt lat="45.82952" lon="4.71779">
        <ele>335.53439</ele>
        <time>2022-10-30T13:19:59.000Z</time>
      </trkpt>
      <trkpt lat="45.82948" lon="4.71781">
        <ele>335.72263</ele>
        <time>2022-10-30T13:20:00.000Z</time>
      </trkpt>
      <trkpt lat="45.82944" lon="4.71783">
        <ele>335.91275</ele>
        <time>2022-10-30T13:20:01.000Z</time>
      </trkpt>
      <trkpt lat="45.8294" lon="4.71783">
        <ele>336.12286</ele>
        <time>2022-10-30T13:20:02.000Z</time>
      </trkpt>
      <trkpt lat="45.82935" lon="4.71785">
        <ele>336.24133</ele>
        <time>2022-10-30T13:20:03.000Z</time>
      </trkpt>
      <trkpt lat="45.82932" lon="4.71785">
        <ele>336.30396</ele>
        <time>2022-10-30T13:20:04.000Z</time>
      </trkpt>
      <trkpt lat="45.82928" lon="4.71785">
        <ele>336.34393</ele>
        <time>2022-10-30T13:20:05.000Z</time>
      </trkpt>
      <trkpt lat="45.82924" lon="4.71784">
        <ele>336.41028</ele>
        <time>2022-10-30T13:20:06.000Z</time>
      </trkpt>
      <trkpt lat="45.8292" lon="4.71784">
        <ele>336.49692</ele>
        <time>2022-10-30T13:20:07.000Z</time>
      </trkpt>
      <trkpt lat="45.82917" lon="4.71784">
        <ele>336.6431</ele>
        <time>2022-10-30T13:20:08.000Z</time>
      </trkpt>
      <trkpt lat="45.82915" lon="4.71784">
        <ele>336.78793</ele>
        <time>2022-10-30T13:20:09.000Z</time>
      </trkpt>
      <trkpt lat="45.82912" lon="4.71784">
        <ele>336.99097</ele>
        <time>2022-10-30T13:20:10.000Z</time>
      </trkpt>
      <trkpt lat="45.82908" lon="4.71784">
        <ele>337.18561</ele>
        <time>2022-10-30T13:20:11.000Z</time>
      </trkpt>
      <trkpt lat="45.82905" lon="4.71784">
        <ele>337.34311</ele>
        <time>2022-10-30T13:20:12.000Z</time>
      </trkpt>
      <trkpt lat="45.82901" lon="4.71784">
        <ele>337.54764</ele>
        <time>2022-10-30T13:20:13.000Z</time>
      </trkpt>
      <trkpt lat="45.82897" lon="4.71784">
        <ele>337.77057</ele>
        <time>2022-10-30T13:20:14.000Z</time>
      </trkpt>
      <trkpt lat="45.82894" lon="4.71785">
        <ele>337.92905</ele>
        <time>2022-10-30T13:20:15.000Z</time>
      </trkpt>
      <trkpt lat="45.8289" lon="4.71785">
        <ele>338.02426</ele>
        <time>2022-10-30T13:20:16.000Z</time>
      </trkpt>
      <trkpt lat="45.82887" lon="4.71785">
        <ele>338.03409</ele>
        <time>2022-10-30T13:20:17.000Z</time>
      </trkpt>
      <trkpt lat="45.82883" lon="4.71786">
        <ele>338.11896</ele>
        <time>2022-10-30T13:20:18.000Z</time>
      </trkpt>
      <trkpt lat="45.8288" lon="4.71786">
        <ele>338.18915</ele>
        <time>2022-10-30T13:20:19.000Z</time>
      </trkpt>
      <trkpt lat="45.82876" lon="4.71787">
        <ele>338.24771</ele>
        <time>2022-10-30T13:20:20.000Z</time>
      </trkpt>
      <trkpt lat="45.82872" lon="4.71788">
        <ele>338.31555</ele>
        <time>2022-10-30T13:20:21.000Z</time>
      </trkpt>
      <trkpt lat="45.82867" lon="4.71788">
        <ele>338.38977</ele>
        <time>2022-10-30T13:20:22.000Z</time>
      </trkpt>
      <trkpt lat="45.82863" lon="4.71788">
        <ele>338.54309</ele>
        <time>2022-10-30T13:20:23.000Z</time>
      </trkpt>
      <trkpt lat="45.8286" lon="4.71789">
        <ele>338.70084</ele>
        <time>2022-10-30T13:20:24.000Z</time>
      </trkpt>
      <trkpt lat="45.82856" lon="4.71789">
        <ele>338.87411</ele>
        <time>2022-10-30T13:20:25.000Z</time>
      </trkpt>
      <trkpt lat="45.82852" lon="4.71789">
        <ele>339.08871</ele>
        <time>2022-10-30T13:20:26.000Z</time>
      </trkpt>
      <trkpt lat="45.82849" lon="4.7179">
        <ele>339.30972</ele>
        <time>2022-10-30T13:20:27.000Z</time>
      </trkpt>
      <trkpt lat="45.82846" lon="4.7179">
        <ele>339.51981</ele>
        <time>2022-10-30T13:20:28.000Z</time>
      </trkpt>
      <trkpt lat="45.82843" lon="4.71789">
        <ele>339.74112</ele>
        <time>2022-10-30T13:20:29.000Z</time>
      </trkpt>
      <trkpt lat="45.8284" lon="4.71789">
        <ele>339.90985</ele>
        <time>2022-10-30T13:20:30.000Z</time>
      </trkpt>
      <trkpt lat="45.82837" lon="4.71789">
        <ele>339.96997</ele>
        <time>2022-10-30T13:20:31.000Z</time>
      </trkpt>
      <trkpt lat="45.82834" lon="4.7179">
        <ele>340.02863</ele>
        <time>2022-10-30T13:20:32.000Z</time>
      </trkpt>
      <trkpt lat="45.82832" lon="4.71789">
        <ele>340.05649</ele>
        <time>2022-10-30T13:20:33.000Z</time>
      </trkpt>
      <trkpt lat="45.82829" lon="4.7179">
        <ele>340.18732</ele>
        <time>2022-10-30T13:20:35.000Z</time>
      </trkpt>
      <trkpt lat="45.82827" lon="4.7179">
        <ele>340.30029</ele>
        <time>2022-10-30T13:20:36.000Z</time>
      </trkpt>
      <trkpt lat="45.82825" lon="4.71791">
        <ele>340.39911</ele>
        <time>2022-10-30T13:20:37.000Z</time>
      </trkpt>
      <trkpt lat="45.82824" lon="4.71794">
        <ele>340.38129</ele>
        <time>2022-10-30T13:20:38.000Z</time>
      </trkpt>
      <trkpt lat="45.82824" lon="4.71798">
        <ele>340.31387</ele>
        <time>2022-10-30T13:20:39.000Z</time>
      </trkpt>
      <trkpt lat="45.82824" lon="4.71803">
        <ele>340.22964</ele>
        <time>2022-10-30T13:20:40.000Z</time>
      </trkpt>
      <trkpt lat="45.82823" lon="4.71807">
        <ele>340.06903</ele>
        <time>2022-10-30T13:20:41.000Z</time>
      </trkpt>
      <trkpt lat="45.82822" lon="4.71811">
        <ele>339.90756</ele>
        <time>2022-10-30T13:20:42.000Z</time>
      </trkpt>
      <trkpt lat="45.82821" lon="4.71816">
        <ele>339.68771</ele>
        <time>2022-10-30T13:20:43.000Z</time>
      </trkpt>
      <trkpt lat="45.8282" lon="4.7182">
        <ele>339.36163</ele>
        <time>2022-10-30T13:20:44.000Z</time>
      </trkpt>
      <trkpt lat="45.82819" lon="4.71825">
        <ele>339.1037</ele>
        <time>2022-10-30T13:20:45.000Z</time>
      </trkpt>
      <trkpt lat="45.82818" lon="4.71829">
        <ele>338.87363</ele>
        <time>2022-10-30T13:20:46.000Z</time>
      </trkpt>
      <trkpt lat="45.82817" lon="4.71834">
        <ele>338.65912</ele>
        <time>2022-10-30T13:20:47.000Z</time>
      </trkpt>
      <trkpt lat="45.82816" lon="4.7184">
        <ele>338.46747</ele>
        <time>2022-10-30T13:20:48.000Z</time>
      </trkpt>
      <trkpt lat="45.82815" lon="4.71845">
        <ele>338.23187</ele>
        <time>2022-10-30T13:20:49.000Z</time>
      </trkpt>
      <trkpt lat="45.82814" lon="4.7185">
        <ele>338.00317</ele>
        <time>2022-10-30T13:20:50.000Z</time>
      </trkpt>
      <trkpt lat="45.82814" lon="4.71856">
        <ele>337.7525</ele>
        <time>2022-10-30T13:20:51.000Z</time>
      </trkpt>
      <trkpt lat="45.82814" lon="4.71861">
        <ele>337.56235</ele>
        <time>2022-10-30T13:20:52.000Z</time>
      </trkpt>
      <trkpt lat="45.82813" lon="4.71867">
        <ele>337.45673</ele>
        <time>2022-10-30T13:20:53.000Z</time>
      </trkpt>
      <trkpt lat="45.82813" lon="4.71873">
        <ele>337.39746</ele>
        <time>2022-10-30T13:20:54.000Z</time>
      </trkpt>
      <trkpt lat="45.82812" lon="4.71878">
        <ele>337.2049</ele>
        <time>2022-10-30T13:20:55.000Z</time>
      </trkpt>
      <trkpt lat="45.82812" lon="4.71884">
        <ele>337.03351</ele>
        <time>2022-10-30T13:20:56.000Z</time>
      </trkpt>
      <trkpt lat="45.82811" lon="4.7189">
        <ele>336.86313</ele>
        <time>2022-10-30T13:20:57.000Z</time>
      </trkpt>
      <trkpt lat="45.82809" lon="4.71896">
        <ele>336.88312</ele>
        <time>2022-10-30T13:20:58.000Z</time>
      </trkpt>
      <trkpt lat="45.82809" lon="4.71902">
        <ele>336.90277</ele>
        <time>2022-10-30T13:20:59.000Z</time>
      </trkpt>
      <trkpt lat="45.82808" lon="4.71907">
        <ele>336.95349</ele>
        <time>2022-10-30T13:21:00.000Z</time>
      </trkpt>
      <trkpt lat="45.82808" lon="4.71913">
        <ele>337.0513</ele>
        <time>2022-10-30T13:21:01.000Z</time>
      </trkpt>
      <trkpt lat="45.82807" lon="4.71919">
        <ele>337.15845</ele>
        <time>2022-10-30T13:21:02.000Z</time>
      </trkpt>
      <trkpt lat="45.82806" lon="4.71925">
        <ele>337.32281</ele>
        <time>2022-10-30T13:21:03.000Z</time>
      </trkpt>
      <trkpt lat="45.82806" lon="4.71931">
        <ele>337.60565</ele>
        <time>2022-10-30T13:21:04.000Z</time>
      </trkpt>
      <trkpt lat="45.82805" lon="4.71937">
        <ele>337.87515</ele>
        <time>2022-10-30T13:21:05.000Z</time>
      </trkpt>
      <trkpt lat="45.82804" lon="4.71943">
        <ele>338.05856</ele>
        <time>2022-10-30T13:21:06.000Z</time>
      </trkpt>
      <trkpt lat="45.82804" lon="4.71949">
        <ele>338.20474</ele>
        <time>2022-10-30T13:21:07.000Z</time>
      </trkpt>
      <trkpt lat="45.82803" lon="4.71955">
        <ele>338.29758</ele>
        <time>2022-10-30T13:21:08.000Z</time>
      </trkpt>
      <trkpt lat="45.82803" lon="4.71961">
        <ele>338.37076</ele>
        <time>2022-10-30T13:21:09.000Z</time>
      </trkpt>
      <trkpt lat="45.82802" lon="4.71966">
        <ele>338.43115</ele>
        <time>2022-10-30T13:21:10.000Z</time>
      </trkpt>
      <trkpt lat="45.82802" lon="4.71972">
        <ele>338.49762</ele>
        <time>2022-10-30T13:21:11.000Z</time>
      </trkpt>
      <trkpt lat="45.82801" lon="4.71978">
        <ele>338.58392</ele>
        <time>2022-10-30T13:21:12.000Z</time>
      </trkpt>
      <trkpt lat="45.828" lon="4.71983">
        <ele>338.5744</ele>
        <time>2022-10-30T13:21:13.000Z</time>
      </trkpt>
      <trkpt lat="45.828" lon="4.71989">
        <ele>338.5466</ele>
        <time>2022-10-30T13:21:14.000Z</time>
      </trkpt>
      <trkpt lat="45.82799" lon="4.71995">
        <ele>338.56628</ele>
        <time>2022-10-30T13:21:15.000Z</time>
      </trkpt>
      <trkpt lat="45.82799" lon="4.72001">
        <ele>338.57446</ele>
        <time>2022-10-30T13:21:16.000Z</time>
      </trkpt>
      <trkpt lat="45.82798" lon="4.72006">
        <ele>338.54276</ele>
        <time>2022-10-30T13:21:17.000Z</time>
      </trkpt>
      <trkpt lat="45.82798" lon="4.72012">
        <ele>338.44855</ele>
        <time>2022-10-30T13:21:18.000Z</time>
      </trkpt>
      <trkpt lat="45.82797" lon="4.72017">
        <ele>338.36542</ele>
        <time>2022-10-30T13:21:19.000Z</time>
      </trkpt>
      <trkpt lat="45.82795" lon="4.72023">
        <ele>338.30023</ele>
        <time>2022-10-30T13:21:20.000Z</time>
      </trkpt>
      <trkpt lat="45.82794" lon="4.72028">
        <ele>338.30331</ele>
        <time>2022-10-30T13:21:21.000Z</time>
      </trkpt>
      <trkpt lat="45.82792" lon="4.72033">
        <ele>338.28668</ele>
        <time>2022-10-30T13:21:22.000Z</time>
      </trkpt>
      <trkpt lat="45.8279" lon="4.72038">
        <ele>338.26715</ele>
        <time>2022-10-30T13:21:23.000Z</time>
      </trkpt>
      <trkpt lat="45.82789" lon="4.72044">
        <ele>338.33374</ele>
        <time>2022-10-30T13:21:24.000Z</time>
      </trkpt>
      <trkpt lat="45.82788" lon="4.72049">
        <ele>338.44223</ele>
        <time>2022-10-30T13:21:25.000Z</time>
      </trkpt>
      <trkpt lat="45.82787" lon="4.72055">
        <ele>338.63452</ele>
        <time>2022-10-30T13:21:26.000Z</time>
      </trkpt>
      <trkpt lat="45.82785" lon="4.7206">
        <ele>338.83722</ele>
        <time>2022-10-30T13:21:27.000Z</time>
      </trkpt>
      <trkpt lat="45.82783" lon="4.72065">
        <ele>339.04391</ele>
        <time>2022-10-30T13:21:28.000Z</time>
      </trkpt>
      <trkpt lat="45.82782" lon="4.7207">
        <ele>339.25629</ele>
        <time>2022-10-30T13:21:29.000Z</time>
      </trkpt>
      <trkpt lat="45.8278" lon="4.72076">
        <ele>339.41916</ele>
        <time>2022-10-30T13:21:30.000Z</time>
      </trkpt>
      <trkpt lat="45.82779" lon="4.72081">
        <ele>339.57886</ele>
        <time>2022-10-30T13:21:31.000Z</time>
      </trkpt>
      <trkpt lat="45.82777" lon="4.72086">
        <ele>339.78839</ele>
        <time>2022-10-30T13:21:32.000Z</time>
      </trkpt>
      <trkpt lat="45.82776" lon="4.72091">
        <ele>340.06311</ele>
        <time>2022-10-30T13:21:33.000Z</time>
      </trkpt>
      <trkpt lat="45.82775" lon="4.72096">
        <ele>340.33759</ele>
        <time>2022-10-30T13:21:34.000Z</time>
      </trkpt>
      <trkpt lat="45.82774" lon="4.72102">
        <ele>340.63947</ele>
        <time>2022-10-30T13:21:35.000Z</time>
      </trkpt>
      <trkpt lat="45.82773" lon="4.72108">
        <ele>340.95218</ele>
        <time>2022-10-30T13:21:36.000Z</time>
      </trkpt>
      <trkpt lat="45.82771" lon="4.72113">
        <ele>341.33505</ele>
        <time>2022-10-30T13:21:37.000Z</time>
      </trkpt>
      <trkpt lat="45.8277" lon="4.72118">
        <ele>341.71429</ele>
        <time>2022-10-30T13:21:38.000Z</time>
      </trkpt>
      <trkpt lat="45.82768" lon="4.72123">
        <ele>342.12299</ele>
        <time>2022-10-30T13:21:39.000Z</time>
      </trkpt>
      <trkpt lat="45.82766" lon="4.72129">
        <ele>342.50912</ele>
        <time>2022-10-30T13:21:40.000Z</time>
      </trkpt>
      <trkpt lat="45.82765" lon="4.72134">
        <ele>342.86615</ele>
        <time>2022-10-30T13:21:41.000Z</time>
      </trkpt>
      <trkpt lat="45.82763" lon="4.72139">
        <ele>343.23981</ele>
        <time>2022-10-30T13:21:42.000Z</time>
      </trkpt>
      <trkpt lat="45.82762" lon="4.72144">
        <ele>343.64383</ele>
        <time>2022-10-30T13:21:43.000Z</time>
      </trkpt>
      <trkpt lat="45.8276" lon="4.72149">
        <ele>343.96539</ele>
        <time>2022-10-30T13:21:44.000Z</time>
      </trkpt>
      <trkpt lat="45.82758" lon="4.72155">
        <ele>344.27316</ele>
        <time>2022-10-30T13:21:45.000Z</time>
      </trkpt>
      <trkpt lat="45.82756" lon="4.7216">
        <ele>344.57709</ele>
        <time>2022-10-30T13:21:46.000Z</time>
      </trkpt>
      <trkpt lat="45.82754" lon="4.72165">
        <ele>344.86441</ele>
        <time>2022-10-30T13:21:47.000Z</time>
      </trkpt>
      <trkpt lat="45.82753" lon="4.7217">
        <ele>345.22461</ele>
        <time>2022-10-30T13:21:48.000Z</time>
      </trkpt>
      <trkpt lat="45.82751" lon="4.72176">
        <ele>345.56671</ele>
        <time>2022-10-30T13:21:49.000Z</time>
      </trkpt>
      <trkpt lat="45.8275" lon="4.72181">
        <ele>345.95807</ele>
        <time>2022-10-30T13:21:50.000Z</time>
      </trkpt>
      <trkpt lat="45.82748" lon="4.72186">
        <ele>346.36755</ele>
        <time>2022-10-30T13:21:51.000Z</time>
      </trkpt>
      <trkpt lat="45.82747" lon="4.72191">
        <ele>346.75311</ele>
        <time>2022-10-30T13:21:52.000Z</time>
      </trkpt>
      <trkpt lat="45.82745" lon="4.72197">
        <ele>347.15469</ele>
        <time>2022-10-30T13:21:53.000Z</time>
      </trkpt>
      <trkpt lat="45.82744" lon="4.72202">
        <ele>347.5708</ele>
        <time>2022-10-30T13:21:54.000Z</time>
      </trkpt>
      <trkpt lat="45.82743" lon="4.72207">
        <ele>347.95697</ele>
        <time>2022-10-30T13:21:55.000Z</time>
      </trkpt>
      <trkpt lat="45.82741" lon="4.72213">
        <ele>348.34406</ele>
        <time>2022-10-30T13:21:56.000Z</time>
      </trkpt>
      <trkpt lat="45.8274" lon="4.72219">
        <ele>348.71033</ele>
        <time>2022-10-30T13:21:57.000Z</time>
      </trkpt>
      <trkpt lat="45.82739" lon="4.72224">
        <ele>349.10959</ele>
        <time>2022-10-30T13:21:58.000Z</time>
      </trkpt>
      <trkpt lat="45.82737" lon="4.7223">
        <ele>349.52502</ele>
        <time>2022-10-30T13:21:59.000Z</time>
      </trkpt>
      <trkpt lat="45.82735" lon="4.72235">
        <ele>349.9606</ele>
        <time>2022-10-30T13:22:00.000Z</time>
      </trkpt>
      <trkpt lat="45.82733" lon="4.7224">
        <ele>350.39136</ele>
        <time>2022-10-30T13:22:01.000Z</time>
      </trkpt>
      <trkpt lat="45.82732" lon="4.72246">
        <ele>350.87277</ele>
        <time>2022-10-30T13:22:02.000Z</time>
      </trkpt>
      <trkpt lat="45.8273" lon="4.72251">
        <ele>351.30331</ele>
        <time>2022-10-30T13:22:03.000Z</time>
      </trkpt>
      <trkpt lat="45.82729" lon="4.72256">
        <ele>351.7059</ele>
        <time>2022-10-30T13:22:04.000Z</time>
      </trkpt>
      <trkpt lat="45.82727" lon="4.72262">
        <ele>352.10052</ele>
        <time>2022-10-30T13:22:05.000Z</time>
      </trkpt>
      <trkpt lat="45.82726" lon="4.72268">
        <ele>352.47781</ele>
        <time>2022-10-30T13:22:06.000Z</time>
      </trkpt>
      <trkpt lat="45.82725" lon="4.72274">
        <ele>352.83105</ele>
        <time>2022-10-30T13:22:07.000Z</time>
      </trkpt>
      <trkpt lat="45.82724" lon="4.7228">
        <ele>353.0849</ele>
        <time>2022-10-30T13:22:08.000Z</time>
      </trkpt>
      <trkpt lat="45.82723" lon="4.72285">
        <ele>353.35901</ele>
        <time>2022-10-30T13:22:09.000Z</time>
      </trkpt>
      <trkpt lat="45.82721" lon="4.7229">
        <ele>353.64139</ele>
        <time>2022-10-30T13:22:10.000Z</time>
      </trkpt>
      <trkpt lat="45.82719" lon="4.72295">
        <ele>353.91147</ele>
        <time>2022-10-30T13:22:11.000Z</time>
      </trkpt>
      <trkpt lat="45.82718" lon="4.72301">
        <ele>354.19125</ele>
        <time>2022-10-30T13:22:12.000Z</time>
      </trkpt>
      <trkpt lat="45.82717" lon="4.72306">
        <ele>354.43781</ele>
        <time>2022-10-30T13:22:13.000Z</time>
      </trkpt>
      <trkpt lat="45.82716" lon="4.72315">
        <ele>354.7276</ele>
        <time>2022-10-30T13:22:14.000Z</time>
      </trkpt>
      <trkpt lat="45.82714" lon="4.72321">
        <ele>355.05249</ele>
        <time>2022-10-30T13:22:15.000Z</time>
      </trkpt>
      <trkpt lat="45.82713" lon="4.72326">
        <ele>355.39374</ele>
        <time>2022-10-30T13:22:16.000Z</time>
      </trkpt>
      <trkpt lat="45.8271" lon="4.72333">
        <ele>355.84613</ele>
        <time>2022-10-30T13:22:17.000Z</time>
      </trkpt>
      <trkpt lat="45.82709" lon="4.72339">
        <ele>356.24127</ele>
        <time>2022-10-30T13:22:18.000Z</time>
      </trkpt>
      <trkpt lat="45.82706" lon="4.72346">
        <ele>356.59985</ele>
        <time>2022-10-30T13:22:19.000Z</time>
      </trkpt>
      <trkpt lat="45.82703" lon="4.72351">
        <ele>356.90747</ele>
        <time>2022-10-30T13:22:20.000Z</time>
      </trkpt>
      <trkpt lat="45.82702" lon="4.72357">
        <ele>357.26508</ele>
        <time>2022-10-30T13:22:21.000Z</time>
      </trkpt>
      <trkpt lat="45.82699" lon="4.72362">
        <ele>357.53555</ele>
        <time>2022-10-30T13:22:22.000Z</time>
      </trkpt>
      <trkpt lat="45.82696" lon="4.72366">
        <ele>357.85056</ele>
        <time>2022-10-30T13:22:23.000Z</time>
      </trkpt>
      <trkpt lat="45.82693" lon="4.72371">
        <ele>358.11917</ele>
        <time>2022-10-30T13:22:24.000Z</time>
      </trkpt>
      <trkpt lat="45.82691" lon="4.72375">
        <ele>358.38409</ele>
        <time>2022-10-30T13:22:25.000Z</time>
      </trkpt>
      <trkpt lat="45.82689" lon="4.7238">
        <ele>358.68695</ele>
        <time>2022-10-30T13:22:26.000Z</time>
      </trkpt>
      <trkpt lat="45.82686" lon="4.72385">
        <ele>359.00601</ele>
        <time>2022-10-30T13:22:27.000Z</time>
      </trkpt>
      <trkpt lat="45.82685" lon="4.72391">
        <ele>359.32739</ele>
        <time>2022-10-30T13:22:28.000Z</time>
      </trkpt>
      <trkpt lat="45.82684" lon="4.72396">
        <ele>359.64862</ele>
        <time>2022-10-30T13:22:29.000Z</time>
      </trkpt>
      <trkpt lat="45.82682" lon="4.72402">
        <ele>360.02036</ele>
        <time>2022-10-30T13:22:30.000Z</time>
      </trkpt>
      <trkpt lat="45.82681" lon="4.72408">
        <ele>360.3757</ele>
        <time>2022-10-30T13:22:31.000Z</time>
      </trkpt>
      <trkpt lat="45.82679" lon="4.72413">
        <ele>360.75171</ele>
        <time>2022-10-30T13:22:32.000Z</time>
      </trkpt>
      <trkpt lat="45.82676" lon="4.72419">
        <ele>361.09186</ele>
        <time>2022-10-30T13:22:33.000Z</time>
      </trkpt>
      <trkpt lat="45.82673" lon="4.72425">
        <ele>361.3187</ele>
        <time>2022-10-30T13:22:34.000Z</time>
      </trkpt>
      <trkpt lat="45.82672" lon="4.72431">
        <ele>361.5769</ele>
        <time>2022-10-30T13:22:35.000Z</time>
      </trkpt>
      <trkpt lat="45.8267" lon="4.72436">
        <ele>361.79474</ele>
        <time>2022-10-30T13:22:36.000Z</time>
      </trkpt>
      <trkpt lat="45.82668" lon="4.72441">
        <ele>361.87274</ele>
        <time>2022-10-30T13:22:37.000Z</time>
      </trkpt>
      <trkpt lat="45.82666" lon="4.72446">
        <ele>361.98685</ele>
        <time>2022-10-30T13:22:38.000Z</time>
      </trkpt>
      <trkpt lat="45.82664" lon="4.72452">
        <ele>362.1123</ele>
        <time>2022-10-30T13:22:39.000Z</time>
      </trkpt>
      <trkpt lat="45.82662" lon="4.72458">
        <ele>362.26535</ele>
        <time>2022-10-30T13:22:40.000Z</time>
      </trkpt>
      <trkpt lat="45.8266" lon="4.72463">
        <ele>362.38651</ele>
        <time>2022-10-30T13:22:41.000Z</time>
      </trkpt>
      <trkpt lat="45.82658" lon="4.72468">
        <ele>362.56647</ele>
        <time>2022-10-30T13:22:42.000Z</time>
      </trkpt>
      <trkpt lat="45.82655" lon="4.72474">
        <ele>362.77917</ele>
        <time>2022-10-30T13:22:43.000Z</time>
      </trkpt>
      <trkpt lat="45.82653" lon="4.72479">
        <ele>363.07391</ele>
        <time>2022-10-30T13:22:44.000Z</time>
      </trkpt>
      <trkpt lat="45.82651" lon="4.72485">
        <ele>363.32574</ele>
        <time>2022-10-30T13:22:45.000Z</time>
      </trkpt>
      <trkpt lat="45.82648" lon="4.72491">
        <ele>363.50693</ele>
        <time>2022-10-30T13:22:46.000Z</time>
      </trkpt>
      <trkpt lat="45.82646" lon="4.72496">
        <ele>363.68915</ele>
        <time>2022-10-30T13:22:47.000Z</time>
      </trkpt>
      <trkpt lat="45.82644" lon="4.72502">
        <ele>363.92609</ele>
        <time>2022-10-30T13:22:48.000Z</time>
      </trkpt>
      <trkpt lat="45.82641" lon="4.72508">
        <ele>364.15543</ele>
        <time>2022-10-30T13:22:49.000Z</time>
      </trkpt>
      <trkpt lat="45.82639" lon="4.72513">
        <ele>364.35086</ele>
        <time>2022-10-30T13:22:50.000Z</time>
      </trkpt>
      <trkpt lat="45.82636" lon="4.72519">
        <ele>364.56964</ele>
        <time>2022-10-30T13:22:51.000Z</time>
      </trkpt>
      <trkpt lat="45.82634" lon="4.72525">
        <ele>364.78082</ele>
        <time>2022-10-30T13:22:52.000Z</time>
      </trkpt>
      <trkpt lat="45.82631" lon="4.72531">
        <ele>365.01569</ele>
        <time>2022-10-30T13:22:53.000Z</time>
      </trkpt>
      <trkpt lat="45.82628" lon="4.72536">
        <ele>365.30624</ele>
        <time>2022-10-30T13:22:54.000Z</time>
      </trkpt>
      <trkpt lat="45.82625" lon="4.72542">
        <ele>365.49356</ele>
        <time>2022-10-30T13:22:55.000Z</time>
      </trkpt>
      <trkpt lat="45.82623" lon="4.72548">
        <ele>365.71884</ele>
        <time>2022-10-30T13:22:56.000Z</time>
      </trkpt>
      <trkpt lat="45.8262" lon="4.72553">
        <ele>365.95239</ele>
        <time>2022-10-30T13:22:57.000Z</time>
      </trkpt>
      <trkpt lat="45.82618" lon="4.72558">
        <ele>366.16275</ele>
        <time>2022-10-30T13:22:58.000Z</time>
      </trkpt>
      <trkpt lat="45.82615" lon="4.72564">
        <ele>366.41437</ele>
        <time>2022-10-30T13:22:59.000Z</time>
      </trkpt>
      <trkpt lat="45.82613" lon="4.7257">
        <ele>366.72321</ele>
        <time>2022-10-30T13:23:00.000Z</time>
      </trkpt>
      <trkpt lat="45.82611" lon="4.72575">
        <ele>367.00311</ele>
        <time>2022-10-30T13:23:01.000Z</time>
      </trkpt>
      <trkpt lat="45.82609" lon="4.72581">
        <ele>367.31256</ele>
        <time>2022-10-30T13:23:02.000Z</time>
      </trkpt>
      <trkpt lat="45.82607" lon="4.72586">
        <ele>367.57578</ele>
        <time>2022-10-30T13:23:03.000Z</time>
      </trkpt>
      <trkpt lat="45.82605" lon="4.72592">
        <ele>367.91882</ele>
        <time>2022-10-30T13:23:04.000Z</time>
      </trkpt>
      <trkpt lat="45.82603" lon="4.72597">
        <ele>368.28647</ele>
        <time>2022-10-30T13:23:05.000Z</time>
      </trkpt>
      <trkpt lat="45.82601" lon="4.72603">
        <ele>368.68625</ele>
        <time>2022-10-30T13:23:06.000Z</time>
      </trkpt>
      <trkpt lat="45.82599" lon="4.72608">
        <ele>369.08084</ele>
        <time>2022-10-30T13:23:07.000Z</time>
      </trkpt>
      <trkpt lat="45.82598" lon="4.72614">
        <ele>369.45758</ele>
        <time>2022-10-30T13:23:08.000Z</time>
      </trkpt>
      <trkpt lat="45.82596" lon="4.72619">
        <ele>369.8515</ele>
        <time>2022-10-30T13:23:09.000Z</time>
      </trkpt>
      <trkpt lat="45.82594" lon="4.72625">
        <ele>370.21729</ele>
        <time>2022-10-30T13:23:10.000Z</time>
      </trkpt>
      <trkpt lat="45.82592" lon="4.72631">
        <ele>370.59912</ele>
        <time>2022-10-30T13:23:11.000Z</time>
      </trkpt>
      <trkpt lat="45.8259" lon="4.72636">
        <ele>370.96387</ele>
        <time>2022-10-30T13:23:12.000Z</time>
      </trkpt>
      <trkpt lat="45.82588" lon="4.72642">
        <ele>371.32486</ele>
        <time>2022-10-30T13:23:13.000Z</time>
      </trkpt>
      <trkpt lat="45.82586" lon="4.72647">
        <ele>371.66605</ele>
        <time>2022-10-30T13:23:14.000Z</time>
      </trkpt>
      <trkpt lat="45.82584" lon="4.72652">
        <ele>372.06882</ele>
        <time>2022-10-30T13:23:15.000Z</time>
      </trkpt>
      <trkpt lat="45.82582" lon="4.72657">
        <ele>372.49918</ele>
        <time>2022-10-30T13:23:16.000Z</time>
      </trkpt>
      <trkpt lat="45.82581" lon="4.72663">
        <ele>372.97058</ele>
        <time>2022-10-30T13:23:17.000Z</time>
      </trkpt>
      <trkpt lat="45.82578" lon="4.72668">
        <ele>373.48294</ele>
        <time>2022-10-30T13:23:18.000Z</time>
      </trkpt>
      <trkpt lat="45.82576" lon="4.72674">
        <ele>373.9397</ele>
        <time>2022-10-30T13:23:19.000Z</time>
      </trkpt>
      <trkpt lat="45.82574" lon="4.72679">
        <ele>374.34567</ele>
        <time>2022-10-30T13:23:20.000Z</time>
      </trkpt>
      <trkpt lat="45.82572" lon="4.72684">
        <ele>374.76147</ele>
        <time>2022-10-30T13:23:21.000Z</time>
      </trkpt>
      <trkpt lat="45.8257" lon="4.72689">
        <ele>375.10635</ele>
        <time>2022-10-30T13:23:22.000Z</time>
      </trkpt>
      <trkpt lat="45.82568" lon="4.72694">
        <ele>375.42056</ele>
        <time>2022-10-30T13:23:23.000Z</time>
      </trkpt>
      <trkpt lat="45.82566" lon="4.727">
        <ele>375.62857</ele>
        <time>2022-10-30T13:23:24.000Z</time>
      </trkpt>
      <trkpt lat="45.82565" lon="4.72705">
        <ele>375.85052</ele>
        <time>2022-10-30T13:23:25.000Z</time>
      </trkpt>
      <trkpt lat="45.82564" lon="4.72711">
        <ele>376.10352</ele>
        <time>2022-10-30T13:23:26.000Z</time>
      </trkpt>
      <trkpt lat="45.82563" lon="4.72716">
        <ele>376.34787</ele>
        <time>2022-10-30T13:23:27.000Z</time>
      </trkpt>
      <trkpt lat="45.82563" lon="4.72722">
        <ele>376.62479</ele>
        <time>2022-10-30T13:23:28.000Z</time>
      </trkpt>
      <trkpt lat="45.82562" lon="4.72729">
        <ele>376.91132</ele>
        <time>2022-10-30T13:23:29.000Z</time>
      </trkpt>
      <trkpt lat="45.82562" lon="4.72734">
        <ele>377.22708</ele>
        <time>2022-10-30T13:23:30.000Z</time>
      </trkpt>
      <trkpt lat="45.82562" lon="4.7274">
        <ele>377.52985</ele>
        <time>2022-10-30T13:23:31.000Z</time>
      </trkpt>
      <trkpt lat="45.82562" lon="4.72745">
        <ele>377.83975</ele>
        <time>2022-10-30T13:23:32.000Z</time>
      </trkpt>
      <trkpt lat="45.82561" lon="4.72751">
        <ele>378.16199</ele>
        <time>2022-10-30T13:23:33.000Z</time>
      </trkpt>
      <trkpt lat="45.82561" lon="4.72756">
        <ele>378.5119</ele>
        <time>2022-10-30T13:23:34.000Z</time>
      </trkpt>
      <trkpt lat="45.8256" lon="4.72761">
        <ele>378.80963</ele>
        <time>2022-10-30T13:23:35.000Z</time>
      </trkpt>
      <trkpt lat="45.8256" lon="4.72767">
        <ele>379.09171</ele>
        <time>2022-10-30T13:23:36.000Z</time>
      </trkpt>
      <trkpt lat="45.82559" lon="4.72771">
        <ele>379.41879</ele>
        <time>2022-10-30T13:23:37.000Z</time>
      </trkpt>
      <trkpt lat="45.82558" lon="4.72776">
        <ele>379.78635</ele>
        <time>2022-10-30T13:23:38.000Z</time>
      </trkpt>
      <trkpt lat="45.82557" lon="4.72781">
        <ele>380.14276</ele>
        <time>2022-10-30T13:23:39.000Z</time>
      </trkpt>
      <trkpt lat="45.82556" lon="4.72787">
        <ele>380.51788</ele>
        <time>2022-10-30T13:23:40.000Z</time>
      </trkpt>
      <trkpt lat="45.82555" lon="4.72793">
        <ele>380.86508</ele>
        <time>2022-10-30T13:23:41.000Z</time>
      </trkpt>
      <trkpt lat="45.82554" lon="4.72799">
        <ele>381.23001</ele>
        <time>2022-10-30T13:23:42.000Z</time>
      </trkpt>
      <trkpt lat="45.82553" lon="4.72806">
        <ele>381.65762</ele>
        <time>2022-10-30T13:23:43.000Z</time>
      </trkpt>
      <trkpt lat="45.82553" lon="4.72813">
        <ele>382.05914</ele>
        <time>2022-10-30T13:23:44.000Z</time>
      </trkpt>
      <trkpt lat="45.82553" lon="4.7282">
        <ele>382.49542</ele>
        <time>2022-10-30T13:23:45.000Z</time>
      </trkpt>
      <trkpt lat="45.82553" lon="4.72827">
        <ele>382.88263</ele>
        <time>2022-10-30T13:23:46.000Z</time>
      </trkpt>
      <trkpt lat="45.82552" lon="4.72834">
        <ele>383.30875</ele>
        <time>2022-10-30T13:23:47.000Z</time>
      </trkpt>
      <trkpt lat="45.82552" lon="4.72841">
        <ele>383.70322</ele>
        <time>2022-10-30T13:23:48.000Z</time>
      </trkpt>
      <trkpt lat="45.82553" lon="4.72849">
        <ele>384.07196</ele>
        <time>2022-10-30T13:23:49.000Z</time>
      </trkpt>
      <trkpt lat="45.82553" lon="4.72856">
        <ele>384.41849</ele>
        <time>2022-10-30T13:23:50.000Z</time>
      </trkpt>
      <trkpt lat="45.82553" lon="4.72863">
        <ele>384.78531</ele>
        <time>2022-10-30T13:23:51.000Z</time>
      </trkpt>
      <trkpt lat="45.82553" lon="4.72871">
        <ele>385.14276</ele>
        <time>2022-10-30T13:23:52.000Z</time>
      </trkpt>
      <trkpt lat="45.82553" lon="4.72878">
        <ele>385.46597</ele>
        <time>2022-10-30T13:23:53.000Z</time>
      </trkpt>
      <trkpt lat="45.82554" lon="4.72886">
        <ele>385.79279</ele>
        <time>2022-10-30T13:23:54.000Z</time>
      </trkpt>
      <trkpt lat="45.82555" lon="4.72894">
        <ele>386.10901</ele>
        <time>2022-10-30T13:23:55.000Z</time>
      </trkpt>
      <trkpt lat="45.82556" lon="4.72902">
        <ele>386.47101</ele>
        <time>2022-10-30T13:23:56.000Z</time>
      </trkpt>
      <trkpt lat="45.82557" lon="4.72909">
        <ele>386.76901</ele>
        <time>2022-10-30T13:23:57.000Z</time>
      </trkpt>
      <trkpt lat="45.82558" lon="4.72917">
        <ele>386.99734</ele>
        <time>2022-10-30T13:23:58.000Z</time>
      </trkpt>
      <trkpt lat="45.82559" lon="4.72925">
        <ele>387.24448</ele>
        <time>2022-10-30T13:23:59.000Z</time>
      </trkpt>
      <trkpt lat="45.8256" lon="4.72932">
        <ele>387.49319</ele>
        <time>2022-10-30T13:24:00.000Z</time>
      </trkpt>
      <trkpt lat="45.82562" lon="4.7294">
        <ele>387.74133</ele>
        <time>2022-10-30T13:24:01.000Z</time>
      </trkpt>
      <trkpt lat="45.82564" lon="4.72948">
        <ele>387.97937</ele>
        <time>2022-10-30T13:24:02.000Z</time>
      </trkpt>
      <trkpt lat="45.82566" lon="4.72955">
        <ele>388.18927</ele>
        <time>2022-10-30T13:24:03.000Z</time>
      </trkpt>
      <trkpt lat="45.82568" lon="4.72963">
        <ele>388.42361</ele>
        <time>2022-10-30T13:24:04.000Z</time>
      </trkpt>
      <trkpt lat="45.8257" lon="4.7297">
        <ele>388.60614</ele>
        <time>2022-10-30T13:24:05.000Z</time>
      </trkpt>
      <trkpt lat="45.82573" lon="4.72977">
        <ele>388.80829</ele>
        <time>2022-10-30T13:24:06.000Z</time>
      </trkpt>
      <trkpt lat="45.82575" lon="4.72984">
        <ele>388.96228</ele>
        <time>2022-10-30T13:24:07.000Z</time>
      </trkpt>
      <trkpt lat="45.82578" lon="4.72992">
        <ele>389.10956</ele>
        <time>2022-10-30T13:24:08.000Z</time>
      </trkpt>
      <trkpt lat="45.82581" lon="4.72999">
        <ele>389.341</ele>
        <time>2022-10-30T13:24:09.000Z</time>
      </trkpt>
      <trkpt lat="45.82584" lon="4.73006">
        <ele>389.57797</ele>
        <time>2022-10-30T13:24:10.000Z</time>
      </trkpt>
      <trkpt lat="45.82586" lon="4.73014">
        <ele>389.76334</ele>
        <time>2022-10-30T13:24:11.000Z</time>
      </trkpt>
      <trkpt lat="45.82589" lon="4.73022">
        <ele>389.97766</ele>
        <time>2022-10-30T13:24:12.000Z</time>
      </trkpt>
      <trkpt lat="45.82592" lon="4.73029">
        <ele>390.19421</ele>
        <time>2022-10-30T13:24:13.000Z</time>
      </trkpt>
      <trkpt lat="45.82595" lon="4.73036">
        <ele>390.40085</ele>
        <time>2022-10-30T13:24:14.000Z</time>
      </trkpt>
      <trkpt lat="45.82599" lon="4.73044">
        <ele>390.63242</ele>
        <time>2022-10-30T13:24:15.000Z</time>
      </trkpt>
      <trkpt lat="45.826" lon="4.73053">
        <ele>390.75415</ele>
        <time>2022-10-30T13:24:16.000Z</time>
      </trkpt>
      <trkpt lat="45.82602" lon="4.73061">
        <ele>390.83832</ele>
        <time>2022-10-30T13:24:17.000Z</time>
      </trkpt>
      <trkpt lat="45.82605" lon="4.73068">
        <ele>390.92587</ele>
        <time>2022-10-30T13:24:18.000Z</time>
      </trkpt>
      <trkpt lat="45.82608" lon="4.73076">
        <ele>390.99554</ele>
        <time>2022-10-30T13:24:19.000Z</time>
      </trkpt>
      <trkpt lat="45.8261" lon="4.73083">
        <ele>391.01166</ele>
        <time>2022-10-30T13:24:20.000Z</time>
      </trkpt>
      <trkpt lat="45.82613" lon="4.73089">
        <ele>391.03452</ele>
        <time>2022-10-30T13:24:21.000Z</time>
      </trkpt>
      <trkpt lat="45.82616" lon="4.73097">
        <ele>391.05777</ele>
        <time>2022-10-30T13:24:22.000Z</time>
      </trkpt>
      <trkpt lat="45.82619" lon="4.73106">
        <ele>391.08105</ele>
        <time>2022-10-30T13:24:23.000Z</time>
      </trkpt>
      <trkpt lat="45.82622" lon="4.73113">
        <ele>391.12024</ele>
        <time>2022-10-30T13:24:24.000Z</time>
      </trkpt>
      <trkpt lat="45.82625" lon="4.7312">
        <ele>391.19043</ele>
        <time>2022-10-30T13:24:25.000Z</time>
      </trkpt>
      <trkpt lat="45.82627" lon="4.73128">
        <ele>391.26483</ele>
        <time>2022-10-30T13:24:26.000Z</time>
      </trkpt>
      <trkpt lat="45.8263" lon="4.73135">
        <ele>391.35687</ele>
        <time>2022-10-30T13:24:27.000Z</time>
      </trkpt>
      <trkpt lat="45.82631" lon="4.73144">
        <ele>391.46265</ele>
        <time>2022-10-30T13:24:28.000Z</time>
      </trkpt>
      <trkpt lat="45.82633" lon="4.73152">
        <ele>391.47119</ele>
        <time>2022-10-30T13:24:29.000Z</time>
      </trkpt>
      <trkpt lat="45.82635" lon="4.73158">
        <ele>391.58075</ele>
        <time>2022-10-30T13:24:30.000Z</time>
      </trkpt>
      <trkpt lat="45.82638" lon="4.73166">
        <ele>391.78156</ele>
        <time>2022-10-30T13:24:31.000Z</time>
      </trkpt>
      <trkpt lat="45.82639" lon="4.73174">
        <ele>391.89624</ele>
        <time>2022-10-30T13:24:32.000Z</time>
      </trkpt>
      <trkpt lat="45.82641" lon="4.73182">
        <ele>392.0274</ele>
        <time>2022-10-30T13:24:33.000Z</time>
      </trkpt>
      <trkpt lat="45.82641" lon="4.7319">
        <ele>392.06427</ele>
        <time>2022-10-30T13:24:34.000Z</time>
      </trkpt>
      <trkpt lat="45.82643" lon="4.73196">
        <ele>392.22324</ele>
        <time>2022-10-30T13:24:35.000Z</time>
      </trkpt>
      <trkpt lat="45.82644" lon="4.73204">
        <ele>392.41666</ele>
        <time>2022-10-30T13:24:36.000Z</time>
      </trkpt>
      <trkpt lat="45.82645" lon="4.73212">
        <ele>392.61356</ele>
        <time>2022-10-30T13:24:37.000Z</time>
      </trkpt>
      <trkpt lat="45.82646" lon="4.73218">
        <ele>392.84024</ele>
        <time>2022-10-30T13:24:38.000Z</time>
      </trkpt>
      <trkpt lat="45.82647" lon="4.73226">
        <ele>393.0502</ele>
        <time>2022-10-30T13:24:39.000Z</time>
      </trkpt>
      <trkpt lat="45.82647" lon="4.73235">
        <ele>393.25964</ele>
        <time>2022-10-30T13:24:40.000Z</time>
      </trkpt>
      <trkpt lat="45.82648" lon="4.73242">
        <ele>393.48138</ele>
        <time>2022-10-30T13:24:41.000Z</time>
      </trkpt>
      <trkpt lat="45.8265" lon="4.73249">
        <ele>393.72925</ele>
        <time>2022-10-30T13:24:42.000Z</time>
      </trkpt>
      <trkpt lat="45.82651" lon="4.73257">
        <ele>393.96454</ele>
        <time>2022-10-30T13:24:43.000Z</time>
      </trkpt>
      <trkpt lat="45.82651" lon="4.73265">
        <ele>394.22906</ele>
        <time>2022-10-30T13:24:44.000Z</time>
      </trkpt>
      <trkpt lat="45.82652" lon="4.73273">
        <ele>394.45044</ele>
        <time>2022-10-30T13:24:45.000Z</time>
      </trkpt>
      <trkpt lat="45.82654" lon="4.7328">
        <ele>394.664</ele>
        <time>2022-10-30T13:24:46.000Z</time>
      </trkpt>
      <trkpt lat="45.82656" lon="4.73288">
        <ele>394.8663</ele>
        <time>2022-10-30T13:24:47.000Z</time>
      </trkpt>
      <trkpt lat="45.82657" lon="4.73296">
        <ele>395.04105</ele>
        <time>2022-10-30T13:24:48.000Z</time>
      </trkpt>
      <trkpt lat="45.82657" lon="4.73304">
        <ele>395.30273</ele>
        <time>2022-10-30T13:24:49.000Z</time>
      </trkpt>
      <trkpt lat="45.82657" lon="4.73311">
        <ele>395.4462</ele>
        <time>2022-10-30T13:24:50.000Z</time>
      </trkpt>
      <trkpt lat="45.82658" lon="4.73319">
        <ele>395.52783</ele>
        <time>2022-10-30T13:24:51.000Z</time>
      </trkpt>
      <trkpt lat="45.82659" lon="4.73327">
        <ele>395.67563</ele>
        <time>2022-10-30T13:24:52.000Z</time>
      </trkpt>
      <trkpt lat="45.82661" lon="4.73335">
        <ele>395.78101</ele>
        <time>2022-10-30T13:24:53.000Z</time>
      </trkpt>
      <trkpt lat="45.82662" lon="4.73343">
        <ele>395.98273</ele>
        <time>2022-10-30T13:24:54.000Z</time>
      </trkpt>
      <trkpt lat="45.82663" lon="4.73351">
        <ele>396.07996</ele>
        <time>2022-10-30T13:24:55.000Z</time>
      </trkpt>
      <trkpt lat="45.82664" lon="4.73361">
        <ele>396.17487</ele>
        <time>2022-10-30T13:24:56.000Z</time>
      </trkpt>
      <trkpt lat="45.82666" lon="4.73369">
        <ele>396.31601</ele>
        <time>2022-10-30T13:24:57.000Z</time>
      </trkpt>
      <trkpt lat="45.82667" lon="4.73377">
        <ele>396.38919</ele>
        <time>2022-10-30T13:24:58.000Z</time>
      </trkpt>
      <trkpt lat="45.82669" lon="4.73384">
        <ele>396.4855</ele>
        <time>2022-10-30T13:24:59.000Z</time>
      </trkpt>
      <trkpt lat="45.8267" lon="4.73393">
        <ele>396.57355</ele>
        <time>2022-10-30T13:25:00.000Z</time>
      </trkpt>
      <trkpt lat="45.82671" lon="4.73401">
        <ele>396.6449</ele>
        <time>2022-10-30T13:25:01.000Z</time>
      </trkpt>
      <trkpt lat="45.82672" lon="4.73409">
        <ele>396.73199</ele>
        <time>2022-10-30T13:25:02.000Z</time>
      </trkpt>
      <trkpt lat="45.82673" lon="4.73417">
        <ele>396.82028</ele>
        <time>2022-10-30T13:25:03.000Z</time>
      </trkpt>
      <trkpt lat="45.82673" lon="4.73425">
        <ele>396.87082</ele>
        <time>2022-10-30T13:25:04.000Z</time>
      </trkpt>
      <trkpt lat="45.82673" lon="4.73434">
        <ele>396.91782</ele>
        <time>2022-10-30T13:25:05.000Z</time>
      </trkpt>
      <trkpt lat="45.82674" lon="4.73442">
        <ele>396.98996</ele>
        <time>2022-10-30T13:25:06.000Z</time>
      </trkpt>
      <trkpt lat="45.82673" lon="4.7345">
        <ele>397.04083</ele>
        <time>2022-10-30T13:25:07.000Z</time>
      </trkpt>
      <trkpt lat="45.82673" lon="4.73458">
        <ele>397.12582</ele>
        <time>2022-10-30T13:25:08.000Z</time>
      </trkpt>
      <trkpt lat="45.82673" lon="4.73466">
        <ele>397.11298</ele>
        <time>2022-10-30T13:25:09.000Z</time>
      </trkpt>
      <trkpt lat="45.82672" lon="4.73474">
        <ele>397.09439</ele>
        <time>2022-10-30T13:25:10.000Z</time>
      </trkpt>
      <trkpt lat="45.82671" lon="4.73482">
        <ele>397.07135</ele>
        <time>2022-10-30T13:25:11.000Z</time>
      </trkpt>
      <trkpt lat="45.8267" lon="4.7349">
        <ele>397.01471</ele>
        <time>2022-10-30T13:25:12.000Z</time>
      </trkpt>
      <trkpt lat="45.82669" lon="4.73496">
        <ele>397.00748</ele>
        <time>2022-10-30T13:25:13.000Z</time>
      </trkpt>
      <trkpt lat="45.82668" lon="4.73503">
        <ele>396.95624</ele>
        <time>2022-10-30T13:25:14.000Z</time>
      </trkpt>
      <trkpt lat="45.82668" lon="4.7351">
        <ele>396.93707</ele>
        <time>2022-10-30T13:25:15.000Z</time>
      </trkpt>
      <trkpt lat="45.82666" lon="4.73516">
        <ele>396.91586</ele>
        <time>2022-10-30T13:25:16.000Z</time>
      </trkpt>
      <trkpt lat="45.82664" lon="4.73523">
        <ele>396.8638</ele>
        <time>2022-10-30T13:25:17.000Z</time>
      </trkpt>
      <trkpt lat="45.82663" lon="4.7353">
        <ele>396.80612</ele>
        <time>2022-10-30T13:25:18.000Z</time>
      </trkpt>
      <trkpt lat="45.82662" lon="4.73536">
        <ele>396.77728</ele>
        <time>2022-10-30T13:25:19.000Z</time>
      </trkpt>
      <trkpt lat="45.8266" lon="4.73543">
        <ele>396.7442</ele>
        <time>2022-10-30T13:25:20.000Z</time>
      </trkpt>
      <trkpt lat="45.82658" lon="4.7355">
        <ele>396.69888</ele>
        <time>2022-10-30T13:25:21.000Z</time>
      </trkpt>
      <trkpt lat="45.82655" lon="4.73554">
        <ele>396.44086</ele>
        <time>2022-10-30T13:25:22.000Z</time>
      </trkpt>
      <trkpt lat="45.82651" lon="4.73562">
        <ele>396.1413</ele>
        <time>2022-10-30T13:25:23.000Z</time>
      </trkpt>
      <trkpt lat="45.82647" lon="4.7357">
        <ele>395.7981</ele>
        <time>2022-10-30T13:25:24.000Z</time>
      </trkpt>
      <trkpt lat="45.82645" lon="4.73578">
        <ele>395.47849</ele>
        <time>2022-10-30T13:25:25.000Z</time>
      </trkpt>
      <trkpt lat="45.82643" lon="4.73586">
        <ele>395.24506</ele>
        <time>2022-10-30T13:25:26.000Z</time>
      </trkpt>
      <trkpt lat="45.8264" lon="4.73594">
        <ele>395.02911</ele>
        <time>2022-10-30T13:25:27.000Z</time>
      </trkpt>
      <trkpt lat="45.82636" lon="4.73601">
        <ele>394.78473</ele>
        <time>2022-10-30T13:25:28.000Z</time>
      </trkpt>
      <trkpt lat="45.82633" lon="4.73609">
        <ele>394.59036</ele>
        <time>2022-10-30T13:25:29.000Z</time>
      </trkpt>
      <trkpt lat="45.82629" lon="4.73618">
        <ele>394.35541</ele>
        <time>2022-10-30T13:25:30.000Z</time>
      </trkpt>
      <trkpt lat="45.82625" lon="4.73628">
        <ele>394.06943</ele>
        <time>2022-10-30T13:25:31.000Z</time>
      </trkpt>
      <trkpt lat="45.82623" lon="4.73639">
        <ele>393.79352</ele>
        <time>2022-10-30T13:25:32.000Z</time>
      </trkpt>
      <trkpt lat="45.82621" lon="4.73651">
        <ele>393.41922</ele>
        <time>2022-10-30T13:25:33.000Z</time>
      </trkpt>
      <trkpt lat="45.8262" lon="4.73664">
        <ele>393.01996</ele>
        <time>2022-10-30T13:25:34.000Z</time>
      </trkpt>
      <trkpt lat="45.82618" lon="4.73677">
        <ele>392.539</ele>
        <time>2022-10-30T13:25:35.000Z</time>
      </trkpt>
      <trkpt lat="45.82614" lon="4.73688">
        <ele>392.08591</ele>
        <time>2022-10-30T13:25:36.000Z</time>
      </trkpt>
      <trkpt lat="45.82609" lon="4.73699">
        <ele>391.59042</ele>
        <time>2022-10-30T13:25:37.000Z</time>
      </trkpt>
      <trkpt lat="45.82604" lon="4.73708">
        <ele>391.13354</ele>
        <time>2022-10-30T13:25:38.000Z</time>
      </trkpt>
      <trkpt lat="45.82597" lon="4.73712">
        <ele>390.61707</ele>
        <time>2022-10-30T13:25:39.000Z</time>
      </trkpt>
      <trkpt lat="45.82592" lon="4.73717">
        <ele>390.11243</ele>
        <time>2022-10-30T13:25:40.000Z</time>
      </trkpt>
      <trkpt lat="45.82586" lon="4.73723">
        <ele>389.65045</ele>
        <time>2022-10-30T13:25:41.000Z</time>
      </trkpt>
      <trkpt lat="45.82582" lon="4.73728">
        <ele>389.34674</ele>
        <time>2022-10-30T13:25:42.000Z</time>
      </trkpt>
      <trkpt lat="45.82579" lon="4.73737">
        <ele>389.08832</ele>
        <time>2022-10-30T13:25:43.000Z</time>
      </trkpt>
      <trkpt lat="45.82578" lon="4.73745">
        <ele>388.83307</ele>
        <time>2022-10-30T13:25:44.000Z</time>
      </trkpt>
      <trkpt lat="45.82576" lon="4.73753">
        <ele>388.57718</ele>
        <time>2022-10-30T13:25:45.000Z</time>
      </trkpt>
      <trkpt lat="45.82574" lon="4.7376">
        <ele>388.19894</ele>
        <time>2022-10-30T13:25:46.000Z</time>
      </trkpt>
      <trkpt lat="45.82571" lon="4.73767">
        <ele>387.81735</ele>
        <time>2022-10-30T13:25:47.000Z</time>
      </trkpt>
      <trkpt lat="45.82568" lon="4.73776">
        <ele>387.43121</ele>
        <time>2022-10-30T13:25:48.000Z</time>
      </trkpt>
      <trkpt lat="45.82565" lon="4.73782">
        <ele>387.02768</ele>
        <time>2022-10-30T13:25:49.000Z</time>
      </trkpt>
      <trkpt lat="45.82564" lon="4.7379">
        <ele>386.68762</ele>
        <time>2022-10-30T13:25:50.000Z</time>
      </trkpt>
      <trkpt lat="45.82559" lon="4.73798">
        <ele>386.31976</ele>
        <time>2022-10-30T13:25:51.000Z</time>
      </trkpt>
      <trkpt lat="45.82558" lon="4.73805">
        <ele>385.92557</ele>
        <time>2022-10-30T13:25:52.000Z</time>
      </trkpt>
      <trkpt lat="45.82556" lon="4.73811">
        <ele>385.66434</ele>
        <time>2022-10-30T13:25:53.000Z</time>
      </trkpt>
      <trkpt lat="45.82554" lon="4.7382">
        <ele>385.47385</ele>
        <time>2022-10-30T13:25:54.000Z</time>
      </trkpt>
      <trkpt lat="45.82549" lon="4.73829">
        <ele>385.34204</ele>
        <time>2022-10-30T13:25:55.000Z</time>
      </trkpt>
      <trkpt lat="45.82547" lon="4.73836">
        <ele>385.20459</ele>
        <time>2022-10-30T13:25:56.000Z</time>
      </trkpt>
      <trkpt lat="45.82545" lon="4.73841">
        <ele>385.14801</ele>
        <time>2022-10-30T13:25:57.000Z</time>
      </trkpt>
      <trkpt lat="45.82543" lon="4.73849">
        <ele>385.11331</ele>
        <time>2022-10-30T13:25:58.000Z</time>
      </trkpt>
      <trkpt lat="45.8254" lon="4.73856">
        <ele>385.06705</ele>
        <time>2022-10-30T13:25:59.000Z</time>
      </trkpt>
      <trkpt lat="45.82537" lon="4.73863">
        <ele>385.0155</ele>
        <time>2022-10-30T13:26:00.000Z</time>
      </trkpt>
      <trkpt lat="45.82535" lon="4.73869">
        <ele>385.00763</ele>
        <time>2022-10-30T13:26:01.000Z</time>
      </trkpt>
      <trkpt lat="45.82532" lon="4.73875">
        <ele>385.05881</ele>
        <time>2022-10-30T13:26:02.000Z</time>
      </trkpt>
      <trkpt lat="45.82529" lon="4.73881">
        <ele>385.12094</ele>
        <time>2022-10-30T13:26:03.000Z</time>
      </trkpt>
      <trkpt lat="45.82527" lon="4.73886">
        <ele>385.24127</ele>
        <time>2022-10-30T13:26:04.000Z</time>
      </trkpt>
      <trkpt lat="45.82525" lon="4.73892">
        <ele>385.38776</ele>
        <time>2022-10-30T13:26:05.000Z</time>
      </trkpt>
      <trkpt lat="45.82522" lon="4.73897">
        <ele>385.53891</ele>
        <time>2022-10-30T13:26:06.000Z</time>
      </trkpt>
      <trkpt lat="45.8252" lon="4.73901">
        <ele>385.69476</ele>
        <time>2022-10-30T13:26:07.000Z</time>
      </trkpt>
      <trkpt lat="45.82518" lon="4.73906">
        <ele>385.88535</ele>
        <time>2022-10-30T13:26:08.000Z</time>
      </trkpt>
      <trkpt lat="45.82516" lon="4.73911">
        <ele>386.06842</ele>
        <time>2022-10-30T13:26:09.000Z</time>
      </trkpt>
      <trkpt lat="45.82513" lon="4.73916">
        <ele>386.25644</ele>
        <time>2022-10-30T13:26:10.000Z</time>
      </trkpt>
      <trkpt lat="45.82511" lon="4.7392">
        <ele>386.52127</ele>
        <time>2022-10-30T13:26:11.000Z</time>
      </trkpt>
      <trkpt lat="45.82508" lon="4.73923">
        <ele>386.83286</ele>
        <time>2022-10-30T13:26:12.000Z</time>
      </trkpt>
      <trkpt lat="45.82504" lon="4.73922">
        <ele>387.02228</ele>
        <time>2022-10-30T13:26:13.000Z</time>
      </trkpt>
      <trkpt lat="45.82501" lon="4.7392">
        <ele>387.15884</ele>
        <time>2022-10-30T13:26:14.000Z</time>
      </trkpt>
      <trkpt lat="45.82498" lon="4.73917">
        <ele>387.26364</ele>
        <time>2022-10-30T13:26:15.000Z</time>
      </trkpt>
      <trkpt lat="45.82498" lon="4.73911">
        <ele>387.37744</ele>
        <time>2022-10-30T13:26:16.000Z</time>
      </trkpt>
      <trkpt lat="45.82499" lon="4.73905">
        <ele>387.43536</ele>
        <time>2022-10-30T13:26:17.000Z</time>
      </trkpt>
      <trkpt lat="45.82501" lon="4.739">
        <ele>387.41858</ele>
        <time>2022-10-30T13:26:18.000Z</time>
      </trkpt>
      <trkpt lat="45.82504" lon="4.73895">
        <ele>387.40878</ele>
        <time>2022-10-30T13:26:19.000Z</time>
      </trkpt>
      <trkpt lat="45.82511" lon="4.73891">
        <ele>387.43268</ele>
        <time>2022-10-30T13:26:20.000Z</time>
      </trkpt>
      <trkpt lat="45.82515" lon="4.73888">
        <ele>387.43234</ele>
        <time>2022-10-30T13:26:21.000Z</time>
      </trkpt>
      <trkpt lat="45.82518" lon="4.73883">
        <ele>387.36722</ele>
        <time>2022-10-30T13:26:22.000Z</time>
      </trkpt>
      <trkpt lat="45.82521" lon="4.73879">
        <ele>387.31277</ele>
        <time>2022-10-30T13:26:23.000Z</time>
      </trkpt>
      <trkpt lat="45.82524" lon="4.73872">
        <ele>387.24567</ele>
        <time>2022-10-30T13:26:24.000Z</time>
      </trkpt>
      <trkpt lat="45.82527" lon="4.73867">
        <ele>387.18994</ele>
        <time>2022-10-30T13:26:25.000Z</time>
      </trkpt>
      <trkpt lat="45.8253" lon="4.73861">
        <ele>387.13666</ele>
        <time>2022-10-30T13:26:26.000Z</time>
      </trkpt>
      <trkpt lat="45.82533" lon="4.73856">
        <ele>387.04346</ele>
        <time>2022-10-30T13:26:27.000Z</time>
      </trkpt>
      <trkpt lat="45.82534" lon="4.73849">
        <ele>386.88419</ele>
        <time>2022-10-30T13:26:28.000Z</time>
      </trkpt>
      <trkpt lat="45.82535" lon="4.73842">
        <ele>386.73834</ele>
        <time>2022-10-30T13:26:29.000Z</time>
      </trkpt>
      <trkpt lat="45.82538" lon="4.73834">
        <ele>386.64429</ele>
        <time>2022-10-30T13:26:30.000Z</time>
      </trkpt>
      <trkpt lat="45.82537" lon="4.73827">
        <ele>386.52585</ele>
        <time>2022-10-30T13:26:31.000Z</time>
      </trkpt>
      <trkpt lat="45.82536" lon="4.7382">
        <ele>386.41446</ele>
        <time>2022-10-30T13:26:32.000Z</time>
      </trkpt>
      <trkpt lat="45.82535" lon="4.73813">
        <ele>386.36108</ele>
        <time>2022-10-30T13:26:33.000Z</time>
      </trkpt>
      <trkpt lat="45.82533" lon="4.73806">
        <ele>386.38773</ele>
        <time>2022-10-30T13:26:34.000Z</time>
      </trkpt>
      <trkpt lat="45.8253" lon="4.73799">
        <ele>386.42023</ele>
        <time>2022-10-30T13:26:35.000Z</time>
      </trkpt>
      <trkpt lat="45.82527" lon="4.73793">
        <ele>386.43127</ele>
        <time>2022-10-30T13:26:36.000Z</time>
      </trkpt>
      <trkpt lat="45.82524" lon="4.73787">
        <ele>386.45786</ele>
        <time>2022-10-30T13:26:37.000Z</time>
      </trkpt>
      <trkpt lat="45.82521" lon="4.73779">
        <ele>386.55539</ele>
        <time>2022-10-30T13:26:38.000Z</time>
      </trkpt>
      <trkpt lat="45.82518" lon="4.73773">
        <ele>386.70831</ele>
        <time>2022-10-30T13:26:39.000Z</time>
      </trkpt>
      <trkpt lat="45.82515" lon="4.73767">
        <ele>386.87018</ele>
        <time>2022-10-30T13:26:40.000Z</time>
      </trkpt>
      <trkpt lat="45.82512" lon="4.73761">
        <ele>387.04694</ele>
        <time>2022-10-30T13:26:41.000Z</time>
      </trkpt>
      <trkpt lat="45.82511" lon="4.73754">
        <ele>387.31274</ele>
        <time>2022-10-30T13:26:42.000Z</time>
      </trkpt>
      <trkpt lat="45.82509" lon="4.73749">
        <ele>387.52835</ele>
        <time>2022-10-30T13:26:43.000Z</time>
      </trkpt>
      <trkpt lat="45.82505" lon="4.73743">
        <ele>387.71652</ele>
        <time>2022-10-30T13:26:44.000Z</time>
      </trkpt>
      <trkpt lat="45.82502" lon="4.73737">
        <ele>387.87354</ele>
        <time>2022-10-30T13:26:45.000Z</time>
      </trkpt>
      <trkpt lat="45.82498" lon="4.73731">
        <ele>388.02179</ele>
        <time>2022-10-30T13:26:46.000Z</time>
      </trkpt>
      <trkpt lat="45.82495" lon="4.73725">
        <ele>388.19446</ele>
        <time>2022-10-30T13:26:47.000Z</time>
      </trkpt>
      <trkpt lat="45.82493" lon="4.73719">
        <ele>388.46515</ele>
        <time>2022-10-30T13:26:48.000Z</time>
      </trkpt>
      <trkpt lat="45.8249" lon="4.73714">
        <ele>388.724</ele>
        <time>2022-10-30T13:26:49.000Z</time>
      </trkpt>
      <trkpt lat="45.82485" lon="4.73708">
        <ele>388.86481</ele>
        <time>2022-10-30T13:26:50.000Z</time>
      </trkpt>
      <trkpt lat="45.82482" lon="4.73702">
        <ele>389.03085</ele>
        <time>2022-10-30T13:26:51.000Z</time>
      </trkpt>
      <trkpt lat="45.82479" lon="4.73697">
        <ele>389.1756</ele>
        <time>2022-10-30T13:26:52.000Z</time>
      </trkpt>
      <trkpt lat="45.82477" lon="4.73691">
        <ele>389.3717</ele>
        <time>2022-10-30T13:26:53.000Z</time>
      </trkpt>
      <trkpt lat="45.82474" lon="4.73686">
        <ele>389.48306</ele>
        <time>2022-10-30T13:26:54.000Z</time>
      </trkpt>
      <trkpt lat="45.82471" lon="4.73681">
        <ele>389.56186</ele>
        <time>2022-10-30T13:26:55.000Z</time>
      </trkpt>
      <trkpt lat="45.82468" lon="4.73674">
        <ele>389.63824</ele>
        <time>2022-10-30T13:26:56.000Z</time>
      </trkpt>
      <trkpt lat="45.82464" lon="4.7367">
        <ele>389.79263</ele>
        <time>2022-10-30T13:26:57.000Z</time>
      </trkpt>
      <trkpt lat="45.82461" lon="4.73664">
        <ele>389.94479</ele>
        <time>2022-10-30T13:26:58.000Z</time>
      </trkpt>
      <trkpt lat="45.82458" lon="4.73659">
        <ele>390.12924</ele>
        <time>2022-10-30T13:26:59.000Z</time>
      </trkpt>
      <trkpt lat="45.82455" lon="4.73653">
        <ele>390.23053</ele>
        <time>2022-10-30T13:27:00.000Z</time>
      </trkpt>
      <trkpt lat="45.82453" lon="4.73647">
        <ele>390.28778</ele>
        <time>2022-10-30T13:27:01.000Z</time>
      </trkpt>
      <trkpt lat="45.8245" lon="4.73641">
        <ele>390.25604</ele>
        <time>2022-10-30T13:27:02.000Z</time>
      </trkpt>
      <trkpt lat="45.82449" lon="4.73635">
        <ele>390.24579</ele>
        <time>2022-10-30T13:27:03.000Z</time>
      </trkpt>
      <trkpt lat="45.82446" lon="4.7363">
        <ele>390.22876</ele>
        <time>2022-10-30T13:27:04.000Z</time>
      </trkpt>
      <trkpt lat="45.82443" lon="4.73623">
        <ele>390.25946</ele>
        <time>2022-10-30T13:27:05.000Z</time>
      </trkpt>
      <trkpt lat="45.82441" lon="4.73617">
        <ele>390.30234</ele>
        <time>2022-10-30T13:27:06.000Z</time>
      </trkpt>
      <trkpt lat="45.82438" lon="4.73611">
        <ele>390.36343</ele>
        <time>2022-10-30T13:27:07.000Z</time>
      </trkpt>
      <trkpt lat="45.82435" lon="4.73604">
        <ele>390.35074</ele>
        <time>2022-10-30T13:27:08.000Z</time>
      </trkpt>
      <trkpt lat="45.82432" lon="4.73598">
        <ele>390.36179</ele>
        <time>2022-10-30T13:27:09.000Z</time>
      </trkpt>
      <trkpt lat="45.82429" lon="4.73594">
        <ele>390.41736</ele>
        <time>2022-10-30T13:27:10.000Z</time>
      </trkpt>
      <trkpt lat="45.82427" lon="4.73587">
        <ele>390.40244</ele>
        <time>2022-10-30T13:27:11.000Z</time>
      </trkpt>
      <trkpt lat="45.82424" lon="4.73581">
        <ele>390.40018</ele>
        <time>2022-10-30T13:27:12.000Z</time>
      </trkpt>
      <trkpt lat="45.82421" lon="4.73577">
        <ele>390.39996</ele>
        <time>2022-10-30T13:27:13.000Z</time>
      </trkpt>
      <trkpt lat="45.82419" lon="4.73572">
        <ele>390.49414</ele>
        <time>2022-10-30T13:27:14.000Z</time>
      </trkpt>
      <trkpt lat="45.82417" lon="4.73566">
        <ele>390.63577</ele>
        <time>2022-10-30T13:27:15.000Z</time>
      </trkpt>
      <trkpt lat="45.82414" lon="4.73561">
        <ele>390.8334</ele>
        <time>2022-10-30T13:27:16.000Z</time>
      </trkpt>
      <trkpt lat="45.82412" lon="4.73556">
        <ele>390.9884</ele>
        <time>2022-10-30T13:27:17.000Z</time>
      </trkpt>
      <trkpt lat="45.82409" lon="4.7355">
        <ele>391.15887</ele>
        <time>2022-10-30T13:27:18.000Z</time>
      </trkpt>
      <trkpt lat="45.82407" lon="4.73544">
        <ele>391.28888</ele>
        <time>2022-10-30T13:27:19.000Z</time>
      </trkpt>
      <trkpt lat="45.82404" lon="4.73539">
        <ele>391.46231</ele>
        <time>2022-10-30T13:27:20.000Z</time>
      </trkpt>
      <trkpt lat="45.82401" lon="4.73534">
        <ele>391.71991</ele>
        <time>2022-10-30T13:27:21.000Z</time>
      </trkpt>
      <trkpt lat="45.82399" lon="4.73529">
        <ele>392.06458</ele>
        <time>2022-10-30T13:27:22.000Z</time>
      </trkpt>
      <trkpt lat="45.82396" lon="4.73523">
        <ele>392.37939</ele>
        <time>2022-10-30T13:27:23.000Z</time>
      </trkpt>
      <trkpt lat="45.82393" lon="4.73518">
        <ele>392.76251</ele>
        <time>2022-10-30T13:27:24.000Z</time>
      </trkpt>
      <trkpt lat="45.8239" lon="4.73512">
        <ele>393.06546</ele>
        <time>2022-10-30T13:27:25.000Z</time>
      </trkpt>
      <trkpt lat="45.82387" lon="4.73506">
        <ele>393.34195</ele>
        <time>2022-10-30T13:27:26.000Z</time>
      </trkpt>
      <trkpt lat="45.82384" lon="4.735">
        <ele>393.62082</ele>
        <time>2022-10-30T13:27:27.000Z</time>
      </trkpt>
      <trkpt lat="45.82382" lon="4.73494">
        <ele>393.87244</ele>
        <time>2022-10-30T13:27:28.000Z</time>
      </trkpt>
      <trkpt lat="45.8238" lon="4.73488">
        <ele>394.10214</ele>
        <time>2022-10-30T13:27:29.000Z</time>
      </trkpt>
      <trkpt lat="45.82376" lon="4.73482">
        <ele>394.31009</ele>
        <time>2022-10-30T13:27:30.000Z</time>
      </trkpt>
      <trkpt lat="45.82374" lon="4.73476">
        <ele>394.64102</ele>
        <time>2022-10-30T13:27:31.000Z</time>
      </trkpt>
      <trkpt lat="45.82372" lon="4.7347">
        <ele>394.91351</ele>
        <time>2022-10-30T13:27:32.000Z</time>
      </trkpt>
      <trkpt lat="45.82369" lon="4.73464">
        <ele>395.15604</ele>
        <time>2022-10-30T13:27:33.000Z</time>
      </trkpt>
      <trkpt lat="45.82366" lon="4.73458">
        <ele>395.34283</ele>
        <time>2022-10-30T13:27:34.000Z</time>
      </trkpt>
      <trkpt lat="45.82363" lon="4.73451">
        <ele>395.49805</ele>
        <time>2022-10-30T13:27:35.000Z</time>
      </trkpt>
      <trkpt lat="45.8236" lon="4.73446">
        <ele>395.61459</ele>
        <time>2022-10-30T13:27:36.000Z</time>
      </trkpt>
      <trkpt lat="45.82358" lon="4.7344">
        <ele>395.72873</ele>
        <time>2022-10-30T13:27:37.000Z</time>
      </trkpt>
      <trkpt lat="45.82354" lon="4.73435">
        <ele>395.84027</ele>
        <time>2022-10-30T13:27:38.000Z</time>
      </trkpt>
      <trkpt lat="45.82351" lon="4.73429">
        <ele>395.94531</ele>
        <time>2022-10-30T13:27:39.000Z</time>
      </trkpt>
      <trkpt lat="45.82348" lon="4.73423">
        <ele>396.06012</ele>
        <time>2022-10-30T13:27:40.000Z</time>
      </trkpt>
      <trkpt lat="45.82344" lon="4.73417">
        <ele>396.03278</ele>
        <time>2022-10-30T13:27:41.000Z</time>
      </trkpt>
      <trkpt lat="45.8234" lon="4.73411">
        <ele>395.90717</ele>
        <time>2022-10-30T13:27:42.000Z</time>
      </trkpt>
      <trkpt lat="45.82337" lon="4.73405">
        <ele>395.81586</ele>
        <time>2022-10-30T13:27:43.000Z</time>
      </trkpt>
      <trkpt lat="45.82334" lon="4.73398">
        <ele>395.68463</ele>
        <time>2022-10-30T13:27:44.000Z</time>
      </trkpt>
      <trkpt lat="45.82331" lon="4.73393">
        <ele>395.60785</ele>
        <time>2022-10-30T13:27:45.000Z</time>
      </trkpt>
      <trkpt lat="45.82328" lon="4.73387">
        <ele>395.54062</ele>
        <time>2022-10-30T13:27:46.000Z</time>
      </trkpt>
      <trkpt lat="45.82326" lon="4.73381">
        <ele>395.43234</ele>
        <time>2022-10-30T13:27:47.000Z</time>
      </trkpt>
      <trkpt lat="45.82322" lon="4.73376">
        <ele>395.4068</ele>
        <time>2022-10-30T13:27:48.000Z</time>
      </trkpt>
      <trkpt lat="45.82319" lon="4.7337">
        <ele>395.40927</ele>
        <time>2022-10-30T13:27:49.000Z</time>
      </trkpt>
      <trkpt lat="45.82318" lon="4.73364">
        <ele>395.49554</ele>
        <time>2022-10-30T13:27:50.000Z</time>
      </trkpt>
      <trkpt lat="45.82316" lon="4.73359">
        <ele>395.54285</ele>
        <time>2022-10-30T13:27:51.000Z</time>
      </trkpt>
      <trkpt lat="45.82315" lon="4.73355">
        <ele>395.69888</ele>
        <time>2022-10-30T13:27:52.000Z</time>
      </trkpt>
      <trkpt lat="45.82313" lon="4.7335">
        <ele>395.8414</ele>
        <time>2022-10-30T13:27:53.000Z</time>
      </trkpt>
      <trkpt lat="45.82313" lon="4.73346">
        <ele>395.96222</ele>
        <time>2022-10-30T13:27:54.000Z</time>
      </trkpt>
      <trkpt lat="45.82312" lon="4.73341">
        <ele>396.08673</ele>
        <time>2022-10-30T13:27:55.000Z</time>
      </trkpt>
      <trkpt lat="45.82311" lon="4.73337">
        <ele>396.21423</ele>
        <time>2022-10-30T13:27:56.000Z</time>
      </trkpt>
      <trkpt lat="45.82309" lon="4.73333">
        <ele>396.28003</ele>
        <time>2022-10-30T13:27:57.000Z</time>
      </trkpt>
      <trkpt lat="45.82308" lon="4.73328">
        <ele>396.26959</ele>
        <time>2022-10-30T13:27:58.000Z</time>
      </trkpt>
      <trkpt lat="45.82307" lon="4.73323">
        <ele>396.29358</ele>
        <time>2022-10-30T13:27:59.000Z</time>
      </trkpt>
      <trkpt lat="45.82306" lon="4.73319">
        <ele>396.36343</ele>
        <time>2022-10-30T13:28:00.000Z</time>
      </trkpt>
      <trkpt lat="45.82307" lon="4.73315">
        <ele>396.3812</ele>
        <time>2022-10-30T13:28:01.000Z</time>
      </trkpt>
      <trkpt lat="45.82306" lon="4.73312">
        <ele>396.32422</ele>
        <time>2022-10-30T13:28:02.000Z</time>
      </trkpt>
      <trkpt lat="45.82305" lon="4.73309">
        <ele>396.31232</ele>
        <time>2022-10-30T13:28:03.000Z</time>
      </trkpt>
      <trkpt lat="45.82304" lon="4.73305">
        <ele>396.32892</ele>
        <time>2022-10-30T13:28:04.000Z</time>
      </trkpt>
      <trkpt lat="45.82302" lon="4.73302">
        <ele>396.42188</ele>
        <time>2022-10-30T13:28:05.000Z</time>
      </trkpt>
      <trkpt lat="45.82301" lon="4.73298">
        <ele>396.59439</ele>
        <time>2022-10-30T13:28:06.000Z</time>
      </trkpt>
      <trkpt lat="45.82299" lon="4.73294">
        <ele>396.84143</ele>
        <time>2022-10-30T13:28:07.000Z</time>
      </trkpt>
      <trkpt lat="45.82298" lon="4.73291">
        <ele>397.02069</ele>
        <time>2022-10-30T13:28:08.000Z</time>
      </trkpt>
      <trkpt lat="45.82296" lon="4.73287">
        <ele>397.17706</ele>
        <time>2022-10-30T13:28:09.000Z</time>
      </trkpt>
      <trkpt lat="45.82295" lon="4.73284">
        <ele>397.24991</ele>
        <time>2022-10-30T13:28:10.000Z</time>
      </trkpt>
      <trkpt lat="45.82293" lon="4.73281">
        <ele>397.26025</ele>
        <time>2022-10-30T13:28:11.000Z</time>
      </trkpt>
      <trkpt lat="45.82291" lon="4.73279">
        <ele>397.2034</ele>
        <time>2022-10-30T13:28:12.000Z</time>
      </trkpt>
      <trkpt lat="45.82289" lon="4.73278">
        <ele>397.13947</ele>
        <time>2022-10-30T13:28:13.000Z</time>
      </trkpt>
      <trkpt lat="45.82286" lon="4.73277">
        <ele>397.16168</ele>
        <time>2022-10-30T13:28:14.000Z</time>
      </trkpt>
      <trkpt lat="45.82284" lon="4.73277">
        <ele>397.21707</ele>
        <time>2022-10-30T13:28:16.000Z</time>
      </trkpt>
      <trkpt lat="45.82281" lon="4.73278">
        <ele>397.17206</ele>
        <time>2022-10-30T13:29:25.000Z</time>
      </trkpt>
      <trkpt lat="45.82278" lon="4.7328">
        <ele>397.13977</ele>
        <time>2022-10-30T13:29:26.000Z</time>
      </trkpt>
      <trkpt lat="45.82274" lon="4.73281">
        <ele>397.0762</ele>
        <time>2022-10-30T13:29:27.000Z</time>
      </trkpt>
      <trkpt lat="45.82271" lon="4.73283">
        <ele>397.05252</ele>
        <time>2022-10-30T13:29:28.000Z</time>
      </trkpt>
      <trkpt lat="45.82267" lon="4.73285">
        <ele>396.97751</ele>
        <time>2022-10-30T13:29:29.000Z</time>
      </trkpt>
      <trkpt lat="45.82263" lon="4.73286">
        <ele>396.88788</ele>
        <time>2022-10-30T13:29:30.000Z</time>
      </trkpt>
      <trkpt lat="45.8226" lon="4.73288">
        <ele>396.88971</ele>
        <time>2022-10-30T13:29:31.000Z</time>
      </trkpt>
      <trkpt lat="45.82256" lon="4.73289">
        <ele>396.84708</ele>
        <time>2022-10-30T13:29:32.000Z</time>
      </trkpt>
      <trkpt lat="45.82253" lon="4.73292">
        <ele>396.75568</ele>
        <time>2022-10-30T13:29:33.000Z</time>
      </trkpt>
      <trkpt lat="45.82248" lon="4.73294">
        <ele>396.55804</ele>
        <time>2022-10-30T13:29:34.000Z</time>
      </trkpt>
      <trkpt lat="45.82244" lon="4.73296">
        <ele>396.25443</ele>
        <time>2022-10-30T13:29:35.000Z</time>
      </trkpt>
      <trkpt lat="45.82237" lon="4.73298">
        <ele>395.93451</ele>
        <time>2022-10-30T13:29:36.000Z</time>
      </trkpt>
      <trkpt lat="45.82232" lon="4.73301">
        <ele>395.63318</ele>
        <time>2022-10-30T13:29:37.000Z</time>
      </trkpt>
      <trkpt lat="45.82227" lon="4.73303">
        <ele>395.36539</ele>
        <time>2022-10-30T13:29:38.000Z</time>
      </trkpt>
      <trkpt lat="45.82221" lon="4.73306">
        <ele>395.13239</ele>
        <time>2022-10-30T13:29:39.000Z</time>
      </trkpt>
      <trkpt lat="45.82216" lon="4.73308">
        <ele>394.95004</ele>
        <time>2022-10-30T13:29:40.000Z</time>
      </trkpt>
      <trkpt lat="45.82211" lon="4.73309">
        <ele>394.76459</ele>
        <time>2022-10-30T13:29:41.000Z</time>
      </trkpt>
      <trkpt lat="45.82205" lon="4.73314">
        <ele>394.62848</ele>
        <time>2022-10-30T13:29:42.000Z</time>
      </trkpt>
      <trkpt lat="45.822" lon="4.73316">
        <ele>394.40274</ele>
        <time>2022-10-30T13:29:43.000Z</time>
      </trkpt>
      <trkpt lat="45.82195" lon="4.73318">
        <ele>394.13666</ele>
        <time>2022-10-30T13:29:44.000Z</time>
      </trkpt>
      <trkpt lat="45.82189" lon="4.73321">
        <ele>393.95889</ele>
        <time>2022-10-30T13:29:45.000Z</time>
      </trkpt>
      <trkpt lat="45.82184" lon="4.73322">
        <ele>393.80084</ele>
        <time>2022-10-30T13:29:46.000Z</time>
      </trkpt>
      <trkpt lat="45.82179" lon="4.7332">
        <ele>393.71588</ele>
        <time>2022-10-30T13:29:47.000Z</time>
      </trkpt>
      <trkpt lat="45.82176" lon="4.73316">
        <ele>393.53448</ele>
        <time>2022-10-30T13:29:48.000Z</time>
      </trkpt>
      <trkpt lat="45.82173" lon="4.7331">
        <ele>393.32733</ele>
        <time>2022-10-30T13:29:49.000Z</time>
      </trkpt>
      <trkpt lat="45.82171" lon="4.73306">
        <ele>393.21005</ele>
        <time>2022-10-30T13:29:50.000Z</time>
      </trkpt>
      <trkpt lat="45.82167" lon="4.73301">
        <ele>393.11514</ele>
        <time>2022-10-30T13:29:51.000Z</time>
      </trkpt>
      <trkpt lat="45.82164" lon="4.73295">
        <ele>392.99036</ele>
        <time>2022-10-30T13:29:52.000Z</time>
      </trkpt>
      <trkpt lat="45.8216" lon="4.73292">
        <ele>392.82904</ele>
        <time>2022-10-30T13:29:53.000Z</time>
      </trkpt>
      <trkpt lat="45.82156" lon="4.7329">
        <ele>392.6322</ele>
        <time>2022-10-30T13:29:54.000Z</time>
      </trkpt>
      <trkpt lat="45.8215" lon="4.7329">
        <ele>392.46201</ele>
        <time>2022-10-30T13:29:55.000Z</time>
      </trkpt>
      <trkpt lat="45.82145" lon="4.73291">
        <ele>392.23972</ele>
        <time>2022-10-30T13:29:56.000Z</time>
      </trkpt>
      <trkpt lat="45.82139" lon="4.73292">
        <ele>392.00693</ele>
        <time>2022-10-30T13:29:57.000Z</time>
      </trkpt>
      <trkpt lat="45.82134" lon="4.73294">
        <ele>391.73822</ele>
        <time>2022-10-30T13:29:58.000Z</time>
      </trkpt>
      <trkpt lat="45.82128" lon="4.73294">
        <ele>391.48163</ele>
        <time>2022-10-30T13:29:59.000Z</time>
      </trkpt>
      <trkpt lat="45.82122" lon="4.73296">
        <ele>391.1897</ele>
        <time>2022-10-30T13:30:00.000Z</time>
      </trkpt>
      <trkpt lat="45.82116" lon="4.73296">
        <ele>390.88361</ele>
        <time>2022-10-30T13:30:01.000Z</time>
      </trkpt>
      <trkpt lat="45.82108" lon="4.733">
        <ele>390.46844</ele>
        <time>2022-10-30T13:30:02.000Z</time>
      </trkpt>
      <trkpt lat="45.82101" lon="4.73302">
        <ele>390.05579</ele>
        <time>2022-10-30T13:30:03.000Z</time>
      </trkpt>
      <trkpt lat="45.82093" lon="4.73306">
        <ele>389.60944</ele>
        <time>2022-10-30T13:30:04.000Z</time>
      </trkpt>
      <trkpt lat="45.82086" lon="4.73309">
        <ele>389.10275</ele>
        <time>2022-10-30T13:30:05.000Z</time>
      </trkpt>
      <trkpt lat="45.82079" lon="4.73311">
        <ele>388.58295</ele>
        <time>2022-10-30T13:30:06.000Z</time>
      </trkpt>
      <trkpt lat="45.82074" lon="4.73317">
        <ele>388.08887</ele>
        <time>2022-10-30T13:30:07.000Z</time>
      </trkpt>
      <trkpt lat="45.82067" lon="4.73321">
        <ele>387.60391</ele>
        <time>2022-10-30T13:30:08.000Z</time>
      </trkpt>
      <trkpt lat="45.8206" lon="4.73324">
        <ele>387.10126</ele>
        <time>2022-10-30T13:30:09.000Z</time>
      </trkpt>
      <trkpt lat="45.82053" lon="4.73329">
        <ele>386.61142</ele>
        <time>2022-10-30T13:30:10.000Z</time>
      </trkpt>
      <trkpt lat="45.82046" lon="4.73331">
        <ele>386.14383</ele>
        <time>2022-10-30T13:30:11.000Z</time>
      </trkpt>
      <trkpt lat="45.82039" lon="4.73336">
        <ele>385.75845</ele>
        <time>2022-10-30T13:30:12.000Z</time>
      </trkpt>
      <trkpt lat="45.82035" lon="4.73339">
        <ele>385.33942</ele>
        <time>2022-10-30T13:30:13.000Z</time>
      </trkpt>
      <trkpt lat="45.82029" lon="4.73343">
        <ele>384.91046</ele>
        <time>2022-10-30T13:30:14.000Z</time>
      </trkpt>
      <trkpt lat="45.82024" lon="4.7335">
        <ele>384.51727</ele>
        <time>2022-10-30T13:30:15.000Z</time>
      </trkpt>
      <trkpt lat="45.8202" lon="4.73358">
        <ele>384.13568</ele>
        <time>2022-10-30T13:30:16.000Z</time>
      </trkpt>
      <trkpt lat="45.82015" lon="4.73365">
        <ele>383.76224</ele>
        <time>2022-10-30T13:30:17.000Z</time>
      </trkpt>
      <trkpt lat="45.82007" lon="4.7337">
        <ele>383.46774</ele>
        <time>2022-10-30T13:30:18.000Z</time>
      </trkpt>
      <trkpt lat="45.82001" lon="4.73374">
        <ele>383.08994</ele>
        <time>2022-10-30T13:30:19.000Z</time>
      </trkpt>
      <trkpt lat="45.81996" lon="4.73377">
        <ele>382.72067</ele>
        <time>2022-10-30T13:30:20.000Z</time>
      </trkpt>
      <trkpt lat="45.8199" lon="4.73381">
        <ele>382.36816</ele>
        <time>2022-10-30T13:30:21.000Z</time>
      </trkpt>
      <trkpt lat="45.81986" lon="4.73382">
        <ele>382.08969</ele>
        <time>2022-10-30T13:30:22.000Z</time>
      </trkpt>
      <trkpt lat="45.8198" lon="4.73386">
        <ele>381.84442</ele>
        <time>2022-10-30T13:30:23.000Z</time>
      </trkpt>
      <trkpt lat="45.81976" lon="4.73389">
        <ele>381.64252</ele>
        <time>2022-10-30T13:30:24.000Z</time>
      </trkpt>
      <trkpt lat="45.8197" lon="4.73394">
        <ele>381.51389</ele>
        <time>2022-10-30T13:30:25.000Z</time>
      </trkpt>
      <trkpt lat="45.81964" lon="4.73397">
        <ele>381.40985</ele>
        <time>2022-10-30T13:30:26.000Z</time>
      </trkpt>
      <trkpt lat="45.81959" lon="4.73399">
        <ele>381.43991</ele>
        <time>2022-10-30T13:30:27.000Z</time>
      </trkpt>
      <trkpt lat="45.81954" lon="4.73403">
        <ele>381.40225</ele>
        <time>2022-10-30T13:30:28.000Z</time>
      </trkpt>
      <trkpt lat="45.81949" lon="4.73406">
        <ele>381.39557</ele>
        <time>2022-10-30T13:30:29.000Z</time>
      </trkpt>
      <trkpt lat="45.81946" lon="4.7341">
        <ele>381.3797</ele>
        <time>2022-10-30T13:30:30.000Z</time>
      </trkpt>
      <trkpt lat="45.81943" lon="4.73415">
        <ele>381.2886</ele>
        <time>2022-10-30T13:30:31.000Z</time>
      </trkpt>
      <trkpt lat="45.81941" lon="4.73422">
        <ele>381.08878</ele>
        <time>2022-10-30T13:30:32.000Z</time>
      </trkpt>
      <trkpt lat="45.8194" lon="4.7343">
        <ele>381.02902</ele>
        <time>2022-10-30T13:30:33.000Z</time>
      </trkpt>
      <trkpt lat="45.81939" lon="4.73437">
        <ele>381.07269</ele>
        <time>2022-10-30T13:30:34.000Z</time>
      </trkpt>
      <trkpt lat="45.81939" lon="4.73443">
        <ele>381.10327</ele>
        <time>2022-10-30T13:30:35.000Z</time>
      </trkpt>
      <trkpt lat="45.81938" lon="4.7345">
        <ele>381.22552</ele>
        <time>2022-10-30T13:30:36.000Z</time>
      </trkpt>
      <trkpt lat="45.81938" lon="4.73459">
        <ele>381.33914</ele>
        <time>2022-10-30T13:30:37.000Z</time>
      </trkpt>
      <trkpt lat="45.81936" lon="4.73466">
        <ele>381.33081</ele>
        <time>2022-10-30T13:30:38.000Z</time>
      </trkpt>
      <trkpt lat="45.81935" lon="4.73473">
        <ele>381.32098</ele>
        <time>2022-10-30T13:30:39.000Z</time>
      </trkpt>
      <trkpt lat="45.81933" lon="4.7348">
        <ele>381.31647</ele>
        <time>2022-10-30T13:30:40.000Z</time>
      </trkpt>
      <trkpt lat="45.8193" lon="4.73488">
        <ele>381.38138</ele>
        <time>2022-10-30T13:30:41.000Z</time>
      </trkpt>
      <trkpt lat="45.81928" lon="4.73496">
        <ele>381.51398</ele>
        <time>2022-10-30T13:30:42.000Z</time>
      </trkpt>
      <trkpt lat="45.81924" lon="4.73506">
        <ele>381.51617</ele>
        <time>2022-10-30T13:30:43.000Z</time>
      </trkpt>
      <trkpt lat="45.81923" lon="4.73516">
        <ele>381.45053</ele>
        <time>2022-10-30T13:30:44.000Z</time>
      </trkpt>
      <trkpt lat="45.81923" lon="4.73525">
        <ele>381.35852</ele>
        <time>2022-10-30T13:30:45.000Z</time>
      </trkpt>
      <trkpt lat="45.81924" lon="4.73533">
        <ele>381.23688</ele>
        <time>2022-10-30T13:30:46.000Z</time>
      </trkpt>
      <trkpt lat="45.81925" lon="4.73541">
        <ele>380.94855</ele>
        <time>2022-10-30T13:30:47.000Z</time>
      </trkpt>
      <trkpt lat="45.81923" lon="4.73549">
        <ele>380.75204</ele>
        <time>2022-10-30T13:30:48.000Z</time>
      </trkpt>
      <trkpt lat="45.81922" lon="4.73558">
        <ele>380.54272</ele>
        <time>2022-10-30T13:30:49.000Z</time>
      </trkpt>
      <trkpt lat="45.81921" lon="4.73567">
        <ele>380.31354</ele>
        <time>2022-10-30T13:30:50.000Z</time>
      </trkpt>
      <trkpt lat="45.81919" lon="4.73578">
        <ele>380.04129</ele>
        <time>2022-10-30T13:30:51.000Z</time>
      </trkpt>
      <trkpt lat="45.81918" lon="4.73589">
        <ele>379.78992</ele>
        <time>2022-10-30T13:30:52.000Z</time>
      </trkpt>
      <trkpt lat="45.81918" lon="4.736">
        <ele>379.43759</ele>
        <time>2022-10-30T13:30:53.000Z</time>
      </trkpt>
      <trkpt lat="45.81917" lon="4.73609">
        <ele>378.96637</ele>
        <time>2022-10-30T13:30:54.000Z</time>
      </trkpt>
      <trkpt lat="45.81915" lon="4.73621">
        <ele>378.53351</ele>
        <time>2022-10-30T13:30:55.000Z</time>
      </trkpt>
      <trkpt lat="45.81911" lon="4.73631">
        <ele>378.05185</ele>
        <time>2022-10-30T13:30:56.000Z</time>
      </trkpt>
      <trkpt lat="45.8191" lon="4.73638">
        <ele>377.60498</ele>
        <time>2022-10-30T13:30:57.000Z</time>
      </trkpt>
      <trkpt lat="45.81909" lon="4.73647">
        <ele>377.19904</ele>
        <time>2022-10-30T13:30:58.000Z</time>
      </trkpt>
      <trkpt lat="45.81908" lon="4.73654">
        <ele>376.88736</ele>
        <time>2022-10-30T13:30:59.000Z</time>
      </trkpt>
      <trkpt lat="45.81907" lon="4.7366">
        <ele>376.56378</ele>
        <time>2022-10-30T13:31:00.000Z</time>
      </trkpt>
      <trkpt lat="45.81906" lon="4.73662">
        <ele>376.18805</ele>
        <time>2022-10-30T13:31:01.000Z</time>
      </trkpt>
      <trkpt lat="45.81904" lon="4.73664">
        <ele>375.68408</ele>
        <time>2022-10-30T13:31:03.000Z</time>
      </trkpt>
      <trkpt lat="45.81905" lon="4.73666">
        <ele>375.34708</ele>
        <time>2022-10-30T13:31:06.000Z</time>
      </trkpt>
      <trkpt lat="45.81905" lon="4.73669">
        <ele>375.00595</ele>
        <time>2022-10-30T13:31:14.000Z</time>
      </trkpt>
      <trkpt lat="45.81901" lon="4.73674">
        <ele>374.621</ele>
        <time>2022-10-30T13:31:40.000Z</time>
      </trkpt>
      <trkpt lat="45.81898" lon="4.73677">
        <ele>374.23862</ele>
        <time>2022-10-30T13:31:41.000Z</time>
      </trkpt>
      <trkpt lat="45.81897" lon="4.73679">
        <ele>373.92169</ele>
        <time>2022-10-30T13:31:42.000Z</time>
      </trkpt>
      <trkpt lat="45.81894" lon="4.73682">
        <ele>373.4877</ele>
        <time>2022-10-30T13:31:43.000Z</time>
      </trkpt>
      <trkpt lat="45.8189" lon="4.73685">
        <ele>373.03345</ele>
        <time>2022-10-30T13:31:44.000Z</time>
      </trkpt>
      <trkpt lat="45.81888" lon="4.73688">
        <ele>372.4736</ele>
        <time>2022-10-30T13:31:45.000Z</time>
      </trkpt>
      <trkpt lat="45.81885" lon="4.73691">
        <ele>371.93555</ele>
        <time>2022-10-30T13:31:46.000Z</time>
      </trkpt>
      <trkpt lat="45.81883" lon="4.73694">
        <ele>371.35196</ele>
        <time>2022-10-30T13:31:47.000Z</time>
      </trkpt>
      <trkpt lat="45.81881" lon="4.73697">
        <ele>370.67929</ele>
        <time>2022-10-30T13:31:48.000Z</time>
      </trkpt>
      <trkpt lat="45.81879" lon="4.73701">
        <ele>370.10507</ele>
        <time>2022-10-30T13:31:49.000Z</time>
      </trkpt>
      <trkpt lat="45.81878" lon="4.73705">
        <ele>369.5275</ele>
        <time>2022-10-30T13:31:50.000Z</time>
      </trkpt>
      <trkpt lat="45.81878" lon="4.73708">
        <ele>368.91043</ele>
        <time>2022-10-30T13:31:51.000Z</time>
      </trkpt>
      <trkpt lat="45.81878" lon="4.73711">
        <ele>368.30518</ele>
        <time>2022-10-30T13:31:52.000Z</time>
      </trkpt>
      <trkpt lat="45.81879" lon="4.73715">
        <ele>367.7356</ele>
        <time>2022-10-30T13:31:53.000Z</time>
      </trkpt>
      <trkpt lat="45.8188" lon="4.73719">
        <ele>367.08133</ele>
        <time>2022-10-30T13:31:54.000Z</time>
      </trkpt>
      <trkpt lat="45.8188" lon="4.73723">
        <ele>366.49829</ele>
        <time>2022-10-30T13:31:55.000Z</time>
      </trkpt>
      <trkpt lat="45.81881" lon="4.73726">
        <ele>365.91962</ele>
        <time>2022-10-30T13:31:56.000Z</time>
      </trkpt>
      <trkpt lat="45.81881" lon="4.73729">
        <ele>365.37625</ele>
        <time>2022-10-30T13:31:57.000Z</time>
      </trkpt>
      <trkpt lat="45.81882" lon="4.73733">
        <ele>364.88892</ele>
        <time>2022-10-30T13:31:58.000Z</time>
      </trkpt>
      <trkpt lat="45.81883" lon="4.73738">
        <ele>364.49713</ele>
        <time>2022-10-30T13:31:59.000Z</time>
      </trkpt>
      <trkpt lat="45.81884" lon="4.73743">
        <ele>364.11807</ele>
        <time>2022-10-30T13:32:00.000Z</time>
      </trkpt>
      <trkpt lat="45.81884" lon="4.73747">
        <ele>363.78503</ele>
        <time>2022-10-30T13:32:01.000Z</time>
      </trkpt>
      <trkpt lat="45.81885" lon="4.73751">
        <ele>363.4472</ele>
        <time>2022-10-30T13:32:02.000Z</time>
      </trkpt>
      <trkpt lat="45.81885" lon="4.73756">
        <ele>363.23859</ele>
        <time>2022-10-30T13:32:03.000Z</time>
      </trkpt>
      <trkpt lat="45.81886" lon="4.7376">
        <ele>362.88168</ele>
        <time>2022-10-30T13:32:04.000Z</time>
      </trkpt>
      <trkpt lat="45.81886" lon="4.73763">
        <ele>362.71579</ele>
        <time>2022-10-30T13:32:05.000Z</time>
      </trkpt>
      <trkpt lat="45.81887" lon="4.73766">
        <ele>362.59302</ele>
        <time>2022-10-30T13:32:06.000Z</time>
      </trkpt>
      <trkpt lat="45.81888" lon="4.7377">
        <ele>362.54541</ele>
        <time>2022-10-30T13:32:07.000Z</time>
      </trkpt>
      <trkpt lat="45.81889" lon="4.73774">
        <ele>362.62582</ele>
        <time>2022-10-30T13:32:08.000Z</time>
      </trkpt>
      <trkpt lat="45.81891" lon="4.73778">
        <ele>362.72693</ele>
        <time>2022-10-30T13:32:09.000Z</time>
      </trkpt>
      <trkpt lat="45.81892" lon="4.73782">
        <ele>362.73956</ele>
        <time>2022-10-30T13:32:10.000Z</time>
      </trkpt>
      <trkpt lat="45.81893" lon="4.73786">
        <ele>362.79382</ele>
        <time>2022-10-30T13:32:11.000Z</time>
      </trkpt>
      <trkpt lat="45.81894" lon="4.7379">
        <ele>362.88184</ele>
        <time>2022-10-30T13:32:12.000Z</time>
      </trkpt>
      <trkpt lat="45.81893" lon="4.73794">
        <ele>363.01138</ele>
        <time>2022-10-30T13:32:13.000Z</time>
      </trkpt>
      <trkpt lat="45.81892" lon="4.73797">
        <ele>363.19864</ele>
        <time>2022-10-30T13:32:14.000Z</time>
      </trkpt>
      <trkpt lat="45.8189" lon="4.738">
        <ele>363.3913</ele>
        <time>2022-10-30T13:32:15.000Z</time>
      </trkpt>
      <trkpt lat="45.81887" lon="4.73802">
        <ele>363.51971</ele>
        <time>2022-10-30T13:32:16.000Z</time>
      </trkpt>
      <trkpt lat="45.81885" lon="4.73802">
        <ele>363.68588</ele>
        <time>2022-10-30T13:32:17.000Z</time>
      </trkpt>
      <trkpt lat="45.81882" lon="4.73804">
        <ele>363.70297</ele>
        <time>2022-10-30T13:32:18.000Z</time>
      </trkpt>
      <trkpt lat="45.81879" lon="4.73805">
        <ele>363.66412</ele>
        <time>2022-10-30T13:32:19.000Z</time>
      </trkpt>
      <trkpt lat="45.81876" lon="4.73807">
        <ele>363.70319</ele>
        <time>2022-10-30T13:32:20.000Z</time>
      </trkpt>
      <trkpt lat="45.81872" lon="4.73808">
        <ele>363.76007</ele>
        <time>2022-10-30T13:32:21.000Z</time>
      </trkpt>
      <trkpt lat="45.81868" lon="4.73809">
        <ele>363.77344</ele>
        <time>2022-10-30T13:32:22.000Z</time>
      </trkpt>
      <trkpt lat="45.81864" lon="4.7381">
        <ele>363.77719</ele>
        <time>2022-10-30T13:32:23.000Z</time>
      </trkpt>
      <trkpt lat="45.8186" lon="4.73812">
        <ele>363.98404</ele>
        <time>2022-10-30T13:32:24.000Z</time>
      </trkpt>
      <trkpt lat="45.81857" lon="4.73813">
        <ele>364.10052</ele>
        <time>2022-10-30T13:32:25.000Z</time>
      </trkpt>
      <trkpt lat="45.81853" lon="4.73814">
        <ele>364.25577</ele>
        <time>2022-10-30T13:32:26.000Z</time>
      </trkpt>
      <trkpt lat="45.81849" lon="4.73816">
        <ele>364.45459</ele>
        <time>2022-10-30T13:32:27.000Z</time>
      </trkpt>
      <trkpt lat="45.81845" lon="4.73818">
        <ele>364.69101</ele>
        <time>2022-10-30T13:32:28.000Z</time>
      </trkpt>
      <trkpt lat="45.81841" lon="4.73819">
        <ele>364.90924</ele>
        <time>2022-10-30T13:32:29.000Z</time>
      </trkpt>
      <trkpt lat="45.81838" lon="4.7382">
        <ele>365.17145</ele>
        <time>2022-10-30T13:32:30.000Z</time>
      </trkpt>
      <trkpt lat="45.81835" lon="4.73821">
        <ele>365.38901</ele>
        <time>2022-10-30T13:32:31.000Z</time>
      </trkpt>
      <trkpt lat="45.81831" lon="4.73821">
        <ele>365.58234</ele>
        <time>2022-10-30T13:32:32.000Z</time>
      </trkpt>
      <trkpt lat="45.81828" lon="4.73822">
        <ele>365.69965</ele>
        <time>2022-10-30T13:32:33.000Z</time>
      </trkpt>
      <trkpt lat="45.81824" lon="4.73822">
        <ele>365.81635</ele>
        <time>2022-10-30T13:32:34.000Z</time>
      </trkpt>
      <trkpt lat="45.81821" lon="4.73823">
        <ele>365.87881</ele>
        <time>2022-10-30T13:32:35.000Z</time>
      </trkpt>
      <trkpt lat="45.81817" lon="4.73825">
        <ele>365.97974</ele>
        <time>2022-10-30T13:32:36.000Z</time>
      </trkpt>
      <trkpt lat="45.81814" lon="4.73826">
        <ele>366.11917</ele>
        <time>2022-10-30T13:32:37.000Z</time>
      </trkpt>
      <trkpt lat="45.8181" lon="4.73828">
        <ele>366.34399</ele>
        <time>2022-10-30T13:32:38.000Z</time>
      </trkpt>
      <trkpt lat="45.81807" lon="4.73829">
        <ele>366.62024</ele>
        <time>2022-10-30T13:32:39.000Z</time>
      </trkpt>
      <trkpt lat="45.81803" lon="4.7383">
        <ele>366.91528</ele>
        <time>2022-10-30T13:32:40.000Z</time>
      </trkpt>
      <trkpt lat="45.818" lon="4.73831">
        <ele>367.15924</ele>
        <time>2022-10-30T13:32:41.000Z</time>
      </trkpt>
      <trkpt lat="45.81798" lon="4.73833">
        <ele>367.39871</ele>
        <time>2022-10-30T13:32:42.000Z</time>
      </trkpt>
      <trkpt lat="45.81796" lon="4.73834">
        <ele>367.57404</ele>
        <time>2022-10-30T13:32:43.000Z</time>
      </trkpt>
      <trkpt lat="45.81794" lon="4.73835">
        <ele>367.72134</ele>
        <time>2022-10-30T13:32:44.000Z</time>
      </trkpt>
      <trkpt lat="45.81791" lon="4.73836">
        <ele>367.88306</ele>
        <time>2022-10-30T13:32:45.000Z</time>
      </trkpt>
      <trkpt lat="45.81788" lon="4.73837">
        <ele>368.08755</ele>
        <time>2022-10-30T13:32:46.000Z</time>
      </trkpt>
      <trkpt lat="45.81785" lon="4.73838">
        <ele>368.3465</ele>
        <time>2022-10-30T13:32:47.000Z</time>
      </trkpt>
      <trkpt lat="45.81782" lon="4.73837">
        <ele>368.53561</ele>
        <time>2022-10-30T13:32:48.000Z</time>
      </trkpt>
      <trkpt lat="45.8178" lon="4.73834">
        <ele>368.69153</ele>
        <time>2022-10-30T13:32:49.000Z</time>
      </trkpt>
      <trkpt lat="45.81778" lon="4.73832">
        <ele>368.78174</ele>
        <time>2022-10-30T13:32:50.000Z</time>
      </trkpt>
      <trkpt lat="45.81775" lon="4.73829">
        <ele>368.81699</ele>
        <time>2022-10-30T13:32:51.000Z</time>
      </trkpt>
      <trkpt lat="45.81773" lon="4.73827">
        <ele>368.79828</ele>
        <time>2022-10-30T13:32:52.000Z</time>
      </trkpt>
      <trkpt lat="45.81771" lon="4.73824">
        <ele>368.75842</ele>
        <time>2022-10-30T13:32:53.000Z</time>
      </trkpt>
      <trkpt lat="45.81769" lon="4.73822">
        <ele>368.73822</ele>
        <time>2022-10-30T13:32:54.000Z</time>
      </trkpt>
      <trkpt lat="45.81767" lon="4.7382">
        <ele>368.73917</ele>
        <time>2022-10-30T13:32:55.000Z</time>
      </trkpt>
      <trkpt lat="45.81765" lon="4.73817">
        <ele>368.73193</ele>
        <time>2022-10-30T13:32:56.000Z</time>
      </trkpt>
      <trkpt lat="45.81763" lon="4.73813">
        <ele>368.63043</ele>
        <time>2022-10-30T13:32:57.000Z</time>
      </trkpt>
      <trkpt lat="45.8176" lon="4.7381">
        <ele>368.45236</ele>
        <time>2022-10-30T13:32:58.000Z</time>
      </trkpt>
      <trkpt lat="45.81756" lon="4.73804">
        <ele>368.28519</ele>
        <time>2022-10-30T13:32:59.000Z</time>
      </trkpt>
      <trkpt lat="45.81751" lon="4.73794">
        <ele>368.0126</ele>
        <time>2022-10-30T13:33:00.000Z</time>
      </trkpt>
      <trkpt lat="45.81747" lon="4.73784">
        <ele>367.77954</ele>
        <time>2022-10-30T13:33:01.000Z</time>
      </trkpt>
      <trkpt lat="45.81745" lon="4.73775">
        <ele>367.56</ele>
        <time>2022-10-30T13:33:02.000Z</time>
      </trkpt>
      <trkpt lat="45.81742" lon="4.73768">
        <ele>367.45319</ele>
        <time>2022-10-30T13:33:03.000Z</time>
      </trkpt>
      <trkpt lat="45.8174" lon="4.73757">
        <ele>367.32071</ele>
        <time>2022-10-30T13:33:04.000Z</time>
      </trkpt>
      <trkpt lat="45.81738" lon="4.73747">
        <ele>367.00302</ele>
        <time>2022-10-30T13:33:05.000Z</time>
      </trkpt>
      <trkpt lat="45.81736" lon="4.73734">
        <ele>366.54037</ele>
        <time>2022-10-30T13:33:06.000Z</time>
      </trkpt>
      <trkpt lat="45.81734" lon="4.73724">
        <ele>366.00754</ele>
        <time>2022-10-30T13:33:07.000Z</time>
      </trkpt>
      <trkpt lat="45.8173" lon="4.73712">
        <ele>365.49643</ele>
        <time>2022-10-30T13:33:08.000Z</time>
      </trkpt>
      <trkpt lat="45.81729" lon="4.73704">
        <ele>364.96884</ele>
        <time>2022-10-30T13:33:09.000Z</time>
      </trkpt>
      <trkpt lat="45.81725" lon="4.73694">
        <ele>364.46127</ele>
        <time>2022-10-30T13:33:10.000Z</time>
      </trkpt>
      <trkpt lat="45.81721" lon="4.73685">
        <ele>363.97833</ele>
        <time>2022-10-30T13:33:11.000Z</time>
      </trkpt>
      <trkpt lat="45.81717" lon="4.73676">
        <ele>363.48843</ele>
        <time>2022-10-30T13:33:12.000Z</time>
      </trkpt>
      <trkpt lat="45.81713" lon="4.73668">
        <ele>363.05908</ele>
        <time>2022-10-30T13:33:13.000Z</time>
      </trkpt>
      <trkpt lat="45.8171" lon="4.73663">
        <ele>362.5979</ele>
        <time>2022-10-30T13:33:14.000Z</time>
      </trkpt>
      <trkpt lat="45.81705" lon="4.73658">
        <ele>362.08917</ele>
        <time>2022-10-30T13:33:15.000Z</time>
      </trkpt>
      <trkpt lat="45.817" lon="4.73653">
        <ele>361.66522</ele>
        <time>2022-10-30T13:33:16.000Z</time>
      </trkpt>
      <trkpt lat="45.81696" lon="4.73646">
        <ele>361.27808</ele>
        <time>2022-10-30T13:33:17.000Z</time>
      </trkpt>
      <trkpt lat="45.81691" lon="4.73641">
        <ele>360.96658</ele>
        <time>2022-10-30T13:33:18.000Z</time>
      </trkpt>
      <trkpt lat="45.81686" lon="4.73636">
        <ele>360.7691</ele>
        <time>2022-10-30T13:33:19.000Z</time>
      </trkpt>
      <trkpt lat="45.81681" lon="4.73629">
        <ele>360.66876</ele>
        <time>2022-10-30T13:33:20.000Z</time>
      </trkpt>
      <trkpt lat="45.81678" lon="4.73626">
        <ele>360.52386</ele>
        <time>2022-10-30T13:33:21.000Z</time>
      </trkpt>
      <trkpt lat="45.81674" lon="4.73622">
        <ele>360.39032</ele>
        <time>2022-10-30T13:33:22.000Z</time>
      </trkpt>
      <trkpt lat="45.81669" lon="4.73619">
        <ele>360.18436</ele>
        <time>2022-10-30T13:33:23.000Z</time>
      </trkpt>
      <trkpt lat="45.81665" lon="4.73615">
        <ele>360.1405</ele>
        <time>2022-10-30T13:33:24.000Z</time>
      </trkpt>
      <trkpt lat="45.81661" lon="4.73611">
        <ele>360.28448</ele>
        <time>2022-10-30T13:33:25.000Z</time>
      </trkpt>
      <trkpt lat="45.81656" lon="4.73607">
        <ele>360.46011</ele>
        <time>2022-10-30T13:33:26.000Z</time>
      </trkpt>
      <trkpt lat="45.81651" lon="4.73602">
        <ele>360.63922</ele>
        <time>2022-10-30T13:33:27.000Z</time>
      </trkpt>
      <trkpt lat="45.81648" lon="4.73597">
        <ele>360.88663</ele>
        <time>2022-10-30T13:33:28.000Z</time>
      </trkpt>
      <trkpt lat="45.81645" lon="4.73592">
        <ele>361.30344</ele>
        <time>2022-10-30T13:33:29.000Z</time>
      </trkpt>
      <trkpt lat="45.81641" lon="4.73588">
        <ele>361.80145</ele>
        <time>2022-10-30T13:33:30.000Z</time>
      </trkpt>
      <trkpt lat="45.81637" lon="4.73583">
        <ele>362.37759</ele>
        <time>2022-10-30T13:33:31.000Z</time>
      </trkpt>
      <trkpt lat="45.81634" lon="4.73579">
        <ele>362.99005</ele>
        <time>2022-10-30T13:33:32.000Z</time>
      </trkpt>
      <trkpt lat="45.8163" lon="4.73575">
        <ele>363.64462</ele>
        <time>2022-10-30T13:33:33.000Z</time>
      </trkpt>
      <trkpt lat="45.81626" lon="4.73571">
        <ele>364.30557</ele>
        <time>2022-10-30T13:33:34.000Z</time>
      </trkpt>
      <trkpt lat="45.81622" lon="4.73567">
        <ele>364.96246</ele>
        <time>2022-10-30T13:33:35.000Z</time>
      </trkpt>
      <trkpt lat="45.81618" lon="4.73562">
        <ele>365.55783</ele>
        <time>2022-10-30T13:33:36.000Z</time>
      </trkpt>
      <trkpt lat="45.81615" lon="4.73558">
        <ele>366.1705</ele>
        <time>2022-10-30T13:33:37.000Z</time>
      </trkpt>
      <trkpt lat="45.81611" lon="4.73554">
        <ele>366.80594</ele>
        <time>2022-10-30T13:33:38.000Z</time>
      </trkpt>
      <trkpt lat="45.81607" lon="4.7355">
        <ele>367.30072</ele>
        <time>2022-10-30T13:33:39.000Z</time>
      </trkpt>
      <trkpt lat="45.81603" lon="4.73546">
        <ele>367.78854</ele>
        <time>2022-10-30T13:33:40.000Z</time>
      </trkpt>
      <trkpt lat="45.816" lon="4.73541">
        <ele>368.28265</ele>
        <time>2022-10-30T13:33:41.000Z</time>
      </trkpt>
      <trkpt lat="45.81596" lon="4.73537">
        <ele>368.76849</ele>
        <time>2022-10-30T13:33:42.000Z</time>
      </trkpt>
      <trkpt lat="45.81593" lon="4.73533">
        <ele>369.29587</ele>
        <time>2022-10-30T13:33:43.000Z</time>
      </trkpt>
      <trkpt lat="45.81592" lon="4.7353">
        <ele>369.80005</ele>
        <time>2022-10-30T13:33:46.000Z</time>
      </trkpt>
      <trkpt lat="45.81589" lon="4.73526">
        <ele>370.2998</ele>
        <time>2022-10-30T13:33:47.000Z</time>
      </trkpt>
      <trkpt lat="45.81586" lon="4.73523">
        <ele>370.91516</ele>
        <time>2022-10-30T13:33:48.000Z</time>
      </trkpt>
      <trkpt lat="45.81584" lon="4.7352">
        <ele>371.52267</ele>
        <time>2022-10-30T13:33:50.000Z</time>
      </trkpt>
      <trkpt lat="45.81569" lon="4.73497">
        <ele>371.85965</ele>
        <time>2022-10-30T13:33:53.000Z</time>
      </trkpt>
      <trkpt lat="45.81568" lon="4.73502">
        <ele>372.10345</ele>
        <time>2022-10-30T13:33:54.000Z</time>
      </trkpt>
      <trkpt lat="45.81567" lon="4.73507">
        <ele>372.36108</ele>
        <time>2022-10-30T13:34:02.000Z</time>
      </trkpt>
      <trkpt lat="45.81566" lon="4.73511">
        <ele>372.58051</ele>
        <time>2022-10-30T13:34:03.000Z</time>
      </trkpt>
      <trkpt lat="45.81565" lon="4.73513">
        <ele>372.73492</ele>
        <time>2022-10-30T13:34:04.000Z</time>
      </trkpt>
      <trkpt lat="45.81564" lon="4.73517">
        <ele>372.79337</ele>
        <time>2022-10-30T13:34:05.000Z</time>
      </trkpt>
      <trkpt lat="45.81562" lon="4.73522">
        <ele>372.79587</ele>
        <time>2022-10-30T13:34:06.000Z</time>
      </trkpt>
      <trkpt lat="45.8156" lon="4.73527">
        <ele>373.05197</ele>
        <time>2022-10-30T13:34:08.000Z</time>
      </trkpt>
      <trkpt lat="45.81558" lon="4.7353">
        <ele>373.23438</ele>
        <time>2022-10-30T13:34:09.000Z</time>
      </trkpt>
      <trkpt lat="45.81557" lon="4.73534">
        <ele>373.42151</ele>
        <time>2022-10-30T13:34:10.000Z</time>
      </trkpt>
      <trkpt lat="45.81557" lon="4.73537">
        <ele>373.54221</ele>
        <time>2022-10-30T13:34:11.000Z</time>
      </trkpt>
      <trkpt lat="45.81557" lon="4.7354">
        <ele>373.66101</ele>
        <time>2022-10-30T13:34:12.000Z</time>
      </trkpt>
      <trkpt lat="45.81556" lon="4.73545">
        <ele>373.75262</ele>
        <time>2022-10-30T13:34:13.000Z</time>
      </trkpt>
      <trkpt lat="45.81555" lon="4.73549">
        <ele>373.80933</ele>
        <time>2022-10-30T13:34:14.000Z</time>
      </trkpt>
      <trkpt lat="45.81555" lon="4.73553">
        <ele>373.89154</ele>
        <time>2022-10-30T13:34:15.000Z</time>
      </trkpt>
      <trkpt lat="45.81554" lon="4.73557">
        <ele>374.04108</ele>
        <time>2022-10-30T13:34:16.000Z</time>
      </trkpt>
      <trkpt lat="45.81554" lon="4.73561">
        <ele>374.02533</ele>
        <time>2022-10-30T13:34:17.000Z</time>
      </trkpt>
      <trkpt lat="45.81552" lon="4.73571">
        <ele>374.10068</ele>
        <time>2022-10-30T13:34:18.000Z</time>
      </trkpt>
      <trkpt lat="45.8155" lon="4.73576">
        <ele>374.12744</ele>
        <time>2022-10-30T13:34:19.000Z</time>
      </trkpt>
      <trkpt lat="45.81548" lon="4.73581">
        <ele>374.18204</ele>
        <time>2022-10-30T13:34:20.000Z</time>
      </trkpt>
      <trkpt lat="45.81547" lon="4.73588">
        <ele>374.41415</ele>
        <time>2022-10-30T13:34:21.000Z</time>
      </trkpt>
      <trkpt lat="45.81545" lon="4.73593">
        <ele>374.70074</ele>
        <time>2022-10-30T13:34:22.000Z</time>
      </trkpt>
      <trkpt lat="45.81544" lon="4.73599">
        <ele>374.98248</ele>
        <time>2022-10-30T13:34:23.000Z</time>
      </trkpt>
      <trkpt lat="45.81544" lon="4.73603">
        <ele>375.38165</ele>
        <time>2022-10-30T13:34:24.000Z</time>
      </trkpt>
      <trkpt lat="45.81541" lon="4.73607">
        <ele>375.77362</ele>
        <time>2022-10-30T13:34:25.000Z</time>
      </trkpt>
      <trkpt lat="45.81539" lon="4.73614">
        <ele>376.16937</ele>
        <time>2022-10-30T13:34:26.000Z</time>
      </trkpt>
      <trkpt lat="45.81537" lon="4.7362">
        <ele>376.54672</ele>
        <time>2022-10-30T13:34:27.000Z</time>
      </trkpt>
      <trkpt lat="45.81534" lon="4.73626">
        <ele>376.65948</ele>
        <time>2022-10-30T13:34:28.000Z</time>
      </trkpt>
      <trkpt lat="45.81531" lon="4.73632">
        <ele>376.81183</ele>
        <time>2022-10-30T13:34:29.000Z</time>
      </trkpt>
      <trkpt lat="45.81529" lon="4.73637">
        <ele>376.88379</ele>
        <time>2022-10-30T13:34:30.000Z</time>
      </trkpt>
      <trkpt lat="45.81527" lon="4.73647">
        <ele>376.91949</ele>
        <time>2022-10-30T13:34:31.000Z</time>
      </trkpt>
      <trkpt lat="45.81525" lon="4.73653">
        <ele>376.89957</ele>
        <time>2022-10-30T13:34:32.000Z</time>
      </trkpt>
      <trkpt lat="45.81522" lon="4.73664">
        <ele>376.77908</ele>
        <time>2022-10-30T13:34:33.000Z</time>
      </trkpt>
      <trkpt lat="45.81518" lon="4.73674">
        <ele>376.56415</ele>
        <time>2022-10-30T13:34:34.000Z</time>
      </trkpt>
      <trkpt lat="45.81515" lon="4.73685">
        <ele>376.25726</ele>
        <time>2022-10-30T13:34:35.000Z</time>
      </trkpt>
      <trkpt lat="45.81513" lon="4.73692">
        <ele>375.90121</ele>
        <time>2022-10-30T13:34:36.000Z</time>
      </trkpt>
      <trkpt lat="45.81511" lon="4.73702">
        <ele>375.56134</ele>
        <time>2022-10-30T13:34:37.000Z</time>
      </trkpt>
      <trkpt lat="45.81509" lon="4.73713">
        <ele>375.09384</ele>
        <time>2022-10-30T13:34:38.000Z</time>
      </trkpt>
      <trkpt lat="45.81506" lon="4.73722">
        <ele>374.55139</ele>
        <time>2022-10-30T13:34:39.000Z</time>
      </trkpt>
      <trkpt lat="45.81503" lon="4.73733">
        <ele>373.84491</ele>
        <time>2022-10-30T13:34:40.000Z</time>
      </trkpt>
      <trkpt lat="45.815" lon="4.73741">
        <ele>373.18198</ele>
        <time>2022-10-30T13:34:41.000Z</time>
      </trkpt>
      <trkpt lat="45.81496" lon="4.73745">
        <ele>372.37543</ele>
        <time>2022-10-30T13:34:42.000Z</time>
      </trkpt>
      <trkpt lat="45.81495" lon="4.7375">
        <ele>371.51352</ele>
        <time>2022-10-30T13:34:43.000Z</time>
      </trkpt>
      <trkpt lat="45.81493" lon="4.7376">
        <ele>370.2894</ele>
        <time>2022-10-30T13:34:44.000Z</time>
      </trkpt>
      <trkpt lat="45.81494" lon="4.73769">
        <ele>369.17462</ele>
        <time>2022-10-30T13:34:45.000Z</time>
      </trkpt>
      <trkpt lat="45.81491" lon="4.73774">
        <ele>368.05624</ele>
        <time>2022-10-30T13:34:46.000Z</time>
      </trkpt>
      <trkpt lat="45.81492" lon="4.73777">
        <ele>367.06268</ele>
        <time>2022-10-30T13:34:47.000Z</time>
      </trkpt>
      <trkpt lat="45.81493" lon="4.7378">
        <ele>366.09503</ele>
        <time>2022-10-30T13:34:48.000Z</time>
      </trkpt>
      <trkpt lat="45.8149" lon="4.73787">
        <ele>365.14557</ele>
        <time>2022-10-30T13:34:49.000Z</time>
      </trkpt>
      <trkpt lat="45.8149" lon="4.73791">
        <ele>364.25317</ele>
        <time>2022-10-30T13:34:50.000Z</time>
      </trkpt>
      <trkpt lat="45.81491" lon="4.73796">
        <ele>363.42902</ele>
        <time>2022-10-30T13:34:51.000Z</time>
      </trkpt>
      <trkpt lat="45.81491" lon="4.73801">
        <ele>362.71399</ele>
        <time>2022-10-30T13:34:52.000Z</time>
      </trkpt>
      <trkpt lat="45.81492" lon="4.73805">
        <ele>362.10333</ele>
        <time>2022-10-30T13:34:53.000Z</time>
      </trkpt>
      <trkpt lat="45.81492" lon="4.7381">
        <ele>361.68356</ele>
        <time>2022-10-30T13:34:54.000Z</time>
      </trkpt>
      <trkpt lat="45.81492" lon="4.73814">
        <ele>361.34549</ele>
        <time>2022-10-30T13:34:55.000Z</time>
      </trkpt>
      <trkpt lat="45.81493" lon="4.73819">
        <ele>360.90088</ele>
        <time>2022-10-30T13:34:56.000Z</time>
      </trkpt>
      <trkpt lat="45.81493" lon="4.73824">
        <ele>360.50815</ele>
        <time>2022-10-30T13:34:57.000Z</time>
      </trkpt>
      <trkpt lat="45.81494" lon="4.7383">
        <ele>360.18839</ele>
        <time>2022-10-30T13:34:58.000Z</time>
      </trkpt>
      <trkpt lat="45.81495" lon="4.73836">
        <ele>359.93488</ele>
        <time>2022-10-30T13:34:59.000Z</time>
      </trkpt>
      <trkpt lat="45.81496" lon="4.73841">
        <ele>359.95529</ele>
        <time>2022-10-30T13:35:00.000Z</time>
      </trkpt>
      <trkpt lat="45.81497" lon="4.73847">
        <ele>359.93668</ele>
        <time>2022-10-30T13:35:01.000Z</time>
      </trkpt>
      <trkpt lat="45.81498" lon="4.73853">
        <ele>359.95096</ele>
        <time>2022-10-30T13:35:02.000Z</time>
      </trkpt>
      <trkpt lat="45.81498" lon="4.73858">
        <ele>359.92957</ele>
        <time>2022-10-30T13:35:03.000Z</time>
      </trkpt>
      <trkpt lat="45.81497" lon="4.73864">
        <ele>360.05603</ele>
        <time>2022-10-30T13:35:04.000Z</time>
      </trkpt>
      <trkpt lat="45.81496" lon="4.73869">
        <ele>360.13852</ele>
        <time>2022-10-30T13:35:05.000Z</time>
      </trkpt>
      <trkpt lat="45.81496" lon="4.73874">
        <ele>360.23157</ele>
        <time>2022-10-30T13:35:06.000Z</time>
      </trkpt>
      <trkpt lat="45.81495" lon="4.73877">
        <ele>360.15656</ele>
        <time>2022-10-30T13:35:07.000Z</time>
      </trkpt>
      <trkpt lat="45.81493" lon="4.73879">
        <ele>360.08698</ele>
        <time>2022-10-30T13:35:08.000Z</time>
      </trkpt>
      <trkpt lat="45.81493" lon="4.73882">
        <ele>359.95923</ele>
        <time>2022-10-30T13:35:09.000Z</time>
      </trkpt>
      <trkpt lat="45.81493" lon="4.73886">
        <ele>359.7955</ele>
        <time>2022-10-30T13:35:10.000Z</time>
      </trkpt>
      <trkpt lat="45.81493" lon="4.73889">
        <ele>359.59576</ele>
        <time>2022-10-30T13:35:11.000Z</time>
      </trkpt>
      <trkpt lat="45.81492" lon="4.73892">
        <ele>359.34351</ele>
        <time>2022-10-30T13:35:12.000Z</time>
      </trkpt>
      <trkpt lat="45.81492" lon="4.73896">
        <ele>359.09192</ele>
        <time>2022-10-30T13:35:13.000Z</time>
      </trkpt>
      <trkpt lat="45.81492" lon="4.73899">
        <ele>358.69299</ele>
        <time>2022-10-30T13:35:14.000Z</time>
      </trkpt>
      <trkpt lat="45.81491" lon="4.73902">
        <ele>358.18607</ele>
        <time>2022-10-30T13:35:15.000Z</time>
      </trkpt>
      <trkpt lat="45.81491" lon="4.73906">
        <ele>357.71954</ele>
        <time>2022-10-30T13:35:16.000Z</time>
      </trkpt>
      <trkpt lat="45.81491" lon="4.73909">
        <ele>357.19046</ele>
        <time>2022-10-30T13:35:17.000Z</time>
      </trkpt>
      <trkpt lat="45.81491" lon="4.73912">
        <ele>356.66193</ele>
        <time>2022-10-30T13:35:18.000Z</time>
      </trkpt>
      <trkpt lat="45.8149" lon="4.73915">
        <ele>356.09482</ele>
        <time>2022-10-30T13:35:19.000Z</time>
      </trkpt>
      <trkpt lat="45.8149" lon="4.73918">
        <ele>355.33072</ele>
        <time>2022-10-30T13:35:20.000Z</time>
      </trkpt>
      <trkpt lat="45.8149" lon="4.73921">
        <ele>354.57339</ele>
        <time>2022-10-30T13:35:21.000Z</time>
      </trkpt>
      <trkpt lat="45.81489" lon="4.73924">
        <ele>353.81274</ele>
        <time>2022-10-30T13:35:22.000Z</time>
      </trkpt>
      <trkpt lat="45.81488" lon="4.73928">
        <ele>353.08246</ele>
        <time>2022-10-30T13:35:23.000Z</time>
      </trkpt>
      <trkpt lat="45.81486" lon="4.73932">
        <ele>352.44257</ele>
        <time>2022-10-30T13:35:24.000Z</time>
      </trkpt>
      <trkpt lat="45.81484" lon="4.73937">
        <ele>351.80838</ele>
        <time>2022-10-30T13:35:25.000Z</time>
      </trkpt>
      <trkpt lat="45.81483" lon="4.73941">
        <ele>351.07428</ele>
        <time>2022-10-30T13:35:26.000Z</time>
      </trkpt>
      <trkpt lat="45.81483" lon="4.73945">
        <ele>350.51208</ele>
        <time>2022-10-30T13:35:27.000Z</time>
      </trkpt>
      <trkpt lat="45.81482" lon="4.73949">
        <ele>349.93985</ele>
        <time>2022-10-30T13:35:28.000Z</time>
      </trkpt>
      <trkpt lat="45.81481" lon="4.73953">
        <ele>349.45087</ele>
        <time>2022-10-30T13:35:29.000Z</time>
      </trkpt>
      <trkpt lat="45.8148" lon="4.73956">
        <ele>348.94122</ele>
        <time>2022-10-30T13:35:30.000Z</time>
      </trkpt>
      <trkpt lat="45.81479" lon="4.73959">
        <ele>348.37421</ele>
        <time>2022-10-30T13:35:31.000Z</time>
      </trkpt>
      <trkpt lat="45.81477" lon="4.73962">
        <ele>347.78775</ele>
        <time>2022-10-30T13:35:32.000Z</time>
      </trkpt>
      <trkpt lat="45.81476" lon="4.73966">
        <ele>347.17542</ele>
        <time>2022-10-30T13:35:33.000Z</time>
      </trkpt>
      <trkpt lat="45.81474" lon="4.7397">
        <ele>346.6413</ele>
        <time>2022-10-30T13:35:34.000Z</time>
      </trkpt>
      <trkpt lat="45.81472" lon="4.73973">
        <ele>346.20313</ele>
        <time>2022-10-30T13:35:35.000Z</time>
      </trkpt>
      <trkpt lat="45.81471" lon="4.73976">
        <ele>345.79272</ele>
        <time>2022-10-30T13:35:36.000Z</time>
      </trkpt>
      <trkpt lat="45.81469" lon="4.73979">
        <ele>345.42905</ele>
        <time>2022-10-30T13:35:37.000Z</time>
      </trkpt>
      <trkpt lat="45.81468" lon="4.73982">
        <ele>345.16891</ele>
        <time>2022-10-30T13:35:38.000Z</time>
      </trkpt>
      <trkpt lat="45.81467" lon="4.73985">
        <ele>344.94156</ele>
        <time>2022-10-30T13:35:39.000Z</time>
      </trkpt>
      <trkpt lat="45.81465" lon="4.73989">
        <ele>344.72501</ele>
        <time>2022-10-30T13:35:40.000Z</time>
      </trkpt>
      <trkpt lat="45.81463" lon="4.73994">
        <ele>344.50793</ele>
        <time>2022-10-30T13:35:41.000Z</time>
      </trkpt>
      <trkpt lat="45.81461" lon="4.73998">
        <ele>344.24985</ele>
        <time>2022-10-30T13:35:42.000Z</time>
      </trkpt>
      <trkpt lat="45.81459" lon="4.74001">
        <ele>344.02292</ele>
        <time>2022-10-30T13:35:43.000Z</time>
      </trkpt>
      <trkpt lat="45.81456" lon="4.74003">
        <ele>343.8237</ele>
        <time>2022-10-30T13:35:44.000Z</time>
      </trkpt>
      <trkpt lat="45.81454" lon="4.74005">
        <ele>343.54028</ele>
        <time>2022-10-30T13:35:45.000Z</time>
      </trkpt>
      <trkpt lat="45.81451" lon="4.74006">
        <ele>343.36646</ele>
        <time>2022-10-30T13:35:46.000Z</time>
      </trkpt>
      <trkpt lat="45.81449" lon="4.74006">
        <ele>343.17935</ele>
        <time>2022-10-30T13:35:47.000Z</time>
      </trkpt>
      <trkpt lat="45.81447" lon="4.74004">
        <ele>343.01208</ele>
        <time>2022-10-30T13:35:48.000Z</time>
      </trkpt>
      <trkpt lat="45.81445" lon="4.74001">
        <ele>342.89178</ele>
        <time>2022-10-30T13:35:49.000Z</time>
      </trkpt>
      <trkpt lat="45.81443" lon="4.73998">
        <ele>342.89819</ele>
        <time>2022-10-30T13:35:50.000Z</time>
      </trkpt>
      <trkpt lat="45.81441" lon="4.73995">
        <ele>343.00635</ele>
        <time>2022-10-30T13:35:51.000Z</time>
      </trkpt>
      <trkpt lat="45.81439" lon="4.73993">
        <ele>343.13647</ele>
        <time>2022-10-30T13:35:52.000Z</time>
      </trkpt>
      <trkpt lat="45.81437" lon="4.7399">
        <ele>343.3201</ele>
        <time>2022-10-30T13:35:53.000Z</time>
      </trkpt>
      <trkpt lat="45.81435" lon="4.73988">
        <ele>343.56015</ele>
        <time>2022-10-30T13:35:54.000Z</time>
      </trkpt>
      <trkpt lat="45.81433" lon="4.73986">
        <ele>343.81693</ele>
        <time>2022-10-30T13:35:55.000Z</time>
      </trkpt>
      <trkpt lat="45.81431" lon="4.73983">
        <ele>344.09674</ele>
        <time>2022-10-30T13:35:56.000Z</time>
      </trkpt>
      <trkpt lat="45.81428" lon="4.7398">
        <ele>344.40924</ele>
        <time>2022-10-30T13:35:57.000Z</time>
      </trkpt>
      <trkpt lat="45.81426" lon="4.73977">
        <ele>344.5968</ele>
        <time>2022-10-30T13:35:58.000Z</time>
      </trkpt>
      <trkpt lat="45.81425" lon="4.73975">
        <ele>344.85477</ele>
        <time>2022-10-30T13:35:59.000Z</time>
      </trkpt>
      <trkpt lat="45.81424" lon="4.73974">
        <ele>345.23755</ele>
        <time>2022-10-30T13:36:00.000Z</time>
      </trkpt>
      <trkpt lat="45.81422" lon="4.73971">
        <ele>345.65366</ele>
        <time>2022-10-30T13:36:01.000Z</time>
      </trkpt>
      <trkpt lat="45.81421" lon="4.73967">
        <ele>346.12427</ele>
        <time>2022-10-30T13:36:02.000Z</time>
      </trkpt>
      <trkpt lat="45.8142" lon="4.73964">
        <ele>346.61151</ele>
        <time>2022-10-30T13:36:03.000Z</time>
      </trkpt>
      <trkpt lat="45.81418" lon="4.73961">
        <ele>347.08014</ele>
        <time>2022-10-30T13:36:04.000Z</time>
      </trkpt>
      <trkpt lat="45.81415" lon="4.73958">
        <ele>347.68378</ele>
        <time>2022-10-30T13:36:05.000Z</time>
      </trkpt>
      <trkpt lat="45.81412" lon="4.73954">
        <ele>348.27438</ele>
        <time>2022-10-30T13:36:06.000Z</time>
      </trkpt>
      <trkpt lat="45.8141" lon="4.73951">
        <ele>348.87524</ele>
        <time>2022-10-30T13:36:07.000Z</time>
      </trkpt>
      <trkpt lat="45.81407" lon="4.73947">
        <ele>349.42294</ele>
        <time>2022-10-30T13:36:08.000Z</time>
      </trkpt>
      <trkpt lat="45.81405" lon="4.73944">
        <ele>349.99957</ele>
        <time>2022-10-30T13:36:09.000Z</time>
      </trkpt>
      <trkpt lat="45.81402" lon="4.7394">
        <ele>350.48111</ele>
        <time>2022-10-30T13:36:10.000Z</time>
      </trkpt>
      <trkpt lat="45.81399" lon="4.73937">
        <ele>350.8978</ele>
        <time>2022-10-30T13:36:11.000Z</time>
      </trkpt>
      <trkpt lat="45.81396" lon="4.73934">
        <ele>351.35214</ele>
        <time>2022-10-30T13:36:12.000Z</time>
      </trkpt>
      <trkpt lat="45.81393" lon="4.73931">
        <ele>351.77539</ele>
        <time>2022-10-30T13:36:13.000Z</time>
      </trkpt>
      <trkpt lat="45.81391" lon="4.73927">
        <ele>352.14624</ele>
        <time>2022-10-30T13:36:14.000Z</time>
      </trkpt>
      <trkpt lat="45.81389" lon="4.73924">
        <ele>352.49353</ele>
        <time>2022-10-30T13:36:15.000Z</time>
      </trkpt>
      <trkpt lat="45.81386" lon="4.7392">
        <ele>352.86719</ele>
        <time>2022-10-30T13:36:16.000Z</time>
      </trkpt>
      <trkpt lat="45.81384" lon="4.73917">
        <ele>353.30072</ele>
        <time>2022-10-30T13:36:17.000Z</time>
      </trkpt>
      <trkpt lat="45.81382" lon="4.73913">
        <ele>353.737</ele>
        <time>2022-10-30T13:36:18.000Z</time>
      </trkpt>
      <trkpt lat="45.8138" lon="4.7391">
        <ele>354.07388</ele>
        <time>2022-10-30T13:36:19.000Z</time>
      </trkpt>
      <trkpt lat="45.81378" lon="4.73906">
        <ele>354.31561</ele>
        <time>2022-10-30T13:36:20.000Z</time>
      </trkpt>
      <trkpt lat="45.81376" lon="4.73902">
        <ele>354.49744</ele>
        <time>2022-10-30T13:36:21.000Z</time>
      </trkpt>
      <trkpt lat="45.81374" lon="4.73898">
        <ele>354.74603</ele>
        <time>2022-10-30T13:36:22.000Z</time>
      </trkpt>
      <trkpt lat="45.81372" lon="4.73895">
        <ele>355.03687</ele>
        <time>2022-10-30T13:36:23.000Z</time>
      </trkpt>
      <trkpt lat="45.8137" lon="4.73891">
        <ele>355.35596</ele>
        <time>2022-10-30T13:36:24.000Z</time>
      </trkpt>
      <trkpt lat="45.81368" lon="4.73888">
        <ele>355.61713</ele>
        <time>2022-10-30T13:36:25.000Z</time>
      </trkpt>
      <trkpt lat="45.81365" lon="4.73884">
        <ele>355.95883</ele>
        <time>2022-10-30T13:36:26.000Z</time>
      </trkpt>
      <trkpt lat="45.81365" lon="4.73879">
        <ele>356.27512</ele>
        <time>2022-10-30T13:36:27.000Z</time>
      </trkpt>
      <trkpt lat="45.81362" lon="4.73874">
        <ele>356.63702</ele>
        <time>2022-10-30T13:36:28.000Z</time>
      </trkpt>
      <trkpt lat="45.81361" lon="4.7387">
        <ele>356.8913</ele>
        <time>2022-10-30T13:36:29.000Z</time>
      </trkpt>
      <trkpt lat="45.81358" lon="4.73867">
        <ele>357.20377</ele>
        <time>2022-10-30T13:36:30.000Z</time>
      </trkpt>
      <trkpt lat="45.81357" lon="4.73861">
        <ele>357.45068</ele>
        <time>2022-10-30T13:36:31.000Z</time>
      </trkpt>
      <trkpt lat="45.81355" lon="4.73857">
        <ele>357.80341</ele>
        <time>2022-10-30T13:36:32.000Z</time>
      </trkpt>
      <trkpt lat="45.81352" lon="4.73852">
        <ele>358.16672</ele>
        <time>2022-10-30T13:36:33.000Z</time>
      </trkpt>
      <trkpt lat="45.81349" lon="4.73848">
        <ele>358.57388</ele>
        <time>2022-10-30T13:36:34.000Z</time>
      </trkpt>
      <trkpt lat="45.81347" lon="4.73844">
        <ele>358.94623</ele>
        <time>2022-10-30T13:36:35.000Z</time>
      </trkpt>
      <trkpt lat="45.81344" lon="4.73841">
        <ele>359.30618</ele>
        <time>2022-10-30T13:36:36.000Z</time>
      </trkpt>
      <trkpt lat="45.81341" lon="4.73837">
        <ele>359.65558</ele>
        <time>2022-10-30T13:36:37.000Z</time>
      </trkpt>
      <trkpt lat="45.81339" lon="4.73833">
        <ele>360.0611</ele>
        <time>2022-10-30T13:36:38.000Z</time>
      </trkpt>
      <trkpt lat="45.81336" lon="4.73829">
        <ele>360.59711</ele>
        <time>2022-10-30T13:36:39.000Z</time>
      </trkpt>
      <trkpt lat="45.81333" lon="4.73825">
        <ele>361.10553</ele>
        <time>2022-10-30T13:36:40.000Z</time>
      </trkpt>
      <trkpt lat="45.8133" lon="4.7382">
        <ele>361.70514</ele>
        <time>2022-10-30T13:36:41.000Z</time>
      </trkpt>
      <trkpt lat="45.81327" lon="4.73816">
        <ele>362.24261</ele>
        <time>2022-10-30T13:36:42.000Z</time>
      </trkpt>
      <trkpt lat="45.81324" lon="4.73812">
        <ele>362.70865</ele>
        <time>2022-10-30T13:36:43.000Z</time>
      </trkpt>
      <trkpt lat="45.81321" lon="4.73808">
        <ele>363.17291</ele>
        <time>2022-10-30T13:36:44.000Z</time>
      </trkpt>
      <trkpt lat="45.81318" lon="4.73804">
        <ele>363.65402</ele>
        <time>2022-10-30T13:36:45.000Z</time>
      </trkpt>
      <trkpt lat="45.81315" lon="4.73801">
        <ele>364.1095</ele>
        <time>2022-10-30T13:36:46.000Z</time>
      </trkpt>
      <trkpt lat="45.81311" lon="4.73797">
        <ele>364.61279</ele>
        <time>2022-10-30T13:36:47.000Z</time>
      </trkpt>
      <trkpt lat="45.81309" lon="4.73793">
        <ele>365.13986</ele>
        <time>2022-10-30T13:36:48.000Z</time>
      </trkpt>
      <trkpt lat="45.81307" lon="4.73789">
        <ele>365.66464</ele>
        <time>2022-10-30T13:36:49.000Z</time>
      </trkpt>
      <trkpt lat="45.81304" lon="4.73786">
        <ele>366.16275</ele>
        <time>2022-10-30T13:36:50.000Z</time>
      </trkpt>
      <trkpt lat="45.81301" lon="4.73782">
        <ele>366.78476</ele>
        <time>2022-10-30T13:36:51.000Z</time>
      </trkpt>
      <trkpt lat="45.81298" lon="4.73779">
        <ele>367.22623</ele>
        <time>2022-10-30T13:36:52.000Z</time>
      </trkpt>
      <trkpt lat="45.81295" lon="4.73776">
        <ele>367.77008</ele>
        <time>2022-10-30T13:36:53.000Z</time>
      </trkpt>
      <trkpt lat="45.81293" lon="4.73773">
        <ele>368.33701</ele>
        <time>2022-10-30T13:36:54.000Z</time>
      </trkpt>
      <trkpt lat="45.8129" lon="4.7377">
        <ele>368.92252</ele>
        <time>2022-10-30T13:36:55.000Z</time>
      </trkpt>
      <trkpt lat="45.81286" lon="4.73767">
        <ele>369.43466</ele>
        <time>2022-10-30T13:36:56.000Z</time>
      </trkpt>
      <trkpt lat="45.81283" lon="4.73762">
        <ele>369.923</ele>
        <time>2022-10-30T13:36:57.000Z</time>
      </trkpt>
      <trkpt lat="45.8128" lon="4.73758">
        <ele>370.41779</ele>
        <time>2022-10-30T13:36:58.000Z</time>
      </trkpt>
      <trkpt lat="45.81278" lon="4.73754">
        <ele>370.80692</ele>
        <time>2022-10-30T13:36:59.000Z</time>
      </trkpt>
      <trkpt lat="45.81275" lon="4.73749">
        <ele>371.28006</ele>
        <time>2022-10-30T13:37:00.000Z</time>
      </trkpt>
      <trkpt lat="45.81273" lon="4.73745">
        <ele>371.73944</ele>
        <time>2022-10-30T13:37:01.000Z</time>
      </trkpt>
      <trkpt lat="45.8127" lon="4.7374">
        <ele>372.21445</ele>
        <time>2022-10-30T13:37:02.000Z</time>
      </trkpt>
      <trkpt lat="45.81266" lon="4.73736">
        <ele>372.72083</ele>
        <time>2022-10-30T13:37:03.000Z</time>
      </trkpt>
      <trkpt lat="45.81263" lon="4.73731">
        <ele>373.20178</ele>
        <time>2022-10-30T13:37:04.000Z</time>
      </trkpt>
      <trkpt lat="45.81259" lon="4.73727">
        <ele>373.65948</ele>
        <time>2022-10-30T13:37:05.000Z</time>
      </trkpt>
      <trkpt lat="45.81256" lon="4.73723">
        <ele>374.05618</ele>
        <time>2022-10-30T13:37:06.000Z</time>
      </trkpt>
      <trkpt lat="45.81252" lon="4.73718">
        <ele>374.34747</ele>
        <time>2022-10-30T13:37:07.000Z</time>
      </trkpt>
      <trkpt lat="45.81249" lon="4.73714">
        <ele>374.62933</ele>
        <time>2022-10-30T13:37:08.000Z</time>
      </trkpt>
      <trkpt lat="45.81245" lon="4.73711">
        <ele>374.88345</ele>
        <time>2022-10-30T13:37:09.000Z</time>
      </trkpt>
      <trkpt lat="45.81241" lon="4.73708">
        <ele>375.10547</ele>
        <time>2022-10-30T13:37:10.000Z</time>
      </trkpt>
      <trkpt lat="45.81237" lon="4.73706">
        <ele>375.27249</ele>
        <time>2022-10-30T13:37:11.000Z</time>
      </trkpt>
      <trkpt lat="45.81232" lon="4.73704">
        <ele>375.47815</ele>
        <time>2022-10-30T13:37:12.000Z</time>
      </trkpt>
      <trkpt lat="45.81228" lon="4.73703">
        <ele>375.52887</ele>
        <time>2022-10-30T13:37:13.000Z</time>
      </trkpt>
      <trkpt lat="45.81223" lon="4.73702">
        <ele>375.52808</ele>
        <time>2022-10-30T13:37:14.000Z</time>
      </trkpt>
      <trkpt lat="45.81219" lon="4.73702">
        <ele>375.58765</ele>
        <time>2022-10-30T13:37:15.000Z</time>
      </trkpt>
      <trkpt lat="45.81214" lon="4.73703">
        <ele>375.68613</ele>
        <time>2022-10-30T13:37:16.000Z</time>
      </trkpt>
      <trkpt lat="45.81209" lon="4.73703">
        <ele>375.72266</ele>
        <time>2022-10-30T13:37:17.000Z</time>
      </trkpt>
      <trkpt lat="45.81205" lon="4.73703">
        <ele>375.68402</ele>
        <time>2022-10-30T13:37:18.000Z</time>
      </trkpt>
      <trkpt lat="45.81201" lon="4.73702">
        <ele>375.71921</ele>
        <time>2022-10-30T13:37:19.000Z</time>
      </trkpt>
      <trkpt lat="45.81196" lon="4.73701">
        <ele>375.67694</ele>
        <time>2022-10-30T13:37:20.000Z</time>
      </trkpt>
      <trkpt lat="45.81192" lon="4.737">
        <ele>375.64511</ele>
        <time>2022-10-30T13:37:21.000Z</time>
      </trkpt>
      <trkpt lat="45.81188" lon="4.73699">
        <ele>375.58173</ele>
        <time>2022-10-30T13:37:22.000Z</time>
      </trkpt>
      <trkpt lat="45.81184" lon="4.73698">
        <ele>375.51334</ele>
        <time>2022-10-30T13:37:23.000Z</time>
      </trkpt>
      <trkpt lat="45.81179" lon="4.73697">
        <ele>375.43854</ele>
        <time>2022-10-30T13:37:24.000Z</time>
      </trkpt>
      <trkpt lat="45.81175" lon="4.73697">
        <ele>375.39337</ele>
        <time>2022-10-30T13:37:25.000Z</time>
      </trkpt>
      <trkpt lat="45.8117" lon="4.73697">
        <ele>375.32074</ele>
        <time>2022-10-30T13:37:26.000Z</time>
      </trkpt>
      <trkpt lat="45.81166" lon="4.73697">
        <ele>375.3674</ele>
        <time>2022-10-30T13:37:27.000Z</time>
      </trkpt>
      <trkpt lat="45.81161" lon="4.73696">
        <ele>375.4241</ele>
        <time>2022-10-30T13:37:28.000Z</time>
      </trkpt>
      <trkpt lat="45.81157" lon="4.73696">
        <ele>375.54993</ele>
        <time>2022-10-30T13:37:29.000Z</time>
      </trkpt>
      <trkpt lat="45.81153" lon="4.73696">
        <ele>375.69162</ele>
        <time>2022-10-30T13:37:30.000Z</time>
      </trkpt>
      <trkpt lat="45.81148" lon="4.73695">
        <ele>375.8284</ele>
        <time>2022-10-30T13:37:31.000Z</time>
      </trkpt>
      <trkpt lat="45.81144" lon="4.73694">
        <ele>375.90591</ele>
        <time>2022-10-30T13:37:32.000Z</time>
      </trkpt>
      <trkpt lat="45.8114" lon="4.73693">
        <ele>376.01111</ele>
        <time>2022-10-30T13:37:33.000Z</time>
      </trkpt>
      <trkpt lat="45.81137" lon="4.73692">
        <ele>376.15665</ele>
        <time>2022-10-30T13:37:34.000Z</time>
      </trkpt>
      <trkpt lat="45.81133" lon="4.7369">
        <ele>376.27252</ele>
        <time>2022-10-30T13:37:35.000Z</time>
      </trkpt>
      <trkpt lat="45.81129" lon="4.73689">
        <ele>376.37631</ele>
        <time>2022-10-30T13:37:36.000Z</time>
      </trkpt>
      <trkpt lat="45.81125" lon="4.73687">
        <ele>376.52203</ele>
        <time>2022-10-30T13:37:37.000Z</time>
      </trkpt>
      <trkpt lat="45.81122" lon="4.73686">
        <ele>376.64786</ele>
        <time>2022-10-30T13:37:38.000Z</time>
      </trkpt>
      <trkpt lat="45.81118" lon="4.73684">
        <ele>376.67004</ele>
        <time>2022-10-30T13:37:39.000Z</time>
      </trkpt>
      <trkpt lat="45.81113" lon="4.73682">
        <ele>376.66162</ele>
        <time>2022-10-30T13:37:40.000Z</time>
      </trkpt>
      <trkpt lat="45.8111" lon="4.73677">
        <ele>376.61298</ele>
        <time>2022-10-30T13:37:41.000Z</time>
      </trkpt>
      <trkpt lat="45.81105" lon="4.73676">
        <ele>376.55542</ele>
        <time>2022-10-30T13:37:42.000Z</time>
      </trkpt>
      <trkpt lat="45.811" lon="4.73676">
        <ele>376.44427</ele>
        <time>2022-10-30T13:37:43.000Z</time>
      </trkpt>
      <trkpt lat="45.81095" lon="4.73675">
        <ele>376.34561</ele>
        <time>2022-10-30T13:37:44.000Z</time>
      </trkpt>
      <trkpt lat="45.81089" lon="4.73674">
        <ele>376.23694</ele>
        <time>2022-10-30T13:37:45.000Z</time>
      </trkpt>
      <trkpt lat="45.81084" lon="4.73673">
        <ele>376.16626</ele>
        <time>2022-10-30T13:37:46.000Z</time>
      </trkpt>
      <trkpt lat="45.81078" lon="4.73673">
        <ele>376.00671</ele>
        <time>2022-10-30T13:37:47.000Z</time>
      </trkpt>
      <trkpt lat="45.81072" lon="4.73672">
        <ele>375.82501</ele>
        <time>2022-10-30T13:37:48.000Z</time>
      </trkpt>
      <trkpt lat="45.81067" lon="4.7367">
        <ele>375.64752</ele>
        <time>2022-10-30T13:37:49.000Z</time>
      </trkpt>
      <trkpt lat="45.8106" lon="4.73669">
        <ele>375.47467</ele>
        <time>2022-10-30T13:37:50.000Z</time>
      </trkpt>
      <trkpt lat="45.81055" lon="4.73666">
        <ele>375.31622</ele>
        <time>2022-10-30T13:37:51.000Z</time>
      </trkpt>
      <trkpt lat="45.8105" lon="4.73665">
        <ele>375.25397</ele>
        <time>2022-10-30T13:37:52.000Z</time>
      </trkpt>
      <trkpt lat="45.81045" lon="4.73667">
        <ele>375.17294</ele>
        <time>2022-10-30T13:37:53.000Z</time>
      </trkpt>
      <trkpt lat="45.81041" lon="4.7367">
        <ele>375.0127</ele>
        <time>2022-10-30T13:37:54.000Z</time>
      </trkpt>
      <trkpt lat="45.81038" lon="4.73674">
        <ele>374.76654</ele>
        <time>2022-10-30T13:37:55.000Z</time>
      </trkpt>
      <trkpt lat="45.81034" lon="4.73681">
        <ele>374.37546</ele>
        <time>2022-10-30T13:37:56.000Z</time>
      </trkpt>
      <trkpt lat="45.81031" lon="4.73686">
        <ele>373.96564</ele>
        <time>2022-10-30T13:37:57.000Z</time>
      </trkpt>
      <trkpt lat="45.81027" lon="4.73691">
        <ele>373.6127</ele>
        <time>2022-10-30T13:37:58.000Z</time>
      </trkpt>
      <trkpt lat="45.81024" lon="4.73696">
        <ele>373.3031</ele>
        <time>2022-10-30T13:37:59.000Z</time>
      </trkpt>
      <trkpt lat="45.81021" lon="4.73701">
        <ele>373.01947</ele>
        <time>2022-10-30T13:38:00.000Z</time>
      </trkpt>
      <trkpt lat="45.81017" lon="4.73705">
        <ele>372.75015</ele>
        <time>2022-10-30T13:38:01.000Z</time>
      </trkpt>
      <trkpt lat="45.81013" lon="4.7371">
        <ele>372.47821</ele>
        <time>2022-10-30T13:38:02.000Z</time>
      </trkpt>
      <trkpt lat="45.81011" lon="4.73715">
        <ele>372.23386</ele>
        <time>2022-10-30T13:38:03.000Z</time>
      </trkpt>
      <trkpt lat="45.81008" lon="4.73719">
        <ele>371.99283</ele>
        <time>2022-10-30T13:38:04.000Z</time>
      </trkpt>
      <trkpt lat="45.81004" lon="4.73721">
        <ele>371.75369</ele>
        <time>2022-10-30T13:38:05.000Z</time>
      </trkpt>
      <trkpt lat="45.81002" lon="4.73722">
        <ele>371.48743</ele>
        <time>2022-10-30T13:38:06.000Z</time>
      </trkpt>
      <trkpt lat="45.80998" lon="4.73723">
        <ele>371.19473</ele>
        <time>2022-10-30T13:38:07.000Z</time>
      </trkpt>
      <trkpt lat="45.80996" lon="4.73723">
        <ele>371.0159</ele>
        <time>2022-10-30T13:38:08.000Z</time>
      </trkpt>
      <trkpt lat="45.80993" lon="4.73722">
        <ele>370.79117</ele>
        <time>2022-10-30T13:38:09.000Z</time>
      </trkpt>
      <trkpt lat="45.80992" lon="4.73719">
        <ele>370.59695</ele>
        <time>2022-10-30T13:38:10.000Z</time>
      </trkpt>
      <trkpt lat="45.80992" lon="4.73716">
        <ele>370.46274</ele>
        <time>2022-10-30T13:38:11.000Z</time>
      </trkpt>
      <trkpt lat="45.80991" lon="4.73713">
        <ele>370.36902</ele>
        <time>2022-10-30T13:38:12.000Z</time>
      </trkpt>
      <trkpt lat="45.80991" lon="4.7371">
        <ele>370.32443</ele>
        <time>2022-10-30T13:38:13.000Z</time>
      </trkpt>
      <trkpt lat="45.8099" lon="4.73707">
        <ele>370.38071</ele>
        <time>2022-10-30T13:38:14.000Z</time>
      </trkpt>
      <trkpt lat="45.80989" lon="4.73705">
        <ele>370.50543</ele>
        <time>2022-10-30T13:38:15.000Z</time>
      </trkpt>
      <trkpt lat="45.80988" lon="4.73702">
        <ele>370.74115</ele>
        <time>2022-10-30T13:38:16.000Z</time>
      </trkpt>
      <trkpt lat="45.80988" lon="4.73699">
        <ele>370.96173</ele>
        <time>2022-10-30T13:38:17.000Z</time>
      </trkpt>
      <trkpt lat="45.80987" lon="4.73695">
        <ele>371.22699</ele>
        <time>2022-10-30T13:38:18.000Z</time>
      </trkpt>
      <trkpt lat="45.80986" lon="4.73692">
        <ele>371.52069</ele>
        <time>2022-10-30T13:38:19.000Z</time>
      </trkpt>
      <trkpt lat="45.80986" lon="4.73689">
        <ele>371.85248</ele>
        <time>2022-10-30T13:38:20.000Z</time>
      </trkpt>
      <trkpt lat="45.80985" lon="4.73685">
        <ele>372.18082</ele>
        <time>2022-10-30T13:38:21.000Z</time>
      </trkpt>
      <trkpt lat="45.80985" lon="4.73681">
        <ele>372.51602</ele>
        <time>2022-10-30T13:38:22.000Z</time>
      </trkpt>
      <trkpt lat="45.80984" lon="4.73677">
        <ele>372.84186</ele>
        <time>2022-10-30T13:38:23.000Z</time>
      </trkpt>
      <trkpt lat="45.80983" lon="4.73673">
        <ele>373.12738</ele>
        <time>2022-10-30T13:38:24.000Z</time>
      </trkpt>
      <trkpt lat="45.80983" lon="4.73669">
        <ele>373.41479</ele>
        <time>2022-10-30T13:38:25.000Z</time>
      </trkpt>
      <trkpt lat="45.80983" lon="4.73666">
        <ele>373.76321</ele>
        <time>2022-10-30T13:38:26.000Z</time>
      </trkpt>
      <trkpt lat="45.80982" lon="4.73663">
        <ele>374.13632</ele>
        <time>2022-10-30T13:38:27.000Z</time>
      </trkpt>
      <trkpt lat="45.80982" lon="4.73659">
        <ele>374.42978</ele>
        <time>2022-10-30T13:38:28.000Z</time>
      </trkpt>
      <trkpt lat="45.80982" lon="4.73656">
        <ele>374.7644</ele>
        <time>2022-10-30T13:38:29.000Z</time>
      </trkpt>
      <trkpt lat="45.80982" lon="4.73653">
        <ele>375.11121</ele>
        <time>2022-10-30T13:38:30.000Z</time>
      </trkpt>
      <trkpt lat="45.80981" lon="4.7365">
        <ele>375.40131</ele>
        <time>2022-10-30T13:38:31.000Z</time>
      </trkpt>
      <trkpt lat="45.80979" lon="4.73647">
        <ele>375.59088</ele>
        <time>2022-10-30T13:38:32.000Z</time>
      </trkpt>
      <trkpt lat="45.80978" lon="4.73644">
        <ele>375.76862</ele>
        <time>2022-10-30T13:38:33.000Z</time>
      </trkpt>
      <trkpt lat="45.80977" lon="4.7364">
        <ele>375.85571</ele>
        <time>2022-10-30T13:38:34.000Z</time>
      </trkpt>
      <trkpt lat="45.80977" lon="4.73635">
        <ele>375.83096</ele>
        <time>2022-10-30T13:38:35.000Z</time>
      </trkpt>
      <trkpt lat="45.80977" lon="4.73632">
        <ele>375.87256</ele>
        <time>2022-10-30T13:38:36.000Z</time>
      </trkpt>
      <trkpt lat="45.80977" lon="4.73629">
        <ele>375.93793</ele>
        <time>2022-10-30T13:38:37.000Z</time>
      </trkpt>
      <trkpt lat="45.80977" lon="4.73625">
        <ele>375.96567</ele>
        <time>2022-10-30T13:38:38.000Z</time>
      </trkpt>
      <trkpt lat="45.80977" lon="4.73621">
        <ele>375.96606</ele>
        <time>2022-10-30T13:38:39.000Z</time>
      </trkpt>
      <trkpt lat="45.80978" lon="4.73618">
        <ele>375.95013</ele>
        <time>2022-10-30T13:38:40.000Z</time>
      </trkpt>
      <trkpt lat="45.80979" lon="4.73615">
        <ele>375.97787</ele>
        <time>2022-10-30T13:38:41.000Z</time>
      </trkpt>
      <trkpt lat="45.80978" lon="4.73612">
        <ele>375.98712</ele>
        <time>2022-10-30T13:38:42.000Z</time>
      </trkpt>
      <trkpt lat="45.80979" lon="4.73608">
        <ele>376.00714</ele>
        <time>2022-10-30T13:38:44.000Z</time>
      </trkpt>
      <trkpt lat="45.8098" lon="4.73605">
        <ele>376.18994</ele>
        <time>2022-10-30T13:39:51.000Z</time>
      </trkpt>
      <trkpt lat="45.80981" lon="4.73603">
        <ele>376.37704</ele>
        <time>2022-10-30T13:40:22.000Z</time>
      </trkpt>
      <trkpt lat="45.80979" lon="4.73604">
        <ele>376.62741</ele>
        <time>2022-10-30T13:41:48.000Z</time>
      </trkpt>
      <trkpt lat="45.8098" lon="4.73599">
        <ele>376.86603</ele>
        <time>2022-10-30T13:42:47.000Z</time>
      </trkpt>
      <trkpt lat="45.8098" lon="4.73595">
        <ele>377.11267</ele>
        <time>2022-10-30T13:42:48.000Z</time>
      </trkpt>
      <trkpt lat="45.80979" lon="4.73591">
        <ele>377.36801</ele>
        <time>2022-10-30T13:42:49.000Z</time>
      </trkpt>
      <trkpt lat="45.80978" lon="4.73586">
        <ele>377.62604</ele>
        <time>2022-10-30T13:42:50.000Z</time>
      </trkpt>
      <trkpt lat="45.80977" lon="4.73581">
        <ele>377.88712</ele>
        <time>2022-10-30T13:42:51.000Z</time>
      </trkpt>
      <trkpt lat="45.80976" lon="4.73577">
        <ele>378.18292</ele>
        <time>2022-10-30T13:42:52.000Z</time>
      </trkpt>
      <trkpt lat="45.80976" lon="4.73571">
        <ele>378.49072</ele>
        <time>2022-10-30T13:42:53.000Z</time>
      </trkpt>
      <trkpt lat="45.80976" lon="4.73565">
        <ele>378.82437</ele>
        <time>2022-10-30T13:42:54.000Z</time>
      </trkpt>
      <trkpt lat="45.80976" lon="4.73559">
        <ele>379.25507</ele>
        <time>2022-10-30T13:42:55.000Z</time>
      </trkpt>
      <trkpt lat="45.80975" lon="4.73553">
        <ele>379.64697</ele>
        <time>2022-10-30T13:42:56.000Z</time>
      </trkpt>
      <trkpt lat="45.80974" lon="4.73547">
        <ele>380.05746</ele>
        <time>2022-10-30T13:42:57.000Z</time>
      </trkpt>
      <trkpt lat="45.80973" lon="4.73542">
        <ele>380.45334</ele>
        <time>2022-10-30T13:42:58.000Z</time>
      </trkpt>
      <trkpt lat="45.80972" lon="4.73536">
        <ele>380.82098</ele>
        <time>2022-10-30T13:42:59.000Z</time>
      </trkpt>
      <trkpt lat="45.80972" lon="4.73531">
        <ele>381.17316</ele>
        <time>2022-10-30T13:43:00.000Z</time>
      </trkpt>
      <trkpt lat="45.80971" lon="4.73525">
        <ele>381.48151</ele>
        <time>2022-10-30T13:43:01.000Z</time>
      </trkpt>
      <trkpt lat="45.80971" lon="4.73519">
        <ele>381.82004</ele>
        <time>2022-10-30T13:43:02.000Z</time>
      </trkpt>
      <trkpt lat="45.8097" lon="4.73513">
        <ele>382.15195</ele>
        <time>2022-10-30T13:43:03.000Z</time>
      </trkpt>
      <trkpt lat="45.80969" lon="4.73507">
        <ele>382.32422</ele>
        <time>2022-10-30T13:43:04.000Z</time>
      </trkpt>
      <trkpt lat="45.80969" lon="4.735">
        <ele>382.45853</ele>
        <time>2022-10-30T13:43:05.000Z</time>
      </trkpt>
      <trkpt lat="45.80968" lon="4.73493">
        <ele>382.4924</ele>
        <time>2022-10-30T13:43:06.000Z</time>
      </trkpt>
      <trkpt lat="45.80968" lon="4.73487">
        <ele>382.56281</ele>
        <time>2022-10-30T13:43:07.000Z</time>
      </trkpt>
      <trkpt lat="45.80967" lon="4.7348">
        <ele>382.59967</ele>
        <time>2022-10-30T13:43:08.000Z</time>
      </trkpt>
      <trkpt lat="45.80967" lon="4.73473">
        <ele>382.58246</ele>
        <time>2022-10-30T13:43:09.000Z</time>
      </trkpt>
      <trkpt lat="45.80966" lon="4.73466">
        <ele>382.5419</ele>
        <time>2022-10-30T13:43:10.000Z</time>
      </trkpt>
      <trkpt lat="45.80965" lon="4.73458">
        <ele>382.49356</ele>
        <time>2022-10-30T13:43:11.000Z</time>
      </trkpt>
      <trkpt lat="45.80965" lon="4.73451">
        <ele>382.42914</ele>
        <time>2022-10-30T13:43:12.000Z</time>
      </trkpt>
      <trkpt lat="45.80964" lon="4.73444">
        <ele>382.36346</ele>
        <time>2022-10-30T13:43:13.000Z</time>
      </trkpt>
      <trkpt lat="45.80963" lon="4.73437">
        <ele>382.28098</ele>
        <time>2022-10-30T13:43:14.000Z</time>
      </trkpt>
      <trkpt lat="45.80962" lon="4.7343">
        <ele>382.19962</ele>
        <time>2022-10-30T13:43:15.000Z</time>
      </trkpt>
      <trkpt lat="45.80961" lon="4.73423">
        <ele>382.12411</ele>
        <time>2022-10-30T13:43:16.000Z</time>
      </trkpt>
      <trkpt lat="45.8096" lon="4.73416">
        <ele>382.05563</ele>
        <time>2022-10-30T13:43:17.000Z</time>
      </trkpt>
      <trkpt lat="45.80959" lon="4.73409">
        <ele>381.98895</ele>
        <time>2022-10-30T13:43:18.000Z</time>
      </trkpt>
      <trkpt lat="45.80959" lon="4.73402">
        <ele>381.92505</ele>
        <time>2022-10-30T13:43:19.000Z</time>
      </trkpt>
      <trkpt lat="45.80958" lon="4.73395">
        <ele>381.86588</ele>
        <time>2022-10-30T13:43:20.000Z</time>
      </trkpt>
      <trkpt lat="45.80957" lon="4.73388">
        <ele>381.7626</ele>
        <time>2022-10-30T13:43:21.000Z</time>
      </trkpt>
      <trkpt lat="45.80956" lon="4.7338">
        <ele>381.62515</ele>
        <time>2022-10-30T13:43:22.000Z</time>
      </trkpt>
      <trkpt lat="45.80956" lon="4.73372">
        <ele>381.44684</ele>
        <time>2022-10-30T13:43:23.000Z</time>
      </trkpt>
      <trkpt lat="45.80955" lon="4.73364">
        <ele>381.37363</ele>
        <time>2022-10-30T13:43:24.000Z</time>
      </trkpt>
      <trkpt lat="45.80953" lon="4.73356">
        <ele>381.26971</ele>
        <time>2022-10-30T13:43:25.000Z</time>
      </trkpt>
      <trkpt lat="45.8095" lon="4.73348">
        <ele>381.20319</ele>
        <time>2022-10-30T13:43:26.000Z</time>
      </trkpt>
      <trkpt lat="45.80946" lon="4.73341">
        <ele>381.12897</ele>
        <time>2022-10-30T13:43:27.000Z</time>
      </trkpt>
      <trkpt lat="45.80941" lon="4.73335">
        <ele>381.06812</ele>
        <time>2022-10-30T13:43:28.000Z</time>
      </trkpt>
      <trkpt lat="45.80936" lon="4.7333">
        <ele>381.04785</ele>
        <time>2022-10-30T13:43:29.000Z</time>
      </trkpt>
      <trkpt lat="45.80931" lon="4.73326">
        <ele>381.02969</ele>
        <time>2022-10-30T13:43:30.000Z</time>
      </trkpt>
      <trkpt lat="45.80926" lon="4.73322">
        <ele>381.00449</ele>
        <time>2022-10-30T13:43:31.000Z</time>
      </trkpt>
      <trkpt lat="45.80922" lon="4.73318">
        <ele>380.97021</ele>
        <time>2022-10-30T13:43:32.000Z</time>
      </trkpt>
      <trkpt lat="45.80919" lon="4.73314">
        <ele>380.90305</ele>
        <time>2022-10-30T13:43:33.000Z</time>
      </trkpt>
      <trkpt lat="45.80917" lon="4.7331">
        <ele>380.88599</ele>
        <time>2022-10-30T13:43:34.000Z</time>
      </trkpt>
      <trkpt lat="45.80917" lon="4.73305">
        <ele>380.83594</ele>
        <time>2022-10-30T13:43:35.000Z</time>
      </trkpt>
      <trkpt lat="45.80918" lon="4.73301">
        <ele>380.80243</ele>
        <time>2022-10-30T13:43:36.000Z</time>
      </trkpt>
      <trkpt lat="45.80918" lon="4.73297">
        <ele>380.72705</ele>
        <time>2022-10-30T13:43:37.000Z</time>
      </trkpt>
      <trkpt lat="45.80918" lon="4.73292">
        <ele>380.64114</ele>
        <time>2022-10-30T13:43:38.000Z</time>
      </trkpt>
      <trkpt lat="45.80918" lon="4.73288">
        <ele>380.58829</ele>
        <time>2022-10-30T13:43:39.000Z</time>
      </trkpt>
      <trkpt lat="45.80918" lon="4.73284">
        <ele>380.57336</ele>
        <time>2022-10-30T13:43:40.000Z</time>
      </trkpt>
      <trkpt lat="45.80918" lon="4.73281">
        <ele>380.58466</ele>
        <time>2022-10-30T13:43:41.000Z</time>
      </trkpt>
      <trkpt lat="45.80919" lon="4.73278">
        <ele>380.57224</ele>
        <time>2022-10-30T13:43:42.000Z</time>
      </trkpt>
      <trkpt lat="45.80921" lon="4.73275">
        <ele>380.58859</ele>
        <time>2022-10-30T13:43:43.000Z</time>
      </trkpt>
      <trkpt lat="45.80923" lon="4.73272">
        <ele>380.52948</ele>
        <time>2022-10-30T13:43:44.000Z</time>
      </trkpt>
      <trkpt lat="45.80926" lon="4.73269">
        <ele>380.4939</ele>
        <time>2022-10-30T13:43:45.000Z</time>
      </trkpt>
      <trkpt lat="45.80929" lon="4.73265">
        <ele>380.39343</ele>
        <time>2022-10-30T13:43:46.000Z</time>
      </trkpt>
      <trkpt lat="45.80932" lon="4.73261">
        <ele>380.26813</ele>
        <time>2022-10-30T13:43:47.000Z</time>
      </trkpt>
      <trkpt lat="45.80936" lon="4.73256">
        <ele>380.08649</ele>
        <time>2022-10-30T13:43:48.000Z</time>
      </trkpt>
      <trkpt lat="45.80939" lon="4.7325">
        <ele>379.90308</ele>
        <time>2022-10-30T13:43:49.000Z</time>
      </trkpt>
      <trkpt lat="45.80943" lon="4.73244">
        <ele>379.70129</ele>
        <time>2022-10-30T13:43:50.000Z</time>
      </trkpt>
      <trkpt lat="45.80947" lon="4.73238">
        <ele>379.50867</ele>
        <time>2022-10-30T13:43:51.000Z</time>
      </trkpt>
      <trkpt lat="45.80951" lon="4.73231">
        <ele>379.29977</ele>
        <time>2022-10-30T13:43:52.000Z</time>
      </trkpt>
      <trkpt lat="45.80956" lon="4.73224">
        <ele>379.04681</ele>
        <time>2022-10-30T13:43:53.000Z</time>
      </trkpt>
      <trkpt lat="45.8096" lon="4.73217">
        <ele>378.745</ele>
        <time>2022-10-30T13:43:54.000Z</time>
      </trkpt>
      <trkpt lat="45.80965" lon="4.73209">
        <ele>378.47</ele>
        <time>2022-10-30T13:43:55.000Z</time>
      </trkpt>
      <trkpt lat="45.80971" lon="4.73201">
        <ele>378.17313</ele>
        <time>2022-10-30T13:43:56.000Z</time>
      </trkpt>
      <trkpt lat="45.80976" lon="4.73192">
        <ele>377.862</ele>
        <time>2022-10-30T13:43:57.000Z</time>
      </trkpt>
      <trkpt lat="45.80982" lon="4.73184">
        <ele>377.59598</ele>
        <time>2022-10-30T13:43:58.000Z</time>
      </trkpt>
      <trkpt lat="45.80988" lon="4.73176">
        <ele>377.29132</ele>
        <time>2022-10-30T13:43:59.000Z</time>
      </trkpt>
      <trkpt lat="45.80994" lon="4.73167">
        <ele>376.93274</ele>
        <time>2022-10-30T13:44:00.000Z</time>
      </trkpt>
      <trkpt lat="45.80999" lon="4.73159">
        <ele>376.56851</ele>
        <time>2022-10-30T13:44:01.000Z</time>
      </trkpt>
      <trkpt lat="45.81005" lon="4.73151">
        <ele>376.23642</ele>
        <time>2022-10-30T13:44:02.000Z</time>
      </trkpt>
      <trkpt lat="45.81009" lon="4.73144">
        <ele>375.8913</ele>
        <time>2022-10-30T13:44:03.000Z</time>
      </trkpt>
      <trkpt lat="45.81014" lon="4.73137">
        <ele>375.55249</ele>
        <time>2022-10-30T13:44:04.000Z</time>
      </trkpt>
      <trkpt lat="45.81018" lon="4.73131">
        <ele>375.19244</ele>
        <time>2022-10-30T13:44:05.000Z</time>
      </trkpt>
      <trkpt lat="45.81022" lon="4.73124">
        <ele>374.83588</ele>
        <time>2022-10-30T13:44:06.000Z</time>
      </trkpt>
      <trkpt lat="45.81025" lon="4.73119">
        <ele>374.46732</ele>
        <time>2022-10-30T13:44:07.000Z</time>
      </trkpt>
      <trkpt lat="45.81028" lon="4.73115">
        <ele>374.11896</ele>
        <time>2022-10-30T13:44:08.000Z</time>
      </trkpt>
      <trkpt lat="45.81031" lon="4.7311">
        <ele>373.76709</ele>
        <time>2022-10-30T13:44:09.000Z</time>
      </trkpt>
      <trkpt lat="45.81034" lon="4.73104">
        <ele>373.4025</ele>
        <time>2022-10-30T13:44:10.000Z</time>
      </trkpt>
      <trkpt lat="45.81038" lon="4.73098">
        <ele>373.04877</ele>
        <time>2022-10-30T13:44:11.000Z</time>
      </trkpt>
      <trkpt lat="45.81042" lon="4.73091">
        <ele>372.6994</ele>
        <time>2022-10-30T13:44:12.000Z</time>
      </trkpt>
      <trkpt lat="45.81046" lon="4.73085">
        <ele>372.3876</ele>
        <time>2022-10-30T13:44:13.000Z</time>
      </trkpt>
      <trkpt lat="45.81051" lon="4.73078">
        <ele>372.05743</ele>
        <time>2022-10-30T13:44:14.000Z</time>
      </trkpt>
      <trkpt lat="45.81055" lon="4.73071">
        <ele>371.71863</ele>
        <time>2022-10-30T13:44:15.000Z</time>
      </trkpt>
      <trkpt lat="45.8106" lon="4.73064">
        <ele>371.3624</ele>
        <time>2022-10-30T13:44:16.000Z</time>
      </trkpt>
      <trkpt lat="45.81065" lon="4.73056">
        <ele>371.01352</ele>
        <time>2022-10-30T13:44:17.000Z</time>
      </trkpt>
      <trkpt lat="45.8107" lon="4.73048">
        <ele>370.58359</ele>
        <time>2022-10-30T13:44:18.000Z</time>
      </trkpt>
      <trkpt lat="45.81075" lon="4.7304">
        <ele>370.1712</ele>
        <time>2022-10-30T13:44:19.000Z</time>
      </trkpt>
      <trkpt lat="45.8108" lon="4.73033">
        <ele>369.76471</ele>
        <time>2022-10-30T13:44:20.000Z</time>
      </trkpt>
      <trkpt lat="45.81085" lon="4.73025">
        <ele>369.31451</ele>
        <time>2022-10-30T13:44:21.000Z</time>
      </trkpt>
      <trkpt lat="45.81091" lon="4.73017">
        <ele>368.89075</ele>
        <time>2022-10-30T13:44:22.000Z</time>
      </trkpt>
      <trkpt lat="45.81096" lon="4.73009">
        <ele>368.47717</ele>
        <time>2022-10-30T13:44:23.000Z</time>
      </trkpt>
      <trkpt lat="45.81101" lon="4.73">
        <ele>368.04678</ele>
        <time>2022-10-30T13:44:24.000Z</time>
      </trkpt>
      <trkpt lat="45.81107" lon="4.72991">
        <ele>367.64105</ele>
        <time>2022-10-30T13:44:25.000Z</time>
      </trkpt>
      <trkpt lat="45.81112" lon="4.72982">
        <ele>367.26001</ele>
        <time>2022-10-30T13:44:26.000Z</time>
      </trkpt>
      <trkpt lat="45.81118" lon="4.72973">
        <ele>366.92807</ele>
        <time>2022-10-30T13:44:27.000Z</time>
      </trkpt>
      <trkpt lat="45.81124" lon="4.72964">
        <ele>366.60431</ele>
        <time>2022-10-30T13:44:28.000Z</time>
      </trkpt>
      <trkpt lat="45.8113" lon="4.72955">
        <ele>366.26605</ele>
        <time>2022-10-30T13:44:29.000Z</time>
      </trkpt>
      <trkpt lat="45.81136" lon="4.72946">
        <ele>365.9108</ele>
        <time>2022-10-30T13:44:30.000Z</time>
      </trkpt>
      <trkpt lat="45.81142" lon="4.72937">
        <ele>365.51752</ele>
        <time>2022-10-30T13:44:31.000Z</time>
      </trkpt>
      <trkpt lat="45.81148" lon="4.72927">
        <ele>365.15228</ele>
        <time>2022-10-30T13:44:32.000Z</time>
      </trkpt>
      <trkpt lat="45.81153" lon="4.72918">
        <ele>364.7915</ele>
        <time>2022-10-30T13:44:33.000Z</time>
      </trkpt>
      <trkpt lat="45.81159" lon="4.7291">
        <ele>364.45303</ele>
        <time>2022-10-30T13:44:34.000Z</time>
      </trkpt>
      <trkpt lat="45.81165" lon="4.72901">
        <ele>364.12442</ele>
        <time>2022-10-30T13:44:35.000Z</time>
      </trkpt>
      <trkpt lat="45.8117" lon="4.72893">
        <ele>363.82913</ele>
        <time>2022-10-30T13:44:36.000Z</time>
      </trkpt>
      <trkpt lat="45.81175" lon="4.72885">
        <ele>363.54169</ele>
        <time>2022-10-30T13:44:37.000Z</time>
      </trkpt>
      <trkpt lat="45.8118" lon="4.72877">
        <ele>363.30908</ele>
        <time>2022-10-30T13:44:38.000Z</time>
      </trkpt>
      <trkpt lat="45.81185" lon="4.72869">
        <ele>363.08807</ele>
        <time>2022-10-30T13:44:39.000Z</time>
      </trkpt>
      <trkpt lat="45.81189" lon="4.72861">
        <ele>362.90219</ele>
        <time>2022-10-30T13:44:40.000Z</time>
      </trkpt>
      <trkpt lat="45.81193" lon="4.72854">
        <ele>362.80746</ele>
        <time>2022-10-30T13:44:41.000Z</time>
      </trkpt>
      <trkpt lat="45.81198" lon="4.72846">
        <ele>362.71753</ele>
        <time>2022-10-30T13:44:42.000Z</time>
      </trkpt>
      <trkpt lat="45.81202" lon="4.72839">
        <ele>362.63812</ele>
        <time>2022-10-30T13:44:43.000Z</time>
      </trkpt>
      <trkpt lat="45.81205" lon="4.72832">
        <ele>362.5412</ele>
        <time>2022-10-30T13:44:44.000Z</time>
      </trkpt>
      <trkpt lat="45.81209" lon="4.72826">
        <ele>362.43149</ele>
        <time>2022-10-30T13:44:45.000Z</time>
      </trkpt>
      <trkpt lat="45.81213" lon="4.72819">
        <ele>362.34479</ele>
        <time>2022-10-30T13:44:46.000Z</time>
      </trkpt>
      <trkpt lat="45.81216" lon="4.72812">
        <ele>362.23428</ele>
        <time>2022-10-30T13:44:47.000Z</time>
      </trkpt>
      <trkpt lat="45.81219" lon="4.72805">
        <ele>362.11792</ele>
        <time>2022-10-30T13:44:48.000Z</time>
      </trkpt>
      <trkpt lat="45.8122" lon="4.72798">
        <ele>362.03925</ele>
        <time>2022-10-30T13:44:49.000Z</time>
      </trkpt>
      <trkpt lat="45.81218" lon="4.72793">
        <ele>361.96707</ele>
        <time>2022-10-30T13:44:50.000Z</time>
      </trkpt>
      <trkpt lat="45.81216" lon="4.7279">
        <ele>361.92618</ele>
        <time>2022-10-30T13:44:51.000Z</time>
      </trkpt>
      <trkpt lat="45.81213" lon="4.72785">
        <ele>361.92053</ele>
        <time>2022-10-30T13:44:52.000Z</time>
      </trkpt>
      <trkpt lat="45.8121" lon="4.72782">
        <ele>361.9129</ele>
        <time>2022-10-30T13:44:53.000Z</time>
      </trkpt>
      <trkpt lat="45.81207" lon="4.72778">
        <ele>361.89557</ele>
        <time>2022-10-30T13:44:54.000Z</time>
      </trkpt>
      <trkpt lat="45.81205" lon="4.72776">
        <ele>361.85748</ele>
        <time>2022-10-30T13:44:55.000Z</time>
      </trkpt>
      <trkpt lat="45.81202" lon="4.72773">
        <ele>361.81326</ele>
        <time>2022-10-30T13:44:56.000Z</time>
      </trkpt>
      <trkpt lat="45.81199" lon="4.72771">
        <ele>361.80197</ele>
        <time>2022-10-30T13:44:57.000Z</time>
      </trkpt>
      <trkpt lat="45.81196" lon="4.72771">
        <ele>361.70416</ele>
        <time>2022-10-30T13:44:58.000Z</time>
      </trkpt>
      <trkpt lat="45.81193" lon="4.72769">
        <ele>361.64322</ele>
        <time>2022-10-30T13:44:59.000Z</time>
      </trkpt>
      <trkpt lat="45.81191" lon="4.72764">
        <ele>361.5018</ele>
        <time>2022-10-30T13:45:01.000Z</time>
      </trkpt>
      <trkpt lat="45.81189" lon="4.72761">
        <ele>361.37277</ele>
        <time>2022-10-30T13:45:02.000Z</time>
      </trkpt>
      <trkpt lat="45.81187" lon="4.72758">
        <ele>361.25818</ele>
        <time>2022-10-30T13:45:03.000Z</time>
      </trkpt>
      <trkpt lat="45.81184" lon="4.72756">
        <ele>361.12042</ele>
        <time>2022-10-30T13:45:04.000Z</time>
      </trkpt>
      <trkpt lat="45.81181" lon="4.72753">
        <ele>360.98236</ele>
        <time>2022-10-30T13:45:05.000Z</time>
      </trkpt>
      <trkpt lat="45.81178" lon="4.72751">
        <ele>360.77722</ele>
        <time>2022-10-30T13:45:06.000Z</time>
      </trkpt>
      <trkpt lat="45.81175" lon="4.72749">
        <ele>360.58252</ele>
        <time>2022-10-30T13:45:07.000Z</time>
      </trkpt>
      <trkpt lat="45.81172" lon="4.72746">
        <ele>360.38397</ele>
        <time>2022-10-30T13:45:08.000Z</time>
      </trkpt>
      <trkpt lat="45.81169" lon="4.72743">
        <ele>360.27789</ele>
        <time>2022-10-30T13:45:09.000Z</time>
      </trkpt>
      <trkpt lat="45.81166" lon="4.7274">
        <ele>360.12878</ele>
        <time>2022-10-30T13:45:10.000Z</time>
      </trkpt>
      <trkpt lat="45.81162" lon="4.72737">
        <ele>360.01797</ele>
        <time>2022-10-30T13:45:11.000Z</time>
      </trkpt>
      <trkpt lat="45.81159" lon="4.72735">
        <ele>359.89352</ele>
        <time>2022-10-30T13:45:12.000Z</time>
      </trkpt>
      <trkpt lat="45.81156" lon="4.72733">
        <ele>359.71735</ele>
        <time>2022-10-30T13:45:13.000Z</time>
      </trkpt>
      <trkpt lat="45.81153" lon="4.72729">
        <ele>359.52533</ele>
        <time>2022-10-30T13:45:14.000Z</time>
      </trkpt>
      <trkpt lat="45.8115" lon="4.72725">
        <ele>359.32086</ele>
        <time>2022-10-30T13:45:15.000Z</time>
      </trkpt>
      <trkpt lat="45.81147" lon="4.72722">
        <ele>359.13544</ele>
        <time>2022-10-30T13:45:16.000Z</time>
      </trkpt>
      <trkpt lat="45.81145" lon="4.72719">
        <ele>358.9295</ele>
        <time>2022-10-30T13:45:17.000Z</time>
      </trkpt>
      <trkpt lat="45.81142" lon="4.72717">
        <ele>358.68579</ele>
        <time>2022-10-30T13:45:18.000Z</time>
      </trkpt>
      <trkpt lat="45.81139" lon="4.72714">
        <ele>358.59052</ele>
        <time>2022-10-30T13:45:19.000Z</time>
      </trkpt>
      <trkpt lat="45.81136" lon="4.72711">
        <ele>358.43542</ele>
        <time>2022-10-30T13:45:20.000Z</time>
      </trkpt>
      <trkpt lat="45.81133" lon="4.72709">
        <ele>358.32269</ele>
        <time>2022-10-30T13:45:21.000Z</time>
      </trkpt>
      <trkpt lat="45.81129" lon="4.72707">
        <ele>358.22177</ele>
        <time>2022-10-30T13:45:22.000Z</time>
      </trkpt>
      <trkpt lat="45.81126" lon="4.72705">
        <ele>358.16986</ele>
        <time>2022-10-30T13:45:23.000Z</time>
      </trkpt>
      <trkpt lat="45.81123" lon="4.72702">
        <ele>358.16568</ele>
        <time>2022-10-30T13:45:24.000Z</time>
      </trkpt>
      <trkpt lat="45.8112" lon="4.72698">
        <ele>358.24725</ele>
        <time>2022-10-30T13:45:25.000Z</time>
      </trkpt>
      <trkpt lat="45.81116" lon="4.72695">
        <ele>358.44708</ele>
        <time>2022-10-30T13:45:26.000Z</time>
      </trkpt>
      <trkpt lat="45.81113" lon="4.72691">
        <ele>358.54507</ele>
        <time>2022-10-30T13:45:27.000Z</time>
      </trkpt>
      <trkpt lat="45.8111" lon="4.72688">
        <ele>358.638</ele>
        <time>2022-10-30T13:45:28.000Z</time>
      </trkpt>
      <trkpt lat="45.81107" lon="4.72685">
        <ele>358.61588</ele>
        <time>2022-10-30T13:45:29.000Z</time>
      </trkpt>
      <trkpt lat="45.81104" lon="4.72684">
        <ele>358.56842</ele>
        <time>2022-10-30T13:45:30.000Z</time>
      </trkpt>
      <trkpt lat="45.811" lon="4.72682">
        <ele>358.53351</ele>
        <time>2022-10-30T13:45:31.000Z</time>
      </trkpt>
      <trkpt lat="45.81097" lon="4.72679">
        <ele>358.51447</ele>
        <time>2022-10-30T13:45:32.000Z</time>
      </trkpt>
      <trkpt lat="45.81093" lon="4.72677">
        <ele>358.54877</ele>
        <time>2022-10-30T13:45:33.000Z</time>
      </trkpt>
      <trkpt lat="45.81089" lon="4.72674">
        <ele>358.60034</ele>
        <time>2022-10-30T13:45:34.000Z</time>
      </trkpt>
      <trkpt lat="45.81086" lon="4.72671">
        <ele>358.75119</ele>
        <time>2022-10-30T13:45:35.000Z</time>
      </trkpt>
      <trkpt lat="45.81083" lon="4.72668">
        <ele>358.92096</ele>
        <time>2022-10-30T13:45:36.000Z</time>
      </trkpt>
      <trkpt lat="45.81079" lon="4.72665">
        <ele>359.13248</ele>
        <time>2022-10-30T13:45:37.000Z</time>
      </trkpt>
      <trkpt lat="45.81075" lon="4.72662">
        <ele>359.35394</ele>
        <time>2022-10-30T13:45:38.000Z</time>
      </trkpt>
      <trkpt lat="45.81071" lon="4.72659">
        <ele>359.48169</ele>
        <time>2022-10-30T13:45:39.000Z</time>
      </trkpt>
      <trkpt lat="45.81068" lon="4.72656">
        <ele>359.61688</ele>
        <time>2022-10-30T13:45:40.000Z</time>
      </trkpt>
      <trkpt lat="45.81064" lon="4.72652">
        <ele>359.72894</ele>
        <time>2022-10-30T13:45:41.000Z</time>
      </trkpt>
      <trkpt lat="45.8106" lon="4.72649">
        <ele>359.77621</ele>
        <time>2022-10-30T13:45:42.000Z</time>
      </trkpt>
      <trkpt lat="45.81056" lon="4.72645">
        <ele>359.7525</ele>
        <time>2022-10-30T13:45:43.000Z</time>
      </trkpt>
      <trkpt lat="45.81053" lon="4.72641">
        <ele>359.69098</ele>
        <time>2022-10-30T13:45:44.000Z</time>
      </trkpt>
      <trkpt lat="45.81049" lon="4.72638">
        <ele>359.53964</ele>
        <time>2022-10-30T13:45:45.000Z</time>
      </trkpt>
      <trkpt lat="45.81045" lon="4.72636">
        <ele>359.48016</ele>
        <time>2022-10-30T13:45:46.000Z</time>
      </trkpt>
      <trkpt lat="45.8104" lon="4.72634">
        <ele>359.48526</ele>
        <time>2022-10-30T13:45:47.000Z</time>
      </trkpt>
      <trkpt lat="45.81036" lon="4.72632">
        <ele>359.49796</ele>
        <time>2022-10-30T13:45:48.000Z</time>
      </trkpt>
      <trkpt lat="45.81032" lon="4.7263">
        <ele>359.54221</ele>
        <time>2022-10-30T13:45:49.000Z</time>
      </trkpt>
      <trkpt lat="45.81028" lon="4.72629">
        <ele>359.56036</ele>
        <time>2022-10-30T13:45:50.000Z</time>
      </trkpt>
      <trkpt lat="45.81024" lon="4.72627">
        <ele>359.57022</ele>
        <time>2022-10-30T13:45:51.000Z</time>
      </trkpt>
      <trkpt lat="45.8102" lon="4.72624">
        <ele>359.58536</ele>
        <time>2022-10-30T13:45:52.000Z</time>
      </trkpt>
      <trkpt lat="45.81015" lon="4.72623">
        <ele>359.59262</ele>
        <time>2022-10-30T13:45:53.000Z</time>
      </trkpt>
      <trkpt lat="45.81009" lon="4.72618">
        <ele>359.58438</ele>
        <time>2022-10-30T13:45:54.000Z</time>
      </trkpt>
      <trkpt lat="45.81004" lon="4.72615">
        <ele>359.4971</ele>
        <time>2022-10-30T13:45:55.000Z</time>
      </trkpt>
      <trkpt lat="45.80998" lon="4.72613">
        <ele>359.3916</ele>
        <time>2022-10-30T13:45:56.000Z</time>
      </trkpt>
      <trkpt lat="45.80993" lon="4.72611">
        <ele>359.30792</ele>
        <time>2022-10-30T13:45:57.000Z</time>
      </trkpt>
      <trkpt lat="45.80987" lon="4.72609">
        <ele>359.24152</ele>
        <time>2022-10-30T13:45:58.000Z</time>
      </trkpt>
      <trkpt lat="45.80983" lon="4.72606">
        <ele>359.19501</ele>
        <time>2022-10-30T13:45:59.000Z</time>
      </trkpt>
      <trkpt lat="45.80978" lon="4.72603">
        <ele>359.17664</ele>
        <time>2022-10-30T13:46:00.000Z</time>
      </trkpt>
      <trkpt lat="45.80972" lon="4.72601">
        <ele>359.13199</ele>
        <time>2022-10-30T13:46:01.000Z</time>
      </trkpt>
      <trkpt lat="45.80967" lon="4.72599">
        <ele>359.12079</ele>
        <time>2022-10-30T13:46:02.000Z</time>
      </trkpt>
      <trkpt lat="45.80962" lon="4.72596">
        <ele>359.08267</ele>
        <time>2022-10-30T13:46:03.000Z</time>
      </trkpt>
      <trkpt lat="45.80957" lon="4.72592">
        <ele>359.03375</ele>
        <time>2022-10-30T13:46:04.000Z</time>
      </trkpt>
      <trkpt lat="45.80951" lon="4.72588">
        <ele>359.03851</ele>
        <time>2022-10-30T13:46:05.000Z</time>
      </trkpt>
      <trkpt lat="45.80946" lon="4.72585">
        <ele>358.97495</ele>
        <time>2022-10-30T13:46:06.000Z</time>
      </trkpt>
      <trkpt lat="45.8094" lon="4.72582">
        <ele>358.92215</ele>
        <time>2022-10-30T13:46:07.000Z</time>
      </trkpt>
      <trkpt lat="45.80934" lon="4.7258">
        <ele>358.8858</ele>
        <time>2022-10-30T13:46:08.000Z</time>
      </trkpt>
      <trkpt lat="45.80928" lon="4.72578">
        <ele>358.81757</ele>
        <time>2022-10-30T13:46:09.000Z</time>
      </trkpt>
      <trkpt lat="45.80923" lon="4.72576">
        <ele>358.79581</ele>
        <time>2022-10-30T13:46:10.000Z</time>
      </trkpt>
      <trkpt lat="45.80918" lon="4.72573">
        <ele>358.74893</ele>
        <time>2022-10-30T13:46:11.000Z</time>
      </trkpt>
      <trkpt lat="45.80913" lon="4.7257">
        <ele>358.65985</ele>
        <time>2022-10-30T13:46:12.000Z</time>
      </trkpt>
      <trkpt lat="45.80908" lon="4.72568">
        <ele>358.48651</ele>
        <time>2022-10-30T13:46:13.000Z</time>
      </trkpt>
      <trkpt lat="45.80903" lon="4.72565">
        <ele>358.44907</ele>
        <time>2022-10-30T13:46:14.000Z</time>
      </trkpt>
      <trkpt lat="45.80897" lon="4.72562">
        <ele>358.47412</ele>
        <time>2022-10-30T13:46:15.000Z</time>
      </trkpt>
      <trkpt lat="45.80891" lon="4.72559">
        <ele>358.56323</ele>
        <time>2022-10-30T13:46:16.000Z</time>
      </trkpt>
      <trkpt lat="45.80886" lon="4.72555">
        <ele>358.52039</ele>
        <time>2022-10-30T13:46:17.000Z</time>
      </trkpt>
      <trkpt lat="45.8088" lon="4.72553">
        <ele>358.44638</ele>
        <time>2022-10-30T13:46:18.000Z</time>
      </trkpt>
      <trkpt lat="45.80874" lon="4.7255">
        <ele>358.41431</ele>
        <time>2022-10-30T13:46:19.000Z</time>
      </trkpt>
      <trkpt lat="45.80869" lon="4.72547">
        <ele>358.41257</ele>
        <time>2022-10-30T13:46:20.000Z</time>
      </trkpt>
      <trkpt lat="45.80863" lon="4.72544">
        <ele>358.51343</ele>
        <time>2022-10-30T13:46:21.000Z</time>
      </trkpt>
      <trkpt lat="45.80857" lon="4.7254">
        <ele>358.52155</ele>
        <time>2022-10-30T13:46:22.000Z</time>
      </trkpt>
      <trkpt lat="45.8085" lon="4.72537">
        <ele>358.51257</ele>
        <time>2022-10-30T13:46:23.000Z</time>
      </trkpt>
      <trkpt lat="45.80844" lon="4.72534">
        <ele>358.5206</ele>
        <time>2022-10-30T13:46:24.000Z</time>
      </trkpt>
      <trkpt lat="45.80839" lon="4.72532">
        <ele>358.52972</ele>
        <time>2022-10-30T13:46:25.000Z</time>
      </trkpt>
      <trkpt lat="45.80833" lon="4.72529">
        <ele>358.55917</ele>
        <time>2022-10-30T13:46:26.000Z</time>
      </trkpt>
      <trkpt lat="45.80828" lon="4.72525">
        <ele>358.55377</ele>
        <time>2022-10-30T13:46:27.000Z</time>
      </trkpt>
      <trkpt lat="45.80821" lon="4.72522">
        <ele>358.48898</ele>
        <time>2022-10-30T13:46:28.000Z</time>
      </trkpt>
      <trkpt lat="45.80816" lon="4.72519">
        <ele>358.39536</ele>
        <time>2022-10-30T13:46:29.000Z</time>
      </trkpt>
      <trkpt lat="45.80811" lon="4.72518">
        <ele>358.26703</ele>
        <time>2022-10-30T13:46:30.000Z</time>
      </trkpt>
      <trkpt lat="45.80806" lon="4.72516">
        <ele>358.11096</ele>
        <time>2022-10-30T13:46:31.000Z</time>
      </trkpt>
      <trkpt lat="45.80801" lon="4.72513">
        <ele>357.95712</ele>
        <time>2022-10-30T13:46:32.000Z</time>
      </trkpt>
      <trkpt lat="45.80795" lon="4.72509">
        <ele>357.86615</ele>
        <time>2022-10-30T13:46:33.000Z</time>
      </trkpt>
      <trkpt lat="45.80789" lon="4.72506">
        <ele>357.63049</ele>
        <time>2022-10-30T13:46:34.000Z</time>
      </trkpt>
      <trkpt lat="45.80783" lon="4.72502">
        <ele>357.35663</ele>
        <time>2022-10-30T13:46:35.000Z</time>
      </trkpt>
      <trkpt lat="45.80777" lon="4.72499">
        <ele>357.0325</ele>
        <time>2022-10-30T13:46:36.000Z</time>
      </trkpt>
      <trkpt lat="45.80772" lon="4.72496">
        <ele>356.79898</ele>
        <time>2022-10-30T13:46:37.000Z</time>
      </trkpt>
      <trkpt lat="45.80766" lon="4.72493">
        <ele>356.56128</ele>
        <time>2022-10-30T13:46:38.000Z</time>
      </trkpt>
      <trkpt lat="45.8076" lon="4.7249">
        <ele>356.23877</ele>
        <time>2022-10-30T13:46:39.000Z</time>
      </trkpt>
      <trkpt lat="45.80754" lon="4.72487">
        <ele>355.90826</ele>
        <time>2022-10-30T13:46:40.000Z</time>
      </trkpt>
      <trkpt lat="45.80749" lon="4.72484">
        <ele>355.5192</ele>
        <time>2022-10-30T13:46:41.000Z</time>
      </trkpt>
      <trkpt lat="45.80743" lon="4.72481">
        <ele>355.17242</ele>
        <time>2022-10-30T13:46:42.000Z</time>
      </trkpt>
      <trkpt lat="45.80738" lon="4.72478">
        <ele>354.91071</ele>
        <time>2022-10-30T13:46:43.000Z</time>
      </trkpt>
      <trkpt lat="45.80733" lon="4.72476">
        <ele>354.62747</ele>
        <time>2022-10-30T13:46:44.000Z</time>
      </trkpt>
      <trkpt lat="45.80727" lon="4.72475">
        <ele>354.36584</ele>
        <time>2022-10-30T13:46:45.000Z</time>
      </trkpt>
      <trkpt lat="45.80721" lon="4.72471">
        <ele>354.00562</ele>
        <time>2022-10-30T13:46:46.000Z</time>
      </trkpt>
      <trkpt lat="45.80714" lon="4.72468">
        <ele>353.61719</ele>
        <time>2022-10-30T13:46:47.000Z</time>
      </trkpt>
      <trkpt lat="45.80709" lon="4.72464">
        <ele>353.27805</ele>
        <time>2022-10-30T13:46:48.000Z</time>
      </trkpt>
      <trkpt lat="45.80703" lon="4.72461">
        <ele>353.01599</ele>
        <time>2022-10-30T13:46:49.000Z</time>
      </trkpt>
      <trkpt lat="45.80698" lon="4.72458">
        <ele>352.79965</ele>
        <time>2022-10-30T13:46:50.000Z</time>
      </trkpt>
      <trkpt lat="45.80694" lon="4.72453">
        <ele>352.56512</ele>
        <time>2022-10-30T13:46:51.000Z</time>
      </trkpt>
      <trkpt lat="45.8069" lon="4.72445">
        <ele>352.35492</ele>
        <time>2022-10-30T13:46:52.000Z</time>
      </trkpt>
      <trkpt lat="45.80688" lon="4.72437">
        <ele>352.10883</ele>
        <time>2022-10-30T13:46:53.000Z</time>
      </trkpt>
      <trkpt lat="45.80686" lon="4.72428">
        <ele>351.8598</ele>
        <time>2022-10-30T13:46:54.000Z</time>
      </trkpt>
      <trkpt lat="45.80686" lon="4.72419">
        <ele>351.55499</ele>
        <time>2022-10-30T13:46:55.000Z</time>
      </trkpt>
      <trkpt lat="45.80687" lon="4.7241">
        <ele>351.25177</ele>
        <time>2022-10-30T13:46:56.000Z</time>
      </trkpt>
      <trkpt lat="45.80686" lon="4.72401">
        <ele>350.91705</ele>
        <time>2022-10-30T13:46:57.000Z</time>
      </trkpt>
      <trkpt lat="45.80686" lon="4.72393">
        <ele>350.61691</ele>
        <time>2022-10-30T13:46:58.000Z</time>
      </trkpt>
      <trkpt lat="45.80687" lon="4.72386">
        <ele>350.3548</ele>
        <time>2022-10-30T13:46:59.000Z</time>
      </trkpt>
      <trkpt lat="45.80687" lon="4.72379">
        <ele>350.10132</ele>
        <time>2022-10-30T13:47:00.000Z</time>
      </trkpt>
      <trkpt lat="45.80688" lon="4.72373">
        <ele>349.89807</ele>
        <time>2022-10-30T13:47:01.000Z</time>
      </trkpt>
      <trkpt lat="45.80688" lon="4.72366">
        <ele>349.66449</ele>
        <time>2022-10-30T13:47:02.000Z</time>
      </trkpt>
      <trkpt lat="45.80689" lon="4.7236">
        <ele>349.34866</ele>
        <time>2022-10-30T13:47:03.000Z</time>
      </trkpt>
      <trkpt lat="45.80689" lon="4.72356">
        <ele>349.03113</ele>
        <time>2022-10-30T13:47:04.000Z</time>
      </trkpt>
      <trkpt lat="45.8069" lon="4.72351">
        <ele>348.67706</ele>
        <time>2022-10-30T13:47:05.000Z</time>
      </trkpt>
      <trkpt lat="45.80691" lon="4.72348">
        <ele>348.36966</ele>
        <time>2022-10-30T13:47:06.000Z</time>
      </trkpt>
      <trkpt lat="45.8069" lon="4.72345">
        <ele>348.15878</ele>
        <time>2022-10-30T13:47:07.000Z</time>
      </trkpt>
      <trkpt lat="45.80688" lon="4.7234">
        <ele>347.9686</ele>
        <time>2022-10-30T13:47:09.000Z</time>
      </trkpt>
      <trkpt lat="45.80689" lon="4.72337">
        <ele>347.77872</ele>
        <time>2022-10-30T13:47:10.000Z</time>
      </trkpt>
      <trkpt lat="45.8069" lon="4.72334">
        <ele>347.59241</ele>
        <time>2022-10-30T13:47:11.000Z</time>
      </trkpt>
      <trkpt lat="45.80692" lon="4.7233">
        <ele>347.45132</ele>
        <time>2022-10-30T13:47:12.000Z</time>
      </trkpt>
      <trkpt lat="45.80693" lon="4.72326">
        <ele>347.31332</ele>
        <time>2022-10-30T13:47:13.000Z</time>
      </trkpt>
      <trkpt lat="45.80694" lon="4.72321">
        <ele>347.18872</ele>
        <time>2022-10-30T13:47:14.000Z</time>
      </trkpt>
      <trkpt lat="45.80696" lon="4.72317">
        <ele>347.12711</ele>
        <time>2022-10-30T13:47:15.000Z</time>
      </trkpt>
      <trkpt lat="45.80697" lon="4.72312">
        <ele>347.11188</ele>
        <time>2022-10-30T13:47:16.000Z</time>
      </trkpt>
      <trkpt lat="45.80697" lon="4.72307">
        <ele>347.0654</ele>
        <time>2022-10-30T13:47:17.000Z</time>
      </trkpt>
      <trkpt lat="45.80697" lon="4.72302">
        <ele>347.06781</ele>
        <time>2022-10-30T13:47:18.000Z</time>
      </trkpt>
      <trkpt lat="45.80697" lon="4.72297">
        <ele>347.06381</ele>
        <time>2022-10-30T13:47:19.000Z</time>
      </trkpt>
      <trkpt lat="45.80697" lon="4.72291">
        <ele>347.06665</ele>
        <time>2022-10-30T13:47:20.000Z</time>
      </trkpt>
      <trkpt lat="45.80697" lon="4.72287">
        <ele>346.99835</ele>
        <time>2022-10-30T13:47:21.000Z</time>
      </trkpt>
      <trkpt lat="45.80697" lon="4.72282">
        <ele>346.91711</ele>
        <time>2022-10-30T13:47:22.000Z</time>
      </trkpt>
      <trkpt lat="45.80697" lon="4.72276">
        <ele>346.88983</ele>
        <time>2022-10-30T13:47:23.000Z</time>
      </trkpt>
      <trkpt lat="45.80697" lon="4.72271">
        <ele>346.94333</ele>
        <time>2022-10-30T13:47:24.000Z</time>
      </trkpt>
      <trkpt lat="45.80696" lon="4.72267">
        <ele>347.03793</ele>
        <time>2022-10-30T13:47:25.000Z</time>
      </trkpt>
      <trkpt lat="45.80696" lon="4.72262">
        <ele>347.15741</ele>
        <time>2022-10-30T13:47:26.000Z</time>
      </trkpt>
      <trkpt lat="45.80697" lon="4.72257">
        <ele>347.31049</ele>
        <time>2022-10-30T13:47:27.000Z</time>
      </trkpt>
      <trkpt lat="45.80697" lon="4.72253">
        <ele>347.43817</ele>
        <time>2022-10-30T13:47:28.000Z</time>
      </trkpt>
      <trkpt lat="45.80698" lon="4.72249">
        <ele>347.61536</ele>
        <time>2022-10-30T13:47:29.000Z</time>
      </trkpt>
      <trkpt lat="45.80698" lon="4.72245">
        <ele>347.82578</ele>
        <time>2022-10-30T13:47:30.000Z</time>
      </trkpt>
      <trkpt lat="45.80699" lon="4.72242">
        <ele>348.00626</ele>
        <time>2022-10-30T13:47:31.000Z</time>
      </trkpt>
      <trkpt lat="45.80699" lon="4.72238">
        <ele>348.16006</ele>
        <time>2022-10-30T13:47:32.000Z</time>
      </trkpt>
      <trkpt lat="45.80699" lon="4.72234">
        <ele>348.32599</ele>
        <time>2022-10-30T13:47:33.000Z</time>
      </trkpt>
      <trkpt lat="45.80698" lon="4.7223">
        <ele>348.48679</ele>
        <time>2022-10-30T13:47:34.000Z</time>
      </trkpt>
      <trkpt lat="45.80697" lon="4.72227">
        <ele>348.5748</ele>
        <time>2022-10-30T13:47:35.000Z</time>
      </trkpt>
      <trkpt lat="45.80695" lon="4.72224">
        <ele>348.65607</ele>
        <time>2022-10-30T13:47:36.000Z</time>
      </trkpt>
      <trkpt lat="45.80693" lon="4.72222">
        <ele>348.82156</ele>
        <time>2022-10-30T13:47:37.000Z</time>
      </trkpt>
      <trkpt lat="45.80691" lon="4.7222">
        <ele>348.98013</ele>
        <time>2022-10-30T13:47:38.000Z</time>
      </trkpt>
      <trkpt lat="45.80688" lon="4.72218">
        <ele>349.10696</ele>
        <time>2022-10-30T13:47:39.000Z</time>
      </trkpt>
      <trkpt lat="45.80685" lon="4.72216">
        <ele>349.19525</ele>
        <time>2022-10-30T13:47:40.000Z</time>
      </trkpt>
      <trkpt lat="45.80683" lon="4.72215">
        <ele>349.32318</ele>
        <time>2022-10-30T13:47:41.000Z</time>
      </trkpt>
      <trkpt lat="45.80679" lon="4.72215">
        <ele>349.39658</ele>
        <time>2022-10-30T13:47:42.000Z</time>
      </trkpt>
      <trkpt lat="45.80676" lon="4.72216">
        <ele>349.47653</ele>
        <time>2022-10-30T13:47:43.000Z</time>
      </trkpt>
      <trkpt lat="45.80673" lon="4.72217">
        <ele>349.45404</ele>
        <time>2022-10-30T13:47:44.000Z</time>
      </trkpt>
      <trkpt lat="45.80671" lon="4.72218">
        <ele>349.42725</ele>
        <time>2022-10-30T13:47:45.000Z</time>
      </trkpt>
      <trkpt lat="45.80669" lon="4.72219">
        <ele>349.3978</ele>
        <time>2022-10-30T13:47:46.000Z</time>
      </trkpt>
      <trkpt lat="45.80666" lon="4.72222">
        <ele>349.28571</ele>
        <time>2022-10-30T13:47:48.000Z</time>
      </trkpt>
      <trkpt lat="45.80665" lon="4.72223">
        <ele>349.22006</ele>
        <time>2022-10-30T13:47:49.000Z</time>
      </trkpt>
      <trkpt lat="45.80663" lon="4.72225">
        <ele>349.08502</ele>
        <time>2022-10-30T13:47:50.000Z</time>
      </trkpt>
      <trkpt lat="45.8066" lon="4.72226">
        <ele>348.80753</ele>
        <time>2022-10-30T13:47:51.000Z</time>
      </trkpt>
      <trkpt lat="45.80658" lon="4.72227">
        <ele>348.52017</ele>
        <time>2022-10-30T13:47:52.000Z</time>
      </trkpt>
      <trkpt lat="45.80655" lon="4.72229">
        <ele>348.28387</ele>
        <time>2022-10-30T13:47:53.000Z</time>
      </trkpt>
      <trkpt lat="45.80652" lon="4.72231">
        <ele>348.04047</ele>
        <time>2022-10-30T13:47:54.000Z</time>
      </trkpt>
      <trkpt lat="45.80648" lon="4.72233">
        <ele>347.81952</ele>
        <time>2022-10-30T13:47:55.000Z</time>
      </trkpt>
      <trkpt lat="45.80643" lon="4.72236">
        <ele>347.65909</ele>
        <time>2022-10-30T13:47:56.000Z</time>
      </trkpt>
      <trkpt lat="45.80639" lon="4.72238">
        <ele>347.49384</ele>
        <time>2022-10-30T13:47:57.000Z</time>
      </trkpt>
      <trkpt lat="45.80635" lon="4.72241">
        <ele>347.28918</ele>
        <time>2022-10-30T13:47:58.000Z</time>
      </trkpt>
      <trkpt lat="45.80631" lon="4.72243">
        <ele>347.02899</ele>
        <time>2022-10-30T13:47:59.000Z</time>
      </trkpt>
      <trkpt lat="45.80627" lon="4.72244">
        <ele>346.8071</ele>
        <time>2022-10-30T13:48:00.000Z</time>
      </trkpt>
      <trkpt lat="45.80623" lon="4.72245">
        <ele>346.70956</ele>
        <time>2022-10-30T13:48:01.000Z</time>
      </trkpt>
      <trkpt lat="45.80619" lon="4.72247">
        <ele>346.6214</ele>
        <time>2022-10-30T13:48:02.000Z</time>
      </trkpt>
      <trkpt lat="45.80615" lon="4.72248">
        <ele>346.62579</ele>
        <time>2022-10-30T13:48:03.000Z</time>
      </trkpt>
      <trkpt lat="45.80611" lon="4.7225">
        <ele>346.66129</ele>
        <time>2022-10-30T13:48:04.000Z</time>
      </trkpt>
      <trkpt lat="45.80606" lon="4.72252">
        <ele>346.77972</ele>
        <time>2022-10-30T13:48:05.000Z</time>
      </trkpt>
      <trkpt lat="45.806" lon="4.72255">
        <ele>346.90952</ele>
        <time>2022-10-30T13:48:06.000Z</time>
      </trkpt>
      <trkpt lat="45.80595" lon="4.72258">
        <ele>347.04373</ele>
        <time>2022-10-30T13:48:07.000Z</time>
      </trkpt>
      <trkpt lat="45.8059" lon="4.72261">
        <ele>347.23203</ele>
        <time>2022-10-30T13:48:08.000Z</time>
      </trkpt>
      <trkpt lat="45.80585" lon="4.72265">
        <ele>347.37256</ele>
        <time>2022-10-30T13:48:09.000Z</time>
      </trkpt>
      <trkpt lat="45.8058" lon="4.72268">
        <ele>347.52985</ele>
        <time>2022-10-30T13:48:10.000Z</time>
      </trkpt>
      <trkpt lat="45.80574" lon="4.72271">
        <ele>347.75238</ele>
        <time>2022-10-30T13:48:11.000Z</time>
      </trkpt>
      <trkpt lat="45.80566" lon="4.72274">
        <ele>348.00446</ele>
        <time>2022-10-30T13:48:12.000Z</time>
      </trkpt>
      <trkpt lat="45.8056" lon="4.72276">
        <ele>348.21027</ele>
        <time>2022-10-30T13:48:13.000Z</time>
      </trkpt>
      <trkpt lat="45.80555" lon="4.72278">
        <ele>348.33026</ele>
        <time>2022-10-30T13:48:14.000Z</time>
      </trkpt>
      <trkpt lat="45.8055" lon="4.72281">
        <ele>348.43747</ele>
        <time>2022-10-30T13:48:15.000Z</time>
      </trkpt>
      <trkpt lat="45.80543" lon="4.72283">
        <ele>348.50977</ele>
        <time>2022-10-30T13:48:16.000Z</time>
      </trkpt>
      <trkpt lat="45.80539" lon="4.72284">
        <ele>348.54739</ele>
        <time>2022-10-30T13:48:17.000Z</time>
      </trkpt>
      <trkpt lat="45.80535" lon="4.72287">
        <ele>348.47968</ele>
        <time>2022-10-30T13:48:18.000Z</time>
      </trkpt>
      <trkpt lat="45.80528" lon="4.72289">
        <ele>348.45654</ele>
        <time>2022-10-30T13:48:19.000Z</time>
      </trkpt>
      <trkpt lat="45.80523" lon="4.72291">
        <ele>348.38898</ele>
        <time>2022-10-30T13:48:20.000Z</time>
      </trkpt>
      <trkpt lat="45.80518" lon="4.72294">
        <ele>348.17416</ele>
        <time>2022-10-30T13:48:21.000Z</time>
      </trkpt>
      <trkpt lat="45.80514" lon="4.72298">
        <ele>347.87836</ele>
        <time>2022-10-30T13:48:22.000Z</time>
      </trkpt>
      <trkpt lat="45.80509" lon="4.723">
        <ele>347.60052</ele>
        <time>2022-10-30T13:48:23.000Z</time>
      </trkpt>
      <trkpt lat="45.80504" lon="4.72302">
        <ele>347.26334</ele>
        <time>2022-10-30T13:48:24.000Z</time>
      </trkpt>
      <trkpt lat="45.80499" lon="4.72305">
        <ele>346.89572</ele>
        <time>2022-10-30T13:48:25.000Z</time>
      </trkpt>
      <trkpt lat="45.80495" lon="4.72307">
        <ele>346.45319</ele>
        <time>2022-10-30T13:48:26.000Z</time>
      </trkpt>
      <trkpt lat="45.80491" lon="4.72309">
        <ele>345.95432</ele>
        <time>2022-10-30T13:48:27.000Z</time>
      </trkpt>
      <trkpt lat="45.80487" lon="4.72311">
        <ele>345.42514</ele>
        <time>2022-10-30T13:48:28.000Z</time>
      </trkpt>
      <trkpt lat="45.80482" lon="4.72314">
        <ele>344.89618</ele>
        <time>2022-10-30T13:48:29.000Z</time>
      </trkpt>
      <trkpt lat="45.80477" lon="4.72316">
        <ele>344.34726</ele>
        <time>2022-10-30T13:48:30.000Z</time>
      </trkpt>
      <trkpt lat="45.80473" lon="4.72317">
        <ele>343.81598</ele>
        <time>2022-10-30T13:48:31.000Z</time>
      </trkpt>
      <trkpt lat="45.80468" lon="4.72319">
        <ele>343.27747</ele>
        <time>2022-10-30T13:48:32.000Z</time>
      </trkpt>
      <trkpt lat="45.80463" lon="4.72322">
        <ele>342.71164</ele>
        <time>2022-10-30T13:48:33.000Z</time>
      </trkpt>
      <trkpt lat="45.80458" lon="4.72324">
        <ele>342.18149</ele>
        <time>2022-10-30T13:48:34.000Z</time>
      </trkpt>
      <trkpt lat="45.80453" lon="4.72327">
        <ele>341.67111</ele>
        <time>2022-10-30T13:48:35.000Z</time>
      </trkpt>
      <trkpt lat="45.80448" lon="4.72328">
        <ele>341.18796</ele>
        <time>2022-10-30T13:48:36.000Z</time>
      </trkpt>
      <trkpt lat="45.80442" lon="4.7233">
        <ele>340.733</ele>
        <time>2022-10-30T13:48:37.000Z</time>
      </trkpt>
      <trkpt lat="45.80437" lon="4.72333">
        <ele>340.32855</ele>
        <time>2022-10-30T13:48:38.000Z</time>
      </trkpt>
      <trkpt lat="45.80432" lon="4.72334">
        <ele>339.89407</ele>
        <time>2022-10-30T13:48:39.000Z</time>
      </trkpt>
      <trkpt lat="45.80426" lon="4.72337">
        <ele>339.48871</ele>
        <time>2022-10-30T13:48:40.000Z</time>
      </trkpt>
      <trkpt lat="45.80421" lon="4.72339">
        <ele>339.18143</ele>
        <time>2022-10-30T13:48:41.000Z</time>
      </trkpt>
      <trkpt lat="45.80416" lon="4.72341">
        <ele>339.01093</ele>
        <time>2022-10-30T13:48:42.000Z</time>
      </trkpt>
      <trkpt lat="45.80412" lon="4.72342">
        <ele>338.71851</ele>
        <time>2022-10-30T13:48:43.000Z</time>
      </trkpt>
      <trkpt lat="45.80407" lon="4.72344">
        <ele>338.42792</ele>
        <time>2022-10-30T13:48:44.000Z</time>
      </trkpt>
      <trkpt lat="45.80403" lon="4.72344">
        <ele>338.16275</ele>
        <time>2022-10-30T13:48:45.000Z</time>
      </trkpt>
      <trkpt lat="45.80399" lon="4.72347">
        <ele>337.86432</ele>
        <time>2022-10-30T13:48:46.000Z</time>
      </trkpt>
      <trkpt lat="45.80394" lon="4.72349">
        <ele>337.63391</ele>
        <time>2022-10-30T13:48:47.000Z</time>
      </trkpt>
      <trkpt lat="45.8039" lon="4.72352">
        <ele>337.3938</ele>
        <time>2022-10-30T13:48:48.000Z</time>
      </trkpt>
      <trkpt lat="45.80386" lon="4.72354">
        <ele>337.16351</ele>
        <time>2022-10-30T13:48:49.000Z</time>
      </trkpt>
      <trkpt lat="45.80382" lon="4.72356">
        <ele>336.90201</ele>
        <time>2022-10-30T13:48:50.000Z</time>
      </trkpt>
      <trkpt lat="45.80377" lon="4.72357">
        <ele>336.66028</ele>
        <time>2022-10-30T13:48:51.000Z</time>
      </trkpt>
      <trkpt lat="45.80373" lon="4.72358">
        <ele>336.45914</ele>
        <time>2022-10-30T13:48:52.000Z</time>
      </trkpt>
      <trkpt lat="45.8037" lon="4.72361">
        <ele>336.38931</ele>
        <time>2022-10-30T13:48:53.000Z</time>
      </trkpt>
      <trkpt lat="45.80366" lon="4.72363">
        <ele>336.38516</ele>
        <time>2022-10-30T13:48:54.000Z</time>
      </trkpt>
      <trkpt lat="45.80363" lon="4.72365">
        <ele>336.427</ele>
        <time>2022-10-30T13:48:55.000Z</time>
      </trkpt>
      <trkpt lat="45.8036" lon="4.72366">
        <ele>336.45868</ele>
        <time>2022-10-30T13:48:56.000Z</time>
      </trkpt>
      <trkpt lat="45.80358" lon="4.72366">
        <ele>336.51001</ele>
        <time>2022-10-30T13:48:57.000Z</time>
      </trkpt>
      <trkpt lat="45.80356" lon="4.72367">
        <ele>336.59747</ele>
        <time>2022-10-30T13:48:58.000Z</time>
      </trkpt>
      <trkpt lat="45.80353" lon="4.72369">
        <ele>336.6705</ele>
        <time>2022-10-30T13:48:59.000Z</time>
      </trkpt>
      <trkpt lat="45.8035" lon="4.72371">
        <ele>336.73795</ele>
        <time>2022-10-30T13:49:00.000Z</time>
      </trkpt>
      <trkpt lat="45.80347" lon="4.72373">
        <ele>336.81085</ele>
        <time>2022-10-30T13:49:01.000Z</time>
      </trkpt>
      <trkpt lat="45.80344" lon="4.72375">
        <ele>336.82855</ele>
        <time>2022-10-30T13:49:02.000Z</time>
      </trkpt>
      <trkpt lat="45.80341" lon="4.72376">
        <ele>336.84854</ele>
        <time>2022-10-30T13:49:03.000Z</time>
      </trkpt>
      <trkpt lat="45.80337" lon="4.72376">
        <ele>336.96219</ele>
        <time>2022-10-30T13:49:04.000Z</time>
      </trkpt>
      <trkpt lat="45.80334" lon="4.72378">
        <ele>337.06079</ele>
        <time>2022-10-30T13:49:05.000Z</time>
      </trkpt>
      <trkpt lat="45.8033" lon="4.7238">
        <ele>337.20209</ele>
        <time>2022-10-30T13:49:06.000Z</time>
      </trkpt>
      <trkpt lat="45.80328" lon="4.72384">
        <ele>337.35959</ele>
        <time>2022-10-30T13:49:07.000Z</time>
      </trkpt>
      <trkpt lat="45.80324" lon="4.72388">
        <ele>337.5752</ele>
        <time>2022-10-30T13:49:08.000Z</time>
      </trkpt>
      <trkpt lat="45.80321" lon="4.72391">
        <ele>337.7598</ele>
        <time>2022-10-30T13:49:09.000Z</time>
      </trkpt>
      <trkpt lat="45.80317" lon="4.72395">
        <ele>338.03604</ele>
        <time>2022-10-30T13:49:10.000Z</time>
      </trkpt>
      <trkpt lat="45.80313" lon="4.72398">
        <ele>338.27029</ele>
        <time>2022-10-30T13:49:11.000Z</time>
      </trkpt>
      <trkpt lat="45.80309" lon="4.724">
        <ele>338.46967</ele>
        <time>2022-10-30T13:49:12.000Z</time>
      </trkpt>
      <trkpt lat="45.80305" lon="4.72402">
        <ele>338.62994</ele>
        <time>2022-10-30T13:49:13.000Z</time>
      </trkpt>
      <trkpt lat="45.80301" lon="4.72404">
        <ele>338.71231</ele>
        <time>2022-10-30T13:49:14.000Z</time>
      </trkpt>
      <trkpt lat="45.80297" lon="4.72406">
        <ele>338.73569</ele>
        <time>2022-10-30T13:49:15.000Z</time>
      </trkpt>
      <trkpt lat="45.80293" lon="4.72408">
        <ele>338.79193</ele>
        <time>2022-10-30T13:49:16.000Z</time>
      </trkpt>
      <trkpt lat="45.8029" lon="4.72409">
        <ele>338.78464</ele>
        <time>2022-10-30T13:49:17.000Z</time>
      </trkpt>
      <trkpt lat="45.80287" lon="4.72411">
        <ele>338.80112</ele>
        <time>2022-10-30T13:49:18.000Z</time>
      </trkpt>
      <trkpt lat="45.80283" lon="4.72412">
        <ele>338.83801</ele>
        <time>2022-10-30T13:49:19.000Z</time>
      </trkpt>
      <trkpt lat="45.80281" lon="4.72413">
        <ele>338.88379</ele>
        <time>2022-10-30T13:49:20.000Z</time>
      </trkpt>
      <trkpt lat="45.80279" lon="4.72415">
        <ele>339.04041</ele>
        <time>2022-10-30T13:49:30.000Z</time>
      </trkpt>
      <trkpt lat="45.80277" lon="4.72417">
        <ele>339.29807</ele>
        <time>2022-10-30T13:53:30.000Z</time>
      </trkpt>
      <trkpt lat="45.80274" lon="4.72417">
        <ele>339.67477</ele>
        <time>2022-10-30T13:53:32.000Z</time>
      </trkpt>
      <trkpt lat="45.80272" lon="4.72418">
        <ele>340.03696</ele>
        <time>2022-10-30T13:53:33.000Z</time>
      </trkpt>
      <trkpt lat="45.8027" lon="4.72418">
        <ele>340.42236</ele>
        <time>2022-10-30T13:53:34.000Z</time>
      </trkpt>
      <trkpt lat="45.80267" lon="4.72419">
        <ele>340.89236</ele>
        <time>2022-10-30T13:53:35.000Z</time>
      </trkpt>
      <trkpt lat="45.80263" lon="4.72421">
        <ele>341.28369</ele>
        <time>2022-10-30T13:53:36.000Z</time>
      </trkpt>
      <trkpt lat="45.8026" lon="4.72422">
        <ele>341.59613</ele>
        <time>2022-10-30T13:53:37.000Z</time>
      </trkpt>
      <trkpt lat="45.80257" lon="4.72424">
        <ele>341.93478</ele>
        <time>2022-10-30T13:53:38.000Z</time>
      </trkpt>
      <trkpt lat="45.80253" lon="4.72426">
        <ele>342.21185</ele>
        <time>2022-10-30T13:53:39.000Z</time>
      </trkpt>
      <trkpt lat="45.80249" lon="4.72427">
        <ele>342.54208</ele>
        <time>2022-10-30T13:53:40.000Z</time>
      </trkpt>
      <trkpt lat="45.80245" lon="4.72429">
        <ele>342.87875</ele>
        <time>2022-10-30T13:53:41.000Z</time>
      </trkpt>
      <trkpt lat="45.80241" lon="4.7243">
        <ele>343.18829</ele>
        <time>2022-10-30T13:53:42.000Z</time>
      </trkpt>
      <trkpt lat="45.80237" lon="4.72432">
        <ele>343.56732</ele>
        <time>2022-10-30T13:53:43.000Z</time>
      </trkpt>
      <trkpt lat="45.80233" lon="4.72434">
        <ele>343.93338</ele>
        <time>2022-10-30T13:53:44.000Z</time>
      </trkpt>
      <trkpt lat="45.8023" lon="4.72438">
        <ele>344.25555</ele>
        <time>2022-10-30T13:53:45.000Z</time>
      </trkpt>
      <trkpt lat="45.80227" lon="4.72442">
        <ele>344.62216</ele>
        <time>2022-10-30T13:53:46.000Z</time>
      </trkpt>
      <trkpt lat="45.80224" lon="4.72445">
        <ele>344.96353</ele>
        <time>2022-10-30T13:53:47.000Z</time>
      </trkpt>
      <trkpt lat="45.8022" lon="4.72447">
        <ele>345.34662</ele>
        <time>2022-10-30T13:53:48.000Z</time>
      </trkpt>
      <trkpt lat="45.80216" lon="4.72447">
        <ele>345.74634</ele>
        <time>2022-10-30T13:53:49.000Z</time>
      </trkpt>
      <trkpt lat="45.80211" lon="4.72448">
        <ele>345.94269</ele>
        <time>2022-10-30T13:53:50.000Z</time>
      </trkpt>
      <trkpt lat="45.80207" lon="4.72448">
        <ele>346.02588</ele>
        <time>2022-10-30T13:53:51.000Z</time>
      </trkpt>
      <trkpt lat="45.80203" lon="4.72449">
        <ele>346.00787</ele>
        <time>2022-10-30T13:53:52.000Z</time>
      </trkpt>
      <trkpt lat="45.80199" lon="4.7245">
        <ele>345.92642</ele>
        <time>2022-10-30T13:53:53.000Z</time>
      </trkpt>
      <trkpt lat="45.80195" lon="4.7245">
        <ele>345.80573</ele>
        <time>2022-10-30T13:53:54.000Z</time>
      </trkpt>
      <trkpt lat="45.80191" lon="4.72451">
        <ele>345.72345</ele>
        <time>2022-10-30T13:53:55.000Z</time>
      </trkpt>
      <trkpt lat="45.80187" lon="4.72453">
        <ele>345.66901</ele>
        <time>2022-10-30T13:53:56.000Z</time>
      </trkpt>
      <trkpt lat="45.80183" lon="4.72456">
        <ele>345.68579</ele>
        <time>2022-10-30T13:53:57.000Z</time>
      </trkpt>
      <trkpt lat="45.8018" lon="4.72459">
        <ele>345.69464</ele>
        <time>2022-10-30T13:53:58.000Z</time>
      </trkpt>
      <trkpt lat="45.80176" lon="4.72462">
        <ele>345.72372</ele>
        <time>2022-10-30T13:53:59.000Z</time>
      </trkpt>
      <trkpt lat="45.80173" lon="4.72465">
        <ele>345.74078</ele>
        <time>2022-10-30T13:54:00.000Z</time>
      </trkpt>
      <trkpt lat="45.80169" lon="4.72469">
        <ele>345.80035</ele>
        <time>2022-10-30T13:54:01.000Z</time>
      </trkpt>
      <trkpt lat="45.80165" lon="4.72471">
        <ele>345.89386</ele>
        <time>2022-10-30T13:54:02.000Z</time>
      </trkpt>
      <trkpt lat="45.80161" lon="4.72474">
        <ele>345.96909</ele>
        <time>2022-10-30T13:54:03.000Z</time>
      </trkpt>
      <trkpt lat="45.80158" lon="4.72476">
        <ele>346.07068</ele>
        <time>2022-10-30T13:54:04.000Z</time>
      </trkpt>
      <trkpt lat="45.80155" lon="4.72479">
        <ele>346.17792</ele>
        <time>2022-10-30T13:54:05.000Z</time>
      </trkpt>
      <trkpt lat="45.80151" lon="4.72481">
        <ele>346.29895</ele>
        <time>2022-10-30T13:54:06.000Z</time>
      </trkpt>
      <trkpt lat="45.80148" lon="4.72482">
        <ele>346.42334</ele>
        <time>2022-10-30T13:54:07.000Z</time>
      </trkpt>
      <trkpt lat="45.80145" lon="4.72484">
        <ele>346.58804</ele>
        <time>2022-10-30T13:54:08.000Z</time>
      </trkpt>
      <trkpt lat="45.80141" lon="4.72485">
        <ele>346.72107</ele>
        <time>2022-10-30T13:54:09.000Z</time>
      </trkpt>
      <trkpt lat="45.80137" lon="4.72487">
        <ele>346.93335</ele>
        <time>2022-10-30T13:54:10.000Z</time>
      </trkpt>
      <trkpt lat="45.80133" lon="4.72489">
        <ele>347.12848</ele>
        <time>2022-10-30T13:54:11.000Z</time>
      </trkpt>
      <trkpt lat="45.80129" lon="4.72491">
        <ele>347.2923</ele>
        <time>2022-10-30T13:54:12.000Z</time>
      </trkpt>
      <trkpt lat="45.80125" lon="4.72493">
        <ele>347.45712</ele>
        <time>2022-10-30T13:54:13.000Z</time>
      </trkpt>
      <trkpt lat="45.80121" lon="4.72494">
        <ele>347.62894</ele>
        <time>2022-10-30T13:54:14.000Z</time>
      </trkpt>
      <trkpt lat="45.80116" lon="4.72496">
        <ele>347.72467</ele>
        <time>2022-10-30T13:54:15.000Z</time>
      </trkpt>
      <trkpt lat="45.80113" lon="4.72498">
        <ele>347.73154</ele>
        <time>2022-10-30T13:54:16.000Z</time>
      </trkpt>
      <trkpt lat="45.80109" lon="4.72501">
        <ele>347.70102</ele>
        <time>2022-10-30T13:54:17.000Z</time>
      </trkpt>
      <trkpt lat="45.80105" lon="4.72502">
        <ele>347.64038</ele>
        <time>2022-10-30T13:54:18.000Z</time>
      </trkpt>
      <trkpt lat="45.80101" lon="4.72503">
        <ele>347.59845</ele>
        <time>2022-10-30T13:54:19.000Z</time>
      </trkpt>
      <trkpt lat="45.80096" lon="4.72504">
        <ele>347.56622</ele>
        <time>2022-10-30T13:54:20.000Z</time>
      </trkpt>
      <trkpt lat="45.80092" lon="4.72505">
        <ele>347.47943</ele>
        <time>2022-10-30T13:54:21.000Z</time>
      </trkpt>
      <trkpt lat="45.80088" lon="4.72504">
        <ele>347.37625</ele>
        <time>2022-10-30T13:54:22.000Z</time>
      </trkpt>
      <trkpt lat="45.80085" lon="4.72504">
        <ele>347.32455</ele>
        <time>2022-10-30T13:54:23.000Z</time>
      </trkpt>
      <trkpt lat="45.80082" lon="4.72506">
        <ele>347.25671</ele>
        <time>2022-10-30T13:54:24.000Z</time>
      </trkpt>
      <trkpt lat="45.80079" lon="4.72509">
        <ele>347.21295</ele>
        <time>2022-10-30T13:54:25.000Z</time>
      </trkpt>
      <trkpt lat="45.80075" lon="4.7251">
        <ele>347.18582</ele>
        <time>2022-10-30T13:54:26.000Z</time>
      </trkpt>
      <trkpt lat="45.80071" lon="4.72513">
        <ele>347.12439</ele>
        <time>2022-10-30T13:54:27.000Z</time>
      </trkpt>
      <trkpt lat="45.80067" lon="4.72515">
        <ele>347.00616</ele>
        <time>2022-10-30T13:54:28.000Z</time>
      </trkpt>
      <trkpt lat="45.80063" lon="4.72517">
        <ele>346.92465</ele>
        <time>2022-10-30T13:54:29.000Z</time>
      </trkpt>
      <trkpt lat="45.80059" lon="4.72519">
        <ele>346.77386</ele>
        <time>2022-10-30T13:54:30.000Z</time>
      </trkpt>
      <trkpt lat="45.80056" lon="4.72521">
        <ele>346.65192</ele>
        <time>2022-10-30T13:54:31.000Z</time>
      </trkpt>
      <trkpt lat="45.80052" lon="4.72522">
        <ele>346.59982</ele>
        <time>2022-10-30T13:54:32.000Z</time>
      </trkpt>
      <trkpt lat="45.80048" lon="4.72525">
        <ele>346.56299</ele>
        <time>2022-10-30T13:54:33.000Z</time>
      </trkpt>
      <trkpt lat="45.80044" lon="4.72528">
        <ele>346.534</ele>
        <time>2022-10-30T13:54:34.000Z</time>
      </trkpt>
      <trkpt lat="45.80037" lon="4.72531">
        <ele>346.51215</ele>
        <time>2022-10-30T13:54:35.000Z</time>
      </trkpt>
      <trkpt lat="45.80033" lon="4.72534">
        <ele>346.58618</ele>
        <time>2022-10-30T13:54:36.000Z</time>
      </trkpt>
      <trkpt lat="45.80028" lon="4.72536">
        <ele>346.6673</ele>
        <time>2022-10-30T13:54:37.000Z</time>
      </trkpt>
      <trkpt lat="45.80024" lon="4.72538">
        <ele>346.75757</ele>
        <time>2022-10-30T13:54:38.000Z</time>
      </trkpt>
      <trkpt lat="45.80019" lon="4.7254">
        <ele>346.79926</ele>
        <time>2022-10-30T13:54:39.000Z</time>
      </trkpt>
      <trkpt lat="45.80016" lon="4.72541">
        <ele>346.85049</ele>
        <time>2022-10-30T13:54:40.000Z</time>
      </trkpt>
      <trkpt lat="45.80011" lon="4.72543">
        <ele>346.92264</ele>
        <time>2022-10-30T13:54:41.000Z</time>
      </trkpt>
      <trkpt lat="45.80006" lon="4.72545">
        <ele>347.00012</ele>
        <time>2022-10-30T13:54:42.000Z</time>
      </trkpt>
      <trkpt lat="45.80002" lon="4.72547">
        <ele>347.02924</ele>
        <time>2022-10-30T13:54:43.000Z</time>
      </trkpt>
      <trkpt lat="45.79997" lon="4.72548">
        <ele>347.10089</ele>
        <time>2022-10-30T13:54:44.000Z</time>
      </trkpt>
      <trkpt lat="45.79993" lon="4.72549">
        <ele>347.11539</ele>
        <time>2022-10-30T13:54:45.000Z</time>
      </trkpt>
      <trkpt lat="45.79988" lon="4.72551">
        <ele>347.11008</ele>
        <time>2022-10-30T13:54:46.000Z</time>
      </trkpt>
      <trkpt lat="45.79984" lon="4.72553">
        <ele>347.13489</ele>
        <time>2022-10-30T13:54:47.000Z</time>
      </trkpt>
      <trkpt lat="45.79979" lon="4.72555">
        <ele>347.134</ele>
        <time>2022-10-30T13:54:48.000Z</time>
      </trkpt>
      <trkpt lat="45.79973" lon="4.72556">
        <ele>347.07788</ele>
        <time>2022-10-30T13:54:49.000Z</time>
      </trkpt>
      <trkpt lat="45.79968" lon="4.72556">
        <ele>347.03549</ele>
        <time>2022-10-30T13:54:50.000Z</time>
      </trkpt>
      <trkpt lat="45.79963" lon="4.72555">
        <ele>346.92911</ele>
        <time>2022-10-30T13:54:51.000Z</time>
      </trkpt>
      <trkpt lat="45.79959" lon="4.72552">
        <ele>346.79865</ele>
        <time>2022-10-30T13:54:52.000Z</time>
      </trkpt>
      <trkpt lat="45.79954" lon="4.7255">
        <ele>346.63696</ele>
        <time>2022-10-30T13:54:53.000Z</time>
      </trkpt>
      <trkpt lat="45.79951" lon="4.72546">
        <ele>346.43292</ele>
        <time>2022-10-30T13:54:54.000Z</time>
      </trkpt>
      <trkpt lat="45.79947" lon="4.72543">
        <ele>346.18182</ele>
        <time>2022-10-30T13:54:55.000Z</time>
      </trkpt>
      <trkpt lat="45.79945" lon="4.7254">
        <ele>345.88287</ele>
        <time>2022-10-30T13:54:56.000Z</time>
      </trkpt>
      <trkpt lat="45.79942" lon="4.72538">
        <ele>345.59515</ele>
        <time>2022-10-30T13:54:57.000Z</time>
      </trkpt>
      <trkpt lat="45.79937" lon="4.72538">
        <ele>345.3067</ele>
        <time>2022-10-30T13:54:58.000Z</time>
      </trkpt>
      <trkpt lat="45.79933" lon="4.72536">
        <ele>345.05151</ele>
        <time>2022-10-30T13:54:59.000Z</time>
      </trkpt>
      <trkpt lat="45.79929" lon="4.72536">
        <ele>344.77533</ele>
        <time>2022-10-30T13:55:00.000Z</time>
      </trkpt>
      <trkpt lat="45.79925" lon="4.72534">
        <ele>344.52216</ele>
        <time>2022-10-30T13:55:01.000Z</time>
      </trkpt>
      <trkpt lat="45.7992" lon="4.72535">
        <ele>344.28922</ele>
        <time>2022-10-30T13:55:02.000Z</time>
      </trkpt>
      <trkpt lat="45.79914" lon="4.72536">
        <ele>344.08746</ele>
        <time>2022-10-30T13:55:03.000Z</time>
      </trkpt>
      <trkpt lat="45.79909" lon="4.72537">
        <ele>343.82892</ele>
        <time>2022-10-30T13:55:04.000Z</time>
      </trkpt>
      <trkpt lat="45.79904" lon="4.72538">
        <ele>343.62079</ele>
        <time>2022-10-30T13:55:05.000Z</time>
      </trkpt>
      <trkpt lat="45.79898" lon="4.72539">
        <ele>343.43332</ele>
        <time>2022-10-30T13:55:06.000Z</time>
      </trkpt>
      <trkpt lat="45.79893" lon="4.7254">
        <ele>343.28391</ele>
        <time>2022-10-30T13:55:07.000Z</time>
      </trkpt>
      <trkpt lat="45.79887" lon="4.7254">
        <ele>343.14758</ele>
        <time>2022-10-30T13:55:08.000Z</time>
      </trkpt>
      <trkpt lat="45.79882" lon="4.72541">
        <ele>343.06207</ele>
        <time>2022-10-30T13:55:09.000Z</time>
      </trkpt>
      <trkpt lat="45.79877" lon="4.72541">
        <ele>343.01831</ele>
        <time>2022-10-30T13:55:10.000Z</time>
      </trkpt>
      <trkpt lat="45.79872" lon="4.72543">
        <ele>342.98865</ele>
        <time>2022-10-30T13:55:11.000Z</time>
      </trkpt>
      <trkpt lat="45.79868" lon="4.72543">
        <ele>343.02322</ele>
        <time>2022-10-30T13:55:12.000Z</time>
      </trkpt>
      <trkpt lat="45.79864" lon="4.72543">
        <ele>343.07758</ele>
        <time>2022-10-30T13:55:13.000Z</time>
      </trkpt>
      <trkpt lat="45.79861" lon="4.72543">
        <ele>343.19839</ele>
        <time>2022-10-30T13:55:14.000Z</time>
      </trkpt>
      <trkpt lat="45.79857" lon="4.72542">
        <ele>343.35733</ele>
        <time>2022-10-30T13:55:15.000Z</time>
      </trkpt>
      <trkpt lat="45.79853" lon="4.72543">
        <ele>343.58295</ele>
        <time>2022-10-30T13:55:16.000Z</time>
      </trkpt>
      <trkpt lat="45.79849" lon="4.72544">
        <ele>343.79025</ele>
        <time>2022-10-30T13:55:17.000Z</time>
      </trkpt>
      <trkpt lat="45.79844" lon="4.72545">
        <ele>343.99139</ele>
        <time>2022-10-30T13:55:18.000Z</time>
      </trkpt>
      <trkpt lat="45.79841" lon="4.72546">
        <ele>344.13873</ele>
        <time>2022-10-30T13:55:19.000Z</time>
      </trkpt>
      <trkpt lat="45.79836" lon="4.72546">
        <ele>344.26505</ele>
        <time>2022-10-30T13:55:20.000Z</time>
      </trkpt>
      <trkpt lat="45.79832" lon="4.72548">
        <ele>344.32184</ele>
        <time>2022-10-30T13:55:21.000Z</time>
      </trkpt>
      <trkpt lat="45.79828" lon="4.72548">
        <ele>344.35138</ele>
        <time>2022-10-30T13:55:22.000Z</time>
      </trkpt>
      <trkpt lat="45.79824" lon="4.72548">
        <ele>344.43362</ele>
        <time>2022-10-30T13:55:23.000Z</time>
      </trkpt>
      <trkpt lat="45.7982" lon="4.72548">
        <ele>344.4772</ele>
        <time>2022-10-30T13:55:24.000Z</time>
      </trkpt>
      <trkpt lat="45.79816" lon="4.72548">
        <ele>344.55243</ele>
        <time>2022-10-30T13:55:25.000Z</time>
      </trkpt>
      <trkpt lat="45.79812" lon="4.72548">
        <ele>344.64813</ele>
        <time>2022-10-30T13:55:26.000Z</time>
      </trkpt>
      <trkpt lat="45.7981" lon="4.7255">
        <ele>344.70688</ele>
        <time>2022-10-30T13:55:27.000Z</time>
      </trkpt>
      <trkpt lat="45.79809" lon="4.72553">
        <ele>344.79376</ele>
        <time>2022-10-30T13:55:28.000Z</time>
      </trkpt>
      <trkpt lat="45.79808" lon="4.72556">
        <ele>344.82227</ele>
        <time>2022-10-30T13:55:29.000Z</time>
      </trkpt>
      <trkpt lat="45.79808" lon="4.72559">
        <ele>344.84811</ele>
        <time>2022-10-30T13:55:30.000Z</time>
      </trkpt>
      <trkpt lat="45.79808" lon="4.72562">
        <ele>344.90454</ele>
        <time>2022-10-30T13:55:31.000Z</time>
      </trkpt>
      <trkpt lat="45.79809" lon="4.72565">
        <ele>344.98306</ele>
        <time>2022-10-30T13:55:32.000Z</time>
      </trkpt>
      <trkpt lat="45.7981" lon="4.72569">
        <ele>345.09747</ele>
        <time>2022-10-30T13:55:33.000Z</time>
      </trkpt>
      <trkpt lat="45.7981" lon="4.72573">
        <ele>345.15201</ele>
        <time>2022-10-30T13:55:34.000Z</time>
      </trkpt>
      <trkpt lat="45.79809" lon="4.72577">
        <ele>345.25052</ele>
        <time>2022-10-30T13:55:35.000Z</time>
      </trkpt>
      <trkpt lat="45.79808" lon="4.72582">
        <ele>345.3443</ele>
        <time>2022-10-30T13:55:36.000Z</time>
      </trkpt>
      <trkpt lat="45.79808" lon="4.72588">
        <ele>345.48813</ele>
        <time>2022-10-30T13:55:37.000Z</time>
      </trkpt>
      <trkpt lat="45.79807" lon="4.72595">
        <ele>345.59647</ele>
        <time>2022-10-30T13:55:38.000Z</time>
      </trkpt>
      <trkpt lat="45.79807" lon="4.72601">
        <ele>345.70209</ele>
        <time>2022-10-30T13:55:39.000Z</time>
      </trkpt>
      <trkpt lat="45.79806" lon="4.72608">
        <ele>345.82806</ele>
        <time>2022-10-30T13:55:40.000Z</time>
      </trkpt>
      <trkpt lat="45.79806" lon="4.72614">
        <ele>345.98395</ele>
        <time>2022-10-30T13:55:41.000Z</time>
      </trkpt>
      <trkpt lat="45.79804" lon="4.72626">
        <ele>346.08261</ele>
        <time>2022-10-30T13:55:42.000Z</time>
      </trkpt>
      <trkpt lat="45.79804" lon="4.72631">
        <ele>346.02374</ele>
        <time>2022-10-30T13:55:43.000Z</time>
      </trkpt>
      <trkpt lat="45.79804" lon="4.72639">
        <ele>346.02997</ele>
        <time>2022-10-30T13:55:44.000Z</time>
      </trkpt>
      <trkpt lat="45.79804" lon="4.72646">
        <ele>345.96027</ele>
        <time>2022-10-30T13:55:45.000Z</time>
      </trkpt>
      <trkpt lat="45.79805" lon="4.72651">
        <ele>345.84125</ele>
        <time>2022-10-30T13:55:46.000Z</time>
      </trkpt>
      <trkpt lat="45.79805" lon="4.72661">
        <ele>345.73154</ele>
        <time>2022-10-30T13:55:47.000Z</time>
      </trkpt>
      <trkpt lat="45.79805" lon="4.72669">
        <ele>345.63864</ele>
        <time>2022-10-30T13:55:48.000Z</time>
      </trkpt>
      <trkpt lat="45.79805" lon="4.72677">
        <ele>345.58218</ele>
        <time>2022-10-30T13:55:49.000Z</time>
      </trkpt>
      <trkpt lat="45.79804" lon="4.72682">
        <ele>345.49521</ele>
        <time>2022-10-30T13:55:50.000Z</time>
      </trkpt>
      <trkpt lat="45.79803" lon="4.72689">
        <ele>345.43512</ele>
        <time>2022-10-30T13:55:51.000Z</time>
      </trkpt>
      <trkpt lat="45.798" lon="4.72695">
        <ele>345.39783</ele>
        <time>2022-10-30T13:55:52.000Z</time>
      </trkpt>
      <trkpt lat="45.79797" lon="4.72702">
        <ele>345.39981</ele>
        <time>2022-10-30T13:55:53.000Z</time>
      </trkpt>
      <trkpt lat="45.79795" lon="4.72709">
        <ele>345.30206</ele>
        <time>2022-10-30T13:55:54.000Z</time>
      </trkpt>
      <trkpt lat="45.79791" lon="4.72714">
        <ele>345.11771</ele>
        <time>2022-10-30T13:55:55.000Z</time>
      </trkpt>
      <trkpt lat="45.79789" lon="4.72719">
        <ele>344.92844</ele>
        <time>2022-10-30T13:55:56.000Z</time>
      </trkpt>
      <trkpt lat="45.79786" lon="4.72723">
        <ele>344.68573</ele>
        <time>2022-10-30T13:55:57.000Z</time>
      </trkpt>
      <trkpt lat="45.79783" lon="4.72728">
        <ele>344.53464</ele>
        <time>2022-10-30T13:55:58.000Z</time>
      </trkpt>
      <trkpt lat="45.79782" lon="4.72732">
        <ele>344.3631</ele>
        <time>2022-10-30T13:55:59.000Z</time>
      </trkpt>
      <trkpt lat="45.7978" lon="4.72737">
        <ele>344.16327</ele>
        <time>2022-10-30T13:56:00.000Z</time>
      </trkpt>
      <trkpt lat="45.79779" lon="4.7274">
        <ele>343.96024</ele>
        <time>2022-10-30T13:56:01.000Z</time>
      </trkpt>
      <trkpt lat="45.79778" lon="4.72745">
        <ele>343.87152</ele>
        <time>2022-10-30T13:56:02.000Z</time>
      </trkpt>
      <trkpt lat="45.79776" lon="4.7275">
        <ele>343.92993</ele>
        <time>2022-10-30T13:56:03.000Z</time>
      </trkpt>
      <trkpt lat="45.79775" lon="4.72754">
        <ele>344.0137</ele>
        <time>2022-10-30T13:56:04.000Z</time>
      </trkpt>
      <trkpt lat="45.79774" lon="4.72758">
        <ele>344.10999</ele>
        <time>2022-10-30T13:56:05.000Z</time>
      </trkpt>
      <trkpt lat="45.79773" lon="4.72763">
        <ele>344.23724</ele>
        <time>2022-10-30T13:56:06.000Z</time>
      </trkpt>
      <trkpt lat="45.79772" lon="4.72767">
        <ele>344.33316</ele>
        <time>2022-10-30T13:56:07.000Z</time>
      </trkpt>
      <trkpt lat="45.79771" lon="4.72771">
        <ele>344.43298</ele>
        <time>2022-10-30T13:56:08.000Z</time>
      </trkpt>
      <trkpt lat="45.79769" lon="4.72775">
        <ele>344.55756</ele>
        <time>2022-10-30T13:56:09.000Z</time>
      </trkpt>
      <trkpt lat="45.79768" lon="4.72778">
        <ele>344.72516</ele>
        <time>2022-10-30T13:56:10.000Z</time>
      </trkpt>
      <trkpt lat="45.79767" lon="4.7278">
        <ele>344.87048</ele>
        <time>2022-10-30T13:56:11.000Z</time>
      </trkpt>
      <trkpt lat="45.79767" lon="4.72783">
        <ele>344.94177</ele>
        <time>2022-10-30T13:56:12.000Z</time>
      </trkpt>
      <trkpt lat="45.79768" lon="4.72787">
        <ele>344.84933</ele>
        <time>2022-10-30T13:56:14.000Z</time>
      </trkpt>
      <trkpt lat="45.79768" lon="4.72791">
        <ele>344.81442</ele>
        <time>2022-10-30T13:56:15.000Z</time>
      </trkpt>
      <trkpt lat="45.79768" lon="4.72796">
        <ele>344.83636</ele>
        <time>2022-10-30T13:56:16.000Z</time>
      </trkpt>
      <trkpt lat="45.79768" lon="4.728">
        <ele>344.83533</ele>
        <time>2022-10-30T13:56:17.000Z</time>
      </trkpt>
      <trkpt lat="45.79766" lon="4.72804">
        <ele>344.82852</ele>
        <time>2022-10-30T13:56:18.000Z</time>
      </trkpt>
      <trkpt lat="45.79764" lon="4.72808">
        <ele>344.82095</ele>
        <time>2022-10-30T13:56:19.000Z</time>
      </trkpt>
      <trkpt lat="45.79763" lon="4.72812">
        <ele>344.88602</ele>
        <time>2022-10-30T13:56:20.000Z</time>
      </trkpt>
      <trkpt lat="45.79762" lon="4.72816">
        <ele>345.02094</ele>
        <time>2022-10-30T13:56:21.000Z</time>
      </trkpt>
      <trkpt lat="45.79761" lon="4.72821">
        <ele>345.12469</ele>
        <time>2022-10-30T13:56:22.000Z</time>
      </trkpt>
      <trkpt lat="45.79761" lon="4.72827">
        <ele>345.16382</ele>
        <time>2022-10-30T13:56:23.000Z</time>
      </trkpt>
      <trkpt lat="45.7976" lon="4.7283">
        <ele>345.08548</ele>
        <time>2022-10-30T13:56:24.000Z</time>
      </trkpt>
      <trkpt lat="45.79759" lon="4.72833">
        <ele>345.01227</ele>
        <time>2022-10-30T13:56:25.000Z</time>
      </trkpt>
      <trkpt lat="45.79755" lon="4.72835">
        <ele>344.93304</ele>
        <time>2022-10-30T13:56:26.000Z</time>
      </trkpt>
      <trkpt lat="45.79752" lon="4.72837">
        <ele>344.83405</ele>
        <time>2022-10-30T13:56:27.000Z</time>
      </trkpt>
      <trkpt lat="45.79749" lon="4.72839">
        <ele>344.71432</ele>
        <time>2022-10-30T13:56:28.000Z</time>
      </trkpt>
      <trkpt lat="45.79746" lon="4.72841">
        <ele>344.52991</ele>
        <time>2022-10-30T13:56:29.000Z</time>
      </trkpt>
      <trkpt lat="45.79744" lon="4.72843">
        <ele>344.41641</ele>
        <time>2022-10-30T13:56:30.000Z</time>
      </trkpt>
      <trkpt lat="45.79742" lon="4.72847">
        <ele>344.23492</ele>
        <time>2022-10-30T13:56:31.000Z</time>
      </trkpt>
      <trkpt lat="45.79741" lon="4.72851">
        <ele>344.04694</ele>
        <time>2022-10-30T13:56:32.000Z</time>
      </trkpt>
      <trkpt lat="45.7974" lon="4.72856">
        <ele>343.83459</ele>
        <time>2022-10-30T13:56:33.000Z</time>
      </trkpt>
      <trkpt lat="45.79737" lon="4.7286">
        <ele>343.66394</ele>
        <time>2022-10-30T13:56:34.000Z</time>
      </trkpt>
      <trkpt lat="45.79734" lon="4.72862">
        <ele>343.57431</ele>
        <time>2022-10-30T13:56:35.000Z</time>
      </trkpt>
      <trkpt lat="45.79732" lon="4.72864">
        <ele>343.49225</ele>
        <time>2022-10-30T13:56:36.000Z</time>
      </trkpt>
      <trkpt lat="45.7973" lon="4.72866">
        <ele>343.45108</ele>
        <time>2022-10-30T13:56:37.000Z</time>
      </trkpt>
      <trkpt lat="45.79728" lon="4.72869">
        <ele>343.41571</ele>
        <time>2022-10-30T13:56:38.000Z</time>
      </trkpt>
      <trkpt lat="45.79726" lon="4.72871">
        <ele>343.33435</ele>
        <time>2022-10-30T13:56:39.000Z</time>
      </trkpt>
      <trkpt lat="45.79725" lon="4.72873">
        <ele>343.23303</ele>
        <time>2022-10-30T13:56:42.000Z</time>
      </trkpt>
      <trkpt lat="45.79724" lon="4.72876">
        <ele>343.06403</ele>
        <time>2022-10-30T13:56:51.000Z</time>
      </trkpt>
      <trkpt lat="45.79722" lon="4.72877">
        <ele>342.93069</ele>
        <time>2022-10-30T13:56:53.000Z</time>
      </trkpt>
      <trkpt lat="45.7972" lon="4.72878">
        <ele>342.83112</ele>
        <time>2022-10-30T13:56:54.000Z</time>
      </trkpt>
      <trkpt lat="45.79719" lon="4.7288">
        <ele>342.78217</ele>
        <time>2022-10-30T13:56:55.000Z</time>
      </trkpt>
      <trkpt lat="45.79717" lon="4.72882">
        <ele>342.68475</ele>
        <time>2022-10-30T13:56:56.000Z</time>
      </trkpt>
      <trkpt lat="45.79715" lon="4.72886">
        <ele>342.58377</ele>
        <time>2022-10-30T13:56:58.000Z</time>
      </trkpt>
      <trkpt lat="45.79714" lon="4.72889">
        <ele>342.43164</ele>
        <time>2022-10-30T13:57:00.000Z</time>
      </trkpt>
      <trkpt lat="45.79712" lon="4.7289">
        <ele>342.38654</ele>
        <time>2022-10-30T13:57:08.000Z</time>
      </trkpt>
      <trkpt lat="45.79709" lon="4.72891">
        <ele>342.25787</ele>
        <time>2022-10-30T13:58:04.000Z</time>
      </trkpt>
      <trkpt lat="45.79708" lon="4.72891">
        <ele>342.05609</ele>
        <time>2022-10-30T13:58:05.000Z</time>
      </trkpt>
      <trkpt lat="45.79706" lon="4.7289">
        <ele>341.88531</ele>
        <time>2022-10-30T13:58:06.000Z</time>
      </trkpt>
      <trkpt lat="45.79704" lon="4.72889">
        <ele>341.72601</ele>
        <time>2022-10-30T13:58:07.000Z</time>
      </trkpt>
      <trkpt lat="45.79702" lon="4.72888">
        <ele>341.59363</ele>
        <time>2022-10-30T13:58:08.000Z</time>
      </trkpt>
      <trkpt lat="45.797" lon="4.72888">
        <ele>341.58585</ele>
        <time>2022-10-30T13:58:09.000Z</time>
      </trkpt>
      <trkpt lat="45.79698" lon="4.72889">
        <ele>341.53619</ele>
        <time>2022-10-30T13:58:10.000Z</time>
      </trkpt>
      <trkpt lat="45.79695" lon="4.72889">
        <ele>341.5069</ele>
        <time>2022-10-30T13:58:11.000Z</time>
      </trkpt>
      <trkpt lat="45.79692" lon="4.72889">
        <ele>341.41547</ele>
        <time>2022-10-30T13:58:12.000Z</time>
      </trkpt>
      <trkpt lat="45.79689" lon="4.72888">
        <ele>341.34647</ele>
        <time>2022-10-30T13:58:13.000Z</time>
      </trkpt>
      <trkpt lat="45.79687" lon="4.72888">
        <ele>341.29337</ele>
        <time>2022-10-30T13:58:14.000Z</time>
      </trkpt>
      <trkpt lat="45.79685" lon="4.72887">
        <ele>341.24133</ele>
        <time>2022-10-30T13:58:15.000Z</time>
      </trkpt>
      <trkpt lat="45.79683" lon="4.72886">
        <ele>341.24152</ele>
        <time>2022-10-30T13:58:16.000Z</time>
      </trkpt>
      <trkpt lat="45.7968" lon="4.72886">
        <ele>341.207</ele>
        <time>2022-10-30T13:58:17.000Z</time>
      </trkpt>
      <trkpt lat="45.79677" lon="4.72886">
        <ele>341.10785</ele>
        <time>2022-10-30T13:58:18.000Z</time>
      </trkpt>
      <trkpt lat="45.79673" lon="4.72886">
        <ele>341.04236</ele>
        <time>2022-10-30T13:58:19.000Z</time>
      </trkpt>
      <trkpt lat="45.7967" lon="4.72887">
        <ele>341.00586</ele>
        <time>2022-10-30T13:58:20.000Z</time>
      </trkpt>
      <trkpt lat="45.79667" lon="4.72886">
        <ele>340.9809</ele>
        <time>2022-10-30T13:58:21.000Z</time>
      </trkpt>
      <trkpt lat="45.79665" lon="4.72885">
        <ele>341.01956</ele>
        <time>2022-10-30T13:58:22.000Z</time>
      </trkpt>
      <trkpt lat="45.79663" lon="4.72883">
        <ele>341.04886</ele>
        <time>2022-10-30T13:58:23.000Z</time>
      </trkpt>
      <trkpt lat="45.79661" lon="4.72881">
        <ele>341.20673</ele>
        <time>2022-10-30T13:58:25.000Z</time>
      </trkpt>
      <trkpt lat="45.79659" lon="4.72879">
        <ele>341.31036</ele>
        <time>2022-10-30T13:58:30.000Z</time>
      </trkpt>
      <trkpt lat="45.79657" lon="4.72878">
        <ele>341.38104</ele>
        <time>2022-10-30T13:58:35.000Z</time>
      </trkpt>
      <trkpt lat="45.79655" lon="4.72878">
        <ele>341.45621</ele>
        <time>2022-10-30T13:58:37.000Z</time>
      </trkpt>
      <trkpt lat="45.79653" lon="4.72879">
        <ele>341.51215</ele>
        <time>2022-10-30T13:58:39.000Z</time>
      </trkpt>
      <trkpt lat="45.79651" lon="4.72879">
        <ele>341.44879</ele>
        <time>2022-10-30T13:58:40.000Z</time>
      </trkpt>
      <trkpt lat="45.79648" lon="4.7288">
        <ele>341.4306</ele>
        <time>2022-10-30T13:58:41.000Z</time>
      </trkpt>
      <trkpt lat="45.79646" lon="4.7288">
        <ele>341.42462</ele>
        <time>2022-10-30T13:58:42.000Z</time>
      </trkpt>
      <trkpt lat="45.79643" lon="4.7288">
        <ele>341.46381</ele>
        <time>2022-10-30T13:58:44.000Z</time>
      </trkpt>
      <trkpt lat="45.79643" lon="4.72877">
        <ele>341.47015</ele>
        <time>2022-10-30T13:58:48.000Z</time>
      </trkpt>
      <trkpt lat="45.79645" lon="4.72873">
        <ele>341.47705</ele>
        <time>2022-10-30T13:58:50.000Z</time>
      </trkpt>
      <trkpt lat="45.79646" lon="4.7287">
        <ele>341.45477</ele>
        <time>2022-10-30T13:58:51.000Z</time>
      </trkpt>
      <trkpt lat="45.79648" lon="4.72867">
        <ele>341.38785</ele>
        <time>2022-10-30T13:58:52.000Z</time>
      </trkpt>
      <trkpt lat="45.79649" lon="4.72864">
        <ele>341.35251</ele>
        <time>2022-10-30T13:58:53.000Z</time>
      </trkpt>
      <trkpt lat="45.7965" lon="4.72862">
        <ele>341.38055</ele>
        <time>2022-10-30T13:58:54.000Z</time>
      </trkpt>
      <trkpt lat="45.79649" lon="4.72858">
        <ele>341.34836</ele>
        <time>2022-10-30T13:58:56.000Z</time>
      </trkpt>
      <trkpt lat="45.79648" lon="4.72856">
        <ele>341.35611</ele>
        <time>2022-10-30T13:59:03.000Z</time>
      </trkpt>
      <trkpt lat="45.79646" lon="4.72856">
        <ele>341.37149</ele>
        <time>2022-10-30T13:59:07.000Z</time>
      </trkpt>
      <trkpt lat="45.79644" lon="4.72858">
        <ele>341.36032</ele>
        <time>2022-10-30T13:59:08.000Z</time>
      </trkpt>
      <trkpt lat="45.79642" lon="4.7286">
        <ele>341.26498</ele>
        <time>2022-10-30T13:59:09.000Z</time>
      </trkpt>
      <trkpt lat="45.79639" lon="4.72863">
        <ele>341.17221</ele>
        <time>2022-10-30T13:59:10.000Z</time>
      </trkpt>
      <trkpt lat="45.79637" lon="4.72865">
        <ele>341.1246</ele>
        <time>2022-10-30T13:59:11.000Z</time>
      </trkpt>
      <trkpt lat="45.79635" lon="4.72867">
        <ele>341.11224</ele>
        <time>2022-10-30T13:59:12.000Z</time>
      </trkpt>
      <trkpt lat="45.79632" lon="4.72869">
        <ele>341.08606</ele>
        <time>2022-10-30T13:59:13.000Z</time>
      </trkpt>
      <trkpt lat="45.79629" lon="4.72871">
        <ele>341.04709</ele>
        <time>2022-10-30T13:59:14.000Z</time>
      </trkpt>
      <trkpt lat="45.79627" lon="4.72874">
        <ele>341.03482</ele>
        <time>2022-10-30T13:59:15.000Z</time>
      </trkpt>
      <trkpt lat="45.79625" lon="4.72876">
        <ele>340.88593</ele>
        <time>2022-10-30T13:59:16.000Z</time>
      </trkpt>
      <trkpt lat="45.79623" lon="4.72877">
        <ele>340.71652</ele>
        <time>2022-10-30T13:59:17.000Z</time>
      </trkpt>
      <trkpt lat="45.79621" lon="4.72879">
        <ele>340.58255</ele>
        <time>2022-10-30T13:59:18.000Z</time>
      </trkpt>
      <trkpt lat="45.7962" lon="4.72881">
        <ele>340.44098</ele>
        <time>2022-10-30T13:59:19.000Z</time>
      </trkpt>
      <trkpt lat="45.79618" lon="4.72883">
        <ele>340.30698</ele>
        <time>2022-10-30T13:59:20.000Z</time>
      </trkpt>
      <trkpt lat="45.79616" lon="4.72884">
        <ele>340.22159</ele>
        <time>2022-10-30T13:59:21.000Z</time>
      </trkpt>
      <trkpt lat="45.79614" lon="4.72886">
        <ele>340.15317</ele>
        <time>2022-10-30T13:59:22.000Z</time>
      </trkpt>
      <trkpt lat="45.79611" lon="4.72886">
        <ele>340.0943</ele>
        <time>2022-10-30T13:59:23.000Z</time>
      </trkpt>
      <trkpt lat="45.79609" lon="4.72886">
        <ele>340.01865</ele>
        <time>2022-10-30T13:59:24.000Z</time>
      </trkpt>
      <trkpt lat="45.79607" lon="4.72888">
        <ele>339.97958</ele>
        <time>2022-10-30T13:59:25.000Z</time>
      </trkpt>
      <trkpt lat="45.79605" lon="4.7289">
        <ele>339.9079</ele>
        <time>2022-10-30T13:59:26.000Z</time>
      </trkpt>
      <trkpt lat="45.79603" lon="4.72892">
        <ele>339.84027</ele>
        <time>2022-10-30T13:59:27.000Z</time>
      </trkpt>
      <trkpt lat="45.79601" lon="4.72894">
        <ele>339.80588</ele>
        <time>2022-10-30T13:59:28.000Z</time>
      </trkpt>
      <trkpt lat="45.79598" lon="4.72896">
        <ele>339.79916</ele>
        <time>2022-10-30T13:59:29.000Z</time>
      </trkpt>
      <trkpt lat="45.79596" lon="4.72897">
        <ele>339.7067</ele>
        <time>2022-10-30T13:59:30.000Z</time>
      </trkpt>
      <trkpt lat="45.79593" lon="4.72898">
        <ele>339.59723</ele>
        <time>2022-10-30T13:59:32.000Z</time>
      </trkpt>
      <trkpt lat="45.79591" lon="4.729">
        <ele>339.50809</ele>
        <time>2022-10-30T13:59:33.000Z</time>
      </trkpt>
      <trkpt lat="45.79589" lon="4.72902">
        <ele>339.46893</ele>
        <time>2022-10-30T13:59:35.000Z</time>
      </trkpt>
      <trkpt lat="45.79588" lon="4.72904">
        <ele>339.49619</ele>
        <time>2022-10-30T13:59:40.000Z</time>
      </trkpt>
      <trkpt lat="45.79587" lon="4.72906">
        <ele>339.48038</ele>
        <time>2022-10-30T13:59:44.000Z</time>
      </trkpt>
      <trkpt lat="45.79585" lon="4.72908">
        <ele>339.54459</ele>
        <time>2022-10-30T13:59:48.000Z</time>
      </trkpt>
      <trkpt lat="45.79584" lon="4.7291">
        <ele>339.51456</ele>
        <time>2022-10-30T13:59:51.000Z</time>
      </trkpt>
      <trkpt lat="45.79581" lon="4.72912">
        <ele>339.39059</ele>
        <time>2022-10-30T13:59:53.000Z</time>
      </trkpt>
      <trkpt lat="45.79579" lon="4.72913">
        <ele>339.3483</ele>
        <time>2022-10-30T13:59:54.000Z</time>
      </trkpt>
      <trkpt lat="45.79577" lon="4.72914">
        <ele>339.29718</ele>
        <time>2022-10-30T13:59:55.000Z</time>
      </trkpt>
      <trkpt lat="45.79576" lon="4.72916">
        <ele>339.26678</ele>
        <time>2022-10-30T13:59:56.000Z</time>
      </trkpt>
      <trkpt lat="45.79574" lon="4.72917">
        <ele>339.24094</ele>
        <time>2022-10-30T13:59:57.000Z</time>
      </trkpt>
      <trkpt lat="45.79572" lon="4.7292">
        <ele>339.23471</ele>
        <time>2022-10-30T13:59:58.000Z</time>
      </trkpt>
      <trkpt lat="45.7957" lon="4.72922">
        <ele>339.18832</ele>
        <time>2022-10-30T13:59:59.000Z</time>
      </trkpt>
      <trkpt lat="45.79567" lon="4.72925">
        <ele>339.12918</ele>
        <time>2022-10-30T14:00:00.000Z</time>
      </trkpt>
      <trkpt lat="45.79565" lon="4.72927">
        <ele>339.07056</ele>
        <time>2022-10-30T14:00:01.000Z</time>
      </trkpt>
      <trkpt lat="45.79563" lon="4.7293">
        <ele>338.99792</ele>
        <time>2022-10-30T14:00:02.000Z</time>
      </trkpt>
      <trkpt lat="45.79561" lon="4.72932">
        <ele>338.90939</ele>
        <time>2022-10-30T14:00:03.000Z</time>
      </trkpt>
      <trkpt lat="45.79558" lon="4.72933">
        <ele>338.78671</ele>
        <time>2022-10-30T14:00:04.000Z</time>
      </trkpt>
      <trkpt lat="45.79556" lon="4.72934">
        <ele>338.6976</ele>
        <time>2022-10-30T14:00:05.000Z</time>
      </trkpt>
      <trkpt lat="45.79553" lon="4.72935">
        <ele>338.61536</ele>
        <time>2022-10-30T14:00:06.000Z</time>
      </trkpt>
      <trkpt lat="45.79551" lon="4.72937">
        <ele>338.517</ele>
        <time>2022-10-30T14:00:07.000Z</time>
      </trkpt>
      <trkpt lat="45.79548" lon="4.72939">
        <ele>338.37476</ele>
        <time>2022-10-30T14:00:08.000Z</time>
      </trkpt>
      <trkpt lat="45.79546" lon="4.72942">
        <ele>338.1474</ele>
        <time>2022-10-30T14:00:09.000Z</time>
      </trkpt>
      <trkpt lat="45.79545" lon="4.72945">
        <ele>337.97372</ele>
        <time>2022-10-30T14:00:10.000Z</time>
      </trkpt>
      <trkpt lat="45.79544" lon="4.72948">
        <ele>337.79694</ele>
        <time>2022-10-30T14:00:11.000Z</time>
      </trkpt>
      <trkpt lat="45.79542" lon="4.72952">
        <ele>337.70142</ele>
        <time>2022-10-30T14:00:12.000Z</time>
      </trkpt>
      <trkpt lat="45.79542" lon="4.72955">
        <ele>337.60553</ele>
        <time>2022-10-30T14:00:13.000Z</time>
      </trkpt>
      <trkpt lat="45.79541" lon="4.72958">
        <ele>337.3963</ele>
        <time>2022-10-30T14:00:14.000Z</time>
      </trkpt>
      <trkpt lat="45.79541" lon="4.72962">
        <ele>337.19458</ele>
        <time>2022-10-30T14:00:15.000Z</time>
      </trkpt>
      <trkpt lat="45.79542" lon="4.72966">
        <ele>336.96869</ele>
        <time>2022-10-30T14:00:16.000Z</time>
      </trkpt>
      <trkpt lat="45.79542" lon="4.72969">
        <ele>336.75446</ele>
        <time>2022-10-30T14:00:17.000Z</time>
      </trkpt>
      <trkpt lat="45.79542" lon="4.72973">
        <ele>336.56451</ele>
        <time>2022-10-30T14:00:18.000Z</time>
      </trkpt>
      <trkpt lat="45.79542" lon="4.72977">
        <ele>336.37286</ele>
        <time>2022-10-30T14:00:19.000Z</time>
      </trkpt>
      <trkpt lat="45.79542" lon="4.7298">
        <ele>336.19379</ele>
        <time>2022-10-30T14:00:20.000Z</time>
      </trkpt>
      <trkpt lat="45.79543" lon="4.72984">
        <ele>335.98212</ele>
        <time>2022-10-30T14:00:21.000Z</time>
      </trkpt>
      <trkpt lat="45.79543" lon="4.72988">
        <ele>335.76083</ele>
        <time>2022-10-30T14:00:22.000Z</time>
      </trkpt>
      <trkpt lat="45.79542" lon="4.72993">
        <ele>335.5766</ele>
        <time>2022-10-30T14:00:23.000Z</time>
      </trkpt>
      <trkpt lat="45.79541" lon="4.72997">
        <ele>335.44171</ele>
        <time>2022-10-30T14:00:24.000Z</time>
      </trkpt>
      <trkpt lat="45.79539" lon="4.73001">
        <ele>335.34842</ele>
        <time>2022-10-30T14:00:25.000Z</time>
      </trkpt>
      <trkpt lat="45.79536" lon="4.73005">
        <ele>335.28192</ele>
        <time>2022-10-30T14:00:26.000Z</time>
      </trkpt>
      <trkpt lat="45.79533" lon="4.73008">
        <ele>335.19781</ele>
        <time>2022-10-30T14:00:27.000Z</time>
      </trkpt>
      <trkpt lat="45.79531" lon="4.7301">
        <ele>335.11276</ele>
        <time>2022-10-30T14:00:28.000Z</time>
      </trkpt>
      <trkpt lat="45.79529" lon="4.73011">
        <ele>335.05713</ele>
        <time>2022-10-30T14:00:29.000Z</time>
      </trkpt>
      <trkpt lat="45.79527" lon="4.73013">
        <ele>334.95361</ele>
        <time>2022-10-30T14:00:31.000Z</time>
      </trkpt>
      <trkpt lat="45.79525" lon="4.73015">
        <ele>334.84915</ele>
        <time>2022-10-30T14:00:38.000Z</time>
      </trkpt>
      <trkpt lat="45.79523" lon="4.73017">
        <ele>334.74997</ele>
        <time>2022-10-30T14:00:39.000Z</time>
      </trkpt>
      <trkpt lat="45.79521" lon="4.73019">
        <ele>334.68799</ele>
        <time>2022-10-30T14:00:40.000Z</time>
      </trkpt>
      <trkpt lat="45.79518" lon="4.73021">
        <ele>334.68027</ele>
        <time>2022-10-30T14:00:41.000Z</time>
      </trkpt>
      <trkpt lat="45.79516" lon="4.73023">
        <ele>334.69153</ele>
        <time>2022-10-30T14:00:42.000Z</time>
      </trkpt>
      <trkpt lat="45.79513" lon="4.73025">
        <ele>334.7171</ele>
        <time>2022-10-30T14:00:43.000Z</time>
      </trkpt>
      <trkpt lat="45.7951" lon="4.73026">
        <ele>334.69354</ele>
        <time>2022-10-30T14:00:44.000Z</time>
      </trkpt>
      <trkpt lat="45.79508" lon="4.73027">
        <ele>334.64676</ele>
        <time>2022-10-30T14:00:45.000Z</time>
      </trkpt>
      <trkpt lat="45.79505" lon="4.73028">
        <ele>334.60342</ele>
        <time>2022-10-30T14:00:46.000Z</time>
      </trkpt>
      <trkpt lat="45.79502" lon="4.7303">
        <ele>334.53546</ele>
        <time>2022-10-30T14:00:47.000Z</time>
      </trkpt>
      <trkpt lat="45.79499" lon="4.73033">
        <ele>334.50171</ele>
        <time>2022-10-30T14:00:48.000Z</time>
      </trkpt>
      <trkpt lat="45.79496" lon="4.73036">
        <ele>334.48297</ele>
        <time>2022-10-30T14:00:49.000Z</time>
      </trkpt>
      <trkpt lat="45.79493" lon="4.73038">
        <ele>334.44373</ele>
        <time>2022-10-30T14:00:50.000Z</time>
      </trkpt>
      <trkpt lat="45.7949" lon="4.7304">
        <ele>334.39716</ele>
        <time>2022-10-30T14:00:51.000Z</time>
      </trkpt>
      <trkpt lat="45.79487" lon="4.73041">
        <ele>334.26456</ele>
        <time>2022-10-30T14:00:52.000Z</time>
      </trkpt>
      <trkpt lat="45.79485" lon="4.73042">
        <ele>334.0993</ele>
        <time>2022-10-30T14:00:53.000Z</time>
      </trkpt>
      <trkpt lat="45.79482" lon="4.73045">
        <ele>333.97415</ele>
        <time>2022-10-30T14:00:54.000Z</time>
      </trkpt>
      <trkpt lat="45.79479" lon="4.73048">
        <ele>333.77377</ele>
        <time>2022-10-30T14:00:55.000Z</time>
      </trkpt>
      <trkpt lat="45.79477" lon="4.73051">
        <ele>333.61069</ele>
        <time>2022-10-30T14:00:56.000Z</time>
      </trkpt>
      <trkpt lat="45.79475" lon="4.73055">
        <ele>333.47974</ele>
        <time>2022-10-30T14:00:57.000Z</time>
      </trkpt>
      <trkpt lat="45.79472" lon="4.73058">
        <ele>333.40613</ele>
        <time>2022-10-30T14:00:58.000Z</time>
      </trkpt>
      <trkpt lat="45.79469" lon="4.73062">
        <ele>333.34088</ele>
        <time>2022-10-30T14:00:59.000Z</time>
      </trkpt>
      <trkpt lat="45.79466" lon="4.73064">
        <ele>333.25626</ele>
        <time>2022-10-30T14:01:00.000Z</time>
      </trkpt>
      <trkpt lat="45.79463" lon="4.73068">
        <ele>333.15106</ele>
        <time>2022-10-30T14:01:01.000Z</time>
      </trkpt>
      <trkpt lat="45.79462" lon="4.73071">
        <ele>332.96942</ele>
        <time>2022-10-30T14:01:02.000Z</time>
      </trkpt>
      <trkpt lat="45.7946" lon="4.73074">
        <ele>332.71893</ele>
        <time>2022-10-30T14:01:03.000Z</time>
      </trkpt>
      <trkpt lat="45.79458" lon="4.73077">
        <ele>332.52228</ele>
        <time>2022-10-30T14:01:04.000Z</time>
      </trkpt>
      <trkpt lat="45.79456" lon="4.73079">
        <ele>332.29834</ele>
        <time>2022-10-30T14:01:05.000Z</time>
      </trkpt>
      <trkpt lat="45.79454" lon="4.73082">
        <ele>332.11176</ele>
        <time>2022-10-30T14:01:06.000Z</time>
      </trkpt>
      <trkpt lat="45.79453" lon="4.73085">
        <ele>331.95682</ele>
        <time>2022-10-30T14:01:07.000Z</time>
      </trkpt>
      <trkpt lat="45.79451" lon="4.73088">
        <ele>331.79517</ele>
        <time>2022-10-30T14:01:08.000Z</time>
      </trkpt>
      <trkpt lat="45.7945" lon="4.73092">
        <ele>331.6431</ele>
        <time>2022-10-30T14:01:09.000Z</time>
      </trkpt>
      <trkpt lat="45.79448" lon="4.73095">
        <ele>331.4614</ele>
        <time>2022-10-30T14:01:10.000Z</time>
      </trkpt>
      <trkpt lat="45.79447" lon="4.73098">
        <ele>331.27991</ele>
        <time>2022-10-30T14:01:11.000Z</time>
      </trkpt>
      <trkpt lat="45.79444" lon="4.73101">
        <ele>331.20541</ele>
        <time>2022-10-30T14:01:12.000Z</time>
      </trkpt>
      <trkpt lat="45.79442" lon="4.73103">
        <ele>331.10352</ele>
        <time>2022-10-30T14:01:13.000Z</time>
      </trkpt>
      <trkpt lat="45.79439" lon="4.73105">
        <ele>330.9473</ele>
        <time>2022-10-30T14:01:14.000Z</time>
      </trkpt>
      <trkpt lat="45.79437" lon="4.73108">
        <ele>330.9267</ele>
        <time>2022-10-30T14:01:15.000Z</time>
      </trkpt>
      <trkpt lat="45.79436" lon="4.73111">
        <ele>330.86603</ele>
        <time>2022-10-30T14:01:16.000Z</time>
      </trkpt>
      <trkpt lat="45.79435" lon="4.73114">
        <ele>330.78247</ele>
        <time>2022-10-30T14:01:17.000Z</time>
      </trkpt>
      <trkpt lat="45.79433" lon="4.73117">
        <ele>330.65634</ele>
        <time>2022-10-30T14:01:18.000Z</time>
      </trkpt>
      <trkpt lat="45.79431" lon="4.7312">
        <ele>330.48471</ele>
        <time>2022-10-30T14:01:19.000Z</time>
      </trkpt>
      <trkpt lat="45.79429" lon="4.73122">
        <ele>330.31305</ele>
        <time>2022-10-30T14:01:21.000Z</time>
      </trkpt>
      <trkpt lat="45.79427" lon="4.73123">
        <ele>330.08575</ele>
        <time>2022-10-30T14:01:27.000Z</time>
      </trkpt>
      <trkpt lat="45.79425" lon="4.73126">
        <ele>329.85526</ele>
        <time>2022-10-30T14:01:50.000Z</time>
      </trkpt>
      <trkpt lat="45.79423" lon="4.73126">
        <ele>329.64322</ele>
        <time>2022-10-30T14:01:51.000Z</time>
      </trkpt>
      <trkpt lat="45.79421" lon="4.73129">
        <ele>329.48083</ele>
        <time>2022-10-30T14:01:52.000Z</time>
      </trkpt>
      <trkpt lat="45.7942" lon="4.73132">
        <ele>329.33237</ele>
        <time>2022-10-30T14:01:53.000Z</time>
      </trkpt>
      <trkpt lat="45.79419" lon="4.73136">
        <ele>329.2341</ele>
        <time>2022-10-30T14:01:54.000Z</time>
      </trkpt>
      <trkpt lat="45.79418" lon="4.73139">
        <ele>329.10858</ele>
        <time>2022-10-30T14:01:55.000Z</time>
      </trkpt>
      <trkpt lat="45.79416" lon="4.73141">
        <ele>328.89975</ele>
        <time>2022-10-30T14:01:56.000Z</time>
      </trkpt>
      <trkpt lat="45.79415" lon="4.73145">
        <ele>328.70609</ele>
        <time>2022-10-30T14:01:57.000Z</time>
      </trkpt>
      <trkpt lat="45.79414" lon="4.73148">
        <ele>328.56879</ele>
        <time>2022-10-30T14:01:58.000Z</time>
      </trkpt>
      <trkpt lat="45.79413" lon="4.7315">
        <ele>328.38104</ele>
        <time>2022-10-30T14:01:59.000Z</time>
      </trkpt>
      <trkpt lat="45.79411" lon="4.73151">
        <ele>328.16531</ele>
        <time>2022-10-30T14:02:00.000Z</time>
      </trkpt>
      <trkpt lat="45.79409" lon="4.73153">
        <ele>327.97437</ele>
        <time>2022-10-30T14:02:01.000Z</time>
      </trkpt>
      <trkpt lat="45.79407" lon="4.73155">
        <ele>327.78433</ele>
        <time>2022-10-30T14:02:02.000Z</time>
      </trkpt>
      <trkpt lat="45.79406" lon="4.73156">
        <ele>327.53632</ele>
        <time>2022-10-30T14:02:03.000Z</time>
      </trkpt>
      <trkpt lat="45.79403" lon="4.73159">
        <ele>327.23294</ele>
        <time>2022-10-30T14:02:05.000Z</time>
      </trkpt>
      <trkpt lat="45.79401" lon="4.73159">
        <ele>326.96179</ele>
        <time>2022-10-30T14:02:06.000Z</time>
      </trkpt>
      <trkpt lat="45.79399" lon="4.73159">
        <ele>326.69278</ele>
        <time>2022-10-30T14:02:07.000Z</time>
      </trkpt>
      <trkpt lat="45.79397" lon="4.73161">
        <ele>326.47131</ele>
        <time>2022-10-30T14:02:08.000Z</time>
      </trkpt>
      <trkpt lat="45.79396" lon="4.73162">
        <ele>326.21582</ele>
        <time>2022-10-30T14:02:09.000Z</time>
      </trkpt>
      <trkpt lat="45.79393" lon="4.73165">
        <ele>326.039</ele>
        <time>2022-10-30T14:02:11.000Z</time>
      </trkpt>
      <trkpt lat="45.79391" lon="4.73167">
        <ele>325.93188</ele>
        <time>2022-10-30T14:02:13.000Z</time>
      </trkpt>
      <trkpt lat="45.79389" lon="4.73169">
        <ele>325.85089</ele>
        <time>2022-10-30T14:02:15.000Z</time>
      </trkpt>
      <trkpt lat="45.79388" lon="4.73169">
        <ele>325.63864</ele>
        <time>2022-10-30T14:02:24.000Z</time>
      </trkpt>
      <trkpt lat="45.7939" lon="4.73169">
        <ele>325.38498</ele>
        <time>2022-10-30T14:03:19.000Z</time>
      </trkpt>
      <trkpt lat="45.79392" lon="4.73167">
        <ele>325.08212</ele>
        <time>2022-10-30T14:03:21.000Z</time>
      </trkpt>
      <trkpt lat="45.79394" lon="4.73166">
        <ele>324.76904</ele>
        <time>2022-10-30T14:03:23.000Z</time>
      </trkpt>
      <trkpt lat="45.79396" lon="4.73164">
        <ele>324.57098</ele>
        <time>2022-10-30T14:03:25.000Z</time>
      </trkpt>
      <trkpt lat="45.79398" lon="4.73164">
        <ele>324.46667</ele>
        <time>2022-10-30T14:03:30.000Z</time>
      </trkpt>
      <trkpt lat="45.794" lon="4.73162">
        <ele>324.3186</ele>
        <time>2022-10-30T14:03:34.000Z</time>
      </trkpt>
      <trkpt lat="45.79402" lon="4.73159">
        <ele>324.21359</ele>
        <time>2022-10-30T14:03:38.000Z</time>
      </trkpt>
      <trkpt lat="45.79404" lon="4.73158">
        <ele>324.0882</ele>
        <time>2022-10-30T14:03:40.000Z</time>
      </trkpt>
      <trkpt lat="45.79407" lon="4.73154">
        <ele>323.91583</ele>
        <time>2022-10-30T14:03:42.000Z</time>
      </trkpt>
      <trkpt lat="45.79409" lon="4.73151">
        <ele>323.71719</ele>
        <time>2022-10-30T14:03:44.000Z</time>
      </trkpt>
      <trkpt lat="45.79412" lon="4.7315">
        <ele>323.47949</ele>
        <time>2022-10-30T14:03:46.000Z</time>
      </trkpt>
      <trkpt lat="45.79413" lon="4.73148">
        <ele>323.30954</ele>
        <time>2022-10-30T14:03:48.000Z</time>
      </trkpt>
      <trkpt lat="45.79415" lon="4.73146">
        <ele>323.23569</ele>
        <time>2022-10-30T14:03:50.000Z</time>
      </trkpt>
      <trkpt lat="45.79418" lon="4.73146">
        <ele>323.1828</ele>
        <time>2022-10-30T14:03:54.000Z</time>
      </trkpt>
      <trkpt lat="45.79419" lon="4.73145">
        <ele>323.09769</ele>
        <time>2022-10-30T14:04:03.000Z</time>
      </trkpt>
      <trkpt lat="45.7942" lon="4.73148">
        <ele>322.99719</ele>
        <time>2022-10-30T14:04:13.000Z</time>
      </trkpt>
      <trkpt lat="45.79418" lon="4.73152">
        <ele>322.95679</ele>
        <time>2022-10-30T14:04:17.000Z</time>
      </trkpt>
      <trkpt lat="45.79417" lon="4.73155">
        <ele>322.89471</ele>
        <time>2022-10-30T14:04:18.000Z</time>
      </trkpt>
      <trkpt lat="45.79417" lon="4.73159">
        <ele>322.86444</ele>
        <time>2022-10-30T14:04:19.000Z</time>
      </trkpt>
      <trkpt lat="45.79417" lon="4.73161">
        <ele>322.8848</ele>
        <time>2022-10-30T14:04:20.000Z</time>
      </trkpt>
      <trkpt lat="45.79416" lon="4.73165">
        <ele>322.88165</ele>
        <time>2022-10-30T14:04:22.000Z</time>
      </trkpt>
      <trkpt lat="45.79416" lon="4.73168">
        <ele>322.8338</ele>
        <time>2022-10-30T14:04:25.000Z</time>
      </trkpt>
      <trkpt lat="45.79414" lon="4.73165">
        <ele>322.79565</ele>
        <time>2022-10-30T14:04:46.000Z</time>
      </trkpt>
      <trkpt lat="45.79415" lon="4.73163">
        <ele>322.78827</ele>
        <time>2022-10-30T14:04:49.000Z</time>
      </trkpt>
      <trkpt lat="45.79416" lon="4.7316">
        <ele>322.61139</ele>
        <time>2022-10-30T14:04:51.000Z</time>
      </trkpt>
      <trkpt lat="45.79418" lon="4.73156">
        <ele>322.5271</ele>
        <time>2022-10-30T14:04:54.000Z</time>
      </trkpt>
      <trkpt lat="45.79419" lon="4.73152">
        <ele>322.46307</ele>
        <time>2022-10-30T14:04:55.000Z</time>
      </trkpt>
      <trkpt lat="45.7942" lon="4.73149">
        <ele>322.41016</ele>
        <time>2022-10-30T14:04:56.000Z</time>
      </trkpt>
      <trkpt lat="45.79421" lon="4.73146">
        <ele>322.4422</ele>
        <time>2022-10-30T14:04:57.000Z</time>
      </trkpt>
      <trkpt lat="45.79423" lon="4.73143">
        <ele>322.5285</ele>
        <time>2022-10-30T14:04:59.000Z</time>
      </trkpt>
      <trkpt lat="45.79424" lon="4.73141">
        <ele>322.64404</ele>
        <time>2022-10-30T14:05:02.000Z</time>
      </trkpt>
      <trkpt lat="45.79426" lon="4.73139">
        <ele>322.81244</ele>
        <time>2022-10-30T14:05:11.000Z</time>
      </trkpt>
      <trkpt lat="45.79427" lon="4.73137">
        <ele>322.8736</ele>
        <time>2022-10-30T14:05:12.000Z</time>
      </trkpt>
      <trkpt lat="45.79429" lon="4.73134">
        <ele>322.93207</ele>
        <time>2022-10-30T14:05:14.000Z</time>
      </trkpt>
      <trkpt lat="45.79431" lon="4.7313">
        <ele>323.0025</ele>
        <time>2022-10-30T14:05:16.000Z</time>
      </trkpt>
      <trkpt lat="45.79433" lon="4.73128">
        <ele>323.13495</ele>
        <time>2022-10-30T14:05:17.000Z</time>
      </trkpt>
      <trkpt lat="45.79435" lon="4.73126">
        <ele>323.19742</ele>
        <time>2022-10-30T14:05:18.000Z</time>
      </trkpt>
      <trkpt lat="45.79436" lon="4.73124">
        <ele>323.27985</ele>
        <time>2022-10-30T14:05:19.000Z</time>
      </trkpt>
      <trkpt lat="45.79439" lon="4.7312">
        <ele>323.38907</ele>
        <time>2022-10-30T14:05:21.000Z</time>
      </trkpt>
      <trkpt lat="45.7944" lon="4.73118">
        <ele>323.67038</ele>
        <time>2022-10-30T14:05:22.000Z</time>
      </trkpt>
      <trkpt lat="45.79442" lon="4.73115">
        <ele>323.98563</ele>
        <time>2022-10-30T14:05:23.000Z</time>
      </trkpt>
      <trkpt lat="45.79444" lon="4.73112">
        <ele>324.34668</ele>
        <time>2022-10-30T14:05:24.000Z</time>
      </trkpt>
      <trkpt lat="45.79446" lon="4.7311">
        <ele>324.70328</ele>
        <time>2022-10-30T14:05:25.000Z</time>
      </trkpt>
      <trkpt lat="45.79448" lon="4.73108">
        <ele>325.0188</ele>
        <time>2022-10-30T14:05:26.000Z</time>
      </trkpt>
      <trkpt lat="45.7945" lon="4.73105">
        <ele>325.40793</ele>
        <time>2022-10-30T14:05:27.000Z</time>
      </trkpt>
      <trkpt lat="45.79451" lon="4.73103">
        <ele>325.71933</ele>
        <time>2022-10-30T14:05:28.000Z</time>
      </trkpt>
      <trkpt lat="45.79452" lon="4.731">
        <ele>325.9953</ele>
        <time>2022-10-30T14:05:30.000Z</time>
      </trkpt>
      <trkpt lat="45.79449" lon="4.73099">
        <ele>326.21289</ele>
        <time>2022-10-30T14:05:32.000Z</time>
      </trkpt>
      <trkpt lat="45.79447" lon="4.731">
        <ele>326.41089</ele>
        <time>2022-10-30T14:05:33.000Z</time>
      </trkpt>
      <trkpt lat="45.79445" lon="4.73101">
        <ele>326.62183</ele>
        <time>2022-10-30T14:05:35.000Z</time>
      </trkpt>
      <trkpt lat="45.79444" lon="4.73099">
        <ele>326.8371</ele>
        <time>2022-10-30T14:05:38.000Z</time>
      </trkpt>
      <trkpt lat="45.79444" lon="4.73096">
        <ele>327.03848</ele>
        <time>2022-10-30T14:05:40.000Z</time>
      </trkpt>
      <trkpt lat="45.79445" lon="4.73094">
        <ele>327.2247</ele>
        <time>2022-10-30T14:05:41.000Z</time>
      </trkpt>
      <trkpt lat="45.79446" lon="4.73091">
        <ele>327.44183</ele>
        <time>2022-10-30T14:05:42.000Z</time>
      </trkpt>
      <trkpt lat="45.79449" lon="4.73088">
        <ele>327.65442</ele>
        <time>2022-10-30T14:05:43.000Z</time>
      </trkpt>
      <trkpt lat="45.79452" lon="4.73084">
        <ele>327.88348</ele>
        <time>2022-10-30T14:05:44.000Z</time>
      </trkpt>
      <trkpt lat="45.79454" lon="4.7308">
        <ele>328.13266</ele>
        <time>2022-10-30T14:05:45.000Z</time>
      </trkpt>
      <trkpt lat="45.79457" lon="4.73077">
        <ele>328.32309</ele>
        <time>2022-10-30T14:05:46.000Z</time>
      </trkpt>
      <trkpt lat="45.79458" lon="4.73074">
        <ele>328.51886</ele>
        <time>2022-10-30T14:05:47.000Z</time>
      </trkpt>
      <trkpt lat="45.7946" lon="4.7307">
        <ele>328.60229</ele>
        <time>2022-10-30T14:05:48.000Z</time>
      </trkpt>
      <trkpt lat="45.79462" lon="4.73067">
        <ele>328.7467</ele>
        <time>2022-10-30T14:05:49.000Z</time>
      </trkpt>
      <trkpt lat="45.79464" lon="4.73064">
        <ele>328.85831</ele>
        <time>2022-10-30T14:05:50.000Z</time>
      </trkpt>
      <trkpt lat="45.79467" lon="4.73062">
        <ele>328.97473</ele>
        <time>2022-10-30T14:05:51.000Z</time>
      </trkpt>
      <trkpt lat="45.79469" lon="4.73059">
        <ele>329.07211</ele>
        <time>2022-10-30T14:05:52.000Z</time>
      </trkpt>
      <trkpt lat="45.79472" lon="4.73056">
        <ele>329.16425</ele>
        <time>2022-10-30T14:05:53.000Z</time>
      </trkpt>
      <trkpt lat="45.79475" lon="4.73052">
        <ele>329.27499</ele>
        <time>2022-10-30T14:05:54.000Z</time>
      </trkpt>
      <trkpt lat="45.79477" lon="4.73048">
        <ele>329.39111</ele>
        <time>2022-10-30T14:05:55.000Z</time>
      </trkpt>
      <trkpt lat="45.7948" lon="4.73046">
        <ele>329.56616</ele>
        <time>2022-10-30T14:05:56.000Z</time>
      </trkpt>
      <trkpt lat="45.79482" lon="4.73045">
        <ele>329.72638</ele>
        <time>2022-10-30T14:05:57.000Z</time>
      </trkpt>
      <trkpt lat="45.79485" lon="4.73043">
        <ele>329.89322</ele>
        <time>2022-10-30T14:05:58.000Z</time>
      </trkpt>
      <trkpt lat="45.79487" lon="4.7304">
        <ele>330.06314</ele>
        <time>2022-10-30T14:05:59.000Z</time>
      </trkpt>
      <trkpt lat="45.79488" lon="4.73038">
        <ele>330.18115</ele>
        <time>2022-10-30T14:06:00.000Z</time>
      </trkpt>
      <trkpt lat="45.7949" lon="4.73036">
        <ele>330.37473</ele>
        <time>2022-10-30T14:06:01.000Z</time>
      </trkpt>
      <trkpt lat="45.79493" lon="4.73035">
        <ele>330.55154</ele>
        <time>2022-10-30T14:06:02.000Z</time>
      </trkpt>
      <trkpt lat="45.79495" lon="4.73034">
        <ele>330.70453</ele>
        <time>2022-10-30T14:06:03.000Z</time>
      </trkpt>
      <trkpt lat="45.79498" lon="4.73033">
        <ele>330.85468</ele>
        <time>2022-10-30T14:06:04.000Z</time>
      </trkpt>
      <trkpt lat="45.795" lon="4.73032">
        <ele>331.06384</ele>
        <time>2022-10-30T14:06:05.000Z</time>
      </trkpt>
      <trkpt lat="45.79503" lon="4.7303">
        <ele>331.28531</ele>
        <time>2022-10-30T14:06:06.000Z</time>
      </trkpt>
      <trkpt lat="45.79506" lon="4.73027">
        <ele>331.44696</ele>
        <time>2022-10-30T14:06:07.000Z</time>
      </trkpt>
      <trkpt lat="45.79507" lon="4.73026">
        <ele>331.58051</ele>
        <time>2022-10-30T14:06:08.000Z</time>
      </trkpt>
      <trkpt lat="45.79508" lon="4.73023">
        <ele>331.65387</ele>
        <time>2022-10-30T14:06:09.000Z</time>
      </trkpt>
      <trkpt lat="45.7951" lon="4.73021">
        <ele>331.75677</ele>
        <time>2022-10-30T14:06:10.000Z</time>
      </trkpt>
      <trkpt lat="45.79511" lon="4.73019">
        <ele>331.88446</ele>
        <time>2022-10-30T14:06:11.000Z</time>
      </trkpt>
      <trkpt lat="45.79514" lon="4.73017">
        <ele>331.98288</ele>
        <time>2022-10-30T14:06:12.000Z</time>
      </trkpt>
      <trkpt lat="45.79516" lon="4.73016">
        <ele>332.09482</ele>
        <time>2022-10-30T14:06:13.000Z</time>
      </trkpt>
      <trkpt lat="45.79519" lon="4.73014">
        <ele>332.1839</ele>
        <time>2022-10-30T14:06:14.000Z</time>
      </trkpt>
      <trkpt lat="45.79521" lon="4.73012">
        <ele>332.3244</ele>
        <time>2022-10-30T14:06:15.000Z</time>
      </trkpt>
      <trkpt lat="45.79524" lon="4.7301">
        <ele>332.46844</ele>
        <time>2022-10-30T14:06:16.000Z</time>
      </trkpt>
      <trkpt lat="45.79526" lon="4.73008">
        <ele>332.61874</ele>
        <time>2022-10-30T14:06:17.000Z</time>
      </trkpt>
      <trkpt lat="45.79528" lon="4.73005">
        <ele>332.77374</ele>
        <time>2022-10-30T14:06:18.000Z</time>
      </trkpt>
      <trkpt lat="45.7953" lon="4.73002">
        <ele>332.92563</ele>
        <time>2022-10-30T14:06:19.000Z</time>
      </trkpt>
      <trkpt lat="45.79532" lon="4.72999">
        <ele>333.08517</ele>
        <time>2022-10-30T14:06:20.000Z</time>
      </trkpt>
      <trkpt lat="45.79533" lon="4.72995">
        <ele>333.16904</ele>
        <time>2022-10-30T14:06:21.000Z</time>
      </trkpt>
      <trkpt lat="45.79534" lon="4.72991">
        <ele>333.2023</ele>
        <time>2022-10-30T14:06:22.000Z</time>
      </trkpt>
      <trkpt lat="45.79534" lon="4.72986">
        <ele>333.25992</ele>
        <time>2022-10-30T14:06:23.000Z</time>
      </trkpt>
      <trkpt lat="45.79535" lon="4.72982">
        <ele>333.36469</ele>
        <time>2022-10-30T14:06:24.000Z</time>
      </trkpt>
      <trkpt lat="45.79536" lon="4.72978">
        <ele>333.38495</ele>
        <time>2022-10-30T14:06:25.000Z</time>
      </trkpt>
      <trkpt lat="45.79536" lon="4.72974">
        <ele>333.43896</ele>
        <time>2022-10-30T14:06:26.000Z</time>
      </trkpt>
      <trkpt lat="45.79537" lon="4.72971">
        <ele>333.49277</ele>
        <time>2022-10-30T14:06:27.000Z</time>
      </trkpt>
      <trkpt lat="45.79537" lon="4.72967">
        <ele>333.48404</ele>
        <time>2022-10-30T14:06:28.000Z</time>
      </trkpt>
      <trkpt lat="45.79538" lon="4.72962">
        <ele>333.48602</ele>
        <time>2022-10-30T14:06:29.000Z</time>
      </trkpt>
      <trkpt lat="45.79539" lon="4.72959">
        <ele>333.46463</ele>
        <time>2022-10-30T14:06:30.000Z</time>
      </trkpt>
      <trkpt lat="45.7954" lon="4.72956">
        <ele>333.45197</ele>
        <time>2022-10-30T14:06:31.000Z</time>
      </trkpt>
      <trkpt lat="45.79542" lon="4.72953">
        <ele>333.39911</ele>
        <time>2022-10-30T14:06:32.000Z</time>
      </trkpt>
      <trkpt lat="45.79544" lon="4.72951">
        <ele>333.32379</ele>
        <time>2022-10-30T14:06:33.000Z</time>
      </trkpt>
      <trkpt lat="45.79547" lon="4.72948">
        <ele>333.28589</ele>
        <time>2022-10-30T14:06:34.000Z</time>
      </trkpt>
      <trkpt lat="45.7955" lon="4.72947">
        <ele>333.23285</ele>
        <time>2022-10-30T14:06:35.000Z</time>
      </trkpt>
      <trkpt lat="45.79552" lon="4.72945">
        <ele>333.17374</ele>
        <time>2022-10-30T14:06:36.000Z</time>
      </trkpt>
      <trkpt lat="45.79554" lon="4.72943">
        <ele>333.09988</ele>
        <time>2022-10-30T14:06:37.000Z</time>
      </trkpt>
      <trkpt lat="45.79556" lon="4.72941">
        <ele>332.98358</ele>
        <time>2022-10-30T14:06:38.000Z</time>
      </trkpt>
      <trkpt lat="45.79558" lon="4.72938">
        <ele>332.86655</ele>
        <time>2022-10-30T14:06:39.000Z</time>
      </trkpt>
      <trkpt lat="45.7956" lon="4.72935">
        <ele>332.76337</ele>
        <time>2022-10-30T14:06:40.000Z</time>
      </trkpt>
      <trkpt lat="45.79562" lon="4.72933">
        <ele>332.73254</ele>
        <time>2022-10-30T14:06:41.000Z</time>
      </trkpt>
      <trkpt lat="45.79564" lon="4.7293">
        <ele>332.81421</ele>
        <time>2022-10-30T14:06:42.000Z</time>
      </trkpt>
      <trkpt lat="45.79566" lon="4.72928">
        <ele>332.93396</ele>
        <time>2022-10-30T14:06:43.000Z</time>
      </trkpt>
      <trkpt lat="45.79567" lon="4.72926">
        <ele>333.05643</ele>
        <time>2022-10-30T14:06:44.000Z</time>
      </trkpt>
      <trkpt lat="45.7957" lon="4.72923">
        <ele>333.23514</ele>
        <time>2022-10-30T14:06:45.000Z</time>
      </trkpt>
      <trkpt lat="45.79572" lon="4.72921">
        <ele>333.36911</ele>
        <time>2022-10-30T14:06:46.000Z</time>
      </trkpt>
      <trkpt lat="45.79574" lon="4.72919">
        <ele>333.4957</ele>
        <time>2022-10-30T14:06:47.000Z</time>
      </trkpt>
      <trkpt lat="45.79576" lon="4.72917">
        <ele>333.68585</ele>
        <time>2022-10-30T14:06:48.000Z</time>
      </trkpt>
      <trkpt lat="45.79577" lon="4.72915">
        <ele>333.87442</ele>
        <time>2022-10-30T14:06:49.000Z</time>
      </trkpt>
      <trkpt lat="45.79579" lon="4.72912">
        <ele>334.1102</ele>
        <time>2022-10-30T14:06:51.000Z</time>
      </trkpt>
      <trkpt lat="45.79581" lon="4.72909">
        <ele>334.32819</ele>
        <time>2022-10-30T14:06:53.000Z</time>
      </trkpt>
      <trkpt lat="45.79582" lon="4.72907">
        <ele>334.57147</ele>
        <time>2022-10-30T14:06:55.000Z</time>
      </trkpt>
      <trkpt lat="45.79583" lon="4.72904">
        <ele>334.91617</ele>
        <time>2022-10-30T14:06:57.000Z</time>
      </trkpt>
      <trkpt lat="45.79585" lon="4.72903">
        <ele>335.24994</ele>
        <time>2022-10-30T14:06:59.000Z</time>
      </trkpt>
      <trkpt lat="45.79587" lon="4.72902">
        <ele>335.55319</ele>
        <time>2022-10-30T14:07:02.000Z</time>
      </trkpt>
      <trkpt lat="45.79588" lon="4.729">
        <ele>335.76263</ele>
        <time>2022-10-30T14:07:07.000Z</time>
      </trkpt>
      <trkpt lat="45.7959" lon="4.72898">
        <ele>336.08154</ele>
        <time>2022-10-30T14:07:54.000Z</time>
      </trkpt>
      <trkpt lat="45.79593" lon="4.72895">
        <ele>336.4101</ele>
        <time>2022-10-30T14:07:56.000Z</time>
      </trkpt>
      <trkpt lat="45.79595" lon="4.72894">
        <ele>336.7225</ele>
        <time>2022-10-30T14:07:57.000Z</time>
      </trkpt>
      <trkpt lat="45.79597" lon="4.72892">
        <ele>337.03217</ele>
        <time>2022-10-30T14:07:58.000Z</time>
      </trkpt>
      <trkpt lat="45.796" lon="4.72891">
        <ele>337.29147</ele>
        <time>2022-10-30T14:08:00.000Z</time>
      </trkpt>
      <trkpt lat="45.79602" lon="4.7289">
        <ele>337.58212</ele>
        <time>2022-10-30T14:08:01.000Z</time>
      </trkpt>
      <trkpt lat="45.79605" lon="4.72888">
        <ele>337.85986</ele>
        <time>2022-10-30T14:08:03.000Z</time>
      </trkpt>
      <trkpt lat="45.79607" lon="4.72887">
        <ele>338.12518</ele>
        <time>2022-10-30T14:08:04.000Z</time>
      </trkpt>
      <trkpt lat="45.79609" lon="4.72886">
        <ele>338.35541</ele>
        <time>2022-10-30T14:08:05.000Z</time>
      </trkpt>
      <trkpt lat="45.79611" lon="4.72884">
        <ele>338.61328</ele>
        <time>2022-10-30T14:08:06.000Z</time>
      </trkpt>
      <trkpt lat="45.79614" lon="4.72882">
        <ele>338.87134</ele>
        <time>2022-10-30T14:08:07.000Z</time>
      </trkpt>
      <trkpt lat="45.79616" lon="4.72878">
        <ele>339.091</ele>
        <time>2022-10-30T14:08:08.000Z</time>
      </trkpt>
      <trkpt lat="45.79618" lon="4.72876">
        <ele>339.37302</ele>
        <time>2022-10-30T14:08:09.000Z</time>
      </trkpt>
      <trkpt lat="45.79621" lon="4.72874">
        <ele>339.56897</ele>
        <time>2022-10-30T14:08:11.000Z</time>
      </trkpt>
      <trkpt lat="45.79623" lon="4.72872">
        <ele>339.74432</ele>
        <time>2022-10-30T14:08:12.000Z</time>
      </trkpt>
      <trkpt lat="45.79624" lon="4.7287">
        <ele>339.92844</ele>
        <time>2022-10-30T14:08:13.000Z</time>
      </trkpt>
      <trkpt lat="45.79626" lon="4.72868">
        <ele>340.07803</ele>
        <time>2022-10-30T14:08:14.000Z</time>
      </trkpt>
      <trkpt lat="45.79628" lon="4.72866">
        <ele>340.16913</ele>
        <time>2022-10-30T14:08:15.000Z</time>
      </trkpt>
      <trkpt lat="45.79631" lon="4.72863">
        <ele>340.25372</ele>
        <time>2022-10-30T14:08:16.000Z</time>
      </trkpt>
      <trkpt lat="45.79633" lon="4.72862">
        <ele>340.39615</ele>
        <time>2022-10-30T14:08:17.000Z</time>
      </trkpt>
      <trkpt lat="45.79635" lon="4.7286">
        <ele>340.40622</ele>
        <time>2022-10-30T14:08:18.000Z</time>
      </trkpt>
      <trkpt lat="45.79637" lon="4.72858">
        <ele>340.38483</ele>
        <time>2022-10-30T14:08:19.000Z</time>
      </trkpt>
      <trkpt lat="45.79639" lon="4.72857">
        <ele>340.30264</ele>
        <time>2022-10-30T14:08:20.000Z</time>
      </trkpt>
      <trkpt lat="45.79641" lon="4.72855">
        <ele>340.19363</ele>
        <time>2022-10-30T14:08:21.000Z</time>
      </trkpt>
      <trkpt lat="45.79643" lon="4.72854">
        <ele>340.09027</ele>
        <time>2022-10-30T14:08:22.000Z</time>
      </trkpt>
      <trkpt lat="45.79645" lon="4.72852">
        <ele>339.96591</ele>
        <time>2022-10-30T14:08:23.000Z</time>
      </trkpt>
      <trkpt lat="45.79646" lon="4.7285">
        <ele>339.79858</ele>
        <time>2022-10-30T14:08:24.000Z</time>
      </trkpt>
      <trkpt lat="45.79648" lon="4.72848">
        <ele>339.6059</ele>
        <time>2022-10-30T14:08:25.000Z</time>
      </trkpt>
      <trkpt lat="45.7965" lon="4.72846">
        <ele>339.40121</ele>
        <time>2022-10-30T14:08:26.000Z</time>
      </trkpt>
      <trkpt lat="45.79652" lon="4.72843">
        <ele>339.17181</ele>
        <time>2022-10-30T14:08:27.000Z</time>
      </trkpt>
      <trkpt lat="45.79655" lon="4.7284">
        <ele>338.96707</ele>
        <time>2022-10-30T14:08:28.000Z</time>
      </trkpt>
      <trkpt lat="45.79657" lon="4.72837">
        <ele>338.75879</ele>
        <time>2022-10-30T14:08:29.000Z</time>
      </trkpt>
      <trkpt lat="45.79659" lon="4.72834">
        <ele>338.50003</ele>
        <time>2022-10-30T14:08:30.000Z</time>
      </trkpt>
      <trkpt lat="45.79661" lon="4.72831">
        <ele>338.27353</ele>
        <time>2022-10-30T14:08:31.000Z</time>
      </trkpt>
      <trkpt lat="45.79664" lon="4.72827">
        <ele>338.0672</ele>
        <time>2022-10-30T14:08:32.000Z</time>
      </trkpt>
      <trkpt lat="45.79666" lon="4.72824">
        <ele>337.82761</ele>
        <time>2022-10-30T14:08:33.000Z</time>
      </trkpt>
      <trkpt lat="45.79668" lon="4.72821">
        <ele>337.58853</ele>
        <time>2022-10-30T14:08:34.000Z</time>
      </trkpt>
      <trkpt lat="45.7967" lon="4.72818">
        <ele>337.35394</ele>
        <time>2022-10-30T14:08:35.000Z</time>
      </trkpt>
      <trkpt lat="45.79671" lon="4.72814">
        <ele>337.15781</ele>
        <time>2022-10-30T14:08:36.000Z</time>
      </trkpt>
      <trkpt lat="45.79673" lon="4.7281">
        <ele>337.06155</ele>
        <time>2022-10-30T14:08:37.000Z</time>
      </trkpt>
      <trkpt lat="45.79674" lon="4.72807">
        <ele>336.97037</ele>
        <time>2022-10-30T14:08:38.000Z</time>
      </trkpt>
      <trkpt lat="45.79675" lon="4.72804">
        <ele>336.95877</ele>
        <time>2022-10-30T14:08:39.000Z</time>
      </trkpt>
      <trkpt lat="45.79676" lon="4.72799">
        <ele>337.0311</ele>
        <time>2022-10-30T14:08:40.000Z</time>
      </trkpt>
      <trkpt lat="45.79677" lon="4.72795">
        <ele>337.11887</ele>
        <time>2022-10-30T14:08:41.000Z</time>
      </trkpt>
      <trkpt lat="45.79677" lon="4.72792">
        <ele>337.16577</ele>
        <time>2022-10-30T14:08:42.000Z</time>
      </trkpt>
      <trkpt lat="45.79677" lon="4.72789">
        <ele>337.10065</ele>
        <time>2022-10-30T14:08:43.000Z</time>
      </trkpt>
      <trkpt lat="45.79677" lon="4.72785">
        <ele>337.05423</ele>
        <time>2022-10-30T14:08:44.000Z</time>
      </trkpt>
      <trkpt lat="45.79677" lon="4.7278">
        <ele>337.03964</ele>
        <time>2022-10-30T14:08:45.000Z</time>
      </trkpt>
      <trkpt lat="45.79676" lon="4.72776">
        <ele>337.07675</ele>
        <time>2022-10-30T14:08:46.000Z</time>
      </trkpt>
      <trkpt lat="45.79675" lon="4.72773">
        <ele>337.16391</ele>
        <time>2022-10-30T14:08:47.000Z</time>
      </trkpt>
      <trkpt lat="45.79674" lon="4.7277">
        <ele>337.23132</ele>
        <time>2022-10-30T14:08:48.000Z</time>
      </trkpt>
      <trkpt lat="45.79673" lon="4.72766">
        <ele>337.30695</ele>
        <time>2022-10-30T14:08:49.000Z</time>
      </trkpt>
      <trkpt lat="45.79672" lon="4.72762">
        <ele>337.38147</ele>
        <time>2022-10-30T14:08:50.000Z</time>
      </trkpt>
      <trkpt lat="45.79671" lon="4.72757">
        <ele>337.41357</ele>
        <time>2022-10-30T14:08:51.000Z</time>
      </trkpt>
      <trkpt lat="45.79669" lon="4.72753">
        <ele>337.43188</ele>
        <time>2022-10-30T14:08:52.000Z</time>
      </trkpt>
      <trkpt lat="45.79668" lon="4.7275">
        <ele>337.53259</ele>
        <time>2022-10-30T14:08:53.000Z</time>
      </trkpt>
      <trkpt lat="45.79668" lon="4.72746">
        <ele>337.60071</ele>
        <time>2022-10-30T14:08:54.000Z</time>
      </trkpt>
      <trkpt lat="45.79667" lon="4.72742">
        <ele>337.70444</ele>
        <time>2022-10-30T14:08:55.000Z</time>
      </trkpt>
      <trkpt lat="45.79666" lon="4.72738">
        <ele>337.79404</ele>
        <time>2022-10-30T14:08:56.000Z</time>
      </trkpt>
      <trkpt lat="45.79665" lon="4.72735">
        <ele>337.81992</ele>
        <time>2022-10-30T14:08:57.000Z</time>
      </trkpt>
      <trkpt lat="45.79664" lon="4.72731">
        <ele>337.92148</ele>
        <time>2022-10-30T14:08:58.000Z</time>
      </trkpt>
      <trkpt lat="45.79663" lon="4.72727">
        <ele>338.0036</ele>
        <time>2022-10-30T14:08:59.000Z</time>
      </trkpt>
      <trkpt lat="45.79662" lon="4.72724">
        <ele>338.12134</ele>
        <time>2022-10-30T14:09:00.000Z</time>
      </trkpt>
      <trkpt lat="45.79661" lon="4.72722">
        <ele>338.27325</ele>
        <time>2022-10-30T14:09:01.000Z</time>
      </trkpt>
      <trkpt lat="45.7966" lon="4.72719">
        <ele>338.47644</ele>
        <time>2022-10-30T14:09:02.000Z</time>
      </trkpt>
      <trkpt lat="45.79659" lon="4.72716">
        <ele>338.71774</ele>
        <time>2022-10-30T14:09:03.000Z</time>
      </trkpt>
      <trkpt lat="45.79657" lon="4.72715">
        <ele>338.93402</ele>
        <time>2022-10-30T14:09:05.000Z</time>
      </trkpt>
      <trkpt lat="45.79656" lon="4.72713">
        <ele>339.28485</ele>
        <time>2022-10-30T14:09:44.000Z</time>
      </trkpt>
      <trkpt lat="45.79653" lon="4.72713">
        <ele>339.53229</ele>
        <time>2022-10-30T14:09:48.000Z</time>
      </trkpt>
      <trkpt lat="45.7965" lon="4.72712">
        <ele>339.75333</ele>
        <time>2022-10-30T14:09:50.000Z</time>
      </trkpt>
      <trkpt lat="45.79647" lon="4.72713">
        <ele>340.03833</ele>
        <time>2022-10-30T14:09:51.000Z</time>
      </trkpt>
      <trkpt lat="45.79645" lon="4.72714">
        <ele>340.30011</ele>
        <time>2022-10-30T14:09:52.000Z</time>
      </trkpt>
      <trkpt lat="45.79642" lon="4.72715">
        <ele>340.54974</ele>
        <time>2022-10-30T14:09:54.000Z</time>
      </trkpt>
      <trkpt lat="45.7964" lon="4.72716">
        <ele>340.90555</ele>
        <time>2022-10-30T14:09:55.000Z</time>
      </trkpt>
      <trkpt lat="45.79638" lon="4.72716">
        <ele>341.29431</ele>
        <time>2022-10-30T14:09:56.000Z</time>
      </trkpt>
      <trkpt lat="45.79636" lon="4.72716">
        <ele>341.65665</ele>
        <time>2022-10-30T14:09:57.000Z</time>
      </trkpt>
      <trkpt lat="45.79634" lon="4.72718">
        <ele>341.94498</ele>
        <time>2022-10-30T14:09:58.000Z</time>
      </trkpt>
      <trkpt lat="45.79633" lon="4.72721">
        <ele>342.32031</ele>
        <time>2022-10-30T14:10:00.000Z</time>
      </trkpt>
      <trkpt lat="45.79631" lon="4.72724">
        <ele>342.67755</ele>
        <time>2022-10-30T14:10:02.000Z</time>
      </trkpt>
      <trkpt lat="45.7963" lon="4.72727">
        <ele>343.02545</ele>
        <time>2022-10-30T14:10:03.000Z</time>
      </trkpt>
      <trkpt lat="45.79628" lon="4.7273">
        <ele>343.31659</ele>
        <time>2022-10-30T14:10:04.000Z</time>
      </trkpt>
      <trkpt lat="45.79626" lon="4.72733">
        <ele>343.58572</ele>
        <time>2022-10-30T14:10:05.000Z</time>
      </trkpt>
      <trkpt lat="45.79623" lon="4.72735">
        <ele>343.77347</ele>
        <time>2022-10-30T14:10:06.000Z</time>
      </trkpt>
      <trkpt lat="45.79621" lon="4.72736">
        <ele>343.87476</ele>
        <time>2022-10-30T14:10:08.000Z</time>
      </trkpt>
      <trkpt lat="45.79619" lon="4.72736">
        <ele>343.87909</ele>
        <time>2022-10-30T14:10:20.000Z</time>
      </trkpt>
      <trkpt lat="45.79615" lon="4.72739">
        <ele>343.8837</ele>
        <time>2022-10-30T14:10:22.000Z</time>
      </trkpt>
      <trkpt lat="45.79614" lon="4.72742">
        <ele>343.84503</ele>
        <time>2022-10-30T14:10:23.000Z</time>
      </trkpt>
      <trkpt lat="45.79612" lon="4.72745">
        <ele>343.62762</ele>
        <time>2022-10-30T14:10:24.000Z</time>
      </trkpt>
      <trkpt lat="45.79611" lon="4.72748">
        <ele>343.50082</ele>
        <time>2022-10-30T14:10:25.000Z</time>
      </trkpt>
      <trkpt lat="45.79609" lon="4.72751">
        <ele>343.49384</ele>
        <time>2022-10-30T14:10:26.000Z</time>
      </trkpt>
      <trkpt lat="45.79607" lon="4.72752">
        <ele>343.43677</ele>
        <time>2022-10-30T14:10:27.000Z</time>
      </trkpt>
      <trkpt lat="45.79603" lon="4.72753">
        <ele>343.39142</ele>
        <time>2022-10-30T14:10:28.000Z</time>
      </trkpt>
      <trkpt lat="45.796" lon="4.72754">
        <ele>343.40173</ele>
        <time>2022-10-30T14:10:29.000Z</time>
      </trkpt>
      <trkpt lat="45.79597" lon="4.72756">
        <ele>343.2879</ele>
        <time>2022-10-30T14:10:30.000Z</time>
      </trkpt>
      <trkpt lat="45.79594" lon="4.72757">
        <ele>343.1618</ele>
        <time>2022-10-30T14:10:31.000Z</time>
      </trkpt>
      <trkpt lat="45.79591" lon="4.72759">
        <ele>343.00897</ele>
        <time>2022-10-30T14:10:32.000Z</time>
      </trkpt>
      <trkpt lat="45.79589" lon="4.72761">
        <ele>342.92328</ele>
        <time>2022-10-30T14:10:33.000Z</time>
      </trkpt>
      <trkpt lat="45.79587" lon="4.72763">
        <ele>342.75653</ele>
        <time>2022-10-30T14:10:34.000Z</time>
      </trkpt>
      <trkpt lat="45.79585" lon="4.72765">
        <ele>342.55783</ele>
        <time>2022-10-30T14:10:35.000Z</time>
      </trkpt>
      <trkpt lat="45.79583" lon="4.72768">
        <ele>342.39911</ele>
        <time>2022-10-30T14:10:36.000Z</time>
      </trkpt>
      <trkpt lat="45.79582" lon="4.72771">
        <ele>342.25647</ele>
        <time>2022-10-30T14:10:37.000Z</time>
      </trkpt>
      <trkpt lat="45.79581" lon="4.72774">
        <ele>342.13538</ele>
        <time>2022-10-30T14:10:38.000Z</time>
      </trkpt>
      <trkpt lat="45.7958" lon="4.72777">
        <ele>341.99957</ele>
        <time>2022-10-30T14:10:39.000Z</time>
      </trkpt>
      <trkpt lat="45.79578" lon="4.7278">
        <ele>341.91934</ele>
        <time>2022-10-30T14:10:41.000Z</time>
      </trkpt>
      <trkpt lat="45.79577" lon="4.72782">
        <ele>341.88177</ele>
        <time>2022-10-30T14:10:45.000Z</time>
      </trkpt>
      <trkpt lat="45.79575" lon="4.72783">
        <ele>341.81909</ele>
        <time>2022-10-30T14:10:48.000Z</time>
      </trkpt>
      <trkpt lat="45.79573" lon="4.72785">
        <ele>341.89691</ele>
        <time>2022-10-30T14:10:50.000Z</time>
      </trkpt>
      <trkpt lat="45.79571" lon="4.72787">
        <ele>341.96225</ele>
        <time>2022-10-30T14:10:52.000Z</time>
      </trkpt>
      <trkpt lat="45.79568" lon="4.72789">
        <ele>341.96576</ele>
        <time>2022-10-30T14:10:54.000Z</time>
      </trkpt>
      <trkpt lat="45.79567" lon="4.72791">
        <ele>341.89996</ele>
        <time>2022-10-30T14:10:57.000Z</time>
      </trkpt>
      <trkpt lat="45.79564" lon="4.72793">
        <ele>341.8475</ele>
        <time>2022-10-30T14:11:05.000Z</time>
      </trkpt>
      <trkpt lat="45.79561" lon="4.72795">
        <ele>341.70981</ele>
        <time>2022-10-30T14:11:07.000Z</time>
      </trkpt>
      <trkpt lat="45.79559" lon="4.72796">
        <ele>341.45096</ele>
        <time>2022-10-30T14:11:08.000Z</time>
      </trkpt>
      <trkpt lat="45.79556" lon="4.72797">
        <ele>341.24512</ele>
        <time>2022-10-30T14:11:10.000Z</time>
      </trkpt>
      <trkpt lat="45.79554" lon="4.72798">
        <ele>341.03152</ele>
        <time>2022-10-30T14:11:12.000Z</time>
      </trkpt>
      <trkpt lat="45.79552" lon="4.728">
        <ele>340.94827</ele>
        <time>2022-10-30T14:11:14.000Z</time>
      </trkpt>
      <trkpt lat="45.7955" lon="4.72801">
        <ele>340.82516</ele>
        <time>2022-10-30T14:11:15.000Z</time>
      </trkpt>
      <trkpt lat="45.79547" lon="4.72801">
        <ele>340.64264</ele>
        <time>2022-10-30T14:11:17.000Z</time>
      </trkpt>
      <trkpt lat="45.79544" lon="4.728">
        <ele>340.53738</ele>
        <time>2022-10-30T14:11:21.000Z</time>
      </trkpt>
      <trkpt lat="45.79542" lon="4.72801">
        <ele>340.35675</ele>
        <time>2022-10-30T14:11:22.000Z</time>
      </trkpt>
      <trkpt lat="45.7954" lon="4.72801">
        <ele>340.12418</ele>
        <time>2022-10-30T14:11:23.000Z</time>
      </trkpt>
      <trkpt lat="45.79537" lon="4.72801">
        <ele>339.87515</ele>
        <time>2022-10-30T14:11:25.000Z</time>
      </trkpt>
      <trkpt lat="45.79534" lon="4.72802">
        <ele>339.72192</ele>
        <time>2022-10-30T14:11:26.000Z</time>
      </trkpt>
      <trkpt lat="45.79532" lon="4.72802">
        <ele>339.5777</ele>
        <time>2022-10-30T14:11:27.000Z</time>
      </trkpt>
      <trkpt lat="45.7953" lon="4.72803">
        <ele>339.41772</ele>
        <time>2022-10-30T14:11:28.000Z</time>
      </trkpt>
      <trkpt lat="45.79528" lon="4.72804">
        <ele>339.24902</ele>
        <time>2022-10-30T14:11:29.000Z</time>
      </trkpt>
      <trkpt lat="45.79526" lon="4.72804">
        <ele>339.07986</ele>
        <time>2022-10-30T14:11:30.000Z</time>
      </trkpt>
      <trkpt lat="45.79524" lon="4.72805">
        <ele>338.95132</ele>
        <time>2022-10-30T14:11:32.000Z</time>
      </trkpt>
      <trkpt lat="45.79522" lon="4.72806">
        <ele>338.99323</ele>
        <time>2022-10-30T14:12:14.000Z</time>
      </trkpt>
      <trkpt lat="45.79521" lon="4.72808">
        <ele>338.97186</ele>
        <time>2022-10-30T14:12:17.000Z</time>
      </trkpt>
      <trkpt lat="45.79519" lon="4.72812">
        <ele>338.88599</ele>
        <time>2022-10-30T14:12:19.000Z</time>
      </trkpt>
      <trkpt lat="45.79517" lon="4.72814">
        <ele>338.88223</ele>
        <time>2022-10-30T14:12:20.000Z</time>
      </trkpt>
      <trkpt lat="45.79516" lon="4.72816">
        <ele>338.94186</ele>
        <time>2022-10-30T14:12:21.000Z</time>
      </trkpt>
      <trkpt lat="45.79514" lon="4.72818">
        <ele>339.04578</ele>
        <time>2022-10-30T14:12:22.000Z</time>
      </trkpt>
      <trkpt lat="45.79512" lon="4.7282">
        <ele>339.17987</ele>
        <time>2022-10-30T14:12:23.000Z</time>
      </trkpt>
      <trkpt lat="45.7951" lon="4.72822">
        <ele>339.20355</ele>
        <time>2022-10-30T14:12:24.000Z</time>
      </trkpt>
      <trkpt lat="45.79507" lon="4.72824">
        <ele>339.23477</ele>
        <time>2022-10-30T14:12:25.000Z</time>
      </trkpt>
      <trkpt lat="45.79505" lon="4.72825">
        <ele>339.28821</ele>
        <time>2022-10-30T14:12:26.000Z</time>
      </trkpt>
      <trkpt lat="45.79503" lon="4.72827">
        <ele>339.29828</ele>
        <time>2022-10-30T14:12:27.000Z</time>
      </trkpt>
      <trkpt lat="45.79501" lon="4.72828">
        <ele>339.33954</ele>
        <time>2022-10-30T14:12:28.000Z</time>
      </trkpt>
      <trkpt lat="45.79499" lon="4.72831">
        <ele>339.42435</ele>
        <time>2022-10-30T14:12:30.000Z</time>
      </trkpt>
      <trkpt lat="45.79497" lon="4.72833">
        <ele>339.53925</ele>
        <time>2022-10-30T14:12:32.000Z</time>
      </trkpt>
      <trkpt lat="45.79495" lon="4.72836">
        <ele>339.56235</ele>
        <time>2022-10-30T14:12:34.000Z</time>
      </trkpt>
      <trkpt lat="45.79494" lon="4.72838">
        <ele>339.55112</ele>
        <time>2022-10-30T14:12:35.000Z</time>
      </trkpt>
      <trkpt lat="45.79493" lon="4.72841">
        <ele>339.60458</ele>
        <time>2022-10-30T14:12:36.000Z</time>
      </trkpt>
      <trkpt lat="45.79491" lon="4.72843">
        <ele>339.69223</ele>
        <time>2022-10-30T14:12:37.000Z</time>
      </trkpt>
      <trkpt lat="45.79489" lon="4.72845">
        <ele>339.71509</ele>
        <time>2022-10-30T14:12:38.000Z</time>
      </trkpt>
      <trkpt lat="45.79487" lon="4.72846">
        <ele>339.62177</ele>
        <time>2022-10-30T14:12:39.000Z</time>
      </trkpt>
      <trkpt lat="45.79484" lon="4.72846">
        <ele>339.3447</ele>
        <time>2022-10-30T14:12:40.000Z</time>
      </trkpt>
      <trkpt lat="45.79482" lon="4.72846">
        <ele>339.09641</ele>
        <time>2022-10-30T14:12:41.000Z</time>
      </trkpt>
      <trkpt lat="45.7948" lon="4.72846">
        <ele>338.91913</ele>
        <time>2022-10-30T14:12:42.000Z</time>
      </trkpt>
      <trkpt lat="45.79478" lon="4.72847">
        <ele>338.82932</ele>
        <time>2022-10-30T14:12:43.000Z</time>
      </trkpt>
      <trkpt lat="45.79475" lon="4.72849">
        <ele>338.76773</ele>
        <time>2022-10-30T14:12:44.000Z</time>
      </trkpt>
      <trkpt lat="45.79473" lon="4.7285">
        <ele>338.66989</ele>
        <time>2022-10-30T14:12:45.000Z</time>
      </trkpt>
      <trkpt lat="45.79471" lon="4.72852">
        <ele>338.59546</ele>
        <time>2022-10-30T14:12:46.000Z</time>
      </trkpt>
      <trkpt lat="45.79468" lon="4.72853">
        <ele>338.53073</ele>
        <time>2022-10-30T14:12:47.000Z</time>
      </trkpt>
      <trkpt lat="45.79465" lon="4.72853">
        <ele>338.40179</ele>
        <time>2022-10-30T14:12:48.000Z</time>
      </trkpt>
      <trkpt lat="45.79463" lon="4.72853">
        <ele>338.31665</ele>
        <time>2022-10-30T14:12:49.000Z</time>
      </trkpt>
      <trkpt lat="45.7946" lon="4.72853">
        <ele>338.23572</ele>
        <time>2022-10-30T14:12:50.000Z</time>
      </trkpt>
      <trkpt lat="45.79459" lon="4.72855">
        <ele>338.14783</ele>
        <time>2022-10-30T14:12:51.000Z</time>
      </trkpt>
      <trkpt lat="45.79457" lon="4.72856">
        <ele>338.06735</ele>
        <time>2022-10-30T14:12:52.000Z</time>
      </trkpt>
      <trkpt lat="45.79454" lon="4.72856">
        <ele>337.94196</ele>
        <time>2022-10-30T14:12:53.000Z</time>
      </trkpt>
      <trkpt lat="45.79452" lon="4.72856">
        <ele>337.86444</ele>
        <time>2022-10-30T14:12:54.000Z</time>
      </trkpt>
      <trkpt lat="45.7945" lon="4.72857">
        <ele>337.80981</ele>
        <time>2022-10-30T14:12:55.000Z</time>
      </trkpt>
      <trkpt lat="45.79448" lon="4.72858">
        <ele>337.73407</ele>
        <time>2022-10-30T14:12:56.000Z</time>
      </trkpt>
      <trkpt lat="45.79447" lon="4.72861">
        <ele>337.62338</ele>
        <time>2022-10-30T14:12:57.000Z</time>
      </trkpt>
      <trkpt lat="45.79445" lon="4.72863">
        <ele>337.49008</ele>
        <time>2022-10-30T14:12:58.000Z</time>
      </trkpt>
      <trkpt lat="45.79444" lon="4.72866">
        <ele>337.37701</ele>
        <time>2022-10-30T14:12:59.000Z</time>
      </trkpt>
      <trkpt lat="45.79443" lon="4.72868">
        <ele>337.285</ele>
        <time>2022-10-30T14:13:00.000Z</time>
      </trkpt>
      <trkpt lat="45.79441" lon="4.72869">
        <ele>337.17163</ele>
        <time>2022-10-30T14:13:01.000Z</time>
      </trkpt>
      <trkpt lat="45.79439" lon="4.72872">
        <ele>337.02283</ele>
        <time>2022-10-30T14:13:02.000Z</time>
      </trkpt>
      <trkpt lat="45.79437" lon="4.72874">
        <ele>336.81833</ele>
        <time>2022-10-30T14:13:03.000Z</time>
      </trkpt>
      <trkpt lat="45.79435" lon="4.72876">
        <ele>336.57932</ele>
        <time>2022-10-30T14:13:04.000Z</time>
      </trkpt>
      <trkpt lat="45.79432" lon="4.72879">
        <ele>336.32196</ele>
        <time>2022-10-30T14:13:05.000Z</time>
      </trkpt>
      <trkpt lat="45.79429" lon="4.72881">
        <ele>336.11298</ele>
        <time>2022-10-30T14:13:06.000Z</time>
      </trkpt>
      <trkpt lat="45.79426" lon="4.72883">
        <ele>335.90576</ele>
        <time>2022-10-30T14:13:07.000Z</time>
      </trkpt>
      <trkpt lat="45.79424" lon="4.72884">
        <ele>335.77762</ele>
        <time>2022-10-30T14:13:08.000Z</time>
      </trkpt>
      <trkpt lat="45.79423" lon="4.72885">
        <ele>335.58359</ele>
        <time>2022-10-30T14:13:09.000Z</time>
      </trkpt>
      <trkpt lat="45.79421" lon="4.72887">
        <ele>335.28973</ele>
        <time>2022-10-30T14:13:10.000Z</time>
      </trkpt>
      <trkpt lat="45.79419" lon="4.72889">
        <ele>335.02716</ele>
        <time>2022-10-30T14:13:11.000Z</time>
      </trkpt>
      <trkpt lat="45.79417" lon="4.7289">
        <ele>334.69244</ele>
        <time>2022-10-30T14:13:12.000Z</time>
      </trkpt>
      <trkpt lat="45.79416" lon="4.72891">
        <ele>334.36435</ele>
        <time>2022-10-30T14:13:13.000Z</time>
      </trkpt>
      <trkpt lat="45.79414" lon="4.72893">
        <ele>334.01627</ele>
        <time>2022-10-30T14:13:14.000Z</time>
      </trkpt>
      <trkpt lat="45.79412" lon="4.72895">
        <ele>333.6922</ele>
        <time>2022-10-30T14:13:16.000Z</time>
      </trkpt>
      <trkpt lat="45.79411" lon="4.72897">
        <ele>333.37152</ele>
        <time>2022-10-30T14:13:22.000Z</time>
      </trkpt>
      <trkpt lat="45.79409" lon="4.72899">
        <ele>333.10187</ele>
        <time>2022-10-30T14:13:37.000Z</time>
      </trkpt>
      <trkpt lat="45.79407" lon="4.72902">
        <ele>332.95059</ele>
        <time>2022-10-30T14:13:40.000Z</time>
      </trkpt>
      <trkpt lat="45.79406" lon="4.72906">
        <ele>332.9119</ele>
        <time>2022-10-30T14:13:42.000Z</time>
      </trkpt>
      <trkpt lat="45.79405" lon="4.7291">
        <ele>332.7547</ele>
        <time>2022-10-30T14:13:44.000Z</time>
      </trkpt>
      <trkpt lat="45.79405" lon="4.72914">
        <ele>332.60922</ele>
        <time>2022-10-30T14:13:45.000Z</time>
      </trkpt>
      <trkpt lat="45.79404" lon="4.72916">
        <ele>332.44824</ele>
        <time>2022-10-30T14:13:46.000Z</time>
      </trkpt>
      <trkpt lat="45.79405" lon="4.72921">
        <ele>332.27176</ele>
        <time>2022-10-30T14:13:48.000Z</time>
      </trkpt>
      <trkpt lat="45.79406" lon="4.72924">
        <ele>332.08905</ele>
        <time>2022-10-30T14:13:49.000Z</time>
      </trkpt>
      <trkpt lat="45.79407" lon="4.72926">
        <ele>331.9454</ele>
        <time>2022-10-30T14:13:50.000Z</time>
      </trkpt>
      <trkpt lat="45.79407" lon="4.72929">
        <ele>331.69229</ele>
        <time>2022-10-30T14:13:51.000Z</time>
      </trkpt>
      <trkpt lat="45.79407" lon="4.72932">
        <ele>331.42438</ele>
        <time>2022-10-30T14:13:52.000Z</time>
      </trkpt>
      <trkpt lat="45.79406" lon="4.72935">
        <ele>331.10703</ele>
        <time>2022-10-30T14:13:53.000Z</time>
      </trkpt>
      <trkpt lat="45.79405" lon="4.72938">
        <ele>330.86166</ele>
        <time>2022-10-30T14:13:54.000Z</time>
      </trkpt>
      <trkpt lat="45.79403" lon="4.7294">
        <ele>330.68048</ele>
        <time>2022-10-30T14:13:56.000Z</time>
      </trkpt>
      <trkpt lat="45.79401" lon="4.72942">
        <ele>330.54828</ele>
        <time>2022-10-30T14:14:02.000Z</time>
      </trkpt>
      <trkpt lat="45.794" lon="4.72944">
        <ele>330.45679</ele>
        <time>2022-10-30T14:14:13.000Z</time>
      </trkpt>
      <trkpt lat="45.79402" lon="4.72942">
        <ele>330.3602</ele>
        <time>2022-10-30T14:14:48.000Z</time>
      </trkpt>
      <trkpt lat="45.79403" lon="4.7294">
        <ele>330.31955</ele>
        <time>2022-10-30T14:15:09.000Z</time>
      </trkpt>
      <trkpt lat="45.79403" lon="4.72937">
        <ele>330.31638</ele>
        <time>2022-10-30T14:15:13.000Z</time>
      </trkpt>
      <trkpt lat="45.79401" lon="4.72935">
        <ele>330.34491</ele>
        <time>2022-10-30T14:15:15.000Z</time>
      </trkpt>
      <trkpt lat="45.79401" lon="4.72932">
        <ele>330.36539</ele>
        <time>2022-10-30T14:15:16.000Z</time>
      </trkpt>
      <trkpt lat="45.79402" lon="4.72927">
        <ele>330.31503</ele>
        <time>2022-10-30T14:15:17.000Z</time>
      </trkpt>
      <trkpt lat="45.79402" lon="4.72923">
        <ele>330.23349</ele>
        <time>2022-10-30T14:15:18.000Z</time>
      </trkpt>
      <trkpt lat="45.79402" lon="4.72918">
        <ele>330.31888</ele>
        <time>2022-10-30T14:15:19.000Z</time>
      </trkpt>
      <trkpt lat="45.79402" lon="4.72914">
        <ele>330.40875</ele>
        <time>2022-10-30T14:15:20.000Z</time>
      </trkpt>
      <trkpt lat="45.79402" lon="4.72911">
        <ele>330.44608</ele>
        <time>2022-10-30T14:15:21.000Z</time>
      </trkpt>
      <trkpt lat="45.79403" lon="4.72907">
        <ele>330.586</ele>
        <time>2022-10-30T14:15:22.000Z</time>
      </trkpt>
      <trkpt lat="45.79404" lon="4.72904">
        <ele>330.75137</ele>
        <time>2022-10-30T14:15:23.000Z</time>
      </trkpt>
      <trkpt lat="45.79405" lon="4.72902">
        <ele>330.91617</ele>
        <time>2022-10-30T14:15:24.000Z</time>
      </trkpt>
      <trkpt lat="45.79407" lon="4.729">
        <ele>331.08585</ele>
        <time>2022-10-30T14:15:25.000Z</time>
      </trkpt>
      <trkpt lat="45.79409" lon="4.72898">
        <ele>331.26364</ele>
        <time>2022-10-30T14:15:26.000Z</time>
      </trkpt>
      <trkpt lat="45.79411" lon="4.72896">
        <ele>331.52289</ele>
        <time>2022-10-30T14:15:27.000Z</time>
      </trkpt>
      <trkpt lat="45.79412" lon="4.72895">
        <ele>331.71378</ele>
        <time>2022-10-30T14:15:28.000Z</time>
      </trkpt>
      <trkpt lat="45.79414" lon="4.72894">
        <ele>331.96341</ele>
        <time>2022-10-30T14:15:29.000Z</time>
      </trkpt>
      <trkpt lat="45.79416" lon="4.72893">
        <ele>332.1546</ele>
        <time>2022-10-30T14:15:30.000Z</time>
      </trkpt>
      <trkpt lat="45.79418" lon="4.72891">
        <ele>332.34332</ele>
        <time>2022-10-30T14:15:31.000Z</time>
      </trkpt>
      <trkpt lat="45.7942" lon="4.72889">
        <ele>332.5415</ele>
        <time>2022-10-30T14:15:32.000Z</time>
      </trkpt>
      <trkpt lat="45.79422" lon="4.72887">
        <ele>332.64301</ele>
        <time>2022-10-30T14:15:33.000Z</time>
      </trkpt>
      <trkpt lat="45.79424" lon="4.72885">
        <ele>332.70914</ele>
        <time>2022-10-30T14:15:34.000Z</time>
      </trkpt>
      <trkpt lat="45.79425" lon="4.72883">
        <ele>332.76123</ele>
        <time>2022-10-30T14:15:35.000Z</time>
      </trkpt>
      <trkpt lat="45.79427" lon="4.72881">
        <ele>332.79013</ele>
        <time>2022-10-30T14:15:36.000Z</time>
      </trkpt>
      <trkpt lat="45.79429" lon="4.72879">
        <ele>332.77463</ele>
        <time>2022-10-30T14:15:37.000Z</time>
      </trkpt>
      <trkpt lat="45.7943" lon="4.72878">
        <ele>332.72894</ele>
        <time>2022-10-30T14:15:38.000Z</time>
      </trkpt>
      <trkpt lat="45.79432" lon="4.72876">
        <ele>332.62689</ele>
        <time>2022-10-30T14:15:39.000Z</time>
      </trkpt>
      <trkpt lat="45.79433" lon="4.72873">
        <ele>332.57135</ele>
        <time>2022-10-30T14:15:40.000Z</time>
      </trkpt>
      <trkpt lat="45.79434" lon="4.7287">
        <ele>332.57016</ele>
        <time>2022-10-30T14:15:41.000Z</time>
      </trkpt>
      <trkpt lat="45.79435" lon="4.72868">
        <ele>332.48215</ele>
        <time>2022-10-30T14:15:42.000Z</time>
      </trkpt>
      <trkpt lat="45.79437" lon="4.72865">
        <ele>332.40411</ele>
        <time>2022-10-30T14:15:43.000Z</time>
      </trkpt>
      <trkpt lat="45.79439" lon="4.72864">
        <ele>332.38705</ele>
        <time>2022-10-30T14:15:44.000Z</time>
      </trkpt>
      <trkpt lat="45.79441" lon="4.72863">
        <ele>332.36612</ele>
        <time>2022-10-30T14:15:45.000Z</time>
      </trkpt>
      <trkpt lat="45.79444" lon="4.72861">
        <ele>332.33734</ele>
        <time>2022-10-30T14:15:46.000Z</time>
      </trkpt>
      <trkpt lat="45.79446" lon="4.72859">
        <ele>332.30829</ele>
        <time>2022-10-30T14:15:47.000Z</time>
      </trkpt>
      <trkpt lat="45.79448" lon="4.72858">
        <ele>332.26605</ele>
        <time>2022-10-30T14:15:48.000Z</time>
      </trkpt>
      <trkpt lat="45.7945" lon="4.72857">
        <ele>332.18857</ele>
        <time>2022-10-30T14:15:49.000Z</time>
      </trkpt>
      <trkpt lat="45.79451" lon="4.72855">
        <ele>332.08713</ele>
        <time>2022-10-30T14:15:52.000Z</time>
      </trkpt>
      <trkpt lat="45.79454" lon="4.72854">
        <ele>332.17175</ele>
        <time>2022-10-30T14:16:18.000Z</time>
      </trkpt>
      <trkpt lat="45.79456" lon="4.72854">
        <ele>332.23334</ele>
        <time>2022-10-30T14:16:19.000Z</time>
      </trkpt>
      <trkpt lat="45.79459" lon="4.72852">
        <ele>332.31619</ele>
        <time>2022-10-30T14:16:21.000Z</time>
      </trkpt>
      <trkpt lat="45.79461" lon="4.72851">
        <ele>332.36108</ele>
        <time>2022-10-30T14:16:22.000Z</time>
      </trkpt>
      <trkpt lat="45.79463" lon="4.72849">
        <ele>332.41211</ele>
        <time>2022-10-30T14:16:23.000Z</time>
      </trkpt>
      <trkpt lat="45.79465" lon="4.72848">
        <ele>332.4902</ele>
        <time>2022-10-30T14:16:24.000Z</time>
      </trkpt>
      <trkpt lat="45.79468" lon="4.72847">
        <ele>332.58514</ele>
        <time>2022-10-30T14:16:25.000Z</time>
      </trkpt>
      <trkpt lat="45.79469" lon="4.72847">
        <ele>332.65585</ele>
        <time>2022-10-30T14:16:26.000Z</time>
      </trkpt>
      <trkpt lat="45.79471" lon="4.72847">
        <ele>332.76007</ele>
        <time>2022-10-30T14:16:27.000Z</time>
      </trkpt>
      <trkpt lat="45.79473" lon="4.72847">
        <ele>332.77594</ele>
        <time>2022-10-30T14:16:28.000Z</time>
      </trkpt>
      <trkpt lat="45.79475" lon="4.72846">
        <ele>332.74832</ele>
        <time>2022-10-30T14:16:29.000Z</time>
      </trkpt>
      <trkpt lat="45.79477" lon="4.72844">
        <ele>332.70947</ele>
        <time>2022-10-30T14:16:30.000Z</time>
      </trkpt>
      <trkpt lat="45.79478" lon="4.72842">
        <ele>332.7366</ele>
        <time>2022-10-30T14:16:31.000Z</time>
      </trkpt>
      <trkpt lat="45.79479" lon="4.7284">
        <ele>332.68143</ele>
        <time>2022-10-30T14:16:32.000Z</time>
      </trkpt>
      <trkpt lat="45.79481" lon="4.72837">
        <ele>332.60889</ele>
        <time>2022-10-30T14:16:33.000Z</time>
      </trkpt>
      <trkpt lat="45.79483" lon="4.72836">
        <ele>332.60324</ele>
        <time>2022-10-30T14:16:35.000Z</time>
      </trkpt>
      <trkpt lat="45.79485" lon="4.72835">
        <ele>332.53876</ele>
        <time>2022-10-30T14:16:38.000Z</time>
      </trkpt>
      <trkpt lat="45.79487" lon="4.72833">
        <ele>332.57147</ele>
        <time>2022-10-30T14:16:41.000Z</time>
      </trkpt>
      <trkpt lat="45.7949" lon="4.72831">
        <ele>332.52142</ele>
        <time>2022-10-30T14:16:43.000Z</time>
      </trkpt>
      <trkpt lat="45.79493" lon="4.72829">
        <ele>332.53818</ele>
        <time>2022-10-30T14:16:45.000Z</time>
      </trkpt>
      <trkpt lat="45.79496" lon="4.72827">
        <ele>332.36456</ele>
        <time>2022-10-30T14:16:47.000Z</time>
      </trkpt>
      <trkpt lat="45.79498" lon="4.72826">
        <ele>332.27591</ele>
        <time>2022-10-30T14:16:48.000Z</time>
      </trkpt>
      <trkpt lat="45.795" lon="4.72824">
        <ele>332.24304</ele>
        <time>2022-10-30T14:16:51.000Z</time>
      </trkpt>
      <trkpt lat="45.79503" lon="4.72821">
        <ele>332.30313</ele>
        <time>2022-10-30T14:16:53.000Z</time>
      </trkpt>
      <trkpt lat="45.79505" lon="4.7282">
        <ele>332.38455</ele>
        <time>2022-10-30T14:16:55.000Z</time>
      </trkpt>
      <trkpt lat="45.79506" lon="4.72816">
        <ele>332.4165</ele>
        <time>2022-10-30T14:16:57.000Z</time>
      </trkpt>
      <trkpt lat="45.79508" lon="4.72813">
        <ele>332.42258</ele>
        <time>2022-10-30T14:16:59.000Z</time>
      </trkpt>
      <trkpt lat="45.7951" lon="4.72811">
        <ele>332.48703</ele>
        <time>2022-10-30T14:17:01.000Z</time>
      </trkpt>
      <trkpt lat="45.79513" lon="4.72809">
        <ele>332.5119</ele>
        <time>2022-10-30T14:17:03.000Z</time>
      </trkpt>
      <trkpt lat="45.79516" lon="4.72808">
        <ele>332.51175</ele>
        <time>2022-10-30T14:17:05.000Z</time>
      </trkpt>
      <trkpt lat="45.79517" lon="4.72806">
        <ele>332.57611</ele>
        <time>2022-10-30T14:17:07.000Z</time>
      </trkpt>
      <trkpt lat="45.79519" lon="4.72803">
        <ele>332.63101</ele>
        <time>2022-10-30T14:17:19.000Z</time>
      </trkpt>
      <trkpt lat="45.79522" lon="4.72801">
        <ele>332.67072</ele>
        <time>2022-10-30T14:17:21.000Z</time>
      </trkpt>
      <trkpt lat="45.79524" lon="4.72799">
        <ele>332.67743</ele>
        <time>2022-10-30T14:17:22.000Z</time>
      </trkpt>
      <trkpt lat="45.79526" lon="4.72798">
        <ele>332.71255</ele>
        <time>2022-10-30T14:17:23.000Z</time>
      </trkpt>
      <trkpt lat="45.79527" lon="4.72796">
        <ele>332.68588</ele>
        <time>2022-10-30T14:17:24.000Z</time>
      </trkpt>
      <trkpt lat="45.79531" lon="4.72795">
        <ele>332.68658</ele>
        <time>2022-10-30T14:17:26.000Z</time>
      </trkpt>
      <trkpt lat="45.79534" lon="4.72796">
        <ele>332.59509</ele>
        <time>2022-10-30T14:17:28.000Z</time>
      </trkpt>
      <trkpt lat="45.79538" lon="4.72796">
        <ele>332.62277</ele>
        <time>2022-10-30T14:17:30.000Z</time>
      </trkpt>
      <trkpt lat="45.7954" lon="4.72794">
        <ele>332.62292</ele>
        <time>2022-10-30T14:17:32.000Z</time>
      </trkpt>
      <trkpt lat="45.79542" lon="4.72795">
        <ele>332.66916</ele>
        <time>2022-10-30T14:17:35.000Z</time>
      </trkpt>
      <trkpt lat="45.79544" lon="4.72796">
        <ele>332.72495</ele>
        <time>2022-10-30T14:17:45.000Z</time>
      </trkpt>
      <trkpt lat="45.79546" lon="4.72796">
        <ele>332.79208</ele>
        <time>2022-10-30T14:18:07.000Z</time>
      </trkpt>
      <trkpt lat="45.79548" lon="4.72794">
        <ele>332.7251</ele>
        <time>2022-10-30T14:18:09.000Z</time>
      </trkpt>
      <trkpt lat="45.7955" lon="4.72793">
        <ele>332.61584</ele>
        <time>2022-10-30T14:18:11.000Z</time>
      </trkpt>
      <trkpt lat="45.79552" lon="4.72792">
        <ele>332.54242</ele>
        <time>2022-10-30T14:18:12.000Z</time>
      </trkpt>
      <trkpt lat="45.79555" lon="4.72791">
        <ele>332.54462</ele>
        <time>2022-10-30T14:18:14.000Z</time>
      </trkpt>
      <trkpt lat="45.79557" lon="4.72789">
        <ele>332.48669</ele>
        <time>2022-10-30T14:18:16.000Z</time>
      </trkpt>
      <trkpt lat="45.7956" lon="4.72787">
        <ele>332.47354</ele>
        <time>2022-10-30T14:18:18.000Z</time>
      </trkpt>
      <trkpt lat="45.79562" lon="4.72786">
        <ele>332.51117</ele>
        <time>2022-10-30T14:18:19.000Z</time>
      </trkpt>
      <trkpt lat="45.79564" lon="4.72785">
        <ele>332.53363</ele>
        <time>2022-10-30T14:18:20.000Z</time>
      </trkpt>
      <trkpt lat="45.79565" lon="4.72783">
        <ele>332.61481</ele>
        <time>2022-10-30T14:18:21.000Z</time>
      </trkpt>
      <trkpt lat="45.79567" lon="4.72782">
        <ele>332.67172</ele>
        <time>2022-10-30T14:18:22.000Z</time>
      </trkpt>
      <trkpt lat="45.79568" lon="4.72779">
        <ele>332.78027</ele>
        <time>2022-10-30T14:18:23.000Z</time>
      </trkpt>
      <trkpt lat="45.79569" lon="4.72777">
        <ele>332.86899</ele>
        <time>2022-10-30T14:18:24.000Z</time>
      </trkpt>
      <trkpt lat="45.7957" lon="4.72774">
        <ele>332.9454</ele>
        <time>2022-10-30T14:18:25.000Z</time>
      </trkpt>
      <trkpt lat="45.79572" lon="4.72771">
        <ele>333.06934</ele>
        <time>2022-10-30T14:18:27.000Z</time>
      </trkpt>
      <trkpt lat="45.79574" lon="4.72767">
        <ele>333.24371</ele>
        <time>2022-10-30T14:18:29.000Z</time>
      </trkpt>
      <trkpt lat="45.79577" lon="4.72764">
        <ele>333.42609</ele>
        <time>2022-10-30T14:18:31.000Z</time>
      </trkpt>
      <trkpt lat="45.7958" lon="4.72762">
        <ele>333.54657</ele>
        <time>2022-10-30T14:18:32.000Z</time>
      </trkpt>
      <trkpt lat="45.79583" lon="4.7276">
        <ele>333.64166</ele>
        <time>2022-10-30T14:18:33.000Z</time>
      </trkpt>
      <trkpt lat="45.79585" lon="4.72759">
        <ele>333.66779</ele>
        <time>2022-10-30T14:18:34.000Z</time>
      </trkpt>
      <trkpt lat="45.79588" lon="4.72758">
        <ele>333.6192</ele>
        <time>2022-10-30T14:18:35.000Z</time>
      </trkpt>
      <trkpt lat="45.7959" lon="4.72758">
        <ele>333.63934</ele>
        <time>2022-10-30T14:18:36.000Z</time>
      </trkpt>
      <trkpt lat="45.79592" lon="4.72757">
        <ele>333.70657</ele>
        <time>2022-10-30T14:18:37.000Z</time>
      </trkpt>
      <trkpt lat="45.79595" lon="4.72757">
        <ele>333.76993</ele>
        <time>2022-10-30T14:18:38.000Z</time>
      </trkpt>
      <trkpt lat="45.79597" lon="4.72756">
        <ele>333.79315</ele>
        <time>2022-10-30T14:18:39.000Z</time>
      </trkpt>
      <trkpt lat="45.79599" lon="4.72753">
        <ele>333.79517</ele>
        <time>2022-10-30T14:18:40.000Z</time>
      </trkpt>
      <trkpt lat="45.796" lon="4.72751">
        <ele>333.80371</ele>
        <time>2022-10-30T14:18:41.000Z</time>
      </trkpt>
      <trkpt lat="45.79602" lon="4.72748">
        <ele>333.79373</ele>
        <time>2022-10-30T14:18:42.000Z</time>
      </trkpt>
      <trkpt lat="45.79603" lon="4.72745">
        <ele>333.75665</ele>
        <time>2022-10-30T14:18:43.000Z</time>
      </trkpt>
      <trkpt lat="45.79604" lon="4.72743">
        <ele>333.68143</ele>
        <time>2022-10-30T14:18:44.000Z</time>
      </trkpt>
      <trkpt lat="45.79606" lon="4.72741">
        <ele>333.61212</ele>
        <time>2022-10-30T14:18:45.000Z</time>
      </trkpt>
      <trkpt lat="45.7961" lon="4.7274">
        <ele>333.56732</ele>
        <time>2022-10-30T14:18:47.000Z</time>
      </trkpt>
      <trkpt lat="45.79611" lon="4.72739">
        <ele>333.52753</ele>
        <time>2022-10-30T14:18:48.000Z</time>
      </trkpt>
      <trkpt lat="45.79615" lon="4.72738">
        <ele>333.47012</ele>
        <time>2022-10-30T14:18:50.000Z</time>
      </trkpt>
      <trkpt lat="45.79618" lon="4.72736">
        <ele>333.30426</ele>
        <time>2022-10-30T14:18:52.000Z</time>
      </trkpt>
      <trkpt lat="45.79619" lon="4.72734">
        <ele>333.16476</ele>
        <time>2022-10-30T14:18:53.000Z</time>
      </trkpt>
      <trkpt lat="45.7962" lon="4.72732">
        <ele>332.99185</ele>
        <time>2022-10-30T14:18:54.000Z</time>
      </trkpt>
      <trkpt lat="45.79622" lon="4.7273">
        <ele>332.88745</ele>
        <time>2022-10-30T14:18:55.000Z</time>
      </trkpt>
      <trkpt lat="45.79624" lon="4.72726">
        <ele>332.85434</ele>
        <time>2022-10-30T14:18:57.000Z</time>
      </trkpt>
      <trkpt lat="45.79626" lon="4.72722">
        <ele>332.9202</ele>
        <time>2022-10-30T14:18:59.000Z</time>
      </trkpt>
      <trkpt lat="45.79628" lon="4.7272">
        <ele>333.06766</ele>
        <time>2022-10-30T14:19:00.000Z</time>
      </trkpt>
      <trkpt lat="45.79629" lon="4.72719">
        <ele>333.2196</ele>
        <time>2022-10-30T14:19:01.000Z</time>
      </trkpt>
      <trkpt lat="45.79633" lon="4.72719">
        <ele>333.42715</ele>
        <time>2022-10-30T14:19:03.000Z</time>
      </trkpt>
      <trkpt lat="45.79636" lon="4.72719">
        <ele>333.67184</ele>
        <time>2022-10-30T14:19:04.000Z</time>
      </trkpt>
      <trkpt lat="45.79637" lon="4.72718">
        <ele>333.94925</ele>
        <time>2022-10-30T14:19:05.000Z</time>
      </trkpt>
      <trkpt lat="45.79639" lon="4.72716">
        <ele>334.28442</ele>
        <time>2022-10-30T14:19:06.000Z</time>
      </trkpt>
      <trkpt lat="45.79641" lon="4.72714">
        <ele>334.58856</ele>
        <time>2022-10-30T14:19:07.000Z</time>
      </trkpt>
      <trkpt lat="45.79643" lon="4.72714">
        <ele>334.99237</ele>
        <time>2022-10-30T14:19:08.000Z</time>
      </trkpt>
      <trkpt lat="45.79645" lon="4.72713">
        <ele>335.46054</ele>
        <time>2022-10-30T14:19:09.000Z</time>
      </trkpt>
      <trkpt lat="45.79647" lon="4.72712">
        <ele>335.86896</ele>
        <time>2022-10-30T14:19:10.000Z</time>
      </trkpt>
      <trkpt lat="45.79649" lon="4.7271">
        <ele>336.2085</ele>
        <time>2022-10-30T14:19:11.000Z</time>
      </trkpt>
      <trkpt lat="45.7965" lon="4.72708">
        <ele>336.51862</ele>
        <time>2022-10-30T14:19:12.000Z</time>
      </trkpt>
      <trkpt lat="45.7965" lon="4.72705">
        <ele>336.82431</ele>
        <time>2022-10-30T14:19:14.000Z</time>
      </trkpt>
      <trkpt lat="45.79652" lon="4.72704">
        <ele>337.10599</ele>
        <time>2022-10-30T14:19:44.000Z</time>
      </trkpt>
      <trkpt lat="45.79652" lon="4.72701">
        <ele>337.53625</ele>
        <time>2022-10-30T14:19:57.000Z</time>
      </trkpt>
      <trkpt lat="45.79651" lon="4.72699">
        <ele>337.93994</ele>
        <time>2022-10-30T14:19:58.000Z</time>
      </trkpt>
      <trkpt lat="45.7965" lon="4.72696">
        <ele>338.39642</ele>
        <time>2022-10-30T14:19:59.000Z</time>
      </trkpt>
      <trkpt lat="45.79648" lon="4.72694">
        <ele>338.84332</ele>
        <time>2022-10-30T14:20:00.000Z</time>
      </trkpt>
      <trkpt lat="45.79647" lon="4.72691">
        <ele>339.2175</ele>
        <time>2022-10-30T14:20:01.000Z</time>
      </trkpt>
      <trkpt lat="45.79646" lon="4.72688">
        <ele>339.46994</ele>
        <time>2022-10-30T14:20:02.000Z</time>
      </trkpt>
      <trkpt lat="45.79645" lon="4.72684">
        <ele>339.66663</ele>
        <time>2022-10-30T14:20:03.000Z</time>
      </trkpt>
      <trkpt lat="45.79644" lon="4.72681">
        <ele>339.84741</ele>
        <time>2022-10-30T14:20:04.000Z</time>
      </trkpt>
      <trkpt lat="45.79643" lon="4.72677">
        <ele>339.92175</ele>
        <time>2022-10-30T14:20:05.000Z</time>
      </trkpt>
      <trkpt lat="45.79642" lon="4.72674">
        <ele>339.95697</ele>
        <time>2022-10-30T14:20:06.000Z</time>
      </trkpt>
      <trkpt lat="45.79641" lon="4.7267">
        <ele>339.97183</ele>
        <time>2022-10-30T14:20:07.000Z</time>
      </trkpt>
      <trkpt lat="45.7964" lon="4.72667">
        <ele>340.03027</ele>
        <time>2022-10-30T14:20:08.000Z</time>
      </trkpt>
      <trkpt lat="45.79639" lon="4.72663">
        <ele>340.12482</ele>
        <time>2022-10-30T14:20:09.000Z</time>
      </trkpt>
      <trkpt lat="45.79638" lon="4.7266">
        <ele>340.14532</ele>
        <time>2022-10-30T14:20:10.000Z</time>
      </trkpt>
      <trkpt lat="45.79637" lon="4.72656">
        <ele>340.12137</ele>
        <time>2022-10-30T14:20:11.000Z</time>
      </trkpt>
      <trkpt lat="45.79635" lon="4.72653">
        <ele>340.21158</ele>
        <time>2022-10-30T14:20:12.000Z</time>
      </trkpt>
      <trkpt lat="45.79634" lon="4.72649">
        <ele>340.3313</ele>
        <time>2022-10-30T14:20:13.000Z</time>
      </trkpt>
      <trkpt lat="45.79633" lon="4.72646">
        <ele>340.43436</ele>
        <time>2022-10-30T14:20:14.000Z</time>
      </trkpt>
      <trkpt lat="45.79632" lon="4.72643">
        <ele>340.54462</ele>
        <time>2022-10-30T14:20:15.000Z</time>
      </trkpt>
      <trkpt lat="45.79631" lon="4.7264">
        <ele>340.7247</ele>
        <time>2022-10-30T14:20:16.000Z</time>
      </trkpt>
      <trkpt lat="45.7963" lon="4.72637">
        <ele>340.91043</ele>
        <time>2022-10-30T14:20:17.000Z</time>
      </trkpt>
      <trkpt lat="45.79629" lon="4.72634">
        <ele>341.0668</ele>
        <time>2022-10-30T14:20:18.000Z</time>
      </trkpt>
      <trkpt lat="45.79628" lon="4.7263">
        <ele>341.14847</ele>
        <time>2022-10-30T14:20:19.000Z</time>
      </trkpt>
      <trkpt lat="45.79628" lon="4.72627">
        <ele>341.2384</ele>
        <time>2022-10-30T14:20:20.000Z</time>
      </trkpt>
      <trkpt lat="45.79626" lon="4.72623">
        <ele>341.33377</ele>
        <time>2022-10-30T14:20:21.000Z</time>
      </trkpt>
      <trkpt lat="45.79626" lon="4.72619">
        <ele>341.49084</ele>
        <time>2022-10-30T14:20:22.000Z</time>
      </trkpt>
      <trkpt lat="45.79624" lon="4.72614">
        <ele>341.61041</ele>
        <time>2022-10-30T14:20:24.000Z</time>
      </trkpt>
      <trkpt lat="45.79622" lon="4.72611">
        <ele>341.77823</ele>
        <time>2022-10-30T14:20:25.000Z</time>
      </trkpt>
      <trkpt lat="45.79621" lon="4.72607">
        <ele>341.94717</ele>
        <time>2022-10-30T14:20:26.000Z</time>
      </trkpt>
      <trkpt lat="45.7962" lon="4.72603">
        <ele>342.19684</ele>
        <time>2022-10-30T14:20:27.000Z</time>
      </trkpt>
      <trkpt lat="45.79619" lon="4.72599">
        <ele>342.44711</ele>
        <time>2022-10-30T14:20:28.000Z</time>
      </trkpt>
      <trkpt lat="45.79618" lon="4.72596">
        <ele>342.70111</ele>
        <time>2022-10-30T14:20:29.000Z</time>
      </trkpt>
      <trkpt lat="45.79617" lon="4.72594">
        <ele>342.97736</ele>
        <time>2022-10-30T14:20:30.000Z</time>
      </trkpt>
      <trkpt lat="45.79615" lon="4.7259">
        <ele>343.33279</ele>
        <time>2022-10-30T14:20:31.000Z</time>
      </trkpt>
      <trkpt lat="45.79613" lon="4.72586">
        <ele>343.7207</ele>
        <time>2022-10-30T14:20:32.000Z</time>
      </trkpt>
      <trkpt lat="45.79612" lon="4.72583">
        <ele>344.09137</ele>
        <time>2022-10-30T14:20:33.000Z</time>
      </trkpt>
      <trkpt lat="45.79611" lon="4.7258">
        <ele>344.52499</ele>
        <time>2022-10-30T14:20:34.000Z</time>
      </trkpt>
      <trkpt lat="45.79609" lon="4.72576">
        <ele>344.96307</ele>
        <time>2022-10-30T14:20:35.000Z</time>
      </trkpt>
      <trkpt lat="45.79608" lon="4.72572">
        <ele>345.3996</ele>
        <time>2022-10-30T14:20:36.000Z</time>
      </trkpt>
      <trkpt lat="45.79606" lon="4.72569">
        <ele>345.87119</ele>
        <time>2022-10-30T14:20:37.000Z</time>
      </trkpt>
      <trkpt lat="45.79605" lon="4.72566">
        <ele>346.23694</ele>
        <time>2022-10-30T14:20:38.000Z</time>
      </trkpt>
      <trkpt lat="45.79604" lon="4.72562">
        <ele>346.60626</ele>
        <time>2022-10-30T14:20:39.000Z</time>
      </trkpt>
      <trkpt lat="45.79603" lon="4.72559">
        <ele>346.96292</ele>
        <time>2022-10-30T14:20:40.000Z</time>
      </trkpt>
      <trkpt lat="45.79601" lon="4.72554">
        <ele>347.24091</ele>
        <time>2022-10-30T14:20:42.000Z</time>
      </trkpt>
      <trkpt lat="45.79599" lon="4.72551">
        <ele>347.59317</ele>
        <time>2022-10-30T14:20:43.000Z</time>
      </trkpt>
      <trkpt lat="45.79598" lon="4.72548">
        <ele>347.8764</ele>
        <time>2022-10-30T14:20:44.000Z</time>
      </trkpt>
      <trkpt lat="45.79596" lon="4.72545">
        <ele>348.24332</ele>
        <time>2022-10-30T14:20:45.000Z</time>
      </trkpt>
      <trkpt lat="45.79594" lon="4.72543">
        <ele>348.5329</ele>
        <time>2022-10-30T14:20:46.000Z</time>
      </trkpt>
      <trkpt lat="45.79592" lon="4.7254">
        <ele>348.86429</ele>
        <time>2022-10-30T14:20:47.000Z</time>
      </trkpt>
      <trkpt lat="45.79589" lon="4.72536">
        <ele>349.16064</ele>
        <time>2022-10-30T14:20:48.000Z</time>
      </trkpt>
      <trkpt lat="45.79588" lon="4.72534">
        <ele>349.37119</ele>
        <time>2022-10-30T14:20:49.000Z</time>
      </trkpt>
      <trkpt lat="45.79586" lon="4.72531">
        <ele>349.49359</ele>
        <time>2022-10-30T14:20:50.000Z</time>
      </trkpt>
      <trkpt lat="45.79584" lon="4.72529">
        <ele>349.62836</ele>
        <time>2022-10-30T14:20:51.000Z</time>
      </trkpt>
      <trkpt lat="45.79582" lon="4.72527">
        <ele>349.70401</ele>
        <time>2022-10-30T14:20:52.000Z</time>
      </trkpt>
      <trkpt lat="45.79581" lon="4.72523">
        <ele>349.76019</ele>
        <time>2022-10-30T14:20:53.000Z</time>
      </trkpt>
      <trkpt lat="45.7958" lon="4.7252">
        <ele>349.78912</ele>
        <time>2022-10-30T14:20:54.000Z</time>
      </trkpt>
      <trkpt lat="45.79579" lon="4.72517">
        <ele>349.80954</ele>
        <time>2022-10-30T14:20:55.000Z</time>
      </trkpt>
      <trkpt lat="45.79577" lon="4.72514">
        <ele>349.80908</ele>
        <time>2022-10-30T14:20:56.000Z</time>
      </trkpt>
      <trkpt lat="45.79576" lon="4.72512">
        <ele>349.86295</ele>
        <time>2022-10-30T14:20:57.000Z</time>
      </trkpt>
      <trkpt lat="45.79575" lon="4.7251">
        <ele>349.88434</ele>
        <time>2022-10-30T14:20:58.000Z</time>
      </trkpt>
      <trkpt lat="45.79573" lon="4.72508">
        <ele>349.95084</ele>
        <time>2022-10-30T14:20:59.000Z</time>
      </trkpt>
      <trkpt lat="45.79572" lon="4.72505">
        <ele>350.00616</ele>
        <time>2022-10-30T14:21:01.000Z</time>
      </trkpt>
      <trkpt lat="45.79571" lon="4.72502">
        <ele>350.11285</ele>
        <time>2022-10-30T14:21:11.000Z</time>
      </trkpt>
      <trkpt lat="45.79569" lon="4.72502">
        <ele>350.2226</ele>
        <time>2022-10-30T14:21:30.000Z</time>
      </trkpt>
      <trkpt lat="45.79566" lon="4.72502">
        <ele>350.28378</ele>
        <time>2022-10-30T14:21:32.000Z</time>
      </trkpt>
      <trkpt lat="45.79564" lon="4.72503">
        <ele>350.35522</ele>
        <time>2022-10-30T14:21:33.000Z</time>
      </trkpt>
      <trkpt lat="45.79562" lon="4.72504">
        <ele>350.40164</ele>
        <time>2022-10-30T14:21:34.000Z</time>
      </trkpt>
      <trkpt lat="45.79558" lon="4.72506">
        <ele>350.52725</ele>
        <time>2022-10-30T14:21:36.000Z</time>
      </trkpt>
      <trkpt lat="45.79556" lon="4.72508">
        <ele>350.61783</ele>
        <time>2022-10-30T14:21:37.000Z</time>
      </trkpt>
      <trkpt lat="45.79554" lon="4.72509">
        <ele>350.65155</ele>
        <time>2022-10-30T14:21:38.000Z</time>
      </trkpt>
      <trkpt lat="45.79551" lon="4.72511">
        <ele>350.7298</ele>
        <time>2022-10-30T14:21:39.000Z</time>
      </trkpt>
      <trkpt lat="45.79548" lon="4.72512">
        <ele>350.83334</ele>
        <time>2022-10-30T14:21:40.000Z</time>
      </trkpt>
      <trkpt lat="45.79546" lon="4.72513">
        <ele>350.90402</ele>
        <time>2022-10-30T14:21:41.000Z</time>
      </trkpt>
      <trkpt lat="45.79544" lon="4.72515">
        <ele>351.00162</ele>
        <time>2022-10-30T14:21:42.000Z</time>
      </trkpt>
      <trkpt lat="45.79541" lon="4.72516">
        <ele>351.08203</ele>
        <time>2022-10-30T14:21:43.000Z</time>
      </trkpt>
      <trkpt lat="45.79539" lon="4.72518">
        <ele>351.10583</ele>
        <time>2022-10-30T14:21:44.000Z</time>
      </trkpt>
      <trkpt lat="45.79536" lon="4.7252">
        <ele>351.04016</ele>
        <time>2022-10-30T14:21:45.000Z</time>
      </trkpt>
      <trkpt lat="45.79534" lon="4.72521">
        <ele>351.02588</ele>
        <time>2022-10-30T14:21:46.000Z</time>
      </trkpt>
      <trkpt lat="45.79532" lon="4.72523">
        <ele>350.96664</ele>
        <time>2022-10-30T14:21:47.000Z</time>
      </trkpt>
      <trkpt lat="45.79529" lon="4.72524">
        <ele>350.89139</ele>
        <time>2022-10-30T14:21:48.000Z</time>
      </trkpt>
      <trkpt lat="45.79526" lon="4.72527">
        <ele>350.80304</ele>
        <time>2022-10-30T14:21:49.000Z</time>
      </trkpt>
      <trkpt lat="45.79524" lon="4.72529">
        <ele>350.68246</ele>
        <time>2022-10-30T14:21:50.000Z</time>
      </trkpt>
      <trkpt lat="45.79522" lon="4.7253">
        <ele>350.56012</ele>
        <time>2022-10-30T14:21:51.000Z</time>
      </trkpt>
      <trkpt lat="45.79519" lon="4.72532">
        <ele>350.50406</ele>
        <time>2022-10-30T14:21:52.000Z</time>
      </trkpt>
      <trkpt lat="45.79516" lon="4.72535">
        <ele>350.40216</ele>
        <time>2022-10-30T14:21:53.000Z</time>
      </trkpt>
      <trkpt lat="45.79513" lon="4.72537">
        <ele>350.32956</ele>
        <time>2022-10-30T14:21:54.000Z</time>
      </trkpt>
      <trkpt lat="45.79509" lon="4.72539">
        <ele>350.22916</ele>
        <time>2022-10-30T14:21:55.000Z</time>
      </trkpt>
      <trkpt lat="45.79506" lon="4.72541">
        <ele>350.05618</ele>
        <time>2022-10-30T14:21:56.000Z</time>
      </trkpt>
      <trkpt lat="45.79502" lon="4.72544">
        <ele>349.91327</ele>
        <time>2022-10-30T14:21:57.000Z</time>
      </trkpt>
      <trkpt lat="45.79498" lon="4.72547">
        <ele>349.77859</ele>
        <time>2022-10-30T14:21:58.000Z</time>
      </trkpt>
      <trkpt lat="45.79494" lon="4.72552">
        <ele>349.64911</ele>
        <time>2022-10-30T14:21:59.000Z</time>
      </trkpt>
      <trkpt lat="45.7949" lon="4.72556">
        <ele>349.48428</ele>
        <time>2022-10-30T14:22:00.000Z</time>
      </trkpt>
      <trkpt lat="45.79487" lon="4.72561">
        <ele>349.25479</ele>
        <time>2022-10-30T14:22:01.000Z</time>
      </trkpt>
      <trkpt lat="45.79484" lon="4.72567">
        <ele>348.97946</ele>
        <time>2022-10-30T14:22:02.000Z</time>
      </trkpt>
      <trkpt lat="45.79479" lon="4.72574">
        <ele>348.73929</ele>
        <time>2022-10-30T14:22:03.000Z</time>
      </trkpt>
      <trkpt lat="45.79475" lon="4.72577">
        <ele>348.49634</ele>
        <time>2022-10-30T14:22:04.000Z</time>
      </trkpt>
      <trkpt lat="45.7947" lon="4.72581">
        <ele>348.26294</ele>
        <time>2022-10-30T14:22:05.000Z</time>
      </trkpt>
      <trkpt lat="45.79466" lon="4.72585">
        <ele>347.97272</ele>
        <time>2022-10-30T14:22:06.000Z</time>
      </trkpt>
      <trkpt lat="45.79462" lon="4.72589">
        <ele>347.64825</ele>
        <time>2022-10-30T14:22:07.000Z</time>
      </trkpt>
      <trkpt lat="45.79457" lon="4.72594">
        <ele>347.30081</ele>
        <time>2022-10-30T14:22:08.000Z</time>
      </trkpt>
      <trkpt lat="45.79454" lon="4.72598">
        <ele>346.90796</ele>
        <time>2022-10-30T14:22:09.000Z</time>
      </trkpt>
      <trkpt lat="45.79449" lon="4.72603">
        <ele>346.55823</ele>
        <time>2022-10-30T14:22:10.000Z</time>
      </trkpt>
      <trkpt lat="45.79445" lon="4.72608">
        <ele>346.21353</ele>
        <time>2022-10-30T14:22:11.000Z</time>
      </trkpt>
      <trkpt lat="45.7944" lon="4.72613">
        <ele>345.82944</ele>
        <time>2022-10-30T14:22:12.000Z</time>
      </trkpt>
      <trkpt lat="45.79435" lon="4.72617">
        <ele>345.46716</ele>
        <time>2022-10-30T14:22:13.000Z</time>
      </trkpt>
      <trkpt lat="45.7943" lon="4.72622">
        <ele>345.13504</ele>
        <time>2022-10-30T14:22:14.000Z</time>
      </trkpt>
      <trkpt lat="45.79425" lon="4.72627">
        <ele>344.80258</ele>
        <time>2022-10-30T14:22:15.000Z</time>
      </trkpt>
      <trkpt lat="45.7942" lon="4.72632">
        <ele>344.46405</ele>
        <time>2022-10-30T14:22:16.000Z</time>
      </trkpt>
      <trkpt lat="45.79416" lon="4.72638">
        <ele>344.10748</ele>
        <time>2022-10-30T14:22:17.000Z</time>
      </trkpt>
      <trkpt lat="45.7941" lon="4.72643">
        <ele>343.74072</ele>
        <time>2022-10-30T14:22:18.000Z</time>
      </trkpt>
      <trkpt lat="45.79405" lon="4.72648">
        <ele>343.35388</ele>
        <time>2022-10-30T14:22:19.000Z</time>
      </trkpt>
      <trkpt lat="45.79401" lon="4.72652">
        <ele>343.01578</ele>
        <time>2022-10-30T14:22:20.000Z</time>
      </trkpt>
      <trkpt lat="45.79395" lon="4.72658">
        <ele>342.69907</ele>
        <time>2022-10-30T14:22:21.000Z</time>
      </trkpt>
      <trkpt lat="45.7939" lon="4.72664">
        <ele>342.36465</ele>
        <time>2022-10-30T14:22:22.000Z</time>
      </trkpt>
      <trkpt lat="45.79385" lon="4.72669">
        <ele>341.94373</ele>
        <time>2022-10-30T14:22:23.000Z</time>
      </trkpt>
      <trkpt lat="45.79379" lon="4.72674">
        <ele>341.53851</ele>
        <time>2022-10-30T14:22:24.000Z</time>
      </trkpt>
      <trkpt lat="45.79373" lon="4.72679">
        <ele>341.13733</ele>
        <time>2022-10-30T14:22:25.000Z</time>
      </trkpt>
      <trkpt lat="45.79368" lon="4.72685">
        <ele>340.77814</ele>
        <time>2022-10-30T14:22:26.000Z</time>
      </trkpt>
      <trkpt lat="45.79362" lon="4.72691">
        <ele>340.41214</ele>
        <time>2022-10-30T14:22:27.000Z</time>
      </trkpt>
      <trkpt lat="45.79356" lon="4.72697">
        <ele>340.02145</ele>
        <time>2022-10-30T14:22:28.000Z</time>
      </trkpt>
      <trkpt lat="45.7935" lon="4.72703">
        <ele>339.62897</ele>
        <time>2022-10-30T14:22:29.000Z</time>
      </trkpt>
      <trkpt lat="45.79345" lon="4.72708">
        <ele>339.27417</ele>
        <time>2022-10-30T14:22:30.000Z</time>
      </trkpt>
      <trkpt lat="45.7934" lon="4.72714">
        <ele>338.8616</ele>
        <time>2022-10-30T14:22:31.000Z</time>
      </trkpt>
      <trkpt lat="45.79335" lon="4.7272">
        <ele>338.46368</ele>
        <time>2022-10-30T14:22:32.000Z</time>
      </trkpt>
      <trkpt lat="45.79331" lon="4.72726">
        <ele>338.05447</ele>
        <time>2022-10-30T14:22:33.000Z</time>
      </trkpt>
      <trkpt lat="45.79327" lon="4.72733">
        <ele>337.59042</ele>
        <time>2022-10-30T14:22:34.000Z</time>
      </trkpt>
      <trkpt lat="45.79323" lon="4.72739">
        <ele>337.14246</ele>
        <time>2022-10-30T14:22:35.000Z</time>
      </trkpt>
      <trkpt lat="45.79319" lon="4.72747">
        <ele>336.74664</ele>
        <time>2022-10-30T14:22:36.000Z</time>
      </trkpt>
      <trkpt lat="45.79316" lon="4.72753">
        <ele>336.33994</ele>
        <time>2022-10-30T14:22:37.000Z</time>
      </trkpt>
      <trkpt lat="45.79312" lon="4.7276">
        <ele>335.96417</ele>
        <time>2022-10-30T14:22:38.000Z</time>
      </trkpt>
      <trkpt lat="45.79308" lon="4.72767">
        <ele>335.60703</ele>
        <time>2022-10-30T14:22:39.000Z</time>
      </trkpt>
      <trkpt lat="45.79304" lon="4.72773">
        <ele>335.2243</ele>
        <time>2022-10-30T14:22:40.000Z</time>
      </trkpt>
      <trkpt lat="45.79301" lon="4.7278">
        <ele>334.85141</ele>
        <time>2022-10-30T14:22:41.000Z</time>
      </trkpt>
      <trkpt lat="45.79298" lon="4.72787">
        <ele>334.49643</ele>
        <time>2022-10-30T14:22:42.000Z</time>
      </trkpt>
      <trkpt lat="45.79295" lon="4.72793">
        <ele>334.2095</ele>
        <time>2022-10-30T14:22:43.000Z</time>
      </trkpt>
      <trkpt lat="45.79293" lon="4.72799">
        <ele>333.99911</ele>
        <time>2022-10-30T14:22:44.000Z</time>
      </trkpt>
      <trkpt lat="45.7929" lon="4.72804">
        <ele>333.80441</ele>
        <time>2022-10-30T14:22:45.000Z</time>
      </trkpt>
      <trkpt lat="45.79287" lon="4.7281">
        <ele>333.60193</ele>
        <time>2022-10-30T14:22:46.000Z</time>
      </trkpt>
      <trkpt lat="45.79285" lon="4.72815">
        <ele>333.47156</ele>
        <time>2022-10-30T14:22:47.000Z</time>
      </trkpt>
      <trkpt lat="45.79282" lon="4.7282">
        <ele>333.38571</ele>
        <time>2022-10-30T14:22:48.000Z</time>
      </trkpt>
      <trkpt lat="45.7928" lon="4.72824">
        <ele>333.28876</ele>
        <time>2022-10-30T14:22:49.000Z</time>
      </trkpt>
      <trkpt lat="45.79277" lon="4.7283">
        <ele>333.21863</ele>
        <time>2022-10-30T14:22:50.000Z</time>
      </trkpt>
      <trkpt lat="45.79276" lon="4.72835">
        <ele>333.20767</ele>
        <time>2022-10-30T14:22:51.000Z</time>
      </trkpt>
      <trkpt lat="45.79273" lon="4.7284">
        <ele>333.20541</ele>
        <time>2022-10-30T14:22:52.000Z</time>
      </trkpt>
      <trkpt lat="45.7927" lon="4.72844">
        <ele>333.2457</ele>
        <time>2022-10-30T14:22:53.000Z</time>
      </trkpt>
      <trkpt lat="45.79268" lon="4.72848">
        <ele>333.27219</ele>
        <time>2022-10-30T14:22:54.000Z</time>
      </trkpt>
      <trkpt lat="45.79266" lon="4.72852">
        <ele>333.30652</ele>
        <time>2022-10-30T14:22:55.000Z</time>
      </trkpt>
      <trkpt lat="45.79264" lon="4.72856">
        <ele>333.33026</ele>
        <time>2022-10-30T14:22:56.000Z</time>
      </trkpt>
      <trkpt lat="45.79262" lon="4.72859">
        <ele>333.422</ele>
        <time>2022-10-30T14:22:57.000Z</time>
      </trkpt>
      <trkpt lat="45.7926" lon="4.72863">
        <ele>333.51074</ele>
        <time>2022-10-30T14:22:58.000Z</time>
      </trkpt>
      <trkpt lat="45.79258" lon="4.72866">
        <ele>333.57098</ele>
        <time>2022-10-30T14:22:59.000Z</time>
      </trkpt>
      <trkpt lat="45.79257" lon="4.72871">
        <ele>333.59619</ele>
        <time>2022-10-30T14:23:00.000Z</time>
      </trkpt>
      <trkpt lat="45.79255" lon="4.72875">
        <ele>333.62424</ele>
        <time>2022-10-30T14:23:01.000Z</time>
      </trkpt>
      <trkpt lat="45.79252" lon="4.7288">
        <ele>333.6669</ele>
        <time>2022-10-30T14:23:02.000Z</time>
      </trkpt>
      <trkpt lat="45.7925" lon="4.72884">
        <ele>333.7348</ele>
        <time>2022-10-30T14:23:03.000Z</time>
      </trkpt>
      <trkpt lat="45.79248" lon="4.72887">
        <ele>333.7475</ele>
        <time>2022-10-30T14:23:04.000Z</time>
      </trkpt>
      <trkpt lat="45.79246" lon="4.72892">
        <ele>333.76508</ele>
        <time>2022-10-30T14:23:05.000Z</time>
      </trkpt>
      <trkpt lat="45.79244" lon="4.72896">
        <ele>333.76462</ele>
        <time>2022-10-30T14:23:06.000Z</time>
      </trkpt>
      <trkpt lat="45.79242" lon="4.72901">
        <ele>333.70782</ele>
        <time>2022-10-30T14:23:07.000Z</time>
      </trkpt>
      <trkpt lat="45.7924" lon="4.72905">
        <ele>333.69388</ele>
        <time>2022-10-30T14:23:08.000Z</time>
      </trkpt>
      <trkpt lat="45.79238" lon="4.72909">
        <ele>333.76114</ele>
        <time>2022-10-30T14:23:09.000Z</time>
      </trkpt>
      <trkpt lat="45.79235" lon="4.72914">
        <ele>333.78745</ele>
        <time>2022-10-30T14:23:10.000Z</time>
      </trkpt>
      <trkpt lat="45.79233" lon="4.72918">
        <ele>333.83594</ele>
        <time>2022-10-30T14:23:11.000Z</time>
      </trkpt>
      <trkpt lat="45.79231" lon="4.72922">
        <ele>333.85434</ele>
        <time>2022-10-30T14:23:12.000Z</time>
      </trkpt>
      <trkpt lat="45.79228" lon="4.72927">
        <ele>333.87128</ele>
        <time>2022-10-30T14:23:13.000Z</time>
      </trkpt>
      <trkpt lat="45.79226" lon="4.72932">
        <ele>333.89224</ele>
        <time>2022-10-30T14:23:14.000Z</time>
      </trkpt>
      <trkpt lat="45.79224" lon="4.72937">
        <ele>333.86823</ele>
        <time>2022-10-30T14:23:15.000Z</time>
      </trkpt>
      <trkpt lat="45.79221" lon="4.72942">
        <ele>333.86136</ele>
        <time>2022-10-30T14:23:16.000Z</time>
      </trkpt>
      <trkpt lat="45.79219" lon="4.72947">
        <ele>333.76694</ele>
        <time>2022-10-30T14:23:17.000Z</time>
      </trkpt>
      <trkpt lat="45.79217" lon="4.72952">
        <ele>333.68362</ele>
        <time>2022-10-30T14:23:18.000Z</time>
      </trkpt>
      <trkpt lat="45.79214" lon="4.72958">
        <ele>333.63312</ele>
        <time>2022-10-30T14:23:19.000Z</time>
      </trkpt>
      <trkpt lat="45.79211" lon="4.72963">
        <ele>333.62173</ele>
        <time>2022-10-30T14:23:20.000Z</time>
      </trkpt>
      <trkpt lat="45.79209" lon="4.72968">
        <ele>333.60336</ele>
        <time>2022-10-30T14:23:21.000Z</time>
      </trkpt>
      <trkpt lat="45.79207" lon="4.72972">
        <ele>333.58807</ele>
        <time>2022-10-30T14:23:22.000Z</time>
      </trkpt>
      <trkpt lat="45.79204" lon="4.72977">
        <ele>333.57318</ele>
        <time>2022-10-30T14:23:23.000Z</time>
      </trkpt>
      <trkpt lat="45.79202" lon="4.72982">
        <ele>333.56329</ele>
        <time>2022-10-30T14:23:24.000Z</time>
      </trkpt>
      <trkpt lat="45.79199" lon="4.72987">
        <ele>333.5256</ele>
        <time>2022-10-30T14:23:25.000Z</time>
      </trkpt>
      <trkpt lat="45.79197" lon="4.72992">
        <ele>333.47467</ele>
        <time>2022-10-30T14:23:26.000Z</time>
      </trkpt>
      <trkpt lat="45.79194" lon="4.72997">
        <ele>333.43582</ele>
        <time>2022-10-30T14:23:27.000Z</time>
      </trkpt>
      <trkpt lat="45.79192" lon="4.73002">
        <ele>333.31424</ele>
        <time>2022-10-30T14:23:28.000Z</time>
      </trkpt>
      <trkpt lat="45.79189" lon="4.73007">
        <ele>333.14624</ele>
        <time>2022-10-30T14:23:29.000Z</time>
      </trkpt>
      <trkpt lat="45.79187" lon="4.73012">
        <ele>332.91464</ele>
        <time>2022-10-30T14:23:30.000Z</time>
      </trkpt>
      <trkpt lat="45.79185" lon="4.73018">
        <ele>332.60553</ele>
        <time>2022-10-30T14:23:31.000Z</time>
      </trkpt>
      <trkpt lat="45.79183" lon="4.73024">
        <ele>332.32053</ele>
        <time>2022-10-30T14:23:32.000Z</time>
      </trkpt>
      <trkpt lat="45.79181" lon="4.7303">
        <ele>332.01285</ele>
        <time>2022-10-30T14:23:33.000Z</time>
      </trkpt>
      <trkpt lat="45.7918" lon="4.73037">
        <ele>331.72717</ele>
        <time>2022-10-30T14:23:34.000Z</time>
      </trkpt>
      <trkpt lat="45.79179" lon="4.73043">
        <ele>331.49332</ele>
        <time>2022-10-30T14:23:35.000Z</time>
      </trkpt>
      <trkpt lat="45.79179" lon="4.73049">
        <ele>331.24786</ele>
        <time>2022-10-30T14:23:36.000Z</time>
      </trkpt>
      <trkpt lat="45.79179" lon="4.73055">
        <ele>330.98895</ele>
        <time>2022-10-30T14:23:37.000Z</time>
      </trkpt>
      <trkpt lat="45.7918" lon="4.7306">
        <ele>330.67178</ele>
        <time>2022-10-30T14:23:38.000Z</time>
      </trkpt>
      <trkpt lat="45.7918" lon="4.73066">
        <ele>330.34665</ele>
        <time>2022-10-30T14:23:39.000Z</time>
      </trkpt>
      <trkpt lat="45.79182" lon="4.73072">
        <ele>330.01486</ele>
        <time>2022-10-30T14:23:40.000Z</time>
      </trkpt>
      <trkpt lat="45.79183" lon="4.73078">
        <ele>329.71149</ele>
        <time>2022-10-30T14:23:41.000Z</time>
      </trkpt>
      <trkpt lat="45.79185" lon="4.73084">
        <ele>329.4003</ele>
        <time>2022-10-30T14:23:42.000Z</time>
      </trkpt>
      <trkpt lat="45.79187" lon="4.73091">
        <ele>329.02008</ele>
        <time>2022-10-30T14:23:43.000Z</time>
      </trkpt>
      <trkpt lat="45.79189" lon="4.73099">
        <ele>328.64532</ele>
        <time>2022-10-30T14:23:44.000Z</time>
      </trkpt>
      <trkpt lat="45.79191" lon="4.73104">
        <ele>328.2644</ele>
        <time>2022-10-30T14:23:45.000Z</time>
      </trkpt>
      <trkpt lat="45.79193" lon="4.73112">
        <ele>327.91812</ele>
        <time>2022-10-30T14:23:46.000Z</time>
      </trkpt>
      <trkpt lat="45.79195" lon="4.73119">
        <ele>327.54529</ele>
        <time>2022-10-30T14:23:47.000Z</time>
      </trkpt>
      <trkpt lat="45.79197" lon="4.73125">
        <ele>327.2095</ele>
        <time>2022-10-30T14:23:48.000Z</time>
      </trkpt>
      <trkpt lat="45.79198" lon="4.73131">
        <ele>326.87451</ele>
        <time>2022-10-30T14:23:49.000Z</time>
      </trkpt>
      <trkpt lat="45.792" lon="4.73138">
        <ele>326.62781</ele>
        <time>2022-10-30T14:23:50.000Z</time>
      </trkpt>
      <trkpt lat="45.79201" lon="4.73145">
        <ele>326.3844</ele>
        <time>2022-10-30T14:23:51.000Z</time>
      </trkpt>
      <trkpt lat="45.79202" lon="4.73152">
        <ele>326.13837</ele>
        <time>2022-10-30T14:23:52.000Z</time>
      </trkpt>
      <trkpt lat="45.79202" lon="4.7316">
        <ele>325.87372</ele>
        <time>2022-10-30T14:23:53.000Z</time>
      </trkpt>
      <trkpt lat="45.79201" lon="4.73168">
        <ele>325.61456</ele>
        <time>2022-10-30T14:23:54.000Z</time>
      </trkpt>
      <trkpt lat="45.79199" lon="4.73175">
        <ele>325.31042</ele>
        <time>2022-10-30T14:23:55.000Z</time>
      </trkpt>
      <trkpt lat="45.79197" lon="4.73183">
        <ele>324.96442</ele>
        <time>2022-10-30T14:23:56.000Z</time>
      </trkpt>
      <trkpt lat="45.79193" lon="4.73189">
        <ele>324.61847</ele>
        <time>2022-10-30T14:23:57.000Z</time>
      </trkpt>
      <trkpt lat="45.79189" lon="4.73196">
        <ele>324.27359</ele>
        <time>2022-10-30T14:23:58.000Z</time>
      </trkpt>
      <trkpt lat="45.79185" lon="4.73201">
        <ele>323.91241</ele>
        <time>2022-10-30T14:23:59.000Z</time>
      </trkpt>
      <trkpt lat="45.7918" lon="4.73205">
        <ele>323.51938</ele>
        <time>2022-10-30T14:24:00.000Z</time>
      </trkpt>
      <trkpt lat="45.79175" lon="4.73209">
        <ele>323.10419</ele>
        <time>2022-10-30T14:24:01.000Z</time>
      </trkpt>
      <trkpt lat="45.7917" lon="4.73213">
        <ele>322.69131</ele>
        <time>2022-10-30T14:24:02.000Z</time>
      </trkpt>
      <trkpt lat="45.79164" lon="4.73216">
        <ele>322.26651</ele>
        <time>2022-10-30T14:24:03.000Z</time>
      </trkpt>
      <trkpt lat="45.79157" lon="4.73219">
        <ele>321.82498</ele>
        <time>2022-10-30T14:24:04.000Z</time>
      </trkpt>
      <trkpt lat="45.7915" lon="4.73223">
        <ele>321.3985</ele>
        <time>2022-10-30T14:24:05.000Z</time>
      </trkpt>
      <trkpt lat="45.79143" lon="4.73225">
        <ele>320.93115</ele>
        <time>2022-10-30T14:24:06.000Z</time>
      </trkpt>
      <trkpt lat="45.79136" lon="4.73229">
        <ele>320.46826</ele>
        <time>2022-10-30T14:24:07.000Z</time>
      </trkpt>
      <trkpt lat="45.7913" lon="4.73231">
        <ele>320.00739</ele>
        <time>2022-10-30T14:24:08.000Z</time>
      </trkpt>
      <trkpt lat="45.79124" lon="4.73235">
        <ele>319.539</ele>
        <time>2022-10-30T14:24:09.000Z</time>
      </trkpt>
      <trkpt lat="45.79118" lon="4.73237">
        <ele>319.02594</ele>
        <time>2022-10-30T14:24:10.000Z</time>
      </trkpt>
      <trkpt lat="45.79111" lon="4.7324">
        <ele>318.53818</ele>
        <time>2022-10-30T14:24:11.000Z</time>
      </trkpt>
      <trkpt lat="45.79106" lon="4.73241">
        <ele>318.06784</ele>
        <time>2022-10-30T14:24:12.000Z</time>
      </trkpt>
      <trkpt lat="45.79099" lon="4.73242">
        <ele>317.5899</ele>
        <time>2022-10-30T14:24:13.000Z</time>
      </trkpt>
      <trkpt lat="45.79093" lon="4.73241">
        <ele>317.07172</ele>
        <time>2022-10-30T14:24:14.000Z</time>
      </trkpt>
      <trkpt lat="45.79087" lon="4.73238">
        <ele>316.55511</ele>
        <time>2022-10-30T14:24:15.000Z</time>
      </trkpt>
      <trkpt lat="45.7908" lon="4.73234">
        <ele>316.01477</ele>
        <time>2022-10-30T14:24:16.000Z</time>
      </trkpt>
      <trkpt lat="45.79073" lon="4.7323">
        <ele>315.49081</ele>
        <time>2022-10-30T14:24:17.000Z</time>
      </trkpt>
      <trkpt lat="45.79065" lon="4.73226">
        <ele>314.97339</ele>
        <time>2022-10-30T14:24:18.000Z</time>
      </trkpt>
      <trkpt lat="45.79057" lon="4.73223">
        <ele>314.45267</ele>
        <time>2022-10-30T14:24:19.000Z</time>
      </trkpt>
      <trkpt lat="45.79049" lon="4.73221">
        <ele>313.94162</ele>
        <time>2022-10-30T14:24:20.000Z</time>
      </trkpt>
      <trkpt lat="45.79041" lon="4.73219">
        <ele>313.42874</ele>
        <time>2022-10-30T14:24:21.000Z</time>
      </trkpt>
      <trkpt lat="45.79032" lon="4.73217">
        <ele>312.85986</ele>
        <time>2022-10-30T14:24:22.000Z</time>
      </trkpt>
      <trkpt lat="45.79024" lon="4.73215">
        <ele>312.32233</ele>
        <time>2022-10-30T14:24:23.000Z</time>
      </trkpt>
      <trkpt lat="45.79016" lon="4.73213">
        <ele>311.77951</ele>
        <time>2022-10-30T14:24:24.000Z</time>
      </trkpt>
      <trkpt lat="45.79008" lon="4.73211">
        <ele>311.25607</ele>
        <time>2022-10-30T14:24:25.000Z</time>
      </trkpt>
      <trkpt lat="45.79001" lon="4.7321">
        <ele>310.75943</ele>
        <time>2022-10-30T14:24:26.000Z</time>
      </trkpt>
      <trkpt lat="45.78993" lon="4.73209">
        <ele>310.24643</ele>
        <time>2022-10-30T14:24:27.000Z</time>
      </trkpt>
      <trkpt lat="45.78986" lon="4.73208">
        <ele>309.69879</ele>
        <time>2022-10-30T14:24:28.000Z</time>
      </trkpt>
      <trkpt lat="45.78977" lon="4.73206">
        <ele>309.15274</ele>
        <time>2022-10-30T14:24:29.000Z</time>
      </trkpt>
      <trkpt lat="45.78969" lon="4.73205">
        <ele>308.60199</ele>
        <time>2022-10-30T14:24:30.000Z</time>
      </trkpt>
      <trkpt lat="45.78962" lon="4.73204">
        <ele>308.03525</ele>
        <time>2022-10-30T14:24:31.000Z</time>
      </trkpt>
      <trkpt lat="45.78954" lon="4.73203">
        <ele>307.42065</ele>
        <time>2022-10-30T14:24:32.000Z</time>
      </trkpt>
      <trkpt lat="45.78947" lon="4.73202">
        <ele>306.79584</ele>
        <time>2022-10-30T14:24:33.000Z</time>
      </trkpt>
      <trkpt lat="45.78939" lon="4.73201">
        <ele>306.20721</ele>
        <time>2022-10-30T14:24:34.000Z</time>
      </trkpt>
      <trkpt lat="45.78933" lon="4.732">
        <ele>305.57745</ele>
        <time>2022-10-30T14:24:35.000Z</time>
      </trkpt>
      <trkpt lat="45.78927" lon="4.73199">
        <ele>304.98911</ele>
        <time>2022-10-30T14:24:36.000Z</time>
      </trkpt>
      <trkpt lat="45.78922" lon="4.73197">
        <ele>304.42987</ele>
        <time>2022-10-30T14:24:37.000Z</time>
      </trkpt>
      <trkpt lat="45.78916" lon="4.73197">
        <ele>303.86194</ele>
        <time>2022-10-30T14:24:38.000Z</time>
      </trkpt>
      <trkpt lat="45.78912" lon="4.73196">
        <ele>303.27869</ele>
        <time>2022-10-30T14:24:39.000Z</time>
      </trkpt>
      <trkpt lat="45.78907" lon="4.73196">
        <ele>302.71323</ele>
        <time>2022-10-30T14:24:40.000Z</time>
      </trkpt>
      <trkpt lat="45.78902" lon="4.73196">
        <ele>302.15213</ele>
        <time>2022-10-30T14:24:41.000Z</time>
      </trkpt>
      <trkpt lat="45.78898" lon="4.73196">
        <ele>301.63174</ele>
        <time>2022-10-30T14:24:42.000Z</time>
      </trkpt>
      <trkpt lat="45.78894" lon="4.73195">
        <ele>301.11536</ele>
        <time>2022-10-30T14:24:43.000Z</time>
      </trkpt>
      <trkpt lat="45.7889" lon="4.73196">
        <ele>300.62363</ele>
        <time>2022-10-30T14:24:44.000Z</time>
      </trkpt>
      <trkpt lat="45.78887" lon="4.73196">
        <ele>300.10519</ele>
        <time>2022-10-30T14:24:45.000Z</time>
      </trkpt>
      <trkpt lat="45.78884" lon="4.73197">
        <ele>299.56995</ele>
        <time>2022-10-30T14:24:46.000Z</time>
      </trkpt>
      <trkpt lat="45.78881" lon="4.73198">
        <ele>299.05045</ele>
        <time>2022-10-30T14:24:47.000Z</time>
      </trkpt>
      <trkpt lat="45.78878" lon="4.732">
        <ele>298.54211</ele>
        <time>2022-10-30T14:24:48.000Z</time>
      </trkpt>
      <trkpt lat="45.78875" lon="4.73202">
        <ele>298.02487</ele>
        <time>2022-10-30T14:24:49.000Z</time>
      </trkpt>
      <trkpt lat="45.78872" lon="4.73205">
        <ele>297.5141</ele>
        <time>2022-10-30T14:24:50.000Z</time>
      </trkpt>
      <trkpt lat="45.7887" lon="4.73207">
        <ele>296.97467</ele>
        <time>2022-10-30T14:24:51.000Z</time>
      </trkpt>
      <trkpt lat="45.78868" lon="4.7321">
        <ele>296.47748</ele>
        <time>2022-10-30T14:24:52.000Z</time>
      </trkpt>
      <trkpt lat="45.78865" lon="4.73212">
        <ele>296.02719</ele>
        <time>2022-10-30T14:24:53.000Z</time>
      </trkpt>
      <trkpt lat="45.78864" lon="4.73215">
        <ele>295.58405</ele>
        <time>2022-10-30T14:24:54.000Z</time>
      </trkpt>
      <trkpt lat="45.78863" lon="4.73217">
        <ele>295.22568</ele>
        <time>2022-10-30T14:24:55.000Z</time>
      </trkpt>
      <trkpt lat="45.78862" lon="4.73219">
        <ele>294.83575</ele>
        <time>2022-10-30T14:25:05.000Z</time>
      </trkpt>
      <trkpt lat="45.7886" lon="4.73218">
        <ele>294.40118</ele>
        <time>2022-10-30T14:25:44.000Z</time>
      </trkpt>
      <trkpt lat="45.78859" lon="4.73214">
        <ele>294.00958</ele>
        <time>2022-10-30T14:25:46.000Z</time>
      </trkpt>
      <trkpt lat="45.78855" lon="4.73211">
        <ele>293.74957</ele>
        <time>2022-10-30T14:25:49.000Z</time>
      </trkpt>
      <trkpt lat="45.78852" lon="4.73208">
        <ele>293.51117</ele>
        <time>2022-10-30T14:25:50.000Z</time>
      </trkpt>
      <trkpt lat="45.7885" lon="4.73207">
        <ele>293.29568</ele>
        <time>2022-10-30T14:25:51.000Z</time>
      </trkpt>
      <trkpt lat="45.78848" lon="4.73205">
        <ele>293.10663</ele>
        <time>2022-10-30T14:25:52.000Z</time>
      </trkpt>
      <trkpt lat="45.78846" lon="4.73205">
        <ele>292.94128</ele>
        <time>2022-10-30T14:26:04.000Z</time>
      </trkpt>
      <trkpt lat="45.78844" lon="4.73206">
        <ele>292.77536</ele>
        <time>2022-10-30T14:26:05.000Z</time>
      </trkpt>
      <trkpt lat="45.78842" lon="4.73207">
        <ele>292.67511</ele>
        <time>2022-10-30T14:26:06.000Z</time>
      </trkpt>
      <trkpt lat="45.78839" lon="4.73207">
        <ele>292.57431</ele>
        <time>2022-10-30T14:26:07.000Z</time>
      </trkpt>
      <trkpt lat="45.78836" lon="4.73208">
        <ele>292.48083</ele>
        <time>2022-10-30T14:26:08.000Z</time>
      </trkpt>
      <trkpt lat="45.78833" lon="4.7321">
        <ele>292.44916</ele>
        <time>2022-10-30T14:26:09.000Z</time>
      </trkpt>
      <trkpt lat="45.7883" lon="4.73212">
        <ele>292.44904</ele>
        <time>2022-10-30T14:26:10.000Z</time>
      </trkpt>
      <trkpt lat="45.78827" lon="4.73214">
        <ele>292.48492</ele>
        <time>2022-10-30T14:26:11.000Z</time>
      </trkpt>
      <trkpt lat="45.78824" lon="4.73217">
        <ele>292.617</ele>
        <time>2022-10-30T14:26:12.000Z</time>
      </trkpt>
      <trkpt lat="45.78822" lon="4.73221">
        <ele>292.7648</ele>
        <time>2022-10-30T14:26:13.000Z</time>
      </trkpt>
      <trkpt lat="45.7882" lon="4.73225">
        <ele>292.89893</ele>
        <time>2022-10-30T14:26:14.000Z</time>
      </trkpt>
      <trkpt lat="45.78819" lon="4.73229">
        <ele>293.04825</ele>
        <time>2022-10-30T14:26:15.000Z</time>
      </trkpt>
      <trkpt lat="45.78818" lon="4.73233">
        <ele>293.14777</ele>
        <time>2022-10-30T14:26:16.000Z</time>
      </trkpt>
      <trkpt lat="45.78817" lon="4.73237">
        <ele>293.23001</ele>
        <time>2022-10-30T14:26:17.000Z</time>
      </trkpt>
      <trkpt lat="45.78815" lon="4.73239">
        <ele>293.37863</ele>
        <time>2022-10-30T14:26:18.000Z</time>
      </trkpt>
      <trkpt lat="45.78813" lon="4.73239">
        <ele>293.53571</ele>
        <time>2022-10-30T14:26:19.000Z</time>
      </trkpt>
      <trkpt lat="45.78811" lon="4.73238">
        <ele>293.59979</ele>
        <time>2022-10-30T14:26:20.000Z</time>
      </trkpt>
      <trkpt lat="45.78808" lon="4.73238">
        <ele>293.66568</ele>
        <time>2022-10-30T14:26:21.000Z</time>
      </trkpt>
      <trkpt lat="45.78805" lon="4.73238">
        <ele>293.71246</ele>
        <time>2022-10-30T14:26:22.000Z</time>
      </trkpt>
      <trkpt lat="45.78801" lon="4.73238">
        <ele>293.74774</ele>
        <time>2022-10-30T14:26:23.000Z</time>
      </trkpt>
      <trkpt lat="45.78798" lon="4.73238">
        <ele>293.83417</ele>
        <time>2022-10-30T14:26:24.000Z</time>
      </trkpt>
      <trkpt lat="45.78794" lon="4.73237">
        <ele>293.92404</ele>
        <time>2022-10-30T14:26:25.000Z</time>
      </trkpt>
      <trkpt lat="45.7879" lon="4.73237">
        <ele>293.96246</ele>
        <time>2022-10-30T14:26:26.000Z</time>
      </trkpt>
      <trkpt lat="45.78786" lon="4.73236">
        <ele>294.0249</ele>
        <time>2022-10-30T14:26:27.000Z</time>
      </trkpt>
      <trkpt lat="45.78782" lon="4.73236">
        <ele>294.14346</ele>
        <time>2022-10-30T14:26:28.000Z</time>
      </trkpt>
      <trkpt lat="45.78779" lon="4.73235">
        <ele>294.19711</ele>
        <time>2022-10-30T14:26:29.000Z</time>
      </trkpt>
      <trkpt lat="45.78775" lon="4.73234">
        <ele>294.27182</ele>
        <time>2022-10-30T14:26:30.000Z</time>
      </trkpt>
      <trkpt lat="45.78771" lon="4.73234">
        <ele>294.29321</ele>
        <time>2022-10-30T14:26:31.000Z</time>
      </trkpt>
      <trkpt lat="45.78768" lon="4.73233">
        <ele>294.29086</ele>
        <time>2022-10-30T14:26:32.000Z</time>
      </trkpt>
      <trkpt lat="45.78764" lon="4.73233">
        <ele>294.24091</ele>
        <time>2022-10-30T14:26:33.000Z</time>
      </trkpt>
      <trkpt lat="45.78761" lon="4.73233">
        <ele>294.18988</ele>
        <time>2022-10-30T14:26:34.000Z</time>
      </trkpt>
      <trkpt lat="45.78758" lon="4.73232">
        <ele>294.11197</ele>
        <time>2022-10-30T14:26:35.000Z</time>
      </trkpt>
      <trkpt lat="45.78755" lon="4.73232">
        <ele>294.07797</ele>
        <time>2022-10-30T14:26:36.000Z</time>
      </trkpt>
      <trkpt lat="45.78753" lon="4.73233">
        <ele>294.09369</ele>
        <time>2022-10-30T14:26:37.000Z</time>
      </trkpt>
      <trkpt lat="45.78751" lon="4.73234">
        <ele>294.10434</ele>
        <time>2022-10-30T14:26:38.000Z</time>
      </trkpt>
      <trkpt lat="45.78749" lon="4.73234">
        <ele>294.06747</ele>
        <time>2022-10-30T14:26:39.000Z</time>
      </trkpt>
      <trkpt lat="45.78746" lon="4.73235">
        <ele>294.03748</ele>
        <time>2022-10-30T14:26:40.000Z</time>
      </trkpt>
      <trkpt lat="45.78743" lon="4.73235">
        <ele>293.99973</ele>
        <time>2022-10-30T14:26:41.000Z</time>
      </trkpt>
      <trkpt lat="45.7874" lon="4.73235">
        <ele>293.96198</ele>
        <time>2022-10-30T14:26:42.000Z</time>
      </trkpt>
      <trkpt lat="45.78737" lon="4.73236">
        <ele>293.93768</ele>
        <time>2022-10-30T14:26:43.000Z</time>
      </trkpt>
      <trkpt lat="45.78735" lon="4.73236">
        <ele>293.91611</ele>
        <time>2022-10-30T14:26:44.000Z</time>
      </trkpt>
      <trkpt lat="45.78732" lon="4.73237">
        <ele>293.8913</ele>
        <time>2022-10-30T14:26:45.000Z</time>
      </trkpt>
      <trkpt lat="45.78729" lon="4.73238">
        <ele>293.88824</ele>
        <time>2022-10-30T14:26:46.000Z</time>
      </trkpt>
      <trkpt lat="45.78725" lon="4.73238">
        <ele>293.85178</ele>
        <time>2022-10-30T14:26:47.000Z</time>
      </trkpt>
      <trkpt lat="45.78722" lon="4.7324">
        <ele>293.81573</ele>
        <time>2022-10-30T14:26:48.000Z</time>
      </trkpt>
      <trkpt lat="45.78719" lon="4.73242">
        <ele>293.83047</ele>
        <time>2022-10-30T14:26:49.000Z</time>
      </trkpt>
      <trkpt lat="45.78716" lon="4.73245">
        <ele>293.81677</ele>
        <time>2022-10-30T14:26:50.000Z</time>
      </trkpt>
      <trkpt lat="45.78713" lon="4.73247">
        <ele>293.78348</ele>
        <time>2022-10-30T14:26:51.000Z</time>
      </trkpt>
      <trkpt lat="45.7871" lon="4.73249">
        <ele>293.75467</ele>
        <time>2022-10-30T14:26:52.000Z</time>
      </trkpt>
      <trkpt lat="45.78707" lon="4.73252">
        <ele>293.73956</ele>
        <time>2022-10-30T14:26:53.000Z</time>
      </trkpt>
      <trkpt lat="45.78704" lon="4.73254">
        <ele>293.71259</ele>
        <time>2022-10-30T14:26:54.000Z</time>
      </trkpt>
      <trkpt lat="45.78701" lon="4.73256">
        <ele>293.72156</ele>
        <time>2022-10-30T14:26:55.000Z</time>
      </trkpt>
      <trkpt lat="45.78699" lon="4.73258">
        <ele>293.72089</ele>
        <time>2022-10-30T14:26:56.000Z</time>
      </trkpt>
      <trkpt lat="45.78696" lon="4.7326">
        <ele>293.6861</ele>
        <time>2022-10-30T14:26:57.000Z</time>
      </trkpt>
      <trkpt lat="45.78694" lon="4.73262">
        <ele>293.60211</ele>
        <time>2022-10-30T14:26:58.000Z</time>
      </trkpt>
      <trkpt lat="45.78692" lon="4.73265">
        <ele>293.52896</ele>
        <time>2022-10-30T14:26:59.000Z</time>
      </trkpt>
      <trkpt lat="45.78689" lon="4.73267">
        <ele>293.44009</ele>
        <time>2022-10-30T14:27:00.000Z</time>
      </trkpt>
      <trkpt lat="45.78687" lon="4.7327">
        <ele>293.38147</ele>
        <time>2022-10-30T14:27:01.000Z</time>
      </trkpt>
      <trkpt lat="45.78684" lon="4.73274">
        <ele>293.37125</ele>
        <time>2022-10-30T14:27:02.000Z</time>
      </trkpt>
      <trkpt lat="45.78681" lon="4.73277">
        <ele>293.29999</ele>
        <time>2022-10-30T14:27:03.000Z</time>
      </trkpt>
      <trkpt lat="45.78678" lon="4.73281">
        <ele>293.18271</ele>
        <time>2022-10-30T14:27:04.000Z</time>
      </trkpt>
      <trkpt lat="45.78676" lon="4.73284">
        <ele>293.09378</ele>
        <time>2022-10-30T14:27:05.000Z</time>
      </trkpt>
      <trkpt lat="45.78674" lon="4.73286">
        <ele>292.97577</ele>
        <time>2022-10-30T14:27:06.000Z</time>
      </trkpt>
      <trkpt lat="45.78672" lon="4.73289">
        <ele>292.87842</ele>
        <time>2022-10-30T14:27:07.000Z</time>
      </trkpt>
      <trkpt lat="45.7867" lon="4.73291">
        <ele>292.76773</ele>
        <time>2022-10-30T14:27:08.000Z</time>
      </trkpt>
      <trkpt lat="45.78667" lon="4.73294">
        <ele>292.6095</ele>
        <time>2022-10-30T14:27:09.000Z</time>
      </trkpt>
      <trkpt lat="45.78665" lon="4.73297">
        <ele>292.4588</ele>
        <time>2022-10-30T14:27:10.000Z</time>
      </trkpt>
      <trkpt lat="45.78662" lon="4.73301">
        <ele>292.33081</ele>
        <time>2022-10-30T14:27:11.000Z</time>
      </trkpt>
      <trkpt lat="45.78659" lon="4.73304">
        <ele>292.16364</ele>
        <time>2022-10-30T14:27:12.000Z</time>
      </trkpt>
      <trkpt lat="45.78656" lon="4.73309">
        <ele>292.02527</ele>
        <time>2022-10-30T14:27:13.000Z</time>
      </trkpt>
      <trkpt lat="45.78651" lon="4.73314">
        <ele>291.93002</ele>
        <time>2022-10-30T14:27:14.000Z</time>
      </trkpt>
      <trkpt lat="45.78647" lon="4.73319">
        <ele>291.82089</ele>
        <time>2022-10-30T14:27:15.000Z</time>
      </trkpt>
      <trkpt lat="45.78644" lon="4.73324">
        <ele>291.73154</ele>
        <time>2022-10-30T14:27:16.000Z</time>
      </trkpt>
      <trkpt lat="45.78641" lon="4.73331">
        <ele>291.68988</ele>
        <time>2022-10-30T14:27:17.000Z</time>
      </trkpt>
      <trkpt lat="45.78638" lon="4.73336">
        <ele>291.63998</ele>
        <time>2022-10-30T14:27:18.000Z</time>
      </trkpt>
      <trkpt lat="45.78635" lon="4.7334">
        <ele>291.57443</ele>
        <time>2022-10-30T14:27:19.000Z</time>
      </trkpt>
      <trkpt lat="45.78632" lon="4.73346">
        <ele>291.46741</ele>
        <time>2022-10-30T14:27:20.000Z</time>
      </trkpt>
      <trkpt lat="45.78628" lon="4.73351">
        <ele>291.3483</ele>
        <time>2022-10-30T14:27:21.000Z</time>
      </trkpt>
      <trkpt lat="45.78625" lon="4.73356">
        <ele>291.17868</ele>
        <time>2022-10-30T14:27:22.000Z</time>
      </trkpt>
      <trkpt lat="45.78621" lon="4.73362">
        <ele>291.0542</ele>
        <time>2022-10-30T14:27:23.000Z</time>
      </trkpt>
      <trkpt lat="45.78617" lon="4.73367">
        <ele>290.90399</ele>
        <time>2022-10-30T14:27:24.000Z</time>
      </trkpt>
      <trkpt lat="45.78614" lon="4.73373">
        <ele>290.69949</ele>
        <time>2022-10-30T14:27:25.000Z</time>
      </trkpt>
      <trkpt lat="45.7861" lon="4.73379">
        <ele>290.50079</ele>
        <time>2022-10-30T14:27:26.000Z</time>
      </trkpt>
      <trkpt lat="45.78606" lon="4.73384">
        <ele>290.30557</ele>
        <time>2022-10-30T14:27:27.000Z</time>
      </trkpt>
      <trkpt lat="45.78602" lon="4.73391">
        <ele>290.07632</ele>
        <time>2022-10-30T14:27:28.000Z</time>
      </trkpt>
      <trkpt lat="45.78598" lon="4.73398">
        <ele>289.87732</ele>
        <time>2022-10-30T14:27:29.000Z</time>
      </trkpt>
      <trkpt lat="45.78594" lon="4.73405">
        <ele>289.69406</ele>
        <time>2022-10-30T14:27:30.000Z</time>
      </trkpt>
      <trkpt lat="45.78589" lon="4.73412">
        <ele>289.52557</ele>
        <time>2022-10-30T14:27:31.000Z</time>
      </trkpt>
      <trkpt lat="45.78585" lon="4.73419">
        <ele>289.28436</ele>
        <time>2022-10-30T14:27:32.000Z</time>
      </trkpt>
      <trkpt lat="45.78582" lon="4.73425">
        <ele>289.03311</ele>
        <time>2022-10-30T14:27:33.000Z</time>
      </trkpt>
      <trkpt lat="45.78578" lon="4.73432">
        <ele>288.72394</ele>
        <time>2022-10-30T14:27:34.000Z</time>
      </trkpt>
      <trkpt lat="45.78576" lon="4.73437">
        <ele>288.40414</ele>
        <time>2022-10-30T14:27:35.000Z</time>
      </trkpt>
      <trkpt lat="45.78572" lon="4.73441">
        <ele>288.03339</ele>
        <time>2022-10-30T14:27:36.000Z</time>
      </trkpt>
      <trkpt lat="45.78568" lon="4.73445">
        <ele>287.59045</ele>
        <time>2022-10-30T14:27:37.000Z</time>
      </trkpt>
      <trkpt lat="45.78565" lon="4.73446">
        <ele>287.08612</ele>
        <time>2022-10-30T14:27:38.000Z</time>
      </trkpt>
      <trkpt lat="45.78561" lon="4.73445">
        <ele>286.59274</ele>
        <time>2022-10-30T14:27:39.000Z</time>
      </trkpt>
      <trkpt lat="45.78558" lon="4.73444">
        <ele>286.11261</ele>
        <time>2022-10-30T14:27:40.000Z</time>
      </trkpt>
      <trkpt lat="45.78556" lon="4.73443">
        <ele>285.63101</ele>
        <time>2022-10-30T14:27:41.000Z</time>
      </trkpt>
      <trkpt lat="45.78553" lon="4.7344">
        <ele>285.13861</ele>
        <time>2022-10-30T14:27:42.000Z</time>
      </trkpt>
      <trkpt lat="45.7855" lon="4.73437">
        <ele>284.68503</ele>
        <time>2022-10-30T14:27:43.000Z</time>
      </trkpt>
      <trkpt lat="45.78547" lon="4.73433">
        <ele>284.27789</ele>
        <time>2022-10-30T14:27:44.000Z</time>
      </trkpt>
      <trkpt lat="45.78544" lon="4.7343">
        <ele>283.91693</ele>
        <time>2022-10-30T14:27:45.000Z</time>
      </trkpt>
      <trkpt lat="45.78541" lon="4.73427">
        <ele>283.565</ele>
        <time>2022-10-30T14:27:46.000Z</time>
      </trkpt>
      <trkpt lat="45.78539" lon="4.73425">
        <ele>283.17596</ele>
        <time>2022-10-30T14:27:47.000Z</time>
      </trkpt>
      <trkpt lat="45.78536" lon="4.73422">
        <ele>282.84558</ele>
        <time>2022-10-30T14:27:48.000Z</time>
      </trkpt>
      <trkpt lat="45.78533" lon="4.7342">
        <ele>282.56448</ele>
        <time>2022-10-30T14:27:49.000Z</time>
      </trkpt>
      <trkpt lat="45.7853" lon="4.73416">
        <ele>282.27936</ele>
        <time>2022-10-30T14:27:50.000Z</time>
      </trkpt>
      <trkpt lat="45.78527" lon="4.73413">
        <ele>282.07895</ele>
        <time>2022-10-30T14:27:51.000Z</time>
      </trkpt>
      <trkpt lat="45.78524" lon="4.73409">
        <ele>281.99292</ele>
        <time>2022-10-30T14:27:52.000Z</time>
      </trkpt>
      <trkpt lat="45.78521" lon="4.73406">
        <ele>281.91327</ele>
        <time>2022-10-30T14:27:53.000Z</time>
      </trkpt>
      <trkpt lat="45.78518" lon="4.73402">
        <ele>281.83957</ele>
        <time>2022-10-30T14:27:54.000Z</time>
      </trkpt>
      <trkpt lat="45.78515" lon="4.73398">
        <ele>281.76413</ele>
        <time>2022-10-30T14:27:55.000Z</time>
      </trkpt>
      <trkpt lat="45.78513" lon="4.73395">
        <ele>281.73956</ele>
        <time>2022-10-30T14:27:56.000Z</time>
      </trkpt>
      <trkpt lat="45.78511" lon="4.73392">
        <ele>281.7486</ele>
        <time>2022-10-30T14:27:57.000Z</time>
      </trkpt>
      <trkpt lat="45.7851" lon="4.73389">
        <ele>281.86096</ele>
        <time>2022-10-30T14:27:58.000Z</time>
      </trkpt>
      <trkpt lat="45.78507" lon="4.73385">
        <ele>282.03223</ele>
        <time>2022-10-30T14:28:00.000Z</time>
      </trkpt>
      <trkpt lat="45.78506" lon="4.73381">
        <ele>282.27396</ele>
        <time>2022-10-30T14:28:01.000Z</time>
      </trkpt>
      <trkpt lat="45.78504" lon="4.73377">
        <ele>282.57446</ele>
        <time>2022-10-30T14:28:02.000Z</time>
      </trkpt>
      <trkpt lat="45.78503" lon="4.73373">
        <ele>282.9212</ele>
        <time>2022-10-30T14:28:03.000Z</time>
      </trkpt>
      <trkpt lat="45.78502" lon="4.7337">
        <ele>283.24274</ele>
        <time>2022-10-30T14:28:04.000Z</time>
      </trkpt>
      <trkpt lat="45.785" lon="4.73366">
        <ele>283.53027</ele>
        <time>2022-10-30T14:28:05.000Z</time>
      </trkpt>
      <trkpt lat="45.78498" lon="4.73363">
        <ele>283.7923</ele>
        <time>2022-10-30T14:28:06.000Z</time>
      </trkpt>
      <trkpt lat="45.78496" lon="4.7336">
        <ele>284.08847</ele>
        <time>2022-10-30T14:28:07.000Z</time>
      </trkpt>
      <trkpt lat="45.78495" lon="4.73356">
        <ele>284.4483</ele>
        <time>2022-10-30T14:28:08.000Z</time>
      </trkpt>
      <trkpt lat="45.78494" lon="4.73351">
        <ele>284.81061</ele>
        <time>2022-10-30T14:28:09.000Z</time>
      </trkpt>
      <trkpt lat="45.78492" lon="4.73346">
        <ele>285.08597</ele>
        <time>2022-10-30T14:28:10.000Z</time>
      </trkpt>
      <trkpt lat="45.7849" lon="4.73341">
        <ele>285.34775</ele>
        <time>2022-10-30T14:28:11.000Z</time>
      </trkpt>
      <trkpt lat="45.78489" lon="4.73336">
        <ele>285.55331</ele>
        <time>2022-10-30T14:28:12.000Z</time>
      </trkpt>
      <trkpt lat="45.78487" lon="4.73331">
        <ele>285.74707</ele>
        <time>2022-10-30T14:28:13.000Z</time>
      </trkpt>
      <trkpt lat="45.78486" lon="4.73326">
        <ele>285.93167</ele>
        <time>2022-10-30T14:28:14.000Z</time>
      </trkpt>
      <trkpt lat="45.78484" lon="4.73322">
        <ele>286.18735</ele>
        <time>2022-10-30T14:28:15.000Z</time>
      </trkpt>
      <trkpt lat="45.78482" lon="4.73317">
        <ele>286.46997</ele>
        <time>2022-10-30T14:28:16.000Z</time>
      </trkpt>
      <trkpt lat="45.7848" lon="4.73313">
        <ele>286.73285</ele>
        <time>2022-10-30T14:28:17.000Z</time>
      </trkpt>
      <trkpt lat="45.78478" lon="4.73308">
        <ele>287.03995</ele>
        <time>2022-10-30T14:28:18.000Z</time>
      </trkpt>
      <trkpt lat="45.78477" lon="4.73304">
        <ele>287.34613</ele>
        <time>2022-10-30T14:28:19.000Z</time>
      </trkpt>
      <trkpt lat="45.78475" lon="4.73299">
        <ele>287.65952</ele>
        <time>2022-10-30T14:28:20.000Z</time>
      </trkpt>
      <trkpt lat="45.78473" lon="4.73294">
        <ele>287.91727</ele>
        <time>2022-10-30T14:28:21.000Z</time>
      </trkpt>
      <trkpt lat="45.78472" lon="4.7329">
        <ele>288.15063</ele>
        <time>2022-10-30T14:28:22.000Z</time>
      </trkpt>
      <trkpt lat="45.78471" lon="4.73285">
        <ele>288.39096</ele>
        <time>2022-10-30T14:28:23.000Z</time>
      </trkpt>
      <trkpt lat="45.7847" lon="4.7328">
        <ele>288.67212</ele>
        <time>2022-10-30T14:28:24.000Z</time>
      </trkpt>
      <trkpt lat="45.78468" lon="4.73275">
        <ele>288.95563</ele>
        <time>2022-10-30T14:28:25.000Z</time>
      </trkpt>
      <trkpt lat="45.78466" lon="4.7327">
        <ele>289.26712</ele>
        <time>2022-10-30T14:28:26.000Z</time>
      </trkpt>
      <trkpt lat="45.78464" lon="4.73265">
        <ele>289.55161</ele>
        <time>2022-10-30T14:28:27.000Z</time>
      </trkpt>
      <trkpt lat="45.78461" lon="4.73261">
        <ele>289.78958</ele>
        <time>2022-10-30T14:28:28.000Z</time>
      </trkpt>
      <trkpt lat="45.78459" lon="4.73257">
        <ele>290.00461</ele>
        <time>2022-10-30T14:28:29.000Z</time>
      </trkpt>
      <trkpt lat="45.78458" lon="4.73252">
        <ele>290.26172</ele>
        <time>2022-10-30T14:28:30.000Z</time>
      </trkpt>
      <trkpt lat="45.78457" lon="4.73248">
        <ele>290.5325</ele>
        <time>2022-10-30T14:28:31.000Z</time>
      </trkpt>
      <trkpt lat="45.78455" lon="4.73244">
        <ele>290.84595</ele>
        <time>2022-10-30T14:28:32.000Z</time>
      </trkpt>
      <trkpt lat="45.78455" lon="4.7324">
        <ele>291.16437</ele>
        <time>2022-10-30T14:28:33.000Z</time>
      </trkpt>
      <trkpt lat="45.78456" lon="4.73236">
        <ele>291.50372</ele>
        <time>2022-10-30T14:28:34.000Z</time>
      </trkpt>
      <trkpt lat="45.78458" lon="4.73232">
        <ele>291.77399</ele>
        <time>2022-10-30T14:28:35.000Z</time>
      </trkpt>
      <trkpt lat="45.78461" lon="4.73228">
        <ele>292.0079</ele>
        <time>2022-10-30T14:28:36.000Z</time>
      </trkpt>
      <trkpt lat="45.78463" lon="4.73224">
        <ele>292.26227</ele>
        <time>2022-10-30T14:28:37.000Z</time>
      </trkpt>
      <trkpt lat="45.78467" lon="4.73221">
        <ele>292.51895</ele>
        <time>2022-10-30T14:28:38.000Z</time>
      </trkpt>
      <trkpt lat="45.7847" lon="4.73218">
        <ele>292.7934</ele>
        <time>2022-10-30T14:28:39.000Z</time>
      </trkpt>
      <trkpt lat="45.78474" lon="4.73216">
        <ele>293.02997</ele>
        <time>2022-10-30T14:28:40.000Z</time>
      </trkpt>
      <trkpt lat="45.78479" lon="4.73216">
        <ele>293.36469</ele>
        <time>2022-10-30T14:28:41.000Z</time>
      </trkpt>
      <trkpt lat="45.78483" lon="4.73217">
        <ele>293.68414</ele>
        <time>2022-10-30T14:28:42.000Z</time>
      </trkpt>
      <trkpt lat="45.78487" lon="4.73219">
        <ele>293.99753</ele>
        <time>2022-10-30T14:28:43.000Z</time>
      </trkpt>
      <trkpt lat="45.7849" lon="4.73223">
        <ele>294.31348</ele>
        <time>2022-10-30T14:28:44.000Z</time>
      </trkpt>
      <trkpt lat="45.78493" lon="4.73228">
        <ele>294.67374</ele>
        <time>2022-10-30T14:28:45.000Z</time>
      </trkpt>
      <trkpt lat="45.78495" lon="4.73234">
        <ele>294.98599</ele>
        <time>2022-10-30T14:28:46.000Z</time>
      </trkpt>
      <trkpt lat="45.78496" lon="4.7324">
        <ele>295.30844</ele>
        <time>2022-10-30T14:28:47.000Z</time>
      </trkpt>
      <trkpt lat="45.78498" lon="4.73246">
        <ele>295.72363</ele>
        <time>2022-10-30T14:28:48.000Z</time>
      </trkpt>
      <trkpt lat="45.78499" lon="4.73252">
        <ele>296.13608</ele>
        <time>2022-10-30T14:28:49.000Z</time>
      </trkpt>
      <trkpt lat="45.78501" lon="4.73257">
        <ele>296.50067</ele>
        <time>2022-10-30T14:28:50.000Z</time>
      </trkpt>
      <trkpt lat="45.78503" lon="4.73262">
        <ele>296.90884</ele>
        <time>2022-10-30T14:28:51.000Z</time>
      </trkpt>
      <trkpt lat="45.78505" lon="4.73266">
        <ele>297.26385</ele>
        <time>2022-10-30T14:28:52.000Z</time>
      </trkpt>
      <trkpt lat="45.78508" lon="4.73269">
        <ele>297.61749</ele>
        <time>2022-10-30T14:28:53.000Z</time>
      </trkpt>
      <trkpt lat="45.78511" lon="4.73271">
        <ele>297.95404</ele>
        <time>2022-10-30T14:28:54.000Z</time>
      </trkpt>
      <trkpt lat="45.78515" lon="4.73272">
        <ele>298.35367</ele>
        <time>2022-10-30T14:28:55.000Z</time>
      </trkpt>
      <trkpt lat="45.78519" lon="4.73273">
        <ele>298.76703</ele>
        <time>2022-10-30T14:28:56.000Z</time>
      </trkpt>
      <trkpt lat="45.78523" lon="4.73272">
        <ele>299.17526</ele>
        <time>2022-10-30T14:28:57.000Z</time>
      </trkpt>
      <trkpt lat="45.78527" lon="4.73269">
        <ele>299.56689</ele>
        <time>2022-10-30T14:28:58.000Z</time>
      </trkpt>
      <trkpt lat="45.78531" lon="4.73267">
        <ele>299.96655</ele>
        <time>2022-10-30T14:28:59.000Z</time>
      </trkpt>
      <trkpt lat="45.78535" lon="4.73263">
        <ele>300.36206</ele>
        <time>2022-10-30T14:29:00.000Z</time>
      </trkpt>
      <trkpt lat="45.78538" lon="4.73259">
        <ele>300.73392</ele>
        <time>2022-10-30T14:29:01.000Z</time>
      </trkpt>
      <trkpt lat="45.78541" lon="4.73254">
        <ele>301.09555</ele>
        <time>2022-10-30T14:29:02.000Z</time>
      </trkpt>
      <trkpt lat="45.78544" lon="4.73249">
        <ele>301.46317</ele>
        <time>2022-10-30T14:29:03.000Z</time>
      </trkpt>
      <trkpt lat="45.78546" lon="4.73244">
        <ele>301.7746</ele>
        <time>2022-10-30T14:29:04.000Z</time>
      </trkpt>
      <trkpt lat="45.78547" lon="4.73238">
        <ele>302.06326</ele>
        <time>2022-10-30T14:29:05.000Z</time>
      </trkpt>
      <trkpt lat="45.78549" lon="4.73232">
        <ele>302.38177</ele>
        <time>2022-10-30T14:29:06.000Z</time>
      </trkpt>
      <trkpt lat="45.7855" lon="4.73227">
        <ele>302.69034</ele>
        <time>2022-10-30T14:29:07.000Z</time>
      </trkpt>
      <trkpt lat="45.78552" lon="4.73221">
        <ele>302.95361</ele>
        <time>2022-10-30T14:29:08.000Z</time>
      </trkpt>
      <trkpt lat="45.78554" lon="4.73215">
        <ele>303.22025</ele>
        <time>2022-10-30T14:29:09.000Z</time>
      </trkpt>
      <trkpt lat="45.78556" lon="4.7321">
        <ele>303.52487</ele>
        <time>2022-10-30T14:29:10.000Z</time>
      </trkpt>
      <trkpt lat="45.78557" lon="4.73204">
        <ele>303.80014</ele>
        <time>2022-10-30T14:29:11.000Z</time>
      </trkpt>
      <trkpt lat="45.78559" lon="4.73198">
        <ele>304.10809</ele>
        <time>2022-10-30T14:29:12.000Z</time>
      </trkpt>
      <trkpt lat="45.78561" lon="4.73193">
        <ele>304.45401</ele>
        <time>2022-10-30T14:29:13.000Z</time>
      </trkpt>
      <trkpt lat="45.78563" lon="4.73188">
        <ele>304.79095</ele>
        <time>2022-10-30T14:29:14.000Z</time>
      </trkpt>
      <trkpt lat="45.78565" lon="4.73183">
        <ele>305.09619</ele>
        <time>2022-10-30T14:29:15.000Z</time>
      </trkpt>
      <trkpt lat="45.78567" lon="4.73178">
        <ele>305.39545</ele>
        <time>2022-10-30T14:29:16.000Z</time>
      </trkpt>
      <trkpt lat="45.78569" lon="4.73173">
        <ele>305.70294</ele>
        <time>2022-10-30T14:29:17.000Z</time>
      </trkpt>
      <trkpt lat="45.78571" lon="4.73167">
        <ele>306.0835</ele>
        <time>2022-10-30T14:29:18.000Z</time>
      </trkpt>
      <trkpt lat="45.78573" lon="4.73162">
        <ele>306.48502</ele>
        <time>2022-10-30T14:29:19.000Z</time>
      </trkpt>
      <trkpt lat="45.78575" lon="4.73158">
        <ele>306.93695</ele>
        <time>2022-10-30T14:29:20.000Z</time>
      </trkpt>
      <trkpt lat="45.78577" lon="4.73153">
        <ele>307.36264</ele>
        <time>2022-10-30T14:29:21.000Z</time>
      </trkpt>
      <trkpt lat="45.78578" lon="4.73149">
        <ele>307.78998</ele>
        <time>2022-10-30T14:29:22.000Z</time>
      </trkpt>
      <trkpt lat="45.7858" lon="4.73146">
        <ele>308.17715</ele>
        <time>2022-10-30T14:29:23.000Z</time>
      </trkpt>
      <trkpt lat="45.78581" lon="4.73143">
        <ele>308.58685</ele>
        <time>2022-10-30T14:29:24.000Z</time>
      </trkpt>
      <trkpt lat="45.78582" lon="4.73141">
        <ele>308.97464</ele>
        <time>2022-10-30T14:29:25.000Z</time>
      </trkpt>
      <trkpt lat="45.78585" lon="4.7314">
        <ele>309.40631</ele>
        <time>2022-10-30T14:29:27.000Z</time>
      </trkpt>
      <trkpt lat="45.78587" lon="4.73139">
        <ele>309.83096</ele>
        <time>2022-10-30T14:29:28.000Z</time>
      </trkpt>
      <trkpt lat="45.78591" lon="4.73138">
        <ele>310.24164</ele>
        <time>2022-10-30T14:29:29.000Z</time>
      </trkpt>
      <trkpt lat="45.78596" lon="4.73136">
        <ele>310.61832</ele>
        <time>2022-10-30T14:29:30.000Z</time>
      </trkpt>
      <trkpt lat="45.78601" lon="4.73133">
        <ele>310.99677</ele>
        <time>2022-10-30T14:29:31.000Z</time>
      </trkpt>
      <trkpt lat="45.78605" lon="4.7313">
        <ele>311.33124</ele>
        <time>2022-10-30T14:29:32.000Z</time>
      </trkpt>
      <trkpt lat="45.7861" lon="4.73127">
        <ele>311.61221</ele>
        <time>2022-10-30T14:29:33.000Z</time>
      </trkpt>
      <trkpt lat="45.78614" lon="4.73124">
        <ele>311.82877</ele>
        <time>2022-10-30T14:29:34.000Z</time>
      </trkpt>
      <trkpt lat="45.78619" lon="4.73122">
        <ele>312.01694</ele>
        <time>2022-10-30T14:29:35.000Z</time>
      </trkpt>
      <trkpt lat="45.78623" lon="4.73122">
        <ele>312.15814</ele>
        <time>2022-10-30T14:29:36.000Z</time>
      </trkpt>
      <trkpt lat="45.78628" lon="4.73124">
        <ele>312.30948</ele>
        <time>2022-10-30T14:29:37.000Z</time>
      </trkpt>
      <trkpt lat="45.78632" lon="4.73126">
        <ele>312.43549</ele>
        <time>2022-10-30T14:29:38.000Z</time>
      </trkpt>
      <trkpt lat="45.78635" lon="4.73129">
        <ele>312.45398</ele>
        <time>2022-10-30T14:29:39.000Z</time>
      </trkpt>
      <trkpt lat="45.78639" lon="4.73129">
        <ele>312.38531</ele>
        <time>2022-10-30T14:29:40.000Z</time>
      </trkpt>
      <trkpt lat="45.78644" lon="4.73128">
        <ele>312.33008</ele>
        <time>2022-10-30T14:29:41.000Z</time>
      </trkpt>
      <trkpt lat="45.78648" lon="4.73126">
        <ele>312.24609</ele>
        <time>2022-10-30T14:29:42.000Z</time>
      </trkpt>
      <trkpt lat="45.78652" lon="4.73123">
        <ele>312.13174</ele>
        <time>2022-10-30T14:29:43.000Z</time>
      </trkpt>
      <trkpt lat="45.78655" lon="4.7312">
        <ele>312.03717</ele>
        <time>2022-10-30T14:29:44.000Z</time>
      </trkpt>
      <trkpt lat="45.78657" lon="4.73116">
        <ele>311.91217</ele>
        <time>2022-10-30T14:29:45.000Z</time>
      </trkpt>
      <trkpt lat="45.7866" lon="4.73113">
        <ele>311.80145</ele>
        <time>2022-10-30T14:29:46.000Z</time>
      </trkpt>
      <trkpt lat="45.78661" lon="4.73111">
        <ele>311.62436</ele>
        <time>2022-10-30T14:29:47.000Z</time>
      </trkpt>
      <trkpt lat="45.78663" lon="4.73109">
        <ele>311.46198</ele>
        <time>2022-10-30T14:29:48.000Z</time>
      </trkpt>
      <trkpt lat="45.78665" lon="4.73106">
        <ele>311.26199</ele>
        <time>2022-10-30T14:29:50.000Z</time>
      </trkpt>
      <trkpt lat="45.78668" lon="4.73106">
        <ele>311.00937</ele>
        <time>2022-10-30T14:29:52.000Z</time>
      </trkpt>
      <trkpt lat="45.7867" lon="4.73106">
        <ele>310.7818</ele>
        <time>2022-10-30T14:29:54.000Z</time>
      </trkpt>
      <trkpt lat="45.78673" lon="4.73105">
        <ele>310.65079</ele>
        <time>2022-10-30T14:29:56.000Z</time>
      </trkpt>
      <trkpt lat="45.78676" lon="4.73105">
        <ele>310.53229</ele>
        <time>2022-10-30T14:29:57.000Z</time>
      </trkpt>
      <trkpt lat="45.78679" lon="4.73105">
        <ele>310.39642</ele>
        <time>2022-10-30T14:29:58.000Z</time>
      </trkpt>
      <trkpt lat="45.78682" lon="4.73105">
        <ele>310.25909</ele>
        <time>2022-10-30T14:29:59.000Z</time>
      </trkpt>
      <trkpt lat="45.78687" lon="4.73105">
        <ele>310.1955</ele>
        <time>2022-10-30T14:30:00.000Z</time>
      </trkpt>
      <trkpt lat="45.78696" lon="4.73101">
        <ele>310.1517</ele>
        <time>2022-10-30T14:30:01.000Z</time>
      </trkpt>
      <trkpt lat="45.78701" lon="4.73098">
        <ele>310.05756</ele>
        <time>2022-10-30T14:30:02.000Z</time>
      </trkpt>
      <trkpt lat="45.78704" lon="4.73092">
        <ele>309.98065</ele>
        <time>2022-10-30T14:30:03.000Z</time>
      </trkpt>
      <trkpt lat="45.78707" lon="4.73088">
        <ele>309.96115</ele>
        <time>2022-10-30T14:30:04.000Z</time>
      </trkpt>
      <trkpt lat="45.7871" lon="4.73084">
        <ele>309.9039</ele>
        <time>2022-10-30T14:30:05.000Z</time>
      </trkpt>
      <trkpt lat="45.78712" lon="4.73082">
        <ele>309.88467</ele>
        <time>2022-10-30T14:30:06.000Z</time>
      </trkpt>
      <trkpt lat="45.78713" lon="4.73079">
        <ele>309.84381</ele>
        <time>2022-10-30T14:30:07.000Z</time>
      </trkpt>
      <trkpt lat="45.78715" lon="4.73075">
        <ele>309.77554</ele>
        <time>2022-10-30T14:30:08.000Z</time>
      </trkpt>
      <trkpt lat="45.78716" lon="4.73071">
        <ele>309.70059</ele>
        <time>2022-10-30T14:30:09.000Z</time>
      </trkpt>
      <trkpt lat="45.78716" lon="4.73068">
        <ele>309.62122</ele>
        <time>2022-10-30T14:30:10.000Z</time>
      </trkpt>
      <trkpt lat="45.78717" lon="4.73064">
        <ele>309.58118</ele>
        <time>2022-10-30T14:30:11.000Z</time>
      </trkpt>
      <trkpt lat="45.78719" lon="4.73061">
        <ele>309.55933</ele>
        <time>2022-10-30T14:30:12.000Z</time>
      </trkpt>
      <trkpt lat="45.7872" lon="4.73057">
        <ele>309.55688</ele>
        <time>2022-10-30T14:30:14.000Z</time>
      </trkpt>
      <trkpt lat="45.78721" lon="4.73053">
        <ele>309.59354</ele>
        <time>2022-10-30T14:30:16.000Z</time>
      </trkpt>
      <trkpt lat="45.78721" lon="4.7305">
        <ele>309.61282</ele>
        <time>2022-10-30T14:30:17.000Z</time>
      </trkpt>
      <trkpt lat="45.7872" lon="4.73047">
        <ele>309.55225</ele>
        <time>2022-10-30T14:30:18.000Z</time>
      </trkpt>
      <trkpt lat="45.78719" lon="4.73043">
        <ele>309.48721</ele>
        <time>2022-10-30T14:30:19.000Z</time>
      </trkpt>
      <trkpt lat="45.78719" lon="4.73039">
        <ele>309.4212</ele>
        <time>2022-10-30T14:30:20.000Z</time>
      </trkpt>
      <trkpt lat="45.78718" lon="4.73036">
        <ele>309.40628</ele>
        <time>2022-10-30T14:30:21.000Z</time>
      </trkpt>
      <trkpt lat="45.78718" lon="4.73033">
        <ele>309.33853</ele>
        <time>2022-10-30T14:30:22.000Z</time>
      </trkpt>
      <trkpt lat="45.78716" lon="4.73029">
        <ele>309.23703</ele>
        <time>2022-10-30T14:30:23.000Z</time>
      </trkpt>
      <trkpt lat="45.78715" lon="4.73026">
        <ele>309.19669</ele>
        <time>2022-10-30T14:30:24.000Z</time>
      </trkpt>
      <trkpt lat="45.78714" lon="4.73023">
        <ele>309.21457</ele>
        <time>2022-10-30T14:30:25.000Z</time>
      </trkpt>
      <trkpt lat="45.78713" lon="4.7302">
        <ele>309.21918</ele>
        <time>2022-10-30T14:30:26.000Z</time>
      </trkpt>
      <trkpt lat="45.78711" lon="4.73016">
        <ele>309.21387</ele>
        <time>2022-10-30T14:30:27.000Z</time>
      </trkpt>
      <trkpt lat="45.7871" lon="4.73013">
        <ele>309.16669</ele>
        <time>2022-10-30T14:30:28.000Z</time>
      </trkpt>
      <trkpt lat="45.7871" lon="4.7301">
        <ele>309.15915</ele>
        <time>2022-10-30T14:30:29.000Z</time>
      </trkpt>
      <trkpt lat="45.78708" lon="4.73008">
        <ele>309.16116</ele>
        <time>2022-10-30T14:30:30.000Z</time>
      </trkpt>
      <trkpt lat="45.78707" lon="4.73004">
        <ele>309.15778</ele>
        <time>2022-10-30T14:30:31.000Z</time>
      </trkpt>
      <trkpt lat="45.78706" lon="4.73">
        <ele>309.09595</ele>
        <time>2022-10-30T14:30:32.000Z</time>
      </trkpt>
      <trkpt lat="45.78704" lon="4.72995">
        <ele>308.98126</ele>
        <time>2022-10-30T14:30:33.000Z</time>
      </trkpt>
      <trkpt lat="45.78701" lon="4.7299">
        <ele>308.84637</ele>
        <time>2022-10-30T14:30:34.000Z</time>
      </trkpt>
      <trkpt lat="45.787" lon="4.72984">
        <ele>308.74963</ele>
        <time>2022-10-30T14:30:35.000Z</time>
      </trkpt>
      <trkpt lat="45.787" lon="4.72978">
        <ele>308.66718</ele>
        <time>2022-10-30T14:30:36.000Z</time>
      </trkpt>
      <trkpt lat="45.787" lon="4.72972">
        <ele>308.59821</ele>
        <time>2022-10-30T14:30:37.000Z</time>
      </trkpt>
      <trkpt lat="45.78701" lon="4.72967">
        <ele>308.50067</ele>
        <time>2022-10-30T14:30:38.000Z</time>
      </trkpt>
      <trkpt lat="45.78702" lon="4.72961">
        <ele>308.37964</ele>
        <time>2022-10-30T14:30:39.000Z</time>
      </trkpt>
      <trkpt lat="45.78703" lon="4.72955">
        <ele>308.28769</ele>
        <time>2022-10-30T14:30:40.000Z</time>
      </trkpt>
      <trkpt lat="45.78705" lon="4.72949">
        <ele>308.17023</ele>
        <time>2022-10-30T14:30:41.000Z</time>
      </trkpt>
      <trkpt lat="45.78708" lon="4.72944">
        <ele>308.05609</ele>
        <time>2022-10-30T14:30:42.000Z</time>
      </trkpt>
      <trkpt lat="45.78711" lon="4.7294">
        <ele>307.9577</ele>
        <time>2022-10-30T14:30:43.000Z</time>
      </trkpt>
      <trkpt lat="45.78714" lon="4.72936">
        <ele>307.83054</ele>
        <time>2022-10-30T14:30:44.000Z</time>
      </trkpt>
      <trkpt lat="45.78717" lon="4.72933">
        <ele>307.60297</ele>
        <time>2022-10-30T14:30:45.000Z</time>
      </trkpt>
      <trkpt lat="45.78721" lon="4.72932">
        <ele>307.3067</ele>
        <time>2022-10-30T14:30:46.000Z</time>
      </trkpt>
      <trkpt lat="45.78725" lon="4.72931">
        <ele>307.0192</ele>
        <time>2022-10-30T14:30:47.000Z</time>
      </trkpt>
      <trkpt lat="45.78729" lon="4.72932">
        <ele>306.75546</ele>
        <time>2022-10-30T14:30:48.000Z</time>
      </trkpt>
      <trkpt lat="45.78732" lon="4.72935">
        <ele>306.45575</ele>
        <time>2022-10-30T14:30:49.000Z</time>
      </trkpt>
      <trkpt lat="45.78733" lon="4.7294">
        <ele>306.11249</ele>
        <time>2022-10-30T14:30:50.000Z</time>
      </trkpt>
      <trkpt lat="45.78734" lon="4.72946">
        <ele>305.7196</ele>
        <time>2022-10-30T14:30:51.000Z</time>
      </trkpt>
      <trkpt lat="45.78735" lon="4.72952">
        <ele>305.3443</ele>
        <time>2022-10-30T14:30:52.000Z</time>
      </trkpt>
      <trkpt lat="45.78737" lon="4.72959">
        <ele>304.97906</ele>
        <time>2022-10-30T14:30:53.000Z</time>
      </trkpt>
      <trkpt lat="45.78739" lon="4.72964">
        <ele>304.61041</ele>
        <time>2022-10-30T14:30:54.000Z</time>
      </trkpt>
      <trkpt lat="45.78742" lon="4.72968">
        <ele>304.21497</ele>
        <time>2022-10-30T14:30:55.000Z</time>
      </trkpt>
      <trkpt lat="45.78745" lon="4.72972">
        <ele>303.8045</ele>
        <time>2022-10-30T14:30:56.000Z</time>
      </trkpt>
      <trkpt lat="45.78748" lon="4.72976">
        <ele>303.34808</ele>
        <time>2022-10-30T14:30:57.000Z</time>
      </trkpt>
      <trkpt lat="45.78751" lon="4.7298">
        <ele>302.88321</ele>
        <time>2022-10-30T14:30:58.000Z</time>
      </trkpt>
      <trkpt lat="45.78754" lon="4.72983">
        <ele>302.42639</ele>
        <time>2022-10-30T14:30:59.000Z</time>
      </trkpt>
      <trkpt lat="45.78758" lon="4.72985">
        <ele>301.9549</ele>
        <time>2022-10-30T14:31:00.000Z</time>
      </trkpt>
      <trkpt lat="45.78762" lon="4.72987">
        <ele>301.46161</ele>
        <time>2022-10-30T14:31:01.000Z</time>
      </trkpt>
      <trkpt lat="45.78766" lon="4.72989">
        <ele>301.00912</ele>
        <time>2022-10-30T14:31:02.000Z</time>
      </trkpt>
      <trkpt lat="45.78769" lon="4.72992">
        <ele>300.53494</ele>
        <time>2022-10-30T14:31:03.000Z</time>
      </trkpt>
      <trkpt lat="45.78772" lon="4.72993">
        <ele>300.07684</ele>
        <time>2022-10-30T14:31:04.000Z</time>
      </trkpt>
      <trkpt lat="45.78774" lon="4.72992">
        <ele>299.63672</ele>
        <time>2022-10-30T14:31:05.000Z</time>
      </trkpt>
      <trkpt lat="45.78777" lon="4.72989">
        <ele>299.24777</ele>
        <time>2022-10-30T14:31:06.000Z</time>
      </trkpt>
      <trkpt lat="45.78778" lon="4.72986">
        <ele>298.85413</ele>
        <time>2022-10-30T14:31:07.000Z</time>
      </trkpt>
      <trkpt lat="45.7878" lon="4.72982">
        <ele>298.4317</ele>
        <time>2022-10-30T14:31:08.000Z</time>
      </trkpt>
      <trkpt lat="45.78782" lon="4.72979">
        <ele>298.08383</ele>
        <time>2022-10-30T14:31:09.000Z</time>
      </trkpt>
      <trkpt lat="45.78784" lon="4.72975">
        <ele>297.80707</ele>
        <time>2022-10-30T14:31:10.000Z</time>
      </trkpt>
      <trkpt lat="45.78786" lon="4.72971">
        <ele>297.61319</ele>
        <time>2022-10-30T14:31:11.000Z</time>
      </trkpt>
      <trkpt lat="45.78788" lon="4.72969">
        <ele>297.46942</ele>
        <time>2022-10-30T14:31:12.000Z</time>
      </trkpt>
      <trkpt lat="45.7879" lon="4.72964">
        <ele>297.37555</ele>
        <time>2022-10-30T14:31:13.000Z</time>
      </trkpt>
      <trkpt lat="45.78792" lon="4.7296">
        <ele>297.25327</ele>
        <time>2022-10-30T14:31:14.000Z</time>
      </trkpt>
      <trkpt lat="45.78794" lon="4.72957">
        <ele>297.13812</ele>
        <time>2022-10-30T14:31:15.000Z</time>
      </trkpt>
      <trkpt lat="45.78797" lon="4.72954">
        <ele>297.00809</ele>
        <time>2022-10-30T14:31:16.000Z</time>
      </trkpt>
      <trkpt lat="45.78798" lon="4.72951">
        <ele>296.90347</ele>
        <time>2022-10-30T14:31:17.000Z</time>
      </trkpt>
      <trkpt lat="45.788" lon="4.72948">
        <ele>296.85187</ele>
        <time>2022-10-30T14:31:18.000Z</time>
      </trkpt>
      <trkpt lat="45.78802" lon="4.72945">
        <ele>296.91714</ele>
        <time>2022-10-30T14:31:19.000Z</time>
      </trkpt>
      <trkpt lat="45.78804" lon="4.72942">
        <ele>297.02838</ele>
        <time>2022-10-30T14:31:20.000Z</time>
      </trkpt>
      <trkpt lat="45.78806" lon="4.72939">
        <ele>297.19064</ele>
        <time>2022-10-30T14:31:21.000Z</time>
      </trkpt>
      <trkpt lat="45.78809" lon="4.72936">
        <ele>297.26617</ele>
        <time>2022-10-30T14:31:22.000Z</time>
      </trkpt>
      <trkpt lat="45.78811" lon="4.72932">
        <ele>297.34552</ele>
        <time>2022-10-30T14:31:23.000Z</time>
      </trkpt>
      <trkpt lat="45.78814" lon="4.72929">
        <ele>297.39911</ele>
        <time>2022-10-30T14:31:24.000Z</time>
      </trkpt>
      <trkpt lat="45.78817" lon="4.72926">
        <ele>297.47601</ele>
        <time>2022-10-30T14:31:25.000Z</time>
      </trkpt>
      <trkpt lat="45.78819" lon="4.72924">
        <ele>297.66055</ele>
        <time>2022-10-30T14:31:26.000Z</time>
      </trkpt>
      <trkpt lat="45.78821" lon="4.72922">
        <ele>297.80133</ele>
        <time>2022-10-30T14:31:27.000Z</time>
      </trkpt>
      <trkpt lat="45.78824" lon="4.72918">
        <ele>297.93671</ele>
        <time>2022-10-30T14:31:28.000Z</time>
      </trkpt>
      <trkpt lat="45.78827" lon="4.72914">
        <ele>298.04001</ele>
        <time>2022-10-30T14:31:29.000Z</time>
      </trkpt>
      <trkpt lat="45.7883" lon="4.72911">
        <ele>298.09589</ele>
        <time>2022-10-30T14:31:30.000Z</time>
      </trkpt>
      <trkpt lat="45.78833" lon="4.72908">
        <ele>298.11407</ele>
        <time>2022-10-30T14:31:31.000Z</time>
      </trkpt>
      <trkpt lat="45.78837" lon="4.72905">
        <ele>298.1709</ele>
        <time>2022-10-30T14:31:32.000Z</time>
      </trkpt>
      <trkpt lat="45.78839" lon="4.72902">
        <ele>298.20099</ele>
        <time>2022-10-30T14:31:33.000Z</time>
      </trkpt>
      <trkpt lat="45.78841" lon="4.729">
        <ele>298.25812</ele>
        <time>2022-10-30T14:31:34.000Z</time>
      </trkpt>
      <trkpt lat="45.78843" lon="4.72897">
        <ele>298.39905</ele>
        <time>2022-10-30T14:31:35.000Z</time>
      </trkpt>
      <trkpt lat="45.78847" lon="4.72893">
        <ele>298.50497</ele>
        <time>2022-10-30T14:31:36.000Z</time>
      </trkpt>
      <trkpt lat="45.7885" lon="4.7289">
        <ele>298.60208</ele>
        <time>2022-10-30T14:31:37.000Z</time>
      </trkpt>
      <trkpt lat="45.78853" lon="4.72888">
        <ele>298.70026</ele>
        <time>2022-10-30T14:31:38.000Z</time>
      </trkpt>
      <trkpt lat="45.78857" lon="4.72885">
        <ele>298.74146</ele>
        <time>2022-10-30T14:31:39.000Z</time>
      </trkpt>
      <trkpt lat="45.7886" lon="4.72883">
        <ele>298.73734</ele>
        <time>2022-10-30T14:31:40.000Z</time>
      </trkpt>
      <trkpt lat="45.78863" lon="4.72881">
        <ele>298.69415</ele>
        <time>2022-10-30T14:31:41.000Z</time>
      </trkpt>
      <trkpt lat="45.78866" lon="4.72878">
        <ele>298.75861</ele>
        <time>2022-10-30T14:31:42.000Z</time>
      </trkpt>
      <trkpt lat="45.78868" lon="4.72875">
        <ele>298.82629</ele>
        <time>2022-10-30T14:31:43.000Z</time>
      </trkpt>
      <trkpt lat="45.78871" lon="4.72871">
        <ele>298.95435</ele>
        <time>2022-10-30T14:31:44.000Z</time>
      </trkpt>
      <trkpt lat="45.78873" lon="4.72867">
        <ele>299.10269</ele>
        <time>2022-10-30T14:31:45.000Z</time>
      </trkpt>
      <trkpt lat="45.78876" lon="4.72862">
        <ele>299.22748</ele>
        <time>2022-10-30T14:31:46.000Z</time>
      </trkpt>
      <trkpt lat="45.78879" lon="4.72859">
        <ele>299.37411</ele>
        <time>2022-10-30T14:31:47.000Z</time>
      </trkpt>
      <trkpt lat="45.78883" lon="4.72855">
        <ele>299.58896</ele>
        <time>2022-10-30T14:31:48.000Z</time>
      </trkpt>
      <trkpt lat="45.78887" lon="4.72851">
        <ele>299.81046</ele>
        <time>2022-10-30T14:31:49.000Z</time>
      </trkpt>
      <trkpt lat="45.78891" lon="4.72847">
        <ele>300.05515</ele>
        <time>2022-10-30T14:31:50.000Z</time>
      </trkpt>
      <trkpt lat="45.78895" lon="4.72843">
        <ele>300.33691</ele>
        <time>2022-10-30T14:31:51.000Z</time>
      </trkpt>
      <trkpt lat="45.78898" lon="4.72838">
        <ele>300.61069</ele>
        <time>2022-10-30T14:31:52.000Z</time>
      </trkpt>
      <trkpt lat="45.789" lon="4.72833">
        <ele>300.87668</ele>
        <time>2022-10-30T14:31:53.000Z</time>
      </trkpt>
      <trkpt lat="45.78903" lon="4.72829">
        <ele>301.18848</ele>
        <time>2022-10-30T14:31:54.000Z</time>
      </trkpt>
      <trkpt lat="45.78905" lon="4.72825">
        <ele>301.38428</ele>
        <time>2022-10-30T14:31:55.000Z</time>
      </trkpt>
      <trkpt lat="45.78905" lon="4.7282">
        <ele>301.62421</ele>
        <time>2022-10-30T14:31:56.000Z</time>
      </trkpt>
      <trkpt lat="45.78906" lon="4.72816">
        <ele>302.00458</ele>
        <time>2022-10-30T14:31:57.000Z</time>
      </trkpt>
      <trkpt lat="45.78906" lon="4.72811">
        <ele>302.32318</ele>
        <time>2022-10-30T14:31:58.000Z</time>
      </trkpt>
      <trkpt lat="45.78904" lon="4.72807">
        <ele>302.61435</ele>
        <time>2022-10-30T14:31:59.000Z</time>
      </trkpt>
      <trkpt lat="45.78906" lon="4.728">
        <ele>302.98212</ele>
        <time>2022-10-30T14:32:00.000Z</time>
      </trkpt>
      <trkpt lat="45.78906" lon="4.72796">
        <ele>303.36978</ele>
        <time>2022-10-30T14:32:01.000Z</time>
      </trkpt>
      <trkpt lat="45.78905" lon="4.72792">
        <ele>303.79913</ele>
        <time>2022-10-30T14:32:02.000Z</time>
      </trkpt>
      <trkpt lat="45.78904" lon="4.72787">
        <ele>304.25928</ele>
        <time>2022-10-30T14:32:03.000Z</time>
      </trkpt>
      <trkpt lat="45.78903" lon="4.72782">
        <ele>304.77167</ele>
        <time>2022-10-30T14:32:04.000Z</time>
      </trkpt>
      <trkpt lat="45.78902" lon="4.72778">
        <ele>305.29849</ele>
        <time>2022-10-30T14:32:05.000Z</time>
      </trkpt>
      <trkpt lat="45.78901" lon="4.72773">
        <ele>305.74783</ele>
        <time>2022-10-30T14:32:06.000Z</time>
      </trkpt>
      <trkpt lat="45.78901" lon="4.72769">
        <ele>306.22974</ele>
        <time>2022-10-30T14:32:07.000Z</time>
      </trkpt>
      <trkpt lat="45.78901" lon="4.72765">
        <ele>306.66446</ele>
        <time>2022-10-30T14:32:08.000Z</time>
      </trkpt>
      <trkpt lat="45.78902" lon="4.72762">
        <ele>307.07782</ele>
        <time>2022-10-30T14:32:09.000Z</time>
      </trkpt>
      <trkpt lat="45.78902" lon="4.72759">
        <ele>307.50415</ele>
        <time>2022-10-30T14:32:10.000Z</time>
      </trkpt>
      <trkpt lat="45.78902" lon="4.72756">
        <ele>307.89203</ele>
        <time>2022-10-30T14:32:11.000Z</time>
      </trkpt>
      <trkpt lat="45.78903" lon="4.72751">
        <ele>308.20575</ele>
        <time>2022-10-30T14:32:12.000Z</time>
      </trkpt>
      <trkpt lat="45.78904" lon="4.72747">
        <ele>308.52692</ele>
        <time>2022-10-30T14:32:13.000Z</time>
      </trkpt>
      <trkpt lat="45.78905" lon="4.72742">
        <ele>308.82086</ele>
        <time>2022-10-30T14:32:14.000Z</time>
      </trkpt>
      <trkpt lat="45.78907" lon="4.72737">
        <ele>309.14484</ele>
        <time>2022-10-30T14:32:15.000Z</time>
      </trkpt>
      <trkpt lat="45.78909" lon="4.72733">
        <ele>309.50421</ele>
        <time>2022-10-30T14:32:16.000Z</time>
      </trkpt>
      <trkpt lat="45.78911" lon="4.72728">
        <ele>309.74426</ele>
        <time>2022-10-30T14:32:17.000Z</time>
      </trkpt>
      <trkpt lat="45.78913" lon="4.72724">
        <ele>310.03748</ele>
        <time>2022-10-30T14:32:18.000Z</time>
      </trkpt>
      <trkpt lat="45.78915" lon="4.7272">
        <ele>310.34467</ele>
        <time>2022-10-30T14:32:19.000Z</time>
      </trkpt>
      <trkpt lat="45.78917" lon="4.72715">
        <ele>310.59921</ele>
        <time>2022-10-30T14:32:20.000Z</time>
      </trkpt>
      <trkpt lat="45.78919" lon="4.72711">
        <ele>310.94305</ele>
        <time>2022-10-30T14:32:21.000Z</time>
      </trkpt>
      <trkpt lat="45.78922" lon="4.72706">
        <ele>311.16278</ele>
        <time>2022-10-30T14:32:22.000Z</time>
      </trkpt>
      <trkpt lat="45.78924" lon="4.72702">
        <ele>311.3609</ele>
        <time>2022-10-30T14:32:23.000Z</time>
      </trkpt>
      <trkpt lat="45.78926" lon="4.72699">
        <ele>311.43466</ele>
        <time>2022-10-30T14:32:24.000Z</time>
      </trkpt>
      <trkpt lat="45.78929" lon="4.72695">
        <ele>311.45221</ele>
        <time>2022-10-30T14:32:25.000Z</time>
      </trkpt>
      <trkpt lat="45.78931" lon="4.7269">
        <ele>311.44458</ele>
        <time>2022-10-30T14:32:26.000Z</time>
      </trkpt>
      <trkpt lat="45.78933" lon="4.72685">
        <ele>311.435</ele>
        <time>2022-10-30T14:32:27.000Z</time>
      </trkpt>
      <trkpt lat="45.78933" lon="4.7268">
        <ele>311.46005</ele>
        <time>2022-10-30T14:32:28.000Z</time>
      </trkpt>
      <trkpt lat="45.78933" lon="4.72675">
        <ele>311.52951</ele>
        <time>2022-10-30T14:32:29.000Z</time>
      </trkpt>
      <trkpt lat="45.78932" lon="4.7267">
        <ele>311.58688</ele>
        <time>2022-10-30T14:32:30.000Z</time>
      </trkpt>
      <trkpt lat="45.7893" lon="4.72667">
        <ele>311.73218</ele>
        <time>2022-10-30T14:32:31.000Z</time>
      </trkpt>
      <trkpt lat="45.78927" lon="4.72666">
        <ele>311.85132</ele>
        <time>2022-10-30T14:32:32.000Z</time>
      </trkpt>
      <trkpt lat="45.78924" lon="4.72665">
        <ele>311.95767</ele>
        <time>2022-10-30T14:32:33.000Z</time>
      </trkpt>
      <trkpt lat="45.7892" lon="4.72666">
        <ele>312.04974</ele>
        <time>2022-10-30T14:32:34.000Z</time>
      </trkpt>
      <trkpt lat="45.78917" lon="4.72667">
        <ele>312.17023</ele>
        <time>2022-10-30T14:32:35.000Z</time>
      </trkpt>
      <trkpt lat="45.78914" lon="4.72668">
        <ele>312.26947</ele>
        <time>2022-10-30T14:32:36.000Z</time>
      </trkpt>
      <trkpt lat="45.78911" lon="4.7267">
        <ele>312.36572</ele>
        <time>2022-10-30T14:32:37.000Z</time>
      </trkpt>
      <trkpt lat="45.78908" lon="4.72671">
        <ele>312.50452</ele>
        <time>2022-10-30T14:32:38.000Z</time>
      </trkpt>
      <trkpt lat="45.78905" lon="4.72673">
        <ele>312.61234</ele>
        <time>2022-10-30T14:32:39.000Z</time>
      </trkpt>
      <trkpt lat="45.78902" lon="4.72675">
        <ele>312.70276</ele>
        <time>2022-10-30T14:32:40.000Z</time>
      </trkpt>
      <trkpt lat="45.78899" lon="4.72677">
        <ele>312.70291</ele>
        <time>2022-10-30T14:32:41.000Z</time>
      </trkpt>
      <trkpt lat="45.78896" lon="4.72678">
        <ele>312.74609</ele>
        <time>2022-10-30T14:32:42.000Z</time>
      </trkpt>
      <trkpt lat="45.78893" lon="4.72681">
        <ele>312.84262</ele>
        <time>2022-10-30T14:32:43.000Z</time>
      </trkpt>
      <trkpt lat="45.7889" lon="4.72683">
        <ele>313.00748</ele>
        <time>2022-10-30T14:32:44.000Z</time>
      </trkpt>
      <trkpt lat="45.78886" lon="4.72685">
        <ele>313.20511</ele>
        <time>2022-10-30T14:32:45.000Z</time>
      </trkpt>
      <trkpt lat="45.78883" lon="4.72687">
        <ele>313.43674</ele>
        <time>2022-10-30T14:32:46.000Z</time>
      </trkpt>
      <trkpt lat="45.7888" lon="4.72689">
        <ele>313.64957</ele>
        <time>2022-10-30T14:32:47.000Z</time>
      </trkpt>
      <trkpt lat="45.78876" lon="4.7269">
        <ele>313.81659</ele>
        <time>2022-10-30T14:32:48.000Z</time>
      </trkpt>
      <trkpt lat="45.78873" lon="4.72692">
        <ele>313.93152</ele>
        <time>2022-10-30T14:32:49.000Z</time>
      </trkpt>
      <trkpt lat="45.7887" lon="4.72693">
        <ele>314.07315</ele>
        <time>2022-10-30T14:32:50.000Z</time>
      </trkpt>
      <trkpt lat="45.78867" lon="4.72695">
        <ele>314.15997</ele>
        <time>2022-10-30T14:32:51.000Z</time>
      </trkpt>
      <trkpt lat="45.78864" lon="4.72697">
        <ele>314.30893</ele>
        <time>2022-10-30T14:32:52.000Z</time>
      </trkpt>
      <trkpt lat="45.7886" lon="4.72698">
        <ele>314.49011</ele>
        <time>2022-10-30T14:32:53.000Z</time>
      </trkpt>
      <trkpt lat="45.78857" lon="4.727">
        <ele>314.64124</ele>
        <time>2022-10-30T14:32:54.000Z</time>
      </trkpt>
      <trkpt lat="45.78854" lon="4.72703">
        <ele>314.77069</ele>
        <time>2022-10-30T14:32:55.000Z</time>
      </trkpt>
      <trkpt lat="45.78851" lon="4.72706">
        <ele>314.93036</ele>
        <time>2022-10-30T14:32:56.000Z</time>
      </trkpt>
      <trkpt lat="45.78848" lon="4.72708">
        <ele>315.04999</ele>
        <time>2022-10-30T14:32:57.000Z</time>
      </trkpt>
      <trkpt lat="45.78845" lon="4.7271">
        <ele>315.09491</ele>
        <time>2022-10-30T14:32:58.000Z</time>
      </trkpt>
      <trkpt lat="45.78842" lon="4.72712">
        <ele>315.19202</ele>
        <time>2022-10-30T14:32:59.000Z</time>
      </trkpt>
      <trkpt lat="45.78839" lon="4.72713">
        <ele>315.32928</ele>
        <time>2022-10-30T14:33:00.000Z</time>
      </trkpt>
      <trkpt lat="45.78836" lon="4.72715">
        <ele>315.48651</ele>
        <time>2022-10-30T14:33:01.000Z</time>
      </trkpt>
      <trkpt lat="45.78833" lon="4.72717">
        <ele>315.63947</ele>
        <time>2022-10-30T14:33:02.000Z</time>
      </trkpt>
      <trkpt lat="45.7883" lon="4.72719">
        <ele>315.74335</ele>
        <time>2022-10-30T14:33:03.000Z</time>
      </trkpt>
      <trkpt lat="45.78827" lon="4.72721">
        <ele>315.83661</ele>
        <time>2022-10-30T14:33:04.000Z</time>
      </trkpt>
      <trkpt lat="45.78824" lon="4.72723">
        <ele>315.99454</ele>
        <time>2022-10-30T14:33:05.000Z</time>
      </trkpt>
      <trkpt lat="45.78822" lon="4.72724">
        <ele>316.18848</ele>
        <time>2022-10-30T14:33:06.000Z</time>
      </trkpt>
      <trkpt lat="45.78819" lon="4.72726">
        <ele>316.40549</ele>
        <time>2022-10-30T14:33:07.000Z</time>
      </trkpt>
      <trkpt lat="45.78816" lon="4.72728">
        <ele>316.66345</ele>
        <time>2022-10-30T14:33:08.000Z</time>
      </trkpt>
      <trkpt lat="45.78813" lon="4.7273">
        <ele>316.93076</ele>
        <time>2022-10-30T14:33:09.000Z</time>
      </trkpt>
      <trkpt lat="45.7881" lon="4.72732">
        <ele>317.12216</ele>
        <time>2022-10-30T14:33:10.000Z</time>
      </trkpt>
      <trkpt lat="45.78808" lon="4.72733">
        <ele>317.28668</ele>
        <time>2022-10-30T14:33:11.000Z</time>
      </trkpt>
      <trkpt lat="45.78805" lon="4.72735">
        <ele>317.45526</ele>
        <time>2022-10-30T14:33:12.000Z</time>
      </trkpt>
      <trkpt lat="45.78802" lon="4.72736">
        <ele>317.6131</ele>
        <time>2022-10-30T14:33:13.000Z</time>
      </trkpt>
      <trkpt lat="45.78799" lon="4.72735">
        <ele>317.836</ele>
        <time>2022-10-30T14:33:14.000Z</time>
      </trkpt>
      <trkpt lat="45.78796" lon="4.72733">
        <ele>318.07852</ele>
        <time>2022-10-30T14:33:15.000Z</time>
      </trkpt>
      <trkpt lat="45.78795" lon="4.7273">
        <ele>318.30859</ele>
        <time>2022-10-30T14:33:16.000Z</time>
      </trkpt>
      <trkpt lat="45.78794" lon="4.72725">
        <ele>318.56616</ele>
        <time>2022-10-30T14:33:17.000Z</time>
      </trkpt>
      <trkpt lat="45.78794" lon="4.7272">
        <ele>318.80884</ele>
        <time>2022-10-30T14:33:18.000Z</time>
      </trkpt>
      <trkpt lat="45.78796" lon="4.72716">
        <ele>318.99899</ele>
        <time>2022-10-30T14:33:19.000Z</time>
      </trkpt>
      <trkpt lat="45.78797" lon="4.72712">
        <ele>319.18369</ele>
        <time>2022-10-30T14:33:20.000Z</time>
      </trkpt>
      <trkpt lat="45.78799" lon="4.72707">
        <ele>319.35577</ele>
        <time>2022-10-30T14:33:21.000Z</time>
      </trkpt>
      <trkpt lat="45.78801" lon="4.72703">
        <ele>319.56271</ele>
        <time>2022-10-30T14:33:22.000Z</time>
      </trkpt>
      <trkpt lat="45.78803" lon="4.72699">
        <ele>319.76077</ele>
        <time>2022-10-30T14:33:23.000Z</time>
      </trkpt>
      <trkpt lat="45.78804" lon="4.72695">
        <ele>319.93472</ele>
        <time>2022-10-30T14:33:24.000Z</time>
      </trkpt>
      <trkpt lat="45.78805" lon="4.72691">
        <ele>320.08398</ele>
        <time>2022-10-30T14:33:25.000Z</time>
      </trkpt>
      <trkpt lat="45.78807" lon="4.72686">
        <ele>320.17148</ele>
        <time>2022-10-30T14:33:26.000Z</time>
      </trkpt>
      <trkpt lat="45.78809" lon="4.72682">
        <ele>320.24402</ele>
        <time>2022-10-30T14:33:27.000Z</time>
      </trkpt>
      <trkpt lat="45.78812" lon="4.72678">
        <ele>320.28647</ele>
        <time>2022-10-30T14:33:28.000Z</time>
      </trkpt>
      <trkpt lat="45.78814" lon="4.72674">
        <ele>320.33096</ele>
        <time>2022-10-30T14:33:29.000Z</time>
      </trkpt>
      <trkpt lat="45.78817" lon="4.72671">
        <ele>320.41901</ele>
        <time>2022-10-30T14:33:30.000Z</time>
      </trkpt>
      <trkpt lat="45.78821" lon="4.72667">
        <ele>320.53522</ele>
        <time>2022-10-30T14:33:31.000Z</time>
      </trkpt>
      <trkpt lat="45.78824" lon="4.72664">
        <ele>320.6796</ele>
        <time>2022-10-30T14:33:32.000Z</time>
      </trkpt>
      <trkpt lat="45.78828" lon="4.72661">
        <ele>320.8143</ele>
        <time>2022-10-30T14:33:33.000Z</time>
      </trkpt>
      <trkpt lat="45.78832" lon="4.72658">
        <ele>320.92322</ele>
        <time>2022-10-30T14:33:34.000Z</time>
      </trkpt>
      <trkpt lat="45.78835" lon="4.72655">
        <ele>321.0481</ele>
        <time>2022-10-30T14:33:35.000Z</time>
      </trkpt>
      <trkpt lat="45.78838" lon="4.72652">
        <ele>321.19843</ele>
        <time>2022-10-30T14:33:36.000Z</time>
      </trkpt>
      <trkpt lat="45.78841" lon="4.72649">
        <ele>321.37192</ele>
        <time>2022-10-30T14:33:37.000Z</time>
      </trkpt>
      <trkpt lat="45.78844" lon="4.72646">
        <ele>321.60895</ele>
        <time>2022-10-30T14:33:38.000Z</time>
      </trkpt>
      <trkpt lat="45.78847" lon="4.72643">
        <ele>321.802</ele>
        <time>2022-10-30T14:33:39.000Z</time>
      </trkpt>
      <trkpt lat="45.7885" lon="4.7264">
        <ele>321.89795</ele>
        <time>2022-10-30T14:33:40.000Z</time>
      </trkpt>
      <trkpt lat="45.78853" lon="4.72636">
        <ele>322.039</ele>
        <time>2022-10-30T14:33:41.000Z</time>
      </trkpt>
      <trkpt lat="45.78856" lon="4.72632">
        <ele>322.15005</ele>
        <time>2022-10-30T14:33:42.000Z</time>
      </trkpt>
      <trkpt lat="45.78859" lon="4.72629">
        <ele>322.23242</ele>
        <time>2022-10-30T14:33:43.000Z</time>
      </trkpt>
      <trkpt lat="45.78862" lon="4.72626">
        <ele>322.33301</ele>
        <time>2022-10-30T14:33:44.000Z</time>
      </trkpt>
      <trkpt lat="45.78866" lon="4.72623">
        <ele>322.39661</ele>
        <time>2022-10-30T14:33:45.000Z</time>
      </trkpt>
      <trkpt lat="45.78869" lon="4.72619">
        <ele>322.48935</ele>
        <time>2022-10-30T14:33:46.000Z</time>
      </trkpt>
      <trkpt lat="45.78873" lon="4.72616">
        <ele>322.5799</ele>
        <time>2022-10-30T14:33:47.000Z</time>
      </trkpt>
      <trkpt lat="45.78876" lon="4.72613">
        <ele>322.71582</ele>
        <time>2022-10-30T14:33:48.000Z</time>
      </trkpt>
      <trkpt lat="45.78879" lon="4.72609">
        <ele>322.86237</ele>
        <time>2022-10-30T14:33:49.000Z</time>
      </trkpt>
      <trkpt lat="45.78882" lon="4.72606">
        <ele>323.00552</ele>
        <time>2022-10-30T14:33:50.000Z</time>
      </trkpt>
      <trkpt lat="45.78885" lon="4.72602">
        <ele>323.13031</ele>
        <time>2022-10-30T14:33:51.000Z</time>
      </trkpt>
      <trkpt lat="45.78888" lon="4.72599">
        <ele>323.21173</ele>
        <time>2022-10-30T14:33:52.000Z</time>
      </trkpt>
      <trkpt lat="45.78891" lon="4.72596">
        <ele>323.31244</ele>
        <time>2022-10-30T14:33:53.000Z</time>
      </trkpt>
      <trkpt lat="45.78894" lon="4.72593">
        <ele>323.41626</ele>
        <time>2022-10-30T14:33:54.000Z</time>
      </trkpt>
      <trkpt lat="45.78897" lon="4.7259">
        <ele>323.46063</ele>
        <time>2022-10-30T14:33:55.000Z</time>
      </trkpt>
      <trkpt lat="45.789" lon="4.72586">
        <ele>323.4281</ele>
        <time>2022-10-30T14:33:56.000Z</time>
      </trkpt>
      <trkpt lat="45.78903" lon="4.72582">
        <ele>323.39984</ele>
        <time>2022-10-30T14:33:57.000Z</time>
      </trkpt>
      <trkpt lat="45.78906" lon="4.72577">
        <ele>323.35443</ele>
        <time>2022-10-30T14:33:58.000Z</time>
      </trkpt>
      <trkpt lat="45.78909" lon="4.72572">
        <ele>323.35272</ele>
        <time>2022-10-30T14:33:59.000Z</time>
      </trkpt>
      <trkpt lat="45.7891" lon="4.72567">
        <ele>323.4426</ele>
        <time>2022-10-30T14:34:00.000Z</time>
      </trkpt>
      <trkpt lat="45.78912" lon="4.72561">
        <ele>323.51031</ele>
        <time>2022-10-30T14:34:01.000Z</time>
      </trkpt>
      <trkpt lat="45.78914" lon="4.72556">
        <ele>323.59711</ele>
        <time>2022-10-30T14:34:02.000Z</time>
      </trkpt>
      <trkpt lat="45.78916" lon="4.72551">
        <ele>323.70053</ele>
        <time>2022-10-30T14:34:03.000Z</time>
      </trkpt>
      <trkpt lat="45.7892" lon="4.72543">
        <ele>323.8064</ele>
        <time>2022-10-30T14:34:04.000Z</time>
      </trkpt>
      <trkpt lat="45.78923" lon="4.72538">
        <ele>323.89352</ele>
        <time>2022-10-30T14:34:05.000Z</time>
      </trkpt>
      <trkpt lat="45.78926" lon="4.72534">
        <ele>323.96573</ele>
        <time>2022-10-30T14:34:06.000Z</time>
      </trkpt>
      <trkpt lat="45.78929" lon="4.72529">
        <ele>324.03189</ele>
        <time>2022-10-30T14:34:07.000Z</time>
      </trkpt>
      <trkpt lat="45.78932" lon="4.72524">
        <ele>324.06134</ele>
        <time>2022-10-30T14:34:08.000Z</time>
      </trkpt>
      <trkpt lat="45.78935" lon="4.7252">
        <ele>324.03546</ele>
        <time>2022-10-30T14:34:09.000Z</time>
      </trkpt>
      <trkpt lat="45.78938" lon="4.72514">
        <ele>323.94815</ele>
        <time>2022-10-30T14:34:10.000Z</time>
      </trkpt>
      <trkpt lat="45.7894" lon="4.72509">
        <ele>323.86664</ele>
        <time>2022-10-30T14:34:11.000Z</time>
      </trkpt>
      <trkpt lat="45.78942" lon="4.72505">
        <ele>323.77808</ele>
        <time>2022-10-30T14:34:12.000Z</time>
      </trkpt>
      <trkpt lat="45.78942" lon="4.72499">
        <ele>323.6712</ele>
        <time>2022-10-30T14:34:13.000Z</time>
      </trkpt>
      <trkpt lat="45.78942" lon="4.72493">
        <ele>323.58926</ele>
        <time>2022-10-30T14:34:14.000Z</time>
      </trkpt>
      <trkpt lat="45.7894" lon="4.72489">
        <ele>323.58966</ele>
        <time>2022-10-30T14:34:15.000Z</time>
      </trkpt>
      <trkpt lat="45.78939" lon="4.72483">
        <ele>323.60703</ele>
        <time>2022-10-30T14:34:16.000Z</time>
      </trkpt>
      <trkpt lat="45.78937" lon="4.72478">
        <ele>323.5947</ele>
        <time>2022-10-30T14:34:17.000Z</time>
      </trkpt>
      <trkpt lat="45.78935" lon="4.72473">
        <ele>323.56085</ele>
        <time>2022-10-30T14:34:18.000Z</time>
      </trkpt>
      <trkpt lat="45.78932" lon="4.72469">
        <ele>323.55499</ele>
        <time>2022-10-30T14:34:19.000Z</time>
      </trkpt>
      <trkpt lat="45.78929" lon="4.72466">
        <ele>323.49084</ele>
        <time>2022-10-30T14:34:20.000Z</time>
      </trkpt>
      <trkpt lat="45.78927" lon="4.72465">
        <ele>323.39438</ele>
        <time>2022-10-30T14:34:21.000Z</time>
      </trkpt>
      <trkpt lat="45.78926" lon="4.72464">
        <ele>323.23828</ele>
        <time>2022-10-30T14:34:22.000Z</time>
      </trkpt>
      <trkpt lat="45.78924" lon="4.72463">
        <ele>323.07364</ele>
        <time>2022-10-30T14:34:23.000Z</time>
      </trkpt>
      <trkpt lat="45.78922" lon="4.72462">
        <ele>322.8764</ele>
        <time>2022-10-30T14:34:24.000Z</time>
      </trkpt>
      <trkpt lat="45.7892" lon="4.7246">
        <ele>322.71381</ele>
        <time>2022-10-30T14:34:25.000Z</time>
      </trkpt>
      <trkpt lat="45.78918" lon="4.72459">
        <ele>322.56781</ele>
        <time>2022-10-30T14:34:26.000Z</time>
      </trkpt>
      <trkpt lat="45.78916" lon="4.72458">
        <ele>322.44913</ele>
        <time>2022-10-30T14:34:27.000Z</time>
      </trkpt>
      <trkpt lat="45.78914" lon="4.72457">
        <ele>322.35541</ele>
        <time>2022-10-30T14:34:28.000Z</time>
      </trkpt>
      <trkpt lat="45.78911" lon="4.72453">
        <ele>322.33539</ele>
        <time>2022-10-30T14:34:30.000Z</time>
      </trkpt>
      <trkpt lat="45.78909" lon="4.7245">
        <ele>322.36679</ele>
        <time>2022-10-30T14:34:31.000Z</time>
      </trkpt>
      <trkpt lat="45.78906" lon="4.72448">
        <ele>322.35333</ele>
        <time>2022-10-30T14:34:32.000Z</time>
      </trkpt>
      <trkpt lat="45.78903" lon="4.72445">
        <ele>322.31387</ele>
        <time>2022-10-30T14:34:33.000Z</time>
      </trkpt>
      <trkpt lat="45.78899" lon="4.72441">
        <ele>322.2774</ele>
        <time>2022-10-30T14:34:34.000Z</time>
      </trkpt>
      <trkpt lat="45.78897" lon="4.72437">
        <ele>322.19415</ele>
        <time>2022-10-30T14:34:35.000Z</time>
      </trkpt>
      <trkpt lat="45.78895" lon="4.72433">
        <ele>322.06232</ele>
        <time>2022-10-30T14:34:36.000Z</time>
      </trkpt>
      <trkpt lat="45.78895" lon="4.7243">
        <ele>321.98672</ele>
        <time>2022-10-30T14:34:37.000Z</time>
      </trkpt>
      <trkpt lat="45.78895" lon="4.72427">
        <ele>321.94681</ele>
        <time>2022-10-30T14:34:38.000Z</time>
      </trkpt>
      <trkpt lat="45.78896" lon="4.72424">
        <ele>321.83405</ele>
        <time>2022-10-30T14:34:39.000Z</time>
      </trkpt>
      <trkpt lat="45.78897" lon="4.72421">
        <ele>321.82047</ele>
        <time>2022-10-30T14:34:40.000Z</time>
      </trkpt>
      <trkpt lat="45.78899" lon="4.72418">
        <ele>321.89087</ele>
        <time>2022-10-30T14:34:42.000Z</time>
      </trkpt>
      <trkpt lat="45.78901" lon="4.72416">
        <ele>321.95892</ele>
        <time>2022-10-30T14:34:43.000Z</time>
      </trkpt>
      <trkpt lat="45.78903" lon="4.72415">
        <ele>321.99521</ele>
        <time>2022-10-30T14:34:44.000Z</time>
      </trkpt>
      <trkpt lat="45.78905" lon="4.72413">
        <ele>322.04486</ele>
        <time>2022-10-30T14:34:45.000Z</time>
      </trkpt>
      <trkpt lat="45.78907" lon="4.72412">
        <ele>322.05771</ele>
        <time>2022-10-30T14:34:46.000Z</time>
      </trkpt>
      <trkpt lat="45.7891" lon="4.72411">
        <ele>322.01886</ele>
        <time>2022-10-30T14:34:47.000Z</time>
      </trkpt>
      <trkpt lat="45.78913" lon="4.72409">
        <ele>321.96729</ele>
        <time>2022-10-30T14:34:48.000Z</time>
      </trkpt>
      <trkpt lat="45.78916" lon="4.72408">
        <ele>321.87079</ele>
        <time>2022-10-30T14:34:49.000Z</time>
      </trkpt>
      <trkpt lat="45.78919" lon="4.72406">
        <ele>321.72858</ele>
        <time>2022-10-30T14:34:50.000Z</time>
      </trkpt>
      <trkpt lat="45.78923" lon="4.72404">
        <ele>321.55881</ele>
        <time>2022-10-30T14:34:51.000Z</time>
      </trkpt>
      <trkpt lat="45.78927" lon="4.72402">
        <ele>321.40237</ele>
        <time>2022-10-30T14:34:52.000Z</time>
      </trkpt>
      <trkpt lat="45.78931" lon="4.724">
        <ele>321.32419</ele>
        <time>2022-10-30T14:34:53.000Z</time>
      </trkpt>
      <trkpt lat="45.78935" lon="4.72398">
        <ele>321.26318</ele>
        <time>2022-10-30T14:34:54.000Z</time>
      </trkpt>
      <trkpt lat="45.78938" lon="4.72397">
        <ele>321.19507</ele>
        <time>2022-10-30T14:34:55.000Z</time>
      </trkpt>
      <trkpt lat="45.78942" lon="4.72395">
        <ele>321.07043</ele>
        <time>2022-10-30T14:34:56.000Z</time>
      </trkpt>
      <trkpt lat="45.78946" lon="4.72393">
        <ele>320.97232</ele>
        <time>2022-10-30T14:34:57.000Z</time>
      </trkpt>
      <trkpt lat="45.78949" lon="4.72391">
        <ele>320.88788</ele>
        <time>2022-10-30T14:34:58.000Z</time>
      </trkpt>
      <trkpt lat="45.78951" lon="4.7239">
        <ele>320.67279</ele>
        <time>2022-10-30T14:34:59.000Z</time>
      </trkpt>
      <trkpt lat="45.78953" lon="4.72389">
        <ele>320.48721</ele>
        <time>2022-10-30T14:35:00.000Z</time>
      </trkpt>
      <trkpt lat="45.78956" lon="4.72388">
        <ele>320.10547</ele>
        <time>2022-10-30T14:35:01.000Z</time>
      </trkpt>
      <trkpt lat="45.78959" lon="4.72388">
        <ele>319.6456</ele>
        <time>2022-10-30T14:35:02.000Z</time>
      </trkpt>
      <trkpt lat="45.78962" lon="4.72387">
        <ele>319.17407</ele>
        <time>2022-10-30T14:35:03.000Z</time>
      </trkpt>
      <trkpt lat="45.78965" lon="4.72386">
        <ele>318.86057</ele>
        <time>2022-10-30T14:35:04.000Z</time>
      </trkpt>
      <trkpt lat="45.78969" lon="4.72384">
        <ele>318.55435</ele>
        <time>2022-10-30T14:35:05.000Z</time>
      </trkpt>
      <trkpt lat="45.78973" lon="4.72382">
        <ele>318.32382</ele>
        <time>2022-10-30T14:35:06.000Z</time>
      </trkpt>
      <trkpt lat="45.78977" lon="4.72381">
        <ele>318.19016</ele>
        <time>2022-10-30T14:35:07.000Z</time>
      </trkpt>
      <trkpt lat="45.78981" lon="4.7238">
        <ele>318.04868</ele>
        <time>2022-10-30T14:35:08.000Z</time>
      </trkpt>
      <trkpt lat="45.78984" lon="4.72377">
        <ele>318.02374</ele>
        <time>2022-10-30T14:35:09.000Z</time>
      </trkpt>
      <trkpt lat="45.78987" lon="4.72373">
        <ele>318.01166</ele>
        <time>2022-10-30T14:35:10.000Z</time>
      </trkpt>
      <trkpt lat="45.7899" lon="4.72368">
        <ele>318.05356</ele>
        <time>2022-10-30T14:35:11.000Z</time>
      </trkpt>
      <trkpt lat="45.78991" lon="4.72363">
        <ele>318.13135</ele>
        <time>2022-10-30T14:35:12.000Z</time>
      </trkpt>
      <trkpt lat="45.78992" lon="4.72358">
        <ele>318.19562</ele>
        <time>2022-10-30T14:35:13.000Z</time>
      </trkpt>
      <trkpt lat="45.78993" lon="4.72353">
        <ele>318.18234</ele>
        <time>2022-10-30T14:35:14.000Z</time>
      </trkpt>
      <trkpt lat="45.78993" lon="4.72348">
        <ele>318.12592</ele>
        <time>2022-10-30T14:35:15.000Z</time>
      </trkpt>
      <trkpt lat="45.78993" lon="4.72343">
        <ele>318.11951</ele>
        <time>2022-10-30T14:35:16.000Z</time>
      </trkpt>
      <trkpt lat="45.78994" lon="4.72338">
        <ele>318.13324</ele>
        <time>2022-10-30T14:35:17.000Z</time>
      </trkpt>
      <trkpt lat="45.78995" lon="4.72332">
        <ele>318.09576</ele>
        <time>2022-10-30T14:35:18.000Z</time>
      </trkpt>
      <trkpt lat="45.78996" lon="4.72327">
        <ele>318.147</ele>
        <time>2022-10-30T14:35:19.000Z</time>
      </trkpt>
      <trkpt lat="45.78998" lon="4.72322">
        <ele>318.24771</ele>
        <time>2022-10-30T14:35:20.000Z</time>
      </trkpt>
      <trkpt lat="45.78999" lon="4.72317">
        <ele>318.46796</ele>
        <time>2022-10-30T14:35:21.000Z</time>
      </trkpt>
      <trkpt lat="45.79" lon="4.72312">
        <ele>318.74554</ele>
        <time>2022-10-30T14:35:22.000Z</time>
      </trkpt>
      <trkpt lat="45.79001" lon="4.72307">
        <ele>318.97607</ele>
        <time>2022-10-30T14:35:23.000Z</time>
      </trkpt>
      <trkpt lat="45.79001" lon="4.72303">
        <ele>319.17181</ele>
        <time>2022-10-30T14:35:24.000Z</time>
      </trkpt>
      <trkpt lat="45.79002" lon="4.72299">
        <ele>319.4017</ele>
        <time>2022-10-30T14:35:25.000Z</time>
      </trkpt>
      <trkpt lat="45.79002" lon="4.72294">
        <ele>319.6355</ele>
        <time>2022-10-30T14:35:26.000Z</time>
      </trkpt>
      <trkpt lat="45.79002" lon="4.7229">
        <ele>319.78815</ele>
        <time>2022-10-30T14:35:27.000Z</time>
      </trkpt>
      <trkpt lat="45.79001" lon="4.72284">
        <ele>319.97501</ele>
        <time>2022-10-30T14:35:28.000Z</time>
      </trkpt>
      <trkpt lat="45.79001" lon="4.7228">
        <ele>320.08221</ele>
        <time>2022-10-30T14:35:29.000Z</time>
      </trkpt>
      <trkpt lat="45.79" lon="4.72276">
        <ele>320.06195</ele>
        <time>2022-10-30T14:35:31.000Z</time>
      </trkpt>
      <trkpt lat="45.79001" lon="4.72272">
        <ele>319.96088</ele>
        <time>2022-10-30T14:35:33.000Z</time>
      </trkpt>
      <trkpt lat="45.79001" lon="4.7227">
        <ele>319.82077</ele>
        <time>2022-10-30T14:35:34.000Z</time>
      </trkpt>
      <trkpt lat="45.79001" lon="4.72265">
        <ele>319.64108</ele>
        <time>2022-10-30T14:35:36.000Z</time>
      </trkpt>
      <trkpt lat="45.79001" lon="4.72262">
        <ele>319.52121</ele>
        <time>2022-10-30T14:35:37.000Z</time>
      </trkpt>
      <trkpt lat="45.79" lon="4.72259">
        <ele>319.47174</ele>
        <time>2022-10-30T14:35:38.000Z</time>
      </trkpt>
      <trkpt lat="45.79" lon="4.72256">
        <ele>319.38367</ele>
        <time>2022-10-30T14:35:39.000Z</time>
      </trkpt>
      <trkpt lat="45.78998" lon="4.72253">
        <ele>319.21371</ele>
        <time>2022-10-30T14:35:40.000Z</time>
      </trkpt>
      <trkpt lat="45.78997" lon="4.72249">
        <ele>319.08578</ele>
        <time>2022-10-30T14:35:41.000Z</time>
      </trkpt>
      <trkpt lat="45.78995" lon="4.72245">
        <ele>318.98013</ele>
        <time>2022-10-30T14:35:42.000Z</time>
      </trkpt>
      <trkpt lat="45.78994" lon="4.7224">
        <ele>318.78546</ele>
        <time>2022-10-30T14:35:43.000Z</time>
      </trkpt>
      <trkpt lat="45.78993" lon="4.72236">
        <ele>318.49564</ele>
        <time>2022-10-30T14:35:44.000Z</time>
      </trkpt>
      <trkpt lat="45.78992" lon="4.72231">
        <ele>318.16907</ele>
        <time>2022-10-30T14:35:45.000Z</time>
      </trkpt>
      <trkpt lat="45.7899" lon="4.72225">
        <ele>317.90057</ele>
        <time>2022-10-30T14:35:46.000Z</time>
      </trkpt>
      <trkpt lat="45.78988" lon="4.7222">
        <ele>317.59222</ele>
        <time>2022-10-30T14:35:47.000Z</time>
      </trkpt>
      <trkpt lat="45.78986" lon="4.72215">
        <ele>317.27899</ele>
        <time>2022-10-30T14:35:48.000Z</time>
      </trkpt>
      <trkpt lat="45.78984" lon="4.72211">
        <ele>316.9397</ele>
        <time>2022-10-30T14:35:49.000Z</time>
      </trkpt>
      <trkpt lat="45.78982" lon="4.72206">
        <ele>316.62164</ele>
        <time>2022-10-30T14:35:50.000Z</time>
      </trkpt>
      <trkpt lat="45.78979" lon="4.72202">
        <ele>316.31866</ele>
        <time>2022-10-30T14:35:51.000Z</time>
      </trkpt>
      <trkpt lat="45.78976" lon="4.72197">
        <ele>315.95737</ele>
        <time>2022-10-30T14:35:52.000Z</time>
      </trkpt>
      <trkpt lat="45.78973" lon="4.72193">
        <ele>315.6904</ele>
        <time>2022-10-30T14:35:53.000Z</time>
      </trkpt>
      <trkpt lat="45.78969" lon="4.72191">
        <ele>315.43909</ele>
        <time>2022-10-30T14:35:54.000Z</time>
      </trkpt>
      <trkpt lat="45.78965" lon="4.72189">
        <ele>315.1745</ele>
        <time>2022-10-30T14:35:55.000Z</time>
      </trkpt>
      <trkpt lat="45.78961" lon="4.72188">
        <ele>314.97974</ele>
        <time>2022-10-30T14:35:56.000Z</time>
      </trkpt>
      <trkpt lat="45.78957" lon="4.72186">
        <ele>314.8302</ele>
        <time>2022-10-30T14:35:57.000Z</time>
      </trkpt>
      <trkpt lat="45.78954" lon="4.72183">
        <ele>314.61279</ele>
        <time>2022-10-30T14:35:58.000Z</time>
      </trkpt>
      <trkpt lat="45.78952" lon="4.72178">
        <ele>314.45959</ele>
        <time>2022-10-30T14:35:59.000Z</time>
      </trkpt>
      <trkpt lat="45.78951" lon="4.72172">
        <ele>314.28424</ele>
        <time>2022-10-30T14:36:00.000Z</time>
      </trkpt>
      <trkpt lat="45.78952" lon="4.72167">
        <ele>314.06641</ele>
        <time>2022-10-30T14:36:01.000Z</time>
      </trkpt>
      <trkpt lat="45.78954" lon="4.72163">
        <ele>313.81116</ele>
        <time>2022-10-30T14:36:02.000Z</time>
      </trkpt>
      <trkpt lat="45.78957" lon="4.72159">
        <ele>313.61145</ele>
        <time>2022-10-30T14:36:03.000Z</time>
      </trkpt>
      <trkpt lat="45.7896" lon="4.72155">
        <ele>313.49088</ele>
        <time>2022-10-30T14:36:04.000Z</time>
      </trkpt>
      <trkpt lat="45.78962" lon="4.72151">
        <ele>313.42145</ele>
        <time>2022-10-30T14:36:05.000Z</time>
      </trkpt>
      <trkpt lat="45.78964" lon="4.72147">
        <ele>313.38544</ele>
        <time>2022-10-30T14:36:06.000Z</time>
      </trkpt>
      <trkpt lat="45.78966" lon="4.72143">
        <ele>313.3288</ele>
        <time>2022-10-30T14:36:07.000Z</time>
      </trkpt>
      <trkpt lat="45.78968" lon="4.72139">
        <ele>313.28436</ele>
        <time>2022-10-30T14:36:08.000Z</time>
      </trkpt>
      <trkpt lat="45.7897" lon="4.72134">
        <ele>313.24335</ele>
        <time>2022-10-30T14:36:09.000Z</time>
      </trkpt>
      <trkpt lat="45.7897" lon="4.72129">
        <ele>313.1474</ele>
        <time>2022-10-30T14:36:10.000Z</time>
      </trkpt>
      <trkpt lat="45.7897" lon="4.72124">
        <ele>313.03058</ele>
        <time>2022-10-30T14:36:11.000Z</time>
      </trkpt>
      <trkpt lat="45.7897" lon="4.72119">
        <ele>312.96155</ele>
        <time>2022-10-30T14:36:12.000Z</time>
      </trkpt>
      <trkpt lat="45.78968" lon="4.72115">
        <ele>312.95535</ele>
        <time>2022-10-30T14:36:13.000Z</time>
      </trkpt>
      <trkpt lat="45.78966" lon="4.72111">
        <ele>312.90509</ele>
        <time>2022-10-30T14:36:14.000Z</time>
      </trkpt>
      <trkpt lat="45.78964" lon="4.72108">
        <ele>312.90057</ele>
        <time>2022-10-30T14:36:15.000Z</time>
      </trkpt>
      <trkpt lat="45.78962" lon="4.72104">
        <ele>312.81201</ele>
        <time>2022-10-30T14:36:16.000Z</time>
      </trkpt>
      <trkpt lat="45.7896" lon="4.721">
        <ele>312.71698</ele>
        <time>2022-10-30T14:36:17.000Z</time>
      </trkpt>
      <trkpt lat="45.78957" lon="4.72096">
        <ele>312.7182</ele>
        <time>2022-10-30T14:36:18.000Z</time>
      </trkpt>
      <trkpt lat="45.78955" lon="4.72092">
        <ele>312.75317</ele>
        <time>2022-10-30T14:36:19.000Z</time>
      </trkpt>
      <trkpt lat="45.78952" lon="4.72088">
        <ele>312.82794</ele>
        <time>2022-10-30T14:36:20.000Z</time>
      </trkpt>
      <trkpt lat="45.7895" lon="4.72085">
        <ele>312.93619</ele>
        <time>2022-10-30T14:36:21.000Z</time>
      </trkpt>
      <trkpt lat="45.78947" lon="4.7208">
        <ele>313.08279</ele>
        <time>2022-10-30T14:36:22.000Z</time>
      </trkpt>
      <trkpt lat="45.78945" lon="4.72076">
        <ele>313.21161</ele>
        <time>2022-10-30T14:36:23.000Z</time>
      </trkpt>
      <trkpt lat="45.78943" lon="4.72071">
        <ele>313.28427</ele>
        <time>2022-10-30T14:36:24.000Z</time>
      </trkpt>
      <trkpt lat="45.78942" lon="4.72067">
        <ele>313.27188</ele>
        <time>2022-10-30T14:36:25.000Z</time>
      </trkpt>
      <trkpt lat="45.78942" lon="4.72065">
        <ele>313.30096</ele>
        <time>2022-10-30T14:36:27.000Z</time>
      </trkpt>
      <trkpt lat="45.7894" lon="4.72063">
        <ele>313.60818</ele>
        <time>2022-10-30T14:37:06.000Z</time>
      </trkpt>
      <trkpt lat="45.78938" lon="4.72064">
        <ele>313.75845</ele>
        <time>2022-10-30T14:37:11.000Z</time>
      </trkpt>
      <trkpt lat="45.78936" lon="4.72063">
        <ele>313.9978</ele>
        <time>2022-10-30T14:37:56.000Z</time>
      </trkpt>
      <trkpt lat="45.78933" lon="4.72062">
        <ele>314.20099</ele>
        <time>2022-10-30T14:37:57.000Z</time>
      </trkpt>
      <trkpt lat="45.7893" lon="4.72061">
        <ele>314.32846</ele>
        <time>2022-10-30T14:37:58.000Z</time>
      </trkpt>
      <trkpt lat="45.78928" lon="4.7206">
        <ele>314.42841</ele>
        <time>2022-10-30T14:37:59.000Z</time>
      </trkpt>
      <trkpt lat="45.78925" lon="4.72058">
        <ele>314.49451</ele>
        <time>2022-10-30T14:38:00.000Z</time>
      </trkpt>
      <trkpt lat="45.78923" lon="4.72055">
        <ele>314.61035</ele>
        <time>2022-10-30T14:38:01.000Z</time>
      </trkpt>
      <trkpt lat="45.78919" lon="4.72052">
        <ele>314.64166</ele>
        <time>2022-10-30T14:38:02.000Z</time>
      </trkpt>
      <trkpt lat="45.78916" lon="4.72049">
        <ele>314.68793</ele>
        <time>2022-10-30T14:38:03.000Z</time>
      </trkpt>
      <trkpt lat="45.78913" lon="4.72046">
        <ele>314.69235</ele>
        <time>2022-10-30T14:38:04.000Z</time>
      </trkpt>
      <trkpt lat="45.7891" lon="4.72044">
        <ele>314.61853</ele>
        <time>2022-10-30T14:38:05.000Z</time>
      </trkpt>
      <trkpt lat="45.78907" lon="4.72041">
        <ele>314.48401</ele>
        <time>2022-10-30T14:38:06.000Z</time>
      </trkpt>
      <trkpt lat="45.78904" lon="4.7204">
        <ele>314.31348</ele>
        <time>2022-10-30T14:38:07.000Z</time>
      </trkpt>
      <trkpt lat="45.78901" lon="4.72038">
        <ele>314.07993</ele>
        <time>2022-10-30T14:38:08.000Z</time>
      </trkpt>
      <trkpt lat="45.78897" lon="4.72035">
        <ele>313.897</ele>
        <time>2022-10-30T14:38:09.000Z</time>
      </trkpt>
      <trkpt lat="45.78893" lon="4.7203">
        <ele>313.75879</ele>
        <time>2022-10-30T14:38:10.000Z</time>
      </trkpt>
      <trkpt lat="45.78891" lon="4.72025">
        <ele>313.59528</ele>
        <time>2022-10-30T14:38:11.000Z</time>
      </trkpt>
      <trkpt lat="45.78887" lon="4.72016">
        <ele>313.44385</ele>
        <time>2022-10-30T14:38:12.000Z</time>
      </trkpt>
      <trkpt lat="45.78883" lon="4.72012">
        <ele>313.31589</ele>
        <time>2022-10-30T14:38:13.000Z</time>
      </trkpt>
      <trkpt lat="45.7888" lon="4.72009">
        <ele>313.01495</ele>
        <time>2022-10-30T14:38:14.000Z</time>
      </trkpt>
      <trkpt lat="45.78875" lon="4.72005">
        <ele>312.83524</ele>
        <time>2022-10-30T14:38:15.000Z</time>
      </trkpt>
      <trkpt lat="45.78871" lon="4.72003">
        <ele>312.58368</ele>
        <time>2022-10-30T14:38:16.000Z</time>
      </trkpt>
      <trkpt lat="45.78868" lon="4.72">
        <ele>312.37314</ele>
        <time>2022-10-30T14:38:17.000Z</time>
      </trkpt>
      <trkpt lat="45.78863" lon="4.71997">
        <ele>312.25687</ele>
        <time>2022-10-30T14:38:18.000Z</time>
      </trkpt>
      <trkpt lat="45.78859" lon="4.71993">
        <ele>312.16019</ele>
        <time>2022-10-30T14:38:19.000Z</time>
      </trkpt>
      <trkpt lat="45.78855" lon="4.71988">
        <ele>312.08072</ele>
        <time>2022-10-30T14:38:20.000Z</time>
      </trkpt>
      <trkpt lat="45.78851" lon="4.71984">
        <ele>311.96463</ele>
        <time>2022-10-30T14:38:21.000Z</time>
      </trkpt>
      <trkpt lat="45.78848" lon="4.71979">
        <ele>311.9292</ele>
        <time>2022-10-30T14:38:22.000Z</time>
      </trkpt>
      <trkpt lat="45.78845" lon="4.71975">
        <ele>311.88098</ele>
        <time>2022-10-30T14:38:23.000Z</time>
      </trkpt>
      <trkpt lat="45.78842" lon="4.71973">
        <ele>311.85815</ele>
        <time>2022-10-30T14:38:24.000Z</time>
      </trkpt>
      <trkpt lat="45.78839" lon="4.7197">
        <ele>311.86755</ele>
        <time>2022-10-30T14:38:25.000Z</time>
      </trkpt>
      <trkpt lat="45.78836" lon="4.71966">
        <ele>311.88913</ele>
        <time>2022-10-30T14:38:26.000Z</time>
      </trkpt>
      <trkpt lat="45.78833" lon="4.71961">
        <ele>311.9433</ele>
        <time>2022-10-30T14:38:27.000Z</time>
      </trkpt>
      <trkpt lat="45.7883" lon="4.71957">
        <ele>312.05927</ele>
        <time>2022-10-30T14:38:28.000Z</time>
      </trkpt>
      <trkpt lat="45.78828" lon="4.71952">
        <ele>312.17743</ele>
        <time>2022-10-30T14:38:29.000Z</time>
      </trkpt>
      <trkpt lat="45.78826" lon="4.71946">
        <ele>312.39914</ele>
        <time>2022-10-30T14:38:30.000Z</time>
      </trkpt>
      <trkpt lat="45.78825" lon="4.71939">
        <ele>312.68939</ele>
        <time>2022-10-30T14:38:31.000Z</time>
      </trkpt>
      <trkpt lat="45.78825" lon="4.71933">
        <ele>313.06354</ele>
        <time>2022-10-30T14:38:32.000Z</time>
      </trkpt>
      <trkpt lat="45.78824" lon="4.71926">
        <ele>313.4339</ele>
        <time>2022-10-30T14:38:33.000Z</time>
      </trkpt>
      <trkpt lat="45.78823" lon="4.7192">
        <ele>313.71893</ele>
        <time>2022-10-30T14:38:34.000Z</time>
      </trkpt>
      <trkpt lat="45.78823" lon="4.71913">
        <ele>314.00238</ele>
        <time>2022-10-30T14:38:35.000Z</time>
      </trkpt>
      <trkpt lat="45.78824" lon="4.71907">
        <ele>314.27203</ele>
        <time>2022-10-30T14:38:36.000Z</time>
      </trkpt>
      <trkpt lat="45.78825" lon="4.71901">
        <ele>314.50629</ele>
        <time>2022-10-30T14:38:37.000Z</time>
      </trkpt>
      <trkpt lat="45.78827" lon="4.71896">
        <ele>314.63785</ele>
        <time>2022-10-30T14:38:38.000Z</time>
      </trkpt>
      <trkpt lat="45.78829" lon="4.71892">
        <ele>314.75873</ele>
        <time>2022-10-30T14:38:39.000Z</time>
      </trkpt>
      <trkpt lat="45.7883" lon="4.71887">
        <ele>314.9429</ele>
        <time>2022-10-30T14:38:40.000Z</time>
      </trkpt>
      <trkpt lat="45.7883" lon="4.71883">
        <ele>315.29327</ele>
        <time>2022-10-30T14:38:41.000Z</time>
      </trkpt>
      <trkpt lat="45.78831" lon="4.71877">
        <ele>315.68134</ele>
        <time>2022-10-30T14:38:42.000Z</time>
      </trkpt>
      <trkpt lat="45.7883" lon="4.7187">
        <ele>316.14246</ele>
        <time>2022-10-30T14:38:43.000Z</time>
      </trkpt>
      <trkpt lat="45.7883" lon="4.71865">
        <ele>316.68042</ele>
        <time>2022-10-30T14:38:44.000Z</time>
      </trkpt>
      <trkpt lat="45.78829" lon="4.71859">
        <ele>317.1828</ele>
        <time>2022-10-30T14:38:45.000Z</time>
      </trkpt>
      <trkpt lat="45.78827" lon="4.71855">
        <ele>317.7272</ele>
        <time>2022-10-30T14:38:46.000Z</time>
      </trkpt>
      <trkpt lat="45.78825" lon="4.7185">
        <ele>318.26013</ele>
        <time>2022-10-30T14:38:47.000Z</time>
      </trkpt>
      <trkpt lat="45.78824" lon="4.71846">
        <ele>318.8028</ele>
        <time>2022-10-30T14:38:48.000Z</time>
      </trkpt>
      <trkpt lat="45.78823" lon="4.71842">
        <ele>319.2814</ele>
        <time>2022-10-30T14:38:49.000Z</time>
      </trkpt>
      <trkpt lat="45.78825" lon="4.71838">
        <ele>319.68097</ele>
        <time>2022-10-30T14:38:51.000Z</time>
      </trkpt>
      <trkpt lat="45.78827" lon="4.71838">
        <ele>320.07507</ele>
        <time>2022-10-30T14:38:52.000Z</time>
      </trkpt>
      <trkpt lat="45.78829" lon="4.71841">
        <ele>320.41766</ele>
        <time>2022-10-30T14:38:53.000Z</time>
      </trkpt>
      <trkpt lat="45.78831" lon="4.71844">
        <ele>320.65665</ele>
        <time>2022-10-30T14:38:54.000Z</time>
      </trkpt>
      <trkpt lat="45.78831" lon="4.71848">
        <ele>320.91254</ele>
        <time>2022-10-30T14:38:55.000Z</time>
      </trkpt>
      <trkpt lat="45.78832" lon="4.71852">
        <ele>321.14679</ele>
        <time>2022-10-30T14:38:56.000Z</time>
      </trkpt>
      <trkpt lat="45.78833" lon="4.71856">
        <ele>321.38</ele>
        <time>2022-10-30T14:38:57.000Z</time>
      </trkpt>
      <trkpt lat="45.78834" lon="4.71859">
        <ele>321.68906</ele>
        <time>2022-10-30T14:38:58.000Z</time>
      </trkpt>
      <trkpt lat="45.78834" lon="4.71862">
        <ele>322.06439</ele>
        <time>2022-10-30T14:38:59.000Z</time>
      </trkpt>
      <trkpt lat="45.78835" lon="4.71865">
        <ele>322.42151</ele>
        <time>2022-10-30T14:39:00.000Z</time>
      </trkpt>
      <trkpt lat="45.78836" lon="4.71867">
        <ele>322.69742</ele>
        <time>2022-10-30T14:39:01.000Z</time>
      </trkpt>
      <trkpt lat="45.78836" lon="4.71872">
        <ele>322.88629</ele>
        <time>2022-10-30T14:39:03.000Z</time>
      </trkpt>
      <trkpt lat="45.78838" lon="4.71874">
        <ele>322.97699</ele>
        <time>2022-10-30T14:39:28.000Z</time>
      </trkpt>
      <trkpt lat="45.78839" lon="4.71877">
        <ele>323.03165</ele>
        <time>2022-10-30T14:39:29.000Z</time>
      </trkpt>
      <trkpt lat="45.7884" lon="4.71879">
        <ele>323.0126</ele>
        <time>2022-10-30T14:39:30.000Z</time>
      </trkpt>
      <trkpt lat="45.78841" lon="4.71882">
        <ele>322.99353</ele>
        <time>2022-10-30T14:39:31.000Z</time>
      </trkpt>
      <trkpt lat="45.78842" lon="4.71885">
        <ele>322.91986</ele>
        <time>2022-10-30T14:39:32.000Z</time>
      </trkpt>
      <trkpt lat="45.78843" lon="4.71889">
        <ele>322.89896</ele>
        <time>2022-10-30T14:39:33.000Z</time>
      </trkpt>
      <trkpt lat="45.78844" lon="4.71893">
        <ele>322.87723</ele>
        <time>2022-10-30T14:39:34.000Z</time>
      </trkpt>
      <trkpt lat="45.78845" lon="4.71898">
        <ele>322.78683</ele>
        <time>2022-10-30T14:39:35.000Z</time>
      </trkpt>
      <trkpt lat="45.78846" lon="4.71901">
        <ele>322.67325</ele>
        <time>2022-10-30T14:39:36.000Z</time>
      </trkpt>
      <trkpt lat="45.78847" lon="4.71904">
        <ele>322.57135</ele>
        <time>2022-10-30T14:39:37.000Z</time>
      </trkpt>
      <trkpt lat="45.78848" lon="4.71908">
        <ele>322.52756</ele>
        <time>2022-10-30T14:39:38.000Z</time>
      </trkpt>
      <trkpt lat="45.7885" lon="4.71913">
        <ele>322.5358</ele>
        <time>2022-10-30T14:39:39.000Z</time>
      </trkpt>
      <trkpt lat="45.78851" lon="4.71917">
        <ele>322.55356</ele>
        <time>2022-10-30T14:39:40.000Z</time>
      </trkpt>
      <trkpt lat="45.78853" lon="4.71921">
        <ele>322.61249</ele>
        <time>2022-10-30T14:39:41.000Z</time>
      </trkpt>
      <trkpt lat="45.78854" lon="4.71924">
        <ele>322.64621</ele>
        <time>2022-10-30T14:39:42.000Z</time>
      </trkpt>
      <trkpt lat="45.78856" lon="4.71928">
        <ele>322.68262</ele>
        <time>2022-10-30T14:39:43.000Z</time>
      </trkpt>
      <trkpt lat="45.78858" lon="4.7193">
        <ele>322.69403</ele>
        <time>2022-10-30T14:39:44.000Z</time>
      </trkpt>
      <trkpt lat="45.7886" lon="4.71934">
        <ele>322.74518</ele>
        <time>2022-10-30T14:39:45.000Z</time>
      </trkpt>
      <trkpt lat="45.78863" lon="4.71936">
        <ele>322.79053</ele>
        <time>2022-10-30T14:39:46.000Z</time>
      </trkpt>
      <trkpt lat="45.78866" lon="4.71938">
        <ele>322.82715</ele>
        <time>2022-10-30T14:39:47.000Z</time>
      </trkpt>
      <trkpt lat="45.78869" lon="4.71938">
        <ele>322.88788</ele>
        <time>2022-10-30T14:39:48.000Z</time>
      </trkpt>
      <trkpt lat="45.78872" lon="4.71939">
        <ele>322.92938</ele>
        <time>2022-10-30T14:39:49.000Z</time>
      </trkpt>
      <trkpt lat="45.78875" lon="4.71938">
        <ele>322.97284</ele>
        <time>2022-10-30T14:39:50.000Z</time>
      </trkpt>
      <trkpt lat="45.78879" lon="4.71937">
        <ele>323.04163</ele>
        <time>2022-10-30T14:39:51.000Z</time>
      </trkpt>
      <trkpt lat="45.78882" lon="4.71936">
        <ele>323.14484</ele>
        <time>2022-10-30T14:39:52.000Z</time>
      </trkpt>
      <trkpt lat="45.78885" lon="4.71935">
        <ele>323.2106</ele>
        <time>2022-10-30T14:39:53.000Z</time>
      </trkpt>
      <trkpt lat="45.78888" lon="4.71933">
        <ele>323.26889</ele>
        <time>2022-10-30T14:39:54.000Z</time>
      </trkpt>
      <trkpt lat="45.78891" lon="4.71931">
        <ele>323.43213</ele>
        <time>2022-10-30T14:39:55.000Z</time>
      </trkpt>
      <trkpt lat="45.78893" lon="4.71929">
        <ele>323.59622</ele>
        <time>2022-10-30T14:39:56.000Z</time>
      </trkpt>
      <trkpt lat="45.78896" lon="4.71927">
        <ele>323.7363</ele>
        <time>2022-10-30T14:39:57.000Z</time>
      </trkpt>
      <trkpt lat="45.78898" lon="4.71925">
        <ele>323.76871</ele>
        <time>2022-10-30T14:39:58.000Z</time>
      </trkpt>
      <trkpt lat="45.789" lon="4.71923">
        <ele>323.81671</ele>
        <time>2022-10-30T14:39:59.000Z</time>
      </trkpt>
      <trkpt lat="45.78902" lon="4.71921">
        <ele>323.78513</ele>
        <time>2022-10-30T14:40:00.000Z</time>
      </trkpt>
      <trkpt lat="45.78905" lon="4.71919">
        <ele>323.77719</ele>
        <time>2022-10-30T14:40:01.000Z</time>
      </trkpt>
      <trkpt lat="45.78908" lon="4.71917">
        <ele>323.7608</ele>
        <time>2022-10-30T14:40:02.000Z</time>
      </trkpt>
      <trkpt lat="45.78911" lon="4.71915">
        <ele>323.79449</ele>
        <time>2022-10-30T14:40:03.000Z</time>
      </trkpt>
      <trkpt lat="45.78913" lon="4.71912">
        <ele>323.85965</ele>
        <time>2022-10-30T14:40:04.000Z</time>
      </trkpt>
      <trkpt lat="45.78916" lon="4.71909">
        <ele>323.93121</ele>
        <time>2022-10-30T14:40:05.000Z</time>
      </trkpt>
      <trkpt lat="45.78918" lon="4.71906">
        <ele>324.06616</ele>
        <time>2022-10-30T14:40:06.000Z</time>
      </trkpt>
      <trkpt lat="45.78921" lon="4.71904">
        <ele>324.16837</ele>
        <time>2022-10-30T14:40:07.000Z</time>
      </trkpt>
      <trkpt lat="45.78924" lon="4.71902">
        <ele>324.27609</ele>
        <time>2022-10-30T14:40:08.000Z</time>
      </trkpt>
      <trkpt lat="45.78926" lon="4.71901">
        <ele>324.37827</ele>
        <time>2022-10-30T14:40:09.000Z</time>
      </trkpt>
      <trkpt lat="45.78928" lon="4.71899">
        <ele>324.4725</ele>
        <time>2022-10-30T14:40:10.000Z</time>
      </trkpt>
      <trkpt lat="45.78931" lon="4.71897">
        <ele>324.58218</ele>
        <time>2022-10-30T14:40:11.000Z</time>
      </trkpt>
      <trkpt lat="45.78933" lon="4.71894">
        <ele>324.65298</ele>
        <time>2022-10-30T14:40:12.000Z</time>
      </trkpt>
      <trkpt lat="45.78936" lon="4.71891">
        <ele>324.70786</ele>
        <time>2022-10-30T14:40:13.000Z</time>
      </trkpt>
      <trkpt lat="45.78938" lon="4.71887">
        <ele>324.77588</ele>
        <time>2022-10-30T14:40:14.000Z</time>
      </trkpt>
      <trkpt lat="45.78941" lon="4.71884">
        <ele>324.82724</ele>
        <time>2022-10-30T14:40:15.000Z</time>
      </trkpt>
      <trkpt lat="45.78943" lon="4.71881">
        <ele>324.87509</ele>
        <time>2022-10-30T14:40:16.000Z</time>
      </trkpt>
      <trkpt lat="45.78946" lon="4.71878">
        <ele>324.93924</ele>
        <time>2022-10-30T14:40:17.000Z</time>
      </trkpt>
      <trkpt lat="45.78947" lon="4.71876">
        <ele>325.06171</ele>
        <time>2022-10-30T14:40:18.000Z</time>
      </trkpt>
      <trkpt lat="45.78949" lon="4.71875">
        <ele>325.12784</ele>
        <time>2022-10-30T14:40:19.000Z</time>
      </trkpt>
      <trkpt lat="45.78951" lon="4.71872">
        <ele>325.21591</ele>
        <time>2022-10-30T14:40:20.000Z</time>
      </trkpt>
      <trkpt lat="45.78953" lon="4.7187">
        <ele>325.30316</ele>
        <time>2022-10-30T14:40:21.000Z</time>
      </trkpt>
      <trkpt lat="45.78955" lon="4.71867">
        <ele>325.40396</ele>
        <time>2022-10-30T14:40:22.000Z</time>
      </trkpt>
      <trkpt lat="45.78957" lon="4.71863">
        <ele>325.46915</ele>
        <time>2022-10-30T14:40:23.000Z</time>
      </trkpt>
      <trkpt lat="45.78959" lon="4.7186">
        <ele>325.53534</ele>
        <time>2022-10-30T14:40:24.000Z</time>
      </trkpt>
      <trkpt lat="45.7896" lon="4.71856">
        <ele>325.58545</ele>
        <time>2022-10-30T14:40:25.000Z</time>
      </trkpt>
      <trkpt lat="45.78961" lon="4.71852">
        <ele>325.58289</ele>
        <time>2022-10-30T14:40:26.000Z</time>
      </trkpt>
      <trkpt lat="45.78962" lon="4.71847">
        <ele>325.59268</ele>
        <time>2022-10-30T14:40:27.000Z</time>
      </trkpt>
      <trkpt lat="45.78962" lon="4.71843">
        <ele>325.6358</ele>
        <time>2022-10-30T14:40:28.000Z</time>
      </trkpt>
      <trkpt lat="45.78963" lon="4.71839">
        <ele>325.73175</ele>
        <time>2022-10-30T14:40:29.000Z</time>
      </trkpt>
      <trkpt lat="45.78964" lon="4.71835">
        <ele>325.90594</ele>
        <time>2022-10-30T14:40:30.000Z</time>
      </trkpt>
      <trkpt lat="45.78965" lon="4.71831">
        <ele>326.04971</ele>
        <time>2022-10-30T14:40:31.000Z</time>
      </trkpt>
      <trkpt lat="45.78967" lon="4.71827">
        <ele>326.2243</ele>
        <time>2022-10-30T14:40:32.000Z</time>
      </trkpt>
      <trkpt lat="45.78968" lon="4.71823">
        <ele>326.41495</ele>
        <time>2022-10-30T14:40:33.000Z</time>
      </trkpt>
      <trkpt lat="45.78969" lon="4.71818">
        <ele>326.59882</ele>
        <time>2022-10-30T14:40:34.000Z</time>
      </trkpt>
      <trkpt lat="45.78971" lon="4.71814">
        <ele>326.78076</ele>
        <time>2022-10-30T14:40:35.000Z</time>
      </trkpt>
      <trkpt lat="45.78972" lon="4.71811">
        <ele>326.9946</ele>
        <time>2022-10-30T14:40:36.000Z</time>
      </trkpt>
      <trkpt lat="45.78974" lon="4.71807">
        <ele>327.18353</ele>
        <time>2022-10-30T14:40:37.000Z</time>
      </trkpt>
      <trkpt lat="45.78975" lon="4.71804">
        <ele>327.3551</ele>
        <time>2022-10-30T14:40:38.000Z</time>
      </trkpt>
      <trkpt lat="45.78976" lon="4.71799">
        <ele>327.49203</ele>
        <time>2022-10-30T14:40:39.000Z</time>
      </trkpt>
      <trkpt lat="45.78976" lon="4.71794">
        <ele>327.61444</ele>
        <time>2022-10-30T14:40:40.000Z</time>
      </trkpt>
      <trkpt lat="45.78976" lon="4.7179">
        <ele>327.70135</ele>
        <time>2022-10-30T14:40:41.000Z</time>
      </trkpt>
      <trkpt lat="45.78976" lon="4.71785">
        <ele>327.84763</ele>
        <time>2022-10-30T14:40:42.000Z</time>
      </trkpt>
      <trkpt lat="45.78977" lon="4.7178">
        <ele>327.99103</ele>
        <time>2022-10-30T14:40:43.000Z</time>
      </trkpt>
      <trkpt lat="45.78977" lon="4.71776">
        <ele>328.14374</ele>
        <time>2022-10-30T14:40:44.000Z</time>
      </trkpt>
      <trkpt lat="45.78977" lon="4.71772">
        <ele>328.31628</ele>
        <time>2022-10-30T14:40:45.000Z</time>
      </trkpt>
      <trkpt lat="45.78977" lon="4.71767">
        <ele>328.4812</ele>
        <time>2022-10-30T14:40:46.000Z</time>
      </trkpt>
      <trkpt lat="45.78977" lon="4.71761">
        <ele>328.66217</ele>
        <time>2022-10-30T14:40:47.000Z</time>
      </trkpt>
      <trkpt lat="45.78977" lon="4.71756">
        <ele>328.8436</ele>
        <time>2022-10-30T14:40:48.000Z</time>
      </trkpt>
      <trkpt lat="45.78976" lon="4.71751">
        <ele>329.00165</ele>
        <time>2022-10-30T14:40:49.000Z</time>
      </trkpt>
      <trkpt lat="45.78975" lon="4.71746">
        <ele>329.1329</ele>
        <time>2022-10-30T14:40:50.000Z</time>
      </trkpt>
      <trkpt lat="45.78975" lon="4.71742">
        <ele>329.29437</ele>
        <time>2022-10-30T14:40:51.000Z</time>
      </trkpt>
      <trkpt lat="45.78974" lon="4.71737">
        <ele>329.41989</ele>
        <time>2022-10-30T14:40:52.000Z</time>
      </trkpt>
      <trkpt lat="45.78973" lon="4.71732">
        <ele>329.56711</ele>
        <time>2022-10-30T14:40:53.000Z</time>
      </trkpt>
      <trkpt lat="45.78972" lon="4.71727">
        <ele>329.70282</ele>
        <time>2022-10-30T14:40:54.000Z</time>
      </trkpt>
      <trkpt lat="45.78971" lon="4.71723">
        <ele>329.80991</ele>
        <time>2022-10-30T14:40:55.000Z</time>
      </trkpt>
      <trkpt lat="45.7897" lon="4.71719">
        <ele>329.92941</ele>
        <time>2022-10-30T14:40:56.000Z</time>
      </trkpt>
      <trkpt lat="45.78969" lon="4.71717">
        <ele>330.05145</ele>
        <time>2022-10-30T14:40:57.000Z</time>
      </trkpt>
      <trkpt lat="45.78968" lon="4.71713">
        <ele>330.14899</ele>
        <time>2022-10-30T14:40:58.000Z</time>
      </trkpt>
      <trkpt lat="45.78967" lon="4.71709">
        <ele>330.30994</ele>
        <time>2022-10-30T14:40:59.000Z</time>
      </trkpt>
      <trkpt lat="45.78966" lon="4.71705">
        <ele>330.51266</ele>
        <time>2022-10-30T14:41:00.000Z</time>
      </trkpt>
      <trkpt lat="45.78966" lon="4.717">
        <ele>330.69513</ele>
        <time>2022-10-30T14:41:01.000Z</time>
      </trkpt>
      <trkpt lat="45.78965" lon="4.71696">
        <ele>330.83224</ele>
        <time>2022-10-30T14:41:02.000Z</time>
      </trkpt>
      <trkpt lat="45.78964" lon="4.71691">
        <ele>330.94525</ele>
        <time>2022-10-30T14:41:03.000Z</time>
      </trkpt>
      <trkpt lat="45.78963" lon="4.71687">
        <ele>331.05298</ele>
        <time>2022-10-30T14:41:04.000Z</time>
      </trkpt>
      <trkpt lat="45.78962" lon="4.71683">
        <ele>331.16626</ele>
        <time>2022-10-30T14:41:05.000Z</time>
      </trkpt>
      <trkpt lat="45.78961" lon="4.71678">
        <ele>331.29855</ele>
        <time>2022-10-30T14:41:06.000Z</time>
      </trkpt>
      <trkpt lat="45.7896" lon="4.71674">
        <ele>331.40833</ele>
        <time>2022-10-30T14:41:07.000Z</time>
      </trkpt>
      <trkpt lat="45.78959" lon="4.7167">
        <ele>331.50089</ele>
        <time>2022-10-30T14:41:08.000Z</time>
      </trkpt>
      <trkpt lat="45.78957" lon="4.71665">
        <ele>331.60803</ele>
        <time>2022-10-30T14:41:09.000Z</time>
      </trkpt>
      <trkpt lat="45.78956" lon="4.7166">
        <ele>331.69986</ele>
        <time>2022-10-30T14:41:10.000Z</time>
      </trkpt>
      <trkpt lat="45.78955" lon="4.71655">
        <ele>331.8111</ele>
        <time>2022-10-30T14:41:11.000Z</time>
      </trkpt>
      <trkpt lat="45.78954" lon="4.71651">
        <ele>331.91342</ele>
        <time>2022-10-30T14:41:12.000Z</time>
      </trkpt>
      <trkpt lat="45.78953" lon="4.71647">
        <ele>331.99469</ele>
        <time>2022-10-30T14:41:13.000Z</time>
      </trkpt>
      <trkpt lat="45.78951" lon="4.71645">
        <ele>332.07236</ele>
        <time>2022-10-30T14:41:14.000Z</time>
      </trkpt>
      <trkpt lat="45.78948" lon="4.71642">
        <ele>332.1178</ele>
        <time>2022-10-30T14:41:15.000Z</time>
      </trkpt>
      <trkpt lat="45.78945" lon="4.71639">
        <ele>332.10065</ele>
        <time>2022-10-30T14:41:16.000Z</time>
      </trkpt>
      <trkpt lat="45.78942" lon="4.71635">
        <ele>332.07361</ele>
        <time>2022-10-30T14:41:17.000Z</time>
      </trkpt>
      <trkpt lat="45.7894" lon="4.7163">
        <ele>332.06537</ele>
        <time>2022-10-30T14:41:18.000Z</time>
      </trkpt>
      <trkpt lat="45.78938" lon="4.71625">
        <ele>332.03546</ele>
        <time>2022-10-30T14:41:19.000Z</time>
      </trkpt>
      <trkpt lat="45.78935" lon="4.71621">
        <ele>331.9754</ele>
        <time>2022-10-30T14:41:20.000Z</time>
      </trkpt>
      <trkpt lat="45.78932" lon="4.71617">
        <ele>331.91858</ele>
        <time>2022-10-30T14:41:21.000Z</time>
      </trkpt>
      <trkpt lat="45.78929" lon="4.71612">
        <ele>331.85767</ele>
        <time>2022-10-30T14:41:22.000Z</time>
      </trkpt>
      <trkpt lat="45.78926" lon="4.71609">
        <ele>331.82959</ele>
        <time>2022-10-30T14:41:23.000Z</time>
      </trkpt>
      <trkpt lat="45.78923" lon="4.71605">
        <ele>331.79987</ele>
        <time>2022-10-30T14:41:24.000Z</time>
      </trkpt>
      <trkpt lat="45.78919" lon="4.71602">
        <ele>331.72787</ele>
        <time>2022-10-30T14:41:25.000Z</time>
      </trkpt>
      <trkpt lat="45.78916" lon="4.71599">
        <ele>331.6463</ele>
        <time>2022-10-30T14:41:26.000Z</time>
      </trkpt>
      <trkpt lat="45.78913" lon="4.71596">
        <ele>331.5715</ele>
        <time>2022-10-30T14:41:27.000Z</time>
      </trkpt>
      <trkpt lat="45.7891" lon="4.71594">
        <ele>331.47513</ele>
        <time>2022-10-30T14:41:28.000Z</time>
      </trkpt>
      <trkpt lat="45.78907" lon="4.71591">
        <ele>331.3725</ele>
        <time>2022-10-30T14:41:29.000Z</time>
      </trkpt>
      <trkpt lat="45.78903" lon="4.71588">
        <ele>331.28705</ele>
        <time>2022-10-30T14:41:30.000Z</time>
      </trkpt>
      <trkpt lat="45.789" lon="4.71585">
        <ele>331.14618</ele>
        <time>2022-10-30T14:41:31.000Z</time>
      </trkpt>
      <trkpt lat="45.78897" lon="4.71583">
        <ele>331.03885</ele>
        <time>2022-10-30T14:41:32.000Z</time>
      </trkpt>
      <trkpt lat="45.78894" lon="4.7158">
        <ele>330.92975</ele>
        <time>2022-10-30T14:41:33.000Z</time>
      </trkpt>
      <trkpt lat="45.78891" lon="4.71577">
        <ele>330.8443</ele>
        <time>2022-10-30T14:41:34.000Z</time>
      </trkpt>
      <trkpt lat="45.78889" lon="4.71574">
        <ele>330.7973</ele>
        <time>2022-10-30T14:41:35.000Z</time>
      </trkpt>
      <trkpt lat="45.78886" lon="4.71571">
        <ele>330.77545</ele>
        <time>2022-10-30T14:41:36.000Z</time>
      </trkpt>
      <trkpt lat="45.78883" lon="4.71568">
        <ele>330.78085</ele>
        <time>2022-10-30T14:41:37.000Z</time>
      </trkpt>
      <trkpt lat="45.7888" lon="4.71565">
        <ele>330.82684</ele>
        <time>2022-10-30T14:41:38.000Z</time>
      </trkpt>
      <trkpt lat="45.78877" lon="4.71563">
        <ele>330.88498</ele>
        <time>2022-10-30T14:41:39.000Z</time>
      </trkpt>
      <trkpt lat="45.78874" lon="4.7156">
        <ele>330.97433</ele>
        <time>2022-10-30T14:41:40.000Z</time>
      </trkpt>
      <trkpt lat="45.78872" lon="4.71557">
        <ele>331.08929</ele>
        <time>2022-10-30T14:41:41.000Z</time>
      </trkpt>
      <trkpt lat="45.78869" lon="4.71554">
        <ele>331.22394</ele>
        <time>2022-10-30T14:41:42.000Z</time>
      </trkpt>
      <trkpt lat="45.78867" lon="4.71551">
        <ele>331.36786</ele>
        <time>2022-10-30T14:41:43.000Z</time>
      </trkpt>
      <trkpt lat="45.78865" lon="4.71547">
        <ele>331.53336</ele>
        <time>2022-10-30T14:41:44.000Z</time>
      </trkpt>
      <trkpt lat="45.78864" lon="4.71544">
        <ele>331.71429</ele>
        <time>2022-10-30T14:41:45.000Z</time>
      </trkpt>
      <trkpt lat="45.78862" lon="4.7154">
        <ele>331.92548</ele>
        <time>2022-10-30T14:41:46.000Z</time>
      </trkpt>
      <trkpt lat="45.78859" lon="4.71537">
        <ele>332.15015</ele>
        <time>2022-10-30T14:41:47.000Z</time>
      </trkpt>
      <trkpt lat="45.78856" lon="4.71535">
        <ele>332.43347</ele>
        <time>2022-10-30T14:41:48.000Z</time>
      </trkpt>
      <trkpt lat="45.78854" lon="4.71531">
        <ele>332.72348</ele>
        <time>2022-10-30T14:41:49.000Z</time>
      </trkpt>
      <trkpt lat="45.78852" lon="4.71527">
        <ele>332.99393</ele>
        <time>2022-10-30T14:41:50.000Z</time>
      </trkpt>
      <trkpt lat="45.7885" lon="4.71523">
        <ele>333.30972</ele>
        <time>2022-10-30T14:41:51.000Z</time>
      </trkpt>
      <trkpt lat="45.78849" lon="4.7152">
        <ele>333.62265</ele>
        <time>2022-10-30T14:41:52.000Z</time>
      </trkpt>
      <trkpt lat="45.78848" lon="4.71516">
        <ele>333.9288</ele>
        <time>2022-10-30T14:41:53.000Z</time>
      </trkpt>
      <trkpt lat="45.78847" lon="4.71512">
        <ele>334.23169</ele>
        <time>2022-10-30T14:41:54.000Z</time>
      </trkpt>
      <trkpt lat="45.78845" lon="4.71508">
        <ele>334.53754</ele>
        <time>2022-10-30T14:41:55.000Z</time>
      </trkpt>
      <trkpt lat="45.78844" lon="4.71504">
        <ele>334.84439</ele>
        <time>2022-10-30T14:41:56.000Z</time>
      </trkpt>
      <trkpt lat="45.78843" lon="4.715">
        <ele>335.14078</ele>
        <time>2022-10-30T14:41:57.000Z</time>
      </trkpt>
      <trkpt lat="45.78842" lon="4.71496">
        <ele>335.43552</ele>
        <time>2022-10-30T14:41:58.000Z</time>
      </trkpt>
      <trkpt lat="45.78842" lon="4.71491">
        <ele>335.72964</ele>
        <time>2022-10-30T14:41:59.000Z</time>
      </trkpt>
      <trkpt lat="45.78842" lon="4.71487">
        <ele>336.0419</ele>
        <time>2022-10-30T14:42:00.000Z</time>
      </trkpt>
      <trkpt lat="45.78842" lon="4.71483">
        <ele>336.33533</ele>
        <time>2022-10-30T14:42:01.000Z</time>
      </trkpt>
      <trkpt lat="45.78843" lon="4.71478">
        <ele>336.61469</ele>
        <time>2022-10-30T14:42:02.000Z</time>
      </trkpt>
      <trkpt lat="45.78843" lon="4.71473">
        <ele>336.86679</ele>
        <time>2022-10-30T14:42:03.000Z</time>
      </trkpt>
      <trkpt lat="45.78844" lon="4.71469">
        <ele>337.09604</ele>
        <time>2022-10-30T14:42:04.000Z</time>
      </trkpt>
      <trkpt lat="45.78845" lon="4.71465">
        <ele>337.31067</ele>
        <time>2022-10-30T14:42:05.000Z</time>
      </trkpt>
      <trkpt lat="45.78846" lon="4.71461">
        <ele>337.47153</ele>
        <time>2022-10-30T14:42:06.000Z</time>
      </trkpt>
      <trkpt lat="45.78847" lon="4.71457">
        <ele>337.63718</ele>
        <time>2022-10-30T14:42:07.000Z</time>
      </trkpt>
      <trkpt lat="45.78849" lon="4.71454">
        <ele>337.73895</ele>
        <time>2022-10-30T14:42:08.000Z</time>
      </trkpt>
      <trkpt lat="45.78851" lon="4.71451">
        <ele>337.8316</ele>
        <time>2022-10-30T14:42:09.000Z</time>
      </trkpt>
      <trkpt lat="45.78853" lon="4.71448">
        <ele>337.95627</ele>
        <time>2022-10-30T14:42:10.000Z</time>
      </trkpt>
      <trkpt lat="45.78855" lon="4.71444">
        <ele>338.08298</ele>
        <time>2022-10-30T14:42:11.000Z</time>
      </trkpt>
      <trkpt lat="45.78856" lon="4.71441">
        <ele>338.2222</ele>
        <time>2022-10-30T14:42:12.000Z</time>
      </trkpt>
      <trkpt lat="45.78858" lon="4.71438">
        <ele>338.37372</ele>
        <time>2022-10-30T14:42:13.000Z</time>
      </trkpt>
      <trkpt lat="45.7886" lon="4.71435">
        <ele>338.48032</ele>
        <time>2022-10-30T14:42:14.000Z</time>
      </trkpt>
      <trkpt lat="45.78863" lon="4.71431">
        <ele>338.59631</ele>
        <time>2022-10-30T14:42:15.000Z</time>
      </trkpt>
      <trkpt lat="45.78865" lon="4.71428">
        <ele>338.72443</ele>
        <time>2022-10-30T14:42:16.000Z</time>
      </trkpt>
      <trkpt lat="45.78867" lon="4.71424">
        <ele>338.87567</ele>
        <time>2022-10-30T14:42:17.000Z</time>
      </trkpt>
      <trkpt lat="45.78869" lon="4.7142">
        <ele>338.97021</ele>
        <time>2022-10-30T14:42:18.000Z</time>
      </trkpt>
      <trkpt lat="45.78869" lon="4.71415">
        <ele>339.02664</ele>
        <time>2022-10-30T14:42:19.000Z</time>
      </trkpt>
      <trkpt lat="45.78869" lon="4.71411">
        <ele>339.07852</ele>
        <time>2022-10-30T14:42:20.000Z</time>
      </trkpt>
      <trkpt lat="45.78867" lon="4.71407">
        <ele>339.11832</ele>
        <time>2022-10-30T14:42:21.000Z</time>
      </trkpt>
      <trkpt lat="45.78866" lon="4.71404">
        <ele>339.17007</ele>
        <time>2022-10-30T14:42:22.000Z</time>
      </trkpt>
      <trkpt lat="45.78864" lon="4.71401">
        <ele>339.23169</ele>
        <time>2022-10-30T14:42:23.000Z</time>
      </trkpt>
      <trkpt lat="45.78863" lon="4.71398">
        <ele>339.28156</ele>
        <time>2022-10-30T14:42:24.000Z</time>
      </trkpt>
      <trkpt lat="45.78862" lon="4.71396">
        <ele>339.30771</ele>
        <time>2022-10-30T14:42:25.000Z</time>
      </trkpt>
      <trkpt lat="45.78861" lon="4.71393">
        <ele>339.37091</ele>
        <time>2022-10-30T14:42:26.000Z</time>
      </trkpt>
      <trkpt lat="45.7886" lon="4.71391">
        <ele>339.39859</ele>
        <time>2022-10-30T14:42:27.000Z</time>
      </trkpt>
      <trkpt lat="45.78859" lon="4.71388">
        <ele>339.44711</ele>
        <time>2022-10-30T14:42:28.000Z</time>
      </trkpt>
      <trkpt lat="45.78859" lon="4.71385">
        <ele>339.49155</ele>
        <time>2022-10-30T14:42:29.000Z</time>
      </trkpt>
      <trkpt lat="45.78859" lon="4.71382">
        <ele>339.49658</ele>
        <time>2022-10-30T14:42:30.000Z</time>
      </trkpt>
      <trkpt lat="45.78857" lon="4.71379">
        <ele>339.48489</ele>
        <time>2022-10-30T14:42:32.000Z</time>
      </trkpt>
      <trkpt lat="45.78855" lon="4.71378">
        <ele>339.49301</ele>
        <time>2022-10-30T14:42:33.000Z</time>
      </trkpt>
      <trkpt lat="45.78853" lon="4.71376">
        <ele>339.47223</ele>
        <time>2022-10-30T14:42:34.000Z</time>
      </trkpt>
      <trkpt lat="45.78851" lon="4.71374">
        <ele>339.50006</ele>
        <time>2022-10-30T14:42:35.000Z</time>
      </trkpt>
      <trkpt lat="45.78851" lon="4.71369">
        <ele>339.53549</ele>
        <time>2022-10-30T14:42:37.000Z</time>
      </trkpt>
      <trkpt lat="45.7885" lon="4.71365">
        <ele>339.59897</ele>
        <time>2022-10-30T14:42:39.000Z</time>
      </trkpt>
      <trkpt lat="45.78849" lon="4.7136">
        <ele>339.64764</ele>
        <time>2022-10-30T14:42:41.000Z</time>
      </trkpt>
      <trkpt lat="45.78849" lon="4.71357">
        <ele>339.72522</ele>
        <time>2022-10-30T14:42:42.000Z</time>
      </trkpt>
      <trkpt lat="45.7885" lon="4.71354">
        <ele>339.83209</ele>
        <time>2022-10-30T14:42:43.000Z</time>
      </trkpt>
      <trkpt lat="45.78851" lon="4.71351">
        <ele>339.90994</ele>
        <time>2022-10-30T14:42:44.000Z</time>
      </trkpt>
      <trkpt lat="45.78853" lon="4.71349">
        <ele>339.99872</ele>
        <time>2022-10-30T14:42:45.000Z</time>
      </trkpt>
      <trkpt lat="45.78853" lon="4.71346">
        <ele>340.07819</ele>
        <time>2022-10-30T14:42:46.000Z</time>
      </trkpt>
      <trkpt lat="45.78852" lon="4.71343">
        <ele>340.16327</ele>
        <time>2022-10-30T14:42:48.000Z</time>
      </trkpt>
      <trkpt lat="45.78851" lon="4.7134">
        <ele>340.31583</ele>
        <time>2022-10-30T14:50:01.000Z</time>
      </trkpt>
      <trkpt lat="45.78848" lon="4.71337">
        <ele>340.48557</ele>
        <time>2022-10-30T14:50:06.000Z</time>
      </trkpt>
      <trkpt lat="45.78846" lon="4.71335">
        <ele>340.66895</ele>
        <time>2022-10-30T14:50:07.000Z</time>
      </trkpt>
      <trkpt lat="45.78844" lon="4.71334">
        <ele>340.90839</ele>
        <time>2022-10-30T14:50:08.000Z</time>
      </trkpt>
      <trkpt lat="45.78841" lon="4.71333">
        <ele>341.1528</ele>
        <time>2022-10-30T14:50:10.000Z</time>
      </trkpt>
      <trkpt lat="45.78839" lon="4.71333">
        <ele>341.38336</ele>
        <time>2022-10-30T14:50:11.000Z</time>
      </trkpt>
      <trkpt lat="45.78837" lon="4.71332">
        <ele>341.57501</ele>
        <time>2022-10-30T14:50:12.000Z</time>
      </trkpt>
      <trkpt lat="45.78836" lon="4.71329">
        <ele>341.75623</ele>
        <time>2022-10-30T14:50:13.000Z</time>
      </trkpt>
      <trkpt lat="45.78835" lon="4.71327">
        <ele>341.89105</ele>
        <time>2022-10-30T14:50:14.000Z</time>
      </trkpt>
      <trkpt lat="45.78833" lon="4.71325">
        <ele>342.03632</ele>
        <time>2022-10-30T14:50:15.000Z</time>
      </trkpt>
      <trkpt lat="45.78832" lon="4.71322">
        <ele>342.13089</ele>
        <time>2022-10-30T14:50:16.000Z</time>
      </trkpt>
      <trkpt lat="45.78832" lon="4.7132">
        <ele>342.21588</ele>
        <time>2022-10-30T14:50:17.000Z</time>
      </trkpt>
      <trkpt lat="45.78831" lon="4.71317">
        <ele>342.25815</ele>
        <time>2022-10-30T14:50:18.000Z</time>
      </trkpt>
      <trkpt lat="45.78831" lon="4.71314">
        <ele>342.31064</ele>
        <time>2022-10-30T14:50:19.000Z</time>
      </trkpt>
      <trkpt lat="45.78831" lon="4.7131">
        <ele>342.38977</ele>
        <time>2022-10-30T14:50:21.000Z</time>
      </trkpt>
      <trkpt lat="45.78833" lon="4.71308">
        <ele>342.45703</ele>
        <time>2022-10-30T14:50:23.000Z</time>
      </trkpt>
      <trkpt lat="45.78835" lon="4.71306">
        <ele>342.5036</ele>
        <time>2022-10-30T14:50:25.000Z</time>
      </trkpt>
      <trkpt lat="45.78837" lon="4.71304">
        <ele>342.60321</ele>
        <time>2022-10-30T14:50:31.000Z</time>
      </trkpt>
      <trkpt lat="45.78839" lon="4.71302">
        <ele>342.71143</ele>
        <time>2022-10-30T14:50:32.000Z</time>
      </trkpt>
      <trkpt lat="45.78841" lon="4.71301">
        <ele>342.82184</ele>
        <time>2022-10-30T14:50:33.000Z</time>
      </trkpt>
      <trkpt lat="45.78843" lon="4.71299">
        <ele>342.84961</ele>
        <time>2022-10-30T14:50:34.000Z</time>
      </trkpt>
      <trkpt lat="45.78845" lon="4.71298">
        <ele>342.88403</ele>
        <time>2022-10-30T14:50:35.000Z</time>
      </trkpt>
      <trkpt lat="45.78848" lon="4.71296">
        <ele>342.89459</ele>
        <time>2022-10-30T14:50:36.000Z</time>
      </trkpt>
      <trkpt lat="45.78852" lon="4.71295">
        <ele>342.85342</ele>
        <time>2022-10-30T14:50:37.000Z</time>
      </trkpt>
      <trkpt lat="45.78855" lon="4.71292">
        <ele>342.77451</ele>
        <time>2022-10-30T14:50:38.000Z</time>
      </trkpt>
      <trkpt lat="45.78858" lon="4.71289">
        <ele>342.6965</ele>
        <time>2022-10-30T14:50:39.000Z</time>
      </trkpt>
      <trkpt lat="45.78862" lon="4.71286">
        <ele>342.62527</ele>
        <time>2022-10-30T14:50:40.000Z</time>
      </trkpt>
      <trkpt lat="45.78865" lon="4.71281">
        <ele>342.55841</ele>
        <time>2022-10-30T14:50:41.000Z</time>
      </trkpt>
      <trkpt lat="45.78869" lon="4.71277">
        <ele>342.50092</ele>
        <time>2022-10-30T14:50:42.000Z</time>
      </trkpt>
      <trkpt lat="45.78873" lon="4.71273">
        <ele>342.45319</ele>
        <time>2022-10-30T14:50:43.000Z</time>
      </trkpt>
      <trkpt lat="45.78878" lon="4.71269">
        <ele>342.41519</ele>
        <time>2022-10-30T14:50:44.000Z</time>
      </trkpt>
      <trkpt lat="45.78883" lon="4.71265">
        <ele>342.35135</ele>
        <time>2022-10-30T14:50:45.000Z</time>
      </trkpt>
      <trkpt lat="45.78888" lon="4.71261">
        <ele>342.28552</ele>
        <time>2022-10-30T14:50:46.000Z</time>
      </trkpt>
      <trkpt lat="45.78893" lon="4.71255">
        <ele>342.17456</ele>
        <time>2022-10-30T14:50:47.000Z</time>
      </trkpt>
      <trkpt lat="45.78898" lon="4.7125">
        <ele>342.02756</ele>
        <time>2022-10-30T14:50:48.000Z</time>
      </trkpt>
      <trkpt lat="45.78903" lon="4.71245">
        <ele>341.86618</ele>
        <time>2022-10-30T14:50:49.000Z</time>
      </trkpt>
      <trkpt lat="45.78908" lon="4.71238">
        <ele>341.69574</ele>
        <time>2022-10-30T14:50:50.000Z</time>
      </trkpt>
      <trkpt lat="45.78914" lon="4.71232">
        <ele>341.48584</ele>
        <time>2022-10-30T14:50:51.000Z</time>
      </trkpt>
      <trkpt lat="45.78919" lon="4.71225">
        <ele>341.24701</ele>
        <time>2022-10-30T14:50:52.000Z</time>
      </trkpt>
      <trkpt lat="45.78925" lon="4.71218">
        <ele>340.96249</ele>
        <time>2022-10-30T14:50:53.000Z</time>
      </trkpt>
      <trkpt lat="45.78931" lon="4.7121">
        <ele>340.6936</ele>
        <time>2022-10-30T14:50:54.000Z</time>
      </trkpt>
      <trkpt lat="45.78936" lon="4.71202">
        <ele>340.42023</ele>
        <time>2022-10-30T14:50:55.000Z</time>
      </trkpt>
      <trkpt lat="45.78941" lon="4.71194">
        <ele>340.14468</ele>
        <time>2022-10-30T14:50:56.000Z</time>
      </trkpt>
      <trkpt lat="45.78947" lon="4.71186">
        <ele>339.86658</ele>
        <time>2022-10-30T14:50:57.000Z</time>
      </trkpt>
      <trkpt lat="45.78952" lon="4.71177">
        <ele>339.58887</ele>
        <time>2022-10-30T14:50:58.000Z</time>
      </trkpt>
      <trkpt lat="45.78957" lon="4.71169">
        <ele>339.29349</ele>
        <time>2022-10-30T14:50:59.000Z</time>
      </trkpt>
      <trkpt lat="45.78963" lon="4.7116">
        <ele>339.00632</ele>
        <time>2022-10-30T14:51:00.000Z</time>
      </trkpt>
      <trkpt lat="45.78968" lon="4.71151">
        <ele>338.69244</ele>
        <time>2022-10-30T14:51:01.000Z</time>
      </trkpt>
      <trkpt lat="45.78974" lon="4.71141">
        <ele>338.36508</ele>
        <time>2022-10-30T14:51:02.000Z</time>
      </trkpt>
      <trkpt lat="45.78979" lon="4.71132">
        <ele>338.02045</ele>
        <time>2022-10-30T14:51:03.000Z</time>
      </trkpt>
      <trkpt lat="45.78984" lon="4.71121">
        <ele>337.66516</ele>
        <time>2022-10-30T14:51:04.000Z</time>
      </trkpt>
      <trkpt lat="45.78988" lon="4.71111">
        <ele>337.31314</ele>
        <time>2022-10-30T14:51:05.000Z</time>
      </trkpt>
      <trkpt lat="45.78993" lon="4.71101">
        <ele>336.97791</ele>
        <time>2022-10-30T14:51:06.000Z</time>
      </trkpt>
      <trkpt lat="45.78998" lon="4.71091">
        <ele>336.66245</ele>
        <time>2022-10-30T14:51:07.000Z</time>
      </trkpt>
      <trkpt lat="45.79002" lon="4.71081">
        <ele>336.33673</ele>
        <time>2022-10-30T14:51:08.000Z</time>
      </trkpt>
      <trkpt lat="45.79006" lon="4.71071">
        <ele>336.02795</ele>
        <time>2022-10-30T14:51:09.000Z</time>
      </trkpt>
      <trkpt lat="45.79009" lon="4.71061">
        <ele>335.75824</ele>
        <time>2022-10-30T14:51:10.000Z</time>
      </trkpt>
      <trkpt lat="45.79012" lon="4.71051">
        <ele>335.48184</ele>
        <time>2022-10-30T14:51:11.000Z</time>
      </trkpt>
      <trkpt lat="45.79015" lon="4.71043">
        <ele>335.23901</ele>
        <time>2022-10-30T14:51:12.000Z</time>
      </trkpt>
      <trkpt lat="45.79017" lon="4.71035">
        <ele>335.01596</ele>
        <time>2022-10-30T14:51:13.000Z</time>
      </trkpt>
      <trkpt lat="45.79019" lon="4.71027">
        <ele>334.80206</ele>
        <time>2022-10-30T14:51:14.000Z</time>
      </trkpt>
      <trkpt lat="45.79022" lon="4.71018">
        <ele>334.64761</ele>
        <time>2022-10-30T14:51:15.000Z</time>
      </trkpt>
      <trkpt lat="45.79024" lon="4.71011">
        <ele>334.50955</ele>
        <time>2022-10-30T14:51:16.000Z</time>
      </trkpt>
      <trkpt lat="45.79027" lon="4.71004">
        <ele>334.39484</ele>
        <time>2022-10-30T14:51:17.000Z</time>
      </trkpt>
      <trkpt lat="45.79029" lon="4.70997">
        <ele>334.30505</ele>
        <time>2022-10-30T14:51:18.000Z</time>
      </trkpt>
      <trkpt lat="45.79032" lon="4.70991">
        <ele>334.22321</ele>
        <time>2022-10-30T14:51:19.000Z</time>
      </trkpt>
      <trkpt lat="45.79035" lon="4.70984">
        <ele>334.17386</ele>
        <time>2022-10-30T14:51:20.000Z</time>
      </trkpt>
      <trkpt lat="45.79036" lon="4.70977">
        <ele>334.15009</ele>
        <time>2022-10-30T14:51:21.000Z</time>
      </trkpt>
      <trkpt lat="45.79039" lon="4.7097">
        <ele>334.15829</ele>
        <time>2022-10-30T14:51:22.000Z</time>
      </trkpt>
      <trkpt lat="45.79041" lon="4.70964">
        <ele>334.18814</ele>
        <time>2022-10-30T14:51:23.000Z</time>
      </trkpt>
      <trkpt lat="45.79044" lon="4.70959">
        <ele>334.22379</ele>
        <time>2022-10-30T14:51:24.000Z</time>
      </trkpt>
      <trkpt lat="45.79046" lon="4.70953">
        <ele>334.31381</ele>
        <time>2022-10-30T14:51:25.000Z</time>
      </trkpt>
      <trkpt lat="45.79049" lon="4.70948">
        <ele>334.42548</ele>
        <time>2022-10-30T14:51:26.000Z</time>
      </trkpt>
      <trkpt lat="45.79053" lon="4.70945">
        <ele>334.55524</ele>
        <time>2022-10-30T14:51:27.000Z</time>
      </trkpt>
      <trkpt lat="45.79058" lon="4.70943">
        <ele>334.71439</ele>
        <time>2022-10-30T14:51:28.000Z</time>
      </trkpt>
      <trkpt lat="45.79062" lon="4.70942">
        <ele>334.88422</ele>
        <time>2022-10-30T14:51:29.000Z</time>
      </trkpt>
      <trkpt lat="45.79067" lon="4.7094">
        <ele>335.05203</ele>
        <time>2022-10-30T14:51:30.000Z</time>
      </trkpt>
      <trkpt lat="45.79072" lon="4.7094">
        <ele>335.19092</ele>
        <time>2022-10-30T14:51:31.000Z</time>
      </trkpt>
      <trkpt lat="45.79076" lon="4.70943">
        <ele>335.31</ele>
        <time>2022-10-30T14:51:32.000Z</time>
      </trkpt>
      <trkpt lat="45.7908" lon="4.70947">
        <ele>335.41431</ele>
        <time>2022-10-30T14:51:33.000Z</time>
      </trkpt>
      <trkpt lat="45.79084" lon="4.70952">
        <ele>335.52359</ele>
        <time>2022-10-30T14:51:34.000Z</time>
      </trkpt>
      <trkpt lat="45.79088" lon="4.70956">
        <ele>335.58725</ele>
        <time>2022-10-30T14:51:35.000Z</time>
      </trkpt>
      <trkpt lat="45.79093" lon="4.70961">
        <ele>335.63309</ele>
        <time>2022-10-30T14:51:36.000Z</time>
      </trkpt>
      <trkpt lat="45.79097" lon="4.70966">
        <ele>335.68408</ele>
        <time>2022-10-30T14:51:37.000Z</time>
      </trkpt>
      <trkpt lat="45.79102" lon="4.70972">
        <ele>335.7226</ele>
        <time>2022-10-30T14:51:38.000Z</time>
      </trkpt>
      <trkpt lat="45.79106" lon="4.70978">
        <ele>335.79623</ele>
        <time>2022-10-30T14:51:39.000Z</time>
      </trkpt>
      <trkpt lat="45.7911" lon="4.70983">
        <ele>335.85089</ele>
        <time>2022-10-30T14:51:40.000Z</time>
      </trkpt>
      <trkpt lat="45.79114" lon="4.7099">
        <ele>335.90588</ele>
        <time>2022-10-30T14:51:41.000Z</time>
      </trkpt>
      <trkpt lat="45.79118" lon="4.70997">
        <ele>335.94235</ele>
        <time>2022-10-30T14:51:42.000Z</time>
      </trkpt>
      <trkpt lat="45.79122" lon="4.71003">
        <ele>335.97461</ele>
        <time>2022-10-30T14:51:43.000Z</time>
      </trkpt>
      <trkpt lat="45.79126" lon="4.71011">
        <ele>336.0014</ele>
        <time>2022-10-30T14:51:44.000Z</time>
      </trkpt>
      <trkpt lat="45.7913" lon="4.71017">
        <ele>335.99924</ele>
        <time>2022-10-30T14:51:45.000Z</time>
      </trkpt>
      <trkpt lat="45.79133" lon="4.71024">
        <ele>335.95142</ele>
        <time>2022-10-30T14:51:46.000Z</time>
      </trkpt>
      <trkpt lat="45.79137" lon="4.71031">
        <ele>335.88983</ele>
        <time>2022-10-30T14:51:47.000Z</time>
      </trkpt>
      <trkpt lat="45.7914" lon="4.71038">
        <ele>335.81235</ele>
        <time>2022-10-30T14:51:48.000Z</time>
      </trkpt>
      <trkpt lat="45.79143" lon="4.71045">
        <ele>335.75851</ele>
        <time>2022-10-30T14:51:49.000Z</time>
      </trkpt>
      <trkpt lat="45.79146" lon="4.71053">
        <ele>335.73907</ele>
        <time>2022-10-30T14:51:50.000Z</time>
      </trkpt>
      <trkpt lat="45.7915" lon="4.7106">
        <ele>335.73581</ele>
        <time>2022-10-30T14:51:51.000Z</time>
      </trkpt>
      <trkpt lat="45.79153" lon="4.71067">
        <ele>335.74939</ele>
        <time>2022-10-30T14:51:52.000Z</time>
      </trkpt>
      <trkpt lat="45.79156" lon="4.71075">
        <ele>335.77832</ele>
        <time>2022-10-30T14:51:53.000Z</time>
      </trkpt>
      <trkpt lat="45.79158" lon="4.71082">
        <ele>335.75702</ele>
        <time>2022-10-30T14:51:54.000Z</time>
      </trkpt>
      <trkpt lat="45.79161" lon="4.71089">
        <ele>335.7225</ele>
        <time>2022-10-30T14:51:55.000Z</time>
      </trkpt>
      <trkpt lat="45.79165" lon="4.71097">
        <ele>335.70389</ele>
        <time>2022-10-30T14:51:56.000Z</time>
      </trkpt>
      <trkpt lat="45.79169" lon="4.71104">
        <ele>335.67371</ele>
        <time>2022-10-30T14:51:57.000Z</time>
      </trkpt>
      <trkpt lat="45.79172" lon="4.71111">
        <ele>335.65182</ele>
        <time>2022-10-30T14:51:58.000Z</time>
      </trkpt>
      <trkpt lat="45.79176" lon="4.71119">
        <ele>335.59076</ele>
        <time>2022-10-30T14:51:59.000Z</time>
      </trkpt>
      <trkpt lat="45.79179" lon="4.71127">
        <ele>335.55722</ele>
        <time>2022-10-30T14:52:00.000Z</time>
      </trkpt>
      <trkpt lat="45.79183" lon="4.71133">
        <ele>335.51117</ele>
        <time>2022-10-30T14:52:01.000Z</time>
      </trkpt>
      <trkpt lat="45.79187" lon="4.7114">
        <ele>335.50635</ele>
        <time>2022-10-30T14:52:02.000Z</time>
      </trkpt>
      <trkpt lat="45.7919" lon="4.71148">
        <ele>335.49786</ele>
        <time>2022-10-30T14:52:03.000Z</time>
      </trkpt>
      <trkpt lat="45.79194" lon="4.71154">
        <ele>335.49121</ele>
        <time>2022-10-30T14:52:04.000Z</time>
      </trkpt>
      <trkpt lat="45.79198" lon="4.71161">
        <ele>335.49005</ele>
        <time>2022-10-30T14:52:05.000Z</time>
      </trkpt>
      <trkpt lat="45.79202" lon="4.71169">
        <ele>335.52115</ele>
        <time>2022-10-30T14:52:06.000Z</time>
      </trkpt>
      <trkpt lat="45.79206" lon="4.71176">
        <ele>335.5528</ele>
        <time>2022-10-30T14:52:07.000Z</time>
      </trkpt>
      <trkpt lat="45.7921" lon="4.71183">
        <ele>335.59018</ele>
        <time>2022-10-30T14:52:08.000Z</time>
      </trkpt>
      <trkpt lat="45.79213" lon="4.7119">
        <ele>335.58221</ele>
        <time>2022-10-30T14:52:09.000Z</time>
      </trkpt>
      <trkpt lat="45.79217" lon="4.71197">
        <ele>335.51215</ele>
        <time>2022-10-30T14:52:10.000Z</time>
      </trkpt>
      <trkpt lat="45.79221" lon="4.71205">
        <ele>335.42343</ele>
        <time>2022-10-30T14:52:11.000Z</time>
      </trkpt>
      <trkpt lat="45.79226" lon="4.71212">
        <ele>335.2645</ele>
        <time>2022-10-30T14:52:12.000Z</time>
      </trkpt>
      <trkpt lat="45.7923" lon="4.7122">
        <ele>335.12286</ele>
        <time>2022-10-30T14:52:13.000Z</time>
      </trkpt>
      <trkpt lat="45.79232" lon="4.71228">
        <ele>335.02939</ele>
        <time>2022-10-30T14:52:14.000Z</time>
      </trkpt>
      <trkpt lat="45.79236" lon="4.71237">
        <ele>334.94928</ele>
        <time>2022-10-30T14:52:15.000Z</time>
      </trkpt>
      <trkpt lat="45.79238" lon="4.71246">
        <ele>334.85382</ele>
        <time>2022-10-30T14:52:16.000Z</time>
      </trkpt>
      <trkpt lat="45.7924" lon="4.71254">
        <ele>334.7572</ele>
        <time>2022-10-30T14:52:17.000Z</time>
      </trkpt>
      <trkpt lat="45.79241" lon="4.71263">
        <ele>334.67203</ele>
        <time>2022-10-30T14:52:18.000Z</time>
      </trkpt>
      <trkpt lat="45.79243" lon="4.71272">
        <ele>334.6109</ele>
        <time>2022-10-30T14:52:19.000Z</time>
      </trkpt>
      <trkpt lat="45.79243" lon="4.71281">
        <ele>334.52478</ele>
        <time>2022-10-30T14:52:20.000Z</time>
      </trkpt>
      <trkpt lat="45.79245" lon="4.7129">
        <ele>334.46881</ele>
        <time>2022-10-30T14:52:21.000Z</time>
      </trkpt>
      <trkpt lat="45.79246" lon="4.71298">
        <ele>334.38037</ele>
        <time>2022-10-30T14:52:22.000Z</time>
      </trkpt>
      <trkpt lat="45.79248" lon="4.71306">
        <ele>334.28415</ele>
        <time>2022-10-30T14:52:23.000Z</time>
      </trkpt>
      <trkpt lat="45.79249" lon="4.71314">
        <ele>334.224</ele>
        <time>2022-10-30T14:52:24.000Z</time>
      </trkpt>
      <trkpt lat="45.79251" lon="4.71322">
        <ele>334.15384</ele>
        <time>2022-10-30T14:52:25.000Z</time>
      </trkpt>
      <trkpt lat="45.79252" lon="4.7133">
        <ele>334.03708</ele>
        <time>2022-10-30T14:52:26.000Z</time>
      </trkpt>
      <trkpt lat="45.79253" lon="4.71339">
        <ele>333.94354</ele>
        <time>2022-10-30T14:52:27.000Z</time>
      </trkpt>
      <trkpt lat="45.79255" lon="4.71347">
        <ele>333.86066</ele>
        <time>2022-10-30T14:52:28.000Z</time>
      </trkpt>
      <trkpt lat="45.79256" lon="4.71355">
        <ele>333.80426</ele>
        <time>2022-10-30T14:52:29.000Z</time>
      </trkpt>
      <trkpt lat="45.79258" lon="4.71363">
        <ele>333.78629</ele>
        <time>2022-10-30T14:52:30.000Z</time>
      </trkpt>
      <trkpt lat="45.79259" lon="4.71371">
        <ele>333.79361</ele>
        <time>2022-10-30T14:52:31.000Z</time>
      </trkpt>
      <trkpt lat="45.79261" lon="4.71379">
        <ele>333.8595</ele>
        <time>2022-10-30T14:52:32.000Z</time>
      </trkpt>
      <trkpt lat="45.79263" lon="4.71388">
        <ele>333.93552</ele>
        <time>2022-10-30T14:52:33.000Z</time>
      </trkpt>
      <trkpt lat="45.79265" lon="4.71396">
        <ele>334.00586</ele>
        <time>2022-10-30T14:52:34.000Z</time>
      </trkpt>
      <trkpt lat="45.79267" lon="4.71403">
        <ele>334.06439</ele>
        <time>2022-10-30T14:52:35.000Z</time>
      </trkpt>
      <trkpt lat="45.79269" lon="4.71411">
        <ele>334.14478</ele>
        <time>2022-10-30T14:52:36.000Z</time>
      </trkpt>
      <trkpt lat="45.79272" lon="4.71419">
        <ele>334.21353</ele>
        <time>2022-10-30T14:52:37.000Z</time>
      </trkpt>
      <trkpt lat="45.79274" lon="4.71426">
        <ele>334.30023</ele>
        <time>2022-10-30T14:52:38.000Z</time>
      </trkpt>
      <trkpt lat="45.79278" lon="4.71433">
        <ele>334.38498</ele>
        <time>2022-10-30T14:52:39.000Z</time>
      </trkpt>
      <trkpt lat="45.79281" lon="4.7144">
        <ele>334.43304</ele>
        <time>2022-10-30T14:52:40.000Z</time>
      </trkpt>
      <trkpt lat="45.79285" lon="4.71447">
        <ele>334.46234</ele>
        <time>2022-10-30T14:52:41.000Z</time>
      </trkpt>
      <trkpt lat="45.79289" lon="4.71454">
        <ele>334.49921</ele>
        <time>2022-10-30T14:52:42.000Z</time>
      </trkpt>
      <trkpt lat="45.79294" lon="4.71461">
        <ele>334.5412</ele>
        <time>2022-10-30T14:52:43.000Z</time>
      </trkpt>
      <trkpt lat="45.79298" lon="4.71467">
        <ele>334.58463</ele>
        <time>2022-10-30T14:52:44.000Z</time>
      </trkpt>
      <trkpt lat="45.79302" lon="4.71474">
        <ele>334.61777</ele>
        <time>2022-10-30T14:52:45.000Z</time>
      </trkpt>
      <trkpt lat="45.79306" lon="4.7148">
        <ele>334.64914</ele>
        <time>2022-10-30T14:52:46.000Z</time>
      </trkpt>
      <trkpt lat="45.79311" lon="4.71487">
        <ele>334.63239</ele>
        <time>2022-10-30T14:52:47.000Z</time>
      </trkpt>
      <trkpt lat="45.79316" lon="4.71494">
        <ele>334.59137</ele>
        <time>2022-10-30T14:52:48.000Z</time>
      </trkpt>
      <trkpt lat="45.79321" lon="4.715">
        <ele>334.52069</ele>
        <time>2022-10-30T14:52:49.000Z</time>
      </trkpt>
      <trkpt lat="45.79325" lon="4.71507">
        <ele>334.43124</ele>
        <time>2022-10-30T14:52:50.000Z</time>
      </trkpt>
      <trkpt lat="45.79329" lon="4.71515">
        <ele>334.33316</ele>
        <time>2022-10-30T14:52:51.000Z</time>
      </trkpt>
      <trkpt lat="45.79333" lon="4.71523">
        <ele>334.2308</ele>
        <time>2022-10-30T14:52:52.000Z</time>
      </trkpt>
      <trkpt lat="45.79337" lon="4.71533">
        <ele>334.09903</ele>
        <time>2022-10-30T14:52:53.000Z</time>
      </trkpt>
      <trkpt lat="45.7934" lon="4.71541">
        <ele>333.9754</ele>
        <time>2022-10-30T14:52:54.000Z</time>
      </trkpt>
      <trkpt lat="45.79343" lon="4.71551">
        <ele>333.87527</ele>
        <time>2022-10-30T14:52:55.000Z</time>
      </trkpt>
      <trkpt lat="45.79347" lon="4.7156">
        <ele>333.74774</ele>
        <time>2022-10-30T14:52:56.000Z</time>
      </trkpt>
      <trkpt lat="45.79349" lon="4.71569">
        <ele>333.6174</ele>
        <time>2022-10-30T14:52:57.000Z</time>
      </trkpt>
      <trkpt lat="45.79353" lon="4.71578">
        <ele>333.47336</ele>
        <time>2022-10-30T14:52:58.000Z</time>
      </trkpt>
      <trkpt lat="45.79356" lon="4.71586">
        <ele>333.32047</ele>
        <time>2022-10-30T14:52:59.000Z</time>
      </trkpt>
      <trkpt lat="45.7936" lon="4.71595">
        <ele>333.20126</ele>
        <time>2022-10-30T14:53:00.000Z</time>
      </trkpt>
      <trkpt lat="45.79363" lon="4.71604">
        <ele>333.10089</ele>
        <time>2022-10-30T14:53:01.000Z</time>
      </trkpt>
      <trkpt lat="45.79367" lon="4.71613">
        <ele>332.97098</ele>
        <time>2022-10-30T14:53:02.000Z</time>
      </trkpt>
      <trkpt lat="45.7937" lon="4.71622">
        <ele>332.87146</ele>
        <time>2022-10-30T14:53:03.000Z</time>
      </trkpt>
      <trkpt lat="45.79374" lon="4.71631">
        <ele>332.75244</ele>
        <time>2022-10-30T14:53:04.000Z</time>
      </trkpt>
      <trkpt lat="45.79378" lon="4.71641">
        <ele>332.61328</ele>
        <time>2022-10-30T14:53:05.000Z</time>
      </trkpt>
      <trkpt lat="45.79382" lon="4.7165">
        <ele>332.4863</ele>
        <time>2022-10-30T14:53:06.000Z</time>
      </trkpt>
      <trkpt lat="45.79386" lon="4.71659">
        <ele>332.36539</ele>
        <time>2022-10-30T14:53:07.000Z</time>
      </trkpt>
      <trkpt lat="45.7939" lon="4.71669">
        <ele>332.26163</ele>
        <time>2022-10-30T14:53:08.000Z</time>
      </trkpt>
      <trkpt lat="45.79394" lon="4.71679">
        <ele>332.16922</ele>
        <time>2022-10-30T14:53:09.000Z</time>
      </trkpt>
      <trkpt lat="45.79398" lon="4.71689">
        <ele>332.09134</ele>
        <time>2022-10-30T14:53:10.000Z</time>
      </trkpt>
      <trkpt lat="45.79402" lon="4.71699">
        <ele>332.00226</ele>
        <time>2022-10-30T14:53:11.000Z</time>
      </trkpt>
      <trkpt lat="45.79405" lon="4.7171">
        <ele>331.91095</ele>
        <time>2022-10-30T14:53:12.000Z</time>
      </trkpt>
      <trkpt lat="45.79408" lon="4.7172">
        <ele>331.85382</ele>
        <time>2022-10-30T14:53:13.000Z</time>
      </trkpt>
      <trkpt lat="45.7941" lon="4.71731">
        <ele>331.79694</ele>
        <time>2022-10-30T14:53:14.000Z</time>
      </trkpt>
      <trkpt lat="45.79412" lon="4.71741">
        <ele>331.74432</ele>
        <time>2022-10-30T14:53:15.000Z</time>
      </trkpt>
      <trkpt lat="45.79412" lon="4.71752">
        <ele>331.68292</ele>
        <time>2022-10-30T14:53:16.000Z</time>
      </trkpt>
      <trkpt lat="45.79414" lon="4.71762">
        <ele>331.62155</ele>
        <time>2022-10-30T14:53:17.000Z</time>
      </trkpt>
      <trkpt lat="45.79415" lon="4.71772">
        <ele>331.54385</ele>
        <time>2022-10-30T14:53:18.000Z</time>
      </trkpt>
      <trkpt lat="45.79416" lon="4.71781">
        <ele>331.46219</ele>
        <time>2022-10-30T14:53:19.000Z</time>
      </trkpt>
      <trkpt lat="45.79417" lon="4.71791">
        <ele>331.36359</ele>
        <time>2022-10-30T14:53:20.000Z</time>
      </trkpt>
      <trkpt lat="45.79419" lon="4.71801">
        <ele>331.23395</ele>
        <time>2022-10-30T14:53:21.000Z</time>
      </trkpt>
      <trkpt lat="45.79421" lon="4.71811">
        <ele>331.13892</ele>
        <time>2022-10-30T14:53:22.000Z</time>
      </trkpt>
      <trkpt lat="45.79422" lon="4.71822">
        <ele>331.00211</ele>
        <time>2022-10-30T14:53:23.000Z</time>
      </trkpt>
      <trkpt lat="45.79424" lon="4.71832">
        <ele>330.82336</ele>
        <time>2022-10-30T14:53:24.000Z</time>
      </trkpt>
      <trkpt lat="45.79425" lon="4.71843">
        <ele>330.64642</ele>
        <time>2022-10-30T14:53:25.000Z</time>
      </trkpt>
      <trkpt lat="45.79427" lon="4.71854">
        <ele>330.44379</ele>
        <time>2022-10-30T14:53:26.000Z</time>
      </trkpt>
      <trkpt lat="45.79428" lon="4.71865">
        <ele>330.26373</ele>
        <time>2022-10-30T14:53:27.000Z</time>
      </trkpt>
      <trkpt lat="45.7943" lon="4.71875">
        <ele>330.05231</ele>
        <time>2022-10-30T14:53:28.000Z</time>
      </trkpt>
      <trkpt lat="45.79431" lon="4.71886">
        <ele>329.81015</ele>
        <time>2022-10-30T14:53:29.000Z</time>
      </trkpt>
      <trkpt lat="45.79432" lon="4.71898">
        <ele>329.54221</ele>
        <time>2022-10-30T14:53:30.000Z</time>
      </trkpt>
      <trkpt lat="45.79434" lon="4.71909">
        <ele>329.27139</ele>
        <time>2022-10-30T14:53:31.000Z</time>
      </trkpt>
      <trkpt lat="45.79438" lon="4.71919">
        <ele>328.99249</ele>
        <time>2022-10-30T14:53:32.000Z</time>
      </trkpt>
      <trkpt lat="45.7944" lon="4.7193">
        <ele>328.646</ele>
        <time>2022-10-30T14:53:33.000Z</time>
      </trkpt>
      <trkpt lat="45.79444" lon="4.7194">
        <ele>328.28085</ele>
        <time>2022-10-30T14:53:34.000Z</time>
      </trkpt>
      <trkpt lat="45.7945" lon="4.7195">
        <ele>327.8829</ele>
        <time>2022-10-30T14:53:35.000Z</time>
      </trkpt>
      <trkpt lat="45.79456" lon="4.71958">
        <ele>327.48737</ele>
        <time>2022-10-30T14:53:36.000Z</time>
      </trkpt>
      <trkpt lat="45.79463" lon="4.71965">
        <ele>327.06683</ele>
        <time>2022-10-30T14:53:37.000Z</time>
      </trkpt>
      <trkpt lat="45.79471" lon="4.7197">
        <ele>326.63184</ele>
        <time>2022-10-30T14:53:38.000Z</time>
      </trkpt>
      <trkpt lat="45.7948" lon="4.71973">
        <ele>326.19986</ele>
        <time>2022-10-30T14:53:39.000Z</time>
      </trkpt>
      <trkpt lat="45.79488" lon="4.71973">
        <ele>325.77939</ele>
        <time>2022-10-30T14:53:40.000Z</time>
      </trkpt>
      <trkpt lat="45.79496" lon="4.7197">
        <ele>325.33902</ele>
        <time>2022-10-30T14:53:41.000Z</time>
      </trkpt>
      <trkpt lat="45.79505" lon="4.71967">
        <ele>324.87247</ele>
        <time>2022-10-30T14:53:42.000Z</time>
      </trkpt>
      <trkpt lat="45.79513" lon="4.71965">
        <ele>324.42535</ele>
        <time>2022-10-30T14:53:43.000Z</time>
      </trkpt>
      <trkpt lat="45.79522" lon="4.7196">
        <ele>323.99432</ele>
        <time>2022-10-30T14:53:44.000Z</time>
      </trkpt>
      <trkpt lat="45.7953" lon="4.71957">
        <ele>323.58899</ele>
        <time>2022-10-30T14:53:45.000Z</time>
      </trkpt>
      <trkpt lat="45.79539" lon="4.71953">
        <ele>323.22437</ele>
        <time>2022-10-30T14:53:46.000Z</time>
      </trkpt>
      <trkpt lat="45.79547" lon="4.71948">
        <ele>322.84576</ele>
        <time>2022-10-30T14:53:47.000Z</time>
      </trkpt>
      <trkpt lat="45.79556" lon="4.71944">
        <ele>322.47015</ele>
        <time>2022-10-30T14:53:48.000Z</time>
      </trkpt>
      <trkpt lat="45.79564" lon="4.7194">
        <ele>322.12463</ele>
        <time>2022-10-30T14:53:49.000Z</time>
      </trkpt>
      <trkpt lat="45.79573" lon="4.71935">
        <ele>321.78369</ele>
        <time>2022-10-30T14:53:50.000Z</time>
      </trkpt>
      <trkpt lat="45.79582" lon="4.7193">
        <ele>321.42609</ele>
        <time>2022-10-30T14:53:51.000Z</time>
      </trkpt>
      <trkpt lat="45.79591" lon="4.71925">
        <ele>321.04959</ele>
        <time>2022-10-30T14:53:52.000Z</time>
      </trkpt>
      <trkpt lat="45.796" lon="4.7192">
        <ele>320.71167</ele>
        <time>2022-10-30T14:53:53.000Z</time>
      </trkpt>
      <trkpt lat="45.79609" lon="4.71916">
        <ele>320.35422</ele>
        <time>2022-10-30T14:53:54.000Z</time>
      </trkpt>
      <trkpt lat="45.79618" lon="4.71911">
        <ele>320.00006</ele>
        <time>2022-10-30T14:53:55.000Z</time>
      </trkpt>
      <trkpt lat="45.79627" lon="4.71906">
        <ele>319.67252</ele>
        <time>2022-10-30T14:53:56.000Z</time>
      </trkpt>
      <trkpt lat="45.79636" lon="4.71901">
        <ele>319.32535</ele>
        <time>2022-10-30T14:53:57.000Z</time>
      </trkpt>
      <trkpt lat="45.79645" lon="4.71896">
        <ele>319.0202</ele>
        <time>2022-10-30T14:53:58.000Z</time>
      </trkpt>
      <trkpt lat="45.79653" lon="4.71891">
        <ele>318.66925</ele>
        <time>2022-10-30T14:53:59.000Z</time>
      </trkpt>
      <trkpt lat="45.79662" lon="4.71887">
        <ele>318.28125</ele>
        <time>2022-10-30T14:54:00.000Z</time>
      </trkpt>
      <trkpt lat="45.7967" lon="4.71882">
        <ele>317.90744</ele>
        <time>2022-10-30T14:54:01.000Z</time>
      </trkpt>
      <trkpt lat="45.79677" lon="4.71877">
        <ele>317.53113</ele>
        <time>2022-10-30T14:54:02.000Z</time>
      </trkpt>
      <trkpt lat="45.79683" lon="4.71871">
        <ele>317.14923</ele>
        <time>2022-10-30T14:54:03.000Z</time>
      </trkpt>
      <trkpt lat="45.79689" lon="4.71864">
        <ele>316.73581</ele>
        <time>2022-10-30T14:54:04.000Z</time>
      </trkpt>
      <trkpt lat="45.79694" lon="4.71858">
        <ele>316.22699</ele>
        <time>2022-10-30T14:54:05.000Z</time>
      </trkpt>
      <trkpt lat="45.79699" lon="4.71852">
        <ele>315.70282</ele>
        <time>2022-10-30T14:54:06.000Z</time>
      </trkpt>
      <trkpt lat="45.79704" lon="4.71845">
        <ele>315.13892</ele>
        <time>2022-10-30T14:54:07.000Z</time>
      </trkpt>
      <trkpt lat="45.79708" lon="4.71839">
        <ele>314.57916</ele>
        <time>2022-10-30T14:54:08.000Z</time>
      </trkpt>
      <trkpt lat="45.79713" lon="4.71833">
        <ele>313.99985</ele>
        <time>2022-10-30T14:54:09.000Z</time>
      </trkpt>
      <trkpt lat="45.79718" lon="4.71827">
        <ele>313.42239</ele>
        <time>2022-10-30T14:54:10.000Z</time>
      </trkpt>
      <trkpt lat="45.79724" lon="4.71821">
        <ele>312.87567</ele>
        <time>2022-10-30T14:54:11.000Z</time>
      </trkpt>
      <trkpt lat="45.7973" lon="4.71816">
        <ele>312.35703</ele>
        <time>2022-10-30T14:54:12.000Z</time>
      </trkpt>
      <trkpt lat="45.79737" lon="4.71812">
        <ele>311.84586</ele>
        <time>2022-10-30T14:54:13.000Z</time>
      </trkpt>
      <trkpt lat="45.79743" lon="4.71808">
        <ele>311.36359</ele>
        <time>2022-10-30T14:54:14.000Z</time>
      </trkpt>
      <trkpt lat="45.79749" lon="4.71806">
        <ele>310.87433</ele>
        <time>2022-10-30T14:54:15.000Z</time>
      </trkpt>
      <trkpt lat="45.79756" lon="4.71804">
        <ele>310.38419</ele>
        <time>2022-10-30T14:54:16.000Z</time>
      </trkpt>
      <trkpt lat="45.79761" lon="4.71802">
        <ele>309.95892</ele>
        <time>2022-10-30T14:54:17.000Z</time>
      </trkpt>
      <trkpt lat="45.79768" lon="4.71801">
        <ele>309.56476</ele>
        <time>2022-10-30T14:54:18.000Z</time>
      </trkpt>
      <trkpt lat="45.79773" lon="4.71798">
        <ele>309.26273</ele>
        <time>2022-10-30T14:54:19.000Z</time>
      </trkpt>
      <trkpt lat="45.79779" lon="4.71796">
        <ele>309.00937</ele>
        <time>2022-10-30T14:54:20.000Z</time>
      </trkpt>
      <trkpt lat="45.79784" lon="4.71793">
        <ele>308.80457</ele>
        <time>2022-10-30T14:54:21.000Z</time>
      </trkpt>
      <trkpt lat="45.79789" lon="4.7179">
        <ele>308.61139</ele>
        <time>2022-10-30T14:54:22.000Z</time>
      </trkpt>
      <trkpt lat="45.79794" lon="4.71788">
        <ele>308.36581</ele>
        <time>2022-10-30T14:54:23.000Z</time>
      </trkpt>
      <trkpt lat="45.79799" lon="4.71786">
        <ele>308.20444</ele>
        <time>2022-10-30T14:54:24.000Z</time>
      </trkpt>
      <trkpt lat="45.79805" lon="4.71784">
        <ele>308.10345</ele>
        <time>2022-10-30T14:54:25.000Z</time>
      </trkpt>
      <trkpt lat="45.7981" lon="4.71784">
        <ele>308.02936</ele>
        <time>2022-10-30T14:54:26.000Z</time>
      </trkpt>
      <trkpt lat="45.79816" lon="4.71784">
        <ele>307.98148</ele>
        <time>2022-10-30T14:54:27.000Z</time>
      </trkpt>
      <trkpt lat="45.79821" lon="4.71785">
        <ele>307.98569</ele>
        <time>2022-10-30T14:54:28.000Z</time>
      </trkpt>
      <trkpt lat="45.79827" lon="4.71787">
        <ele>308.03046</ele>
        <time>2022-10-30T14:54:29.000Z</time>
      </trkpt>
      <trkpt lat="45.79832" lon="4.71788">
        <ele>308.11554</ele>
        <time>2022-10-30T14:54:30.000Z</time>
      </trkpt>
      <trkpt lat="45.79838" lon="4.71791">
        <ele>308.2298</ele>
        <time>2022-10-30T14:54:31.000Z</time>
      </trkpt>
      <trkpt lat="45.79844" lon="4.71793">
        <ele>308.3598</ele>
        <time>2022-10-30T14:54:32.000Z</time>
      </trkpt>
      <trkpt lat="45.79849" lon="4.71794">
        <ele>308.54193</ele>
        <time>2022-10-30T14:54:33.000Z</time>
      </trkpt>
      <trkpt lat="45.79855" lon="4.71792">
        <ele>308.72604</ele>
        <time>2022-10-30T14:54:34.000Z</time>
      </trkpt>
      <trkpt lat="45.79862" lon="4.7179">
        <ele>308.83673</ele>
        <time>2022-10-30T14:54:35.000Z</time>
      </trkpt>
      <trkpt lat="45.79867" lon="4.71788">
        <ele>308.93314</ele>
        <time>2022-10-30T14:54:36.000Z</time>
      </trkpt>
      <trkpt lat="45.79872" lon="4.71784">
        <ele>309.05331</ele>
        <time>2022-10-30T14:54:37.000Z</time>
      </trkpt>
      <trkpt lat="45.79876" lon="4.71778">
        <ele>309.10892</ele>
        <time>2022-10-30T14:54:38.000Z</time>
      </trkpt>
      <trkpt lat="45.7988" lon="4.71773">
        <ele>309.15717</ele>
        <time>2022-10-30T14:54:39.000Z</time>
      </trkpt>
      <trkpt lat="45.79884" lon="4.71767">
        <ele>309.18439</ele>
        <time>2022-10-30T14:54:40.000Z</time>
      </trkpt>
      <trkpt lat="45.79888" lon="4.71762">
        <ele>309.22964</ele>
        <time>2022-10-30T14:54:41.000Z</time>
      </trkpt>
      <trkpt lat="45.79892" lon="4.71756">
        <ele>309.27032</ele>
        <time>2022-10-30T14:54:42.000Z</time>
      </trkpt>
      <trkpt lat="45.79896" lon="4.71752">
        <ele>309.34702</ele>
        <time>2022-10-30T14:54:43.000Z</time>
      </trkpt>
      <trkpt lat="45.799" lon="4.71746">
        <ele>309.42682</ele>
        <time>2022-10-30T14:54:44.000Z</time>
      </trkpt>
      <trkpt lat="45.79904" lon="4.71741">
        <ele>309.57416</ele>
        <time>2022-10-30T14:54:45.000Z</time>
      </trkpt>
      <trkpt lat="45.79908" lon="4.71736">
        <ele>309.71194</ele>
        <time>2022-10-30T14:54:46.000Z</time>
      </trkpt>
      <trkpt lat="45.79913" lon="4.71731">
        <ele>309.88605</ele>
        <time>2022-10-30T14:54:47.000Z</time>
      </trkpt>
      <trkpt lat="45.79917" lon="4.71726">
        <ele>310.02832</ele>
        <time>2022-10-30T14:54:48.000Z</time>
      </trkpt>
      <trkpt lat="45.79921" lon="4.71721">
        <ele>310.17963</ele>
        <time>2022-10-30T14:54:49.000Z</time>
      </trkpt>
      <trkpt lat="45.79925" lon="4.71716">
        <ele>310.29718</ele>
        <time>2022-10-30T14:54:50.000Z</time>
      </trkpt>
      <trkpt lat="45.79929" lon="4.71713">
        <ele>310.40231</ele>
        <time>2022-10-30T14:54:51.000Z</time>
      </trkpt>
      <trkpt lat="45.79934" lon="4.71712">
        <ele>310.54037</ele>
        <time>2022-10-30T14:54:52.000Z</time>
      </trkpt>
      <trkpt lat="45.7994" lon="4.71712">
        <ele>310.65576</ele>
        <time>2022-10-30T14:54:53.000Z</time>
      </trkpt>
      <trkpt lat="45.79945" lon="4.71711">
        <ele>310.78806</ele>
        <time>2022-10-30T14:54:54.000Z</time>
      </trkpt>
      <trkpt lat="45.79951" lon="4.7171">
        <ele>311.03101</ele>
        <time>2022-10-30T14:54:55.000Z</time>
      </trkpt>
      <trkpt lat="45.79956" lon="4.71708">
        <ele>311.2869</ele>
        <time>2022-10-30T14:54:56.000Z</time>
      </trkpt>
      <trkpt lat="45.7996" lon="4.71704">
        <ele>311.53381</ele>
        <time>2022-10-30T14:54:57.000Z</time>
      </trkpt>
      <trkpt lat="45.79964" lon="4.71699">
        <ele>311.83405</ele>
        <time>2022-10-30T14:54:58.000Z</time>
      </trkpt>
      <trkpt lat="45.79968" lon="4.71694">
        <ele>312.1232</ele>
        <time>2022-10-30T14:54:59.000Z</time>
      </trkpt>
      <trkpt lat="45.79972" lon="4.71688">
        <ele>312.46011</ele>
        <time>2022-10-30T14:55:00.000Z</time>
      </trkpt>
      <trkpt lat="45.79976" lon="4.71683">
        <ele>312.75018</ele>
        <time>2022-10-30T14:55:01.000Z</time>
      </trkpt>
      <trkpt lat="45.79981" lon="4.71678">
        <ele>313.01105</ele>
        <time>2022-10-30T14:55:02.000Z</time>
      </trkpt>
      <trkpt lat="45.79985" lon="4.71672">
        <ele>313.27429</ele>
        <time>2022-10-30T14:55:03.000Z</time>
      </trkpt>
      <trkpt lat="45.79989" lon="4.71666">
        <ele>313.495</ele>
        <time>2022-10-30T14:55:04.000Z</time>
      </trkpt>
      <trkpt lat="45.79993" lon="4.7166">
        <ele>313.66876</ele>
        <time>2022-10-30T14:55:05.000Z</time>
      </trkpt>
      <trkpt lat="45.79997" lon="4.71655">
        <ele>313.85733</ele>
        <time>2022-10-30T14:55:06.000Z</time>
      </trkpt>
      <trkpt lat="45.80001" lon="4.71651">
        <ele>314.01398</ele>
        <time>2022-10-30T14:55:07.000Z</time>
      </trkpt>
      <trkpt lat="45.80005" lon="4.71646">
        <ele>314.18988</ele>
        <time>2022-10-30T14:55:08.000Z</time>
      </trkpt>
      <trkpt lat="45.80008" lon="4.71641">
        <ele>314.34457</ele>
        <time>2022-10-30T14:55:09.000Z</time>
      </trkpt>
      <trkpt lat="45.80012" lon="4.71634">
        <ele>314.48462</ele>
        <time>2022-10-30T14:55:10.000Z</time>
      </trkpt>
      <trkpt lat="45.80016" lon="4.71629">
        <ele>314.58105</ele>
        <time>2022-10-30T14:55:11.000Z</time>
      </trkpt>
      <trkpt lat="45.8002" lon="4.71624">
        <ele>314.6319</ele>
        <time>2022-10-30T14:55:12.000Z</time>
      </trkpt>
      <trkpt lat="45.80024" lon="4.71619">
        <ele>314.6582</ele>
        <time>2022-10-30T14:55:13.000Z</time>
      </trkpt>
      <trkpt lat="45.80028" lon="4.71614">
        <ele>314.63025</ele>
        <time>2022-10-30T14:55:14.000Z</time>
      </trkpt>
      <trkpt lat="45.80032" lon="4.71608">
        <ele>314.5795</ele>
        <time>2022-10-30T14:55:15.000Z</time>
      </trkpt>
      <trkpt lat="45.80036" lon="4.71602">
        <ele>314.54614</ele>
        <time>2022-10-30T14:55:16.000Z</time>
      </trkpt>
      <trkpt lat="45.80039" lon="4.71598">
        <ele>314.48499</ele>
        <time>2022-10-30T14:55:17.000Z</time>
      </trkpt>
      <trkpt lat="45.80043" lon="4.71596">
        <ele>314.42853</ele>
        <time>2022-10-30T14:55:18.000Z</time>
      </trkpt>
      <trkpt lat="45.80045" lon="4.71593">
        <ele>314.34717</ele>
        <time>2022-10-30T14:55:19.000Z</time>
      </trkpt>
      <trkpt lat="45.80047" lon="4.71591">
        <ele>314.23135</ele>
        <time>2022-10-30T14:55:20.000Z</time>
      </trkpt>
      <trkpt lat="45.8005" lon="4.7159">
        <ele>314.09866</ele>
        <time>2022-10-30T14:55:21.000Z</time>
      </trkpt>
      <trkpt lat="45.80052" lon="4.71589">
        <ele>314.0025</ele>
        <time>2022-10-30T14:55:22.000Z</time>
      </trkpt>
      <trkpt lat="45.80054" lon="4.71588">
        <ele>313.94318</ele>
        <time>2022-10-30T14:55:23.000Z</time>
      </trkpt>
      <trkpt lat="45.80056" lon="4.71586">
        <ele>313.91675</ele>
        <time>2022-10-30T14:55:24.000Z</time>
      </trkpt>
      <trkpt lat="45.80057" lon="4.71582">
        <ele>313.89377</ele>
        <time>2022-10-30T14:55:25.000Z</time>
      </trkpt>
      <trkpt lat="45.80058" lon="4.7158">
        <ele>313.82721</ele>
        <time>2022-10-30T14:55:26.000Z</time>
      </trkpt>
      <trkpt lat="45.80059" lon="4.71576">
        <ele>313.80078</ele>
        <time>2022-10-30T14:55:27.000Z</time>
      </trkpt>
      <trkpt lat="45.80061" lon="4.71572">
        <ele>313.78384</ele>
        <time>2022-10-30T14:55:28.000Z</time>
      </trkpt>
      <trkpt lat="45.80062" lon="4.71568">
        <ele>313.7597</ele>
        <time>2022-10-30T14:55:29.000Z</time>
      </trkpt>
      <trkpt lat="45.80064" lon="4.71563">
        <ele>313.75433</ele>
        <time>2022-10-30T14:55:30.000Z</time>
      </trkpt>
      <trkpt lat="45.80065" lon="4.71559">
        <ele>313.79507</ele>
        <time>2022-10-30T14:55:31.000Z</time>
      </trkpt>
      <trkpt lat="45.80067" lon="4.71555">
        <ele>313.83783</ele>
        <time>2022-10-30T14:55:32.000Z</time>
      </trkpt>
      <trkpt lat="45.80069" lon="4.71552">
        <ele>313.8674</ele>
        <time>2022-10-30T14:55:33.000Z</time>
      </trkpt>
      <trkpt lat="45.80071" lon="4.71549">
        <ele>313.93817</ele>
        <time>2022-10-30T14:55:34.000Z</time>
      </trkpt>
      <trkpt lat="45.80072" lon="4.71547">
        <ele>314.01251</ele>
        <time>2022-10-30T14:55:35.000Z</time>
      </trkpt>
      <trkpt lat="45.80074" lon="4.71544">
        <ele>314.06122</ele>
        <time>2022-10-30T14:55:36.000Z</time>
      </trkpt>
      <trkpt lat="45.80077" lon="4.71541">
        <ele>314.12</ele>
        <time>2022-10-30T14:55:37.000Z</time>
      </trkpt>
      <trkpt lat="45.80079" lon="4.71538">
        <ele>314.13287</ele>
        <time>2022-10-30T14:55:38.000Z</time>
      </trkpt>
      <trkpt lat="45.80082" lon="4.71536">
        <ele>314.15448</ele>
        <time>2022-10-30T14:55:39.000Z</time>
      </trkpt>
      <trkpt lat="45.80084" lon="4.71533">
        <ele>314.17487</ele>
        <time>2022-10-30T14:55:40.000Z</time>
      </trkpt>
      <trkpt lat="45.80087" lon="4.71531">
        <ele>314.21365</ele>
        <time>2022-10-30T14:55:41.000Z</time>
      </trkpt>
      <trkpt lat="45.8009" lon="4.71528">
        <ele>314.23343</ele>
        <time>2022-10-30T14:55:42.000Z</time>
      </trkpt>
      <trkpt lat="45.80092" lon="4.71525">
        <ele>314.23624</ele>
        <time>2022-10-30T14:55:43.000Z</time>
      </trkpt>
      <trkpt lat="45.80095" lon="4.71523">
        <ele>314.20511</ele>
        <time>2022-10-30T14:55:44.000Z</time>
      </trkpt>
      <trkpt lat="45.80098" lon="4.7152">
        <ele>314.1843</ele>
        <time>2022-10-30T14:55:45.000Z</time>
      </trkpt>
      <trkpt lat="45.80101" lon="4.71518">
        <ele>314.1601</ele>
        <time>2022-10-30T14:55:46.000Z</time>
      </trkpt>
      <trkpt lat="45.80103" lon="4.71515">
        <ele>314.10428</ele>
        <time>2022-10-30T14:55:47.000Z</time>
      </trkpt>
      <trkpt lat="45.80106" lon="4.71512">
        <ele>313.99554</ele>
        <time>2022-10-30T14:55:48.000Z</time>
      </trkpt>
      <trkpt lat="45.80109" lon="4.71509">
        <ele>313.86844</ele>
        <time>2022-10-30T14:55:49.000Z</time>
      </trkpt>
      <trkpt lat="45.80112" lon="4.71506">
        <ele>313.72217</ele>
        <time>2022-10-30T14:55:50.000Z</time>
      </trkpt>
      <trkpt lat="45.80115" lon="4.71503">
        <ele>313.55066</ele>
        <time>2022-10-30T14:55:51.000Z</time>
      </trkpt>
      <trkpt lat="45.80118" lon="4.715">
        <ele>313.35876</ele>
        <time>2022-10-30T14:55:52.000Z</time>
      </trkpt>
      <trkpt lat="45.80121" lon="4.71498">
        <ele>313.17749</ele>
        <time>2022-10-30T14:55:53.000Z</time>
      </trkpt>
      <trkpt lat="45.80124" lon="4.71495">
        <ele>313.01529</ele>
        <time>2022-10-30T14:55:54.000Z</time>
      </trkpt>
      <trkpt lat="45.80127" lon="4.71492">
        <ele>312.87613</ele>
        <time>2022-10-30T14:55:55.000Z</time>
      </trkpt>
      <trkpt lat="45.8013" lon="4.71489">
        <ele>312.7269</ele>
        <time>2022-10-30T14:55:56.000Z</time>
      </trkpt>
      <trkpt lat="45.80133" lon="4.71487">
        <ele>312.56335</ele>
        <time>2022-10-30T14:55:57.000Z</time>
      </trkpt>
      <trkpt lat="45.80136" lon="4.71484">
        <ele>312.42096</ele>
        <time>2022-10-30T14:55:58.000Z</time>
      </trkpt>
      <trkpt lat="45.80139" lon="4.71481">
        <ele>312.26221</ele>
        <time>2022-10-30T14:55:59.000Z</time>
      </trkpt>
      <trkpt lat="45.80142" lon="4.71479">
        <ele>312.10999</ele>
        <time>2022-10-30T14:56:00.000Z</time>
      </trkpt>
      <trkpt lat="45.80146" lon="4.71476">
        <ele>311.97568</ele>
        <time>2022-10-30T14:56:01.000Z</time>
      </trkpt>
      <trkpt lat="45.80149" lon="4.71473">
        <ele>311.8566</ele>
        <time>2022-10-30T14:56:02.000Z</time>
      </trkpt>
      <trkpt lat="45.80152" lon="4.71471">
        <ele>311.74725</ele>
        <time>2022-10-30T14:56:03.000Z</time>
      </trkpt>
      <trkpt lat="45.80156" lon="4.71468">
        <ele>311.69247</ele>
        <time>2022-10-30T14:56:04.000Z</time>
      </trkpt>
      <trkpt lat="45.80159" lon="4.71465">
        <ele>311.64597</ele>
        <time>2022-10-30T14:56:05.000Z</time>
      </trkpt>
      <trkpt lat="45.80162" lon="4.71462">
        <ele>311.61386</ele>
        <time>2022-10-30T14:56:06.000Z</time>
      </trkpt>
      <trkpt lat="45.80165" lon="4.71459">
        <ele>311.63391</ele>
        <time>2022-10-30T14:56:07.000Z</time>
      </trkpt>
      <trkpt lat="45.80168" lon="4.71456">
        <ele>311.66901</ele>
        <time>2022-10-30T14:56:08.000Z</time>
      </trkpt>
      <trkpt lat="45.80171" lon="4.71452">
        <ele>311.72565</ele>
        <time>2022-10-30T14:56:09.000Z</time>
      </trkpt>
      <trkpt lat="45.80173" lon="4.71449">
        <ele>311.80948</ele>
        <time>2022-10-30T14:56:10.000Z</time>
      </trkpt>
      <trkpt lat="45.80176" lon="4.71446">
        <ele>311.95013</ele>
        <time>2022-10-30T14:56:11.000Z</time>
      </trkpt>
      <trkpt lat="45.80179" lon="4.71442">
        <ele>312.13007</ele>
        <time>2022-10-30T14:56:12.000Z</time>
      </trkpt>
      <trkpt lat="45.80182" lon="4.71439">
        <ele>312.3226</ele>
        <time>2022-10-30T14:56:13.000Z</time>
      </trkpt>
      <trkpt lat="45.80185" lon="4.71436">
        <ele>312.49774</ele>
        <time>2022-10-30T14:56:14.000Z</time>
      </trkpt>
      <trkpt lat="45.80188" lon="4.71432">
        <ele>312.66165</ele>
        <time>2022-10-30T14:56:15.000Z</time>
      </trkpt>
      <trkpt lat="45.8019" lon="4.71429">
        <ele>312.84659</ele>
        <time>2022-10-30T14:56:16.000Z</time>
      </trkpt>
      <trkpt lat="45.80193" lon="4.71426">
        <ele>313.02499</ele>
        <time>2022-10-30T14:56:17.000Z</time>
      </trkpt>
      <trkpt lat="45.80195" lon="4.71423">
        <ele>313.19855</ele>
        <time>2022-10-30T14:56:18.000Z</time>
      </trkpt>
      <trkpt lat="45.80197" lon="4.71422">
        <ele>313.34641</ele>
        <time>2022-10-30T14:56:19.000Z</time>
      </trkpt>
      <trkpt lat="45.80199" lon="4.71421">
        <ele>313.45688</ele>
        <time>2022-10-30T14:56:20.000Z</time>
      </trkpt>
      <trkpt lat="45.80203" lon="4.71424">
        <ele>313.49448</ele>
        <time>2022-10-30T14:56:22.000Z</time>
      </trkpt>
      <trkpt lat="45.80205" lon="4.71424">
        <ele>313.54803</ele>
        <time>2022-10-30T14:56:23.000Z</time>
      </trkpt>
      <trkpt lat="45.80207" lon="4.71423">
        <ele>313.55661</ele>
        <time>2022-10-30T14:56:24.000Z</time>
      </trkpt>
      <trkpt lat="45.80209" lon="4.71422">
        <ele>313.52689</ele>
        <time>2022-10-30T14:56:25.000Z</time>
      </trkpt>
      <trkpt lat="45.80211" lon="4.7142">
        <ele>313.50201</ele>
        <time>2022-10-30T14:56:26.000Z</time>
      </trkpt>
      <trkpt lat="45.80213" lon="4.71418">
        <ele>313.49301</ele>
        <time>2022-10-30T14:56:27.000Z</time>
      </trkpt>
      <trkpt lat="45.80215" lon="4.71416">
        <ele>313.49661</ele>
        <time>2022-10-30T14:56:28.000Z</time>
      </trkpt>
      <trkpt lat="45.80216" lon="4.71413">
        <ele>313.51837</ele>
        <time>2022-10-30T14:56:29.000Z</time>
      </trkpt>
      <trkpt lat="45.80218" lon="4.71408">
        <ele>313.50662</ele>
        <time>2022-10-30T14:56:31.000Z</time>
      </trkpt>
      <trkpt lat="45.80221" lon="4.71405">
        <ele>313.49048</ele>
        <time>2022-10-30T14:56:32.000Z</time>
      </trkpt>
      <trkpt lat="45.80223" lon="4.71401">
        <ele>313.42712</ele>
        <time>2022-10-30T14:56:33.000Z</time>
      </trkpt>
      <trkpt lat="45.80225" lon="4.71397">
        <ele>313.35364</ele>
        <time>2022-10-30T14:56:34.000Z</time>
      </trkpt>
      <trkpt lat="45.80226" lon="4.71394">
        <ele>313.27173</ele>
        <time>2022-10-30T14:56:35.000Z</time>
      </trkpt>
      <trkpt lat="45.80228" lon="4.7139">
        <ele>313.21533</ele>
        <time>2022-10-30T14:56:36.000Z</time>
      </trkpt>
      <trkpt lat="45.8023" lon="4.71386">
        <ele>313.16229</ele>
        <time>2022-10-30T14:56:37.000Z</time>
      </trkpt>
      <trkpt lat="45.80232" lon="4.71383">
        <ele>313.13336</ele>
        <time>2022-10-30T14:56:38.000Z</time>
      </trkpt>
      <trkpt lat="45.80234" lon="4.71379">
        <ele>313.14252</ele>
        <time>2022-10-30T14:56:39.000Z</time>
      </trkpt>
      <trkpt lat="45.80237" lon="4.71376">
        <ele>313.18912</ele>
        <time>2022-10-30T14:56:40.000Z</time>
      </trkpt>
      <trkpt lat="45.80239" lon="4.71373">
        <ele>313.26532</ele>
        <time>2022-10-30T14:56:41.000Z</time>
      </trkpt>
      <trkpt lat="45.80241" lon="4.71368">
        <ele>313.44257</ele>
        <time>2022-10-30T14:56:42.000Z</time>
      </trkpt>
      <trkpt lat="45.80243" lon="4.71365">
        <ele>313.66998</ele>
        <time>2022-10-30T14:56:43.000Z</time>
      </trkpt>
      <trkpt lat="45.80245" lon="4.71361">
        <ele>313.90393</ele>
        <time>2022-10-30T14:56:44.000Z</time>
      </trkpt>
      <trkpt lat="45.80247" lon="4.71358">
        <ele>314.22598</ele>
        <time>2022-10-30T14:56:45.000Z</time>
      </trkpt>
      <trkpt lat="45.80249" lon="4.71354">
        <ele>314.54828</ele>
        <time>2022-10-30T14:56:46.000Z</time>
      </trkpt>
      <trkpt lat="45.80251" lon="4.7135">
        <ele>314.905</ele>
        <time>2022-10-30T14:56:47.000Z</time>
      </trkpt>
      <trkpt lat="45.80253" lon="4.71346">
        <ele>315.31158</ele>
        <time>2022-10-30T14:56:48.000Z</time>
      </trkpt>
      <trkpt lat="45.80255" lon="4.71342">
        <ele>315.59457</ele>
        <time>2022-10-30T14:56:49.000Z</time>
      </trkpt>
      <trkpt lat="45.80258" lon="4.71339">
        <ele>315.9057</ele>
        <time>2022-10-30T14:56:50.000Z</time>
      </trkpt>
      <trkpt lat="45.8026" lon="4.71336">
        <ele>316.21896</ele>
        <time>2022-10-30T14:56:51.000Z</time>
      </trkpt>
      <trkpt lat="45.80263" lon="4.71334">
        <ele>316.56784</ele>
        <time>2022-10-30T14:56:52.000Z</time>
      </trkpt>
      <trkpt lat="45.80267" lon="4.71333">
        <ele>316.92123</ele>
        <time>2022-10-30T14:56:53.000Z</time>
      </trkpt>
      <trkpt lat="45.80271" lon="4.71332">
        <ele>317.2814</ele>
        <time>2022-10-30T14:56:54.000Z</time>
      </trkpt>
      <trkpt lat="45.80274" lon="4.71334">
        <ele>317.67963</ele>
        <time>2022-10-30T14:56:55.000Z</time>
      </trkpt>
      <trkpt lat="45.80276" lon="4.71337">
        <ele>318.04614</ele>
        <time>2022-10-30T14:56:56.000Z</time>
      </trkpt>
      <trkpt lat="45.80278" lon="4.71341">
        <ele>318.37018</ele>
        <time>2022-10-30T14:56:57.000Z</time>
      </trkpt>
      <trkpt lat="45.8028" lon="4.71343">
        <ele>318.74139</ele>
        <time>2022-10-30T14:56:58.000Z</time>
      </trkpt>
      <trkpt lat="45.80282" lon="4.71346">
        <ele>319.11612</ele>
        <time>2022-10-30T14:56:59.000Z</time>
      </trkpt>
      <trkpt lat="45.80284" lon="4.71349">
        <ele>319.47141</ele>
        <time>2022-10-30T14:57:00.000Z</time>
      </trkpt>
      <trkpt lat="45.80286" lon="4.71352">
        <ele>319.88245</ele>
        <time>2022-10-30T14:57:01.000Z</time>
      </trkpt>
      <trkpt lat="45.80289" lon="4.71354">
        <ele>320.24823</ele>
        <time>2022-10-30T14:57:02.000Z</time>
      </trkpt>
      <trkpt lat="45.80292" lon="4.71356">
        <ele>320.67026</ele>
        <time>2022-10-30T14:57:03.000Z</time>
      </trkpt>
      <trkpt lat="45.80294" lon="4.71358">
        <ele>321.11621</ele>
        <time>2022-10-30T14:57:04.000Z</time>
      </trkpt>
      <trkpt lat="45.80297" lon="4.7136">
        <ele>321.49698</ele>
        <time>2022-10-30T14:57:05.000Z</time>
      </trkpt>
      <trkpt lat="45.803" lon="4.71361">
        <ele>321.91888</ele>
        <time>2022-10-30T14:57:06.000Z</time>
      </trkpt>
      <trkpt lat="45.80303" lon="4.71362">
        <ele>322.32635</ele>
        <time>2022-10-30T14:57:07.000Z</time>
      </trkpt>
      <trkpt lat="45.80306" lon="4.71364">
        <ele>322.74106</ele>
        <time>2022-10-30T14:57:08.000Z</time>
      </trkpt>
      <trkpt lat="45.80309" lon="4.71364">
        <ele>323.24271</ele>
        <time>2022-10-30T14:57:09.000Z</time>
      </trkpt>
      <trkpt lat="45.80313" lon="4.71366">
        <ele>323.72604</ele>
        <time>2022-10-30T14:57:10.000Z</time>
      </trkpt>
      <trkpt lat="45.80316" lon="4.71367">
        <ele>324.29114</ele>
        <time>2022-10-30T14:57:11.000Z</time>
      </trkpt>
      <trkpt lat="45.80319" lon="4.71368">
        <ele>324.79883</ele>
        <time>2022-10-30T14:57:12.000Z</time>
      </trkpt>
      <trkpt lat="45.80322" lon="4.7137">
        <ele>325.26532</ele>
        <time>2022-10-30T14:57:13.000Z</time>
      </trkpt>
      <trkpt lat="45.80325" lon="4.71372">
        <ele>325.73126</ele>
        <time>2022-10-30T14:57:14.000Z</time>
      </trkpt>
      <trkpt lat="45.80328" lon="4.71373">
        <ele>326.17035</ele>
        <time>2022-10-30T14:57:15.000Z</time>
      </trkpt>
      <trkpt lat="45.80332" lon="4.71374">
        <ele>326.57623</ele>
        <time>2022-10-30T14:57:16.000Z</time>
      </trkpt>
      <trkpt lat="45.80335" lon="4.71375">
        <ele>326.99225</ele>
        <time>2022-10-30T14:57:17.000Z</time>
      </trkpt>
      <trkpt lat="45.80339" lon="4.71375">
        <ele>327.34467</ele>
        <time>2022-10-30T14:57:18.000Z</time>
      </trkpt>
      <trkpt lat="45.80342" lon="4.71377">
        <ele>327.68417</ele>
        <time>2022-10-30T14:57:19.000Z</time>
      </trkpt>
      <trkpt lat="45.80345" lon="4.71378">
        <ele>328.03998</ele>
        <time>2022-10-30T14:57:20.000Z</time>
      </trkpt>
      <trkpt lat="45.80348" lon="4.7138">
        <ele>328.35022</ele>
        <time>2022-10-30T14:57:21.000Z</time>
      </trkpt>
      <trkpt lat="45.80351" lon="4.71382">
        <ele>328.66574</ele>
        <time>2022-10-30T14:57:22.000Z</time>
      </trkpt>
      <trkpt lat="45.80355" lon="4.71383">
        <ele>328.90164</ele>
        <time>2022-10-30T14:57:23.000Z</time>
      </trkpt>
      <trkpt lat="45.80358" lon="4.71384">
        <ele>329.11255</ele>
        <time>2022-10-30T14:57:24.000Z</time>
      </trkpt>
      <trkpt lat="45.80362" lon="4.71385">
        <ele>329.3454</ele>
        <time>2022-10-30T14:57:25.000Z</time>
      </trkpt>
      <trkpt lat="45.80365" lon="4.71386">
        <ele>329.51416</ele>
        <time>2022-10-30T14:57:26.000Z</time>
      </trkpt>
      <trkpt lat="45.80369" lon="4.71386">
        <ele>329.62067</ele>
        <time>2022-10-30T14:57:27.000Z</time>
      </trkpt>
      <trkpt lat="45.80372" lon="4.71387">
        <ele>329.67661</ele>
        <time>2022-10-30T14:57:28.000Z</time>
      </trkpt>
      <trkpt lat="45.80376" lon="4.71388">
        <ele>329.75262</ele>
        <time>2022-10-30T14:57:29.000Z</time>
      </trkpt>
      <trkpt lat="45.80379" lon="4.71389">
        <ele>329.83548</ele>
        <time>2022-10-30T14:57:30.000Z</time>
      </trkpt>
      <trkpt lat="45.80383" lon="4.7139">
        <ele>329.92538</ele>
        <time>2022-10-30T14:57:31.000Z</time>
      </trkpt>
      <trkpt lat="45.80387" lon="4.71391">
        <ele>330.01831</ele>
        <time>2022-10-30T14:57:32.000Z</time>
      </trkpt>
      <trkpt lat="45.8039" lon="4.71393">
        <ele>330.17386</ele>
        <time>2022-10-30T14:57:33.000Z</time>
      </trkpt>
      <trkpt lat="45.80394" lon="4.71394">
        <ele>330.34979</ele>
        <time>2022-10-30T14:57:34.000Z</time>
      </trkpt>
      <trkpt lat="45.80398" lon="4.71395">
        <ele>330.50836</ele>
        <time>2022-10-30T14:57:35.000Z</time>
      </trkpt>
      <trkpt lat="45.80402" lon="4.71395">
        <ele>330.72086</ele>
        <time>2022-10-30T14:57:36.000Z</time>
      </trkpt>
      <trkpt lat="45.80406" lon="4.71396">
        <ele>330.94272</ele>
        <time>2022-10-30T14:57:37.000Z</time>
      </trkpt>
      <trkpt lat="45.8041" lon="4.71397">
        <ele>331.16675</ele>
        <time>2022-10-30T14:57:38.000Z</time>
      </trkpt>
      <trkpt lat="45.80414" lon="4.71398">
        <ele>331.40433</ele>
        <time>2022-10-30T14:57:39.000Z</time>
      </trkpt>
      <trkpt lat="45.80418" lon="4.71398">
        <ele>331.62891</ele>
        <time>2022-10-30T14:57:40.000Z</time>
      </trkpt>
      <trkpt lat="45.80422" lon="4.71399">
        <ele>331.87451</ele>
        <time>2022-10-30T14:57:41.000Z</time>
      </trkpt>
      <trkpt lat="45.80426" lon="4.71401">
        <ele>332.14172</ele>
        <time>2022-10-30T14:57:42.000Z</time>
      </trkpt>
      <trkpt lat="45.8043" lon="4.71402">
        <ele>332.47745</ele>
        <time>2022-10-30T14:57:43.000Z</time>
      </trkpt>
      <trkpt lat="45.80433" lon="4.71402">
        <ele>332.82535</ele>
        <time>2022-10-30T14:57:44.000Z</time>
      </trkpt>
      <trkpt lat="45.80437" lon="4.71403">
        <ele>333.19891</ele>
        <time>2022-10-30T14:57:45.000Z</time>
      </trkpt>
      <trkpt lat="45.80441" lon="4.71405">
        <ele>333.61157</ele>
        <time>2022-10-30T14:57:46.000Z</time>
      </trkpt>
      <trkpt lat="45.80445" lon="4.71406">
        <ele>334.04999</ele>
        <time>2022-10-30T14:57:47.000Z</time>
      </trkpt>
      <trkpt lat="45.80448" lon="4.71408">
        <ele>334.46155</ele>
        <time>2022-10-30T14:57:48.000Z</time>
      </trkpt>
      <trkpt lat="45.80452" lon="4.71408">
        <ele>334.84561</ele>
        <time>2022-10-30T14:57:49.000Z</time>
      </trkpt>
      <trkpt lat="45.80456" lon="4.7141">
        <ele>335.18677</ele>
        <time>2022-10-30T14:57:50.000Z</time>
      </trkpt>
      <trkpt lat="45.8046" lon="4.71411">
        <ele>335.47339</ele>
        <time>2022-10-30T14:57:51.000Z</time>
      </trkpt>
      <trkpt lat="45.80464" lon="4.71412">
        <ele>335.79453</ele>
        <time>2022-10-30T14:57:52.000Z</time>
      </trkpt>
      <trkpt lat="45.80469" lon="4.71412">
        <ele>336.10541</ele>
        <time>2022-10-30T14:57:53.000Z</time>
      </trkpt>
      <trkpt lat="45.80473" lon="4.71412">
        <ele>336.37711</ele>
        <time>2022-10-30T14:57:54.000Z</time>
      </trkpt>
      <trkpt lat="45.80477" lon="4.71413">
        <ele>336.65182</ele>
        <time>2022-10-30T14:57:55.000Z</time>
      </trkpt>
      <trkpt lat="45.80481" lon="4.71415">
        <ele>336.91718</ele>
        <time>2022-10-30T14:57:56.000Z</time>
      </trkpt>
      <trkpt lat="45.80485" lon="4.71416">
        <ele>337.1882</ele>
        <time>2022-10-30T14:57:57.000Z</time>
      </trkpt>
      <trkpt lat="45.80489" lon="4.71417">
        <ele>337.46649</ele>
        <time>2022-10-30T14:57:58.000Z</time>
      </trkpt>
      <trkpt lat="45.80493" lon="4.71418">
        <ele>337.72412</ele>
        <time>2022-10-30T14:57:59.000Z</time>
      </trkpt>
      <trkpt lat="45.80498" lon="4.71419">
        <ele>337.97406</ele>
        <time>2022-10-30T14:58:00.000Z</time>
      </trkpt>
      <trkpt lat="45.80502" lon="4.71421">
        <ele>338.21838</ele>
        <time>2022-10-30T14:58:01.000Z</time>
      </trkpt>
      <trkpt lat="45.80506" lon="4.71422">
        <ele>338.42651</ele>
        <time>2022-10-30T14:58:02.000Z</time>
      </trkpt>
      <trkpt lat="45.80511" lon="4.71423">
        <ele>338.59976</ele>
        <time>2022-10-30T14:58:03.000Z</time>
      </trkpt>
      <trkpt lat="45.80515" lon="4.71425">
        <ele>338.76382</ele>
        <time>2022-10-30T14:58:04.000Z</time>
      </trkpt>
      <trkpt lat="45.80519" lon="4.71425">
        <ele>338.91971</ele>
        <time>2022-10-30T14:58:05.000Z</time>
      </trkpt>
      <trkpt lat="45.80523" lon="4.71426">
        <ele>339.0838</ele>
        <time>2022-10-30T14:58:06.000Z</time>
      </trkpt>
      <trkpt lat="45.80528" lon="4.71426">
        <ele>339.26147</ele>
        <time>2022-10-30T14:58:07.000Z</time>
      </trkpt>
      <trkpt lat="45.80532" lon="4.71427">
        <ele>339.45673</ele>
        <time>2022-10-30T14:58:08.000Z</time>
      </trkpt>
      <trkpt lat="45.80536" lon="4.71428">
        <ele>339.64233</ele>
        <time>2022-10-30T14:58:09.000Z</time>
      </trkpt>
      <trkpt lat="45.8054" lon="4.71429">
        <ele>339.84637</ele>
        <time>2022-10-30T14:58:10.000Z</time>
      </trkpt>
      <trkpt lat="45.80544" lon="4.7143">
        <ele>340.07239</ele>
        <time>2022-10-30T14:58:11.000Z</time>
      </trkpt>
      <trkpt lat="45.80549" lon="4.7143">
        <ele>340.25116</ele>
        <time>2022-10-30T14:58:12.000Z</time>
      </trkpt>
      <trkpt lat="45.80553" lon="4.7143">
        <ele>340.4194</ele>
        <time>2022-10-30T14:58:13.000Z</time>
      </trkpt>
      <trkpt lat="45.80557" lon="4.7143">
        <ele>340.61044</ele>
        <time>2022-10-30T14:58:14.000Z</time>
      </trkpt>
      <trkpt lat="45.80561" lon="4.71431">
        <ele>340.84555</ele>
        <time>2022-10-30T14:58:15.000Z</time>
      </trkpt>
      <trkpt lat="45.80566" lon="4.71432">
        <ele>341.07324</ele>
        <time>2022-10-30T14:58:16.000Z</time>
      </trkpt>
      <trkpt lat="45.8057" lon="4.71432">
        <ele>341.32721</ele>
        <time>2022-10-30T14:58:17.000Z</time>
      </trkpt>
      <trkpt lat="45.80574" lon="4.71434">
        <ele>341.56073</ele>
        <time>2022-10-30T14:58:18.000Z</time>
      </trkpt>
      <trkpt lat="45.80579" lon="4.71434">
        <ele>341.80307</ele>
        <time>2022-10-30T14:58:19.000Z</time>
      </trkpt>
      <trkpt lat="45.80583" lon="4.71435">
        <ele>342.02856</ele>
        <time>2022-10-30T14:58:20.000Z</time>
      </trkpt>
      <trkpt lat="45.80587" lon="4.71435">
        <ele>342.31012</ele>
        <time>2022-10-30T14:58:21.000Z</time>
      </trkpt>
      <trkpt lat="45.80592" lon="4.71435">
        <ele>342.61609</ele>
        <time>2022-10-30T14:58:22.000Z</time>
      </trkpt>
      <trkpt lat="45.80596" lon="4.71434">
        <ele>342.90921</ele>
        <time>2022-10-30T14:58:23.000Z</time>
      </trkpt>
      <trkpt lat="45.806" lon="4.71434">
        <ele>343.14542</ele>
        <time>2022-10-30T14:58:24.000Z</time>
      </trkpt>
      <trkpt lat="45.80605" lon="4.71435">
        <ele>343.35577</ele>
        <time>2022-10-30T14:58:25.000Z</time>
      </trkpt>
      <trkpt lat="45.80609" lon="4.71435">
        <ele>343.54834</ele>
        <time>2022-10-30T14:58:26.000Z</time>
      </trkpt>
      <trkpt lat="45.80613" lon="4.71434">
        <ele>343.7287</ele>
        <time>2022-10-30T14:58:27.000Z</time>
      </trkpt>
      <trkpt lat="45.80618" lon="4.71432">
        <ele>343.9061</ele>
        <time>2022-10-30T14:58:28.000Z</time>
      </trkpt>
      <trkpt lat="45.80622" lon="4.71431">
        <ele>344.09186</ele>
        <time>2022-10-30T14:58:29.000Z</time>
      </trkpt>
      <trkpt lat="45.80626" lon="4.71429">
        <ele>344.3248</ele>
        <time>2022-10-30T14:58:30.000Z</time>
      </trkpt>
      <trkpt lat="45.8063" lon="4.71427">
        <ele>344.56</ele>
        <time>2022-10-30T14:58:31.000Z</time>
      </trkpt>
      <trkpt lat="45.80634" lon="4.71426">
        <ele>344.827</ele>
        <time>2022-10-30T14:58:32.000Z</time>
      </trkpt>
      <trkpt lat="45.80638" lon="4.71424">
        <ele>345.06006</ele>
        <time>2022-10-30T14:58:33.000Z</time>
      </trkpt>
      <trkpt lat="45.80642" lon="4.71423">
        <ele>345.2868</ele>
        <time>2022-10-30T14:58:34.000Z</time>
      </trkpt>
      <trkpt lat="45.80646" lon="4.71421">
        <ele>345.50073</ele>
        <time>2022-10-30T14:58:35.000Z</time>
      </trkpt>
      <trkpt lat="45.8065" lon="4.71419">
        <ele>345.71262</ele>
        <time>2022-10-30T14:58:36.000Z</time>
      </trkpt>
      <trkpt lat="45.80654" lon="4.71417">
        <ele>345.94226</ele>
        <time>2022-10-30T14:58:37.000Z</time>
      </trkpt>
      <trkpt lat="45.80658" lon="4.71415">
        <ele>346.18973</ele>
        <time>2022-10-30T14:58:38.000Z</time>
      </trkpt>
      <trkpt lat="45.80662" lon="4.71414">
        <ele>346.41193</ele>
        <time>2022-10-30T14:58:39.000Z</time>
      </trkpt>
      <trkpt lat="45.80666" lon="4.71413">
        <ele>346.63181</ele>
        <time>2022-10-30T14:58:40.000Z</time>
      </trkpt>
      <trkpt lat="45.8067" lon="4.71412">
        <ele>346.79865</ele>
        <time>2022-10-30T14:58:41.000Z</time>
      </trkpt>
      <trkpt lat="45.80674" lon="4.71411">
        <ele>346.95456</ele>
        <time>2022-10-30T14:58:42.000Z</time>
      </trkpt>
      <trkpt lat="45.80678" lon="4.71409">
        <ele>347.11798</ele>
        <time>2022-10-30T14:58:43.000Z</time>
      </trkpt>
      <trkpt lat="45.80681" lon="4.71408">
        <ele>347.33167</ele>
        <time>2022-10-30T14:58:44.000Z</time>
      </trkpt>
      <trkpt lat="45.80684" lon="4.71407">
        <ele>347.5816</ele>
        <time>2022-10-30T14:58:45.000Z</time>
      </trkpt>
      <trkpt lat="45.80688" lon="4.71406">
        <ele>347.81769</ele>
        <time>2022-10-30T14:58:46.000Z</time>
      </trkpt>
      <trkpt lat="45.8069" lon="4.71406">
        <ele>348.06244</ele>
        <time>2022-10-30T14:58:47.000Z</time>
      </trkpt>
      <trkpt lat="45.80693" lon="4.71404">
        <ele>348.30679</ele>
        <time>2022-10-30T14:58:48.000Z</time>
      </trkpt>
      <trkpt lat="45.80695" lon="4.71401">
        <ele>348.54675</ele>
        <time>2022-10-30T14:58:49.000Z</time>
      </trkpt>
      <trkpt lat="45.80697" lon="4.71399">
        <ele>348.78265</ele>
        <time>2022-10-30T14:58:50.000Z</time>
      </trkpt>
      <trkpt lat="45.80699" lon="4.71399">
        <ele>348.99078</ele>
        <time>2022-10-30T14:58:51.000Z</time>
      </trkpt>
      <trkpt lat="45.80702" lon="4.71399">
        <ele>349.18619</ele>
        <time>2022-10-30T14:58:52.000Z</time>
      </trkpt>
      <trkpt lat="45.80704" lon="4.71399">
        <ele>349.41083</ele>
        <time>2022-10-30T14:58:53.000Z</time>
      </trkpt>
      <trkpt lat="45.80706" lon="4.71398">
        <ele>349.63202</ele>
        <time>2022-10-30T14:58:54.000Z</time>
      </trkpt>
      <trkpt lat="45.80708" lon="4.71397">
        <ele>349.83994</ele>
        <time>2022-10-30T14:58:55.000Z</time>
      </trkpt>
      <trkpt lat="45.80711" lon="4.71396">
        <ele>350.04007</ele>
        <time>2022-10-30T14:58:56.000Z</time>
      </trkpt>
      <trkpt lat="45.80713" lon="4.71395">
        <ele>350.20282</ele>
        <time>2022-10-30T14:58:57.000Z</time>
      </trkpt>
      <trkpt lat="45.80716" lon="4.71394">
        <ele>350.34174</ele>
        <time>2022-10-30T14:58:58.000Z</time>
      </trkpt>
      <trkpt lat="45.80718" lon="4.71393">
        <ele>350.49286</ele>
        <time>2022-10-30T14:58:59.000Z</time>
      </trkpt>
      <trkpt lat="45.80721" lon="4.71393">
        <ele>350.6586</ele>
        <time>2022-10-30T14:59:00.000Z</time>
      </trkpt>
      <trkpt lat="45.80724" lon="4.71392">
        <ele>350.80972</ele>
        <time>2022-10-30T14:59:01.000Z</time>
      </trkpt>
      <trkpt lat="45.80726" lon="4.71391">
        <ele>350.97925</ele>
        <time>2022-10-30T14:59:02.000Z</time>
      </trkpt>
      <trkpt lat="45.80728" lon="4.71389">
        <ele>351.16537</ele>
        <time>2022-10-30T14:59:03.000Z</time>
      </trkpt>
      <trkpt lat="45.80731" lon="4.71387">
        <ele>351.36368</ele>
        <time>2022-10-30T14:59:04.000Z</time>
      </trkpt>
      <trkpt lat="45.80734" lon="4.71386">
        <ele>351.5307</ele>
        <time>2022-10-30T14:59:05.000Z</time>
      </trkpt>
      <trkpt lat="45.80736" lon="4.71385">
        <ele>351.74463</ele>
        <time>2022-10-30T14:59:06.000Z</time>
      </trkpt>
      <trkpt lat="45.80739" lon="4.71384">
        <ele>351.94232</ele>
        <time>2022-10-30T14:59:07.000Z</time>
      </trkpt>
      <trkpt lat="45.80741" lon="4.71383">
        <ele>352.14935</ele>
        <time>2022-10-30T14:59:08.000Z</time>
      </trkpt>
      <trkpt lat="45.80744" lon="4.71382">
        <ele>352.34625</ele>
        <time>2022-10-30T14:59:09.000Z</time>
      </trkpt>
      <trkpt lat="45.80746" lon="4.71381">
        <ele>352.51868</ele>
        <time>2022-10-30T14:59:10.000Z</time>
      </trkpt>
      <trkpt lat="45.80749" lon="4.7138">
        <ele>352.68341</ele>
        <time>2022-10-30T14:59:11.000Z</time>
      </trkpt>
      <trkpt lat="45.80751" lon="4.71379">
        <ele>352.86588</ele>
        <time>2022-10-30T14:59:12.000Z</time>
      </trkpt>
      <trkpt lat="45.80754" lon="4.71379">
        <ele>353.02692</ele>
        <time>2022-10-30T14:59:13.000Z</time>
      </trkpt>
      <trkpt lat="45.80757" lon="4.71378">
        <ele>353.19949</ele>
        <time>2022-10-30T14:59:14.000Z</time>
      </trkpt>
      <trkpt lat="45.80759" lon="4.71377">
        <ele>353.34979</ele>
        <time>2022-10-30T14:59:15.000Z</time>
      </trkpt>
      <trkpt lat="45.80762" lon="4.71375">
        <ele>353.54224</ele>
        <time>2022-10-30T14:59:16.000Z</time>
      </trkpt>
      <trkpt lat="45.80764" lon="4.71374">
        <ele>353.76089</ele>
        <time>2022-10-30T14:59:17.000Z</time>
      </trkpt>
      <trkpt lat="45.80767" lon="4.71373">
        <ele>353.9693</ele>
        <time>2022-10-30T14:59:18.000Z</time>
      </trkpt>
      <trkpt lat="45.80769" lon="4.71372">
        <ele>354.19492</ele>
        <time>2022-10-30T14:59:19.000Z</time>
      </trkpt>
      <trkpt lat="45.80772" lon="4.71371">
        <ele>354.41113</ele>
        <time>2022-10-30T14:59:20.000Z</time>
      </trkpt>
      <trkpt lat="45.80775" lon="4.7137">
        <ele>354.66461</ele>
        <time>2022-10-30T14:59:21.000Z</time>
      </trkpt>
      <trkpt lat="45.80777" lon="4.71369">
        <ele>354.90378</ele>
        <time>2022-10-30T14:59:22.000Z</time>
      </trkpt>
      <trkpt lat="45.8078" lon="4.71368">
        <ele>355.14996</ele>
        <time>2022-10-30T14:59:23.000Z</time>
      </trkpt>
      <trkpt lat="45.80783" lon="4.71366">
        <ele>355.383</ele>
        <time>2022-10-30T14:59:24.000Z</time>
      </trkpt>
      <trkpt lat="45.80785" lon="4.71365">
        <ele>355.62909</ele>
        <time>2022-10-30T14:59:25.000Z</time>
      </trkpt>
      <trkpt lat="45.80788" lon="4.71364">
        <ele>355.85498</ele>
        <time>2022-10-30T14:59:26.000Z</time>
      </trkpt>
      <trkpt lat="45.80791" lon="4.71363">
        <ele>356.09619</ele>
        <time>2022-10-30T14:59:27.000Z</time>
      </trkpt>
      <trkpt lat="45.80793" lon="4.71361">
        <ele>356.33112</ele>
        <time>2022-10-30T14:59:28.000Z</time>
      </trkpt>
      <trkpt lat="45.80796" lon="4.7136">
        <ele>356.59164</ele>
        <time>2022-10-30T14:59:29.000Z</time>
      </trkpt>
      <trkpt lat="45.80798" lon="4.71359">
        <ele>356.81647</ele>
        <time>2022-10-30T14:59:30.000Z</time>
      </trkpt>
      <trkpt lat="45.80801" lon="4.71357">
        <ele>357.06827</ele>
        <time>2022-10-30T14:59:31.000Z</time>
      </trkpt>
      <trkpt lat="45.80804" lon="4.71356">
        <ele>357.3013</ele>
        <time>2022-10-30T14:59:32.000Z</time>
      </trkpt>
      <trkpt lat="45.80807" lon="4.71355">
        <ele>357.58817</ele>
        <time>2022-10-30T14:59:33.000Z</time>
      </trkpt>
      <trkpt lat="45.80809" lon="4.71353">
        <ele>357.8815</ele>
        <time>2022-10-30T14:59:34.000Z</time>
      </trkpt>
      <trkpt lat="45.80812" lon="4.71352">
        <ele>358.18176</ele>
        <time>2022-10-30T14:59:35.000Z</time>
      </trkpt>
      <trkpt lat="45.80815" lon="4.7135">
        <ele>358.45523</ele>
        <time>2022-10-30T14:59:36.000Z</time>
      </trkpt>
      <trkpt lat="45.80818" lon="4.71349">
        <ele>358.7027</ele>
        <time>2022-10-30T14:59:37.000Z</time>
      </trkpt>
      <trkpt lat="45.80821" lon="4.71347">
        <ele>358.95978</ele>
        <time>2022-10-30T14:59:38.000Z</time>
      </trkpt>
      <trkpt lat="45.80824" lon="4.71345">
        <ele>359.19547</ele>
        <time>2022-10-30T14:59:39.000Z</time>
      </trkpt>
      <trkpt lat="45.80827" lon="4.71343">
        <ele>359.40952</ele>
        <time>2022-10-30T14:59:40.000Z</time>
      </trkpt>
      <trkpt lat="45.8083" lon="4.71341">
        <ele>359.60495</ele>
        <time>2022-10-30T14:59:41.000Z</time>
      </trkpt>
      <trkpt lat="45.80833" lon="4.71339">
        <ele>359.78546</ele>
        <time>2022-10-30T14:59:42.000Z</time>
      </trkpt>
      <trkpt lat="45.80836" lon="4.71337">
        <ele>359.94354</ele>
        <time>2022-10-30T14:59:43.000Z</time>
      </trkpt>
      <trkpt lat="45.80839" lon="4.71335">
        <ele>360.11713</ele>
        <time>2022-10-30T14:59:44.000Z</time>
      </trkpt>
      <trkpt lat="45.80842" lon="4.71334">
        <ele>360.29715</ele>
        <time>2022-10-30T14:59:45.000Z</time>
      </trkpt>
      <trkpt lat="45.80846" lon="4.71332">
        <ele>360.46701</ele>
        <time>2022-10-30T14:59:46.000Z</time>
      </trkpt>
      <trkpt lat="45.80849" lon="4.71331">
        <ele>360.65887</ele>
        <time>2022-10-30T14:59:47.000Z</time>
      </trkpt>
      <trkpt lat="45.80852" lon="4.7133">
        <ele>360.87817</ele>
        <time>2022-10-30T14:59:48.000Z</time>
      </trkpt>
      <trkpt lat="45.80855" lon="4.71329">
        <ele>361.07733</ele>
        <time>2022-10-30T14:59:49.000Z</time>
      </trkpt>
      <trkpt lat="45.80859" lon="4.71327">
        <ele>361.3132</ele>
        <time>2022-10-30T14:59:50.000Z</time>
      </trkpt>
      <trkpt lat="45.80862" lon="4.71325">
        <ele>361.53677</ele>
        <time>2022-10-30T14:59:51.000Z</time>
      </trkpt>
      <trkpt lat="45.80865" lon="4.71323">
        <ele>361.80212</ele>
        <time>2022-10-30T14:59:52.000Z</time>
      </trkpt>
      <trkpt lat="45.80868" lon="4.71321">
        <ele>362.04678</ele>
        <time>2022-10-30T14:59:53.000Z</time>
      </trkpt>
      <trkpt lat="45.80871" lon="4.7132">
        <ele>362.28354</ele>
        <time>2022-10-30T14:59:54.000Z</time>
      </trkpt>
      <trkpt lat="45.80874" lon="4.71319">
        <ele>362.52472</ele>
        <time>2022-10-30T14:59:55.000Z</time>
      </trkpt>
      <trkpt lat="45.80877" lon="4.71317">
        <ele>362.75708</ele>
        <time>2022-10-30T14:59:56.000Z</time>
      </trkpt>
      <trkpt lat="45.8088" lon="4.71315">
        <ele>363.02545</ele>
        <time>2022-10-30T14:59:57.000Z</time>
      </trkpt>
      <trkpt lat="45.80883" lon="4.71314">
        <ele>363.32047</ele>
        <time>2022-10-30T14:59:58.000Z</time>
      </trkpt>
      <trkpt lat="45.80885" lon="4.71312">
        <ele>363.65161</ele>
        <time>2022-10-30T14:59:59.000Z</time>
      </trkpt>
      <trkpt lat="45.80888" lon="4.71311">
        <ele>364.04593</ele>
        <time>2022-10-30T15:00:00.000Z</time>
      </trkpt>
      <trkpt lat="45.80891" lon="4.71309">
        <ele>364.43146</ele>
        <time>2022-10-30T15:00:01.000Z</time>
      </trkpt>
      <trkpt lat="45.80894" lon="4.71309">
        <ele>364.836</ele>
        <time>2022-10-30T15:00:02.000Z</time>
      </trkpt>
      <trkpt lat="45.80897" lon="4.71308">
        <ele>365.24872</ele>
        <time>2022-10-30T15:00:03.000Z</time>
      </trkpt>
      <trkpt lat="45.809" lon="4.71307">
        <ele>365.64102</ele>
        <time>2022-10-30T15:00:04.000Z</time>
      </trkpt>
      <trkpt lat="45.80903" lon="4.71307">
        <ele>366.00757</ele>
        <time>2022-10-30T15:00:05.000Z</time>
      </trkpt>
      <trkpt lat="45.80906" lon="4.71307">
        <ele>366.37878</ele>
        <time>2022-10-30T15:00:06.000Z</time>
      </trkpt>
      <trkpt lat="45.8091" lon="4.71307">
        <ele>366.73636</ele>
        <time>2022-10-30T15:00:07.000Z</time>
      </trkpt>
      <trkpt lat="45.80913" lon="4.71307">
        <ele>367.10886</ele>
        <time>2022-10-30T15:00:08.000Z</time>
      </trkpt>
      <trkpt lat="45.80916" lon="4.71307">
        <ele>367.4964</ele>
        <time>2022-10-30T15:00:09.000Z</time>
      </trkpt>
      <trkpt lat="45.80919" lon="4.71307">
        <ele>367.89841</ele>
        <time>2022-10-30T15:00:10.000Z</time>
      </trkpt>
      <trkpt lat="45.80922" lon="4.71308">
        <ele>368.34174</ele>
        <time>2022-10-30T15:00:11.000Z</time>
      </trkpt>
      <trkpt lat="45.80925" lon="4.71308">
        <ele>368.80243</ele>
        <time>2022-10-30T15:00:12.000Z</time>
      </trkpt>
      <trkpt lat="45.80928" lon="4.71308">
        <ele>369.27451</ele>
        <time>2022-10-30T15:00:13.000Z</time>
      </trkpt>
      <trkpt lat="45.80931" lon="4.71307">
        <ele>369.73273</ele>
        <time>2022-10-30T15:00:14.000Z</time>
      </trkpt>
      <trkpt lat="45.80934" lon="4.71308">
        <ele>370.1925</ele>
        <time>2022-10-30T15:00:15.000Z</time>
      </trkpt>
      <trkpt lat="45.80937" lon="4.71308">
        <ele>370.63751</ele>
        <time>2022-10-30T15:00:16.000Z</time>
      </trkpt>
      <trkpt lat="45.8094" lon="4.71308">
        <ele>371.05927</ele>
        <time>2022-10-30T15:00:17.000Z</time>
      </trkpt>
      <trkpt lat="45.80943" lon="4.71309">
        <ele>371.44962</ele>
        <time>2022-10-30T15:00:18.000Z</time>
      </trkpt>
      <trkpt lat="45.80946" lon="4.71309">
        <ele>371.85376</ele>
        <time>2022-10-30T15:00:19.000Z</time>
      </trkpt>
      <trkpt lat="45.8095" lon="4.71309">
        <ele>372.22415</ele>
        <time>2022-10-30T15:00:20.000Z</time>
      </trkpt>
      <trkpt lat="45.80953" lon="4.71309">
        <ele>372.5983</ele>
        <time>2022-10-30T15:00:21.000Z</time>
      </trkpt>
      <trkpt lat="45.80956" lon="4.71308">
        <ele>372.94717</ele>
        <time>2022-10-30T15:00:22.000Z</time>
      </trkpt>
      <trkpt lat="45.80959" lon="4.71308">
        <ele>373.29962</ele>
        <time>2022-10-30T15:00:23.000Z</time>
      </trkpt>
      <trkpt lat="45.80962" lon="4.71307">
        <ele>373.64233</ele>
        <time>2022-10-30T15:00:24.000Z</time>
      </trkpt>
      <trkpt lat="45.80965" lon="4.71307">
        <ele>374.00299</ele>
        <time>2022-10-30T15:00:25.000Z</time>
      </trkpt>
      <trkpt lat="45.80968" lon="4.71306">
        <ele>374.34604</ele>
        <time>2022-10-30T15:00:26.000Z</time>
      </trkpt>
      <trkpt lat="45.80972" lon="4.71306">
        <ele>374.68231</ele>
        <time>2022-10-30T15:00:27.000Z</time>
      </trkpt>
      <trkpt lat="45.80975" lon="4.71306">
        <ele>374.97101</ele>
        <time>2022-10-30T15:00:28.000Z</time>
      </trkpt>
      <trkpt lat="45.80978" lon="4.71305">
        <ele>375.27686</ele>
        <time>2022-10-30T15:00:29.000Z</time>
      </trkpt>
      <trkpt lat="45.80981" lon="4.71305">
        <ele>375.57791</ele>
        <time>2022-10-30T15:00:30.000Z</time>
      </trkpt>
      <trkpt lat="45.80984" lon="4.71304">
        <ele>375.85291</ele>
        <time>2022-10-30T15:00:31.000Z</time>
      </trkpt>
      <trkpt lat="45.80987" lon="4.71303">
        <ele>376.09686</ele>
        <time>2022-10-30T15:00:32.000Z</time>
      </trkpt>
      <trkpt lat="45.8099" lon="4.71302">
        <ele>376.35083</ele>
        <time>2022-10-30T15:00:33.000Z</time>
      </trkpt>
      <trkpt lat="45.80994" lon="4.71301">
        <ele>376.59912</ele>
        <time>2022-10-30T15:00:34.000Z</time>
      </trkpt>
      <trkpt lat="45.80997" lon="4.713">
        <ele>376.85696</ele>
        <time>2022-10-30T15:00:35.000Z</time>
      </trkpt>
      <trkpt lat="45.81" lon="4.71299">
        <ele>377.08426</ele>
        <time>2022-10-30T15:00:36.000Z</time>
      </trkpt>
      <trkpt lat="45.81002" lon="4.71298">
        <ele>377.36862</ele>
        <time>2022-10-30T15:00:37.000Z</time>
      </trkpt>
      <trkpt lat="45.81005" lon="4.71298">
        <ele>377.66995</ele>
        <time>2022-10-30T15:00:38.000Z</time>
      </trkpt>
      <trkpt lat="45.81008" lon="4.71297">
        <ele>377.92633</ele>
        <time>2022-10-30T15:00:39.000Z</time>
      </trkpt>
      <trkpt lat="45.8101" lon="4.71297">
        <ele>378.15845</ele>
        <time>2022-10-30T15:00:40.000Z</time>
      </trkpt>
      <trkpt lat="45.81012" lon="4.71296">
        <ele>378.40021</ele>
        <time>2022-10-30T15:00:41.000Z</time>
      </trkpt>
      <trkpt lat="45.81014" lon="4.71296">
        <ele>378.62842</ele>
        <time>2022-10-30T15:00:42.000Z</time>
      </trkpt>
      <trkpt lat="45.81017" lon="4.71298">
        <ele>378.83136</ele>
        <time>2022-10-30T15:00:43.000Z</time>
      </trkpt>
      <trkpt lat="45.81019" lon="4.713">
        <ele>379.03311</ele>
        <time>2022-10-30T15:00:44.000Z</time>
      </trkpt>
      <trkpt lat="45.81021" lon="4.71302">
        <ele>379.21478</ele>
        <time>2022-10-30T15:00:45.000Z</time>
      </trkpt>
      <trkpt lat="45.81024" lon="4.71305">
        <ele>379.39828</ele>
        <time>2022-10-30T15:00:46.000Z</time>
      </trkpt>
      <trkpt lat="45.81026" lon="4.71308">
        <ele>379.5813</ele>
        <time>2022-10-30T15:00:47.000Z</time>
      </trkpt>
      <trkpt lat="45.81028" lon="4.7131">
        <ele>379.79144</ele>
        <time>2022-10-30T15:00:48.000Z</time>
      </trkpt>
      <trkpt lat="45.81031" lon="4.71313">
        <ele>379.97351</ele>
        <time>2022-10-30T15:00:49.000Z</time>
      </trkpt>
      <trkpt lat="45.81033" lon="4.71315">
        <ele>380.13034</ele>
        <time>2022-10-30T15:00:50.000Z</time>
      </trkpt>
      <trkpt lat="45.81036" lon="4.71318">
        <ele>380.27618</ele>
        <time>2022-10-30T15:00:51.000Z</time>
      </trkpt>
      <trkpt lat="45.81039" lon="4.71321">
        <ele>380.40689</ele>
        <time>2022-10-30T15:00:52.000Z</time>
      </trkpt>
      <trkpt lat="45.81041" lon="4.71325">
        <ele>380.50952</ele>
        <time>2022-10-30T15:00:53.000Z</time>
      </trkpt>
      <trkpt lat="45.81044" lon="4.71328">
        <ele>380.61716</ele>
        <time>2022-10-30T15:00:54.000Z</time>
      </trkpt>
      <trkpt lat="45.81046" lon="4.71332">
        <ele>380.71439</ele>
        <time>2022-10-30T15:00:55.000Z</time>
      </trkpt>
      <trkpt lat="45.81049" lon="4.71336">
        <ele>380.87875</ele>
        <time>2022-10-30T15:00:56.000Z</time>
      </trkpt>
      <trkpt lat="45.81052" lon="4.7134">
        <ele>380.97195</ele>
        <time>2022-10-30T15:00:57.000Z</time>
      </trkpt>
      <trkpt lat="45.81055" lon="4.71343">
        <ele>381.03925</ele>
        <time>2022-10-30T15:00:58.000Z</time>
      </trkpt>
      <trkpt lat="45.81058" lon="4.71347">
        <ele>381.10675</ele>
        <time>2022-10-30T15:00:59.000Z</time>
      </trkpt>
      <trkpt lat="45.81061" lon="4.71351">
        <ele>381.15814</ele>
        <time>2022-10-30T15:01:00.000Z</time>
      </trkpt>
      <trkpt lat="45.81063" lon="4.71354">
        <ele>381.18991</ele>
        <time>2022-10-30T15:01:01.000Z</time>
      </trkpt>
      <trkpt lat="45.81066" lon="4.71358">
        <ele>381.24341</ele>
        <time>2022-10-30T15:01:02.000Z</time>
      </trkpt>
      <trkpt lat="45.81069" lon="4.71362">
        <ele>381.33087</ele>
        <time>2022-10-30T15:01:03.000Z</time>
      </trkpt>
      <trkpt lat="45.81072" lon="4.71366">
        <ele>381.45731</ele>
        <time>2022-10-30T15:01:04.000Z</time>
      </trkpt>
      <trkpt lat="45.81075" lon="4.7137">
        <ele>381.60834</ele>
        <time>2022-10-30T15:01:05.000Z</time>
      </trkpt>
      <trkpt lat="45.81077" lon="4.71373">
        <ele>381.80667</ele>
        <time>2022-10-30T15:01:06.000Z</time>
      </trkpt>
      <trkpt lat="45.8108" lon="4.71377">
        <ele>382.01105</ele>
        <time>2022-10-30T15:01:07.000Z</time>
      </trkpt>
      <trkpt lat="45.81083" lon="4.71382">
        <ele>382.22696</ele>
        <time>2022-10-30T15:01:08.000Z</time>
      </trkpt>
      <trkpt lat="45.81085" lon="4.71387">
        <ele>382.45218</ele>
        <time>2022-10-30T15:01:09.000Z</time>
      </trkpt>
      <trkpt lat="45.81087" lon="4.71391">
        <ele>382.69955</ele>
        <time>2022-10-30T15:01:10.000Z</time>
      </trkpt>
      <trkpt lat="45.81089" lon="4.71396">
        <ele>382.97253</ele>
        <time>2022-10-30T15:01:11.000Z</time>
      </trkpt>
      <trkpt lat="45.81092" lon="4.71401">
        <ele>383.23312</ele>
        <time>2022-10-30T15:01:12.000Z</time>
      </trkpt>
      <trkpt lat="45.81094" lon="4.71406">
        <ele>383.51324</ele>
        <time>2022-10-30T15:01:13.000Z</time>
      </trkpt>
      <trkpt lat="45.81097" lon="4.71411">
        <ele>383.80286</ele>
        <time>2022-10-30T15:01:14.000Z</time>
      </trkpt>
      <trkpt lat="45.81099" lon="4.71416">
        <ele>384.07791</ele>
        <time>2022-10-30T15:01:15.000Z</time>
      </trkpt>
      <trkpt lat="45.81101" lon="4.7142">
        <ele>384.35382</ele>
        <time>2022-10-30T15:01:16.000Z</time>
      </trkpt>
      <trkpt lat="45.81103" lon="4.71425">
        <ele>384.62753</ele>
        <time>2022-10-30T15:01:17.000Z</time>
      </trkpt>
      <trkpt lat="45.81104" lon="4.7143">
        <ele>384.91476</ele>
        <time>2022-10-30T15:01:18.000Z</time>
      </trkpt>
      <trkpt lat="45.81106" lon="4.71434">
        <ele>385.18286</ele>
        <time>2022-10-30T15:01:19.000Z</time>
      </trkpt>
      <trkpt lat="45.81108" lon="4.71439">
        <ele>385.48709</ele>
        <time>2022-10-30T15:01:20.000Z</time>
      </trkpt>
      <trkpt lat="45.8111" lon="4.71444">
        <ele>385.77017</ele>
        <time>2022-10-30T15:01:21.000Z</time>
      </trkpt>
      <trkpt lat="45.81112" lon="4.71448">
        <ele>386.06586</ele>
        <time>2022-10-30T15:01:22.000Z</time>
      </trkpt>
      <trkpt lat="45.81113" lon="4.71453">
        <ele>386.33749</ele>
        <time>2022-10-30T15:01:23.000Z</time>
      </trkpt>
      <trkpt lat="45.81115" lon="4.71458">
        <ele>386.58755</ele>
        <time>2022-10-30T15:01:24.000Z</time>
      </trkpt>
      <trkpt lat="45.81118" lon="4.71462">
        <ele>386.8497</ele>
        <time>2022-10-30T15:01:25.000Z</time>
      </trkpt>
      <trkpt lat="45.8112" lon="4.71465">
        <ele>387.0437</ele>
        <time>2022-10-30T15:01:26.000Z</time>
      </trkpt>
      <trkpt lat="45.81124" lon="4.71467">
        <ele>387.24423</ele>
        <time>2022-10-30T15:01:27.000Z</time>
      </trkpt>
      <trkpt lat="45.81127" lon="4.71468">
        <ele>387.46817</ele>
        <time>2022-10-30T15:01:28.000Z</time>
      </trkpt>
      <trkpt lat="45.81131" lon="4.71467">
        <ele>387.68839</ele>
        <time>2022-10-30T15:01:29.000Z</time>
      </trkpt>
      <trkpt lat="45.81135" lon="4.71465">
        <ele>387.88373</ele>
        <time>2022-10-30T15:01:30.000Z</time>
      </trkpt>
      <trkpt lat="45.81138" lon="4.71462">
        <ele>388.0285</ele>
        <time>2022-10-30T15:01:31.000Z</time>
      </trkpt>
      <trkpt lat="45.81141" lon="4.71459">
        <ele>388.18307</ele>
        <time>2022-10-30T15:01:32.000Z</time>
      </trkpt>
      <trkpt lat="45.81143" lon="4.71455">
        <ele>388.34702</ele>
        <time>2022-10-30T15:01:33.000Z</time>
      </trkpt>
      <trkpt lat="45.81146" lon="4.71451">
        <ele>388.52457</ele>
        <time>2022-10-30T15:01:34.000Z</time>
      </trkpt>
      <trkpt lat="45.81148" lon="4.71448">
        <ele>388.70084</ele>
        <time>2022-10-30T15:01:35.000Z</time>
      </trkpt>
      <trkpt lat="45.81151" lon="4.71446">
        <ele>388.87411</ele>
        <time>2022-10-30T15:01:36.000Z</time>
      </trkpt>
      <trkpt lat="45.81154" lon="4.71444">
        <ele>389.07806</ele>
        <time>2022-10-30T15:01:37.000Z</time>
      </trkpt>
      <trkpt lat="45.81158" lon="4.71442">
        <ele>389.26813</ele>
        <time>2022-10-30T15:01:38.000Z</time>
      </trkpt>
      <trkpt lat="45.81161" lon="4.71439">
        <ele>389.47369</ele>
        <time>2022-10-30T15:01:39.000Z</time>
      </trkpt>
      <trkpt lat="45.81164" lon="4.71436">
        <ele>389.67221</ele>
        <time>2022-10-30T15:01:40.000Z</time>
      </trkpt>
      <trkpt lat="45.81167" lon="4.71433">
        <ele>389.86664</ele>
        <time>2022-10-30T15:01:41.000Z</time>
      </trkpt>
      <trkpt lat="45.81171" lon="4.7143">
        <ele>390.01099</ele>
        <time>2022-10-30T15:01:42.000Z</time>
      </trkpt>
      <trkpt lat="45.81175" lon="4.71428">
        <ele>390.16531</ele>
        <time>2022-10-30T15:01:43.000Z</time>
      </trkpt>
      <trkpt lat="45.81178" lon="4.71426">
        <ele>390.29755</ele>
        <time>2022-10-30T15:01:44.000Z</time>
      </trkpt>
      <trkpt lat="45.81182" lon="4.71424">
        <ele>390.38553</ele>
        <time>2022-10-30T15:01:45.000Z</time>
      </trkpt>
      <trkpt lat="45.81186" lon="4.71422">
        <ele>390.50284</ele>
        <time>2022-10-30T15:01:46.000Z</time>
      </trkpt>
      <trkpt lat="45.8119" lon="4.7142">
        <ele>390.60791</ele>
        <time>2022-10-30T15:01:47.000Z</time>
      </trkpt>
      <trkpt lat="45.81193" lon="4.71417">
        <ele>390.68988</ele>
        <time>2022-10-30T15:01:48.000Z</time>
      </trkpt>
      <trkpt lat="45.81197" lon="4.71415">
        <ele>390.77597</ele>
        <time>2022-10-30T15:01:49.000Z</time>
      </trkpt>
      <trkpt lat="45.81201" lon="4.71413">
        <ele>390.87189</ele>
        <time>2022-10-30T15:01:50.000Z</time>
      </trkpt>
      <trkpt lat="45.81205" lon="4.71411">
        <ele>391.01904</ele>
        <time>2022-10-30T15:01:51.000Z</time>
      </trkpt>
      <trkpt lat="45.81208" lon="4.71409">
        <ele>391.17548</ele>
        <time>2022-10-30T15:01:52.000Z</time>
      </trkpt>
      <trkpt lat="45.81212" lon="4.71408">
        <ele>391.30386</ele>
        <time>2022-10-30T15:01:53.000Z</time>
      </trkpt>
      <trkpt lat="45.81216" lon="4.71406">
        <ele>391.39288</ele>
        <time>2022-10-30T15:01:54.000Z</time>
      </trkpt>
      <trkpt lat="45.8122" lon="4.71405">
        <ele>391.50204</ele>
        <time>2022-10-30T15:01:55.000Z</time>
      </trkpt>
      <trkpt lat="45.81224" lon="4.71405">
        <ele>391.58478</ele>
        <time>2022-10-30T15:01:56.000Z</time>
      </trkpt>
      <trkpt lat="45.81227" lon="4.71404">
        <ele>391.64304</ele>
        <time>2022-10-30T15:01:57.000Z</time>
      </trkpt>
      <trkpt lat="45.81231" lon="4.71404">
        <ele>391.73911</ele>
        <time>2022-10-30T15:01:58.000Z</time>
      </trkpt>
      <trkpt lat="45.81235" lon="4.71403">
        <ele>391.83453</ele>
        <time>2022-10-30T15:01:59.000Z</time>
      </trkpt>
      <trkpt lat="45.81239" lon="4.71403">
        <ele>391.95786</ele>
        <time>2022-10-30T15:02:00.000Z</time>
      </trkpt>
      <trkpt lat="45.81242" lon="4.71404">
        <ele>392.11182</ele>
        <time>2022-10-30T15:02:01.000Z</time>
      </trkpt>
      <trkpt lat="45.81246" lon="4.71404">
        <ele>392.30597</ele>
        <time>2022-10-30T15:02:02.000Z</time>
      </trkpt>
      <trkpt lat="45.8125" lon="4.71403">
        <ele>392.5022</ele>
        <time>2022-10-30T15:02:03.000Z</time>
      </trkpt>
      <trkpt lat="45.81254" lon="4.71404">
        <ele>392.69269</ele>
        <time>2022-10-30T15:02:04.000Z</time>
      </trkpt>
      <trkpt lat="45.81258" lon="4.71404">
        <ele>392.88678</ele>
        <time>2022-10-30T15:02:05.000Z</time>
      </trkpt>
      <trkpt lat="45.81263" lon="4.71404">
        <ele>393.04926</ele>
        <time>2022-10-30T15:02:06.000Z</time>
      </trkpt>
      <trkpt lat="45.81267" lon="4.71404">
        <ele>393.21622</ele>
        <time>2022-10-30T15:02:07.000Z</time>
      </trkpt>
      <trkpt lat="45.81271" lon="4.71404">
        <ele>393.36145</ele>
        <time>2022-10-30T15:02:08.000Z</time>
      </trkpt>
      <trkpt lat="45.81275" lon="4.71404">
        <ele>393.4975</ele>
        <time>2022-10-30T15:02:09.000Z</time>
      </trkpt>
      <trkpt lat="45.81279" lon="4.71405">
        <ele>393.62482</ele>
        <time>2022-10-30T15:02:10.000Z</time>
      </trkpt>
      <trkpt lat="45.81283" lon="4.71406">
        <ele>393.70337</ele>
        <time>2022-10-30T15:02:11.000Z</time>
      </trkpt>
      <trkpt lat="45.81287" lon="4.71407">
        <ele>393.74698</ele>
        <time>2022-10-30T15:02:12.000Z</time>
      </trkpt>
      <trkpt lat="45.81291" lon="4.71409">
        <ele>393.8335</ele>
        <time>2022-10-30T15:02:13.000Z</time>
      </trkpt>
      <trkpt lat="45.81295" lon="4.71411">
        <ele>393.91739</ele>
        <time>2022-10-30T15:02:14.000Z</time>
      </trkpt>
      <trkpt lat="45.81299" lon="4.71412">
        <ele>393.98859</ele>
        <time>2022-10-30T15:02:15.000Z</time>
      </trkpt>
      <trkpt lat="45.81302" lon="4.71413">
        <ele>394.04309</ele>
        <time>2022-10-30T15:02:16.000Z</time>
      </trkpt>
      <trkpt lat="45.81305" lon="4.71415">
        <ele>394.10065</ele>
        <time>2022-10-30T15:02:17.000Z</time>
      </trkpt>
      <trkpt lat="45.81308" lon="4.71416">
        <ele>394.09247</ele>
        <time>2022-10-30T15:02:18.000Z</time>
      </trkpt>
      <trkpt lat="45.81311" lon="4.71417">
        <ele>394.10669</ele>
        <time>2022-10-30T15:02:19.000Z</time>
      </trkpt>
      <trkpt lat="45.81313" lon="4.71417">
        <ele>394.13034</ele>
        <time>2022-10-30T15:02:20.000Z</time>
      </trkpt>
      <trkpt lat="45.81316" lon="4.71417">
        <ele>394.17319</ele>
        <time>2022-10-30T15:02:21.000Z</time>
      </trkpt>
      <trkpt lat="45.81319" lon="4.71416">
        <ele>394.22711</ele>
        <time>2022-10-30T15:02:22.000Z</time>
      </trkpt>
      <trkpt lat="45.81322" lon="4.71416">
        <ele>394.27197</ele>
        <time>2022-10-30T15:02:23.000Z</time>
      </trkpt>
      <trkpt lat="45.81325" lon="4.71415">
        <ele>394.35153</ele>
        <time>2022-10-30T15:02:24.000Z</time>
      </trkpt>
      <trkpt lat="45.81328" lon="4.71415">
        <ele>394.46094</ele>
        <time>2022-10-30T15:02:25.000Z</time>
      </trkpt>
      <trkpt lat="45.81332" lon="4.71414">
        <ele>394.57507</ele>
        <time>2022-10-30T15:02:26.000Z</time>
      </trkpt>
      <trkpt lat="45.81336" lon="4.71414">
        <ele>394.60132</ele>
        <time>2022-10-30T15:02:27.000Z</time>
      </trkpt>
      <trkpt lat="45.8134" lon="4.71415">
        <ele>394.63318</ele>
        <time>2022-10-30T15:02:28.000Z</time>
      </trkpt>
      <trkpt lat="45.81346" lon="4.71416">
        <ele>394.56564</ele>
        <time>2022-10-30T15:02:29.000Z</time>
      </trkpt>
      <trkpt lat="45.8135" lon="4.71416">
        <ele>394.51807</ele>
        <time>2022-10-30T15:02:30.000Z</time>
      </trkpt>
      <trkpt lat="45.81355" lon="4.71416">
        <ele>394.49365</ele>
        <time>2022-10-30T15:02:31.000Z</time>
      </trkpt>
      <trkpt lat="45.81361" lon="4.71415">
        <ele>394.47906</ele>
        <time>2022-10-30T15:02:32.000Z</time>
      </trkpt>
      <trkpt lat="45.81366" lon="4.71415">
        <ele>394.35657</ele>
        <time>2022-10-30T15:02:33.000Z</time>
      </trkpt>
      <trkpt lat="45.81372" lon="4.71416">
        <ele>394.24747</ele>
        <time>2022-10-30T15:02:34.000Z</time>
      </trkpt>
      <trkpt lat="45.81378" lon="4.71416">
        <ele>394.11774</ele>
        <time>2022-10-30T15:02:35.000Z</time>
      </trkpt>
      <trkpt lat="45.81383" lon="4.71416">
        <ele>394.00198</ele>
        <time>2022-10-30T15:02:36.000Z</time>
      </trkpt>
      <trkpt lat="45.81391" lon="4.71417">
        <ele>393.80597</ele>
        <time>2022-10-30T15:02:37.000Z</time>
      </trkpt>
      <trkpt lat="45.81397" lon="4.71417">
        <ele>393.5993</ele>
        <time>2022-10-30T15:02:38.000Z</time>
      </trkpt>
      <trkpt lat="45.81403" lon="4.71416">
        <ele>393.34558</ele>
        <time>2022-10-30T15:02:39.000Z</time>
      </trkpt>
      <trkpt lat="45.81409" lon="4.71416">
        <ele>393.10614</ele>
        <time>2022-10-30T15:02:40.000Z</time>
      </trkpt>
      <trkpt lat="45.81416" lon="4.71415">
        <ele>392.82501</ele>
        <time>2022-10-30T15:02:41.000Z</time>
      </trkpt>
      <trkpt lat="45.81423" lon="4.71414">
        <ele>392.53485</ele>
        <time>2022-10-30T15:02:42.000Z</time>
      </trkpt>
      <trkpt lat="45.81429" lon="4.71413">
        <ele>392.25314</ele>
        <time>2022-10-30T15:02:43.000Z</time>
      </trkpt>
      <trkpt lat="45.81435" lon="4.71413">
        <ele>391.92517</ele>
        <time>2022-10-30T15:02:44.000Z</time>
      </trkpt>
      <trkpt lat="45.81442" lon="4.71412">
        <ele>391.58685</ele>
        <time>2022-10-30T15:02:45.000Z</time>
      </trkpt>
      <trkpt lat="45.81449" lon="4.71411">
        <ele>391.28992</ele>
        <time>2022-10-30T15:02:46.000Z</time>
      </trkpt>
      <trkpt lat="45.81457" lon="4.7141">
        <ele>391.06821</ele>
        <time>2022-10-30T15:02:47.000Z</time>
      </trkpt>
      <trkpt lat="45.81463" lon="4.71409">
        <ele>390.84412</ele>
        <time>2022-10-30T15:02:48.000Z</time>
      </trkpt>
      <trkpt lat="45.8147" lon="4.71407">
        <ele>390.75641</ele>
        <time>2022-10-30T15:02:49.000Z</time>
      </trkpt>
      <trkpt lat="45.81478" lon="4.71405">
        <ele>390.63315</ele>
        <time>2022-10-30T15:02:50.000Z</time>
      </trkpt>
      <trkpt lat="45.81486" lon="4.71404">
        <ele>390.5058</ele>
        <time>2022-10-30T15:02:51.000Z</time>
      </trkpt>
      <trkpt lat="45.81493" lon="4.71403">
        <ele>390.41226</ele>
        <time>2022-10-30T15:02:52.000Z</time>
      </trkpt>
      <trkpt lat="45.815" lon="4.714">
        <ele>390.33847</ele>
        <time>2022-10-30T15:02:53.000Z</time>
      </trkpt>
      <trkpt lat="45.81506" lon="4.71397">
        <ele>390.23312</ele>
        <time>2022-10-30T15:02:54.000Z</time>
      </trkpt>
      <trkpt lat="45.81512" lon="4.71393">
        <ele>390.15094</ele>
        <time>2022-10-30T15:02:55.000Z</time>
      </trkpt>
      <trkpt lat="45.81518" lon="4.7139">
        <ele>390.03787</ele>
        <time>2022-10-30T15:02:56.000Z</time>
      </trkpt>
      <trkpt lat="45.81523" lon="4.71387">
        <ele>389.98764</ele>
        <time>2022-10-30T15:02:57.000Z</time>
      </trkpt>
      <trkpt lat="45.81528" lon="4.71384">
        <ele>389.98737</ele>
        <time>2022-10-30T15:02:58.000Z</time>
      </trkpt>
      <trkpt lat="45.81531" lon="4.71382">
        <ele>390.00992</ele>
        <time>2022-10-30T15:02:59.000Z</time>
      </trkpt>
      <trkpt lat="45.81535" lon="4.71381">
        <ele>389.97913</ele>
        <time>2022-10-30T15:03:00.000Z</time>
      </trkpt>
      <trkpt lat="45.81539" lon="4.71381">
        <ele>389.94159</ele>
        <time>2022-10-30T15:03:01.000Z</time>
      </trkpt>
      <trkpt lat="45.81542" lon="4.71381">
        <ele>389.86505</ele>
        <time>2022-10-30T15:03:02.000Z</time>
      </trkpt>
      <trkpt lat="45.81545" lon="4.71381">
        <ele>389.76913</ele>
        <time>2022-10-30T15:03:03.000Z</time>
      </trkpt>
      <trkpt lat="45.81548" lon="4.71382">
        <ele>389.70001</ele>
        <time>2022-10-30T15:03:04.000Z</time>
      </trkpt>
      <trkpt lat="45.8155" lon="4.71382">
        <ele>389.61224</ele>
        <time>2022-10-30T15:03:05.000Z</time>
      </trkpt>
      <trkpt lat="45.81553" lon="4.7138">
        <ele>389.49133</ele>
        <time>2022-10-30T15:03:06.000Z</time>
      </trkpt>
      <trkpt lat="45.81555" lon="4.71377">
        <ele>389.3569</ele>
        <time>2022-10-30T15:03:07.000Z</time>
      </trkpt>
      <trkpt lat="45.81557" lon="4.71375">
        <ele>389.19247</ele>
        <time>2022-10-30T15:03:08.000Z</time>
      </trkpt>
      <trkpt lat="45.81559" lon="4.71372">
        <ele>389.02216</ele>
        <time>2022-10-30T15:03:09.000Z</time>
      </trkpt>
      <trkpt lat="45.81559" lon="4.71368">
        <ele>388.83194</ele>
        <time>2022-10-30T15:03:10.000Z</time>
      </trkpt>
      <trkpt lat="45.81559" lon="4.71364">
        <ele>388.61829</ele>
        <time>2022-10-30T15:03:11.000Z</time>
      </trkpt>
      <trkpt lat="45.8156" lon="4.7136">
        <ele>388.39542</ele>
        <time>2022-10-30T15:03:12.000Z</time>
      </trkpt>
      <trkpt lat="45.8156" lon="4.71356">
        <ele>388.2294</ele>
        <time>2022-10-30T15:03:13.000Z</time>
      </trkpt>
      <trkpt lat="45.81561" lon="4.71351">
        <ele>388.10199</ele>
        <time>2022-10-30T15:03:14.000Z</time>
      </trkpt>
      <trkpt lat="45.81562" lon="4.71346">
        <ele>387.95789</ele>
        <time>2022-10-30T15:03:15.000Z</time>
      </trkpt>
      <trkpt lat="45.81563" lon="4.71341">
        <ele>387.83716</ele>
        <time>2022-10-30T15:03:16.000Z</time>
      </trkpt>
      <trkpt lat="45.81564" lon="4.71336">
        <ele>387.73904</ele>
        <time>2022-10-30T15:03:17.000Z</time>
      </trkpt>
      <trkpt lat="45.81565" lon="4.71331">
        <ele>387.66461</ele>
        <time>2022-10-30T15:03:18.000Z</time>
      </trkpt>
      <trkpt lat="45.81566" lon="4.71325">
        <ele>387.61041</ele>
        <time>2022-10-30T15:03:19.000Z</time>
      </trkpt>
      <trkpt lat="45.81567" lon="4.7132">
        <ele>387.53818</ele>
        <time>2022-10-30T15:03:20.000Z</time>
      </trkpt>
      <trkpt lat="45.81568" lon="4.71314">
        <ele>387.49188</ele>
        <time>2022-10-30T15:03:21.000Z</time>
      </trkpt>
      <trkpt lat="45.81569" lon="4.71308">
        <ele>387.43378</ele>
        <time>2022-10-30T15:03:22.000Z</time>
      </trkpt>
      <trkpt lat="45.8157" lon="4.71302">
        <ele>387.36017</ele>
        <time>2022-10-30T15:03:23.000Z</time>
      </trkpt>
      <trkpt lat="45.81571" lon="4.71297">
        <ele>387.27457</ele>
        <time>2022-10-30T15:03:24.000Z</time>
      </trkpt>
      <trkpt lat="45.81572" lon="4.71291">
        <ele>387.19287</ele>
        <time>2022-10-30T15:03:25.000Z</time>
      </trkpt>
      <trkpt lat="45.81573" lon="4.71285">
        <ele>387.12842</ele>
        <time>2022-10-30T15:03:26.000Z</time>
      </trkpt>
      <trkpt lat="45.81574" lon="4.7128">
        <ele>387.10831</ele>
        <time>2022-10-30T15:03:27.000Z</time>
      </trkpt>
      <trkpt lat="45.81575" lon="4.71275">
        <ele>387.09796</ele>
        <time>2022-10-30T15:03:28.000Z</time>
      </trkpt>
      <trkpt lat="45.81576" lon="4.7127">
        <ele>387.07324</ele>
        <time>2022-10-30T15:03:29.000Z</time>
      </trkpt>
      <trkpt lat="45.81577" lon="4.71265">
        <ele>387.09702</ele>
        <time>2022-10-30T15:03:30.000Z</time>
      </trkpt>
      <trkpt lat="45.81578" lon="4.7126">
        <ele>387.11835</ele>
        <time>2022-10-30T15:03:31.000Z</time>
      </trkpt>
      <trkpt lat="45.81578" lon="4.71255">
        <ele>387.14331</ele>
        <time>2022-10-30T15:03:32.000Z</time>
      </trkpt>
      <trkpt lat="45.81579" lon="4.7125">
        <ele>387.13968</ele>
        <time>2022-10-30T15:03:33.000Z</time>
      </trkpt>
      <trkpt lat="45.8158" lon="4.71244">
        <ele>387.12128</ele>
        <time>2022-10-30T15:03:34.000Z</time>
      </trkpt>
      <trkpt lat="45.81581" lon="4.71239">
        <ele>387.108</ele>
        <time>2022-10-30T15:03:35.000Z</time>
      </trkpt>
      <trkpt lat="45.81582" lon="4.71234">
        <ele>387.13681</ele>
        <time>2022-10-30T15:03:36.000Z</time>
      </trkpt>
      <trkpt lat="45.81583" lon="4.71228">
        <ele>387.13382</ele>
        <time>2022-10-30T15:03:37.000Z</time>
      </trkpt>
      <trkpt lat="45.81584" lon="4.71223">
        <ele>387.1059</ele>
        <time>2022-10-30T15:03:38.000Z</time>
      </trkpt>
      <trkpt lat="45.81585" lon="4.71218">
        <ele>387.06854</ele>
        <time>2022-10-30T15:03:39.000Z</time>
      </trkpt>
      <trkpt lat="45.81586" lon="4.71213">
        <ele>387.02963</ele>
        <time>2022-10-30T15:03:40.000Z</time>
      </trkpt>
      <trkpt lat="45.81587" lon="4.71209">
        <ele>386.98718</ele>
        <time>2022-10-30T15:03:41.000Z</time>
      </trkpt>
      <trkpt lat="45.81588" lon="4.71204">
        <ele>386.9707</ele>
        <time>2022-10-30T15:03:42.000Z</time>
      </trkpt>
      <trkpt lat="45.81588" lon="4.712">
        <ele>386.97177</ele>
        <time>2022-10-30T15:03:43.000Z</time>
      </trkpt>
      <trkpt lat="45.81589" lon="4.71195">
        <ele>386.9747</ele>
        <time>2022-10-30T15:03:44.000Z</time>
      </trkpt>
      <trkpt lat="45.8159" lon="4.7119">
        <ele>386.95578</ele>
        <time>2022-10-30T15:03:45.000Z</time>
      </trkpt>
      <trkpt lat="45.81591" lon="4.71186">
        <ele>386.92276</ele>
        <time>2022-10-30T15:03:46.000Z</time>
      </trkpt>
      <trkpt lat="45.81592" lon="4.71181">
        <ele>386.86078</ele>
        <time>2022-10-30T15:03:47.000Z</time>
      </trkpt>
      <trkpt lat="45.81593" lon="4.71177">
        <ele>386.7897</ele>
        <time>2022-10-30T15:03:48.000Z</time>
      </trkpt>
      <trkpt lat="45.81594" lon="4.71172">
        <ele>386.69281</ele>
        <time>2022-10-30T15:03:49.000Z</time>
      </trkpt>
      <trkpt lat="45.81595" lon="4.71167">
        <ele>386.57217</ele>
        <time>2022-10-30T15:03:50.000Z</time>
      </trkpt>
      <trkpt lat="45.81596" lon="4.71162">
        <ele>386.48846</ele>
        <time>2022-10-30T15:03:51.000Z</time>
      </trkpt>
      <trkpt lat="45.81597" lon="4.71158">
        <ele>386.36865</ele>
        <time>2022-10-30T15:03:52.000Z</time>
      </trkpt>
      <trkpt lat="45.81598" lon="4.71154">
        <ele>386.24582</ele>
        <time>2022-10-30T15:03:53.000Z</time>
      </trkpt>
      <trkpt lat="45.81599" lon="4.7115">
        <ele>386.12482</ele>
        <time>2022-10-30T15:03:54.000Z</time>
      </trkpt>
      <trkpt lat="45.816" lon="4.71147">
        <ele>385.9783</ele>
        <time>2022-10-30T15:03:55.000Z</time>
      </trkpt>
      <trkpt lat="45.81601" lon="4.71143">
        <ele>385.80585</ele>
        <time>2022-10-30T15:03:56.000Z</time>
      </trkpt>
      <trkpt lat="45.81602" lon="4.71139">
        <ele>385.64554</ele>
        <time>2022-10-30T15:03:57.000Z</time>
      </trkpt>
      <trkpt lat="45.81603" lon="4.71137">
        <ele>385.44067</ele>
        <time>2022-10-30T15:03:58.000Z</time>
      </trkpt>
      <trkpt lat="45.81605" lon="4.71136">
        <ele>385.23517</ele>
        <time>2022-10-30T15:03:59.000Z</time>
      </trkpt>
      <trkpt lat="45.81607" lon="4.71136">
        <ele>385.03891</ele>
        <time>2022-10-30T15:04:00.000Z</time>
      </trkpt>
      <trkpt lat="45.81609" lon="4.71137">
        <ele>384.88577</ele>
        <time>2022-10-30T15:04:01.000Z</time>
      </trkpt>
      <trkpt lat="45.81611" lon="4.71139">
        <ele>384.77087</ele>
        <time>2022-10-30T15:04:02.000Z</time>
      </trkpt>
      <trkpt lat="45.81614" lon="4.71141">
        <ele>384.67767</ele>
        <time>2022-10-30T15:04:03.000Z</time>
      </trkpt>
      <trkpt lat="45.81616" lon="4.71143">
        <ele>384.58972</ele>
        <time>2022-10-30T15:04:04.000Z</time>
      </trkpt>
      <trkpt lat="45.81619" lon="4.71145">
        <ele>384.54819</ele>
        <time>2022-10-30T15:04:05.000Z</time>
      </trkpt>
      <trkpt lat="45.81622" lon="4.71147">
        <ele>384.52686</ele>
        <time>2022-10-30T15:04:06.000Z</time>
      </trkpt>
      <trkpt lat="45.81625" lon="4.71149">
        <ele>384.54709</ele>
        <time>2022-10-30T15:04:07.000Z</time>
      </trkpt>
      <trkpt lat="45.81629" lon="4.71151">
        <ele>384.59222</ele>
        <time>2022-10-30T15:04:08.000Z</time>
      </trkpt>
      <trkpt lat="45.81632" lon="4.71153">
        <ele>384.67548</ele>
        <time>2022-10-30T15:04:09.000Z</time>
      </trkpt>
      <trkpt lat="45.81636" lon="4.71155">
        <ele>384.76529</ele>
        <time>2022-10-30T15:04:10.000Z</time>
      </trkpt>
      <trkpt lat="45.8164" lon="4.71156">
        <ele>384.76959</ele>
        <time>2022-10-30T15:04:11.000Z</time>
      </trkpt>
      <trkpt lat="45.81646" lon="4.71156">
        <ele>384.74606</ele>
        <time>2022-10-30T15:04:12.000Z</time>
      </trkpt>
      <trkpt lat="45.81651" lon="4.71156">
        <ele>384.68173</ele>
        <time>2022-10-30T15:04:13.000Z</time>
      </trkpt>
      <trkpt lat="45.81655" lon="4.71155">
        <ele>384.61224</ele>
        <time>2022-10-30T15:04:14.000Z</time>
      </trkpt>
      <trkpt lat="45.81661" lon="4.71153">
        <ele>384.52237</ele>
        <time>2022-10-30T15:04:15.000Z</time>
      </trkpt>
      <trkpt lat="45.81666" lon="4.71151">
        <ele>384.37677</ele>
        <time>2022-10-30T15:04:16.000Z</time>
      </trkpt>
      <trkpt lat="45.81669" lon="4.71148">
        <ele>384.22052</ele>
        <time>2022-10-30T15:04:17.000Z</time>
      </trkpt>
      <trkpt lat="45.81673" lon="4.71144">
        <ele>384.0939</ele>
        <time>2022-10-30T15:04:18.000Z</time>
      </trkpt>
      <trkpt lat="45.81678" lon="4.71141">
        <ele>383.9046</ele>
        <time>2022-10-30T15:04:19.000Z</time>
      </trkpt>
      <trkpt lat="45.81681" lon="4.71137">
        <ele>383.75647</ele>
        <time>2022-10-30T15:04:20.000Z</time>
      </trkpt>
      <trkpt lat="45.81685" lon="4.71134">
        <ele>383.57248</ele>
        <time>2022-10-30T15:04:21.000Z</time>
      </trkpt>
      <trkpt lat="45.81688" lon="4.71129">
        <ele>383.33008</ele>
        <time>2022-10-30T15:04:22.000Z</time>
      </trkpt>
      <trkpt lat="45.81692" lon="4.71125">
        <ele>383.06488</ele>
        <time>2022-10-30T15:04:23.000Z</time>
      </trkpt>
      <trkpt lat="45.81695" lon="4.7112">
        <ele>382.80032</ele>
        <time>2022-10-30T15:04:24.000Z</time>
      </trkpt>
      <trkpt lat="45.81698" lon="4.71115">
        <ele>382.52054</ele>
        <time>2022-10-30T15:04:25.000Z</time>
      </trkpt>
      <trkpt lat="45.81702" lon="4.7111">
        <ele>382.24155</ele>
        <time>2022-10-30T15:04:26.000Z</time>
      </trkpt>
      <trkpt lat="45.81706" lon="4.71106">
        <ele>381.90533</ele>
        <time>2022-10-30T15:04:27.000Z</time>
      </trkpt>
      <trkpt lat="45.8171" lon="4.71101">
        <ele>381.57877</ele>
        <time>2022-10-30T15:04:28.000Z</time>
      </trkpt>
      <trkpt lat="45.81714" lon="4.71095">
        <ele>381.23141</ele>
        <time>2022-10-30T15:04:29.000Z</time>
      </trkpt>
      <trkpt lat="45.81718" lon="4.71091">
        <ele>380.87973</ele>
        <time>2022-10-30T15:04:30.000Z</time>
      </trkpt>
      <trkpt lat="45.81722" lon="4.71086">
        <ele>380.62067</ele>
        <time>2022-10-30T15:04:31.000Z</time>
      </trkpt>
      <trkpt lat="45.81725" lon="4.71081">
        <ele>380.42023</ele>
        <time>2022-10-30T15:04:32.000Z</time>
      </trkpt>
      <trkpt lat="45.81729" lon="4.71076">
        <ele>380.2872</ele>
        <time>2022-10-30T15:04:33.000Z</time>
      </trkpt>
      <trkpt lat="45.81733" lon="4.7107">
        <ele>380.18417</ele>
        <time>2022-10-30T15:04:34.000Z</time>
      </trkpt>
      <trkpt lat="45.81736" lon="4.71066">
        <ele>380.14285</ele>
        <time>2022-10-30T15:04:35.000Z</time>
      </trkpt>
      <trkpt lat="45.81738" lon="4.71061">
        <ele>380.17462</ele>
        <time>2022-10-30T15:04:36.000Z</time>
      </trkpt>
      <trkpt lat="45.8174" lon="4.71056">
        <ele>380.20111</ele>
        <time>2022-10-30T15:04:37.000Z</time>
      </trkpt>
      <trkpt lat="45.81742" lon="4.71053">
        <ele>380.25751</ele>
        <time>2022-10-30T15:04:38.000Z</time>
      </trkpt>
      <trkpt lat="45.81745" lon="4.7105">
        <ele>380.35675</ele>
        <time>2022-10-30T15:04:39.000Z</time>
      </trkpt>
      <trkpt lat="45.81746" lon="4.71046">
        <ele>380.36102</ele>
        <time>2022-10-30T15:04:41.000Z</time>
      </trkpt>
      <trkpt lat="45.81747" lon="4.71044">
        <ele>380.3703</ele>
        <time>2022-10-30T15:04:42.000Z</time>
      </trkpt>
      <trkpt lat="45.8175" lon="4.7104">
        <ele>380.41171</ele>
        <time>2022-10-30T15:04:44.000Z</time>
      </trkpt>
      <trkpt lat="45.81751" lon="4.71037">
        <ele>380.48523</ele>
        <time>2022-10-30T15:04:45.000Z</time>
      </trkpt>
      <trkpt lat="45.81753" lon="4.71033">
        <ele>380.55832</ele>
        <time>2022-10-30T15:04:46.000Z</time>
      </trkpt>
      <trkpt lat="45.81755" lon="4.71029">
        <ele>380.63126</ele>
        <time>2022-10-30T15:04:47.000Z</time>
      </trkpt>
      <trkpt lat="45.81757" lon="4.71026">
        <ele>380.69012</ele>
        <time>2022-10-30T15:04:48.000Z</time>
      </trkpt>
      <trkpt lat="45.81759" lon="4.71021">
        <ele>380.74542</ele>
        <time>2022-10-30T15:04:49.000Z</time>
      </trkpt>
      <trkpt lat="45.81761" lon="4.71017">
        <ele>380.78836</ele>
        <time>2022-10-30T15:04:50.000Z</time>
      </trkpt>
      <trkpt lat="45.81763" lon="4.71013">
        <ele>380.85477</ele>
        <time>2022-10-30T15:04:51.000Z</time>
      </trkpt>
      <trkpt lat="45.81766" lon="4.71009">
        <ele>380.93478</ele>
        <time>2022-10-30T15:04:52.000Z</time>
      </trkpt>
      <trkpt lat="45.81768" lon="4.71006">
        <ele>380.96832</ele>
        <time>2022-10-30T15:04:53.000Z</time>
      </trkpt>
      <trkpt lat="45.8177" lon="4.71003">
        <ele>381.01227</ele>
        <time>2022-10-30T15:04:54.000Z</time>
      </trkpt>
      <trkpt lat="45.81771" lon="4.71">
        <ele>381.10406</ele>
        <time>2022-10-30T15:05:20.000Z</time>
      </trkpt>
      <trkpt lat="45.81772" lon="4.70996">
        <ele>381.16888</ele>
        <time>2022-10-30T15:05:22.000Z</time>
      </trkpt>
      <trkpt lat="45.81773" lon="4.70994">
        <ele>381.21991</ele>
        <time>2022-10-30T15:05:23.000Z</time>
      </trkpt>
      <trkpt lat="45.81775" lon="4.70991">
        <ele>381.25137</ele>
        <time>2022-10-30T15:05:24.000Z</time>
      </trkpt>
      <trkpt lat="45.81776" lon="4.70988">
        <ele>381.27905</ele>
        <time>2022-10-30T15:05:25.000Z</time>
      </trkpt>
      <trkpt lat="45.81777" lon="4.70985">
        <ele>381.26569</ele>
        <time>2022-10-30T15:05:26.000Z</time>
      </trkpt>
      <trkpt lat="45.81779" lon="4.70983">
        <ele>381.25494</ele>
        <time>2022-10-30T15:05:27.000Z</time>
      </trkpt>
      <trkpt lat="45.8178" lon="4.70981">
        <ele>381.30011</ele>
        <time>2022-10-30T15:05:28.000Z</time>
      </trkpt>
      <trkpt lat="45.81781" lon="4.70978">
        <ele>381.33347</ele>
        <time>2022-10-30T15:05:29.000Z</time>
      </trkpt>
      <trkpt lat="45.81782" lon="4.70976">
        <ele>381.38141</ele>
        <time>2022-10-30T15:05:30.000Z</time>
      </trkpt>
      <trkpt lat="45.81784" lon="4.70974">
        <ele>381.38885</ele>
        <time>2022-10-30T15:05:31.000Z</time>
      </trkpt>
      <trkpt lat="45.81786" lon="4.70971">
        <ele>381.39362</ele>
        <time>2022-10-30T15:05:32.000Z</time>
      </trkpt>
      <trkpt lat="45.81787" lon="4.70968">
        <ele>381.3862</ele>
        <time>2022-10-30T15:05:33.000Z</time>
      </trkpt>
      <trkpt lat="45.81788" lon="4.70964">
        <ele>381.37909</ele>
        <time>2022-10-30T15:05:34.000Z</time>
      </trkpt>
      <trkpt lat="45.8179" lon="4.70961">
        <ele>381.38934</ele>
        <time>2022-10-30T15:05:35.000Z</time>
      </trkpt>
      <trkpt lat="45.81791" lon="4.70957">
        <ele>381.39716</ele>
        <time>2022-10-30T15:05:36.000Z</time>
      </trkpt>
      <trkpt lat="45.81793" lon="4.70954">
        <ele>381.37677</ele>
        <time>2022-10-30T15:05:37.000Z</time>
      </trkpt>
      <trkpt lat="45.81794" lon="4.70951">
        <ele>381.33722</ele>
        <time>2022-10-30T15:05:38.000Z</time>
      </trkpt>
      <trkpt lat="45.81796" lon="4.70948">
        <ele>381.32587</ele>
        <time>2022-10-30T15:05:39.000Z</time>
      </trkpt>
      <trkpt lat="45.81797" lon="4.70944">
        <ele>381.32135</ele>
        <time>2022-10-30T15:05:40.000Z</time>
      </trkpt>
      <trkpt lat="45.81799" lon="4.70941">
        <ele>381.26392</ele>
        <time>2022-10-30T15:05:41.000Z</time>
      </trkpt>
      <trkpt lat="45.81801" lon="4.70937">
        <ele>381.21973</ele>
        <time>2022-10-30T15:05:42.000Z</time>
      </trkpt>
      <trkpt lat="45.81802" lon="4.70933">
        <ele>381.16486</ele>
        <time>2022-10-30T15:05:43.000Z</time>
      </trkpt>
      <trkpt lat="45.81804" lon="4.70929">
        <ele>381.10968</ele>
        <time>2022-10-30T15:05:44.000Z</time>
      </trkpt>
      <trkpt lat="45.81806" lon="4.70924">
        <ele>381.08798</ele>
        <time>2022-10-30T15:05:45.000Z</time>
      </trkpt>
      <trkpt lat="45.81808" lon="4.7092">
        <ele>381.09979</ele>
        <time>2022-10-30T15:05:46.000Z</time>
      </trkpt>
      <trkpt lat="45.81811" lon="4.70916">
        <ele>381.10822</ele>
        <time>2022-10-30T15:05:47.000Z</time>
      </trkpt>
      <trkpt lat="45.81813" lon="4.70912">
        <ele>381.08234</ele>
        <time>2022-10-30T15:05:48.000Z</time>
      </trkpt>
      <trkpt lat="45.81816" lon="4.70908">
        <ele>381.05511</ele>
        <time>2022-10-30T15:05:49.000Z</time>
      </trkpt>
      <trkpt lat="45.81819" lon="4.70905">
        <ele>380.99738</ele>
        <time>2022-10-30T15:05:50.000Z</time>
      </trkpt>
      <trkpt lat="45.81822" lon="4.70901">
        <ele>380.9296</ele>
        <time>2022-10-30T15:05:51.000Z</time>
      </trkpt>
      <trkpt lat="45.81825" lon="4.70897">
        <ele>380.83835</ele>
        <time>2022-10-30T15:05:52.000Z</time>
      </trkpt>
      <trkpt lat="45.81828" lon="4.70892">
        <ele>380.75873</ele>
        <time>2022-10-30T15:05:53.000Z</time>
      </trkpt>
      <trkpt lat="45.81832" lon="4.70887">
        <ele>380.66827</ele>
        <time>2022-10-30T15:05:54.000Z</time>
      </trkpt>
      <trkpt lat="45.81836" lon="4.70883">
        <ele>380.55884</ele>
        <time>2022-10-30T15:05:55.000Z</time>
      </trkpt>
      <trkpt lat="45.81839" lon="4.70879">
        <ele>380.43799</ele>
        <time>2022-10-30T15:05:56.000Z</time>
      </trkpt>
      <trkpt lat="45.81842" lon="4.70874">
        <ele>380.31195</ele>
        <time>2022-10-30T15:05:57.000Z</time>
      </trkpt>
      <trkpt lat="45.81845" lon="4.7087">
        <ele>380.1933</ele>
        <time>2022-10-30T15:05:58.000Z</time>
      </trkpt>
      <trkpt lat="45.81848" lon="4.70866">
        <ele>380.05872</ele>
        <time>2022-10-30T15:05:59.000Z</time>
      </trkpt>
      <trkpt lat="45.81851" lon="4.70862">
        <ele>379.90039</ele>
        <time>2022-10-30T15:06:00.000Z</time>
      </trkpt>
      <trkpt lat="45.81854" lon="4.70858">
        <ele>379.74609</ele>
        <time>2022-10-30T15:06:01.000Z</time>
      </trkpt>
      <trkpt lat="45.81858" lon="4.70853">
        <ele>379.60355</ele>
        <time>2022-10-30T15:06:02.000Z</time>
      </trkpt>
      <trkpt lat="45.8186" lon="4.7085">
        <ele>379.45966</ele>
        <time>2022-10-30T15:06:03.000Z</time>
      </trkpt>
      <trkpt lat="45.81863" lon="4.70845">
        <ele>379.30649</ele>
        <time>2022-10-30T15:06:04.000Z</time>
      </trkpt>
      <trkpt lat="45.81867" lon="4.70841">
        <ele>379.14688</ele>
        <time>2022-10-30T15:06:05.000Z</time>
      </trkpt>
      <trkpt lat="45.8187" lon="4.70837">
        <ele>378.95514</ele>
        <time>2022-10-30T15:06:06.000Z</time>
      </trkpt>
      <trkpt lat="45.81873" lon="4.70833">
        <ele>378.76285</ele>
        <time>2022-10-30T15:06:07.000Z</time>
      </trkpt>
      <trkpt lat="45.81877" lon="4.70829">
        <ele>378.58566</ele>
        <time>2022-10-30T15:06:08.000Z</time>
      </trkpt>
      <trkpt lat="45.8188" lon="4.70825">
        <ele>378.3775</ele>
        <time>2022-10-30T15:06:09.000Z</time>
      </trkpt>
      <trkpt lat="45.81884" lon="4.70821">
        <ele>378.14771</ele>
        <time>2022-10-30T15:06:10.000Z</time>
      </trkpt>
      <trkpt lat="45.81888" lon="4.70816">
        <ele>377.94058</ele>
        <time>2022-10-30T15:06:11.000Z</time>
      </trkpt>
      <trkpt lat="45.81892" lon="4.70813">
        <ele>377.76471</ele>
        <time>2022-10-30T15:06:12.000Z</time>
      </trkpt>
      <trkpt lat="45.81896" lon="4.70808">
        <ele>377.56378</ele>
        <time>2022-10-30T15:06:13.000Z</time>
      </trkpt>
      <trkpt lat="45.81901" lon="4.70803">
        <ele>377.34024</ele>
        <time>2022-10-30T15:06:14.000Z</time>
      </trkpt>
      <trkpt lat="45.81905" lon="4.70798">
        <ele>377.11221</ele>
        <time>2022-10-30T15:06:15.000Z</time>
      </trkpt>
      <trkpt lat="45.8191" lon="4.70793">
        <ele>376.87744</ele>
        <time>2022-10-30T15:06:16.000Z</time>
      </trkpt>
      <trkpt lat="45.81915" lon="4.70787">
        <ele>376.60205</ele>
        <time>2022-10-30T15:06:17.000Z</time>
      </trkpt>
      <trkpt lat="45.81921" lon="4.70781">
        <ele>376.27643</ele>
        <time>2022-10-30T15:06:18.000Z</time>
      </trkpt>
      <trkpt lat="45.81927" lon="4.70775">
        <ele>375.95761</ele>
        <time>2022-10-30T15:06:19.000Z</time>
      </trkpt>
      <trkpt lat="45.81933" lon="4.70768">
        <ele>375.59424</ele>
        <time>2022-10-30T15:06:20.000Z</time>
      </trkpt>
      <trkpt lat="45.81938" lon="4.7076">
        <ele>375.18549</ele>
        <time>2022-10-30T15:06:21.000Z</time>
      </trkpt>
      <trkpt lat="45.81943" lon="4.70752">
        <ele>374.76331</ele>
        <time>2022-10-30T15:06:22.000Z</time>
      </trkpt>
      <trkpt lat="45.81947" lon="4.70744">
        <ele>374.36673</ele>
        <time>2022-10-30T15:06:23.000Z</time>
      </trkpt>
      <trkpt lat="45.81951" lon="4.70736">
        <ele>373.95093</ele>
        <time>2022-10-30T15:06:24.000Z</time>
      </trkpt>
      <trkpt lat="45.81954" lon="4.70729">
        <ele>373.55719</ele>
        <time>2022-10-30T15:06:25.000Z</time>
      </trkpt>
      <trkpt lat="45.81957" lon="4.70723">
        <ele>373.2016</ele>
        <time>2022-10-30T15:06:26.000Z</time>
      </trkpt>
      <trkpt lat="45.81962" lon="4.70718">
        <ele>372.84976</ele>
        <time>2022-10-30T15:06:27.000Z</time>
      </trkpt>
      <trkpt lat="45.81966" lon="4.70714">
        <ele>372.51004</ele>
        <time>2022-10-30T15:06:28.000Z</time>
      </trkpt>
      <trkpt lat="45.81971" lon="4.70712">
        <ele>372.215</ele>
        <time>2022-10-30T15:06:29.000Z</time>
      </trkpt>
      <trkpt lat="45.81976" lon="4.70711">
        <ele>371.99609</ele>
        <time>2022-10-30T15:06:30.000Z</time>
      </trkpt>
      <trkpt lat="45.81981" lon="4.70711">
        <ele>371.79169</ele>
        <time>2022-10-30T15:06:31.000Z</time>
      </trkpt>
      <trkpt lat="45.81986" lon="4.70709">
        <ele>371.59756</ele>
        <time>2022-10-30T15:06:32.000Z</time>
      </trkpt>
      <trkpt lat="45.81991" lon="4.70709">
        <ele>371.44592</ele>
        <time>2022-10-30T15:06:33.000Z</time>
      </trkpt>
      <trkpt lat="45.81996" lon="4.70708">
        <ele>371.32379</ele>
        <time>2022-10-30T15:06:34.000Z</time>
      </trkpt>
      <trkpt lat="45.82" lon="4.70707">
        <ele>371.24042</ele>
        <time>2022-10-30T15:06:35.000Z</time>
      </trkpt>
      <trkpt lat="45.82005" lon="4.70706">
        <ele>371.16339</ele>
        <time>2022-10-30T15:06:36.000Z</time>
      </trkpt>
      <trkpt lat="45.8201" lon="4.70705">
        <ele>371.12506</ele>
        <time>2022-10-30T15:06:37.000Z</time>
      </trkpt>
      <trkpt lat="45.82015" lon="4.70704">
        <ele>371.14328</ele>
        <time>2022-10-30T15:06:38.000Z</time>
      </trkpt>
      <trkpt lat="45.8202" lon="4.70704">
        <ele>371.18671</ele>
        <time>2022-10-30T15:06:39.000Z</time>
      </trkpt>
      <trkpt lat="45.82025" lon="4.70703">
        <ele>371.28577</ele>
        <time>2022-10-30T15:06:40.000Z</time>
      </trkpt>
      <trkpt lat="45.8203" lon="4.707">
        <ele>371.40912</ele>
        <time>2022-10-30T15:06:41.000Z</time>
      </trkpt>
      <trkpt lat="45.82034" lon="4.70696">
        <ele>371.50861</ele>
        <time>2022-10-30T15:06:42.000Z</time>
      </trkpt>
      <trkpt lat="45.82038" lon="4.70691">
        <ele>371.60614</ele>
        <time>2022-10-30T15:06:43.000Z</time>
      </trkpt>
      <trkpt lat="45.82041" lon="4.70684">
        <ele>371.72501</ele>
        <time>2022-10-30T15:06:44.000Z</time>
      </trkpt>
      <trkpt lat="45.82044" lon="4.70675">
        <ele>371.80585</ele>
        <time>2022-10-30T15:06:45.000Z</time>
      </trkpt>
      <trkpt lat="45.82045" lon="4.70664">
        <ele>371.82996</ele>
        <time>2022-10-30T15:06:46.000Z</time>
      </trkpt>
      <trkpt lat="45.82046" lon="4.70654">
        <ele>371.84296</ele>
        <time>2022-10-30T15:06:47.000Z</time>
      </trkpt>
      <trkpt lat="45.82048" lon="4.70643">
        <ele>371.79987</ele>
        <time>2022-10-30T15:06:48.000Z</time>
      </trkpt>
      <trkpt lat="45.8205" lon="4.70632">
        <ele>371.67905</ele>
        <time>2022-10-30T15:06:49.000Z</time>
      </trkpt>
      <trkpt lat="45.82053" lon="4.70621">
        <ele>371.47583</ele>
        <time>2022-10-30T15:06:50.000Z</time>
      </trkpt>
      <trkpt lat="45.82057" lon="4.7061">
        <ele>371.23611</ele>
        <time>2022-10-30T15:06:51.000Z</time>
      </trkpt>
      <trkpt lat="45.82062" lon="4.70599">
        <ele>370.92645</ele>
        <time>2022-10-30T15:06:52.000Z</time>
      </trkpt>
      <trkpt lat="45.82069" lon="4.70589">
        <ele>370.56519</ele>
        <time>2022-10-30T15:06:53.000Z</time>
      </trkpt>
      <trkpt lat="45.82076" lon="4.70579">
        <ele>370.17084</ele>
        <time>2022-10-30T15:06:54.000Z</time>
      </trkpt>
      <trkpt lat="45.82083" lon="4.70569">
        <ele>369.72037</ele>
        <time>2022-10-30T15:06:55.000Z</time>
      </trkpt>
      <trkpt lat="45.82091" lon="4.7056">
        <ele>369.22638</ele>
        <time>2022-10-30T15:06:56.000Z</time>
      </trkpt>
      <trkpt lat="45.82098" lon="4.7055">
        <ele>368.69913</ele>
        <time>2022-10-30T15:06:57.000Z</time>
      </trkpt>
      <trkpt lat="45.82106" lon="4.70541">
        <ele>368.13678</ele>
        <time>2022-10-30T15:06:58.000Z</time>
      </trkpt>
      <trkpt lat="45.82113" lon="4.70532">
        <ele>367.52985</ele>
        <time>2022-10-30T15:06:59.000Z</time>
      </trkpt>
      <trkpt lat="45.8212" lon="4.70522">
        <ele>366.9104</ele>
        <time>2022-10-30T15:07:00.000Z</time>
      </trkpt>
      <trkpt lat="45.82127" lon="4.70512">
        <ele>366.27618</ele>
        <time>2022-10-30T15:07:01.000Z</time>
      </trkpt>
      <trkpt lat="45.82134" lon="4.70502">
        <ele>365.65015</ele>
        <time>2022-10-30T15:07:02.000Z</time>
      </trkpt>
      <trkpt lat="45.82141" lon="4.70492">
        <ele>364.99899</ele>
        <time>2022-10-30T15:07:03.000Z</time>
      </trkpt>
      <trkpt lat="45.82147" lon="4.70482">
        <ele>364.36148</ele>
        <time>2022-10-30T15:07:04.000Z</time>
      </trkpt>
      <trkpt lat="45.82153" lon="4.70471">
        <ele>363.70889</ele>
        <time>2022-10-30T15:07:05.000Z</time>
      </trkpt>
      <trkpt lat="45.8216" lon="4.70462">
        <ele>363.0907</ele>
        <time>2022-10-30T15:07:06.000Z</time>
      </trkpt>
      <trkpt lat="45.82166" lon="4.70452">
        <ele>362.47</ele>
        <time>2022-10-30T15:07:07.000Z</time>
      </trkpt>
      <trkpt lat="45.82172" lon="4.70442">
        <ele>361.86679</ele>
        <time>2022-10-30T15:07:08.000Z</time>
      </trkpt>
      <trkpt lat="45.82179" lon="4.70432">
        <ele>361.28085</ele>
        <time>2022-10-30T15:07:09.000Z</time>
      </trkpt>
      <trkpt lat="45.82185" lon="4.70422">
        <ele>360.66586</ele>
        <time>2022-10-30T15:07:10.000Z</time>
      </trkpt>
      <trkpt lat="45.8219" lon="4.70412">
        <ele>360.06058</ele>
        <time>2022-10-30T15:07:11.000Z</time>
      </trkpt>
      <trkpt lat="45.82195" lon="4.70402">
        <ele>359.51871</ele>
        <time>2022-10-30T15:07:12.000Z</time>
      </trkpt>
      <trkpt lat="45.822" lon="4.70392">
        <ele>359.00262</ele>
        <time>2022-10-30T15:07:13.000Z</time>
      </trkpt>
      <trkpt lat="45.82204" lon="4.70382">
        <ele>358.54999</ele>
        <time>2022-10-30T15:07:14.000Z</time>
      </trkpt>
      <trkpt lat="45.8221" lon="4.70371">
        <ele>358.11053</ele>
        <time>2022-10-30T15:07:15.000Z</time>
      </trkpt>
      <trkpt lat="45.82214" lon="4.70361">
        <ele>357.73236</ele>
        <time>2022-10-30T15:07:16.000Z</time>
      </trkpt>
      <trkpt lat="45.82218" lon="4.70353">
        <ele>357.40292</ele>
        <time>2022-10-30T15:07:17.000Z</time>
      </trkpt>
      <trkpt lat="45.82222" lon="4.70343">
        <ele>357.09088</ele>
        <time>2022-10-30T15:07:18.000Z</time>
      </trkpt>
      <trkpt lat="45.82226" lon="4.70334">
        <ele>356.81314</ele>
        <time>2022-10-30T15:07:19.000Z</time>
      </trkpt>
      <trkpt lat="45.8223" lon="4.70325">
        <ele>356.54303</ele>
        <time>2022-10-30T15:07:20.000Z</time>
      </trkpt>
      <trkpt lat="45.82234" lon="4.70316">
        <ele>356.31442</ele>
        <time>2022-10-30T15:07:21.000Z</time>
      </trkpt>
      <trkpt lat="45.82238" lon="4.70307">
        <ele>356.10303</ele>
        <time>2022-10-30T15:07:22.000Z</time>
      </trkpt>
      <trkpt lat="45.82242" lon="4.70298">
        <ele>355.88898</ele>
        <time>2022-10-30T15:07:23.000Z</time>
      </trkpt>
      <trkpt lat="45.82246" lon="4.7029">
        <ele>355.67499</ele>
        <time>2022-10-30T15:07:24.000Z</time>
      </trkpt>
      <trkpt lat="45.8225" lon="4.70281">
        <ele>355.48657</ele>
        <time>2022-10-30T15:07:25.000Z</time>
      </trkpt>
      <trkpt lat="45.82253" lon="4.70273">
        <ele>355.32544</ele>
        <time>2022-10-30T15:07:26.000Z</time>
      </trkpt>
      <trkpt lat="45.82256" lon="4.70264">
        <ele>355.17221</ele>
        <time>2022-10-30T15:07:27.000Z</time>
      </trkpt>
      <trkpt lat="45.8226" lon="4.70256">
        <ele>355.06015</ele>
        <time>2022-10-30T15:07:28.000Z</time>
      </trkpt>
      <trkpt lat="45.82263" lon="4.70248">
        <ele>354.97812</ele>
        <time>2022-10-30T15:07:29.000Z</time>
      </trkpt>
      <trkpt lat="45.82267" lon="4.7024">
        <ele>354.95917</ele>
        <time>2022-10-30T15:07:30.000Z</time>
      </trkpt>
      <trkpt lat="45.82271" lon="4.70232">
        <ele>354.9231</ele>
        <time>2022-10-30T15:07:31.000Z</time>
      </trkpt>
      <trkpt lat="45.82274" lon="4.70223">
        <ele>354.86563</ele>
        <time>2022-10-30T15:07:32.000Z</time>
      </trkpt>
      <trkpt lat="45.82278" lon="4.70215">
        <ele>354.79562</ele>
        <time>2022-10-30T15:07:33.000Z</time>
      </trkpt>
      <trkpt lat="45.82281" lon="4.70207">
        <ele>354.69794</ele>
        <time>2022-10-30T15:07:34.000Z</time>
      </trkpt>
      <trkpt lat="45.82285" lon="4.70198">
        <ele>354.62698</ele>
        <time>2022-10-30T15:07:35.000Z</time>
      </trkpt>
      <trkpt lat="45.82288" lon="4.70189">
        <ele>354.5264</ele>
        <time>2022-10-30T15:07:36.000Z</time>
      </trkpt>
      <trkpt lat="45.82292" lon="4.7018">
        <ele>354.39114</ele>
        <time>2022-10-30T15:07:37.000Z</time>
      </trkpt>
      <trkpt lat="45.82297" lon="4.70172">
        <ele>354.25739</ele>
        <time>2022-10-30T15:07:38.000Z</time>
      </trkpt>
      <trkpt lat="45.82302" lon="4.70165">
        <ele>354.08099</ele>
        <time>2022-10-30T15:07:39.000Z</time>
      </trkpt>
      <trkpt lat="45.82307" lon="4.70159">
        <ele>353.93155</ele>
        <time>2022-10-30T15:07:40.000Z</time>
      </trkpt>
      <trkpt lat="45.82314" lon="4.70155">
        <ele>353.72443</ele>
        <time>2022-10-30T15:07:41.000Z</time>
      </trkpt>
      <trkpt lat="45.8232" lon="4.70152">
        <ele>353.51645</ele>
        <time>2022-10-30T15:07:42.000Z</time>
      </trkpt>
      <trkpt lat="45.82327" lon="4.70152">
        <ele>353.34601</ele>
        <time>2022-10-30T15:07:43.000Z</time>
      </trkpt>
      <trkpt lat="45.82333" lon="4.70151">
        <ele>353.16635</ele>
        <time>2022-10-30T15:07:44.000Z</time>
      </trkpt>
      <trkpt lat="45.82339" lon="4.70151">
        <ele>352.97241</ele>
        <time>2022-10-30T15:07:45.000Z</time>
      </trkpt>
      <trkpt lat="45.82345" lon="4.70152">
        <ele>352.78363</ele>
        <time>2022-10-30T15:07:46.000Z</time>
      </trkpt>
      <trkpt lat="45.82351" lon="4.70153">
        <ele>352.61029</ele>
        <time>2022-10-30T15:07:47.000Z</time>
      </trkpt>
      <trkpt lat="45.82357" lon="4.70153">
        <ele>352.44611</ele>
        <time>2022-10-30T15:07:48.000Z</time>
      </trkpt>
      <trkpt lat="45.82362" lon="4.70154">
        <ele>352.27753</ele>
        <time>2022-10-30T15:07:49.000Z</time>
      </trkpt>
      <trkpt lat="45.82368" lon="4.70155">
        <ele>352.1163</ele>
        <time>2022-10-30T15:07:50.000Z</time>
      </trkpt>
      <trkpt lat="45.82374" lon="4.70156">
        <ele>352.01819</ele>
        <time>2022-10-30T15:07:51.000Z</time>
      </trkpt>
      <trkpt lat="45.8238" lon="4.70157">
        <ele>351.93695</ele>
        <time>2022-10-30T15:07:52.000Z</time>
      </trkpt>
      <trkpt lat="45.82386" lon="4.70157">
        <ele>351.88098</ele>
        <time>2022-10-30T15:07:53.000Z</time>
      </trkpt>
      <trkpt lat="45.82391" lon="4.70158">
        <ele>351.83441</ele>
        <time>2022-10-30T15:07:54.000Z</time>
      </trkpt>
      <trkpt lat="45.82396" lon="4.70159">
        <ele>351.82059</ele>
        <time>2022-10-30T15:07:55.000Z</time>
      </trkpt>
      <trkpt lat="45.82402" lon="4.70158">
        <ele>351.83911</ele>
        <time>2022-10-30T15:07:56.000Z</time>
      </trkpt>
      <trkpt lat="45.82407" lon="4.70158">
        <ele>351.85712</ele>
        <time>2022-10-30T15:07:57.000Z</time>
      </trkpt>
      <trkpt lat="45.82412" lon="4.70156">
        <ele>351.89325</ele>
        <time>2022-10-30T15:07:58.000Z</time>
      </trkpt>
      <trkpt lat="45.82417" lon="4.70156">
        <ele>351.96545</ele>
        <time>2022-10-30T15:07:59.000Z</time>
      </trkpt>
      <trkpt lat="45.82423" lon="4.70154">
        <ele>351.99905</ele>
        <time>2022-10-30T15:08:00.000Z</time>
      </trkpt>
      <trkpt lat="45.82428" lon="4.70152">
        <ele>352.07513</ele>
        <time>2022-10-30T15:08:01.000Z</time>
      </trkpt>
      <trkpt lat="45.82434" lon="4.7015">
        <ele>352.16638</ele>
        <time>2022-10-30T15:08:02.000Z</time>
      </trkpt>
      <trkpt lat="45.82439" lon="4.70149">
        <ele>352.26602</ele>
        <time>2022-10-30T15:08:03.000Z</time>
      </trkpt>
      <trkpt lat="45.82445" lon="4.70148">
        <ele>352.3627</ele>
        <time>2022-10-30T15:08:04.000Z</time>
      </trkpt>
      <trkpt lat="45.8245" lon="4.70147">
        <ele>352.47922</ele>
        <time>2022-10-30T15:08:05.000Z</time>
      </trkpt>
      <trkpt lat="45.82456" lon="4.70147">
        <ele>352.57605</ele>
        <time>2022-10-30T15:08:06.000Z</time>
      </trkpt>
      <trkpt lat="45.82461" lon="4.70147">
        <ele>352.67929</ele>
        <time>2022-10-30T15:08:07.000Z</time>
      </trkpt>
      <trkpt lat="45.82466" lon="4.70147">
        <ele>352.76691</ele>
        <time>2022-10-30T15:08:08.000Z</time>
      </trkpt>
      <trkpt lat="45.82472" lon="4.70147">
        <ele>352.86978</ele>
        <time>2022-10-30T15:08:09.000Z</time>
      </trkpt>
      <trkpt lat="45.82477" lon="4.70147">
        <ele>353.00189</ele>
        <time>2022-10-30T15:08:10.000Z</time>
      </trkpt>
      <trkpt lat="45.82483" lon="4.70147">
        <ele>353.12189</ele>
        <time>2022-10-30T15:08:11.000Z</time>
      </trkpt>
      <trkpt lat="45.82488" lon="4.70146">
        <ele>353.26221</ele>
        <time>2022-10-30T15:08:12.000Z</time>
      </trkpt>
      <trkpt lat="45.82493" lon="4.70146">
        <ele>353.39175</ele>
        <time>2022-10-30T15:08:13.000Z</time>
      </trkpt>
      <trkpt lat="45.82498" lon="4.70146">
        <ele>353.52399</ele>
        <time>2022-10-30T15:08:14.000Z</time>
      </trkpt>
      <trkpt lat="45.82503" lon="4.70146">
        <ele>353.6597</ele>
        <time>2022-10-30T15:08:15.000Z</time>
      </trkpt>
      <trkpt lat="45.82508" lon="4.70146">
        <ele>353.79797</ele>
        <time>2022-10-30T15:08:16.000Z</time>
      </trkpt>
      <trkpt lat="45.82513" lon="4.70146">
        <ele>353.98895</ele>
        <time>2022-10-30T15:08:17.000Z</time>
      </trkpt>
      <trkpt lat="45.82518" lon="4.70146">
        <ele>354.19183</ele>
        <time>2022-10-30T15:08:18.000Z</time>
      </trkpt>
      <trkpt lat="45.82523" lon="4.70146">
        <ele>354.41147</ele>
        <time>2022-10-30T15:08:19.000Z</time>
      </trkpt>
      <trkpt lat="45.82528" lon="4.70146">
        <ele>354.68774</ele>
        <time>2022-10-30T15:08:20.000Z</time>
      </trkpt>
      <trkpt lat="45.82533" lon="4.70148">
        <ele>354.98712</ele>
        <time>2022-10-30T15:08:21.000Z</time>
      </trkpt>
      <trkpt lat="45.82538" lon="4.70148">
        <ele>355.26483</ele>
        <time>2022-10-30T15:08:22.000Z</time>
      </trkpt>
      <trkpt lat="45.82542" lon="4.70149">
        <ele>355.59143</ele>
        <time>2022-10-30T15:08:23.000Z</time>
      </trkpt>
      <trkpt lat="45.82547" lon="4.70149">
        <ele>355.96997</ele>
        <time>2022-10-30T15:08:24.000Z</time>
      </trkpt>
      <trkpt lat="45.82551" lon="4.70149">
        <ele>356.36844</ele>
        <time>2022-10-30T15:08:25.000Z</time>
      </trkpt>
      <trkpt lat="45.82556" lon="4.7015">
        <ele>356.81097</ele>
        <time>2022-10-30T15:08:26.000Z</time>
      </trkpt>
      <trkpt lat="45.8256" lon="4.7015">
        <ele>357.24814</ele>
        <time>2022-10-30T15:08:27.000Z</time>
      </trkpt>
      <trkpt lat="45.82564" lon="4.70151">
        <ele>357.69775</ele>
        <time>2022-10-30T15:08:28.000Z</time>
      </trkpt>
      <trkpt lat="45.82569" lon="4.70151">
        <ele>358.16675</ele>
        <time>2022-10-30T15:08:29.000Z</time>
      </trkpt>
      <trkpt lat="45.82574" lon="4.70151">
        <ele>358.62262</ele>
        <time>2022-10-30T15:08:30.000Z</time>
      </trkpt>
      <trkpt lat="45.82579" lon="4.70151">
        <ele>359.08691</ele>
        <time>2022-10-30T15:08:31.000Z</time>
      </trkpt>
      <trkpt lat="45.82584" lon="4.70151">
        <ele>359.57324</ele>
        <time>2022-10-30T15:08:32.000Z</time>
      </trkpt>
      <trkpt lat="45.82589" lon="4.70152">
        <ele>360.05634</ele>
        <time>2022-10-30T15:08:33.000Z</time>
      </trkpt>
      <trkpt lat="45.82595" lon="4.70152">
        <ele>360.55249</ele>
        <time>2022-10-30T15:08:34.000Z</time>
      </trkpt>
      <trkpt lat="45.82599" lon="4.70152">
        <ele>361.021</ele>
        <time>2022-10-30T15:08:35.000Z</time>
      </trkpt>
      <trkpt lat="45.82604" lon="4.70152">
        <ele>361.46509</ele>
        <time>2022-10-30T15:08:36.000Z</time>
      </trkpt>
      <trkpt lat="45.82608" lon="4.70151">
        <ele>361.88635</ele>
        <time>2022-10-30T15:08:37.000Z</time>
      </trkpt>
      <trkpt lat="45.82613" lon="4.70151">
        <ele>362.29123</ele>
        <time>2022-10-30T15:08:38.000Z</time>
      </trkpt>
      <trkpt lat="45.82617" lon="4.70149">
        <ele>362.6994</ele>
        <time>2022-10-30T15:08:39.000Z</time>
      </trkpt>
      <trkpt lat="45.82621" lon="4.70148">
        <ele>363.07129</ele>
        <time>2022-10-30T15:08:40.000Z</time>
      </trkpt>
      <trkpt lat="45.82625" lon="4.70147">
        <ele>363.42474</ele>
        <time>2022-10-30T15:08:41.000Z</time>
      </trkpt>
      <trkpt lat="45.8263" lon="4.70146">
        <ele>363.79834</ele>
        <time>2022-10-30T15:08:42.000Z</time>
      </trkpt>
      <trkpt lat="45.82633" lon="4.70144">
        <ele>364.10825</ele>
        <time>2022-10-30T15:08:43.000Z</time>
      </trkpt>
      <trkpt lat="45.82637" lon="4.70141">
        <ele>364.35858</ele>
        <time>2022-10-30T15:08:44.000Z</time>
      </trkpt>
      <trkpt lat="45.82642" lon="4.70139">
        <ele>364.61115</ele>
        <time>2022-10-30T15:08:45.000Z</time>
      </trkpt>
      <trkpt lat="45.82646" lon="4.70138">
        <ele>364.87061</ele>
        <time>2022-10-30T15:08:46.000Z</time>
      </trkpt>
      <trkpt lat="45.8265" lon="4.70136">
        <ele>365.09116</ele>
        <time>2022-10-30T15:08:47.000Z</time>
      </trkpt>
      <trkpt lat="45.82653" lon="4.70133">
        <ele>365.30533</ele>
        <time>2022-10-30T15:08:48.000Z</time>
      </trkpt>
      <trkpt lat="45.82657" lon="4.7013">
        <ele>365.51343</ele>
        <time>2022-10-30T15:08:49.000Z</time>
      </trkpt>
      <trkpt lat="45.82661" lon="4.70127">
        <ele>365.73306</ele>
        <time>2022-10-30T15:08:50.000Z</time>
      </trkpt>
      <trkpt lat="45.82665" lon="4.70124">
        <ele>365.92987</ele>
        <time>2022-10-30T15:08:51.000Z</time>
      </trkpt>
      <trkpt lat="45.82669" lon="4.70121">
        <ele>366.10229</ele>
        <time>2022-10-30T15:08:52.000Z</time>
      </trkpt>
      <trkpt lat="45.82673" lon="4.70118">
        <ele>366.27252</ele>
        <time>2022-10-30T15:08:53.000Z</time>
      </trkpt>
      <trkpt lat="45.82677" lon="4.70116">
        <ele>366.44839</ele>
        <time>2022-10-30T15:08:54.000Z</time>
      </trkpt>
      <trkpt lat="45.82681" lon="4.70113">
        <ele>366.63654</ele>
        <time>2022-10-30T15:08:55.000Z</time>
      </trkpt>
      <trkpt lat="45.82685" lon="4.7011">
        <ele>366.83441</ele>
        <time>2022-10-30T15:08:56.000Z</time>
      </trkpt>
      <trkpt lat="45.82689" lon="4.70107">
        <ele>367.0451</ele>
        <time>2022-10-30T15:08:57.000Z</time>
      </trkpt>
      <trkpt lat="45.82693" lon="4.70104">
        <ele>367.27325</ele>
        <time>2022-10-30T15:08:58.000Z</time>
      </trkpt>
      <trkpt lat="45.82697" lon="4.70102">
        <ele>367.50128</ele>
        <time>2022-10-30T15:08:59.000Z</time>
      </trkpt>
      <trkpt lat="45.82701" lon="4.701">
        <ele>367.72894</ele>
        <time>2022-10-30T15:09:00.000Z</time>
      </trkpt>
      <trkpt lat="45.82705" lon="4.70098">
        <ele>367.95697</ele>
        <time>2022-10-30T15:09:01.000Z</time>
      </trkpt>
      <trkpt lat="45.82708" lon="4.70096">
        <ele>368.21112</ele>
        <time>2022-10-30T15:09:02.000Z</time>
      </trkpt>
      <trkpt lat="45.82712" lon="4.70095">
        <ele>368.48456</ele>
        <time>2022-10-30T15:09:03.000Z</time>
      </trkpt>
      <trkpt lat="45.82716" lon="4.70093">
        <ele>368.81552</ele>
        <time>2022-10-30T15:09:04.000Z</time>
      </trkpt>
      <trkpt lat="45.82719" lon="4.7009">
        <ele>369.12912</ele>
        <time>2022-10-30T15:09:05.000Z</time>
      </trkpt>
      <trkpt lat="45.82723" lon="4.70088">
        <ele>369.42169</ele>
        <time>2022-10-30T15:09:06.000Z</time>
      </trkpt>
      <trkpt lat="45.82729" lon="4.70087">
        <ele>369.77066</ele>
        <time>2022-10-30T15:09:07.000Z</time>
      </trkpt>
      <trkpt lat="45.82733" lon="4.70084">
        <ele>370.12979</ele>
        <time>2022-10-30T15:09:08.000Z</time>
      </trkpt>
      <trkpt lat="45.82738" lon="4.70081">
        <ele>370.50598</ele>
        <time>2022-10-30T15:09:09.000Z</time>
      </trkpt>
      <trkpt lat="45.82743" lon="4.70078">
        <ele>370.86041</ele>
        <time>2022-10-30T15:09:10.000Z</time>
      </trkpt>
      <trkpt lat="45.82748" lon="4.70075">
        <ele>371.24677</ele>
        <time>2022-10-30T15:09:11.000Z</time>
      </trkpt>
      <trkpt lat="45.82753" lon="4.70073">
        <ele>371.60199</ele>
        <time>2022-10-30T15:09:12.000Z</time>
      </trkpt>
      <trkpt lat="45.82757" lon="4.7007">
        <ele>371.98553</ele>
        <time>2022-10-30T15:09:13.000Z</time>
      </trkpt>
      <trkpt lat="45.82761" lon="4.70066">
        <ele>372.3634</ele>
        <time>2022-10-30T15:09:14.000Z</time>
      </trkpt>
      <trkpt lat="45.82765" lon="4.70063">
        <ele>372.75122</ele>
        <time>2022-10-30T15:09:15.000Z</time>
      </trkpt>
      <trkpt lat="45.82769" lon="4.70059">
        <ele>373.13385</ele>
        <time>2022-10-30T15:09:16.000Z</time>
      </trkpt>
      <trkpt lat="45.82772" lon="4.70056">
        <ele>373.49283</ele>
        <time>2022-10-30T15:09:17.000Z</time>
      </trkpt>
      <trkpt lat="45.82774" lon="4.70053">
        <ele>373.82336</ele>
        <time>2022-10-30T15:09:18.000Z</time>
      </trkpt>
      <trkpt lat="45.82776" lon="4.70051">
        <ele>374.15009</ele>
        <time>2022-10-30T15:09:19.000Z</time>
      </trkpt>
      <trkpt lat="45.8278" lon="4.70047">
        <ele>374.42929</ele>
        <time>2022-10-30T15:09:21.000Z</time>
      </trkpt>
      <trkpt lat="45.82783" lon="4.70047">
        <ele>374.67471</ele>
        <time>2022-10-30T15:09:22.000Z</time>
      </trkpt>
      <trkpt lat="45.82786" lon="4.70049">
        <ele>374.87933</ele>
        <time>2022-10-30T15:09:23.000Z</time>
      </trkpt>
      <trkpt lat="45.82789" lon="4.70052">
        <ele>375.05038</ele>
        <time>2022-10-30T15:09:24.000Z</time>
      </trkpt>
      <trkpt lat="45.82792" lon="4.70056">
        <ele>375.1712</ele>
        <time>2022-10-30T15:09:25.000Z</time>
      </trkpt>
      <trkpt lat="45.82795" lon="4.70061">
        <ele>375.27786</ele>
        <time>2022-10-30T15:09:26.000Z</time>
      </trkpt>
      <trkpt lat="45.82798" lon="4.70067">
        <ele>375.35873</ele>
        <time>2022-10-30T15:09:27.000Z</time>
      </trkpt>
      <trkpt lat="45.82802" lon="4.70073">
        <ele>375.41122</ele>
        <time>2022-10-30T15:09:28.000Z</time>
      </trkpt>
      <trkpt lat="45.82806" lon="4.70079">
        <ele>375.44348</ele>
        <time>2022-10-30T15:09:29.000Z</time>
      </trkpt>
      <trkpt lat="45.8281" lon="4.70084">
        <ele>375.47406</ele>
        <time>2022-10-30T15:09:30.000Z</time>
      </trkpt>
      <trkpt lat="45.82814" lon="4.70091">
        <ele>375.49789</ele>
        <time>2022-10-30T15:09:31.000Z</time>
      </trkpt>
      <trkpt lat="45.82818" lon="4.70097">
        <ele>375.45734</ele>
        <time>2022-10-30T15:09:32.000Z</time>
      </trkpt>
      <trkpt lat="45.82822" lon="4.70103">
        <ele>375.42328</ele>
        <time>2022-10-30T15:09:33.000Z</time>
      </trkpt>
      <trkpt lat="45.82826" lon="4.70109">
        <ele>375.3606</ele>
        <time>2022-10-30T15:09:34.000Z</time>
      </trkpt>
      <trkpt lat="45.82829" lon="4.70115">
        <ele>375.27017</ele>
        <time>2022-10-30T15:09:35.000Z</time>
      </trkpt>
      <trkpt lat="45.82833" lon="4.70123">
        <ele>375.13681</ele>
        <time>2022-10-30T15:09:36.000Z</time>
      </trkpt>
      <trkpt lat="45.82837" lon="4.70129">
        <ele>375.01126</ele>
        <time>2022-10-30T15:09:37.000Z</time>
      </trkpt>
      <trkpt lat="45.82841" lon="4.70136">
        <ele>374.87207</ele>
        <time>2022-10-30T15:09:38.000Z</time>
      </trkpt>
      <trkpt lat="45.82845" lon="4.70143">
        <ele>374.71906</ele>
        <time>2022-10-30T15:09:39.000Z</time>
      </trkpt>
      <trkpt lat="45.82848" lon="4.7015">
        <ele>374.5119</ele>
        <time>2022-10-30T15:09:40.000Z</time>
      </trkpt>
      <trkpt lat="45.82852" lon="4.70158">
        <ele>374.31595</ele>
        <time>2022-10-30T15:09:41.000Z</time>
      </trkpt>
      <trkpt lat="45.82856" lon="4.70165">
        <ele>374.12775</ele>
        <time>2022-10-30T15:09:42.000Z</time>
      </trkpt>
      <trkpt lat="45.8286" lon="4.70173">
        <ele>373.91116</ele>
        <time>2022-10-30T15:09:43.000Z</time>
      </trkpt>
      <trkpt lat="45.82864" lon="4.70179">
        <ele>373.68167</ele>
        <time>2022-10-30T15:09:44.000Z</time>
      </trkpt>
      <trkpt lat="45.82868" lon="4.70187">
        <ele>373.43033</ele>
        <time>2022-10-30T15:09:45.000Z</time>
      </trkpt>
      <trkpt lat="45.82872" lon="4.70195">
        <ele>373.18576</ele>
        <time>2022-10-30T15:09:46.000Z</time>
      </trkpt>
      <trkpt lat="45.82877" lon="4.70202">
        <ele>372.93051</ele>
        <time>2022-10-30T15:09:47.000Z</time>
      </trkpt>
      <trkpt lat="45.82881" lon="4.70209">
        <ele>372.67316</ele>
        <time>2022-10-30T15:09:48.000Z</time>
      </trkpt>
      <trkpt lat="45.82884" lon="4.70215">
        <ele>372.39883</ele>
        <time>2022-10-30T15:09:49.000Z</time>
      </trkpt>
      <trkpt lat="45.82888" lon="4.70221">
        <ele>372.10556</ele>
        <time>2022-10-30T15:09:50.000Z</time>
      </trkpt>
      <trkpt lat="45.82892" lon="4.70227">
        <ele>371.80481</ele>
        <time>2022-10-30T15:09:51.000Z</time>
      </trkpt>
      <trkpt lat="45.82896" lon="4.70233">
        <ele>371.48138</ele>
        <time>2022-10-30T15:09:52.000Z</time>
      </trkpt>
      <trkpt lat="45.82899" lon="4.7024">
        <ele>371.15686</ele>
        <time>2022-10-30T15:09:53.000Z</time>
      </trkpt>
      <trkpt lat="45.82903" lon="4.70246">
        <ele>370.85236</ele>
        <time>2022-10-30T15:09:54.000Z</time>
      </trkpt>
      <trkpt lat="45.82907" lon="4.70251">
        <ele>370.51422</ele>
        <time>2022-10-30T15:09:55.000Z</time>
      </trkpt>
      <trkpt lat="45.8291" lon="4.70257">
        <ele>370.18253</ele>
        <time>2022-10-30T15:09:56.000Z</time>
      </trkpt>
      <trkpt lat="45.82915" lon="4.70264">
        <ele>369.83221</ele>
        <time>2022-10-30T15:09:57.000Z</time>
      </trkpt>
      <trkpt lat="45.82919" lon="4.7027">
        <ele>369.50372</ele>
        <time>2022-10-30T15:09:58.000Z</time>
      </trkpt>
      <trkpt lat="45.82923" lon="4.70278">
        <ele>369.17633</ele>
        <time>2022-10-30T15:09:59.000Z</time>
      </trkpt>
      <trkpt lat="45.82927" lon="4.70285">
        <ele>368.86847</ele>
        <time>2022-10-30T15:10:00.000Z</time>
      </trkpt>
      <trkpt lat="45.8293" lon="4.70292">
        <ele>368.57306</ele>
        <time>2022-10-30T15:10:01.000Z</time>
      </trkpt>
      <trkpt lat="45.82934" lon="4.70299">
        <ele>368.28107</ele>
        <time>2022-10-30T15:10:02.000Z</time>
      </trkpt>
      <trkpt lat="45.82938" lon="4.70306">
        <ele>368.00037</ele>
        <time>2022-10-30T15:10:03.000Z</time>
      </trkpt>
      <trkpt lat="45.82944" lon="4.70312">
        <ele>367.67178</ele>
        <time>2022-10-30T15:10:04.000Z</time>
      </trkpt>
      <trkpt lat="45.82947" lon="4.70319">
        <ele>367.32294</ele>
        <time>2022-10-30T15:10:05.000Z</time>
      </trkpt>
      <trkpt lat="45.82951" lon="4.70326">
        <ele>366.95892</ele>
        <time>2022-10-30T15:10:06.000Z</time>
      </trkpt>
      <trkpt lat="45.82955" lon="4.70333">
        <ele>366.59113</ele>
        <time>2022-10-30T15:10:07.000Z</time>
      </trkpt>
      <trkpt lat="45.82959" lon="4.7034">
        <ele>366.23572</ele>
        <time>2022-10-30T15:10:08.000Z</time>
      </trkpt>
      <trkpt lat="45.82964" lon="4.70347">
        <ele>365.93222</ele>
        <time>2022-10-30T15:10:09.000Z</time>
      </trkpt>
      <trkpt lat="45.82968" lon="4.70354">
        <ele>365.62469</ele>
        <time>2022-10-30T15:10:10.000Z</time>
      </trkpt>
      <trkpt lat="45.82972" lon="4.70361">
        <ele>365.29092</ele>
        <time>2022-10-30T15:10:11.000Z</time>
      </trkpt>
      <trkpt lat="45.82976" lon="4.70368">
        <ele>364.98376</ele>
        <time>2022-10-30T15:10:12.000Z</time>
      </trkpt>
      <trkpt lat="45.8298" lon="4.70375">
        <ele>364.69861</ele>
        <time>2022-10-30T15:10:13.000Z</time>
      </trkpt>
      <trkpt lat="45.82984" lon="4.70382">
        <ele>364.4166</ele>
        <time>2022-10-30T15:10:14.000Z</time>
      </trkpt>
      <trkpt lat="45.82988" lon="4.70389">
        <ele>364.1532</ele>
        <time>2022-10-30T15:10:15.000Z</time>
      </trkpt>
      <trkpt lat="45.8299" lon="4.70397">
        <ele>363.88882</ele>
        <time>2022-10-30T15:10:16.000Z</time>
      </trkpt>
      <trkpt lat="45.82993" lon="4.70405">
        <ele>363.63184</ele>
        <time>2022-10-30T15:10:17.000Z</time>
      </trkpt>
      <trkpt lat="45.82996" lon="4.70412">
        <ele>363.36246</ele>
        <time>2022-10-30T15:10:18.000Z</time>
      </trkpt>
      <trkpt lat="45.83" lon="4.7042">
        <ele>363.12738</ele>
        <time>2022-10-30T15:10:19.000Z</time>
      </trkpt>
      <trkpt lat="45.83003" lon="4.70427">
        <ele>362.90881</ele>
        <time>2022-10-30T15:10:20.000Z</time>
      </trkpt>
      <trkpt lat="45.83006" lon="4.70434">
        <ele>362.70599</ele>
        <time>2022-10-30T15:10:21.000Z</time>
      </trkpt>
      <trkpt lat="45.83009" lon="4.70441">
        <ele>362.54193</ele>
        <time>2022-10-30T15:10:22.000Z</time>
      </trkpt>
      <trkpt lat="45.83012" lon="4.70449">
        <ele>362.39047</ele>
        <time>2022-10-30T15:10:23.000Z</time>
      </trkpt>
      <trkpt lat="45.83016" lon="4.70456">
        <ele>362.30853</ele>
        <time>2022-10-30T15:10:24.000Z</time>
      </trkpt>
      <trkpt lat="45.83019" lon="4.70464">
        <ele>362.2995</ele>
        <time>2022-10-30T15:10:25.000Z</time>
      </trkpt>
      <trkpt lat="45.83023" lon="4.7047">
        <ele>362.3111</ele>
        <time>2022-10-30T15:10:26.000Z</time>
      </trkpt>
      <trkpt lat="45.83026" lon="4.70477">
        <ele>362.31888</ele>
        <time>2022-10-30T15:10:27.000Z</time>
      </trkpt>
      <trkpt lat="45.83029" lon="4.70485">
        <ele>362.35022</ele>
        <time>2022-10-30T15:10:28.000Z</time>
      </trkpt>
      <trkpt lat="45.83033" lon="4.70492">
        <ele>362.37921</ele>
        <time>2022-10-30T15:10:29.000Z</time>
      </trkpt>
      <trkpt lat="45.83036" lon="4.70499">
        <ele>362.38678</ele>
        <time>2022-10-30T15:10:30.000Z</time>
      </trkpt>
      <trkpt lat="45.83039" lon="4.70505">
        <ele>362.44373</ele>
        <time>2022-10-30T15:10:31.000Z</time>
      </trkpt>
      <trkpt lat="45.83042" lon="4.70512">
        <ele>362.5351</ele>
        <time>2022-10-30T15:10:32.000Z</time>
      </trkpt>
      <trkpt lat="45.83046" lon="4.7052">
        <ele>362.6076</ele>
        <time>2022-10-30T15:10:33.000Z</time>
      </trkpt>
      <trkpt lat="45.83049" lon="4.70527">
        <ele>362.67163</ele>
        <time>2022-10-30T15:10:34.000Z</time>
      </trkpt>
      <trkpt lat="45.83052" lon="4.70534">
        <ele>362.70731</ele>
        <time>2022-10-30T15:10:35.000Z</time>
      </trkpt>
      <trkpt lat="45.83056" lon="4.70541">
        <ele>362.78036</ele>
        <time>2022-10-30T15:10:36.000Z</time>
      </trkpt>
      <trkpt lat="45.83059" lon="4.70547">
        <ele>362.86945</ele>
        <time>2022-10-30T15:10:37.000Z</time>
      </trkpt>
      <trkpt lat="45.83062" lon="4.70553">
        <ele>363.00507</ele>
        <time>2022-10-30T15:10:38.000Z</time>
      </trkpt>
      <trkpt lat="45.83065" lon="4.7056">
        <ele>363.15491</ele>
        <time>2022-10-30T15:10:39.000Z</time>
      </trkpt>
      <trkpt lat="45.83067" lon="4.70565">
        <ele>363.31503</ele>
        <time>2022-10-30T15:10:40.000Z</time>
      </trkpt>
      <trkpt lat="45.8307" lon="4.70571">
        <ele>363.47739</ele>
        <time>2022-10-30T15:10:41.000Z</time>
      </trkpt>
      <trkpt lat="45.83072" lon="4.70575">
        <ele>363.60974</ele>
        <time>2022-10-30T15:10:42.000Z</time>
      </trkpt>
      <trkpt lat="45.83074" lon="4.7058">
        <ele>363.74487</ele>
        <time>2022-10-30T15:10:43.000Z</time>
      </trkpt>
      <trkpt lat="45.83075" lon="4.70583">
        <ele>363.86899</ele>
        <time>2022-10-30T15:10:44.000Z</time>
      </trkpt>
      <trkpt lat="45.83077" lon="4.70587">
        <ele>363.94107</ele>
        <time>2022-10-30T15:10:45.000Z</time>
      </trkpt>
      <trkpt lat="45.83079" lon="4.70591">
        <ele>364.00156</ele>
        <time>2022-10-30T15:10:46.000Z</time>
      </trkpt>
      <trkpt lat="45.8308" lon="4.70594">
        <ele>364.05011</ele>
        <time>2022-10-30T15:10:47.000Z</time>
      </trkpt>
      <trkpt lat="45.83083" lon="4.70597">
        <ele>364.07672</ele>
        <time>2022-10-30T15:10:48.000Z</time>
      </trkpt>
      <trkpt lat="45.83086" lon="4.706">
        <ele>364.12338</ele>
        <time>2022-10-30T15:10:49.000Z</time>
      </trkpt>
      <trkpt lat="45.83088" lon="4.70604">
        <ele>364.23395</ele>
        <time>2022-10-30T15:10:50.000Z</time>
      </trkpt>
      <trkpt lat="45.83091" lon="4.70607">
        <ele>364.29663</ele>
        <time>2022-10-30T15:10:51.000Z</time>
      </trkpt>
      <trkpt lat="45.83093" lon="4.70611">
        <ele>364.32355</ele>
        <time>2022-10-30T15:10:52.000Z</time>
      </trkpt>
      <trkpt lat="45.83095" lon="4.70616">
        <ele>364.341</ele>
        <time>2022-10-30T15:10:53.000Z</time>
      </trkpt>
      <trkpt lat="45.83097" lon="4.7062">
        <ele>364.36298</ele>
        <time>2022-10-30T15:10:54.000Z</time>
      </trkpt>
      <trkpt lat="45.831" lon="4.70625">
        <ele>364.45932</ele>
        <time>2022-10-30T15:10:55.000Z</time>
      </trkpt>
      <trkpt lat="45.83102" lon="4.7063">
        <ele>364.52698</ele>
        <time>2022-10-30T15:10:56.000Z</time>
      </trkpt>
      <trkpt lat="45.83104" lon="4.70633">
        <ele>364.59344</ele>
        <time>2022-10-30T15:10:57.000Z</time>
      </trkpt>
      <trkpt lat="45.83107" lon="4.70636">
        <ele>364.68079</ele>
        <time>2022-10-30T15:10:58.000Z</time>
      </trkpt>
      <trkpt lat="45.83108" lon="4.70637">
        <ele>364.8175</ele>
        <time>2022-10-30T15:10:59.000Z</time>
      </trkpt>
      <trkpt lat="45.83111" lon="4.70639">
        <ele>364.90442</ele>
        <time>2022-10-30T15:11:02.000Z</time>
      </trkpt>
      <trkpt lat="45.83112" lon="4.70637">
        <ele>364.94257</ele>
        <time>2022-10-30T15:11:03.000Z</time>
      </trkpt>
      <trkpt lat="45.83114" lon="4.70634">
        <ele>364.98029</ele>
        <time>2022-10-30T15:11:04.000Z</time>
      </trkpt>
      <trkpt lat="45.83116" lon="4.70632">
        <ele>365.01263</ele>
        <time>2022-10-30T15:11:05.000Z</time>
      </trkpt>
      <trkpt lat="45.83119" lon="4.7063">
        <ele>365.0755</ele>
        <time>2022-10-30T15:11:06.000Z</time>
      </trkpt>
      <trkpt lat="45.83121" lon="4.70627">
        <ele>365.18848</ele>
        <time>2022-10-30T15:11:07.000Z</time>
      </trkpt>
      <trkpt lat="45.83123" lon="4.70625">
        <ele>365.3266</ele>
        <time>2022-10-30T15:11:08.000Z</time>
      </trkpt>
      <trkpt lat="45.83126" lon="4.70622">
        <ele>365.47604</ele>
        <time>2022-10-30T15:11:09.000Z</time>
      </trkpt>
      <trkpt lat="45.83128" lon="4.70619">
        <ele>365.58118</ele>
        <time>2022-10-30T15:11:10.000Z</time>
      </trkpt>
      <trkpt lat="45.83131" lon="4.70616">
        <ele>365.64081</ele>
        <time>2022-10-30T15:11:11.000Z</time>
      </trkpt>
      <trkpt lat="45.83133" lon="4.70612">
        <ele>365.63409</ele>
        <time>2022-10-30T15:11:12.000Z</time>
      </trkpt>
      <trkpt lat="45.83135" lon="4.70608">
        <ele>365.64142</ele>
        <time>2022-10-30T15:11:13.000Z</time>
      </trkpt>
      <trkpt lat="45.83137" lon="4.70605">
        <ele>365.66104</ele>
        <time>2022-10-30T15:11:14.000Z</time>
      </trkpt>
      <trkpt lat="45.83139" lon="4.70601">
        <ele>365.69531</ele>
        <time>2022-10-30T15:11:15.000Z</time>
      </trkpt>
      <trkpt lat="45.83141" lon="4.70599">
        <ele>365.71072</ele>
        <time>2022-10-30T15:11:16.000Z</time>
      </trkpt>
      <trkpt lat="45.83143" lon="4.70597">
        <ele>365.68921</ele>
        <time>2022-10-30T15:11:17.000Z</time>
      </trkpt>
      <trkpt lat="45.83145" lon="4.70595">
        <ele>365.67523</ele>
        <time>2022-10-30T15:11:18.000Z</time>
      </trkpt>
      <trkpt lat="45.83147" lon="4.70591">
        <ele>365.6557</ele>
        <time>2022-10-30T15:11:19.000Z</time>
      </trkpt>
      <trkpt lat="45.83148" lon="4.70589">
        <ele>365.56158</ele>
        <time>2022-10-30T15:11:20.000Z</time>
      </trkpt>
      <trkpt lat="45.8315" lon="4.70588">
        <ele>365.3942</ele>
        <time>2022-10-30T15:11:21.000Z</time>
      </trkpt>
      <trkpt lat="45.83152" lon="4.70586">
        <ele>365.25159</ele>
        <time>2022-10-30T15:11:22.000Z</time>
      </trkpt>
      <trkpt lat="45.83154" lon="4.70583">
        <ele>365.15176</ele>
        <time>2022-10-30T15:11:23.000Z</time>
      </trkpt>
      <trkpt lat="45.83155" lon="4.70581">
        <ele>365.05414</ele>
        <time>2022-10-30T15:11:24.000Z</time>
      </trkpt>
      <trkpt lat="45.83157" lon="4.70578">
        <ele>364.95938</ele>
        <time>2022-10-30T15:11:25.000Z</time>
      </trkpt>
      <trkpt lat="45.83159" lon="4.70576">
        <ele>364.82892</ele>
        <time>2022-10-30T15:11:26.000Z</time>
      </trkpt>
      <trkpt lat="45.83161" lon="4.70573">
        <ele>364.67133</ele>
        <time>2022-10-30T15:11:27.000Z</time>
      </trkpt>
      <trkpt lat="45.83163" lon="4.7057">
        <ele>364.47028</ele>
        <time>2022-10-30T15:11:28.000Z</time>
      </trkpt>
      <trkpt lat="45.83165" lon="4.70567">
        <ele>364.284</ele>
        <time>2022-10-30T15:11:29.000Z</time>
      </trkpt>
      <trkpt lat="45.83168" lon="4.70564">
        <ele>364.15002</ele>
        <time>2022-10-30T15:11:30.000Z</time>
      </trkpt>
      <trkpt lat="45.8317" lon="4.7056">
        <ele>364.00885</ele>
        <time>2022-10-30T15:11:31.000Z</time>
      </trkpt>
      <trkpt lat="45.83173" lon="4.70555">
        <ele>363.88483</ele>
        <time>2022-10-30T15:11:32.000Z</time>
      </trkpt>
      <trkpt lat="45.83176" lon="4.7055">
        <ele>363.77036</ele>
        <time>2022-10-30T15:11:33.000Z</time>
      </trkpt>
      <trkpt lat="45.83179" lon="4.70545">
        <ele>363.6629</ele>
        <time>2022-10-30T15:11:34.000Z</time>
      </trkpt>
      <trkpt lat="45.83182" lon="4.70539">
        <ele>363.55722</ele>
        <time>2022-10-30T15:11:35.000Z</time>
      </trkpt>
      <trkpt lat="45.83186" lon="4.70534">
        <ele>363.45709</ele>
        <time>2022-10-30T15:11:36.000Z</time>
      </trkpt>
      <trkpt lat="45.83189" lon="4.7053">
        <ele>363.36725</ele>
        <time>2022-10-30T15:11:37.000Z</time>
      </trkpt>
      <trkpt lat="45.83192" lon="4.70525">
        <ele>363.24408</ele>
        <time>2022-10-30T15:11:38.000Z</time>
      </trkpt>
      <trkpt lat="45.83196" lon="4.70519">
        <ele>363.10071</ele>
        <time>2022-10-30T15:11:39.000Z</time>
      </trkpt>
      <trkpt lat="45.83199" lon="4.70513">
        <ele>362.95221</ele>
        <time>2022-10-30T15:11:40.000Z</time>
      </trkpt>
      <trkpt lat="45.83203" lon="4.70507">
        <ele>362.80215</ele>
        <time>2022-10-30T15:11:41.000Z</time>
      </trkpt>
      <trkpt lat="45.83206" lon="4.70501">
        <ele>362.64789</ele>
        <time>2022-10-30T15:11:42.000Z</time>
      </trkpt>
      <trkpt lat="45.83211" lon="4.70494">
        <ele>362.44324</ele>
        <time>2022-10-30T15:11:43.000Z</time>
      </trkpt>
      <trkpt lat="45.83215" lon="4.70488">
        <ele>362.22217</ele>
        <time>2022-10-30T15:11:44.000Z</time>
      </trkpt>
      <trkpt lat="45.83219" lon="4.70481">
        <ele>361.9888</ele>
        <time>2022-10-30T15:11:45.000Z</time>
      </trkpt>
      <trkpt lat="45.83224" lon="4.70475">
        <ele>361.76154</ele>
        <time>2022-10-30T15:11:46.000Z</time>
      </trkpt>
      <trkpt lat="45.83228" lon="4.70467">
        <ele>361.51044</ele>
        <time>2022-10-30T15:11:47.000Z</time>
      </trkpt>
      <trkpt lat="45.83233" lon="4.70459">
        <ele>361.24252</ele>
        <time>2022-10-30T15:11:48.000Z</time>
      </trkpt>
      <trkpt lat="45.83238" lon="4.70452">
        <ele>360.95715</ele>
        <time>2022-10-30T15:11:49.000Z</time>
      </trkpt>
      <trkpt lat="45.83243" lon="4.70445">
        <ele>360.66196</ele>
        <time>2022-10-30T15:11:50.000Z</time>
      </trkpt>
      <trkpt lat="45.83247" lon="4.70437">
        <ele>360.34045</ele>
        <time>2022-10-30T15:11:51.000Z</time>
      </trkpt>
      <trkpt lat="45.83252" lon="4.70429">
        <ele>359.96005</ele>
        <time>2022-10-30T15:11:52.000Z</time>
      </trkpt>
      <trkpt lat="45.83258" lon="4.7042">
        <ele>359.57315</ele>
        <time>2022-10-30T15:11:53.000Z</time>
      </trkpt>
      <trkpt lat="45.83263" lon="4.70411">
        <ele>359.18677</ele>
        <time>2022-10-30T15:11:54.000Z</time>
      </trkpt>
      <trkpt lat="45.83269" lon="4.70402">
        <ele>358.78558</ele>
        <time>2022-10-30T15:11:55.000Z</time>
      </trkpt>
      <trkpt lat="45.83274" lon="4.70393">
        <ele>358.35709</ele>
        <time>2022-10-30T15:11:56.000Z</time>
      </trkpt>
      <trkpt lat="45.8328" lon="4.70384">
        <ele>357.92529</ele>
        <time>2022-10-30T15:11:57.000Z</time>
      </trkpt>
      <trkpt lat="45.83286" lon="4.70375">
        <ele>357.50742</ele>
        <time>2022-10-30T15:11:58.000Z</time>
      </trkpt>
      <trkpt lat="45.83292" lon="4.70366">
        <ele>357.12521</ele>
        <time>2022-10-30T15:11:59.000Z</time>
      </trkpt>
      <trkpt lat="45.83296" lon="4.70358">
        <ele>356.72986</ele>
        <time>2022-10-30T15:12:00.000Z</time>
      </trkpt>
      <trkpt lat="45.83302" lon="4.70351">
        <ele>356.32602</ele>
        <time>2022-10-30T15:12:01.000Z</time>
      </trkpt>
      <trkpt lat="45.83306" lon="4.70344">
        <ele>355.94232</ele>
        <time>2022-10-30T15:12:02.000Z</time>
      </trkpt>
      <trkpt lat="45.8331" lon="4.70338">
        <ele>355.58508</ele>
        <time>2022-10-30T15:12:03.000Z</time>
      </trkpt>
      <trkpt lat="45.83314" lon="4.70335">
        <ele>355.24274</ele>
        <time>2022-10-30T15:12:04.000Z</time>
      </trkpt>
      <trkpt lat="45.83319" lon="4.70336">
        <ele>354.89975</ele>
        <time>2022-10-30T15:12:05.000Z</time>
      </trkpt>
      <trkpt lat="45.83323" lon="4.70341">
        <ele>354.56525</ele>
        <time>2022-10-30T15:12:06.000Z</time>
      </trkpt>
      <trkpt lat="45.83324" lon="4.70347">
        <ele>354.25452</ele>
        <time>2022-10-30T15:12:07.000Z</time>
      </trkpt>
      <trkpt lat="45.83325" lon="4.70353">
        <ele>353.99255</ele>
        <time>2022-10-30T15:12:08.000Z</time>
      </trkpt>
      <trkpt lat="45.83326" lon="4.7036">
        <ele>353.73621</ele>
        <time>2022-10-30T15:12:09.000Z</time>
      </trkpt>
      <trkpt lat="45.83327" lon="4.70367">
        <ele>353.46503</ele>
        <time>2022-10-30T15:12:10.000Z</time>
      </trkpt>
      <trkpt lat="45.83328" lon="4.70374">
        <ele>353.2352</ele>
        <time>2022-10-30T15:12:11.000Z</time>
      </trkpt>
      <trkpt lat="45.83329" lon="4.70382">
        <ele>353.0545</ele>
        <time>2022-10-30T15:12:12.000Z</time>
      </trkpt>
      <trkpt lat="45.8333" lon="4.70389">
        <ele>352.89932</ele>
        <time>2022-10-30T15:12:13.000Z</time>
      </trkpt>
      <trkpt lat="45.83331" lon="4.70396">
        <ele>352.76556</ele>
        <time>2022-10-30T15:12:14.000Z</time>
      </trkpt>
      <trkpt lat="45.83332" lon="4.70404">
        <ele>352.63208</ele>
        <time>2022-10-30T15:12:15.000Z</time>
      </trkpt>
      <trkpt lat="45.83334" lon="4.70411">
        <ele>352.50323</ele>
        <time>2022-10-30T15:12:16.000Z</time>
      </trkpt>
      <trkpt lat="45.83336" lon="4.70417">
        <ele>352.36002</ele>
        <time>2022-10-30T15:12:17.000Z</time>
      </trkpt>
      <trkpt lat="45.83336" lon="4.70425">
        <ele>352.20648</ele>
        <time>2022-10-30T15:12:18.000Z</time>
      </trkpt>
      <trkpt lat="45.83337" lon="4.70433">
        <ele>352.05719</ele>
        <time>2022-10-30T15:12:19.000Z</time>
      </trkpt>
      <trkpt lat="45.83337" lon="4.70441">
        <ele>351.94354</ele>
        <time>2022-10-30T15:12:20.000Z</time>
      </trkpt>
      <trkpt lat="45.83338" lon="4.70449">
        <ele>351.84744</ele>
        <time>2022-10-30T15:12:21.000Z</time>
      </trkpt>
      <trkpt lat="45.83338" lon="4.70456">
        <ele>351.7243</ele>
        <time>2022-10-30T15:12:22.000Z</time>
      </trkpt>
      <trkpt lat="45.83338" lon="4.70464">
        <ele>351.61414</ele>
        <time>2022-10-30T15:12:23.000Z</time>
      </trkpt>
      <trkpt lat="45.83339" lon="4.70471">
        <ele>351.50098</ele>
        <time>2022-10-30T15:12:24.000Z</time>
      </trkpt>
      <trkpt lat="45.8334" lon="4.70479">
        <ele>351.41605</ele>
        <time>2022-10-30T15:12:25.000Z</time>
      </trkpt>
      <trkpt lat="45.8334" lon="4.70488">
        <ele>351.34018</ele>
        <time>2022-10-30T15:12:26.000Z</time>
      </trkpt>
      <trkpt lat="45.83341" lon="4.70496">
        <ele>351.27802</ele>
        <time>2022-10-30T15:12:27.000Z</time>
      </trkpt>
      <trkpt lat="45.83343" lon="4.70504">
        <ele>351.21722</ele>
        <time>2022-10-30T15:12:28.000Z</time>
      </trkpt>
      <trkpt lat="45.83344" lon="4.70512">
        <ele>351.189</ele>
        <time>2022-10-30T15:12:29.000Z</time>
      </trkpt>
      <trkpt lat="45.83344" lon="4.7052">
        <ele>351.18076</ele>
        <time>2022-10-30T15:12:30.000Z</time>
      </trkpt>
      <trkpt lat="45.83345" lon="4.70528">
        <ele>351.185</ele>
        <time>2022-10-30T15:12:31.000Z</time>
      </trkpt>
      <trkpt lat="45.83346" lon="4.70535">
        <ele>351.20294</ele>
        <time>2022-10-30T15:12:32.000Z</time>
      </trkpt>
      <trkpt lat="45.83346" lon="4.70543">
        <ele>351.22931</ele>
        <time>2022-10-30T15:12:33.000Z</time>
      </trkpt>
      <trkpt lat="45.83347" lon="4.70551">
        <ele>351.27167</ele>
        <time>2022-10-30T15:12:34.000Z</time>
      </trkpt>
      <trkpt lat="45.83347" lon="4.70559">
        <ele>351.27905</ele>
        <time>2022-10-30T15:12:35.000Z</time>
      </trkpt>
      <trkpt lat="45.83348" lon="4.70566">
        <ele>351.2739</ele>
        <time>2022-10-30T15:12:36.000Z</time>
      </trkpt>
      <trkpt lat="45.83348" lon="4.70574">
        <ele>351.28204</ele>
        <time>2022-10-30T15:12:37.000Z</time>
      </trkpt>
      <trkpt lat="45.83348" lon="4.70582">
        <ele>351.30417</ele>
        <time>2022-10-30T15:12:38.000Z</time>
      </trkpt>
      <trkpt lat="45.83349" lon="4.70589">
        <ele>351.30399</ele>
        <time>2022-10-30T15:12:39.000Z</time>
      </trkpt>
      <trkpt lat="45.83348" lon="4.70598">
        <ele>351.33624</ele>
        <time>2022-10-30T15:12:40.000Z</time>
      </trkpt>
      <trkpt lat="45.8335" lon="4.70605">
        <ele>351.35483</ele>
        <time>2022-10-30T15:12:41.000Z</time>
      </trkpt>
      <trkpt lat="45.8335" lon="4.70613">
        <ele>351.388</ele>
        <time>2022-10-30T15:12:42.000Z</time>
      </trkpt>
      <trkpt lat="45.8335" lon="4.70621">
        <ele>351.44748</ele>
        <time>2022-10-30T15:12:43.000Z</time>
      </trkpt>
      <trkpt lat="45.83351" lon="4.70628">
        <ele>351.54388</ele>
        <time>2022-10-30T15:12:44.000Z</time>
      </trkpt>
      <trkpt lat="45.83351" lon="4.70637">
        <ele>351.66187</ele>
        <time>2022-10-30T15:12:45.000Z</time>
      </trkpt>
      <trkpt lat="45.8335" lon="4.70644">
        <ele>351.77258</ele>
        <time>2022-10-30T15:12:46.000Z</time>
      </trkpt>
      <trkpt lat="45.8335" lon="4.70652">
        <ele>351.89386</ele>
        <time>2022-10-30T15:12:47.000Z</time>
      </trkpt>
      <trkpt lat="45.83349" lon="4.70659">
        <ele>351.95941</ele>
        <time>2022-10-30T15:12:48.000Z</time>
      </trkpt>
      <trkpt lat="45.83349" lon="4.70666">
        <ele>352.00577</ele>
        <time>2022-10-30T15:12:49.000Z</time>
      </trkpt>
      <trkpt lat="45.83348" lon="4.70673">
        <ele>352.0376</ele>
        <time>2022-10-30T15:12:50.000Z</time>
      </trkpt>
      <trkpt lat="45.83347" lon="4.70679">
        <ele>352.10001</ele>
        <time>2022-10-30T15:12:51.000Z</time>
      </trkpt>
      <trkpt lat="45.83347" lon="4.70687">
        <ele>352.13959</ele>
        <time>2022-10-30T15:12:52.000Z</time>
      </trkpt>
      <trkpt lat="45.83347" lon="4.70693">
        <ele>352.20563</ele>
        <time>2022-10-30T15:12:53.000Z</time>
      </trkpt>
      <trkpt lat="45.83346" lon="4.707">
        <ele>352.24286</ele>
        <time>2022-10-30T15:12:54.000Z</time>
      </trkpt>
      <trkpt lat="45.83346" lon="4.70706">
        <ele>352.33212</ele>
        <time>2022-10-30T15:12:55.000Z</time>
      </trkpt>
      <trkpt lat="45.83345" lon="4.70713">
        <ele>352.42896</ele>
        <time>2022-10-30T15:12:56.000Z</time>
      </trkpt>
      <trkpt lat="45.83344" lon="4.7072">
        <ele>352.51855</ele>
        <time>2022-10-30T15:12:57.000Z</time>
      </trkpt>
      <trkpt lat="45.83344" lon="4.70727">
        <ele>352.62109</ele>
        <time>2022-10-30T15:12:58.000Z</time>
      </trkpt>
      <trkpt lat="45.83343" lon="4.70735">
        <ele>352.70889</ele>
        <time>2022-10-30T15:12:59.000Z</time>
      </trkpt>
      <trkpt lat="45.83343" lon="4.70742">
        <ele>352.75226</ele>
        <time>2022-10-30T15:13:00.000Z</time>
      </trkpt>
      <trkpt lat="45.83342" lon="4.70749">
        <ele>352.83145</ele>
        <time>2022-10-30T15:13:01.000Z</time>
      </trkpt>
      <trkpt lat="45.83341" lon="4.70757">
        <ele>352.89294</ele>
        <time>2022-10-30T15:13:02.000Z</time>
      </trkpt>
      <trkpt lat="45.83341" lon="4.70763">
        <ele>352.94733</ele>
        <time>2022-10-30T15:13:03.000Z</time>
      </trkpt>
      <trkpt lat="45.83341" lon="4.7077">
        <ele>352.97778</ele>
        <time>2022-10-30T15:13:04.000Z</time>
      </trkpt>
      <trkpt lat="45.8334" lon="4.70777">
        <ele>352.99957</ele>
        <time>2022-10-30T15:13:05.000Z</time>
      </trkpt>
      <trkpt lat="45.83339" lon="4.70785">
        <ele>353.00043</ele>
        <time>2022-10-30T15:13:06.000Z</time>
      </trkpt>
      <trkpt lat="45.83338" lon="4.70792">
        <ele>352.94687</ele>
        <time>2022-10-30T15:13:07.000Z</time>
      </trkpt>
      <trkpt lat="45.83338" lon="4.70799">
        <ele>352.91241</ele>
        <time>2022-10-30T15:13:08.000Z</time>
      </trkpt>
      <trkpt lat="45.83337" lon="4.70806">
        <ele>352.89377</ele>
        <time>2022-10-30T15:13:09.000Z</time>
      </trkpt>
      <trkpt lat="45.83337" lon="4.70814">
        <ele>352.91238</ele>
        <time>2022-10-30T15:13:10.000Z</time>
      </trkpt>
      <trkpt lat="45.83337" lon="4.70821">
        <ele>352.90433</ele>
        <time>2022-10-30T15:13:11.000Z</time>
      </trkpt>
      <trkpt lat="45.83336" lon="4.70827">
        <ele>352.93164</ele>
        <time>2022-10-30T15:13:12.000Z</time>
      </trkpt>
      <trkpt lat="45.83336" lon="4.70834">
        <ele>352.93082</ele>
        <time>2022-10-30T15:13:13.000Z</time>
      </trkpt>
    </trkseg>
  </trk>
</gpx>